<?xml version="1.0" encoding="UTF-8"?>
<gpx xmlns="http://www.topografix.com/GPX/1/1"
     creator="GpsDumpMac 0.29"
     version="1.1"
     xmlns:xsi="http://www.w3.org/2001/XMLSchema-instance"
     xsi:schemaLocation="http://www.topografix.com/GPX/1/1 http://www.topografix.com/GPX/1/1/gpx.xsd">
  <metadata>
    <link href="http://www.gethome.no/stein.sorensen/">
      <text>GPS dump for www.flightlog.org</text>
    </link>
    <time>2018-09-19T12:50:40Z</time>
    <bounds minlat="40.165600" minlon="-5.081583" maxlat="40.295850" maxlon="-4.885617"/>
  </metadata>
  <trk>
    <name>Track 001</name>
    <trkseg>
      <trkpt lat="40.252217" lon="-4.887450">
        <ele>1014.0</ele>
        <time>2018-09-15T12:00:32Z</time>
      </trkpt>
      <trkpt lat="40.252167" lon="-4.887400">
        <ele>1015.0</ele>
        <time>2018-09-15T12:00:33Z</time>
      </trkpt>
      <trkpt lat="40.252100" lon="-4.887367">
        <ele>1017.0</ele>
        <time>2018-09-15T12:00:34Z</time>
      </trkpt>
      <trkpt lat="40.252033" lon="-4.887350">
        <ele>1020.0</ele>
        <time>2018-09-15T12:00:35Z</time>
      </trkpt>
      <trkpt lat="40.251983" lon="-4.887317">
        <ele>1022.0</ele>
        <time>2018-09-15T12:00:36Z</time>
      </trkpt>
      <trkpt lat="40.251917" lon="-4.887317">
        <ele>1022.0</ele>
        <time>2018-09-15T12:00:37Z</time>
      </trkpt>
      <trkpt lat="40.251833" lon="-4.887317">
        <ele>1023.0</ele>
        <time>2018-09-15T12:00:38Z</time>
      </trkpt>
      <trkpt lat="40.251750" lon="-4.887350">
        <ele>1022.0</ele>
        <time>2018-09-15T12:00:39Z</time>
      </trkpt>
      <trkpt lat="40.251683" lon="-4.887400">
        <ele>1023.0</ele>
        <time>2018-09-15T12:00:40Z</time>
      </trkpt>
      <trkpt lat="40.251600" lon="-4.887433">
        <ele>1024.0</ele>
        <time>2018-09-15T12:00:41Z</time>
      </trkpt>
      <trkpt lat="40.251517" lon="-4.887467">
        <ele>1023.0</ele>
        <time>2018-09-15T12:00:42Z</time>
      </trkpt>
      <trkpt lat="40.251433" lon="-4.887467">
        <ele>1023.0</ele>
        <time>2018-09-15T12:00:43Z</time>
      </trkpt>
      <trkpt lat="40.251350" lon="-4.887450">
        <ele>1023.0</ele>
        <time>2018-09-15T12:00:44Z</time>
      </trkpt>
      <trkpt lat="40.251283" lon="-4.887433">
        <ele>1024.0</ele>
        <time>2018-09-15T12:00:45Z</time>
      </trkpt>
      <trkpt lat="40.251233" lon="-4.887383">
        <ele>1025.0</ele>
        <time>2018-09-15T12:00:46Z</time>
      </trkpt>
      <trkpt lat="40.251233" lon="-4.887317">
        <ele>1024.0</ele>
        <time>2018-09-15T12:00:47Z</time>
      </trkpt>
      <trkpt lat="40.251267" lon="-4.887267">
        <ele>1023.0</ele>
        <time>2018-09-15T12:00:48Z</time>
      </trkpt>
      <trkpt lat="40.251300" lon="-4.887217">
        <ele>1023.0</ele>
        <time>2018-09-15T12:00:49Z</time>
      </trkpt>
      <trkpt lat="40.251367" lon="-4.887183">
        <ele>1022.0</ele>
        <time>2018-09-15T12:00:50Z</time>
      </trkpt>
      <trkpt lat="40.251450" lon="-4.887200">
        <ele>1021.0</ele>
        <time>2018-09-15T12:00:51Z</time>
      </trkpt>
      <trkpt lat="40.251533" lon="-4.887250">
        <ele>1020.0</ele>
        <time>2018-09-15T12:00:52Z</time>
      </trkpt>
      <trkpt lat="40.251617" lon="-4.887317">
        <ele>1019.0</ele>
        <time>2018-09-15T12:00:53Z</time>
      </trkpt>
      <trkpt lat="40.251700" lon="-4.887367">
        <ele>1019.0</ele>
        <time>2018-09-15T12:00:54Z</time>
      </trkpt>
      <trkpt lat="40.251767" lon="-4.887383">
        <ele>1018.0</ele>
        <time>2018-09-15T12:00:55Z</time>
      </trkpt>
      <trkpt lat="40.251833" lon="-4.887367">
        <ele>1016.0</ele>
        <time>2018-09-15T12:00:56Z</time>
      </trkpt>
      <trkpt lat="40.251883" lon="-4.887300">
        <ele>1014.0</ele>
        <time>2018-09-15T12:00:57Z</time>
      </trkpt>
      <trkpt lat="40.251917" lon="-4.887233">
        <ele>1013.0</ele>
        <time>2018-09-15T12:00:58Z</time>
      </trkpt>
      <trkpt lat="40.251917" lon="-4.887167">
        <ele>1013.0</ele>
        <time>2018-09-15T12:00:59Z</time>
      </trkpt>
      <trkpt lat="40.251900" lon="-4.887117">
        <ele>1012.0</ele>
        <time>2018-09-15T12:01:00Z</time>
      </trkpt>
      <trkpt lat="40.251850" lon="-4.887067">
        <ele>1012.0</ele>
        <time>2018-09-15T12:01:01Z</time>
      </trkpt>
      <trkpt lat="40.251783" lon="-4.887033">
        <ele>1010.0</ele>
        <time>2018-09-15T12:01:02Z</time>
      </trkpt>
      <trkpt lat="40.251700" lon="-4.887017">
        <ele>1009.0</ele>
        <time>2018-09-15T12:01:03Z</time>
      </trkpt>
      <trkpt lat="40.251600" lon="-4.887033">
        <ele>1007.0</ele>
        <time>2018-09-15T12:01:04Z</time>
      </trkpt>
      <trkpt lat="40.251517" lon="-4.887033">
        <ele>1006.0</ele>
        <time>2018-09-15T12:01:05Z</time>
      </trkpt>
      <trkpt lat="40.251417" lon="-4.887033">
        <ele>1006.0</ele>
        <time>2018-09-15T12:01:06Z</time>
      </trkpt>
      <trkpt lat="40.251333" lon="-4.887033">
        <ele>1006.0</ele>
        <time>2018-09-15T12:01:07Z</time>
      </trkpt>
      <trkpt lat="40.251233" lon="-4.887033">
        <ele>1005.0</ele>
        <time>2018-09-15T12:01:08Z</time>
      </trkpt>
      <trkpt lat="40.251150" lon="-4.887033">
        <ele>1004.0</ele>
        <time>2018-09-15T12:01:09Z</time>
      </trkpt>
      <trkpt lat="40.251067" lon="-4.887050">
        <ele>1003.0</ele>
        <time>2018-09-15T12:01:10Z</time>
      </trkpt>
      <trkpt lat="40.250967" lon="-4.887050">
        <ele>1002.0</ele>
        <time>2018-09-15T12:01:11Z</time>
      </trkpt>
      <trkpt lat="40.250867" lon="-4.887050">
        <ele>1001.0</ele>
        <time>2018-09-15T12:01:12Z</time>
      </trkpt>
      <trkpt lat="40.250767" lon="-4.887017">
        <ele>1000.0</ele>
        <time>2018-09-15T12:01:13Z</time>
      </trkpt>
      <trkpt lat="40.250683" lon="-4.886983">
        <ele>999.0</ele>
        <time>2018-09-15T12:01:14Z</time>
      </trkpt>
      <trkpt lat="40.250600" lon="-4.886967">
        <ele>999.0</ele>
        <time>2018-09-15T12:01:15Z</time>
      </trkpt>
      <trkpt lat="40.250500" lon="-4.886967">
        <ele>999.0</ele>
        <time>2018-09-15T12:01:16Z</time>
      </trkpt>
      <trkpt lat="40.250417" lon="-4.886950">
        <ele>1000.0</ele>
        <time>2018-09-15T12:01:17Z</time>
      </trkpt>
      <trkpt lat="40.250333" lon="-4.886950">
        <ele>1002.0</ele>
        <time>2018-09-15T12:01:18Z</time>
      </trkpt>
      <trkpt lat="40.250267" lon="-4.886950">
        <ele>1005.0</ele>
        <time>2018-09-15T12:01:19Z</time>
      </trkpt>
      <trkpt lat="40.250200" lon="-4.886967">
        <ele>1008.0</ele>
        <time>2018-09-15T12:01:20Z</time>
      </trkpt>
      <trkpt lat="40.250150" lon="-4.887000">
        <ele>1010.0</ele>
        <time>2018-09-15T12:01:21Z</time>
      </trkpt>
      <trkpt lat="40.250083" lon="-4.887017">
        <ele>1011.0</ele>
        <time>2018-09-15T12:01:22Z</time>
      </trkpt>
      <trkpt lat="40.250017" lon="-4.887083">
        <ele>1012.0</ele>
        <time>2018-09-15T12:01:23Z</time>
      </trkpt>
      <trkpt lat="40.249950" lon="-4.887167">
        <ele>1013.0</ele>
        <time>2018-09-15T12:01:24Z</time>
      </trkpt>
      <trkpt lat="40.249900" lon="-4.887300">
        <ele>1014.0</ele>
        <time>2018-09-15T12:01:25Z</time>
      </trkpt>
      <trkpt lat="40.249867" lon="-4.887467">
        <ele>1014.0</ele>
        <time>2018-09-15T12:01:26Z</time>
      </trkpt>
      <trkpt lat="40.249883" lon="-4.887633">
        <ele>1015.0</ele>
        <time>2018-09-15T12:01:27Z</time>
      </trkpt>
      <trkpt lat="40.249933" lon="-4.887800">
        <ele>1017.0</ele>
        <time>2018-09-15T12:01:28Z</time>
      </trkpt>
      <trkpt lat="40.250017" lon="-4.887933">
        <ele>1019.0</ele>
        <time>2018-09-15T12:01:29Z</time>
      </trkpt>
      <trkpt lat="40.250117" lon="-4.888017">
        <ele>1020.0</ele>
        <time>2018-09-15T12:01:30Z</time>
      </trkpt>
      <trkpt lat="40.250217" lon="-4.888050">
        <ele>1021.0</ele>
        <time>2018-09-15T12:01:31Z</time>
      </trkpt>
      <trkpt lat="40.250300" lon="-4.888050">
        <ele>1021.0</ele>
        <time>2018-09-15T12:01:32Z</time>
      </trkpt>
      <trkpt lat="40.250383" lon="-4.888033">
        <ele>1021.0</ele>
        <time>2018-09-15T12:01:33Z</time>
      </trkpt>
      <trkpt lat="40.250433" lon="-4.887983">
        <ele>1020.0</ele>
        <time>2018-09-15T12:01:34Z</time>
      </trkpt>
      <trkpt lat="40.250467" lon="-4.887900">
        <ele>1019.0</ele>
        <time>2018-09-15T12:01:35Z</time>
      </trkpt>
      <trkpt lat="40.250467" lon="-4.887817">
        <ele>1017.0</ele>
        <time>2018-09-15T12:01:36Z</time>
      </trkpt>
      <trkpt lat="40.250450" lon="-4.887733">
        <ele>1016.0</ele>
        <time>2018-09-15T12:01:37Z</time>
      </trkpt>
      <trkpt lat="40.250417" lon="-4.887667">
        <ele>1017.0</ele>
        <time>2018-09-15T12:01:38Z</time>
      </trkpt>
      <trkpt lat="40.250367" lon="-4.887617">
        <ele>1018.0</ele>
        <time>2018-09-15T12:01:39Z</time>
      </trkpt>
      <trkpt lat="40.250317" lon="-4.887583">
        <ele>1020.0</ele>
        <time>2018-09-15T12:01:40Z</time>
      </trkpt>
      <trkpt lat="40.250267" lon="-4.887567">
        <ele>1022.0</ele>
        <time>2018-09-15T12:01:41Z</time>
      </trkpt>
      <trkpt lat="40.250200" lon="-4.887550">
        <ele>1024.0</ele>
        <time>2018-09-15T12:01:42Z</time>
      </trkpt>
      <trkpt lat="40.250133" lon="-4.887550">
        <ele>1025.0</ele>
        <time>2018-09-15T12:01:43Z</time>
      </trkpt>
      <trkpt lat="40.250067" lon="-4.887567">
        <ele>1026.0</ele>
        <time>2018-09-15T12:01:44Z</time>
      </trkpt>
      <trkpt lat="40.250000" lon="-4.887583">
        <ele>1028.0</ele>
        <time>2018-09-15T12:01:45Z</time>
      </trkpt>
      <trkpt lat="40.249917" lon="-4.887617">
        <ele>1031.0</ele>
        <time>2018-09-15T12:01:46Z</time>
      </trkpt>
      <trkpt lat="40.249850" lon="-4.887667">
        <ele>1034.0</ele>
        <time>2018-09-15T12:01:47Z</time>
      </trkpt>
      <trkpt lat="40.249783" lon="-4.887717">
        <ele>1036.0</ele>
        <time>2018-09-15T12:01:48Z</time>
      </trkpt>
      <trkpt lat="40.249700" lon="-4.887783">
        <ele>1038.0</ele>
        <time>2018-09-15T12:01:49Z</time>
      </trkpt>
      <trkpt lat="40.249633" lon="-4.887867">
        <ele>1039.0</ele>
        <time>2018-09-15T12:01:50Z</time>
      </trkpt>
      <trkpt lat="40.249567" lon="-4.887950">
        <ele>1039.0</ele>
        <time>2018-09-15T12:01:51Z</time>
      </trkpt>
      <trkpt lat="40.249500" lon="-4.888050">
        <ele>1040.0</ele>
        <time>2018-09-15T12:01:52Z</time>
      </trkpt>
      <trkpt lat="40.249417" lon="-4.888100">
        <ele>1040.0</ele>
        <time>2018-09-15T12:01:53Z</time>
      </trkpt>
      <trkpt lat="40.249350" lon="-4.888117">
        <ele>1040.0</ele>
        <time>2018-09-15T12:01:54Z</time>
      </trkpt>
      <trkpt lat="40.249283" lon="-4.888100">
        <ele>1040.0</ele>
        <time>2018-09-15T12:01:55Z</time>
      </trkpt>
      <trkpt lat="40.249233" lon="-4.888050">
        <ele>1040.0</ele>
        <time>2018-09-15T12:01:56Z</time>
      </trkpt>
      <trkpt lat="40.249183" lon="-4.888000">
        <ele>1040.0</ele>
        <time>2018-09-15T12:01:57Z</time>
      </trkpt>
      <trkpt lat="40.249167" lon="-4.887933">
        <ele>1040.0</ele>
        <time>2018-09-15T12:01:58Z</time>
      </trkpt>
      <trkpt lat="40.249167" lon="-4.887867">
        <ele>1040.0</ele>
        <time>2018-09-15T12:01:59Z</time>
      </trkpt>
      <trkpt lat="40.249183" lon="-4.887800">
        <ele>1039.0</ele>
        <time>2018-09-15T12:02:00Z</time>
      </trkpt>
      <trkpt lat="40.249233" lon="-4.887733">
        <ele>1039.0</ele>
        <time>2018-09-15T12:02:01Z</time>
      </trkpt>
      <trkpt lat="40.249267" lon="-4.887683">
        <ele>1040.0</ele>
        <time>2018-09-15T12:02:02Z</time>
      </trkpt>
      <trkpt lat="40.249317" lon="-4.887650">
        <ele>1040.0</ele>
        <time>2018-09-15T12:02:03Z</time>
      </trkpt>
      <trkpt lat="40.249383" lon="-4.887633">
        <ele>1040.0</ele>
        <time>2018-09-15T12:02:04Z</time>
      </trkpt>
      <trkpt lat="40.249467" lon="-4.887650">
        <ele>1039.0</ele>
        <time>2018-09-15T12:02:05Z</time>
      </trkpt>
      <trkpt lat="40.249567" lon="-4.887700">
        <ele>1039.0</ele>
        <time>2018-09-15T12:02:06Z</time>
      </trkpt>
      <trkpt lat="40.249667" lon="-4.887783">
        <ele>1039.0</ele>
        <time>2018-09-15T12:02:07Z</time>
      </trkpt>
      <trkpt lat="40.249750" lon="-4.887883">
        <ele>1040.0</ele>
        <time>2018-09-15T12:02:08Z</time>
      </trkpt>
      <trkpt lat="40.249833" lon="-4.888000">
        <ele>1040.0</ele>
        <time>2018-09-15T12:02:09Z</time>
      </trkpt>
      <trkpt lat="40.249883" lon="-4.888117">
        <ele>1040.0</ele>
        <time>2018-09-15T12:02:10Z</time>
      </trkpt>
      <trkpt lat="40.249933" lon="-4.888267">
        <ele>1038.0</ele>
        <time>2018-09-15T12:02:11Z</time>
      </trkpt>
      <trkpt lat="40.249950" lon="-4.888450">
        <ele>1036.0</ele>
        <time>2018-09-15T12:02:12Z</time>
      </trkpt>
      <trkpt lat="40.249950" lon="-4.888650">
        <ele>1035.0</ele>
        <time>2018-09-15T12:02:13Z</time>
      </trkpt>
      <trkpt lat="40.249900" lon="-4.888833">
        <ele>1037.0</ele>
        <time>2018-09-15T12:02:14Z</time>
      </trkpt>
      <trkpt lat="40.249833" lon="-4.888983">
        <ele>1040.0</ele>
        <time>2018-09-15T12:02:15Z</time>
      </trkpt>
      <trkpt lat="40.249783" lon="-4.889083">
        <ele>1042.0</ele>
        <time>2018-09-15T12:02:16Z</time>
      </trkpt>
      <trkpt lat="40.249733" lon="-4.889150">
        <ele>1043.0</ele>
        <time>2018-09-15T12:02:17Z</time>
      </trkpt>
      <trkpt lat="40.249683" lon="-4.889217">
        <ele>1043.0</ele>
        <time>2018-09-15T12:02:18Z</time>
      </trkpt>
      <trkpt lat="40.249617" lon="-4.889250">
        <ele>1042.0</ele>
        <time>2018-09-15T12:02:19Z</time>
      </trkpt>
      <trkpt lat="40.249550" lon="-4.889267">
        <ele>1041.0</ele>
        <time>2018-09-15T12:02:20Z</time>
      </trkpt>
      <trkpt lat="40.249483" lon="-4.889250">
        <ele>1039.0</ele>
        <time>2018-09-15T12:02:21Z</time>
      </trkpt>
      <trkpt lat="40.249450" lon="-4.889200">
        <ele>1038.0</ele>
        <time>2018-09-15T12:02:22Z</time>
      </trkpt>
      <trkpt lat="40.249417" lon="-4.889133">
        <ele>1038.0</ele>
        <time>2018-09-15T12:02:23Z</time>
      </trkpt>
      <trkpt lat="40.249400" lon="-4.889067">
        <ele>1039.0</ele>
        <time>2018-09-15T12:02:24Z</time>
      </trkpt>
      <trkpt lat="40.249383" lon="-4.889000">
        <ele>1039.0</ele>
        <time>2018-09-15T12:02:25Z</time>
      </trkpt>
      <trkpt lat="40.249400" lon="-4.888933">
        <ele>1040.0</ele>
        <time>2018-09-15T12:02:26Z</time>
      </trkpt>
      <trkpt lat="40.249417" lon="-4.888883">
        <ele>1040.0</ele>
        <time>2018-09-15T12:02:27Z</time>
      </trkpt>
      <trkpt lat="40.249433" lon="-4.888833">
        <ele>1040.0</ele>
        <time>2018-09-15T12:02:28Z</time>
      </trkpt>
      <trkpt lat="40.249483" lon="-4.888783">
        <ele>1040.0</ele>
        <time>2018-09-15T12:02:29Z</time>
      </trkpt>
      <trkpt lat="40.249533" lon="-4.888733">
        <ele>1039.0</ele>
        <time>2018-09-15T12:02:30Z</time>
      </trkpt>
      <trkpt lat="40.249583" lon="-4.888683">
        <ele>1039.0</ele>
        <time>2018-09-15T12:02:31Z</time>
      </trkpt>
      <trkpt lat="40.249633" lon="-4.888617">
        <ele>1039.0</ele>
        <time>2018-09-15T12:02:32Z</time>
      </trkpt>
      <trkpt lat="40.249683" lon="-4.888583">
        <ele>1039.0</ele>
        <time>2018-09-15T12:02:33Z</time>
      </trkpt>
      <trkpt lat="40.249733" lon="-4.888533">
        <ele>1039.0</ele>
        <time>2018-09-15T12:02:34Z</time>
      </trkpt>
      <trkpt lat="40.249783" lon="-4.888500">
        <ele>1039.0</ele>
        <time>2018-09-15T12:02:35Z</time>
      </trkpt>
      <trkpt lat="40.249850" lon="-4.888450">
        <ele>1038.0</ele>
        <time>2018-09-15T12:02:36Z</time>
      </trkpt>
      <trkpt lat="40.249900" lon="-4.888400">
        <ele>1037.0</ele>
        <time>2018-09-15T12:02:37Z</time>
      </trkpt>
      <trkpt lat="40.249933" lon="-4.888333">
        <ele>1035.0</ele>
        <time>2018-09-15T12:02:38Z</time>
      </trkpt>
      <trkpt lat="40.249950" lon="-4.888267">
        <ele>1035.0</ele>
        <time>2018-09-15T12:02:39Z</time>
      </trkpt>
      <trkpt lat="40.249983" lon="-4.888217">
        <ele>1034.0</ele>
        <time>2018-09-15T12:02:40Z</time>
      </trkpt>
      <trkpt lat="40.250033" lon="-4.888167">
        <ele>1034.0</ele>
        <time>2018-09-15T12:02:41Z</time>
      </trkpt>
      <trkpt lat="40.250083" lon="-4.888133">
        <ele>1033.0</ele>
        <time>2018-09-15T12:02:42Z</time>
      </trkpt>
      <trkpt lat="40.250117" lon="-4.888083">
        <ele>1031.0</ele>
        <time>2018-09-15T12:02:43Z</time>
      </trkpt>
      <trkpt lat="40.250167" lon="-4.888050">
        <ele>1030.0</ele>
        <time>2018-09-15T12:02:44Z</time>
      </trkpt>
      <trkpt lat="40.250217" lon="-4.888000">
        <ele>1029.0</ele>
        <time>2018-09-15T12:02:45Z</time>
      </trkpt>
      <trkpt lat="40.250283" lon="-4.887950">
        <ele>1027.0</ele>
        <time>2018-09-15T12:02:46Z</time>
      </trkpt>
      <trkpt lat="40.250333" lon="-4.887900">
        <ele>1026.0</ele>
        <time>2018-09-15T12:02:47Z</time>
      </trkpt>
      <trkpt lat="40.250400" lon="-4.887850">
        <ele>1025.0</ele>
        <time>2018-09-15T12:02:48Z</time>
      </trkpt>
      <trkpt lat="40.250450" lon="-4.887800">
        <ele>1025.0</ele>
        <time>2018-09-15T12:02:49Z</time>
      </trkpt>
      <trkpt lat="40.250517" lon="-4.887733">
        <ele>1025.0</ele>
        <time>2018-09-15T12:02:50Z</time>
      </trkpt>
      <trkpt lat="40.250550" lon="-4.887667">
        <ele>1025.0</ele>
        <time>2018-09-15T12:02:51Z</time>
      </trkpt>
      <trkpt lat="40.250583" lon="-4.887617">
        <ele>1026.0</ele>
        <time>2018-09-15T12:02:52Z</time>
      </trkpt>
      <trkpt lat="40.250600" lon="-4.887550">
        <ele>1026.0</ele>
        <time>2018-09-15T12:02:53Z</time>
      </trkpt>
      <trkpt lat="40.250617" lon="-4.887483">
        <ele>1026.0</ele>
        <time>2018-09-15T12:02:54Z</time>
      </trkpt>
      <trkpt lat="40.250633" lon="-4.887433">
        <ele>1026.0</ele>
        <time>2018-09-15T12:02:55Z</time>
      </trkpt>
      <trkpt lat="40.250650" lon="-4.887367">
        <ele>1027.0</ele>
        <time>2018-09-15T12:02:56Z</time>
      </trkpt>
      <trkpt lat="40.250633" lon="-4.887317">
        <ele>1027.0</ele>
        <time>2018-09-15T12:02:57Z</time>
      </trkpt>
      <trkpt lat="40.250600" lon="-4.887283">
        <ele>1026.0</ele>
        <time>2018-09-15T12:02:58Z</time>
      </trkpt>
      <trkpt lat="40.250550" lon="-4.887267">
        <ele>1025.0</ele>
        <time>2018-09-15T12:02:59Z</time>
      </trkpt>
      <trkpt lat="40.250500" lon="-4.887267">
        <ele>1024.0</ele>
        <time>2018-09-15T12:03:00Z</time>
      </trkpt>
      <trkpt lat="40.250417" lon="-4.887267">
        <ele>1023.0</ele>
        <time>2018-09-15T12:03:01Z</time>
      </trkpt>
      <trkpt lat="40.250350" lon="-4.887300">
        <ele>1023.0</ele>
        <time>2018-09-15T12:03:02Z</time>
      </trkpt>
      <trkpt lat="40.250267" lon="-4.887367">
        <ele>1022.0</ele>
        <time>2018-09-15T12:03:03Z</time>
      </trkpt>
      <trkpt lat="40.250200" lon="-4.887433">
        <ele>1021.0</ele>
        <time>2018-09-15T12:03:04Z</time>
      </trkpt>
      <trkpt lat="40.250133" lon="-4.887500">
        <ele>1020.0</ele>
        <time>2018-09-15T12:03:05Z</time>
      </trkpt>
      <trkpt lat="40.250050" lon="-4.887583">
        <ele>1019.0</ele>
        <time>2018-09-15T12:03:06Z</time>
      </trkpt>
      <trkpt lat="40.249967" lon="-4.887650">
        <ele>1018.0</ele>
        <time>2018-09-15T12:03:07Z</time>
      </trkpt>
      <trkpt lat="40.249867" lon="-4.887700">
        <ele>1018.0</ele>
        <time>2018-09-15T12:03:08Z</time>
      </trkpt>
      <trkpt lat="40.249767" lon="-4.887750">
        <ele>1020.0</ele>
        <time>2018-09-15T12:03:09Z</time>
      </trkpt>
      <trkpt lat="40.249667" lon="-4.887783">
        <ele>1021.0</ele>
        <time>2018-09-15T12:03:10Z</time>
      </trkpt>
      <trkpt lat="40.249583" lon="-4.887817">
        <ele>1024.0</ele>
        <time>2018-09-15T12:03:11Z</time>
      </trkpt>
      <trkpt lat="40.249500" lon="-4.887850">
        <ele>1025.0</ele>
        <time>2018-09-15T12:03:12Z</time>
      </trkpt>
      <trkpt lat="40.249417" lon="-4.887867">
        <ele>1026.0</ele>
        <time>2018-09-15T12:03:13Z</time>
      </trkpt>
      <trkpt lat="40.249350" lon="-4.887867">
        <ele>1026.0</ele>
        <time>2018-09-15T12:03:14Z</time>
      </trkpt>
      <trkpt lat="40.249283" lon="-4.887817">
        <ele>1025.0</ele>
        <time>2018-09-15T12:03:15Z</time>
      </trkpt>
      <trkpt lat="40.249233" lon="-4.887750">
        <ele>1024.0</ele>
        <time>2018-09-15T12:03:16Z</time>
      </trkpt>
      <trkpt lat="40.249233" lon="-4.887650">
        <ele>1025.0</ele>
        <time>2018-09-15T12:03:17Z</time>
      </trkpt>
      <trkpt lat="40.249267" lon="-4.887567">
        <ele>1027.0</ele>
        <time>2018-09-15T12:03:18Z</time>
      </trkpt>
      <trkpt lat="40.249333" lon="-4.887517">
        <ele>1030.0</ele>
        <time>2018-09-15T12:03:19Z</time>
      </trkpt>
      <trkpt lat="40.249417" lon="-4.887533">
        <ele>1031.0</ele>
        <time>2018-09-15T12:03:20Z</time>
      </trkpt>
      <trkpt lat="40.249517" lon="-4.887617">
        <ele>1032.0</ele>
        <time>2018-09-15T12:03:21Z</time>
      </trkpt>
      <trkpt lat="40.249600" lon="-4.887717">
        <ele>1033.0</ele>
        <time>2018-09-15T12:03:22Z</time>
      </trkpt>
      <trkpt lat="40.249667" lon="-4.887867">
        <ele>1035.0</ele>
        <time>2018-09-15T12:03:23Z</time>
      </trkpt>
      <trkpt lat="40.249700" lon="-4.888017">
        <ele>1036.0</ele>
        <time>2018-09-15T12:03:24Z</time>
      </trkpt>
      <trkpt lat="40.249717" lon="-4.888200">
        <ele>1037.0</ele>
        <time>2018-09-15T12:03:25Z</time>
      </trkpt>
      <trkpt lat="40.249683" lon="-4.888367">
        <ele>1037.0</ele>
        <time>2018-09-15T12:03:26Z</time>
      </trkpt>
      <trkpt lat="40.249617" lon="-4.888517">
        <ele>1037.0</ele>
        <time>2018-09-15T12:03:27Z</time>
      </trkpt>
      <trkpt lat="40.249533" lon="-4.888650">
        <ele>1038.0</ele>
        <time>2018-09-15T12:03:28Z</time>
      </trkpt>
      <trkpt lat="40.249433" lon="-4.888733">
        <ele>1039.0</ele>
        <time>2018-09-15T12:03:29Z</time>
      </trkpt>
      <trkpt lat="40.249333" lon="-4.888783">
        <ele>1041.0</ele>
        <time>2018-09-15T12:03:30Z</time>
      </trkpt>
      <trkpt lat="40.249267" lon="-4.888800">
        <ele>1042.0</ele>
        <time>2018-09-15T12:03:31Z</time>
      </trkpt>
      <trkpt lat="40.249200" lon="-4.888800">
        <ele>1041.0</ele>
        <time>2018-09-15T12:03:32Z</time>
      </trkpt>
      <trkpt lat="40.249133" lon="-4.888783">
        <ele>1039.0</ele>
        <time>2018-09-15T12:03:33Z</time>
      </trkpt>
      <trkpt lat="40.249083" lon="-4.888733">
        <ele>1037.0</ele>
        <time>2018-09-15T12:03:34Z</time>
      </trkpt>
      <trkpt lat="40.249050" lon="-4.888650">
        <ele>1034.0</ele>
        <time>2018-09-15T12:03:35Z</time>
      </trkpt>
      <trkpt lat="40.249017" lon="-4.888567">
        <ele>1033.0</ele>
        <time>2018-09-15T12:03:36Z</time>
      </trkpt>
      <trkpt lat="40.249000" lon="-4.888500">
        <ele>1032.0</ele>
        <time>2018-09-15T12:03:37Z</time>
      </trkpt>
      <trkpt lat="40.249000" lon="-4.888433">
        <ele>1032.0</ele>
        <time>2018-09-15T12:03:38Z</time>
      </trkpt>
      <trkpt lat="40.249017" lon="-4.888367">
        <ele>1031.0</ele>
        <time>2018-09-15T12:03:39Z</time>
      </trkpt>
      <trkpt lat="40.249033" lon="-4.888300">
        <ele>1030.0</ele>
        <time>2018-09-15T12:03:40Z</time>
      </trkpt>
      <trkpt lat="40.249067" lon="-4.888250">
        <ele>1029.0</ele>
        <time>2018-09-15T12:03:41Z</time>
      </trkpt>
      <trkpt lat="40.249100" lon="-4.888167">
        <ele>1028.0</ele>
        <time>2018-09-15T12:03:42Z</time>
      </trkpt>
      <trkpt lat="40.249133" lon="-4.888100">
        <ele>1028.0</ele>
        <time>2018-09-15T12:03:43Z</time>
      </trkpt>
      <trkpt lat="40.249167" lon="-4.888050">
        <ele>1028.0</ele>
        <time>2018-09-15T12:03:44Z</time>
      </trkpt>
      <trkpt lat="40.249200" lon="-4.888017">
        <ele>1027.0</ele>
        <time>2018-09-15T12:03:45Z</time>
      </trkpt>
      <trkpt lat="40.249267" lon="-4.887983">
        <ele>1026.0</ele>
        <time>2018-09-15T12:03:46Z</time>
      </trkpt>
      <trkpt lat="40.249333" lon="-4.887967">
        <ele>1024.0</ele>
        <time>2018-09-15T12:03:47Z</time>
      </trkpt>
      <trkpt lat="40.249417" lon="-4.887967">
        <ele>1022.0</ele>
        <time>2018-09-15T12:03:48Z</time>
      </trkpt>
      <trkpt lat="40.249500" lon="-4.887967">
        <ele>1021.0</ele>
        <time>2018-09-15T12:03:49Z</time>
      </trkpt>
      <trkpt lat="40.249583" lon="-4.887967">
        <ele>1021.0</ele>
        <time>2018-09-15T12:03:50Z</time>
      </trkpt>
      <trkpt lat="40.249650" lon="-4.887967">
        <ele>1022.0</ele>
        <time>2018-09-15T12:03:51Z</time>
      </trkpt>
      <trkpt lat="40.249717" lon="-4.887967">
        <ele>1020.0</ele>
        <time>2018-09-15T12:03:52Z</time>
      </trkpt>
      <trkpt lat="40.249767" lon="-4.887950">
        <ele>1019.0</ele>
        <time>2018-09-15T12:03:53Z</time>
      </trkpt>
      <trkpt lat="40.249817" lon="-4.887900">
        <ele>1017.0</ele>
        <time>2018-09-15T12:03:54Z</time>
      </trkpt>
      <trkpt lat="40.249867" lon="-4.887817">
        <ele>1016.0</ele>
        <time>2018-09-15T12:03:55Z</time>
      </trkpt>
      <trkpt lat="40.249883" lon="-4.887717">
        <ele>1018.0</ele>
        <time>2018-09-15T12:03:56Z</time>
      </trkpt>
      <trkpt lat="40.249883" lon="-4.887633">
        <ele>1019.0</ele>
        <time>2018-09-15T12:03:57Z</time>
      </trkpt>
      <trkpt lat="40.249850" lon="-4.887567">
        <ele>1020.0</ele>
        <time>2018-09-15T12:03:58Z</time>
      </trkpt>
      <trkpt lat="40.249817" lon="-4.887500">
        <ele>1019.0</ele>
        <time>2018-09-15T12:03:59Z</time>
      </trkpt>
      <trkpt lat="40.249783" lon="-4.887450">
        <ele>1018.0</ele>
        <time>2018-09-15T12:04:00Z</time>
      </trkpt>
      <trkpt lat="40.249733" lon="-4.887383">
        <ele>1016.0</ele>
        <time>2018-09-15T12:04:01Z</time>
      </trkpt>
      <trkpt lat="40.249667" lon="-4.887333">
        <ele>1015.0</ele>
        <time>2018-09-15T12:04:02Z</time>
      </trkpt>
      <trkpt lat="40.249583" lon="-4.887283">
        <ele>1013.0</ele>
        <time>2018-09-15T12:04:03Z</time>
      </trkpt>
      <trkpt lat="40.249500" lon="-4.887283">
        <ele>1011.0</ele>
        <time>2018-09-15T12:04:04Z</time>
      </trkpt>
      <trkpt lat="40.249400" lon="-4.887317">
        <ele>1009.0</ele>
        <time>2018-09-15T12:04:05Z</time>
      </trkpt>
      <trkpt lat="40.249300" lon="-4.887383">
        <ele>1007.0</ele>
        <time>2018-09-15T12:04:06Z</time>
      </trkpt>
      <trkpt lat="40.249233" lon="-4.887467">
        <ele>1007.0</ele>
        <time>2018-09-15T12:04:07Z</time>
      </trkpt>
      <trkpt lat="40.249167" lon="-4.887567">
        <ele>1006.0</ele>
        <time>2018-09-15T12:04:08Z</time>
      </trkpt>
      <trkpt lat="40.249100" lon="-4.887683">
        <ele>1004.0</ele>
        <time>2018-09-15T12:04:09Z</time>
      </trkpt>
      <trkpt lat="40.249050" lon="-4.887800">
        <ele>1002.0</ele>
        <time>2018-09-15T12:04:10Z</time>
      </trkpt>
      <trkpt lat="40.248983" lon="-4.887917">
        <ele>1000.0</ele>
        <time>2018-09-15T12:04:11Z</time>
      </trkpt>
      <trkpt lat="40.248900" lon="-4.888017">
        <ele>999.0</ele>
        <time>2018-09-15T12:04:12Z</time>
      </trkpt>
      <trkpt lat="40.248817" lon="-4.888100">
        <ele>997.0</ele>
        <time>2018-09-15T12:04:13Z</time>
      </trkpt>
      <trkpt lat="40.248733" lon="-4.888183">
        <ele>995.0</ele>
        <time>2018-09-15T12:04:14Z</time>
      </trkpt>
      <trkpt lat="40.248633" lon="-4.888267">
        <ele>994.0</ele>
        <time>2018-09-15T12:04:15Z</time>
      </trkpt>
      <trkpt lat="40.248550" lon="-4.888350">
        <ele>993.0</ele>
        <time>2018-09-15T12:04:16Z</time>
      </trkpt>
      <trkpt lat="40.248483" lon="-4.888433">
        <ele>992.0</ele>
        <time>2018-09-15T12:04:17Z</time>
      </trkpt>
      <trkpt lat="40.248400" lon="-4.888517">
        <ele>990.0</ele>
        <time>2018-09-15T12:04:18Z</time>
      </trkpt>
      <trkpt lat="40.248300" lon="-4.888583">
        <ele>988.0</ele>
        <time>2018-09-15T12:04:19Z</time>
      </trkpt>
      <trkpt lat="40.248200" lon="-4.888650">
        <ele>987.0</ele>
        <time>2018-09-15T12:04:20Z</time>
      </trkpt>
      <trkpt lat="40.248100" lon="-4.888700">
        <ele>986.0</ele>
        <time>2018-09-15T12:04:21Z</time>
      </trkpt>
      <trkpt lat="40.248000" lon="-4.888750">
        <ele>985.0</ele>
        <time>2018-09-15T12:04:22Z</time>
      </trkpt>
      <trkpt lat="40.247900" lon="-4.888783">
        <ele>984.0</ele>
        <time>2018-09-15T12:04:23Z</time>
      </trkpt>
      <trkpt lat="40.247800" lon="-4.888817">
        <ele>984.0</ele>
        <time>2018-09-15T12:04:24Z</time>
      </trkpt>
      <trkpt lat="40.247717" lon="-4.888833">
        <ele>984.0</ele>
        <time>2018-09-15T12:04:25Z</time>
      </trkpt>
      <trkpt lat="40.247617" lon="-4.888867">
        <ele>983.0</ele>
        <time>2018-09-15T12:04:26Z</time>
      </trkpt>
      <trkpt lat="40.247533" lon="-4.888867">
        <ele>983.0</ele>
        <time>2018-09-15T12:04:27Z</time>
      </trkpt>
      <trkpt lat="40.247450" lon="-4.888850">
        <ele>981.0</ele>
        <time>2018-09-15T12:04:28Z</time>
      </trkpt>
      <trkpt lat="40.247367" lon="-4.888800">
        <ele>979.0</ele>
        <time>2018-09-15T12:04:29Z</time>
      </trkpt>
      <trkpt lat="40.247300" lon="-4.888733">
        <ele>977.0</ele>
        <time>2018-09-15T12:04:30Z</time>
      </trkpt>
      <trkpt lat="40.247233" lon="-4.888633">
        <ele>976.0</ele>
        <time>2018-09-15T12:04:31Z</time>
      </trkpt>
      <trkpt lat="40.247183" lon="-4.888517">
        <ele>977.0</ele>
        <time>2018-09-15T12:04:32Z</time>
      </trkpt>
      <trkpt lat="40.247133" lon="-4.888417">
        <ele>979.0</ele>
        <time>2018-09-15T12:04:33Z</time>
      </trkpt>
      <trkpt lat="40.247100" lon="-4.888333">
        <ele>980.0</ele>
        <time>2018-09-15T12:04:34Z</time>
      </trkpt>
      <trkpt lat="40.247050" lon="-4.888267">
        <ele>981.0</ele>
        <time>2018-09-15T12:04:35Z</time>
      </trkpt>
      <trkpt lat="40.247033" lon="-4.888200">
        <ele>981.0</ele>
        <time>2018-09-15T12:04:36Z</time>
      </trkpt>
      <trkpt lat="40.247017" lon="-4.888117">
        <ele>979.0</ele>
        <time>2018-09-15T12:04:37Z</time>
      </trkpt>
      <trkpt lat="40.247000" lon="-4.888033">
        <ele>978.0</ele>
        <time>2018-09-15T12:04:38Z</time>
      </trkpt>
      <trkpt lat="40.246983" lon="-4.887933">
        <ele>977.0</ele>
        <time>2018-09-15T12:04:39Z</time>
      </trkpt>
      <trkpt lat="40.246950" lon="-4.887833">
        <ele>976.0</ele>
        <time>2018-09-15T12:04:40Z</time>
      </trkpt>
      <trkpt lat="40.246933" lon="-4.887733">
        <ele>976.0</ele>
        <time>2018-09-15T12:04:41Z</time>
      </trkpt>
      <trkpt lat="40.246900" lon="-4.887633">
        <ele>975.0</ele>
        <time>2018-09-15T12:04:42Z</time>
      </trkpt>
      <trkpt lat="40.246883" lon="-4.887533">
        <ele>975.0</ele>
        <time>2018-09-15T12:04:43Z</time>
      </trkpt>
      <trkpt lat="40.246900" lon="-4.887433">
        <ele>974.0</ele>
        <time>2018-09-15T12:04:44Z</time>
      </trkpt>
      <trkpt lat="40.246933" lon="-4.887333">
        <ele>973.0</ele>
        <time>2018-09-15T12:04:45Z</time>
      </trkpt>
      <trkpt lat="40.246983" lon="-4.887250">
        <ele>974.0</ele>
        <time>2018-09-15T12:04:46Z</time>
      </trkpt>
      <trkpt lat="40.247033" lon="-4.887167">
        <ele>975.0</ele>
        <time>2018-09-15T12:04:47Z</time>
      </trkpt>
      <trkpt lat="40.247083" lon="-4.887083">
        <ele>976.0</ele>
        <time>2018-09-15T12:04:48Z</time>
      </trkpt>
      <trkpt lat="40.247133" lon="-4.887017">
        <ele>976.0</ele>
        <time>2018-09-15T12:04:49Z</time>
      </trkpt>
      <trkpt lat="40.247183" lon="-4.886950">
        <ele>976.0</ele>
        <time>2018-09-15T12:04:50Z</time>
      </trkpt>
      <trkpt lat="40.247250" lon="-4.886900">
        <ele>975.0</ele>
        <time>2018-09-15T12:04:51Z</time>
      </trkpt>
      <trkpt lat="40.247317" lon="-4.886850">
        <ele>973.0</ele>
        <time>2018-09-15T12:04:52Z</time>
      </trkpt>
      <trkpt lat="40.247400" lon="-4.886833">
        <ele>972.0</ele>
        <time>2018-09-15T12:04:53Z</time>
      </trkpt>
      <trkpt lat="40.247483" lon="-4.886800">
        <ele>969.0</ele>
        <time>2018-09-15T12:04:54Z</time>
      </trkpt>
      <trkpt lat="40.247550" lon="-4.886750">
        <ele>967.0</ele>
        <time>2018-09-15T12:04:55Z</time>
      </trkpt>
      <trkpt lat="40.247617" lon="-4.886700">
        <ele>966.0</ele>
        <time>2018-09-15T12:04:56Z</time>
      </trkpt>
      <trkpt lat="40.247700" lon="-4.886650">
        <ele>964.0</ele>
        <time>2018-09-15T12:04:57Z</time>
      </trkpt>
      <trkpt lat="40.247767" lon="-4.886583">
        <ele>962.0</ele>
        <time>2018-09-15T12:04:58Z</time>
      </trkpt>
      <trkpt lat="40.247850" lon="-4.886517">
        <ele>960.0</ele>
        <time>2018-09-15T12:04:59Z</time>
      </trkpt>
      <trkpt lat="40.247917" lon="-4.886450">
        <ele>958.0</ele>
        <time>2018-09-15T12:05:00Z</time>
      </trkpt>
      <trkpt lat="40.248000" lon="-4.886367">
        <ele>957.0</ele>
        <time>2018-09-15T12:05:01Z</time>
      </trkpt>
      <trkpt lat="40.248067" lon="-4.886283">
        <ele>956.0</ele>
        <time>2018-09-15T12:05:02Z</time>
      </trkpt>
      <trkpt lat="40.248150" lon="-4.886217">
        <ele>956.0</ele>
        <time>2018-09-15T12:05:03Z</time>
      </trkpt>
      <trkpt lat="40.248233" lon="-4.886133">
        <ele>955.0</ele>
        <time>2018-09-15T12:05:04Z</time>
      </trkpt>
      <trkpt lat="40.248317" lon="-4.886050">
        <ele>956.0</ele>
        <time>2018-09-15T12:05:05Z</time>
      </trkpt>
      <trkpt lat="40.248400" lon="-4.885950">
        <ele>958.0</ele>
        <time>2018-09-15T12:05:06Z</time>
      </trkpt>
      <trkpt lat="40.248450" lon="-4.885850">
        <ele>960.0</ele>
        <time>2018-09-15T12:05:07Z</time>
      </trkpt>
      <trkpt lat="40.248500" lon="-4.885767">
        <ele>963.0</ele>
        <time>2018-09-15T12:05:08Z</time>
      </trkpt>
      <trkpt lat="40.248567" lon="-4.885683">
        <ele>965.0</ele>
        <time>2018-09-15T12:05:09Z</time>
      </trkpt>
      <trkpt lat="40.248650" lon="-4.885633">
        <ele>966.0</ele>
        <time>2018-09-15T12:05:10Z</time>
      </trkpt>
      <trkpt lat="40.248733" lon="-4.885617">
        <ele>966.0</ele>
        <time>2018-09-15T12:05:11Z</time>
      </trkpt>
      <trkpt lat="40.248833" lon="-4.885617">
        <ele>966.0</ele>
        <time>2018-09-15T12:05:12Z</time>
      </trkpt>
      <trkpt lat="40.248933" lon="-4.885667">
        <ele>967.0</ele>
        <time>2018-09-15T12:05:13Z</time>
      </trkpt>
      <trkpt lat="40.249017" lon="-4.885750">
        <ele>968.0</ele>
        <time>2018-09-15T12:05:14Z</time>
      </trkpt>
      <trkpt lat="40.249083" lon="-4.885850">
        <ele>969.0</ele>
        <time>2018-09-15T12:05:15Z</time>
      </trkpt>
      <trkpt lat="40.249117" lon="-4.885983">
        <ele>970.0</ele>
        <time>2018-09-15T12:05:16Z</time>
      </trkpt>
      <trkpt lat="40.249133" lon="-4.886117">
        <ele>971.0</ele>
        <time>2018-09-15T12:05:17Z</time>
      </trkpt>
      <trkpt lat="40.249100" lon="-4.886250">
        <ele>972.0</ele>
        <time>2018-09-15T12:05:18Z</time>
      </trkpt>
      <trkpt lat="40.249050" lon="-4.886367">
        <ele>973.0</ele>
        <time>2018-09-15T12:05:19Z</time>
      </trkpt>
      <trkpt lat="40.248983" lon="-4.886467">
        <ele>975.0</ele>
        <time>2018-09-15T12:05:20Z</time>
      </trkpt>
      <trkpt lat="40.248900" lon="-4.886517">
        <ele>975.0</ele>
        <time>2018-09-15T12:05:21Z</time>
      </trkpt>
      <trkpt lat="40.248817" lon="-4.886533">
        <ele>975.0</ele>
        <time>2018-09-15T12:05:22Z</time>
      </trkpt>
      <trkpt lat="40.248750" lon="-4.886517">
        <ele>974.0</ele>
        <time>2018-09-15T12:05:23Z</time>
      </trkpt>
      <trkpt lat="40.248667" lon="-4.886467">
        <ele>974.0</ele>
        <time>2018-09-15T12:05:24Z</time>
      </trkpt>
      <trkpt lat="40.248617" lon="-4.886383">
        <ele>974.0</ele>
        <time>2018-09-15T12:05:25Z</time>
      </trkpt>
      <trkpt lat="40.248583" lon="-4.886283">
        <ele>974.0</ele>
        <time>2018-09-15T12:05:26Z</time>
      </trkpt>
      <trkpt lat="40.248567" lon="-4.886167">
        <ele>976.0</ele>
        <time>2018-09-15T12:05:27Z</time>
      </trkpt>
      <trkpt lat="40.248550" lon="-4.886050">
        <ele>979.0</ele>
        <time>2018-09-15T12:05:28Z</time>
      </trkpt>
      <trkpt lat="40.248567" lon="-4.885950">
        <ele>982.0</ele>
        <time>2018-09-15T12:05:29Z</time>
      </trkpt>
      <trkpt lat="40.248583" lon="-4.885883">
        <ele>984.0</ele>
        <time>2018-09-15T12:05:30Z</time>
      </trkpt>
      <trkpt lat="40.248617" lon="-4.885817">
        <ele>983.0</ele>
        <time>2018-09-15T12:05:31Z</time>
      </trkpt>
      <trkpt lat="40.248683" lon="-4.885750">
        <ele>982.0</ele>
        <time>2018-09-15T12:05:32Z</time>
      </trkpt>
      <trkpt lat="40.248767" lon="-4.885700">
        <ele>982.0</ele>
        <time>2018-09-15T12:05:33Z</time>
      </trkpt>
      <trkpt lat="40.248850" lon="-4.885667">
        <ele>982.0</ele>
        <time>2018-09-15T12:05:34Z</time>
      </trkpt>
      <trkpt lat="40.248950" lon="-4.885700">
        <ele>982.0</ele>
        <time>2018-09-15T12:05:35Z</time>
      </trkpt>
      <trkpt lat="40.249033" lon="-4.885800">
        <ele>981.0</ele>
        <time>2018-09-15T12:05:36Z</time>
      </trkpt>
      <trkpt lat="40.249100" lon="-4.885917">
        <ele>980.0</ele>
        <time>2018-09-15T12:05:37Z</time>
      </trkpt>
      <trkpt lat="40.249133" lon="-4.886067">
        <ele>980.0</ele>
        <time>2018-09-15T12:05:38Z</time>
      </trkpt>
      <trkpt lat="40.249150" lon="-4.886217">
        <ele>982.0</ele>
        <time>2018-09-15T12:05:39Z</time>
      </trkpt>
      <trkpt lat="40.249133" lon="-4.886350">
        <ele>984.0</ele>
        <time>2018-09-15T12:05:40Z</time>
      </trkpt>
      <trkpt lat="40.249100" lon="-4.886450">
        <ele>986.0</ele>
        <time>2018-09-15T12:05:41Z</time>
      </trkpt>
      <trkpt lat="40.249033" lon="-4.886550">
        <ele>987.0</ele>
        <time>2018-09-15T12:05:42Z</time>
      </trkpt>
      <trkpt lat="40.248967" lon="-4.886617">
        <ele>988.0</ele>
        <time>2018-09-15T12:05:43Z</time>
      </trkpt>
      <trkpt lat="40.248883" lon="-4.886650">
        <ele>988.0</ele>
        <time>2018-09-15T12:05:44Z</time>
      </trkpt>
      <trkpt lat="40.248783" lon="-4.886667">
        <ele>988.0</ele>
        <time>2018-09-15T12:05:45Z</time>
      </trkpt>
      <trkpt lat="40.248683" lon="-4.886633">
        <ele>988.0</ele>
        <time>2018-09-15T12:05:46Z</time>
      </trkpt>
      <trkpt lat="40.248600" lon="-4.886567">
        <ele>990.0</ele>
        <time>2018-09-15T12:05:47Z</time>
      </trkpt>
      <trkpt lat="40.248533" lon="-4.886517">
        <ele>993.0</ele>
        <time>2018-09-15T12:05:48Z</time>
      </trkpt>
      <trkpt lat="40.248467" lon="-4.886467">
        <ele>996.0</ele>
        <time>2018-09-15T12:05:49Z</time>
      </trkpt>
      <trkpt lat="40.248400" lon="-4.886417">
        <ele>998.0</ele>
        <time>2018-09-15T12:05:50Z</time>
      </trkpt>
      <trkpt lat="40.248333" lon="-4.886383">
        <ele>999.0</ele>
        <time>2018-09-15T12:05:51Z</time>
      </trkpt>
      <trkpt lat="40.248250" lon="-4.886317">
        <ele>1000.0</ele>
        <time>2018-09-15T12:05:52Z</time>
      </trkpt>
      <trkpt lat="40.248200" lon="-4.886233">
        <ele>1001.0</ele>
        <time>2018-09-15T12:05:53Z</time>
      </trkpt>
      <trkpt lat="40.248150" lon="-4.886133">
        <ele>1002.0</ele>
        <time>2018-09-15T12:05:54Z</time>
      </trkpt>
      <trkpt lat="40.248150" lon="-4.886000">
        <ele>1002.0</ele>
        <time>2018-09-15T12:05:55Z</time>
      </trkpt>
      <trkpt lat="40.248183" lon="-4.885883">
        <ele>1002.0</ele>
        <time>2018-09-15T12:05:56Z</time>
      </trkpt>
      <trkpt lat="40.248250" lon="-4.885783">
        <ele>1002.0</ele>
        <time>2018-09-15T12:05:57Z</time>
      </trkpt>
      <trkpt lat="40.248350" lon="-4.885733">
        <ele>1001.0</ele>
        <time>2018-09-15T12:05:58Z</time>
      </trkpt>
      <trkpt lat="40.248467" lon="-4.885750">
        <ele>1000.0</ele>
        <time>2018-09-15T12:05:59Z</time>
      </trkpt>
      <trkpt lat="40.248567" lon="-4.885800">
        <ele>999.0</ele>
        <time>2018-09-15T12:06:00Z</time>
      </trkpt>
      <trkpt lat="40.248633" lon="-4.885917">
        <ele>999.0</ele>
        <time>2018-09-15T12:06:01Z</time>
      </trkpt>
      <trkpt lat="40.248667" lon="-4.886050">
        <ele>999.0</ele>
        <time>2018-09-15T12:06:02Z</time>
      </trkpt>
      <trkpt lat="40.248667" lon="-4.886200">
        <ele>1000.0</ele>
        <time>2018-09-15T12:06:03Z</time>
      </trkpt>
      <trkpt lat="40.248650" lon="-4.886333">
        <ele>1000.0</ele>
        <time>2018-09-15T12:06:04Z</time>
      </trkpt>
      <trkpt lat="40.248600" lon="-4.886450">
        <ele>1000.0</ele>
        <time>2018-09-15T12:06:05Z</time>
      </trkpt>
      <trkpt lat="40.248533" lon="-4.886567">
        <ele>1001.0</ele>
        <time>2018-09-15T12:06:06Z</time>
      </trkpt>
      <trkpt lat="40.248483" lon="-4.886683">
        <ele>1002.0</ele>
        <time>2018-09-15T12:06:07Z</time>
      </trkpt>
      <trkpt lat="40.248433" lon="-4.886783">
        <ele>1004.0</ele>
        <time>2018-09-15T12:06:08Z</time>
      </trkpt>
      <trkpt lat="40.248383" lon="-4.886900">
        <ele>1006.0</ele>
        <time>2018-09-15T12:06:09Z</time>
      </trkpt>
      <trkpt lat="40.248333" lon="-4.887000">
        <ele>1008.0</ele>
        <time>2018-09-15T12:06:10Z</time>
      </trkpt>
      <trkpt lat="40.248283" lon="-4.887083">
        <ele>1009.0</ele>
        <time>2018-09-15T12:06:11Z</time>
      </trkpt>
      <trkpt lat="40.248233" lon="-4.887150">
        <ele>1009.0</ele>
        <time>2018-09-15T12:06:12Z</time>
      </trkpt>
      <trkpt lat="40.248150" lon="-4.887183">
        <ele>1009.0</ele>
        <time>2018-09-15T12:06:13Z</time>
      </trkpt>
      <trkpt lat="40.248050" lon="-4.887183">
        <ele>1008.0</ele>
        <time>2018-09-15T12:06:14Z</time>
      </trkpt>
      <trkpt lat="40.247967" lon="-4.887150">
        <ele>1008.0</ele>
        <time>2018-09-15T12:06:15Z</time>
      </trkpt>
      <trkpt lat="40.247883" lon="-4.887083">
        <ele>1009.0</ele>
        <time>2018-09-15T12:06:16Z</time>
      </trkpt>
      <trkpt lat="40.247833" lon="-4.887000">
        <ele>1011.0</ele>
        <time>2018-09-15T12:06:17Z</time>
      </trkpt>
      <trkpt lat="40.247783" lon="-4.886917">
        <ele>1013.0</ele>
        <time>2018-09-15T12:06:18Z</time>
      </trkpt>
      <trkpt lat="40.247767" lon="-4.886817">
        <ele>1015.0</ele>
        <time>2018-09-15T12:06:19Z</time>
      </trkpt>
      <trkpt lat="40.247783" lon="-4.886717">
        <ele>1015.0</ele>
        <time>2018-09-15T12:06:20Z</time>
      </trkpt>
      <trkpt lat="40.247833" lon="-4.886617">
        <ele>1014.0</ele>
        <time>2018-09-15T12:06:21Z</time>
      </trkpt>
      <trkpt lat="40.247917" lon="-4.886550">
        <ele>1014.0</ele>
        <time>2018-09-15T12:06:22Z</time>
      </trkpt>
      <trkpt lat="40.248017" lon="-4.886517">
        <ele>1014.0</ele>
        <time>2018-09-15T12:06:23Z</time>
      </trkpt>
      <trkpt lat="40.248117" lon="-4.886533">
        <ele>1015.0</ele>
        <time>2018-09-15T12:06:24Z</time>
      </trkpt>
      <trkpt lat="40.248217" lon="-4.886583">
        <ele>1017.0</ele>
        <time>2018-09-15T12:06:25Z</time>
      </trkpt>
      <trkpt lat="40.248267" lon="-4.886683">
        <ele>1018.0</ele>
        <time>2018-09-15T12:06:26Z</time>
      </trkpt>
      <trkpt lat="40.248317" lon="-4.886800">
        <ele>1019.0</ele>
        <time>2018-09-15T12:06:27Z</time>
      </trkpt>
      <trkpt lat="40.248317" lon="-4.886933">
        <ele>1019.0</ele>
        <time>2018-09-15T12:06:28Z</time>
      </trkpt>
      <trkpt lat="40.248317" lon="-4.887083">
        <ele>1019.0</ele>
        <time>2018-09-15T12:06:29Z</time>
      </trkpt>
      <trkpt lat="40.248267" lon="-4.887217">
        <ele>1021.0</ele>
        <time>2018-09-15T12:06:30Z</time>
      </trkpt>
      <trkpt lat="40.248217" lon="-4.887333">
        <ele>1022.0</ele>
        <time>2018-09-15T12:06:31Z</time>
      </trkpt>
      <trkpt lat="40.248150" lon="-4.887417">
        <ele>1023.0</ele>
        <time>2018-09-15T12:06:32Z</time>
      </trkpt>
      <trkpt lat="40.248083" lon="-4.887500">
        <ele>1024.0</ele>
        <time>2018-09-15T12:06:33Z</time>
      </trkpt>
      <trkpt lat="40.248017" lon="-4.887550">
        <ele>1025.0</ele>
        <time>2018-09-15T12:06:34Z</time>
      </trkpt>
      <trkpt lat="40.247967" lon="-4.887600">
        <ele>1027.0</ele>
        <time>2018-09-15T12:06:35Z</time>
      </trkpt>
      <trkpt lat="40.247900" lon="-4.887650">
        <ele>1028.0</ele>
        <time>2018-09-15T12:06:36Z</time>
      </trkpt>
      <trkpt lat="40.247833" lon="-4.887667">
        <ele>1028.0</ele>
        <time>2018-09-15T12:06:37Z</time>
      </trkpt>
      <trkpt lat="40.247750" lon="-4.887633">
        <ele>1028.0</ele>
        <time>2018-09-15T12:06:38Z</time>
      </trkpt>
      <trkpt lat="40.247683" lon="-4.887583">
        <ele>1028.0</ele>
        <time>2018-09-15T12:06:39Z</time>
      </trkpt>
      <trkpt lat="40.247617" lon="-4.887500">
        <ele>1029.0</ele>
        <time>2018-09-15T12:06:40Z</time>
      </trkpt>
      <trkpt lat="40.247567" lon="-4.887400">
        <ele>1030.0</ele>
        <time>2018-09-15T12:06:41Z</time>
      </trkpt>
      <trkpt lat="40.247550" lon="-4.887283">
        <ele>1030.0</ele>
        <time>2018-09-15T12:06:42Z</time>
      </trkpt>
      <trkpt lat="40.247583" lon="-4.887167">
        <ele>1031.0</ele>
        <time>2018-09-15T12:06:43Z</time>
      </trkpt>
      <trkpt lat="40.247633" lon="-4.887083">
        <ele>1032.0</ele>
        <time>2018-09-15T12:06:44Z</time>
      </trkpt>
      <trkpt lat="40.247717" lon="-4.887050">
        <ele>1032.0</ele>
        <time>2018-09-15T12:06:45Z</time>
      </trkpt>
      <trkpt lat="40.247800" lon="-4.887033">
        <ele>1030.0</ele>
        <time>2018-09-15T12:06:46Z</time>
      </trkpt>
      <trkpt lat="40.247900" lon="-4.887067">
        <ele>1029.0</ele>
        <time>2018-09-15T12:06:47Z</time>
      </trkpt>
      <trkpt lat="40.247983" lon="-4.887117">
        <ele>1029.0</ele>
        <time>2018-09-15T12:06:48Z</time>
      </trkpt>
      <trkpt lat="40.248067" lon="-4.887217">
        <ele>1028.0</ele>
        <time>2018-09-15T12:06:49Z</time>
      </trkpt>
      <trkpt lat="40.248117" lon="-4.887350">
        <ele>1028.0</ele>
        <time>2018-09-15T12:06:50Z</time>
      </trkpt>
      <trkpt lat="40.248150" lon="-4.887517">
        <ele>1028.0</ele>
        <time>2018-09-15T12:06:51Z</time>
      </trkpt>
      <trkpt lat="40.248133" lon="-4.887667">
        <ele>1031.0</ele>
        <time>2018-09-15T12:06:52Z</time>
      </trkpt>
      <trkpt lat="40.248100" lon="-4.887800">
        <ele>1034.0</ele>
        <time>2018-09-15T12:06:53Z</time>
      </trkpt>
      <trkpt lat="40.248083" lon="-4.887900">
        <ele>1037.0</ele>
        <time>2018-09-15T12:06:54Z</time>
      </trkpt>
      <trkpt lat="40.248050" lon="-4.888000">
        <ele>1038.0</ele>
        <time>2018-09-15T12:06:55Z</time>
      </trkpt>
      <trkpt lat="40.248050" lon="-4.888117">
        <ele>1038.0</ele>
        <time>2018-09-15T12:06:56Z</time>
      </trkpt>
      <trkpt lat="40.248033" lon="-4.888250">
        <ele>1038.0</ele>
        <time>2018-09-15T12:06:57Z</time>
      </trkpt>
      <trkpt lat="40.248000" lon="-4.888367">
        <ele>1039.0</ele>
        <time>2018-09-15T12:06:58Z</time>
      </trkpt>
      <trkpt lat="40.247967" lon="-4.888483">
        <ele>1039.0</ele>
        <time>2018-09-15T12:06:59Z</time>
      </trkpt>
      <trkpt lat="40.247917" lon="-4.888567">
        <ele>1039.0</ele>
        <time>2018-09-15T12:07:00Z</time>
      </trkpt>
      <trkpt lat="40.247850" lon="-4.888650">
        <ele>1038.0</ele>
        <time>2018-09-15T12:07:01Z</time>
      </trkpt>
      <trkpt lat="40.247783" lon="-4.888700">
        <ele>1036.0</ele>
        <time>2018-09-15T12:07:02Z</time>
      </trkpt>
      <trkpt lat="40.247700" lon="-4.888733">
        <ele>1035.0</ele>
        <time>2018-09-15T12:07:03Z</time>
      </trkpt>
      <trkpt lat="40.247617" lon="-4.888750">
        <ele>1033.0</ele>
        <time>2018-09-15T12:07:04Z</time>
      </trkpt>
      <trkpt lat="40.247533" lon="-4.888733">
        <ele>1033.0</ele>
        <time>2018-09-15T12:07:05Z</time>
      </trkpt>
      <trkpt lat="40.247450" lon="-4.888683">
        <ele>1032.0</ele>
        <time>2018-09-15T12:07:06Z</time>
      </trkpt>
      <trkpt lat="40.247383" lon="-4.888617">
        <ele>1032.0</ele>
        <time>2018-09-15T12:07:07Z</time>
      </trkpt>
      <trkpt lat="40.247333" lon="-4.888517">
        <ele>1033.0</ele>
        <time>2018-09-15T12:07:08Z</time>
      </trkpt>
      <trkpt lat="40.247317" lon="-4.888417">
        <ele>1034.0</ele>
        <time>2018-09-15T12:07:09Z</time>
      </trkpt>
      <trkpt lat="40.247300" lon="-4.888317">
        <ele>1035.0</ele>
        <time>2018-09-15T12:07:10Z</time>
      </trkpt>
      <trkpt lat="40.247317" lon="-4.888217">
        <ele>1035.0</ele>
        <time>2018-09-15T12:07:11Z</time>
      </trkpt>
      <trkpt lat="40.247350" lon="-4.888133">
        <ele>1033.0</ele>
        <time>2018-09-15T12:07:12Z</time>
      </trkpt>
      <trkpt lat="40.247400" lon="-4.888050">
        <ele>1031.0</ele>
        <time>2018-09-15T12:07:13Z</time>
      </trkpt>
      <trkpt lat="40.247483" lon="-4.888000">
        <ele>1030.0</ele>
        <time>2018-09-15T12:07:14Z</time>
      </trkpt>
      <trkpt lat="40.247567" lon="-4.887967">
        <ele>1031.0</ele>
        <time>2018-09-15T12:07:15Z</time>
      </trkpt>
      <trkpt lat="40.247667" lon="-4.887983">
        <ele>1032.0</ele>
        <time>2018-09-15T12:07:16Z</time>
      </trkpt>
      <trkpt lat="40.247750" lon="-4.888017">
        <ele>1033.0</ele>
        <time>2018-09-15T12:07:17Z</time>
      </trkpt>
      <trkpt lat="40.247833" lon="-4.888083">
        <ele>1034.0</ele>
        <time>2018-09-15T12:07:18Z</time>
      </trkpt>
      <trkpt lat="40.247917" lon="-4.888183">
        <ele>1033.0</ele>
        <time>2018-09-15T12:07:19Z</time>
      </trkpt>
      <trkpt lat="40.247983" lon="-4.888283">
        <ele>1034.0</ele>
        <time>2018-09-15T12:07:20Z</time>
      </trkpt>
      <trkpt lat="40.248050" lon="-4.888400">
        <ele>1036.0</ele>
        <time>2018-09-15T12:07:21Z</time>
      </trkpt>
      <trkpt lat="40.248117" lon="-4.888500">
        <ele>1038.0</ele>
        <time>2018-09-15T12:07:22Z</time>
      </trkpt>
      <trkpt lat="40.248183" lon="-4.888583">
        <ele>1040.0</ele>
        <time>2018-09-15T12:07:23Z</time>
      </trkpt>
      <trkpt lat="40.248233" lon="-4.888683">
        <ele>1041.0</ele>
        <time>2018-09-15T12:07:24Z</time>
      </trkpt>
      <trkpt lat="40.248300" lon="-4.888783">
        <ele>1040.0</ele>
        <time>2018-09-15T12:07:25Z</time>
      </trkpt>
      <trkpt lat="40.248350" lon="-4.888917">
        <ele>1039.0</ele>
        <time>2018-09-15T12:07:26Z</time>
      </trkpt>
      <trkpt lat="40.248400" lon="-4.889050">
        <ele>1038.0</ele>
        <time>2018-09-15T12:07:27Z</time>
      </trkpt>
      <trkpt lat="40.248400" lon="-4.889183">
        <ele>1037.0</ele>
        <time>2018-09-15T12:07:28Z</time>
      </trkpt>
      <trkpt lat="40.248383" lon="-4.889300">
        <ele>1036.0</ele>
        <time>2018-09-15T12:07:29Z</time>
      </trkpt>
      <trkpt lat="40.248333" lon="-4.889417">
        <ele>1034.0</ele>
        <time>2018-09-15T12:07:30Z</time>
      </trkpt>
      <trkpt lat="40.248267" lon="-4.889500">
        <ele>1032.0</ele>
        <time>2018-09-15T12:07:31Z</time>
      </trkpt>
      <trkpt lat="40.248183" lon="-4.889567">
        <ele>1029.0</ele>
        <time>2018-09-15T12:07:32Z</time>
      </trkpt>
      <trkpt lat="40.248100" lon="-4.889583">
        <ele>1027.0</ele>
        <time>2018-09-15T12:07:33Z</time>
      </trkpt>
      <trkpt lat="40.248017" lon="-4.889567">
        <ele>1025.0</ele>
        <time>2018-09-15T12:07:34Z</time>
      </trkpt>
      <trkpt lat="40.247950" lon="-4.889517">
        <ele>1024.0</ele>
        <time>2018-09-15T12:07:35Z</time>
      </trkpt>
      <trkpt lat="40.247917" lon="-4.889433">
        <ele>1024.0</ele>
        <time>2018-09-15T12:07:36Z</time>
      </trkpt>
      <trkpt lat="40.247883" lon="-4.889350">
        <ele>1026.0</ele>
        <time>2018-09-15T12:07:37Z</time>
      </trkpt>
      <trkpt lat="40.247867" lon="-4.889267">
        <ele>1027.0</ele>
        <time>2018-09-15T12:07:38Z</time>
      </trkpt>
      <trkpt lat="40.247867" lon="-4.889200">
        <ele>1028.0</ele>
        <time>2018-09-15T12:07:39Z</time>
      </trkpt>
      <trkpt lat="40.247883" lon="-4.889133">
        <ele>1028.0</ele>
        <time>2018-09-15T12:07:40Z</time>
      </trkpt>
      <trkpt lat="40.247917" lon="-4.889050">
        <ele>1028.0</ele>
        <time>2018-09-15T12:07:41Z</time>
      </trkpt>
      <trkpt lat="40.247983" lon="-4.888967">
        <ele>1027.0</ele>
        <time>2018-09-15T12:07:42Z</time>
      </trkpt>
      <trkpt lat="40.248050" lon="-4.888883">
        <ele>1028.0</ele>
        <time>2018-09-15T12:07:43Z</time>
      </trkpt>
      <trkpt lat="40.248133" lon="-4.888817">
        <ele>1030.0</ele>
        <time>2018-09-15T12:07:44Z</time>
      </trkpt>
      <trkpt lat="40.248217" lon="-4.888767">
        <ele>1033.0</ele>
        <time>2018-09-15T12:07:45Z</time>
      </trkpt>
      <trkpt lat="40.248283" lon="-4.888700">
        <ele>1036.0</ele>
        <time>2018-09-15T12:07:46Z</time>
      </trkpt>
      <trkpt lat="40.248350" lon="-4.888650">
        <ele>1038.0</ele>
        <time>2018-09-15T12:07:47Z</time>
      </trkpt>
      <trkpt lat="40.248417" lon="-4.888600">
        <ele>1038.0</ele>
        <time>2018-09-15T12:07:48Z</time>
      </trkpt>
      <trkpt lat="40.248500" lon="-4.888550">
        <ele>1038.0</ele>
        <time>2018-09-15T12:07:49Z</time>
      </trkpt>
      <trkpt lat="40.248600" lon="-4.888550">
        <ele>1037.0</ele>
        <time>2018-09-15T12:07:50Z</time>
      </trkpt>
      <trkpt lat="40.248717" lon="-4.888583">
        <ele>1036.0</ele>
        <time>2018-09-15T12:07:51Z</time>
      </trkpt>
      <trkpt lat="40.248817" lon="-4.888683">
        <ele>1037.0</ele>
        <time>2018-09-15T12:07:52Z</time>
      </trkpt>
      <trkpt lat="40.248900" lon="-4.888800">
        <ele>1039.0</ele>
        <time>2018-09-15T12:07:53Z</time>
      </trkpt>
      <trkpt lat="40.248933" lon="-4.888950">
        <ele>1041.0</ele>
        <time>2018-09-15T12:07:54Z</time>
      </trkpt>
      <trkpt lat="40.248950" lon="-4.889083">
        <ele>1044.0</ele>
        <time>2018-09-15T12:07:55Z</time>
      </trkpt>
      <trkpt lat="40.248917" lon="-4.889233">
        <ele>1045.0</ele>
        <time>2018-09-15T12:07:56Z</time>
      </trkpt>
      <trkpt lat="40.248883" lon="-4.889350">
        <ele>1047.0</ele>
        <time>2018-09-15T12:07:57Z</time>
      </trkpt>
      <trkpt lat="40.248833" lon="-4.889433">
        <ele>1048.0</ele>
        <time>2018-09-15T12:07:58Z</time>
      </trkpt>
      <trkpt lat="40.248767" lon="-4.889500">
        <ele>1048.0</ele>
        <time>2018-09-15T12:07:59Z</time>
      </trkpt>
      <trkpt lat="40.248700" lon="-4.889533">
        <ele>1048.0</ele>
        <time>2018-09-15T12:08:00Z</time>
      </trkpt>
      <trkpt lat="40.248633" lon="-4.889550">
        <ele>1046.0</ele>
        <time>2018-09-15T12:08:01Z</time>
      </trkpt>
      <trkpt lat="40.248533" lon="-4.889533">
        <ele>1044.0</ele>
        <time>2018-09-15T12:08:02Z</time>
      </trkpt>
      <trkpt lat="40.248467" lon="-4.889467">
        <ele>1044.0</ele>
        <time>2018-09-15T12:08:03Z</time>
      </trkpt>
      <trkpt lat="40.248417" lon="-4.889367">
        <ele>1044.0</ele>
        <time>2018-09-15T12:08:04Z</time>
      </trkpt>
      <trkpt lat="40.248400" lon="-4.889250">
        <ele>1045.0</ele>
        <time>2018-09-15T12:08:05Z</time>
      </trkpt>
      <trkpt lat="40.248417" lon="-4.889133">
        <ele>1047.0</ele>
        <time>2018-09-15T12:08:06Z</time>
      </trkpt>
      <trkpt lat="40.248467" lon="-4.889050">
        <ele>1050.0</ele>
        <time>2018-09-15T12:08:07Z</time>
      </trkpt>
      <trkpt lat="40.248517" lon="-4.888967">
        <ele>1052.0</ele>
        <time>2018-09-15T12:08:08Z</time>
      </trkpt>
      <trkpt lat="40.248583" lon="-4.888917">
        <ele>1053.0</ele>
        <time>2018-09-15T12:08:09Z</time>
      </trkpt>
      <trkpt lat="40.248650" lon="-4.888867">
        <ele>1054.0</ele>
        <time>2018-09-15T12:08:10Z</time>
      </trkpt>
      <trkpt lat="40.248717" lon="-4.888817">
        <ele>1054.0</ele>
        <time>2018-09-15T12:08:11Z</time>
      </trkpt>
      <trkpt lat="40.248800" lon="-4.888783">
        <ele>1054.0</ele>
        <time>2018-09-15T12:08:12Z</time>
      </trkpt>
      <trkpt lat="40.248900" lon="-4.888783">
        <ele>1054.0</ele>
        <time>2018-09-15T12:08:13Z</time>
      </trkpt>
      <trkpt lat="40.248983" lon="-4.888800">
        <ele>1055.0</ele>
        <time>2018-09-15T12:08:14Z</time>
      </trkpt>
      <trkpt lat="40.249083" lon="-4.888850">
        <ele>1056.0</ele>
        <time>2018-09-15T12:08:15Z</time>
      </trkpt>
      <trkpt lat="40.249183" lon="-4.888900">
        <ele>1057.0</ele>
        <time>2018-09-15T12:08:16Z</time>
      </trkpt>
      <trkpt lat="40.249267" lon="-4.888950">
        <ele>1058.0</ele>
        <time>2018-09-15T12:08:17Z</time>
      </trkpt>
      <trkpt lat="40.249350" lon="-4.889000">
        <ele>1059.0</ele>
        <time>2018-09-15T12:08:18Z</time>
      </trkpt>
      <trkpt lat="40.249417" lon="-4.889083">
        <ele>1060.0</ele>
        <time>2018-09-15T12:08:19Z</time>
      </trkpt>
      <trkpt lat="40.249500" lon="-4.889200">
        <ele>1060.0</ele>
        <time>2018-09-15T12:08:20Z</time>
      </trkpt>
      <trkpt lat="40.249567" lon="-4.889317">
        <ele>1062.0</ele>
        <time>2018-09-15T12:08:21Z</time>
      </trkpt>
      <trkpt lat="40.249600" lon="-4.889433">
        <ele>1064.0</ele>
        <time>2018-09-15T12:08:22Z</time>
      </trkpt>
      <trkpt lat="40.249600" lon="-4.889533">
        <ele>1065.0</ele>
        <time>2018-09-15T12:08:23Z</time>
      </trkpt>
      <trkpt lat="40.249583" lon="-4.889650">
        <ele>1065.0</ele>
        <time>2018-09-15T12:08:24Z</time>
      </trkpt>
      <trkpt lat="40.249533" lon="-4.889750">
        <ele>1064.0</ele>
        <time>2018-09-15T12:08:25Z</time>
      </trkpt>
      <trkpt lat="40.249483" lon="-4.889833">
        <ele>1064.0</ele>
        <time>2018-09-15T12:08:26Z</time>
      </trkpt>
      <trkpt lat="40.249400" lon="-4.889883">
        <ele>1064.0</ele>
        <time>2018-09-15T12:08:27Z</time>
      </trkpt>
      <trkpt lat="40.249333" lon="-4.889883">
        <ele>1065.0</ele>
        <time>2018-09-15T12:08:28Z</time>
      </trkpt>
      <trkpt lat="40.249250" lon="-4.889850">
        <ele>1064.0</ele>
        <time>2018-09-15T12:08:29Z</time>
      </trkpt>
      <trkpt lat="40.249200" lon="-4.889783">
        <ele>1065.0</ele>
        <time>2018-09-15T12:08:30Z</time>
      </trkpt>
      <trkpt lat="40.249150" lon="-4.889683">
        <ele>1066.0</ele>
        <time>2018-09-15T12:08:31Z</time>
      </trkpt>
      <trkpt lat="40.249117" lon="-4.889583">
        <ele>1068.0</ele>
        <time>2018-09-15T12:08:32Z</time>
      </trkpt>
      <trkpt lat="40.249117" lon="-4.889500">
        <ele>1071.0</ele>
        <time>2018-09-15T12:08:33Z</time>
      </trkpt>
      <trkpt lat="40.249133" lon="-4.889417">
        <ele>1073.0</ele>
        <time>2018-09-15T12:08:34Z</time>
      </trkpt>
      <trkpt lat="40.249167" lon="-4.889350">
        <ele>1074.0</ele>
        <time>2018-09-15T12:08:35Z</time>
      </trkpt>
      <trkpt lat="40.249217" lon="-4.889300">
        <ele>1074.0</ele>
        <time>2018-09-15T12:08:36Z</time>
      </trkpt>
      <trkpt lat="40.249283" lon="-4.889250">
        <ele>1074.0</ele>
        <time>2018-09-15T12:08:37Z</time>
      </trkpt>
      <trkpt lat="40.249383" lon="-4.889233">
        <ele>1074.0</ele>
        <time>2018-09-15T12:08:38Z</time>
      </trkpt>
      <trkpt lat="40.249483" lon="-4.889233">
        <ele>1074.0</ele>
        <time>2018-09-15T12:08:39Z</time>
      </trkpt>
      <trkpt lat="40.249583" lon="-4.889267">
        <ele>1075.0</ele>
        <time>2018-09-15T12:08:40Z</time>
      </trkpt>
      <trkpt lat="40.249667" lon="-4.889350">
        <ele>1075.0</ele>
        <time>2018-09-15T12:08:41Z</time>
      </trkpt>
      <trkpt lat="40.249733" lon="-4.889467">
        <ele>1074.0</ele>
        <time>2018-09-15T12:08:42Z</time>
      </trkpt>
      <trkpt lat="40.249750" lon="-4.889633">
        <ele>1072.0</ele>
        <time>2018-09-15T12:08:43Z</time>
      </trkpt>
      <trkpt lat="40.249750" lon="-4.889800">
        <ele>1071.0</ele>
        <time>2018-09-15T12:08:44Z</time>
      </trkpt>
      <trkpt lat="40.249717" lon="-4.889950">
        <ele>1072.0</ele>
        <time>2018-09-15T12:08:45Z</time>
      </trkpt>
      <trkpt lat="40.249667" lon="-4.890067">
        <ele>1075.0</ele>
        <time>2018-09-15T12:08:46Z</time>
      </trkpt>
      <trkpt lat="40.249617" lon="-4.890133">
        <ele>1076.0</ele>
        <time>2018-09-15T12:08:47Z</time>
      </trkpt>
      <trkpt lat="40.249567" lon="-4.890167">
        <ele>1077.0</ele>
        <time>2018-09-15T12:08:48Z</time>
      </trkpt>
      <trkpt lat="40.249483" lon="-4.890200">
        <ele>1076.0</ele>
        <time>2018-09-15T12:08:49Z</time>
      </trkpt>
      <trkpt lat="40.249417" lon="-4.890217">
        <ele>1076.0</ele>
        <time>2018-09-15T12:08:50Z</time>
      </trkpt>
      <trkpt lat="40.249333" lon="-4.890217">
        <ele>1077.0</ele>
        <time>2018-09-15T12:08:51Z</time>
      </trkpt>
      <trkpt lat="40.249250" lon="-4.890183">
        <ele>1078.0</ele>
        <time>2018-09-15T12:08:52Z</time>
      </trkpt>
      <trkpt lat="40.249183" lon="-4.890117">
        <ele>1080.0</ele>
        <time>2018-09-15T12:08:53Z</time>
      </trkpt>
      <trkpt lat="40.249150" lon="-4.890050">
        <ele>1082.0</ele>
        <time>2018-09-15T12:08:54Z</time>
      </trkpt>
      <trkpt lat="40.249150" lon="-4.889967">
        <ele>1084.0</ele>
        <time>2018-09-15T12:08:55Z</time>
      </trkpt>
      <trkpt lat="40.249150" lon="-4.889900">
        <ele>1085.0</ele>
        <time>2018-09-15T12:08:56Z</time>
      </trkpt>
      <trkpt lat="40.249167" lon="-4.889833">
        <ele>1085.0</ele>
        <time>2018-09-15T12:08:57Z</time>
      </trkpt>
      <trkpt lat="40.249183" lon="-4.889750">
        <ele>1084.0</ele>
        <time>2018-09-15T12:08:58Z</time>
      </trkpt>
      <trkpt lat="40.249233" lon="-4.889683">
        <ele>1083.0</ele>
        <time>2018-09-15T12:08:59Z</time>
      </trkpt>
      <trkpt lat="40.249300" lon="-4.889617">
        <ele>1083.0</ele>
        <time>2018-09-15T12:09:00Z</time>
      </trkpt>
      <trkpt lat="40.249383" lon="-4.889567">
        <ele>1084.0</ele>
        <time>2018-09-15T12:09:01Z</time>
      </trkpt>
      <trkpt lat="40.249467" lon="-4.889517">
        <ele>1085.0</ele>
        <time>2018-09-15T12:09:02Z</time>
      </trkpt>
      <trkpt lat="40.249567" lon="-4.889500">
        <ele>1086.0</ele>
        <time>2018-09-15T12:09:03Z</time>
      </trkpt>
      <trkpt lat="40.249667" lon="-4.889500">
        <ele>1087.0</ele>
        <time>2018-09-15T12:09:04Z</time>
      </trkpt>
      <trkpt lat="40.249750" lon="-4.889483">
        <ele>1089.0</ele>
        <time>2018-09-15T12:09:05Z</time>
      </trkpt>
      <trkpt lat="40.249800" lon="-4.889500">
        <ele>1091.0</ele>
        <time>2018-09-15T12:09:06Z</time>
      </trkpt>
      <trkpt lat="40.249867" lon="-4.889500">
        <ele>1090.0</ele>
        <time>2018-09-15T12:09:07Z</time>
      </trkpt>
      <trkpt lat="40.249933" lon="-4.889533">
        <ele>1088.0</ele>
        <time>2018-09-15T12:09:08Z</time>
      </trkpt>
      <trkpt lat="40.250000" lon="-4.889617">
        <ele>1085.0</ele>
        <time>2018-09-15T12:09:09Z</time>
      </trkpt>
      <trkpt lat="40.250083" lon="-4.889733">
        <ele>1082.0</ele>
        <time>2018-09-15T12:09:10Z</time>
      </trkpt>
      <trkpt lat="40.250133" lon="-4.889883">
        <ele>1080.0</ele>
        <time>2018-09-15T12:09:11Z</time>
      </trkpt>
      <trkpt lat="40.250150" lon="-4.890050">
        <ele>1080.0</ele>
        <time>2018-09-15T12:09:12Z</time>
      </trkpt>
      <trkpt lat="40.250117" lon="-4.890200">
        <ele>1081.0</ele>
        <time>2018-09-15T12:09:13Z</time>
      </trkpt>
      <trkpt lat="40.250067" lon="-4.890317">
        <ele>1083.0</ele>
        <time>2018-09-15T12:09:14Z</time>
      </trkpt>
      <trkpt lat="40.250017" lon="-4.890400">
        <ele>1085.0</ele>
        <time>2018-09-15T12:09:15Z</time>
      </trkpt>
      <trkpt lat="40.249950" lon="-4.890467">
        <ele>1086.0</ele>
        <time>2018-09-15T12:09:16Z</time>
      </trkpt>
      <trkpt lat="40.249900" lon="-4.890533">
        <ele>1085.0</ele>
        <time>2018-09-15T12:09:17Z</time>
      </trkpt>
      <trkpt lat="40.249833" lon="-4.890583">
        <ele>1084.0</ele>
        <time>2018-09-15T12:09:18Z</time>
      </trkpt>
      <trkpt lat="40.249767" lon="-4.890617">
        <ele>1083.0</ele>
        <time>2018-09-15T12:09:19Z</time>
      </trkpt>
      <trkpt lat="40.249683" lon="-4.890650">
        <ele>1082.0</ele>
        <time>2018-09-15T12:09:20Z</time>
      </trkpt>
      <trkpt lat="40.249600" lon="-4.890667">
        <ele>1082.0</ele>
        <time>2018-09-15T12:09:21Z</time>
      </trkpt>
      <trkpt lat="40.249517" lon="-4.890683">
        <ele>1083.0</ele>
        <time>2018-09-15T12:09:22Z</time>
      </trkpt>
      <trkpt lat="40.249433" lon="-4.890683">
        <ele>1084.0</ele>
        <time>2018-09-15T12:09:23Z</time>
      </trkpt>
      <trkpt lat="40.249350" lon="-4.890667">
        <ele>1085.0</ele>
        <time>2018-09-15T12:09:24Z</time>
      </trkpt>
      <trkpt lat="40.249267" lon="-4.890667">
        <ele>1085.0</ele>
        <time>2018-09-15T12:09:25Z</time>
      </trkpt>
      <trkpt lat="40.249183" lon="-4.890667">
        <ele>1086.0</ele>
        <time>2018-09-15T12:09:26Z</time>
      </trkpt>
      <trkpt lat="40.249100" lon="-4.890650">
        <ele>1087.0</ele>
        <time>2018-09-15T12:09:27Z</time>
      </trkpt>
      <trkpt lat="40.249017" lon="-4.890633">
        <ele>1089.0</ele>
        <time>2018-09-15T12:09:28Z</time>
      </trkpt>
      <trkpt lat="40.248933" lon="-4.890583">
        <ele>1092.0</ele>
        <time>2018-09-15T12:09:29Z</time>
      </trkpt>
      <trkpt lat="40.248883" lon="-4.890533">
        <ele>1096.0</ele>
        <time>2018-09-15T12:09:30Z</time>
      </trkpt>
      <trkpt lat="40.248833" lon="-4.890500">
        <ele>1099.0</ele>
        <time>2018-09-15T12:09:31Z</time>
      </trkpt>
      <trkpt lat="40.248783" lon="-4.890467">
        <ele>1100.0</ele>
        <time>2018-09-15T12:09:32Z</time>
      </trkpt>
      <trkpt lat="40.248733" lon="-4.890433">
        <ele>1101.0</ele>
        <time>2018-09-15T12:09:33Z</time>
      </trkpt>
      <trkpt lat="40.248667" lon="-4.890433">
        <ele>1101.0</ele>
        <time>2018-09-15T12:09:34Z</time>
      </trkpt>
      <trkpt lat="40.248583" lon="-4.890450">
        <ele>1100.0</ele>
        <time>2018-09-15T12:09:35Z</time>
      </trkpt>
      <trkpt lat="40.248500" lon="-4.890500">
        <ele>1100.0</ele>
        <time>2018-09-15T12:09:36Z</time>
      </trkpt>
      <trkpt lat="40.248417" lon="-4.890600">
        <ele>1100.0</ele>
        <time>2018-09-15T12:09:37Z</time>
      </trkpt>
      <trkpt lat="40.248350" lon="-4.890717">
        <ele>1099.0</ele>
        <time>2018-09-15T12:09:38Z</time>
      </trkpt>
      <trkpt lat="40.248317" lon="-4.890867">
        <ele>1099.0</ele>
        <time>2018-09-15T12:09:39Z</time>
      </trkpt>
      <trkpt lat="40.248317" lon="-4.891033">
        <ele>1098.0</ele>
        <time>2018-09-15T12:09:40Z</time>
      </trkpt>
      <trkpt lat="40.248367" lon="-4.891183">
        <ele>1098.0</ele>
        <time>2018-09-15T12:09:41Z</time>
      </trkpt>
      <trkpt lat="40.248433" lon="-4.891317">
        <ele>1099.0</ele>
        <time>2018-09-15T12:09:42Z</time>
      </trkpt>
      <trkpt lat="40.248533" lon="-4.891417">
        <ele>1100.0</ele>
        <time>2018-09-15T12:09:43Z</time>
      </trkpt>
      <trkpt lat="40.248617" lon="-4.891500">
        <ele>1103.0</ele>
        <time>2018-09-15T12:09:44Z</time>
      </trkpt>
      <trkpt lat="40.248700" lon="-4.891533">
        <ele>1106.0</ele>
        <time>2018-09-15T12:09:45Z</time>
      </trkpt>
      <trkpt lat="40.248800" lon="-4.891550">
        <ele>1107.0</ele>
        <time>2018-09-15T12:09:46Z</time>
      </trkpt>
      <trkpt lat="40.248867" lon="-4.891517">
        <ele>1109.0</ele>
        <time>2018-09-15T12:09:47Z</time>
      </trkpt>
      <trkpt lat="40.248933" lon="-4.891483">
        <ele>1110.0</ele>
        <time>2018-09-15T12:09:48Z</time>
      </trkpt>
      <trkpt lat="40.249000" lon="-4.891433">
        <ele>1111.0</ele>
        <time>2018-09-15T12:09:49Z</time>
      </trkpt>
      <trkpt lat="40.249067" lon="-4.891367">
        <ele>1113.0</ele>
        <time>2018-09-15T12:09:50Z</time>
      </trkpt>
      <trkpt lat="40.249133" lon="-4.891317">
        <ele>1114.0</ele>
        <time>2018-09-15T12:09:51Z</time>
      </trkpt>
      <trkpt lat="40.249217" lon="-4.891283">
        <ele>1115.0</ele>
        <time>2018-09-15T12:09:52Z</time>
      </trkpt>
      <trkpt lat="40.249300" lon="-4.891267">
        <ele>1117.0</ele>
        <time>2018-09-15T12:09:53Z</time>
      </trkpt>
      <trkpt lat="40.249400" lon="-4.891283">
        <ele>1118.0</ele>
        <time>2018-09-15T12:09:54Z</time>
      </trkpt>
      <trkpt lat="40.249483" lon="-4.891300">
        <ele>1120.0</ele>
        <time>2018-09-15T12:09:55Z</time>
      </trkpt>
      <trkpt lat="40.249583" lon="-4.891350">
        <ele>1122.0</ele>
        <time>2018-09-15T12:09:56Z</time>
      </trkpt>
      <trkpt lat="40.249650" lon="-4.891417">
        <ele>1123.0</ele>
        <time>2018-09-15T12:09:57Z</time>
      </trkpt>
      <trkpt lat="40.249733" lon="-4.891500">
        <ele>1124.0</ele>
        <time>2018-09-15T12:09:58Z</time>
      </trkpt>
      <trkpt lat="40.249767" lon="-4.891617">
        <ele>1124.0</ele>
        <time>2018-09-15T12:09:59Z</time>
      </trkpt>
      <trkpt lat="40.249767" lon="-4.891750">
        <ele>1123.0</ele>
        <time>2018-09-15T12:10:00Z</time>
      </trkpt>
      <trkpt lat="40.249750" lon="-4.891883">
        <ele>1123.0</ele>
        <time>2018-09-15T12:10:01Z</time>
      </trkpt>
      <trkpt lat="40.249683" lon="-4.891983">
        <ele>1124.0</ele>
        <time>2018-09-15T12:10:02Z</time>
      </trkpt>
      <trkpt lat="40.249600" lon="-4.892033">
        <ele>1125.0</ele>
        <time>2018-09-15T12:10:03Z</time>
      </trkpt>
      <trkpt lat="40.249500" lon="-4.892033">
        <ele>1125.0</ele>
        <time>2018-09-15T12:10:04Z</time>
      </trkpt>
      <trkpt lat="40.249417" lon="-4.892000">
        <ele>1125.0</ele>
        <time>2018-09-15T12:10:05Z</time>
      </trkpt>
      <trkpt lat="40.249350" lon="-4.891933">
        <ele>1126.0</ele>
        <time>2018-09-15T12:10:06Z</time>
      </trkpt>
      <trkpt lat="40.249300" lon="-4.891867">
        <ele>1129.0</ele>
        <time>2018-09-15T12:10:07Z</time>
      </trkpt>
      <trkpt lat="40.249250" lon="-4.891800">
        <ele>1131.0</ele>
        <time>2018-09-15T12:10:08Z</time>
      </trkpt>
      <trkpt lat="40.249233" lon="-4.891717">
        <ele>1131.0</ele>
        <time>2018-09-15T12:10:09Z</time>
      </trkpt>
      <trkpt lat="40.249233" lon="-4.891650">
        <ele>1132.0</ele>
        <time>2018-09-15T12:10:10Z</time>
      </trkpt>
      <trkpt lat="40.249233" lon="-4.891550">
        <ele>1133.0</ele>
        <time>2018-09-15T12:10:11Z</time>
      </trkpt>
      <trkpt lat="40.249267" lon="-4.891467">
        <ele>1133.0</ele>
        <time>2018-09-15T12:10:12Z</time>
      </trkpt>
      <trkpt lat="40.249317" lon="-4.891367">
        <ele>1135.0</ele>
        <time>2018-09-15T12:10:13Z</time>
      </trkpt>
      <trkpt lat="40.249383" lon="-4.891300">
        <ele>1137.0</ele>
        <time>2018-09-15T12:10:14Z</time>
      </trkpt>
      <trkpt lat="40.249450" lon="-4.891233">
        <ele>1139.0</ele>
        <time>2018-09-15T12:10:15Z</time>
      </trkpt>
      <trkpt lat="40.249500" lon="-4.891150">
        <ele>1141.0</ele>
        <time>2018-09-15T12:10:16Z</time>
      </trkpt>
      <trkpt lat="40.249567" lon="-4.891100">
        <ele>1141.0</ele>
        <time>2018-09-15T12:10:17Z</time>
      </trkpt>
      <trkpt lat="40.249633" lon="-4.891050">
        <ele>1141.0</ele>
        <time>2018-09-15T12:10:18Z</time>
      </trkpt>
      <trkpt lat="40.249733" lon="-4.891050">
        <ele>1140.0</ele>
        <time>2018-09-15T12:10:19Z</time>
      </trkpt>
      <trkpt lat="40.249833" lon="-4.891067">
        <ele>1139.0</ele>
        <time>2018-09-15T12:10:20Z</time>
      </trkpt>
      <trkpt lat="40.249917" lon="-4.891150">
        <ele>1138.0</ele>
        <time>2018-09-15T12:10:21Z</time>
      </trkpt>
      <trkpt lat="40.249983" lon="-4.891250">
        <ele>1137.0</ele>
        <time>2018-09-15T12:10:22Z</time>
      </trkpt>
      <trkpt lat="40.250033" lon="-4.891400">
        <ele>1136.0</ele>
        <time>2018-09-15T12:10:23Z</time>
      </trkpt>
      <trkpt lat="40.250067" lon="-4.891567">
        <ele>1137.0</ele>
        <time>2018-09-15T12:10:24Z</time>
      </trkpt>
      <trkpt lat="40.250067" lon="-4.891700">
        <ele>1139.0</ele>
        <time>2018-09-15T12:10:25Z</time>
      </trkpt>
      <trkpt lat="40.250067" lon="-4.891833">
        <ele>1142.0</ele>
        <time>2018-09-15T12:10:26Z</time>
      </trkpt>
      <trkpt lat="40.250050" lon="-4.891933">
        <ele>1144.0</ele>
        <time>2018-09-15T12:10:27Z</time>
      </trkpt>
      <trkpt lat="40.250033" lon="-4.892017">
        <ele>1145.0</ele>
        <time>2018-09-15T12:10:28Z</time>
      </trkpt>
      <trkpt lat="40.249983" lon="-4.892117">
        <ele>1145.0</ele>
        <time>2018-09-15T12:10:29Z</time>
      </trkpt>
      <trkpt lat="40.249950" lon="-4.892200">
        <ele>1144.0</ele>
        <time>2018-09-15T12:10:30Z</time>
      </trkpt>
      <trkpt lat="40.249883" lon="-4.892300">
        <ele>1143.0</ele>
        <time>2018-09-15T12:10:31Z</time>
      </trkpt>
      <trkpt lat="40.249800" lon="-4.892383">
        <ele>1143.0</ele>
        <time>2018-09-15T12:10:32Z</time>
      </trkpt>
      <trkpt lat="40.249717" lon="-4.892450">
        <ele>1144.0</ele>
        <time>2018-09-15T12:10:33Z</time>
      </trkpt>
      <trkpt lat="40.249617" lon="-4.892500">
        <ele>1145.0</ele>
        <time>2018-09-15T12:10:34Z</time>
      </trkpt>
      <trkpt lat="40.249550" lon="-4.892567">
        <ele>1146.0</ele>
        <time>2018-09-15T12:10:35Z</time>
      </trkpt>
      <trkpt lat="40.249467" lon="-4.892617">
        <ele>1146.0</ele>
        <time>2018-09-15T12:10:36Z</time>
      </trkpt>
      <trkpt lat="40.249383" lon="-4.892650">
        <ele>1146.0</ele>
        <time>2018-09-15T12:10:37Z</time>
      </trkpt>
      <trkpt lat="40.249300" lon="-4.892650">
        <ele>1146.0</ele>
        <time>2018-09-15T12:10:38Z</time>
      </trkpt>
      <trkpt lat="40.249233" lon="-4.892617">
        <ele>1146.0</ele>
        <time>2018-09-15T12:10:39Z</time>
      </trkpt>
      <trkpt lat="40.249183" lon="-4.892567">
        <ele>1147.0</ele>
        <time>2018-09-15T12:10:40Z</time>
      </trkpt>
      <trkpt lat="40.249150" lon="-4.892483">
        <ele>1149.0</ele>
        <time>2018-09-15T12:10:41Z</time>
      </trkpt>
      <trkpt lat="40.249133" lon="-4.892400">
        <ele>1151.0</ele>
        <time>2018-09-15T12:10:42Z</time>
      </trkpt>
      <trkpt lat="40.249150" lon="-4.892317">
        <ele>1153.0</ele>
        <time>2018-09-15T12:10:43Z</time>
      </trkpt>
      <trkpt lat="40.249167" lon="-4.892233">
        <ele>1155.0</ele>
        <time>2018-09-15T12:10:44Z</time>
      </trkpt>
      <trkpt lat="40.249233" lon="-4.892167">
        <ele>1156.0</ele>
        <time>2018-09-15T12:10:45Z</time>
      </trkpt>
      <trkpt lat="40.249317" lon="-4.892133">
        <ele>1156.0</ele>
        <time>2018-09-15T12:10:46Z</time>
      </trkpt>
      <trkpt lat="40.249400" lon="-4.892100">
        <ele>1158.0</ele>
        <time>2018-09-15T12:10:47Z</time>
      </trkpt>
      <trkpt lat="40.249483" lon="-4.892117">
        <ele>1160.0</ele>
        <time>2018-09-15T12:10:48Z</time>
      </trkpt>
      <trkpt lat="40.249583" lon="-4.892167">
        <ele>1162.0</ele>
        <time>2018-09-15T12:10:49Z</time>
      </trkpt>
      <trkpt lat="40.249650" lon="-4.892250">
        <ele>1164.0</ele>
        <time>2018-09-15T12:10:50Z</time>
      </trkpt>
      <trkpt lat="40.249717" lon="-4.892350">
        <ele>1166.0</ele>
        <time>2018-09-15T12:10:51Z</time>
      </trkpt>
      <trkpt lat="40.249750" lon="-4.892483">
        <ele>1166.0</ele>
        <time>2018-09-15T12:10:52Z</time>
      </trkpt>
      <trkpt lat="40.249750" lon="-4.892650">
        <ele>1166.0</ele>
        <time>2018-09-15T12:10:53Z</time>
      </trkpt>
      <trkpt lat="40.249700" lon="-4.892800">
        <ele>1166.0</ele>
        <time>2018-09-15T12:10:54Z</time>
      </trkpt>
      <trkpt lat="40.249633" lon="-4.892917">
        <ele>1167.0</ele>
        <time>2018-09-15T12:10:55Z</time>
      </trkpt>
      <trkpt lat="40.249533" lon="-4.892983">
        <ele>1167.0</ele>
        <time>2018-09-15T12:10:56Z</time>
      </trkpt>
      <trkpt lat="40.249433" lon="-4.893017">
        <ele>1167.0</ele>
        <time>2018-09-15T12:10:57Z</time>
      </trkpt>
      <trkpt lat="40.249350" lon="-4.892983">
        <ele>1169.0</ele>
        <time>2018-09-15T12:10:58Z</time>
      </trkpt>
      <trkpt lat="40.249283" lon="-4.892950">
        <ele>1171.0</ele>
        <time>2018-09-15T12:10:59Z</time>
      </trkpt>
      <trkpt lat="40.249250" lon="-4.892883">
        <ele>1173.0</ele>
        <time>2018-09-15T12:11:00Z</time>
      </trkpt>
      <trkpt lat="40.249233" lon="-4.892817">
        <ele>1175.0</ele>
        <time>2018-09-15T12:11:01Z</time>
      </trkpt>
      <trkpt lat="40.249233" lon="-4.892750">
        <ele>1176.0</ele>
        <time>2018-09-15T12:11:02Z</time>
      </trkpt>
      <trkpt lat="40.249267" lon="-4.892683">
        <ele>1175.0</ele>
        <time>2018-09-15T12:11:03Z</time>
      </trkpt>
      <trkpt lat="40.249300" lon="-4.892600">
        <ele>1175.0</ele>
        <time>2018-09-15T12:11:04Z</time>
      </trkpt>
      <trkpt lat="40.249350" lon="-4.892533">
        <ele>1175.0</ele>
        <time>2018-09-15T12:11:05Z</time>
      </trkpt>
      <trkpt lat="40.249417" lon="-4.892467">
        <ele>1176.0</ele>
        <time>2018-09-15T12:11:06Z</time>
      </trkpt>
      <trkpt lat="40.249500" lon="-4.892433">
        <ele>1178.0</ele>
        <time>2018-09-15T12:11:07Z</time>
      </trkpt>
      <trkpt lat="40.249567" lon="-4.892433">
        <ele>1180.0</ele>
        <time>2018-09-15T12:11:08Z</time>
      </trkpt>
      <trkpt lat="40.249650" lon="-4.892433">
        <ele>1181.0</ele>
        <time>2018-09-15T12:11:09Z</time>
      </trkpt>
      <trkpt lat="40.249717" lon="-4.892467">
        <ele>1181.0</ele>
        <time>2018-09-15T12:11:10Z</time>
      </trkpt>
      <trkpt lat="40.249800" lon="-4.892533">
        <ele>1180.0</ele>
        <time>2018-09-15T12:11:11Z</time>
      </trkpt>
      <trkpt lat="40.249900" lon="-4.892617">
        <ele>1179.0</ele>
        <time>2018-09-15T12:11:12Z</time>
      </trkpt>
      <trkpt lat="40.249967" lon="-4.892733">
        <ele>1179.0</ele>
        <time>2018-09-15T12:11:13Z</time>
      </trkpt>
      <trkpt lat="40.250017" lon="-4.892883">
        <ele>1179.0</ele>
        <time>2018-09-15T12:11:14Z</time>
      </trkpt>
      <trkpt lat="40.250033" lon="-4.893033">
        <ele>1180.0</ele>
        <time>2018-09-15T12:11:15Z</time>
      </trkpt>
      <trkpt lat="40.250017" lon="-4.893183">
        <ele>1181.0</ele>
        <time>2018-09-15T12:11:16Z</time>
      </trkpt>
      <trkpt lat="40.249983" lon="-4.893317">
        <ele>1183.0</ele>
        <time>2018-09-15T12:11:17Z</time>
      </trkpt>
      <trkpt lat="40.249933" lon="-4.893417">
        <ele>1183.0</ele>
        <time>2018-09-15T12:11:18Z</time>
      </trkpt>
      <trkpt lat="40.249867" lon="-4.893500">
        <ele>1184.0</ele>
        <time>2018-09-15T12:11:19Z</time>
      </trkpt>
      <trkpt lat="40.249783" lon="-4.893583">
        <ele>1183.0</ele>
        <time>2018-09-15T12:11:20Z</time>
      </trkpt>
      <trkpt lat="40.249700" lon="-4.893650">
        <ele>1182.0</ele>
        <time>2018-09-15T12:11:21Z</time>
      </trkpt>
      <trkpt lat="40.249617" lon="-4.893683">
        <ele>1182.0</ele>
        <time>2018-09-15T12:11:22Z</time>
      </trkpt>
      <trkpt lat="40.249517" lon="-4.893700">
        <ele>1182.0</ele>
        <time>2018-09-15T12:11:23Z</time>
      </trkpt>
      <trkpt lat="40.249433" lon="-4.893683">
        <ele>1183.0</ele>
        <time>2018-09-15T12:11:24Z</time>
      </trkpt>
      <trkpt lat="40.249350" lon="-4.893667">
        <ele>1185.0</ele>
        <time>2018-09-15T12:11:25Z</time>
      </trkpt>
      <trkpt lat="40.249283" lon="-4.893633">
        <ele>1186.0</ele>
        <time>2018-09-15T12:11:26Z</time>
      </trkpt>
      <trkpt lat="40.249233" lon="-4.893633">
        <ele>1188.0</ele>
        <time>2018-09-15T12:11:27Z</time>
      </trkpt>
      <trkpt lat="40.249167" lon="-4.893617">
        <ele>1188.0</ele>
        <time>2018-09-15T12:11:28Z</time>
      </trkpt>
      <trkpt lat="40.249117" lon="-4.893583">
        <ele>1188.0</ele>
        <time>2018-09-15T12:11:29Z</time>
      </trkpt>
      <trkpt lat="40.249083" lon="-4.893517">
        <ele>1186.0</ele>
        <time>2018-09-15T12:11:30Z</time>
      </trkpt>
      <trkpt lat="40.249067" lon="-4.893433">
        <ele>1184.0</ele>
        <time>2018-09-15T12:11:31Z</time>
      </trkpt>
      <trkpt lat="40.249067" lon="-4.893333">
        <ele>1183.0</ele>
        <time>2018-09-15T12:11:32Z</time>
      </trkpt>
      <trkpt lat="40.249117" lon="-4.893233">
        <ele>1182.0</ele>
        <time>2018-09-15T12:11:33Z</time>
      </trkpt>
      <trkpt lat="40.249183" lon="-4.893167">
        <ele>1181.0</ele>
        <time>2018-09-15T12:11:34Z</time>
      </trkpt>
      <trkpt lat="40.249267" lon="-4.893133">
        <ele>1181.0</ele>
        <time>2018-09-15T12:11:35Z</time>
      </trkpt>
      <trkpt lat="40.249350" lon="-4.893117">
        <ele>1181.0</ele>
        <time>2018-09-15T12:11:36Z</time>
      </trkpt>
      <trkpt lat="40.249450" lon="-4.893133">
        <ele>1182.0</ele>
        <time>2018-09-15T12:11:37Z</time>
      </trkpt>
      <trkpt lat="40.249533" lon="-4.893167">
        <ele>1181.0</ele>
        <time>2018-09-15T12:11:38Z</time>
      </trkpt>
      <trkpt lat="40.249617" lon="-4.893217">
        <ele>1181.0</ele>
        <time>2018-09-15T12:11:39Z</time>
      </trkpt>
      <trkpt lat="40.249717" lon="-4.893300">
        <ele>1180.0</ele>
        <time>2018-09-15T12:11:40Z</time>
      </trkpt>
      <trkpt lat="40.249817" lon="-4.893383">
        <ele>1179.0</ele>
        <time>2018-09-15T12:11:41Z</time>
      </trkpt>
      <trkpt lat="40.249900" lon="-4.893500">
        <ele>1180.0</ele>
        <time>2018-09-15T12:11:42Z</time>
      </trkpt>
      <trkpt lat="40.249967" lon="-4.893633">
        <ele>1182.0</ele>
        <time>2018-09-15T12:11:43Z</time>
      </trkpt>
      <trkpt lat="40.250017" lon="-4.893767">
        <ele>1184.0</ele>
        <time>2018-09-15T12:11:44Z</time>
      </trkpt>
      <trkpt lat="40.250033" lon="-4.893883">
        <ele>1185.0</ele>
        <time>2018-09-15T12:11:45Z</time>
      </trkpt>
      <trkpt lat="40.250050" lon="-4.894000">
        <ele>1184.0</ele>
        <time>2018-09-15T12:11:46Z</time>
      </trkpt>
      <trkpt lat="40.250067" lon="-4.894117">
        <ele>1183.0</ele>
        <time>2018-09-15T12:11:47Z</time>
      </trkpt>
      <trkpt lat="40.250067" lon="-4.894267">
        <ele>1181.0</ele>
        <time>2018-09-15T12:11:48Z</time>
      </trkpt>
      <trkpt lat="40.250050" lon="-4.894417">
        <ele>1179.0</ele>
        <time>2018-09-15T12:11:49Z</time>
      </trkpt>
      <trkpt lat="40.249983" lon="-4.894550">
        <ele>1179.0</ele>
        <time>2018-09-15T12:11:50Z</time>
      </trkpt>
      <trkpt lat="40.249917" lon="-4.894617">
        <ele>1180.0</ele>
        <time>2018-09-15T12:11:51Z</time>
      </trkpt>
      <trkpt lat="40.249833" lon="-4.894617">
        <ele>1181.0</ele>
        <time>2018-09-15T12:11:52Z</time>
      </trkpt>
      <trkpt lat="40.249767" lon="-4.894583">
        <ele>1182.0</ele>
        <time>2018-09-15T12:11:53Z</time>
      </trkpt>
      <trkpt lat="40.249700" lon="-4.894550">
        <ele>1183.0</ele>
        <time>2018-09-15T12:11:54Z</time>
      </trkpt>
      <trkpt lat="40.249650" lon="-4.894533">
        <ele>1184.0</ele>
        <time>2018-09-15T12:11:55Z</time>
      </trkpt>
      <trkpt lat="40.249583" lon="-4.894517">
        <ele>1184.0</ele>
        <time>2018-09-15T12:11:56Z</time>
      </trkpt>
      <trkpt lat="40.249533" lon="-4.894483">
        <ele>1185.0</ele>
        <time>2018-09-15T12:11:57Z</time>
      </trkpt>
      <trkpt lat="40.249483" lon="-4.894450">
        <ele>1184.0</ele>
        <time>2018-09-15T12:11:58Z</time>
      </trkpt>
      <trkpt lat="40.249450" lon="-4.894400">
        <ele>1183.0</ele>
        <time>2018-09-15T12:11:59Z</time>
      </trkpt>
      <trkpt lat="40.249417" lon="-4.894333">
        <ele>1181.0</ele>
        <time>2018-09-15T12:12:00Z</time>
      </trkpt>
      <trkpt lat="40.249400" lon="-4.894250">
        <ele>1180.0</ele>
        <time>2018-09-15T12:12:01Z</time>
      </trkpt>
      <trkpt lat="40.249383" lon="-4.894167">
        <ele>1178.0</ele>
        <time>2018-09-15T12:12:02Z</time>
      </trkpt>
      <trkpt lat="40.249400" lon="-4.894067">
        <ele>1178.0</ele>
        <time>2018-09-15T12:12:03Z</time>
      </trkpt>
      <trkpt lat="40.249417" lon="-4.893967">
        <ele>1178.0</ele>
        <time>2018-09-15T12:12:04Z</time>
      </trkpt>
      <trkpt lat="40.249450" lon="-4.893867">
        <ele>1178.0</ele>
        <time>2018-09-15T12:12:05Z</time>
      </trkpt>
      <trkpt lat="40.249467" lon="-4.893783">
        <ele>1179.0</ele>
        <time>2018-09-15T12:12:06Z</time>
      </trkpt>
      <trkpt lat="40.249500" lon="-4.893700">
        <ele>1179.0</ele>
        <time>2018-09-15T12:12:07Z</time>
      </trkpt>
      <trkpt lat="40.249517" lon="-4.893650">
        <ele>1178.0</ele>
        <time>2018-09-15T12:12:08Z</time>
      </trkpt>
      <trkpt lat="40.249550" lon="-4.893583">
        <ele>1175.0</ele>
        <time>2018-09-15T12:12:09Z</time>
      </trkpt>
      <trkpt lat="40.249600" lon="-4.893500">
        <ele>1173.0</ele>
        <time>2018-09-15T12:12:10Z</time>
      </trkpt>
      <trkpt lat="40.249683" lon="-4.893450">
        <ele>1171.0</ele>
        <time>2018-09-15T12:12:11Z</time>
      </trkpt>
      <trkpt lat="40.249783" lon="-4.893450">
        <ele>1171.0</ele>
        <time>2018-09-15T12:12:12Z</time>
      </trkpt>
      <trkpt lat="40.249900" lon="-4.893483">
        <ele>1172.0</ele>
        <time>2018-09-15T12:12:13Z</time>
      </trkpt>
      <trkpt lat="40.249983" lon="-4.893533">
        <ele>1173.0</ele>
        <time>2018-09-15T12:12:14Z</time>
      </trkpt>
      <trkpt lat="40.250067" lon="-4.893617">
        <ele>1174.0</ele>
        <time>2018-09-15T12:12:15Z</time>
      </trkpt>
      <trkpt lat="40.250117" lon="-4.893700">
        <ele>1174.0</ele>
        <time>2018-09-15T12:12:16Z</time>
      </trkpt>
      <trkpt lat="40.250167" lon="-4.893800">
        <ele>1173.0</ele>
        <time>2018-09-15T12:12:17Z</time>
      </trkpt>
      <trkpt lat="40.250233" lon="-4.893933">
        <ele>1172.0</ele>
        <time>2018-09-15T12:12:18Z</time>
      </trkpt>
      <trkpt lat="40.250283" lon="-4.894067">
        <ele>1172.0</ele>
        <time>2018-09-15T12:12:19Z</time>
      </trkpt>
      <trkpt lat="40.250333" lon="-4.894183">
        <ele>1174.0</ele>
        <time>2018-09-15T12:12:20Z</time>
      </trkpt>
      <trkpt lat="40.250383" lon="-4.894300">
        <ele>1175.0</ele>
        <time>2018-09-15T12:12:21Z</time>
      </trkpt>
      <trkpt lat="40.250433" lon="-4.894400">
        <ele>1176.0</ele>
        <time>2018-09-15T12:12:22Z</time>
      </trkpt>
      <trkpt lat="40.250483" lon="-4.894500">
        <ele>1176.0</ele>
        <time>2018-09-15T12:12:23Z</time>
      </trkpt>
      <trkpt lat="40.250517" lon="-4.894617">
        <ele>1175.0</ele>
        <time>2018-09-15T12:12:24Z</time>
      </trkpt>
      <trkpt lat="40.250533" lon="-4.894750">
        <ele>1174.0</ele>
        <time>2018-09-15T12:12:25Z</time>
      </trkpt>
      <trkpt lat="40.250517" lon="-4.894900">
        <ele>1174.0</ele>
        <time>2018-09-15T12:12:26Z</time>
      </trkpt>
      <trkpt lat="40.250467" lon="-4.895033">
        <ele>1175.0</ele>
        <time>2018-09-15T12:12:27Z</time>
      </trkpt>
      <trkpt lat="40.250400" lon="-4.895150">
        <ele>1177.0</ele>
        <time>2018-09-15T12:12:28Z</time>
      </trkpt>
      <trkpt lat="40.250333" lon="-4.895233">
        <ele>1179.0</ele>
        <time>2018-09-15T12:12:29Z</time>
      </trkpt>
      <trkpt lat="40.250283" lon="-4.895300">
        <ele>1183.0</ele>
        <time>2018-09-15T12:12:30Z</time>
      </trkpt>
      <trkpt lat="40.250233" lon="-4.895367">
        <ele>1185.0</ele>
        <time>2018-09-15T12:12:31Z</time>
      </trkpt>
      <trkpt lat="40.250183" lon="-4.895433">
        <ele>1186.0</ele>
        <time>2018-09-15T12:12:32Z</time>
      </trkpt>
      <trkpt lat="40.250133" lon="-4.895517">
        <ele>1186.0</ele>
        <time>2018-09-15T12:12:33Z</time>
      </trkpt>
      <trkpt lat="40.250083" lon="-4.895617">
        <ele>1187.0</ele>
        <time>2018-09-15T12:12:34Z</time>
      </trkpt>
      <trkpt lat="40.250017" lon="-4.895700">
        <ele>1188.0</ele>
        <time>2018-09-15T12:12:35Z</time>
      </trkpt>
      <trkpt lat="40.249917" lon="-4.895750">
        <ele>1189.0</ele>
        <time>2018-09-15T12:12:36Z</time>
      </trkpt>
      <trkpt lat="40.249833" lon="-4.895750">
        <ele>1189.0</ele>
        <time>2018-09-15T12:12:37Z</time>
      </trkpt>
      <trkpt lat="40.249783" lon="-4.895700">
        <ele>1189.0</ele>
        <time>2018-09-15T12:12:38Z</time>
      </trkpt>
      <trkpt lat="40.249750" lon="-4.895633">
        <ele>1189.0</ele>
        <time>2018-09-15T12:12:39Z</time>
      </trkpt>
      <trkpt lat="40.249750" lon="-4.895533">
        <ele>1189.0</ele>
        <time>2018-09-15T12:12:40Z</time>
      </trkpt>
      <trkpt lat="40.249783" lon="-4.895450">
        <ele>1189.0</ele>
        <time>2018-09-15T12:12:41Z</time>
      </trkpt>
      <trkpt lat="40.249817" lon="-4.895367">
        <ele>1191.0</ele>
        <time>2018-09-15T12:12:42Z</time>
      </trkpt>
      <trkpt lat="40.249867" lon="-4.895300">
        <ele>1193.0</ele>
        <time>2018-09-15T12:12:43Z</time>
      </trkpt>
      <trkpt lat="40.249950" lon="-4.895267">
        <ele>1195.0</ele>
        <time>2018-09-15T12:12:44Z</time>
      </trkpt>
      <trkpt lat="40.250033" lon="-4.895250">
        <ele>1198.0</ele>
        <time>2018-09-15T12:12:45Z</time>
      </trkpt>
      <trkpt lat="40.250133" lon="-4.895267">
        <ele>1200.0</ele>
        <time>2018-09-15T12:12:46Z</time>
      </trkpt>
      <trkpt lat="40.250217" lon="-4.895300">
        <ele>1203.0</ele>
        <time>2018-09-15T12:12:47Z</time>
      </trkpt>
      <trkpt lat="40.250283" lon="-4.895350">
        <ele>1204.0</ele>
        <time>2018-09-15T12:12:48Z</time>
      </trkpt>
      <trkpt lat="40.250350" lon="-4.895433">
        <ele>1204.0</ele>
        <time>2018-09-15T12:12:49Z</time>
      </trkpt>
      <trkpt lat="40.250433" lon="-4.895517">
        <ele>1204.0</ele>
        <time>2018-09-15T12:12:50Z</time>
      </trkpt>
      <trkpt lat="40.250517" lon="-4.895617">
        <ele>1205.0</ele>
        <time>2018-09-15T12:12:51Z</time>
      </trkpt>
      <trkpt lat="40.250583" lon="-4.895733">
        <ele>1206.0</ele>
        <time>2018-09-15T12:12:52Z</time>
      </trkpt>
      <trkpt lat="40.250617" lon="-4.895867">
        <ele>1208.0</ele>
        <time>2018-09-15T12:12:53Z</time>
      </trkpt>
      <trkpt lat="40.250617" lon="-4.896000">
        <ele>1209.0</ele>
        <time>2018-09-15T12:12:54Z</time>
      </trkpt>
      <trkpt lat="40.250567" lon="-4.896117">
        <ele>1210.0</ele>
        <time>2018-09-15T12:12:55Z</time>
      </trkpt>
      <trkpt lat="40.250500" lon="-4.896183">
        <ele>1212.0</ele>
        <time>2018-09-15T12:12:56Z</time>
      </trkpt>
      <trkpt lat="40.250433" lon="-4.896233">
        <ele>1214.0</ele>
        <time>2018-09-15T12:12:57Z</time>
      </trkpt>
      <trkpt lat="40.250367" lon="-4.896233">
        <ele>1215.0</ele>
        <time>2018-09-15T12:12:58Z</time>
      </trkpt>
      <trkpt lat="40.250300" lon="-4.896200">
        <ele>1217.0</ele>
        <time>2018-09-15T12:12:59Z</time>
      </trkpt>
      <trkpt lat="40.250250" lon="-4.896150">
        <ele>1218.0</ele>
        <time>2018-09-15T12:13:00Z</time>
      </trkpt>
      <trkpt lat="40.250217" lon="-4.896083">
        <ele>1218.0</ele>
        <time>2018-09-15T12:13:01Z</time>
      </trkpt>
      <trkpt lat="40.250217" lon="-4.895983">
        <ele>1219.0</ele>
        <time>2018-09-15T12:13:02Z</time>
      </trkpt>
      <trkpt lat="40.250233" lon="-4.895883">
        <ele>1220.0</ele>
        <time>2018-09-15T12:13:03Z</time>
      </trkpt>
      <trkpt lat="40.250283" lon="-4.895800">
        <ele>1223.0</ele>
        <time>2018-09-15T12:13:04Z</time>
      </trkpt>
      <trkpt lat="40.250350" lon="-4.895733">
        <ele>1227.0</ele>
        <time>2018-09-15T12:13:05Z</time>
      </trkpt>
      <trkpt lat="40.250417" lon="-4.895717">
        <ele>1230.0</ele>
        <time>2018-09-15T12:13:06Z</time>
      </trkpt>
      <trkpt lat="40.250467" lon="-4.895717">
        <ele>1232.0</ele>
        <time>2018-09-15T12:13:07Z</time>
      </trkpt>
      <trkpt lat="40.250533" lon="-4.895717">
        <ele>1233.0</ele>
        <time>2018-09-15T12:13:08Z</time>
      </trkpt>
      <trkpt lat="40.250633" lon="-4.895733">
        <ele>1232.0</ele>
        <time>2018-09-15T12:13:09Z</time>
      </trkpt>
      <trkpt lat="40.250717" lon="-4.895750">
        <ele>1232.0</ele>
        <time>2018-09-15T12:13:10Z</time>
      </trkpt>
      <trkpt lat="40.250800" lon="-4.895800">
        <ele>1232.0</ele>
        <time>2018-09-15T12:13:11Z</time>
      </trkpt>
      <trkpt lat="40.250867" lon="-4.895900">
        <ele>1232.0</ele>
        <time>2018-09-15T12:13:12Z</time>
      </trkpt>
      <trkpt lat="40.250917" lon="-4.896050">
        <ele>1231.0</ele>
        <time>2018-09-15T12:13:13Z</time>
      </trkpt>
      <trkpt lat="40.250917" lon="-4.896183">
        <ele>1231.0</ele>
        <time>2018-09-15T12:13:14Z</time>
      </trkpt>
      <trkpt lat="40.250867" lon="-4.896317">
        <ele>1231.0</ele>
        <time>2018-09-15T12:13:15Z</time>
      </trkpt>
      <trkpt lat="40.250783" lon="-4.896400">
        <ele>1232.0</ele>
        <time>2018-09-15T12:13:16Z</time>
      </trkpt>
      <trkpt lat="40.250683" lon="-4.896417">
        <ele>1233.0</ele>
        <time>2018-09-15T12:13:17Z</time>
      </trkpt>
      <trkpt lat="40.250600" lon="-4.896417">
        <ele>1235.0</ele>
        <time>2018-09-15T12:13:18Z</time>
      </trkpt>
      <trkpt lat="40.250550" lon="-4.896367">
        <ele>1238.0</ele>
        <time>2018-09-15T12:13:19Z</time>
      </trkpt>
      <trkpt lat="40.250500" lon="-4.896317">
        <ele>1241.0</ele>
        <time>2018-09-15T12:13:20Z</time>
      </trkpt>
      <trkpt lat="40.250467" lon="-4.896267">
        <ele>1243.0</ele>
        <time>2018-09-15T12:13:21Z</time>
      </trkpt>
      <trkpt lat="40.250417" lon="-4.896233">
        <ele>1245.0</ele>
        <time>2018-09-15T12:13:22Z</time>
      </trkpt>
      <trkpt lat="40.250367" lon="-4.896183">
        <ele>1246.0</ele>
        <time>2018-09-15T12:13:23Z</time>
      </trkpt>
      <trkpt lat="40.250317" lon="-4.896133">
        <ele>1248.0</ele>
        <time>2018-09-15T12:13:24Z</time>
      </trkpt>
      <trkpt lat="40.250267" lon="-4.896083">
        <ele>1251.0</ele>
        <time>2018-09-15T12:13:25Z</time>
      </trkpt>
      <trkpt lat="40.250233" lon="-4.896033">
        <ele>1253.0</ele>
        <time>2018-09-15T12:13:26Z</time>
      </trkpt>
      <trkpt lat="40.250200" lon="-4.895983">
        <ele>1254.0</ele>
        <time>2018-09-15T12:13:27Z</time>
      </trkpt>
      <trkpt lat="40.250183" lon="-4.895917">
        <ele>1255.0</ele>
        <time>2018-09-15T12:13:28Z</time>
      </trkpt>
      <trkpt lat="40.250183" lon="-4.895850">
        <ele>1254.0</ele>
        <time>2018-09-15T12:13:29Z</time>
      </trkpt>
      <trkpt lat="40.250200" lon="-4.895767">
        <ele>1254.0</ele>
        <time>2018-09-15T12:13:30Z</time>
      </trkpt>
      <trkpt lat="40.250250" lon="-4.895700">
        <ele>1254.0</ele>
        <time>2018-09-15T12:13:31Z</time>
      </trkpt>
      <trkpt lat="40.250317" lon="-4.895667">
        <ele>1254.0</ele>
        <time>2018-09-15T12:13:32Z</time>
      </trkpt>
      <trkpt lat="40.250400" lon="-4.895650">
        <ele>1253.0</ele>
        <time>2018-09-15T12:13:33Z</time>
      </trkpt>
      <trkpt lat="40.250500" lon="-4.895650">
        <ele>1254.0</ele>
        <time>2018-09-15T12:13:34Z</time>
      </trkpt>
      <trkpt lat="40.250600" lon="-4.895683">
        <ele>1255.0</ele>
        <time>2018-09-15T12:13:35Z</time>
      </trkpt>
      <trkpt lat="40.250683" lon="-4.895733">
        <ele>1256.0</ele>
        <time>2018-09-15T12:13:36Z</time>
      </trkpt>
      <trkpt lat="40.250750" lon="-4.895817">
        <ele>1257.0</ele>
        <time>2018-09-15T12:13:37Z</time>
      </trkpt>
      <trkpt lat="40.250800" lon="-4.895900">
        <ele>1257.0</ele>
        <time>2018-09-15T12:13:38Z</time>
      </trkpt>
      <trkpt lat="40.250850" lon="-4.896017">
        <ele>1258.0</ele>
        <time>2018-09-15T12:13:39Z</time>
      </trkpt>
      <trkpt lat="40.250883" lon="-4.896150">
        <ele>1258.0</ele>
        <time>2018-09-15T12:13:40Z</time>
      </trkpt>
      <trkpt lat="40.250917" lon="-4.896283">
        <ele>1259.0</ele>
        <time>2018-09-15T12:13:41Z</time>
      </trkpt>
      <trkpt lat="40.250933" lon="-4.896417">
        <ele>1260.0</ele>
        <time>2018-09-15T12:13:42Z</time>
      </trkpt>
      <trkpt lat="40.250933" lon="-4.896567">
        <ele>1261.0</ele>
        <time>2018-09-15T12:13:43Z</time>
      </trkpt>
      <trkpt lat="40.250917" lon="-4.896700">
        <ele>1262.0</ele>
        <time>2018-09-15T12:13:44Z</time>
      </trkpt>
      <trkpt lat="40.250900" lon="-4.896833">
        <ele>1265.0</ele>
        <time>2018-09-15T12:13:45Z</time>
      </trkpt>
      <trkpt lat="40.250900" lon="-4.896967">
        <ele>1267.0</ele>
        <time>2018-09-15T12:13:46Z</time>
      </trkpt>
      <trkpt lat="40.250900" lon="-4.897083">
        <ele>1268.0</ele>
        <time>2018-09-15T12:13:47Z</time>
      </trkpt>
      <trkpt lat="40.250917" lon="-4.897233">
        <ele>1269.0</ele>
        <time>2018-09-15T12:13:48Z</time>
      </trkpt>
      <trkpt lat="40.250917" lon="-4.897367">
        <ele>1270.0</ele>
        <time>2018-09-15T12:13:49Z</time>
      </trkpt>
      <trkpt lat="40.250900" lon="-4.897517">
        <ele>1270.0</ele>
        <time>2018-09-15T12:13:50Z</time>
      </trkpt>
      <trkpt lat="40.250833" lon="-4.897650">
        <ele>1270.0</ele>
        <time>2018-09-15T12:13:51Z</time>
      </trkpt>
      <trkpt lat="40.250767" lon="-4.897733">
        <ele>1270.0</ele>
        <time>2018-09-15T12:13:52Z</time>
      </trkpt>
      <trkpt lat="40.250667" lon="-4.897783">
        <ele>1271.0</ele>
        <time>2018-09-15T12:13:53Z</time>
      </trkpt>
      <trkpt lat="40.250583" lon="-4.897800">
        <ele>1273.0</ele>
        <time>2018-09-15T12:13:54Z</time>
      </trkpt>
      <trkpt lat="40.250517" lon="-4.897783">
        <ele>1275.0</ele>
        <time>2018-09-15T12:13:55Z</time>
      </trkpt>
      <trkpt lat="40.250450" lon="-4.897767">
        <ele>1277.0</ele>
        <time>2018-09-15T12:13:56Z</time>
      </trkpt>
      <trkpt lat="40.250400" lon="-4.897717">
        <ele>1278.0</ele>
        <time>2018-09-15T12:13:57Z</time>
      </trkpt>
      <trkpt lat="40.250367" lon="-4.897650">
        <ele>1279.0</ele>
        <time>2018-09-15T12:13:58Z</time>
      </trkpt>
      <trkpt lat="40.250333" lon="-4.897583">
        <ele>1280.0</ele>
        <time>2018-09-15T12:13:59Z</time>
      </trkpt>
      <trkpt lat="40.250317" lon="-4.897500">
        <ele>1282.0</ele>
        <time>2018-09-15T12:14:00Z</time>
      </trkpt>
      <trkpt lat="40.250333" lon="-4.897417">
        <ele>1284.0</ele>
        <time>2018-09-15T12:14:01Z</time>
      </trkpt>
      <trkpt lat="40.250367" lon="-4.897333">
        <ele>1286.0</ele>
        <time>2018-09-15T12:14:02Z</time>
      </trkpt>
      <trkpt lat="40.250433" lon="-4.897283">
        <ele>1288.0</ele>
        <time>2018-09-15T12:14:03Z</time>
      </trkpt>
      <trkpt lat="40.250517" lon="-4.897283">
        <ele>1290.0</ele>
        <time>2018-09-15T12:14:04Z</time>
      </trkpt>
      <trkpt lat="40.250617" lon="-4.897300">
        <ele>1293.0</ele>
        <time>2018-09-15T12:14:05Z</time>
      </trkpt>
      <trkpt lat="40.250700" lon="-4.897367">
        <ele>1296.0</ele>
        <time>2018-09-15T12:14:06Z</time>
      </trkpt>
      <trkpt lat="40.250767" lon="-4.897467">
        <ele>1299.0</ele>
        <time>2018-09-15T12:14:07Z</time>
      </trkpt>
      <trkpt lat="40.250817" lon="-4.897583">
        <ele>1301.0</ele>
        <time>2018-09-15T12:14:08Z</time>
      </trkpt>
      <trkpt lat="40.250867" lon="-4.897717">
        <ele>1302.0</ele>
        <time>2018-09-15T12:14:09Z</time>
      </trkpt>
      <trkpt lat="40.250883" lon="-4.897850">
        <ele>1303.0</ele>
        <time>2018-09-15T12:14:10Z</time>
      </trkpt>
      <trkpt lat="40.250883" lon="-4.898000">
        <ele>1305.0</ele>
        <time>2018-09-15T12:14:11Z</time>
      </trkpt>
      <trkpt lat="40.250850" lon="-4.898117">
        <ele>1306.0</ele>
        <time>2018-09-15T12:14:12Z</time>
      </trkpt>
      <trkpt lat="40.250783" lon="-4.898233">
        <ele>1307.0</ele>
        <time>2018-09-15T12:14:13Z</time>
      </trkpt>
      <trkpt lat="40.250717" lon="-4.898300">
        <ele>1309.0</ele>
        <time>2018-09-15T12:14:14Z</time>
      </trkpt>
      <trkpt lat="40.250633" lon="-4.898350">
        <ele>1310.0</ele>
        <time>2018-09-15T12:14:15Z</time>
      </trkpt>
      <trkpt lat="40.250567" lon="-4.898367">
        <ele>1311.0</ele>
        <time>2018-09-15T12:14:16Z</time>
      </trkpt>
      <trkpt lat="40.250483" lon="-4.898367">
        <ele>1312.0</ele>
        <time>2018-09-15T12:14:17Z</time>
      </trkpt>
      <trkpt lat="40.250400" lon="-4.898333">
        <ele>1313.0</ele>
        <time>2018-09-15T12:14:18Z</time>
      </trkpt>
      <trkpt lat="40.250333" lon="-4.898300">
        <ele>1316.0</ele>
        <time>2018-09-15T12:14:19Z</time>
      </trkpt>
      <trkpt lat="40.250283" lon="-4.898250">
        <ele>1318.0</ele>
        <time>2018-09-15T12:14:20Z</time>
      </trkpt>
      <trkpt lat="40.250250" lon="-4.898217">
        <ele>1321.0</ele>
        <time>2018-09-15T12:14:21Z</time>
      </trkpt>
      <trkpt lat="40.250250" lon="-4.898167">
        <ele>1321.0</ele>
        <time>2018-09-15T12:14:22Z</time>
      </trkpt>
      <trkpt lat="40.250267" lon="-4.898117">
        <ele>1320.0</ele>
        <time>2018-09-15T12:14:23Z</time>
      </trkpt>
      <trkpt lat="40.250300" lon="-4.898067">
        <ele>1320.0</ele>
        <time>2018-09-15T12:14:24Z</time>
      </trkpt>
      <trkpt lat="40.250383" lon="-4.898033">
        <ele>1319.0</ele>
        <time>2018-09-15T12:14:25Z</time>
      </trkpt>
      <trkpt lat="40.250467" lon="-4.898033">
        <ele>1319.0</ele>
        <time>2018-09-15T12:14:26Z</time>
      </trkpt>
      <trkpt lat="40.250583" lon="-4.898083">
        <ele>1321.0</ele>
        <time>2018-09-15T12:14:27Z</time>
      </trkpt>
      <trkpt lat="40.250683" lon="-4.898167">
        <ele>1323.0</ele>
        <time>2018-09-15T12:14:28Z</time>
      </trkpt>
      <trkpt lat="40.250767" lon="-4.898283">
        <ele>1326.0</ele>
        <time>2018-09-15T12:14:29Z</time>
      </trkpt>
      <trkpt lat="40.250850" lon="-4.898400">
        <ele>1330.0</ele>
        <time>2018-09-15T12:14:30Z</time>
      </trkpt>
      <trkpt lat="40.250917" lon="-4.898517">
        <ele>1333.0</ele>
        <time>2018-09-15T12:14:31Z</time>
      </trkpt>
      <trkpt lat="40.251000" lon="-4.898617">
        <ele>1336.0</ele>
        <time>2018-09-15T12:14:32Z</time>
      </trkpt>
      <trkpt lat="40.251083" lon="-4.898733">
        <ele>1337.0</ele>
        <time>2018-09-15T12:14:33Z</time>
      </trkpt>
      <trkpt lat="40.251150" lon="-4.898833">
        <ele>1338.0</ele>
        <time>2018-09-15T12:14:34Z</time>
      </trkpt>
      <trkpt lat="40.251200" lon="-4.898967">
        <ele>1340.0</ele>
        <time>2018-09-15T12:14:35Z</time>
      </trkpt>
      <trkpt lat="40.251233" lon="-4.899117">
        <ele>1341.0</ele>
        <time>2018-09-15T12:14:36Z</time>
      </trkpt>
      <trkpt lat="40.251233" lon="-4.899267">
        <ele>1342.0</ele>
        <time>2018-09-15T12:14:37Z</time>
      </trkpt>
      <trkpt lat="40.251200" lon="-4.899400">
        <ele>1344.0</ele>
        <time>2018-09-15T12:14:38Z</time>
      </trkpt>
      <trkpt lat="40.251150" lon="-4.899517">
        <ele>1346.0</ele>
        <time>2018-09-15T12:14:39Z</time>
      </trkpt>
      <trkpt lat="40.251067" lon="-4.899600">
        <ele>1348.0</ele>
        <time>2018-09-15T12:14:40Z</time>
      </trkpt>
      <trkpt lat="40.251000" lon="-4.899633">
        <ele>1351.0</ele>
        <time>2018-09-15T12:14:41Z</time>
      </trkpt>
      <trkpt lat="40.250917" lon="-4.899633">
        <ele>1352.0</ele>
        <time>2018-09-15T12:14:42Z</time>
      </trkpt>
      <trkpt lat="40.250833" lon="-4.899600">
        <ele>1353.0</ele>
        <time>2018-09-15T12:14:43Z</time>
      </trkpt>
      <trkpt lat="40.250767" lon="-4.899567">
        <ele>1354.0</ele>
        <time>2018-09-15T12:14:44Z</time>
      </trkpt>
      <trkpt lat="40.250717" lon="-4.899483">
        <ele>1355.0</ele>
        <time>2018-09-15T12:14:45Z</time>
      </trkpt>
      <trkpt lat="40.250700" lon="-4.899400">
        <ele>1356.0</ele>
        <time>2018-09-15T12:14:46Z</time>
      </trkpt>
      <trkpt lat="40.250717" lon="-4.899317">
        <ele>1357.0</ele>
        <time>2018-09-15T12:14:47Z</time>
      </trkpt>
      <trkpt lat="40.250750" lon="-4.899233">
        <ele>1361.0</ele>
        <time>2018-09-15T12:14:48Z</time>
      </trkpt>
      <trkpt lat="40.250800" lon="-4.899200">
        <ele>1365.0</ele>
        <time>2018-09-15T12:14:49Z</time>
      </trkpt>
      <trkpt lat="40.250850" lon="-4.899167">
        <ele>1369.0</ele>
        <time>2018-09-15T12:14:50Z</time>
      </trkpt>
      <trkpt lat="40.250917" lon="-4.899167">
        <ele>1372.0</ele>
        <time>2018-09-15T12:14:51Z</time>
      </trkpt>
      <trkpt lat="40.251017" lon="-4.899167">
        <ele>1375.0</ele>
        <time>2018-09-15T12:14:52Z</time>
      </trkpt>
      <trkpt lat="40.251100" lon="-4.899167">
        <ele>1378.0</ele>
        <time>2018-09-15T12:14:53Z</time>
      </trkpt>
      <trkpt lat="40.251183" lon="-4.899167">
        <ele>1382.0</ele>
        <time>2018-09-15T12:14:54Z</time>
      </trkpt>
      <trkpt lat="40.251267" lon="-4.899200">
        <ele>1385.0</ele>
        <time>2018-09-15T12:14:55Z</time>
      </trkpt>
      <trkpt lat="40.251350" lon="-4.899250">
        <ele>1387.0</ele>
        <time>2018-09-15T12:14:56Z</time>
      </trkpt>
      <trkpt lat="40.251450" lon="-4.899333">
        <ele>1388.0</ele>
        <time>2018-09-15T12:14:57Z</time>
      </trkpt>
      <trkpt lat="40.251533" lon="-4.899450">
        <ele>1390.0</ele>
        <time>2018-09-15T12:14:58Z</time>
      </trkpt>
      <trkpt lat="40.251600" lon="-4.899600">
        <ele>1392.0</ele>
        <time>2018-09-15T12:14:59Z</time>
      </trkpt>
      <trkpt lat="40.251617" lon="-4.899750">
        <ele>1394.0</ele>
        <time>2018-09-15T12:15:00Z</time>
      </trkpt>
      <trkpt lat="40.251617" lon="-4.899900">
        <ele>1395.0</ele>
        <time>2018-09-15T12:15:01Z</time>
      </trkpt>
      <trkpt lat="40.251567" lon="-4.900050">
        <ele>1396.0</ele>
        <time>2018-09-15T12:15:02Z</time>
      </trkpt>
      <trkpt lat="40.251500" lon="-4.900167">
        <ele>1397.0</ele>
        <time>2018-09-15T12:15:03Z</time>
      </trkpt>
      <trkpt lat="40.251400" lon="-4.900233">
        <ele>1399.0</ele>
        <time>2018-09-15T12:15:04Z</time>
      </trkpt>
      <trkpt lat="40.251300" lon="-4.900267">
        <ele>1402.0</ele>
        <time>2018-09-15T12:15:05Z</time>
      </trkpt>
      <trkpt lat="40.251217" lon="-4.900250">
        <ele>1405.0</ele>
        <time>2018-09-15T12:15:06Z</time>
      </trkpt>
      <trkpt lat="40.251150" lon="-4.900200">
        <ele>1408.0</ele>
        <time>2018-09-15T12:15:07Z</time>
      </trkpt>
      <trkpt lat="40.251100" lon="-4.900117">
        <ele>1411.0</ele>
        <time>2018-09-15T12:15:08Z</time>
      </trkpt>
      <trkpt lat="40.251083" lon="-4.900033">
        <ele>1413.0</ele>
        <time>2018-09-15T12:15:09Z</time>
      </trkpt>
      <trkpt lat="40.251067" lon="-4.899950">
        <ele>1416.0</ele>
        <time>2018-09-15T12:15:10Z</time>
      </trkpt>
      <trkpt lat="40.251100" lon="-4.899867">
        <ele>1420.0</ele>
        <time>2018-09-15T12:15:11Z</time>
      </trkpt>
      <trkpt lat="40.251133" lon="-4.899800">
        <ele>1423.0</ele>
        <time>2018-09-15T12:15:12Z</time>
      </trkpt>
      <trkpt lat="40.251217" lon="-4.899750">
        <ele>1427.0</ele>
        <time>2018-09-15T12:15:13Z</time>
      </trkpt>
      <trkpt lat="40.251283" lon="-4.899700">
        <ele>1432.0</ele>
        <time>2018-09-15T12:15:14Z</time>
      </trkpt>
      <trkpt lat="40.251350" lon="-4.899633">
        <ele>1435.0</ele>
        <time>2018-09-15T12:15:15Z</time>
      </trkpt>
      <trkpt lat="40.251400" lon="-4.899583">
        <ele>1438.0</ele>
        <time>2018-09-15T12:15:16Z</time>
      </trkpt>
      <trkpt lat="40.251450" lon="-4.899533">
        <ele>1440.0</ele>
        <time>2018-09-15T12:15:17Z</time>
      </trkpt>
      <trkpt lat="40.251517" lon="-4.899483">
        <ele>1442.0</ele>
        <time>2018-09-15T12:15:18Z</time>
      </trkpt>
      <trkpt lat="40.251600" lon="-4.899450">
        <ele>1444.0</ele>
        <time>2018-09-15T12:15:19Z</time>
      </trkpt>
      <trkpt lat="40.251700" lon="-4.899433">
        <ele>1446.0</ele>
        <time>2018-09-15T12:15:20Z</time>
      </trkpt>
      <trkpt lat="40.251800" lon="-4.899450">
        <ele>1448.0</ele>
        <time>2018-09-15T12:15:21Z</time>
      </trkpt>
      <trkpt lat="40.251900" lon="-4.899500">
        <ele>1450.0</ele>
        <time>2018-09-15T12:15:22Z</time>
      </trkpt>
      <trkpt lat="40.251983" lon="-4.899583">
        <ele>1453.0</ele>
        <time>2018-09-15T12:15:23Z</time>
      </trkpt>
      <trkpt lat="40.252033" lon="-4.899683">
        <ele>1455.0</ele>
        <time>2018-09-15T12:15:24Z</time>
      </trkpt>
      <trkpt lat="40.252067" lon="-4.899817">
        <ele>1456.0</ele>
        <time>2018-09-15T12:15:25Z</time>
      </trkpt>
      <trkpt lat="40.252083" lon="-4.899967">
        <ele>1456.0</ele>
        <time>2018-09-15T12:15:26Z</time>
      </trkpt>
      <trkpt lat="40.252050" lon="-4.900117">
        <ele>1457.0</ele>
        <time>2018-09-15T12:15:27Z</time>
      </trkpt>
      <trkpt lat="40.251983" lon="-4.900250">
        <ele>1458.0</ele>
        <time>2018-09-15T12:15:28Z</time>
      </trkpt>
      <trkpt lat="40.251917" lon="-4.900350">
        <ele>1461.0</ele>
        <time>2018-09-15T12:15:29Z</time>
      </trkpt>
      <trkpt lat="40.251833" lon="-4.900417">
        <ele>1465.0</ele>
        <time>2018-09-15T12:15:30Z</time>
      </trkpt>
      <trkpt lat="40.251750" lon="-4.900467">
        <ele>1470.0</ele>
        <time>2018-09-15T12:15:31Z</time>
      </trkpt>
      <trkpt lat="40.251667" lon="-4.900483">
        <ele>1473.0</ele>
        <time>2018-09-15T12:15:32Z</time>
      </trkpt>
      <trkpt lat="40.251583" lon="-4.900500">
        <ele>1477.0</ele>
        <time>2018-09-15T12:15:33Z</time>
      </trkpt>
      <trkpt lat="40.251500" lon="-4.900500">
        <ele>1480.0</ele>
        <time>2018-09-15T12:15:34Z</time>
      </trkpt>
      <trkpt lat="40.251433" lon="-4.900483">
        <ele>1484.0</ele>
        <time>2018-09-15T12:15:35Z</time>
      </trkpt>
      <trkpt lat="40.251350" lon="-4.900433">
        <ele>1488.0</ele>
        <time>2018-09-15T12:15:36Z</time>
      </trkpt>
      <trkpt lat="40.251300" lon="-4.900383">
        <ele>1491.0</ele>
        <time>2018-09-15T12:15:37Z</time>
      </trkpt>
      <trkpt lat="40.251267" lon="-4.900317">
        <ele>1493.0</ele>
        <time>2018-09-15T12:15:38Z</time>
      </trkpt>
      <trkpt lat="40.251250" lon="-4.900250">
        <ele>1495.0</ele>
        <time>2018-09-15T12:15:39Z</time>
      </trkpt>
      <trkpt lat="40.251267" lon="-4.900167">
        <ele>1498.0</ele>
        <time>2018-09-15T12:15:40Z</time>
      </trkpt>
      <trkpt lat="40.251300" lon="-4.900100">
        <ele>1501.0</ele>
        <time>2018-09-15T12:15:41Z</time>
      </trkpt>
      <trkpt lat="40.251350" lon="-4.900050">
        <ele>1503.0</ele>
        <time>2018-09-15T12:15:42Z</time>
      </trkpt>
      <trkpt lat="40.251417" lon="-4.900017">
        <ele>1504.0</ele>
        <time>2018-09-15T12:15:43Z</time>
      </trkpt>
      <trkpt lat="40.251500" lon="-4.900017">
        <ele>1505.0</ele>
        <time>2018-09-15T12:15:44Z</time>
      </trkpt>
      <trkpt lat="40.251583" lon="-4.900017">
        <ele>1505.0</ele>
        <time>2018-09-15T12:15:45Z</time>
      </trkpt>
      <trkpt lat="40.251683" lon="-4.900050">
        <ele>1506.0</ele>
        <time>2018-09-15T12:15:46Z</time>
      </trkpt>
      <trkpt lat="40.251783" lon="-4.900100">
        <ele>1508.0</ele>
        <time>2018-09-15T12:15:47Z</time>
      </trkpt>
      <trkpt lat="40.251867" lon="-4.900183">
        <ele>1511.0</ele>
        <time>2018-09-15T12:15:48Z</time>
      </trkpt>
      <trkpt lat="40.251917" lon="-4.900317">
        <ele>1513.0</ele>
        <time>2018-09-15T12:15:49Z</time>
      </trkpt>
      <trkpt lat="40.251917" lon="-4.900467">
        <ele>1516.0</ele>
        <time>2018-09-15T12:15:50Z</time>
      </trkpt>
      <trkpt lat="40.251900" lon="-4.900600">
        <ele>1518.0</ele>
        <time>2018-09-15T12:15:51Z</time>
      </trkpt>
      <trkpt lat="40.251850" lon="-4.900733">
        <ele>1521.0</ele>
        <time>2018-09-15T12:15:52Z</time>
      </trkpt>
      <trkpt lat="40.251800" lon="-4.900850">
        <ele>1524.0</ele>
        <time>2018-09-15T12:15:53Z</time>
      </trkpt>
      <trkpt lat="40.251733" lon="-4.900950">
        <ele>1528.0</ele>
        <time>2018-09-15T12:15:54Z</time>
      </trkpt>
      <trkpt lat="40.251667" lon="-4.901050">
        <ele>1532.0</ele>
        <time>2018-09-15T12:15:55Z</time>
      </trkpt>
      <trkpt lat="40.251600" lon="-4.901133">
        <ele>1534.0</ele>
        <time>2018-09-15T12:15:56Z</time>
      </trkpt>
      <trkpt lat="40.251517" lon="-4.901183">
        <ele>1537.0</ele>
        <time>2018-09-15T12:15:57Z</time>
      </trkpt>
      <trkpt lat="40.251433" lon="-4.901217">
        <ele>1540.0</ele>
        <time>2018-09-15T12:15:58Z</time>
      </trkpt>
      <trkpt lat="40.251350" lon="-4.901217">
        <ele>1543.0</ele>
        <time>2018-09-15T12:15:59Z</time>
      </trkpt>
      <trkpt lat="40.251300" lon="-4.901200">
        <ele>1547.0</ele>
        <time>2018-09-15T12:16:00Z</time>
      </trkpt>
      <trkpt lat="40.251250" lon="-4.901150">
        <ele>1550.0</ele>
        <time>2018-09-15T12:16:01Z</time>
      </trkpt>
      <trkpt lat="40.251217" lon="-4.901083">
        <ele>1552.0</ele>
        <time>2018-09-15T12:16:02Z</time>
      </trkpt>
      <trkpt lat="40.251200" lon="-4.901000">
        <ele>1554.0</ele>
        <time>2018-09-15T12:16:03Z</time>
      </trkpt>
      <trkpt lat="40.251200" lon="-4.900917">
        <ele>1557.0</ele>
        <time>2018-09-15T12:16:04Z</time>
      </trkpt>
      <trkpt lat="40.251217" lon="-4.900833">
        <ele>1559.0</ele>
        <time>2018-09-15T12:16:05Z</time>
      </trkpt>
      <trkpt lat="40.251250" lon="-4.900783">
        <ele>1561.0</ele>
        <time>2018-09-15T12:16:06Z</time>
      </trkpt>
      <trkpt lat="40.251317" lon="-4.900733">
        <ele>1562.0</ele>
        <time>2018-09-15T12:16:07Z</time>
      </trkpt>
      <trkpt lat="40.251383" lon="-4.900717">
        <ele>1563.0</ele>
        <time>2018-09-15T12:16:08Z</time>
      </trkpt>
      <trkpt lat="40.251467" lon="-4.900733">
        <ele>1564.0</ele>
        <time>2018-09-15T12:16:09Z</time>
      </trkpt>
      <trkpt lat="40.251550" lon="-4.900750">
        <ele>1565.0</ele>
        <time>2018-09-15T12:16:10Z</time>
      </trkpt>
      <trkpt lat="40.251650" lon="-4.900817">
        <ele>1566.0</ele>
        <time>2018-09-15T12:16:11Z</time>
      </trkpt>
      <trkpt lat="40.251733" lon="-4.900883">
        <ele>1568.0</ele>
        <time>2018-09-15T12:16:12Z</time>
      </trkpt>
      <trkpt lat="40.251783" lon="-4.901000">
        <ele>1570.0</ele>
        <time>2018-09-15T12:16:13Z</time>
      </trkpt>
      <trkpt lat="40.251833" lon="-4.901117">
        <ele>1572.0</ele>
        <time>2018-09-15T12:16:14Z</time>
      </trkpt>
      <trkpt lat="40.251867" lon="-4.901250">
        <ele>1574.0</ele>
        <time>2018-09-15T12:16:15Z</time>
      </trkpt>
      <trkpt lat="40.251867" lon="-4.901383">
        <ele>1576.0</ele>
        <time>2018-09-15T12:16:16Z</time>
      </trkpt>
      <trkpt lat="40.251850" lon="-4.901517">
        <ele>1578.0</ele>
        <time>2018-09-15T12:16:17Z</time>
      </trkpt>
      <trkpt lat="40.251800" lon="-4.901633">
        <ele>1579.0</ele>
        <time>2018-09-15T12:16:18Z</time>
      </trkpt>
      <trkpt lat="40.251733" lon="-4.901733">
        <ele>1580.0</ele>
        <time>2018-09-15T12:16:19Z</time>
      </trkpt>
      <trkpt lat="40.251633" lon="-4.901783">
        <ele>1582.0</ele>
        <time>2018-09-15T12:16:20Z</time>
      </trkpt>
      <trkpt lat="40.251533" lon="-4.901800">
        <ele>1585.0</ele>
        <time>2018-09-15T12:16:21Z</time>
      </trkpt>
      <trkpt lat="40.251433" lon="-4.901783">
        <ele>1589.0</ele>
        <time>2018-09-15T12:16:22Z</time>
      </trkpt>
      <trkpt lat="40.251367" lon="-4.901750">
        <ele>1593.0</ele>
        <time>2018-09-15T12:16:23Z</time>
      </trkpt>
      <trkpt lat="40.251317" lon="-4.901683">
        <ele>1596.0</ele>
        <time>2018-09-15T12:16:24Z</time>
      </trkpt>
      <trkpt lat="40.251283" lon="-4.901617">
        <ele>1599.0</ele>
        <time>2018-09-15T12:16:25Z</time>
      </trkpt>
      <trkpt lat="40.251250" lon="-4.901550">
        <ele>1601.0</ele>
        <time>2018-09-15T12:16:26Z</time>
      </trkpt>
      <trkpt lat="40.251217" lon="-4.901467">
        <ele>1603.0</ele>
        <time>2018-09-15T12:16:27Z</time>
      </trkpt>
      <trkpt lat="40.251217" lon="-4.901383">
        <ele>1605.0</ele>
        <time>2018-09-15T12:16:28Z</time>
      </trkpt>
      <trkpt lat="40.251250" lon="-4.901300">
        <ele>1606.0</ele>
        <time>2018-09-15T12:16:29Z</time>
      </trkpt>
      <trkpt lat="40.251300" lon="-4.901233">
        <ele>1608.0</ele>
        <time>2018-09-15T12:16:30Z</time>
      </trkpt>
      <trkpt lat="40.251367" lon="-4.901183">
        <ele>1610.0</ele>
        <time>2018-09-15T12:16:31Z</time>
      </trkpt>
      <trkpt lat="40.251450" lon="-4.901167">
        <ele>1613.0</ele>
        <time>2018-09-15T12:16:32Z</time>
      </trkpt>
      <trkpt lat="40.251517" lon="-4.901183">
        <ele>1616.0</ele>
        <time>2018-09-15T12:16:33Z</time>
      </trkpt>
      <trkpt lat="40.251583" lon="-4.901233">
        <ele>1618.0</ele>
        <time>2018-09-15T12:16:34Z</time>
      </trkpt>
      <trkpt lat="40.251633" lon="-4.901300">
        <ele>1619.0</ele>
        <time>2018-09-15T12:16:35Z</time>
      </trkpt>
      <trkpt lat="40.251700" lon="-4.901367">
        <ele>1620.0</ele>
        <time>2018-09-15T12:16:36Z</time>
      </trkpt>
      <trkpt lat="40.251750" lon="-4.901467">
        <ele>1621.0</ele>
        <time>2018-09-15T12:16:37Z</time>
      </trkpt>
      <trkpt lat="40.251800" lon="-4.901583">
        <ele>1622.0</ele>
        <time>2018-09-15T12:16:38Z</time>
      </trkpt>
      <trkpt lat="40.251817" lon="-4.901717">
        <ele>1623.0</ele>
        <time>2018-09-15T12:16:39Z</time>
      </trkpt>
      <trkpt lat="40.251800" lon="-4.901850">
        <ele>1624.0</ele>
        <time>2018-09-15T12:16:40Z</time>
      </trkpt>
      <trkpt lat="40.251767" lon="-4.901983">
        <ele>1625.0</ele>
        <time>2018-09-15T12:16:41Z</time>
      </trkpt>
      <trkpt lat="40.251733" lon="-4.902117">
        <ele>1626.0</ele>
        <time>2018-09-15T12:16:42Z</time>
      </trkpt>
      <trkpt lat="40.251667" lon="-4.902200">
        <ele>1628.0</ele>
        <time>2018-09-15T12:16:43Z</time>
      </trkpt>
      <trkpt lat="40.251583" lon="-4.902267">
        <ele>1629.0</ele>
        <time>2018-09-15T12:16:44Z</time>
      </trkpt>
      <trkpt lat="40.251500" lon="-4.902300">
        <ele>1630.0</ele>
        <time>2018-09-15T12:16:45Z</time>
      </trkpt>
      <trkpt lat="40.251400" lon="-4.902317">
        <ele>1632.0</ele>
        <time>2018-09-15T12:16:46Z</time>
      </trkpt>
      <trkpt lat="40.251333" lon="-4.902300">
        <ele>1635.0</ele>
        <time>2018-09-15T12:16:47Z</time>
      </trkpt>
      <trkpt lat="40.251250" lon="-4.902267">
        <ele>1638.0</ele>
        <time>2018-09-15T12:16:48Z</time>
      </trkpt>
      <trkpt lat="40.251200" lon="-4.902217">
        <ele>1640.0</ele>
        <time>2018-09-15T12:16:49Z</time>
      </trkpt>
      <trkpt lat="40.251167" lon="-4.902150">
        <ele>1641.0</ele>
        <time>2018-09-15T12:16:50Z</time>
      </trkpt>
      <trkpt lat="40.251133" lon="-4.902083">
        <ele>1642.0</ele>
        <time>2018-09-15T12:16:51Z</time>
      </trkpt>
      <trkpt lat="40.251100" lon="-4.902000">
        <ele>1643.0</ele>
        <time>2018-09-15T12:16:52Z</time>
      </trkpt>
      <trkpt lat="40.251083" lon="-4.901917">
        <ele>1644.0</ele>
        <time>2018-09-15T12:16:53Z</time>
      </trkpt>
      <trkpt lat="40.251100" lon="-4.901833">
        <ele>1645.0</ele>
        <time>2018-09-15T12:16:54Z</time>
      </trkpt>
      <trkpt lat="40.251117" lon="-4.901767">
        <ele>1645.0</ele>
        <time>2018-09-15T12:16:55Z</time>
      </trkpt>
      <trkpt lat="40.251150" lon="-4.901700">
        <ele>1645.0</ele>
        <time>2018-09-15T12:16:56Z</time>
      </trkpt>
      <trkpt lat="40.251217" lon="-4.901650">
        <ele>1645.0</ele>
        <time>2018-09-15T12:16:57Z</time>
      </trkpt>
      <trkpt lat="40.251300" lon="-4.901617">
        <ele>1646.0</ele>
        <time>2018-09-15T12:16:58Z</time>
      </trkpt>
      <trkpt lat="40.251367" lon="-4.901600">
        <ele>1649.0</ele>
        <time>2018-09-15T12:16:59Z</time>
      </trkpt>
      <trkpt lat="40.251450" lon="-4.901583">
        <ele>1651.0</ele>
        <time>2018-09-15T12:17:00Z</time>
      </trkpt>
      <trkpt lat="40.251517" lon="-4.901600">
        <ele>1654.0</ele>
        <time>2018-09-15T12:17:01Z</time>
      </trkpt>
      <trkpt lat="40.251583" lon="-4.901617">
        <ele>1655.0</ele>
        <time>2018-09-15T12:17:02Z</time>
      </trkpt>
      <trkpt lat="40.251650" lon="-4.901667">
        <ele>1656.0</ele>
        <time>2018-09-15T12:17:03Z</time>
      </trkpt>
      <trkpt lat="40.251717" lon="-4.901733">
        <ele>1656.0</ele>
        <time>2018-09-15T12:17:04Z</time>
      </trkpt>
      <trkpt lat="40.251767" lon="-4.901833">
        <ele>1657.0</ele>
        <time>2018-09-15T12:17:05Z</time>
      </trkpt>
      <trkpt lat="40.251817" lon="-4.901950">
        <ele>1658.0</ele>
        <time>2018-09-15T12:17:06Z</time>
      </trkpt>
      <trkpt lat="40.251833" lon="-4.902083">
        <ele>1658.0</ele>
        <time>2018-09-15T12:17:07Z</time>
      </trkpt>
      <trkpt lat="40.251833" lon="-4.902233">
        <ele>1660.0</ele>
        <time>2018-09-15T12:17:08Z</time>
      </trkpt>
      <trkpt lat="40.251817" lon="-4.902383">
        <ele>1662.0</ele>
        <time>2018-09-15T12:17:09Z</time>
      </trkpt>
      <trkpt lat="40.251767" lon="-4.902517">
        <ele>1664.0</ele>
        <time>2018-09-15T12:17:10Z</time>
      </trkpt>
      <trkpt lat="40.251700" lon="-4.902650">
        <ele>1667.0</ele>
        <time>2018-09-15T12:17:11Z</time>
      </trkpt>
      <trkpt lat="40.251633" lon="-4.902750">
        <ele>1668.0</ele>
        <time>2018-09-15T12:17:12Z</time>
      </trkpt>
      <trkpt lat="40.251533" lon="-4.902817">
        <ele>1669.0</ele>
        <time>2018-09-15T12:17:13Z</time>
      </trkpt>
      <trkpt lat="40.251433" lon="-4.902900">
        <ele>1670.0</ele>
        <time>2018-09-15T12:17:14Z</time>
      </trkpt>
      <trkpt lat="40.251333" lon="-4.902950">
        <ele>1671.0</ele>
        <time>2018-09-15T12:17:15Z</time>
      </trkpt>
      <trkpt lat="40.251233" lon="-4.903000">
        <ele>1673.0</ele>
        <time>2018-09-15T12:17:16Z</time>
      </trkpt>
      <trkpt lat="40.251133" lon="-4.903000">
        <ele>1676.0</ele>
        <time>2018-09-15T12:17:17Z</time>
      </trkpt>
      <trkpt lat="40.251050" lon="-4.902983">
        <ele>1677.0</ele>
        <time>2018-09-15T12:17:18Z</time>
      </trkpt>
      <trkpt lat="40.250983" lon="-4.902933">
        <ele>1679.0</ele>
        <time>2018-09-15T12:17:19Z</time>
      </trkpt>
      <trkpt lat="40.250933" lon="-4.902850">
        <ele>1680.0</ele>
        <time>2018-09-15T12:17:20Z</time>
      </trkpt>
      <trkpt lat="40.250883" lon="-4.902767">
        <ele>1681.0</ele>
        <time>2018-09-15T12:17:21Z</time>
      </trkpt>
      <trkpt lat="40.250867" lon="-4.902667">
        <ele>1682.0</ele>
        <time>2018-09-15T12:17:22Z</time>
      </trkpt>
      <trkpt lat="40.250850" lon="-4.902583">
        <ele>1683.0</ele>
        <time>2018-09-15T12:17:23Z</time>
      </trkpt>
      <trkpt lat="40.250850" lon="-4.902483">
        <ele>1684.0</ele>
        <time>2018-09-15T12:17:24Z</time>
      </trkpt>
      <trkpt lat="40.250867" lon="-4.902400">
        <ele>1685.0</ele>
        <time>2018-09-15T12:17:25Z</time>
      </trkpt>
      <trkpt lat="40.250900" lon="-4.902333">
        <ele>1687.0</ele>
        <time>2018-09-15T12:17:26Z</time>
      </trkpt>
      <trkpt lat="40.250933" lon="-4.902250">
        <ele>1689.0</ele>
        <time>2018-09-15T12:17:27Z</time>
      </trkpt>
      <trkpt lat="40.250983" lon="-4.902200">
        <ele>1690.0</ele>
        <time>2018-09-15T12:17:28Z</time>
      </trkpt>
      <trkpt lat="40.251033" lon="-4.902167">
        <ele>1691.0</ele>
        <time>2018-09-15T12:17:29Z</time>
      </trkpt>
      <trkpt lat="40.251117" lon="-4.902167">
        <ele>1692.0</ele>
        <time>2018-09-15T12:17:30Z</time>
      </trkpt>
      <trkpt lat="40.251200" lon="-4.902183">
        <ele>1693.0</ele>
        <time>2018-09-15T12:17:31Z</time>
      </trkpt>
      <trkpt lat="40.251283" lon="-4.902250">
        <ele>1693.0</ele>
        <time>2018-09-15T12:17:32Z</time>
      </trkpt>
      <trkpt lat="40.251350" lon="-4.902333">
        <ele>1694.0</ele>
        <time>2018-09-15T12:17:33Z</time>
      </trkpt>
      <trkpt lat="40.251400" lon="-4.902450">
        <ele>1695.0</ele>
        <time>2018-09-15T12:17:34Z</time>
      </trkpt>
      <trkpt lat="40.251450" lon="-4.902567">
        <ele>1696.0</ele>
        <time>2018-09-15T12:17:35Z</time>
      </trkpt>
      <trkpt lat="40.251450" lon="-4.902717">
        <ele>1697.0</ele>
        <time>2018-09-15T12:17:36Z</time>
      </trkpt>
      <trkpt lat="40.251450" lon="-4.902850">
        <ele>1697.0</ele>
        <time>2018-09-15T12:17:37Z</time>
      </trkpt>
      <trkpt lat="40.251417" lon="-4.903000">
        <ele>1699.0</ele>
        <time>2018-09-15T12:17:38Z</time>
      </trkpt>
      <trkpt lat="40.251367" lon="-4.903133">
        <ele>1700.0</ele>
        <time>2018-09-15T12:17:39Z</time>
      </trkpt>
      <trkpt lat="40.251300" lon="-4.903267">
        <ele>1702.0</ele>
        <time>2018-09-15T12:17:40Z</time>
      </trkpt>
      <trkpt lat="40.251233" lon="-4.903367">
        <ele>1704.0</ele>
        <time>2018-09-15T12:17:41Z</time>
      </trkpt>
      <trkpt lat="40.251150" lon="-4.903450">
        <ele>1706.0</ele>
        <time>2018-09-15T12:17:42Z</time>
      </trkpt>
      <trkpt lat="40.251050" lon="-4.903517">
        <ele>1707.0</ele>
        <time>2018-09-15T12:17:43Z</time>
      </trkpt>
      <trkpt lat="40.250967" lon="-4.903567">
        <ele>1708.0</ele>
        <time>2018-09-15T12:17:44Z</time>
      </trkpt>
      <trkpt lat="40.250867" lon="-4.903567">
        <ele>1709.0</ele>
        <time>2018-09-15T12:17:45Z</time>
      </trkpt>
      <trkpt lat="40.250767" lon="-4.903567">
        <ele>1709.0</ele>
        <time>2018-09-15T12:17:46Z</time>
      </trkpt>
      <trkpt lat="40.250667" lon="-4.903517">
        <ele>1709.0</ele>
        <time>2018-09-15T12:17:47Z</time>
      </trkpt>
      <trkpt lat="40.250583" lon="-4.903450">
        <ele>1710.0</ele>
        <time>2018-09-15T12:17:48Z</time>
      </trkpt>
      <trkpt lat="40.250517" lon="-4.903367">
        <ele>1713.0</ele>
        <time>2018-09-15T12:17:49Z</time>
      </trkpt>
      <trkpt lat="40.250467" lon="-4.903283">
        <ele>1715.0</ele>
        <time>2018-09-15T12:17:50Z</time>
      </trkpt>
      <trkpt lat="40.250433" lon="-4.903233">
        <ele>1718.0</ele>
        <time>2018-09-15T12:17:51Z</time>
      </trkpt>
      <trkpt lat="40.250400" lon="-4.903150">
        <ele>1719.0</ele>
        <time>2018-09-15T12:17:52Z</time>
      </trkpt>
      <trkpt lat="40.250400" lon="-4.903083">
        <ele>1719.0</ele>
        <time>2018-09-15T12:17:53Z</time>
      </trkpt>
      <trkpt lat="40.250400" lon="-4.902983">
        <ele>1718.0</ele>
        <time>2018-09-15T12:17:54Z</time>
      </trkpt>
      <trkpt lat="40.250433" lon="-4.902900">
        <ele>1719.0</ele>
        <time>2018-09-15T12:17:55Z</time>
      </trkpt>
      <trkpt lat="40.250483" lon="-4.902833">
        <ele>1719.0</ele>
        <time>2018-09-15T12:17:56Z</time>
      </trkpt>
      <trkpt lat="40.250550" lon="-4.902783">
        <ele>1720.0</ele>
        <time>2018-09-15T12:17:57Z</time>
      </trkpt>
      <trkpt lat="40.250617" lon="-4.902750">
        <ele>1721.0</ele>
        <time>2018-09-15T12:17:58Z</time>
      </trkpt>
      <trkpt lat="40.250700" lon="-4.902767">
        <ele>1722.0</ele>
        <time>2018-09-15T12:17:59Z</time>
      </trkpt>
      <trkpt lat="40.250783" lon="-4.902783">
        <ele>1722.0</ele>
        <time>2018-09-15T12:18:00Z</time>
      </trkpt>
      <trkpt lat="40.250850" lon="-4.902833">
        <ele>1721.0</ele>
        <time>2018-09-15T12:18:01Z</time>
      </trkpt>
      <trkpt lat="40.250933" lon="-4.902917">
        <ele>1720.0</ele>
        <time>2018-09-15T12:18:02Z</time>
      </trkpt>
      <trkpt lat="40.251017" lon="-4.902983">
        <ele>1719.0</ele>
        <time>2018-09-15T12:18:03Z</time>
      </trkpt>
      <trkpt lat="40.251083" lon="-4.903067">
        <ele>1718.0</ele>
        <time>2018-09-15T12:18:04Z</time>
      </trkpt>
      <trkpt lat="40.251167" lon="-4.903133">
        <ele>1717.0</ele>
        <time>2018-09-15T12:18:05Z</time>
      </trkpt>
      <trkpt lat="40.251267" lon="-4.903183">
        <ele>1716.0</ele>
        <time>2018-09-15T12:18:06Z</time>
      </trkpt>
      <trkpt lat="40.251350" lon="-4.903217">
        <ele>1716.0</ele>
        <time>2018-09-15T12:18:07Z</time>
      </trkpt>
      <trkpt lat="40.251417" lon="-4.903267">
        <ele>1715.0</ele>
        <time>2018-09-15T12:18:08Z</time>
      </trkpt>
      <trkpt lat="40.251500" lon="-4.903317">
        <ele>1714.0</ele>
        <time>2018-09-15T12:18:09Z</time>
      </trkpt>
      <trkpt lat="40.251583" lon="-4.903383">
        <ele>1713.0</ele>
        <time>2018-09-15T12:18:10Z</time>
      </trkpt>
      <trkpt lat="40.251667" lon="-4.903417">
        <ele>1712.0</ele>
        <time>2018-09-15T12:18:11Z</time>
      </trkpt>
      <trkpt lat="40.251750" lon="-4.903450">
        <ele>1710.0</ele>
        <time>2018-09-15T12:18:12Z</time>
      </trkpt>
      <trkpt lat="40.251833" lon="-4.903467">
        <ele>1708.0</ele>
        <time>2018-09-15T12:18:13Z</time>
      </trkpt>
      <trkpt lat="40.251933" lon="-4.903483">
        <ele>1706.0</ele>
        <time>2018-09-15T12:18:14Z</time>
      </trkpt>
      <trkpt lat="40.252033" lon="-4.903517">
        <ele>1705.0</ele>
        <time>2018-09-15T12:18:15Z</time>
      </trkpt>
      <trkpt lat="40.252117" lon="-4.903533">
        <ele>1703.0</ele>
        <time>2018-09-15T12:18:16Z</time>
      </trkpt>
      <trkpt lat="40.252200" lon="-4.903533">
        <ele>1702.0</ele>
        <time>2018-09-15T12:18:17Z</time>
      </trkpt>
      <trkpt lat="40.252283" lon="-4.903533">
        <ele>1700.0</ele>
        <time>2018-09-15T12:18:18Z</time>
      </trkpt>
      <trkpt lat="40.252367" lon="-4.903533">
        <ele>1698.0</ele>
        <time>2018-09-15T12:18:19Z</time>
      </trkpt>
      <trkpt lat="40.252450" lon="-4.903550">
        <ele>1696.0</ele>
        <time>2018-09-15T12:18:20Z</time>
      </trkpt>
      <trkpt lat="40.252550" lon="-4.903567">
        <ele>1692.0</ele>
        <time>2018-09-15T12:18:21Z</time>
      </trkpt>
      <trkpt lat="40.252650" lon="-4.903600">
        <ele>1690.0</ele>
        <time>2018-09-15T12:18:22Z</time>
      </trkpt>
      <trkpt lat="40.252750" lon="-4.903617">
        <ele>1688.0</ele>
        <time>2018-09-15T12:18:23Z</time>
      </trkpt>
      <trkpt lat="40.252850" lon="-4.903650">
        <ele>1687.0</ele>
        <time>2018-09-15T12:18:24Z</time>
      </trkpt>
      <trkpt lat="40.252950" lon="-4.903683">
        <ele>1686.0</ele>
        <time>2018-09-15T12:18:25Z</time>
      </trkpt>
      <trkpt lat="40.253067" lon="-4.903733">
        <ele>1685.0</ele>
        <time>2018-09-15T12:18:26Z</time>
      </trkpt>
      <trkpt lat="40.253167" lon="-4.903783">
        <ele>1683.0</ele>
        <time>2018-09-15T12:18:27Z</time>
      </trkpt>
      <trkpt lat="40.253267" lon="-4.903800">
        <ele>1683.0</ele>
        <time>2018-09-15T12:18:28Z</time>
      </trkpt>
      <trkpt lat="40.253350" lon="-4.903833">
        <ele>1683.0</ele>
        <time>2018-09-15T12:18:29Z</time>
      </trkpt>
      <trkpt lat="40.253433" lon="-4.903850">
        <ele>1682.0</ele>
        <time>2018-09-15T12:18:30Z</time>
      </trkpt>
      <trkpt lat="40.253517" lon="-4.903883">
        <ele>1680.0</ele>
        <time>2018-09-15T12:18:31Z</time>
      </trkpt>
      <trkpt lat="40.253600" lon="-4.903933">
        <ele>1677.0</ele>
        <time>2018-09-15T12:18:32Z</time>
      </trkpt>
      <trkpt lat="40.253683" lon="-4.903983">
        <ele>1674.0</ele>
        <time>2018-09-15T12:18:33Z</time>
      </trkpt>
      <trkpt lat="40.253800" lon="-4.904033">
        <ele>1671.0</ele>
        <time>2018-09-15T12:18:34Z</time>
      </trkpt>
      <trkpt lat="40.253900" lon="-4.904067">
        <ele>1670.0</ele>
        <time>2018-09-15T12:18:35Z</time>
      </trkpt>
      <trkpt lat="40.253983" lon="-4.904100">
        <ele>1669.0</ele>
        <time>2018-09-15T12:18:36Z</time>
      </trkpt>
      <trkpt lat="40.254083" lon="-4.904133">
        <ele>1668.0</ele>
        <time>2018-09-15T12:18:37Z</time>
      </trkpt>
      <trkpt lat="40.254167" lon="-4.904167">
        <ele>1666.0</ele>
        <time>2018-09-15T12:18:38Z</time>
      </trkpt>
      <trkpt lat="40.254267" lon="-4.904183">
        <ele>1665.0</ele>
        <time>2018-09-15T12:18:39Z</time>
      </trkpt>
      <trkpt lat="40.254350" lon="-4.904217">
        <ele>1664.0</ele>
        <time>2018-09-15T12:18:40Z</time>
      </trkpt>
      <trkpt lat="40.254450" lon="-4.904250">
        <ele>1662.0</ele>
        <time>2018-09-15T12:18:41Z</time>
      </trkpt>
      <trkpt lat="40.254533" lon="-4.904283">
        <ele>1660.0</ele>
        <time>2018-09-15T12:18:42Z</time>
      </trkpt>
      <trkpt lat="40.254617" lon="-4.904317">
        <ele>1657.0</ele>
        <time>2018-09-15T12:18:43Z</time>
      </trkpt>
      <trkpt lat="40.254717" lon="-4.904350">
        <ele>1654.0</ele>
        <time>2018-09-15T12:18:44Z</time>
      </trkpt>
      <trkpt lat="40.254817" lon="-4.904367">
        <ele>1651.0</ele>
        <time>2018-09-15T12:18:45Z</time>
      </trkpt>
      <trkpt lat="40.254917" lon="-4.904417">
        <ele>1649.0</ele>
        <time>2018-09-15T12:18:46Z</time>
      </trkpt>
      <trkpt lat="40.255033" lon="-4.904450">
        <ele>1647.0</ele>
        <time>2018-09-15T12:18:47Z</time>
      </trkpt>
      <trkpt lat="40.255133" lon="-4.904483">
        <ele>1646.0</ele>
        <time>2018-09-15T12:18:48Z</time>
      </trkpt>
      <trkpt lat="40.255233" lon="-4.904500">
        <ele>1644.0</ele>
        <time>2018-09-15T12:18:49Z</time>
      </trkpt>
      <trkpt lat="40.255333" lon="-4.904517">
        <ele>1643.0</ele>
        <time>2018-09-15T12:18:50Z</time>
      </trkpt>
      <trkpt lat="40.255433" lon="-4.904533">
        <ele>1641.0</ele>
        <time>2018-09-15T12:18:51Z</time>
      </trkpt>
      <trkpt lat="40.255533" lon="-4.904583">
        <ele>1637.0</ele>
        <time>2018-09-15T12:18:52Z</time>
      </trkpt>
      <trkpt lat="40.255650" lon="-4.904633">
        <ele>1634.0</ele>
        <time>2018-09-15T12:18:53Z</time>
      </trkpt>
      <trkpt lat="40.255767" lon="-4.904683">
        <ele>1631.0</ele>
        <time>2018-09-15T12:18:54Z</time>
      </trkpt>
      <trkpt lat="40.255867" lon="-4.904717">
        <ele>1629.0</ele>
        <time>2018-09-15T12:18:55Z</time>
      </trkpt>
      <trkpt lat="40.255983" lon="-4.904750">
        <ele>1627.0</ele>
        <time>2018-09-15T12:18:56Z</time>
      </trkpt>
      <trkpt lat="40.256083" lon="-4.904800">
        <ele>1625.0</ele>
        <time>2018-09-15T12:18:57Z</time>
      </trkpt>
      <trkpt lat="40.256183" lon="-4.904833">
        <ele>1622.0</ele>
        <time>2018-09-15T12:18:58Z</time>
      </trkpt>
      <trkpt lat="40.256300" lon="-4.904883">
        <ele>1620.0</ele>
        <time>2018-09-15T12:18:59Z</time>
      </trkpt>
      <trkpt lat="40.256400" lon="-4.904917">
        <ele>1617.0</ele>
        <time>2018-09-15T12:19:00Z</time>
      </trkpt>
      <trkpt lat="40.256500" lon="-4.904967">
        <ele>1615.0</ele>
        <time>2018-09-15T12:19:01Z</time>
      </trkpt>
      <trkpt lat="40.256617" lon="-4.905000">
        <ele>1612.0</ele>
        <time>2018-09-15T12:19:02Z</time>
      </trkpt>
      <trkpt lat="40.256717" lon="-4.905050">
        <ele>1610.0</ele>
        <time>2018-09-15T12:19:03Z</time>
      </trkpt>
      <trkpt lat="40.256833" lon="-4.905117">
        <ele>1608.0</ele>
        <time>2018-09-15T12:19:04Z</time>
      </trkpt>
      <trkpt lat="40.256933" lon="-4.905167">
        <ele>1606.0</ele>
        <time>2018-09-15T12:19:05Z</time>
      </trkpt>
      <trkpt lat="40.257017" lon="-4.905217">
        <ele>1603.0</ele>
        <time>2018-09-15T12:19:06Z</time>
      </trkpt>
      <trkpt lat="40.257117" lon="-4.905283">
        <ele>1600.0</ele>
        <time>2018-09-15T12:19:07Z</time>
      </trkpt>
      <trkpt lat="40.257183" lon="-4.905333">
        <ele>1596.0</ele>
        <time>2018-09-15T12:19:08Z</time>
      </trkpt>
      <trkpt lat="40.257267" lon="-4.905400">
        <ele>1591.0</ele>
        <time>2018-09-15T12:19:09Z</time>
      </trkpt>
      <trkpt lat="40.257367" lon="-4.905467">
        <ele>1586.0</ele>
        <time>2018-09-15T12:19:10Z</time>
      </trkpt>
      <trkpt lat="40.257450" lon="-4.905533">
        <ele>1581.0</ele>
        <time>2018-09-15T12:19:11Z</time>
      </trkpt>
      <trkpt lat="40.257550" lon="-4.905600">
        <ele>1577.0</ele>
        <time>2018-09-15T12:19:12Z</time>
      </trkpt>
      <trkpt lat="40.257633" lon="-4.905667">
        <ele>1574.0</ele>
        <time>2018-09-15T12:19:13Z</time>
      </trkpt>
      <trkpt lat="40.257733" lon="-4.905733">
        <ele>1570.0</ele>
        <time>2018-09-15T12:19:14Z</time>
      </trkpt>
      <trkpt lat="40.257817" lon="-4.905800">
        <ele>1567.0</ele>
        <time>2018-09-15T12:19:15Z</time>
      </trkpt>
      <trkpt lat="40.257917" lon="-4.905850">
        <ele>1564.0</ele>
        <time>2018-09-15T12:19:16Z</time>
      </trkpt>
      <trkpt lat="40.258000" lon="-4.905900">
        <ele>1563.0</ele>
        <time>2018-09-15T12:19:17Z</time>
      </trkpt>
      <trkpt lat="40.258083" lon="-4.905950">
        <ele>1562.0</ele>
        <time>2018-09-15T12:19:18Z</time>
      </trkpt>
      <trkpt lat="40.258150" lon="-4.905983">
        <ele>1561.0</ele>
        <time>2018-09-15T12:19:19Z</time>
      </trkpt>
      <trkpt lat="40.258233" lon="-4.906033">
        <ele>1560.0</ele>
        <time>2018-09-15T12:19:20Z</time>
      </trkpt>
      <trkpt lat="40.258300" lon="-4.906067">
        <ele>1559.0</ele>
        <time>2018-09-15T12:19:21Z</time>
      </trkpt>
      <trkpt lat="40.258367" lon="-4.906117">
        <ele>1557.0</ele>
        <time>2018-09-15T12:19:22Z</time>
      </trkpt>
      <trkpt lat="40.258450" lon="-4.906167">
        <ele>1556.0</ele>
        <time>2018-09-15T12:19:23Z</time>
      </trkpt>
      <trkpt lat="40.258533" lon="-4.906217">
        <ele>1554.0</ele>
        <time>2018-09-15T12:19:24Z</time>
      </trkpt>
      <trkpt lat="40.258617" lon="-4.906267">
        <ele>1553.0</ele>
        <time>2018-09-15T12:19:25Z</time>
      </trkpt>
      <trkpt lat="40.258700" lon="-4.906317">
        <ele>1552.0</ele>
        <time>2018-09-15T12:19:26Z</time>
      </trkpt>
      <trkpt lat="40.258800" lon="-4.906367">
        <ele>1551.0</ele>
        <time>2018-09-15T12:19:27Z</time>
      </trkpt>
      <trkpt lat="40.258883" lon="-4.906417">
        <ele>1550.0</ele>
        <time>2018-09-15T12:19:28Z</time>
      </trkpt>
      <trkpt lat="40.258983" lon="-4.906450">
        <ele>1549.0</ele>
        <time>2018-09-15T12:19:29Z</time>
      </trkpt>
      <trkpt lat="40.259083" lon="-4.906500">
        <ele>1548.0</ele>
        <time>2018-09-15T12:19:30Z</time>
      </trkpt>
      <trkpt lat="40.259183" lon="-4.906550">
        <ele>1547.0</ele>
        <time>2018-09-15T12:19:31Z</time>
      </trkpt>
      <trkpt lat="40.259283" lon="-4.906617">
        <ele>1545.0</ele>
        <time>2018-09-15T12:19:32Z</time>
      </trkpt>
      <trkpt lat="40.259367" lon="-4.906683">
        <ele>1544.0</ele>
        <time>2018-09-15T12:19:33Z</time>
      </trkpt>
      <trkpt lat="40.259467" lon="-4.906750">
        <ele>1543.0</ele>
        <time>2018-09-15T12:19:34Z</time>
      </trkpt>
      <trkpt lat="40.259550" lon="-4.906800">
        <ele>1543.0</ele>
        <time>2018-09-15T12:19:35Z</time>
      </trkpt>
      <trkpt lat="40.259633" lon="-4.906867">
        <ele>1543.0</ele>
        <time>2018-09-15T12:19:36Z</time>
      </trkpt>
      <trkpt lat="40.259717" lon="-4.906933">
        <ele>1542.0</ele>
        <time>2018-09-15T12:19:37Z</time>
      </trkpt>
      <trkpt lat="40.259800" lon="-4.907017">
        <ele>1541.0</ele>
        <time>2018-09-15T12:19:38Z</time>
      </trkpt>
      <trkpt lat="40.259883" lon="-4.907100">
        <ele>1539.0</ele>
        <time>2018-09-15T12:19:39Z</time>
      </trkpt>
      <trkpt lat="40.259983" lon="-4.907167">
        <ele>1538.0</ele>
        <time>2018-09-15T12:19:40Z</time>
      </trkpt>
      <trkpt lat="40.260067" lon="-4.907250">
        <ele>1536.0</ele>
        <time>2018-09-15T12:19:41Z</time>
      </trkpt>
      <trkpt lat="40.260167" lon="-4.907317">
        <ele>1534.0</ele>
        <time>2018-09-15T12:19:42Z</time>
      </trkpt>
      <trkpt lat="40.260267" lon="-4.907400">
        <ele>1532.0</ele>
        <time>2018-09-15T12:19:43Z</time>
      </trkpt>
      <trkpt lat="40.260367" lon="-4.907467">
        <ele>1531.0</ele>
        <time>2018-09-15T12:19:44Z</time>
      </trkpt>
      <trkpt lat="40.260450" lon="-4.907533">
        <ele>1530.0</ele>
        <time>2018-09-15T12:19:45Z</time>
      </trkpt>
      <trkpt lat="40.260550" lon="-4.907583">
        <ele>1529.0</ele>
        <time>2018-09-15T12:19:46Z</time>
      </trkpt>
      <trkpt lat="40.260650" lon="-4.907617">
        <ele>1527.0</ele>
        <time>2018-09-15T12:19:47Z</time>
      </trkpt>
      <trkpt lat="40.260733" lon="-4.907683">
        <ele>1526.0</ele>
        <time>2018-09-15T12:19:48Z</time>
      </trkpt>
      <trkpt lat="40.260833" lon="-4.907767">
        <ele>1524.0</ele>
        <time>2018-09-15T12:19:49Z</time>
      </trkpt>
      <trkpt lat="40.260933" lon="-4.907833">
        <ele>1523.0</ele>
        <time>2018-09-15T12:19:50Z</time>
      </trkpt>
      <trkpt lat="40.261033" lon="-4.907883">
        <ele>1522.0</ele>
        <time>2018-09-15T12:19:51Z</time>
      </trkpt>
      <trkpt lat="40.261133" lon="-4.907933">
        <ele>1522.0</ele>
        <time>2018-09-15T12:19:52Z</time>
      </trkpt>
      <trkpt lat="40.261217" lon="-4.907983">
        <ele>1522.0</ele>
        <time>2018-09-15T12:19:53Z</time>
      </trkpt>
      <trkpt lat="40.261317" lon="-4.908017">
        <ele>1521.0</ele>
        <time>2018-09-15T12:19:54Z</time>
      </trkpt>
      <trkpt lat="40.261417" lon="-4.908083">
        <ele>1520.0</ele>
        <time>2018-09-15T12:19:55Z</time>
      </trkpt>
      <trkpt lat="40.261533" lon="-4.908150">
        <ele>1518.0</ele>
        <time>2018-09-15T12:19:56Z</time>
      </trkpt>
      <trkpt lat="40.261667" lon="-4.908233">
        <ele>1515.0</ele>
        <time>2018-09-15T12:19:57Z</time>
      </trkpt>
      <trkpt lat="40.261783" lon="-4.908317">
        <ele>1515.0</ele>
        <time>2018-09-15T12:19:58Z</time>
      </trkpt>
      <trkpt lat="40.261883" lon="-4.908383">
        <ele>1514.0</ele>
        <time>2018-09-15T12:19:59Z</time>
      </trkpt>
      <trkpt lat="40.262000" lon="-4.908450">
        <ele>1513.0</ele>
        <time>2018-09-15T12:20:00Z</time>
      </trkpt>
      <trkpt lat="40.262100" lon="-4.908517">
        <ele>1513.0</ele>
        <time>2018-09-15T12:20:01Z</time>
      </trkpt>
      <trkpt lat="40.262217" lon="-4.908567">
        <ele>1512.0</ele>
        <time>2018-09-15T12:20:02Z</time>
      </trkpt>
      <trkpt lat="40.262317" lon="-4.908617">
        <ele>1512.0</ele>
        <time>2018-09-15T12:20:03Z</time>
      </trkpt>
      <trkpt lat="40.262433" lon="-4.908683">
        <ele>1512.0</ele>
        <time>2018-09-15T12:20:04Z</time>
      </trkpt>
      <trkpt lat="40.262533" lon="-4.908750">
        <ele>1512.0</ele>
        <time>2018-09-15T12:20:05Z</time>
      </trkpt>
      <trkpt lat="40.262617" lon="-4.908817">
        <ele>1513.0</ele>
        <time>2018-09-15T12:20:06Z</time>
      </trkpt>
      <trkpt lat="40.262700" lon="-4.908883">
        <ele>1514.0</ele>
        <time>2018-09-15T12:20:07Z</time>
      </trkpt>
      <trkpt lat="40.262783" lon="-4.908950">
        <ele>1516.0</ele>
        <time>2018-09-15T12:20:08Z</time>
      </trkpt>
      <trkpt lat="40.262867" lon="-4.909017">
        <ele>1517.0</ele>
        <time>2018-09-15T12:20:09Z</time>
      </trkpt>
      <trkpt lat="40.262950" lon="-4.909083">
        <ele>1518.0</ele>
        <time>2018-09-15T12:20:10Z</time>
      </trkpt>
      <trkpt lat="40.263017" lon="-4.909117">
        <ele>1519.0</ele>
        <time>2018-09-15T12:20:11Z</time>
      </trkpt>
      <trkpt lat="40.263083" lon="-4.909117">
        <ele>1519.0</ele>
        <time>2018-09-15T12:20:12Z</time>
      </trkpt>
      <trkpt lat="40.263150" lon="-4.909100">
        <ele>1518.0</ele>
        <time>2018-09-15T12:20:13Z</time>
      </trkpt>
      <trkpt lat="40.263200" lon="-4.909050">
        <ele>1518.0</ele>
        <time>2018-09-15T12:20:14Z</time>
      </trkpt>
      <trkpt lat="40.263233" lon="-4.908983">
        <ele>1518.0</ele>
        <time>2018-09-15T12:20:15Z</time>
      </trkpt>
      <trkpt lat="40.263267" lon="-4.908917">
        <ele>1520.0</ele>
        <time>2018-09-15T12:20:16Z</time>
      </trkpt>
      <trkpt lat="40.263267" lon="-4.908850">
        <ele>1521.0</ele>
        <time>2018-09-15T12:20:17Z</time>
      </trkpt>
      <trkpt lat="40.263267" lon="-4.908767">
        <ele>1522.0</ele>
        <time>2018-09-15T12:20:18Z</time>
      </trkpt>
      <trkpt lat="40.263250" lon="-4.908700">
        <ele>1522.0</ele>
        <time>2018-09-15T12:20:19Z</time>
      </trkpt>
      <trkpt lat="40.263233" lon="-4.908650">
        <ele>1523.0</ele>
        <time>2018-09-15T12:20:20Z</time>
      </trkpt>
      <trkpt lat="40.263183" lon="-4.908617">
        <ele>1524.0</ele>
        <time>2018-09-15T12:20:21Z</time>
      </trkpt>
      <trkpt lat="40.263133" lon="-4.908600">
        <ele>1525.0</ele>
        <time>2018-09-15T12:20:22Z</time>
      </trkpt>
      <trkpt lat="40.263067" lon="-4.908600">
        <ele>1526.0</ele>
        <time>2018-09-15T12:20:23Z</time>
      </trkpt>
      <trkpt lat="40.262983" lon="-4.908650">
        <ele>1526.0</ele>
        <time>2018-09-15T12:20:24Z</time>
      </trkpt>
      <trkpt lat="40.262917" lon="-4.908733">
        <ele>1527.0</ele>
        <time>2018-09-15T12:20:25Z</time>
      </trkpt>
      <trkpt lat="40.262850" lon="-4.908850">
        <ele>1528.0</ele>
        <time>2018-09-15T12:20:26Z</time>
      </trkpt>
      <trkpt lat="40.262817" lon="-4.908983">
        <ele>1529.0</ele>
        <time>2018-09-15T12:20:27Z</time>
      </trkpt>
      <trkpt lat="40.262800" lon="-4.909133">
        <ele>1530.0</ele>
        <time>2018-09-15T12:20:28Z</time>
      </trkpt>
      <trkpt lat="40.262833" lon="-4.909283">
        <ele>1530.0</ele>
        <time>2018-09-15T12:20:29Z</time>
      </trkpt>
      <trkpt lat="40.262883" lon="-4.909433">
        <ele>1529.0</ele>
        <time>2018-09-15T12:20:30Z</time>
      </trkpt>
      <trkpt lat="40.262967" lon="-4.909567">
        <ele>1530.0</ele>
        <time>2018-09-15T12:20:31Z</time>
      </trkpt>
      <trkpt lat="40.263067" lon="-4.909650">
        <ele>1532.0</ele>
        <time>2018-09-15T12:20:32Z</time>
      </trkpt>
      <trkpt lat="40.263167" lon="-4.909700">
        <ele>1534.0</ele>
        <time>2018-09-15T12:20:33Z</time>
      </trkpt>
      <trkpt lat="40.263267" lon="-4.909717">
        <ele>1536.0</ele>
        <time>2018-09-15T12:20:34Z</time>
      </trkpt>
      <trkpt lat="40.263333" lon="-4.909717">
        <ele>1537.0</ele>
        <time>2018-09-15T12:20:35Z</time>
      </trkpt>
      <trkpt lat="40.263417" lon="-4.909700">
        <ele>1538.0</ele>
        <time>2018-09-15T12:20:36Z</time>
      </trkpt>
      <trkpt lat="40.263483" lon="-4.909700">
        <ele>1539.0</ele>
        <time>2018-09-15T12:20:37Z</time>
      </trkpt>
      <trkpt lat="40.263533" lon="-4.909667">
        <ele>1538.0</ele>
        <time>2018-09-15T12:20:38Z</time>
      </trkpt>
      <trkpt lat="40.263600" lon="-4.909617">
        <ele>1538.0</ele>
        <time>2018-09-15T12:20:39Z</time>
      </trkpt>
      <trkpt lat="40.263650" lon="-4.909567">
        <ele>1538.0</ele>
        <time>2018-09-15T12:20:40Z</time>
      </trkpt>
      <trkpt lat="40.263717" lon="-4.909500">
        <ele>1539.0</ele>
        <time>2018-09-15T12:20:41Z</time>
      </trkpt>
      <trkpt lat="40.263767" lon="-4.909433">
        <ele>1542.0</ele>
        <time>2018-09-15T12:20:42Z</time>
      </trkpt>
      <trkpt lat="40.263800" lon="-4.909383">
        <ele>1545.0</ele>
        <time>2018-09-15T12:20:43Z</time>
      </trkpt>
      <trkpt lat="40.263817" lon="-4.909350">
        <ele>1546.0</ele>
        <time>2018-09-15T12:20:44Z</time>
      </trkpt>
      <trkpt lat="40.263833" lon="-4.909300">
        <ele>1546.0</ele>
        <time>2018-09-15T12:20:45Z</time>
      </trkpt>
      <trkpt lat="40.263833" lon="-4.909233">
        <ele>1546.0</ele>
        <time>2018-09-15T12:20:46Z</time>
      </trkpt>
      <trkpt lat="40.263833" lon="-4.909167">
        <ele>1546.0</ele>
        <time>2018-09-15T12:20:47Z</time>
      </trkpt>
      <trkpt lat="40.263850" lon="-4.909100">
        <ele>1547.0</ele>
        <time>2018-09-15T12:20:48Z</time>
      </trkpt>
      <trkpt lat="40.263833" lon="-4.909033">
        <ele>1549.0</ele>
        <time>2018-09-15T12:20:49Z</time>
      </trkpt>
      <trkpt lat="40.263833" lon="-4.909000">
        <ele>1551.0</ele>
        <time>2018-09-15T12:20:50Z</time>
      </trkpt>
      <trkpt lat="40.263850" lon="-4.908950">
        <ele>1552.0</ele>
        <time>2018-09-15T12:20:51Z</time>
      </trkpt>
      <trkpt lat="40.263883" lon="-4.908900">
        <ele>1552.0</ele>
        <time>2018-09-15T12:20:52Z</time>
      </trkpt>
      <trkpt lat="40.263933" lon="-4.908850">
        <ele>1552.0</ele>
        <time>2018-09-15T12:20:53Z</time>
      </trkpt>
      <trkpt lat="40.264033" lon="-4.908817">
        <ele>1553.0</ele>
        <time>2018-09-15T12:20:54Z</time>
      </trkpt>
      <trkpt lat="40.264117" lon="-4.908817">
        <ele>1554.0</ele>
        <time>2018-09-15T12:20:55Z</time>
      </trkpt>
      <trkpt lat="40.264217" lon="-4.908867">
        <ele>1556.0</ele>
        <time>2018-09-15T12:20:56Z</time>
      </trkpt>
      <trkpt lat="40.264317" lon="-4.908967">
        <ele>1558.0</ele>
        <time>2018-09-15T12:20:57Z</time>
      </trkpt>
      <trkpt lat="40.264383" lon="-4.909100">
        <ele>1560.0</ele>
        <time>2018-09-15T12:20:58Z</time>
      </trkpt>
      <trkpt lat="40.264433" lon="-4.909267">
        <ele>1562.0</ele>
        <time>2018-09-15T12:20:59Z</time>
      </trkpt>
      <trkpt lat="40.264433" lon="-4.909433">
        <ele>1564.0</ele>
        <time>2018-09-15T12:21:00Z</time>
      </trkpt>
      <trkpt lat="40.264433" lon="-4.909600">
        <ele>1566.0</ele>
        <time>2018-09-15T12:21:01Z</time>
      </trkpt>
      <trkpt lat="40.264400" lon="-4.909767">
        <ele>1567.0</ele>
        <time>2018-09-15T12:21:02Z</time>
      </trkpt>
      <trkpt lat="40.264350" lon="-4.909917">
        <ele>1567.0</ele>
        <time>2018-09-15T12:21:03Z</time>
      </trkpt>
      <trkpt lat="40.264283" lon="-4.910050">
        <ele>1568.0</ele>
        <time>2018-09-15T12:21:04Z</time>
      </trkpt>
      <trkpt lat="40.264217" lon="-4.910150">
        <ele>1570.0</ele>
        <time>2018-09-15T12:21:05Z</time>
      </trkpt>
      <trkpt lat="40.264150" lon="-4.910233">
        <ele>1571.0</ele>
        <time>2018-09-15T12:21:06Z</time>
      </trkpt>
      <trkpt lat="40.264067" lon="-4.910300">
        <ele>1571.0</ele>
        <time>2018-09-15T12:21:07Z</time>
      </trkpt>
      <trkpt lat="40.264000" lon="-4.910333">
        <ele>1571.0</ele>
        <time>2018-09-15T12:21:08Z</time>
      </trkpt>
      <trkpt lat="40.263933" lon="-4.910367">
        <ele>1571.0</ele>
        <time>2018-09-15T12:21:09Z</time>
      </trkpt>
      <trkpt lat="40.263850" lon="-4.910367">
        <ele>1570.0</ele>
        <time>2018-09-15T12:21:10Z</time>
      </trkpt>
      <trkpt lat="40.263783" lon="-4.910350">
        <ele>1569.0</ele>
        <time>2018-09-15T12:21:11Z</time>
      </trkpt>
      <trkpt lat="40.263717" lon="-4.910333">
        <ele>1569.0</ele>
        <time>2018-09-15T12:21:12Z</time>
      </trkpt>
      <trkpt lat="40.263667" lon="-4.910300">
        <ele>1570.0</ele>
        <time>2018-09-15T12:21:13Z</time>
      </trkpt>
      <trkpt lat="40.263617" lon="-4.910267">
        <ele>1571.0</ele>
        <time>2018-09-15T12:21:14Z</time>
      </trkpt>
      <trkpt lat="40.263583" lon="-4.910250">
        <ele>1572.0</ele>
        <time>2018-09-15T12:21:15Z</time>
      </trkpt>
      <trkpt lat="40.263583" lon="-4.910200">
        <ele>1572.0</ele>
        <time>2018-09-15T12:21:16Z</time>
      </trkpt>
      <trkpt lat="40.263567" lon="-4.910133">
        <ele>1573.0</ele>
        <time>2018-09-15T12:21:17Z</time>
      </trkpt>
      <trkpt lat="40.263567" lon="-4.910083">
        <ele>1573.0</ele>
        <time>2018-09-15T12:21:18Z</time>
      </trkpt>
      <trkpt lat="40.263583" lon="-4.910033">
        <ele>1573.0</ele>
        <time>2018-09-15T12:21:19Z</time>
      </trkpt>
      <trkpt lat="40.263600" lon="-4.910000">
        <ele>1574.0</ele>
        <time>2018-09-15T12:21:20Z</time>
      </trkpt>
      <trkpt lat="40.263633" lon="-4.909967">
        <ele>1574.0</ele>
        <time>2018-09-15T12:21:21Z</time>
      </trkpt>
      <trkpt lat="40.263667" lon="-4.909917">
        <ele>1572.0</ele>
        <time>2018-09-15T12:21:22Z</time>
      </trkpt>
      <trkpt lat="40.263717" lon="-4.909850">
        <ele>1570.0</ele>
        <time>2018-09-15T12:21:23Z</time>
      </trkpt>
      <trkpt lat="40.263800" lon="-4.909817">
        <ele>1570.0</ele>
        <time>2018-09-15T12:21:24Z</time>
      </trkpt>
      <trkpt lat="40.263883" lon="-4.909783">
        <ele>1569.0</ele>
        <time>2018-09-15T12:21:25Z</time>
      </trkpt>
      <trkpt lat="40.264000" lon="-4.909800">
        <ele>1569.0</ele>
        <time>2018-09-15T12:21:26Z</time>
      </trkpt>
      <trkpt lat="40.264100" lon="-4.909867">
        <ele>1569.0</ele>
        <time>2018-09-15T12:21:27Z</time>
      </trkpt>
      <trkpt lat="40.264200" lon="-4.909950">
        <ele>1570.0</ele>
        <time>2018-09-15T12:21:28Z</time>
      </trkpt>
      <trkpt lat="40.264300" lon="-4.910083">
        <ele>1571.0</ele>
        <time>2018-09-15T12:21:29Z</time>
      </trkpt>
      <trkpt lat="40.264367" lon="-4.910233">
        <ele>1572.0</ele>
        <time>2018-09-15T12:21:30Z</time>
      </trkpt>
      <trkpt lat="40.264417" lon="-4.910400">
        <ele>1574.0</ele>
        <time>2018-09-15T12:21:31Z</time>
      </trkpt>
      <trkpt lat="40.264450" lon="-4.910567">
        <ele>1576.0</ele>
        <time>2018-09-15T12:21:32Z</time>
      </trkpt>
      <trkpt lat="40.264467" lon="-4.910717">
        <ele>1577.0</ele>
        <time>2018-09-15T12:21:33Z</time>
      </trkpt>
      <trkpt lat="40.264467" lon="-4.910883">
        <ele>1577.0</ele>
        <time>2018-09-15T12:21:34Z</time>
      </trkpt>
      <trkpt lat="40.264450" lon="-4.911033">
        <ele>1577.0</ele>
        <time>2018-09-15T12:21:35Z</time>
      </trkpt>
      <trkpt lat="40.264400" lon="-4.911183">
        <ele>1576.0</ele>
        <time>2018-09-15T12:21:36Z</time>
      </trkpt>
      <trkpt lat="40.264333" lon="-4.911283">
        <ele>1575.0</ele>
        <time>2018-09-15T12:21:37Z</time>
      </trkpt>
      <trkpt lat="40.264250" lon="-4.911367">
        <ele>1574.0</ele>
        <time>2018-09-15T12:21:38Z</time>
      </trkpt>
      <trkpt lat="40.264183" lon="-4.911417">
        <ele>1573.0</ele>
        <time>2018-09-15T12:21:39Z</time>
      </trkpt>
      <trkpt lat="40.264117" lon="-4.911467">
        <ele>1572.0</ele>
        <time>2018-09-15T12:21:40Z</time>
      </trkpt>
      <trkpt lat="40.264033" lon="-4.911500">
        <ele>1571.0</ele>
        <time>2018-09-15T12:21:41Z</time>
      </trkpt>
      <trkpt lat="40.263967" lon="-4.911500">
        <ele>1569.0</ele>
        <time>2018-09-15T12:21:42Z</time>
      </trkpt>
      <trkpt lat="40.263900" lon="-4.911500">
        <ele>1567.0</ele>
        <time>2018-09-15T12:21:43Z</time>
      </trkpt>
      <trkpt lat="40.263833" lon="-4.911483">
        <ele>1565.0</ele>
        <time>2018-09-15T12:21:44Z</time>
      </trkpt>
      <trkpt lat="40.263767" lon="-4.911450">
        <ele>1564.0</ele>
        <time>2018-09-15T12:21:45Z</time>
      </trkpt>
      <trkpt lat="40.263717" lon="-4.911400">
        <ele>1563.0</ele>
        <time>2018-09-15T12:21:46Z</time>
      </trkpt>
      <trkpt lat="40.263667" lon="-4.911317">
        <ele>1563.0</ele>
        <time>2018-09-15T12:21:47Z</time>
      </trkpt>
      <trkpt lat="40.263633" lon="-4.911250">
        <ele>1564.0</ele>
        <time>2018-09-15T12:21:48Z</time>
      </trkpt>
      <trkpt lat="40.263600" lon="-4.911183">
        <ele>1566.0</ele>
        <time>2018-09-15T12:21:49Z</time>
      </trkpt>
      <trkpt lat="40.263567" lon="-4.911133">
        <ele>1566.0</ele>
        <time>2018-09-15T12:21:50Z</time>
      </trkpt>
      <trkpt lat="40.263533" lon="-4.911083">
        <ele>1566.0</ele>
        <time>2018-09-15T12:21:51Z</time>
      </trkpt>
      <trkpt lat="40.263500" lon="-4.911017">
        <ele>1566.0</ele>
        <time>2018-09-15T12:21:52Z</time>
      </trkpt>
      <trkpt lat="40.263450" lon="-4.910983">
        <ele>1565.0</ele>
        <time>2018-09-15T12:21:53Z</time>
      </trkpt>
      <trkpt lat="40.263400" lon="-4.910933">
        <ele>1565.0</ele>
        <time>2018-09-15T12:21:54Z</time>
      </trkpt>
      <trkpt lat="40.263367" lon="-4.910900">
        <ele>1564.0</ele>
        <time>2018-09-15T12:21:55Z</time>
      </trkpt>
      <trkpt lat="40.263333" lon="-4.910850">
        <ele>1562.0</ele>
        <time>2018-09-15T12:21:56Z</time>
      </trkpt>
      <trkpt lat="40.263300" lon="-4.910817">
        <ele>1559.0</ele>
        <time>2018-09-15T12:21:57Z</time>
      </trkpt>
      <trkpt lat="40.263233" lon="-4.910750">
        <ele>1557.0</ele>
        <time>2018-09-15T12:21:58Z</time>
      </trkpt>
      <trkpt lat="40.263167" lon="-4.910683">
        <ele>1554.0</ele>
        <time>2018-09-15T12:21:59Z</time>
      </trkpt>
      <trkpt lat="40.263100" lon="-4.910617">
        <ele>1555.0</ele>
        <time>2018-09-15T12:22:00Z</time>
      </trkpt>
      <trkpt lat="40.263050" lon="-4.910550">
        <ele>1558.0</ele>
        <time>2018-09-15T12:22:01Z</time>
      </trkpt>
      <trkpt lat="40.263033" lon="-4.910500">
        <ele>1562.0</ele>
        <time>2018-09-15T12:22:02Z</time>
      </trkpt>
      <trkpt lat="40.263000" lon="-4.910467">
        <ele>1564.0</ele>
        <time>2018-09-15T12:22:03Z</time>
      </trkpt>
      <trkpt lat="40.262983" lon="-4.910433">
        <ele>1564.0</ele>
        <time>2018-09-15T12:22:04Z</time>
      </trkpt>
      <trkpt lat="40.262933" lon="-4.910383">
        <ele>1564.0</ele>
        <time>2018-09-15T12:22:05Z</time>
      </trkpt>
      <trkpt lat="40.262883" lon="-4.910333">
        <ele>1563.0</ele>
        <time>2018-09-15T12:22:06Z</time>
      </trkpt>
      <trkpt lat="40.262833" lon="-4.910300">
        <ele>1564.0</ele>
        <time>2018-09-15T12:22:07Z</time>
      </trkpt>
      <trkpt lat="40.262783" lon="-4.910267">
        <ele>1565.0</ele>
        <time>2018-09-15T12:22:08Z</time>
      </trkpt>
      <trkpt lat="40.262733" lon="-4.910250">
        <ele>1565.0</ele>
        <time>2018-09-15T12:22:09Z</time>
      </trkpt>
      <trkpt lat="40.262667" lon="-4.910250">
        <ele>1565.0</ele>
        <time>2018-09-15T12:22:10Z</time>
      </trkpt>
      <trkpt lat="40.262617" lon="-4.910267">
        <ele>1564.0</ele>
        <time>2018-09-15T12:22:11Z</time>
      </trkpt>
      <trkpt lat="40.262550" lon="-4.910267">
        <ele>1565.0</ele>
        <time>2018-09-15T12:22:12Z</time>
      </trkpt>
      <trkpt lat="40.262467" lon="-4.910267">
        <ele>1566.0</ele>
        <time>2018-09-15T12:22:13Z</time>
      </trkpt>
      <trkpt lat="40.262400" lon="-4.910283">
        <ele>1568.0</ele>
        <time>2018-09-15T12:22:14Z</time>
      </trkpt>
      <trkpt lat="40.262333" lon="-4.910300">
        <ele>1570.0</ele>
        <time>2018-09-15T12:22:15Z</time>
      </trkpt>
      <trkpt lat="40.262283" lon="-4.910300">
        <ele>1572.0</ele>
        <time>2018-09-15T12:22:16Z</time>
      </trkpt>
      <trkpt lat="40.262217" lon="-4.910317">
        <ele>1575.0</ele>
        <time>2018-09-15T12:22:17Z</time>
      </trkpt>
      <trkpt lat="40.262167" lon="-4.910317">
        <ele>1576.0</ele>
        <time>2018-09-15T12:22:18Z</time>
      </trkpt>
      <trkpt lat="40.262117" lon="-4.910300">
        <ele>1577.0</ele>
        <time>2018-09-15T12:22:19Z</time>
      </trkpt>
      <trkpt lat="40.262067" lon="-4.910283">
        <ele>1577.0</ele>
        <time>2018-09-15T12:22:20Z</time>
      </trkpt>
      <trkpt lat="40.262017" lon="-4.910250">
        <ele>1577.0</ele>
        <time>2018-09-15T12:22:21Z</time>
      </trkpt>
      <trkpt lat="40.261967" lon="-4.910217">
        <ele>1577.0</ele>
        <time>2018-09-15T12:22:22Z</time>
      </trkpt>
      <trkpt lat="40.261933" lon="-4.910167">
        <ele>1579.0</ele>
        <time>2018-09-15T12:22:23Z</time>
      </trkpt>
      <trkpt lat="40.261917" lon="-4.910133">
        <ele>1580.0</ele>
        <time>2018-09-15T12:22:24Z</time>
      </trkpt>
      <trkpt lat="40.261900" lon="-4.910083">
        <ele>1581.0</ele>
        <time>2018-09-15T12:22:25Z</time>
      </trkpt>
      <trkpt lat="40.261917" lon="-4.910017">
        <ele>1583.0</ele>
        <time>2018-09-15T12:22:26Z</time>
      </trkpt>
      <trkpt lat="40.261917" lon="-4.909950">
        <ele>1585.0</ele>
        <time>2018-09-15T12:22:27Z</time>
      </trkpt>
      <trkpt lat="40.261933" lon="-4.909900">
        <ele>1588.0</ele>
        <time>2018-09-15T12:22:28Z</time>
      </trkpt>
      <trkpt lat="40.261950" lon="-4.909833">
        <ele>1591.0</ele>
        <time>2018-09-15T12:22:29Z</time>
      </trkpt>
      <trkpt lat="40.261983" lon="-4.909783">
        <ele>1594.0</ele>
        <time>2018-09-15T12:22:30Z</time>
      </trkpt>
      <trkpt lat="40.262017" lon="-4.909750">
        <ele>1597.0</ele>
        <time>2018-09-15T12:22:31Z</time>
      </trkpt>
      <trkpt lat="40.262067" lon="-4.909717">
        <ele>1600.0</ele>
        <time>2018-09-15T12:22:32Z</time>
      </trkpt>
      <trkpt lat="40.262133" lon="-4.909700">
        <ele>1604.0</ele>
        <time>2018-09-15T12:22:33Z</time>
      </trkpt>
      <trkpt lat="40.262217" lon="-4.909683">
        <ele>1607.0</ele>
        <time>2018-09-15T12:22:34Z</time>
      </trkpt>
      <trkpt lat="40.262300" lon="-4.909700">
        <ele>1610.0</ele>
        <time>2018-09-15T12:22:35Z</time>
      </trkpt>
      <trkpt lat="40.262400" lon="-4.909767">
        <ele>1614.0</ele>
        <time>2018-09-15T12:22:36Z</time>
      </trkpt>
      <trkpt lat="40.262467" lon="-4.909867">
        <ele>1617.0</ele>
        <time>2018-09-15T12:22:37Z</time>
      </trkpt>
      <trkpt lat="40.262533" lon="-4.910000">
        <ele>1619.0</ele>
        <time>2018-09-15T12:22:38Z</time>
      </trkpt>
      <trkpt lat="40.262583" lon="-4.910167">
        <ele>1623.0</ele>
        <time>2018-09-15T12:22:39Z</time>
      </trkpt>
      <trkpt lat="40.262583" lon="-4.910333">
        <ele>1626.0</ele>
        <time>2018-09-15T12:22:40Z</time>
      </trkpt>
      <trkpt lat="40.262550" lon="-4.910500">
        <ele>1630.0</ele>
        <time>2018-09-15T12:22:41Z</time>
      </trkpt>
      <trkpt lat="40.262500" lon="-4.910650">
        <ele>1632.0</ele>
        <time>2018-09-15T12:22:42Z</time>
      </trkpt>
      <trkpt lat="40.262400" lon="-4.910750">
        <ele>1634.0</ele>
        <time>2018-09-15T12:22:43Z</time>
      </trkpt>
      <trkpt lat="40.262300" lon="-4.910800">
        <ele>1635.0</ele>
        <time>2018-09-15T12:22:44Z</time>
      </trkpt>
      <trkpt lat="40.262200" lon="-4.910783">
        <ele>1636.0</ele>
        <time>2018-09-15T12:22:45Z</time>
      </trkpt>
      <trkpt lat="40.262117" lon="-4.910733">
        <ele>1639.0</ele>
        <time>2018-09-15T12:22:46Z</time>
      </trkpt>
      <trkpt lat="40.262067" lon="-4.910683">
        <ele>1646.0</ele>
        <time>2018-09-15T12:22:47Z</time>
      </trkpt>
      <trkpt lat="40.262017" lon="-4.910667">
        <ele>1652.0</ele>
        <time>2018-09-15T12:22:48Z</time>
      </trkpt>
      <trkpt lat="40.262000" lon="-4.910683">
        <ele>1657.0</ele>
        <time>2018-09-15T12:22:49Z</time>
      </trkpt>
      <trkpt lat="40.261967" lon="-4.910683">
        <ele>1660.0</ele>
        <time>2018-09-15T12:22:50Z</time>
      </trkpt>
      <trkpt lat="40.261933" lon="-4.910667">
        <ele>1660.0</ele>
        <time>2018-09-15T12:22:51Z</time>
      </trkpt>
      <trkpt lat="40.261917" lon="-4.910617">
        <ele>1659.0</ele>
        <time>2018-09-15T12:22:52Z</time>
      </trkpt>
      <trkpt lat="40.261883" lon="-4.910550">
        <ele>1659.0</ele>
        <time>2018-09-15T12:22:53Z</time>
      </trkpt>
      <trkpt lat="40.261867" lon="-4.910450">
        <ele>1659.0</ele>
        <time>2018-09-15T12:22:54Z</time>
      </trkpt>
      <trkpt lat="40.261883" lon="-4.910367">
        <ele>1660.0</ele>
        <time>2018-09-15T12:22:55Z</time>
      </trkpt>
      <trkpt lat="40.261900" lon="-4.910283">
        <ele>1664.0</ele>
        <time>2018-09-15T12:22:56Z</time>
      </trkpt>
      <trkpt lat="40.261933" lon="-4.910233">
        <ele>1669.0</ele>
        <time>2018-09-15T12:22:57Z</time>
      </trkpt>
      <trkpt lat="40.261967" lon="-4.910183">
        <ele>1673.0</ele>
        <time>2018-09-15T12:22:58Z</time>
      </trkpt>
      <trkpt lat="40.261983" lon="-4.910150">
        <ele>1678.0</ele>
        <time>2018-09-15T12:22:59Z</time>
      </trkpt>
      <trkpt lat="40.262017" lon="-4.910100">
        <ele>1682.0</ele>
        <time>2018-09-15T12:23:00Z</time>
      </trkpt>
      <trkpt lat="40.262067" lon="-4.910067">
        <ele>1684.0</ele>
        <time>2018-09-15T12:23:01Z</time>
      </trkpt>
      <trkpt lat="40.262133" lon="-4.910033">
        <ele>1687.0</ele>
        <time>2018-09-15T12:23:02Z</time>
      </trkpt>
      <trkpt lat="40.262233" lon="-4.910000">
        <ele>1689.0</ele>
        <time>2018-09-15T12:23:03Z</time>
      </trkpt>
      <trkpt lat="40.262333" lon="-4.910000">
        <ele>1692.0</ele>
        <time>2018-09-15T12:23:04Z</time>
      </trkpt>
      <trkpt lat="40.262450" lon="-4.910017">
        <ele>1696.0</ele>
        <time>2018-09-15T12:23:05Z</time>
      </trkpt>
      <trkpt lat="40.262550" lon="-4.910083">
        <ele>1700.0</ele>
        <time>2018-09-15T12:23:06Z</time>
      </trkpt>
      <trkpt lat="40.262650" lon="-4.910200">
        <ele>1704.0</ele>
        <time>2018-09-15T12:23:07Z</time>
      </trkpt>
      <trkpt lat="40.262700" lon="-4.910333">
        <ele>1709.0</ele>
        <time>2018-09-15T12:23:08Z</time>
      </trkpt>
      <trkpt lat="40.262717" lon="-4.910450">
        <ele>1712.0</ele>
        <time>2018-09-15T12:23:09Z</time>
      </trkpt>
      <trkpt lat="40.262750" lon="-4.910567">
        <ele>1715.0</ele>
        <time>2018-09-15T12:23:10Z</time>
      </trkpt>
      <trkpt lat="40.262750" lon="-4.910700">
        <ele>1716.0</ele>
        <time>2018-09-15T12:23:11Z</time>
      </trkpt>
      <trkpt lat="40.262767" lon="-4.910833">
        <ele>1717.0</ele>
        <time>2018-09-15T12:23:12Z</time>
      </trkpt>
      <trkpt lat="40.262767" lon="-4.910983">
        <ele>1719.0</ele>
        <time>2018-09-15T12:23:13Z</time>
      </trkpt>
      <trkpt lat="40.262717" lon="-4.911133">
        <ele>1721.0</ele>
        <time>2018-09-15T12:23:14Z</time>
      </trkpt>
      <trkpt lat="40.262650" lon="-4.911250">
        <ele>1724.0</ele>
        <time>2018-09-15T12:23:15Z</time>
      </trkpt>
      <trkpt lat="40.262567" lon="-4.911317">
        <ele>1726.0</ele>
        <time>2018-09-15T12:23:16Z</time>
      </trkpt>
      <trkpt lat="40.262467" lon="-4.911350">
        <ele>1728.0</ele>
        <time>2018-09-15T12:23:17Z</time>
      </trkpt>
      <trkpt lat="40.262367" lon="-4.911333">
        <ele>1733.0</ele>
        <time>2018-09-15T12:23:18Z</time>
      </trkpt>
      <trkpt lat="40.262300" lon="-4.911300">
        <ele>1740.0</ele>
        <time>2018-09-15T12:23:19Z</time>
      </trkpt>
      <trkpt lat="40.262250" lon="-4.911267">
        <ele>1745.0</ele>
        <time>2018-09-15T12:23:20Z</time>
      </trkpt>
      <trkpt lat="40.262217" lon="-4.911250">
        <ele>1751.0</ele>
        <time>2018-09-15T12:23:21Z</time>
      </trkpt>
      <trkpt lat="40.262183" lon="-4.911250">
        <ele>1754.0</ele>
        <time>2018-09-15T12:23:22Z</time>
      </trkpt>
      <trkpt lat="40.262150" lon="-4.911233">
        <ele>1756.0</ele>
        <time>2018-09-15T12:23:23Z</time>
      </trkpt>
      <trkpt lat="40.262100" lon="-4.911183">
        <ele>1759.0</ele>
        <time>2018-09-15T12:23:24Z</time>
      </trkpt>
      <trkpt lat="40.262083" lon="-4.911117">
        <ele>1762.0</ele>
        <time>2018-09-15T12:23:25Z</time>
      </trkpt>
      <trkpt lat="40.262083" lon="-4.911050">
        <ele>1766.0</ele>
        <time>2018-09-15T12:23:26Z</time>
      </trkpt>
      <trkpt lat="40.262117" lon="-4.910983">
        <ele>1770.0</ele>
        <time>2018-09-15T12:23:27Z</time>
      </trkpt>
      <trkpt lat="40.262167" lon="-4.910933">
        <ele>1773.0</ele>
        <time>2018-09-15T12:23:28Z</time>
      </trkpt>
      <trkpt lat="40.262250" lon="-4.910900">
        <ele>1775.0</ele>
        <time>2018-09-15T12:23:29Z</time>
      </trkpt>
      <trkpt lat="40.262317" lon="-4.910883">
        <ele>1776.0</ele>
        <time>2018-09-15T12:23:30Z</time>
      </trkpt>
      <trkpt lat="40.262417" lon="-4.910867">
        <ele>1776.0</ele>
        <time>2018-09-15T12:23:31Z</time>
      </trkpt>
      <trkpt lat="40.262500" lon="-4.910833">
        <ele>1777.0</ele>
        <time>2018-09-15T12:23:32Z</time>
      </trkpt>
      <trkpt lat="40.262617" lon="-4.910817">
        <ele>1777.0</ele>
        <time>2018-09-15T12:23:33Z</time>
      </trkpt>
      <trkpt lat="40.262733" lon="-4.910833">
        <ele>1777.0</ele>
        <time>2018-09-15T12:23:34Z</time>
      </trkpt>
      <trkpt lat="40.262867" lon="-4.910883">
        <ele>1777.0</ele>
        <time>2018-09-15T12:23:35Z</time>
      </trkpt>
      <trkpt lat="40.262983" lon="-4.910950">
        <ele>1777.0</ele>
        <time>2018-09-15T12:23:36Z</time>
      </trkpt>
      <trkpt lat="40.263100" lon="-4.911033">
        <ele>1779.0</ele>
        <time>2018-09-15T12:23:37Z</time>
      </trkpt>
      <trkpt lat="40.263200" lon="-4.911117">
        <ele>1781.0</ele>
        <time>2018-09-15T12:23:38Z</time>
      </trkpt>
      <trkpt lat="40.263283" lon="-4.911233">
        <ele>1781.0</ele>
        <time>2018-09-15T12:23:39Z</time>
      </trkpt>
      <trkpt lat="40.263367" lon="-4.911367">
        <ele>1781.0</ele>
        <time>2018-09-15T12:23:40Z</time>
      </trkpt>
      <trkpt lat="40.263417" lon="-4.911533">
        <ele>1782.0</ele>
        <time>2018-09-15T12:23:41Z</time>
      </trkpt>
      <trkpt lat="40.263450" lon="-4.911683">
        <ele>1782.0</ele>
        <time>2018-09-15T12:23:42Z</time>
      </trkpt>
      <trkpt lat="40.263433" lon="-4.911833">
        <ele>1782.0</ele>
        <time>2018-09-15T12:23:43Z</time>
      </trkpt>
      <trkpt lat="40.263400" lon="-4.912000">
        <ele>1782.0</ele>
        <time>2018-09-15T12:23:44Z</time>
      </trkpt>
      <trkpt lat="40.263367" lon="-4.912150">
        <ele>1782.0</ele>
        <time>2018-09-15T12:23:45Z</time>
      </trkpt>
      <trkpt lat="40.263317" lon="-4.912283">
        <ele>1782.0</ele>
        <time>2018-09-15T12:23:46Z</time>
      </trkpt>
      <trkpt lat="40.263267" lon="-4.912433">
        <ele>1782.0</ele>
        <time>2018-09-15T12:23:47Z</time>
      </trkpt>
      <trkpt lat="40.263200" lon="-4.912550">
        <ele>1782.0</ele>
        <time>2018-09-15T12:23:48Z</time>
      </trkpt>
      <trkpt lat="40.263133" lon="-4.912667">
        <ele>1782.0</ele>
        <time>2018-09-15T12:23:49Z</time>
      </trkpt>
      <trkpt lat="40.263050" lon="-4.912783">
        <ele>1783.0</ele>
        <time>2018-09-15T12:23:50Z</time>
      </trkpt>
      <trkpt lat="40.262967" lon="-4.912900">
        <ele>1785.0</ele>
        <time>2018-09-15T12:23:51Z</time>
      </trkpt>
      <trkpt lat="40.262883" lon="-4.913000">
        <ele>1788.0</ele>
        <time>2018-09-15T12:23:52Z</time>
      </trkpt>
      <trkpt lat="40.262800" lon="-4.913067">
        <ele>1791.0</ele>
        <time>2018-09-15T12:23:53Z</time>
      </trkpt>
      <trkpt lat="40.262717" lon="-4.913133">
        <ele>1795.0</ele>
        <time>2018-09-15T12:23:54Z</time>
      </trkpt>
      <trkpt lat="40.262633" lon="-4.913200">
        <ele>1798.0</ele>
        <time>2018-09-15T12:23:55Z</time>
      </trkpt>
      <trkpt lat="40.262567" lon="-4.913267">
        <ele>1802.0</ele>
        <time>2018-09-15T12:23:56Z</time>
      </trkpt>
      <trkpt lat="40.262483" lon="-4.913333">
        <ele>1805.0</ele>
        <time>2018-09-15T12:23:57Z</time>
      </trkpt>
      <trkpt lat="40.262400" lon="-4.913400">
        <ele>1809.0</ele>
        <time>2018-09-15T12:23:58Z</time>
      </trkpt>
      <trkpt lat="40.262333" lon="-4.913467">
        <ele>1812.0</ele>
        <time>2018-09-15T12:23:59Z</time>
      </trkpt>
      <trkpt lat="40.262250" lon="-4.913500">
        <ele>1815.0</ele>
        <time>2018-09-15T12:24:00Z</time>
      </trkpt>
      <trkpt lat="40.262167" lon="-4.913533">
        <ele>1818.0</ele>
        <time>2018-09-15T12:24:01Z</time>
      </trkpt>
      <trkpt lat="40.262100" lon="-4.913550">
        <ele>1820.0</ele>
        <time>2018-09-15T12:24:02Z</time>
      </trkpt>
      <trkpt lat="40.262050" lon="-4.913550">
        <ele>1822.0</ele>
        <time>2018-09-15T12:24:03Z</time>
      </trkpt>
      <trkpt lat="40.262000" lon="-4.913533">
        <ele>1823.0</ele>
        <time>2018-09-15T12:24:04Z</time>
      </trkpt>
      <trkpt lat="40.261967" lon="-4.913500">
        <ele>1823.0</ele>
        <time>2018-09-15T12:24:05Z</time>
      </trkpt>
      <trkpt lat="40.261950" lon="-4.913433">
        <ele>1822.0</ele>
        <time>2018-09-15T12:24:06Z</time>
      </trkpt>
      <trkpt lat="40.261950" lon="-4.913367">
        <ele>1823.0</ele>
        <time>2018-09-15T12:24:07Z</time>
      </trkpt>
      <trkpt lat="40.261933" lon="-4.913283">
        <ele>1825.0</ele>
        <time>2018-09-15T12:24:08Z</time>
      </trkpt>
      <trkpt lat="40.261933" lon="-4.913217">
        <ele>1828.0</ele>
        <time>2018-09-15T12:24:09Z</time>
      </trkpt>
      <trkpt lat="40.261950" lon="-4.913167">
        <ele>1831.0</ele>
        <time>2018-09-15T12:24:10Z</time>
      </trkpt>
      <trkpt lat="40.261983" lon="-4.913117">
        <ele>1833.0</ele>
        <time>2018-09-15T12:24:11Z</time>
      </trkpt>
      <trkpt lat="40.262017" lon="-4.913067">
        <ele>1834.0</ele>
        <time>2018-09-15T12:24:12Z</time>
      </trkpt>
      <trkpt lat="40.262067" lon="-4.913000">
        <ele>1835.0</ele>
        <time>2018-09-15T12:24:13Z</time>
      </trkpt>
      <trkpt lat="40.262117" lon="-4.912933">
        <ele>1835.0</ele>
        <time>2018-09-15T12:24:14Z</time>
      </trkpt>
      <trkpt lat="40.262167" lon="-4.912833">
        <ele>1838.0</ele>
        <time>2018-09-15T12:24:15Z</time>
      </trkpt>
      <trkpt lat="40.262233" lon="-4.912750">
        <ele>1841.0</ele>
        <time>2018-09-15T12:24:16Z</time>
      </trkpt>
      <trkpt lat="40.262300" lon="-4.912683">
        <ele>1846.0</ele>
        <time>2018-09-15T12:24:17Z</time>
      </trkpt>
      <trkpt lat="40.262350" lon="-4.912650">
        <ele>1851.0</ele>
        <time>2018-09-15T12:24:18Z</time>
      </trkpt>
      <trkpt lat="40.262417" lon="-4.912617">
        <ele>1854.0</ele>
        <time>2018-09-15T12:24:19Z</time>
      </trkpt>
      <trkpt lat="40.262500" lon="-4.912617">
        <ele>1855.0</ele>
        <time>2018-09-15T12:24:20Z</time>
      </trkpt>
      <trkpt lat="40.262583" lon="-4.912600">
        <ele>1855.0</ele>
        <time>2018-09-15T12:24:21Z</time>
      </trkpt>
      <trkpt lat="40.262700" lon="-4.912600">
        <ele>1854.0</ele>
        <time>2018-09-15T12:24:22Z</time>
      </trkpt>
      <trkpt lat="40.262817" lon="-4.912633">
        <ele>1854.0</ele>
        <time>2018-09-15T12:24:23Z</time>
      </trkpt>
      <trkpt lat="40.262950" lon="-4.912667">
        <ele>1856.0</ele>
        <time>2018-09-15T12:24:24Z</time>
      </trkpt>
      <trkpt lat="40.263067" lon="-4.912733">
        <ele>1856.0</ele>
        <time>2018-09-15T12:24:25Z</time>
      </trkpt>
      <trkpt lat="40.263167" lon="-4.912833">
        <ele>1857.0</ele>
        <time>2018-09-15T12:24:26Z</time>
      </trkpt>
      <trkpt lat="40.263267" lon="-4.912967">
        <ele>1856.0</ele>
        <time>2018-09-15T12:24:27Z</time>
      </trkpt>
      <trkpt lat="40.263350" lon="-4.913117">
        <ele>1856.0</ele>
        <time>2018-09-15T12:24:28Z</time>
      </trkpt>
      <trkpt lat="40.263383" lon="-4.913300">
        <ele>1855.0</ele>
        <time>2018-09-15T12:24:29Z</time>
      </trkpt>
      <trkpt lat="40.263383" lon="-4.913467">
        <ele>1856.0</ele>
        <time>2018-09-15T12:24:30Z</time>
      </trkpt>
      <trkpt lat="40.263350" lon="-4.913633">
        <ele>1857.0</ele>
        <time>2018-09-15T12:24:31Z</time>
      </trkpt>
      <trkpt lat="40.263300" lon="-4.913767">
        <ele>1858.0</ele>
        <time>2018-09-15T12:24:32Z</time>
      </trkpt>
      <trkpt lat="40.263217" lon="-4.913867">
        <ele>1858.0</ele>
        <time>2018-09-15T12:24:33Z</time>
      </trkpt>
      <trkpt lat="40.263133" lon="-4.913933">
        <ele>1857.0</ele>
        <time>2018-09-15T12:24:34Z</time>
      </trkpt>
      <trkpt lat="40.263033" lon="-4.913950">
        <ele>1857.0</ele>
        <time>2018-09-15T12:24:35Z</time>
      </trkpt>
      <trkpt lat="40.262933" lon="-4.913933">
        <ele>1857.0</ele>
        <time>2018-09-15T12:24:36Z</time>
      </trkpt>
      <trkpt lat="40.262867" lon="-4.913883">
        <ele>1858.0</ele>
        <time>2018-09-15T12:24:37Z</time>
      </trkpt>
      <trkpt lat="40.262817" lon="-4.913800">
        <ele>1860.0</ele>
        <time>2018-09-15T12:24:38Z</time>
      </trkpt>
      <trkpt lat="40.262800" lon="-4.913700">
        <ele>1862.0</ele>
        <time>2018-09-15T12:24:39Z</time>
      </trkpt>
      <trkpt lat="40.262817" lon="-4.913600">
        <ele>1865.0</ele>
        <time>2018-09-15T12:24:40Z</time>
      </trkpt>
      <trkpt lat="40.262833" lon="-4.913517">
        <ele>1868.0</ele>
        <time>2018-09-15T12:24:41Z</time>
      </trkpt>
      <trkpt lat="40.262850" lon="-4.913433">
        <ele>1870.0</ele>
        <time>2018-09-15T12:24:42Z</time>
      </trkpt>
      <trkpt lat="40.262883" lon="-4.913350">
        <ele>1872.0</ele>
        <time>2018-09-15T12:24:43Z</time>
      </trkpt>
      <trkpt lat="40.262933" lon="-4.913267">
        <ele>1873.0</ele>
        <time>2018-09-15T12:24:44Z</time>
      </trkpt>
      <trkpt lat="40.262967" lon="-4.913183">
        <ele>1874.0</ele>
        <time>2018-09-15T12:24:45Z</time>
      </trkpt>
      <trkpt lat="40.263017" lon="-4.913117">
        <ele>1876.0</ele>
        <time>2018-09-15T12:24:46Z</time>
      </trkpt>
      <trkpt lat="40.263083" lon="-4.913050">
        <ele>1878.0</ele>
        <time>2018-09-15T12:24:47Z</time>
      </trkpt>
      <trkpt lat="40.263133" lon="-4.912983">
        <ele>1881.0</ele>
        <time>2018-09-15T12:24:48Z</time>
      </trkpt>
      <trkpt lat="40.263167" lon="-4.912917">
        <ele>1882.0</ele>
        <time>2018-09-15T12:24:49Z</time>
      </trkpt>
      <trkpt lat="40.263217" lon="-4.912867">
        <ele>1883.0</ele>
        <time>2018-09-15T12:24:50Z</time>
      </trkpt>
      <trkpt lat="40.263250" lon="-4.912817">
        <ele>1883.0</ele>
        <time>2018-09-15T12:24:51Z</time>
      </trkpt>
      <trkpt lat="40.263317" lon="-4.912783">
        <ele>1882.0</ele>
        <time>2018-09-15T12:24:52Z</time>
      </trkpt>
      <trkpt lat="40.263383" lon="-4.912733">
        <ele>1881.0</ele>
        <time>2018-09-15T12:24:53Z</time>
      </trkpt>
      <trkpt lat="40.263467" lon="-4.912717">
        <ele>1880.0</ele>
        <time>2018-09-15T12:24:54Z</time>
      </trkpt>
      <trkpt lat="40.263567" lon="-4.912733">
        <ele>1879.0</ele>
        <time>2018-09-15T12:24:55Z</time>
      </trkpt>
      <trkpt lat="40.263683" lon="-4.912800">
        <ele>1878.0</ele>
        <time>2018-09-15T12:24:56Z</time>
      </trkpt>
      <trkpt lat="40.263783" lon="-4.912883">
        <ele>1878.0</ele>
        <time>2018-09-15T12:24:57Z</time>
      </trkpt>
      <trkpt lat="40.263867" lon="-4.912967">
        <ele>1879.0</ele>
        <time>2018-09-15T12:24:58Z</time>
      </trkpt>
      <trkpt lat="40.263933" lon="-4.913050">
        <ele>1880.0</ele>
        <time>2018-09-15T12:24:59Z</time>
      </trkpt>
      <trkpt lat="40.264017" lon="-4.913100">
        <ele>1880.0</ele>
        <time>2018-09-15T12:25:00Z</time>
      </trkpt>
      <trkpt lat="40.264100" lon="-4.913133">
        <ele>1881.0</ele>
        <time>2018-09-15T12:25:01Z</time>
      </trkpt>
      <trkpt lat="40.264183" lon="-4.913133">
        <ele>1880.0</ele>
        <time>2018-09-15T12:25:02Z</time>
      </trkpt>
      <trkpt lat="40.264267" lon="-4.913100">
        <ele>1881.0</ele>
        <time>2018-09-15T12:25:03Z</time>
      </trkpt>
      <trkpt lat="40.264333" lon="-4.913033">
        <ele>1880.0</ele>
        <time>2018-09-15T12:25:04Z</time>
      </trkpt>
      <trkpt lat="40.264333" lon="-4.912950">
        <ele>1879.0</ele>
        <time>2018-09-15T12:25:05Z</time>
      </trkpt>
      <trkpt lat="40.264300" lon="-4.912850">
        <ele>1876.0</ele>
        <time>2018-09-15T12:25:06Z</time>
      </trkpt>
      <trkpt lat="40.264250" lon="-4.912750">
        <ele>1874.0</ele>
        <time>2018-09-15T12:25:07Z</time>
      </trkpt>
      <trkpt lat="40.264183" lon="-4.912650">
        <ele>1874.0</ele>
        <time>2018-09-15T12:25:08Z</time>
      </trkpt>
      <trkpt lat="40.264133" lon="-4.912567">
        <ele>1875.0</ele>
        <time>2018-09-15T12:25:09Z</time>
      </trkpt>
      <trkpt lat="40.264083" lon="-4.912500">
        <ele>1875.0</ele>
        <time>2018-09-15T12:25:10Z</time>
      </trkpt>
      <trkpt lat="40.264033" lon="-4.912433">
        <ele>1874.0</ele>
        <time>2018-09-15T12:25:11Z</time>
      </trkpt>
      <trkpt lat="40.263967" lon="-4.912383">
        <ele>1872.0</ele>
        <time>2018-09-15T12:25:12Z</time>
      </trkpt>
      <trkpt lat="40.263917" lon="-4.912317">
        <ele>1871.0</ele>
        <time>2018-09-15T12:25:13Z</time>
      </trkpt>
      <trkpt lat="40.263850" lon="-4.912217">
        <ele>1869.0</ele>
        <time>2018-09-15T12:25:14Z</time>
      </trkpt>
      <trkpt lat="40.263800" lon="-4.912133">
        <ele>1870.0</ele>
        <time>2018-09-15T12:25:15Z</time>
      </trkpt>
      <trkpt lat="40.263733" lon="-4.912067">
        <ele>1871.0</ele>
        <time>2018-09-15T12:25:16Z</time>
      </trkpt>
      <trkpt lat="40.263683" lon="-4.912033">
        <ele>1871.0</ele>
        <time>2018-09-15T12:25:17Z</time>
      </trkpt>
      <trkpt lat="40.263617" lon="-4.912000">
        <ele>1870.0</ele>
        <time>2018-09-15T12:25:18Z</time>
      </trkpt>
      <trkpt lat="40.263567" lon="-4.911967">
        <ele>1868.0</ele>
        <time>2018-09-15T12:25:19Z</time>
      </trkpt>
      <trkpt lat="40.263500" lon="-4.911900">
        <ele>1865.0</ele>
        <time>2018-09-15T12:25:20Z</time>
      </trkpt>
      <trkpt lat="40.263450" lon="-4.911833">
        <ele>1863.0</ele>
        <time>2018-09-15T12:25:21Z</time>
      </trkpt>
      <trkpt lat="40.263417" lon="-4.911750">
        <ele>1861.0</ele>
        <time>2018-09-15T12:25:22Z</time>
      </trkpt>
      <trkpt lat="40.263417" lon="-4.911650">
        <ele>1859.0</ele>
        <time>2018-09-15T12:25:23Z</time>
      </trkpt>
      <trkpt lat="40.263433" lon="-4.911583">
        <ele>1856.0</ele>
        <time>2018-09-15T12:25:24Z</time>
      </trkpt>
      <trkpt lat="40.263500" lon="-4.911533">
        <ele>1854.0</ele>
        <time>2018-09-15T12:25:25Z</time>
      </trkpt>
      <trkpt lat="40.263567" lon="-4.911500">
        <ele>1852.0</ele>
        <time>2018-09-15T12:25:26Z</time>
      </trkpt>
      <trkpt lat="40.263650" lon="-4.911517">
        <ele>1850.0</ele>
        <time>2018-09-15T12:25:27Z</time>
      </trkpt>
      <trkpt lat="40.263733" lon="-4.911567">
        <ele>1849.0</ele>
        <time>2018-09-15T12:25:28Z</time>
      </trkpt>
      <trkpt lat="40.263817" lon="-4.911667">
        <ele>1848.0</ele>
        <time>2018-09-15T12:25:29Z</time>
      </trkpt>
      <trkpt lat="40.263867" lon="-4.911783">
        <ele>1848.0</ele>
        <time>2018-09-15T12:25:30Z</time>
      </trkpt>
      <trkpt lat="40.263900" lon="-4.911900">
        <ele>1848.0</ele>
        <time>2018-09-15T12:25:31Z</time>
      </trkpt>
      <trkpt lat="40.263917" lon="-4.912017">
        <ele>1848.0</ele>
        <time>2018-09-15T12:25:32Z</time>
      </trkpt>
      <trkpt lat="40.263933" lon="-4.912150">
        <ele>1845.0</ele>
        <time>2018-09-15T12:25:33Z</time>
      </trkpt>
      <trkpt lat="40.263933" lon="-4.912283">
        <ele>1841.0</ele>
        <time>2018-09-15T12:25:34Z</time>
      </trkpt>
      <trkpt lat="40.263933" lon="-4.912433">
        <ele>1838.0</ele>
        <time>2018-09-15T12:25:35Z</time>
      </trkpt>
      <trkpt lat="40.263933" lon="-4.912567">
        <ele>1836.0</ele>
        <time>2018-09-15T12:25:36Z</time>
      </trkpt>
      <trkpt lat="40.263933" lon="-4.912717">
        <ele>1834.0</ele>
        <time>2018-09-15T12:25:37Z</time>
      </trkpt>
      <trkpt lat="40.263917" lon="-4.912850">
        <ele>1833.0</ele>
        <time>2018-09-15T12:25:38Z</time>
      </trkpt>
      <trkpt lat="40.263900" lon="-4.912983">
        <ele>1831.0</ele>
        <time>2018-09-15T12:25:39Z</time>
      </trkpt>
      <trkpt lat="40.263883" lon="-4.913133">
        <ele>1829.0</ele>
        <time>2018-09-15T12:25:40Z</time>
      </trkpt>
      <trkpt lat="40.263850" lon="-4.913283">
        <ele>1826.0</ele>
        <time>2018-09-15T12:25:41Z</time>
      </trkpt>
      <trkpt lat="40.263817" lon="-4.913433">
        <ele>1824.0</ele>
        <time>2018-09-15T12:25:42Z</time>
      </trkpt>
      <trkpt lat="40.263800" lon="-4.913583">
        <ele>1822.0</ele>
        <time>2018-09-15T12:25:43Z</time>
      </trkpt>
      <trkpt lat="40.263767" lon="-4.913733">
        <ele>1821.0</ele>
        <time>2018-09-15T12:25:44Z</time>
      </trkpt>
      <trkpt lat="40.263750" lon="-4.913900">
        <ele>1819.0</ele>
        <time>2018-09-15T12:25:45Z</time>
      </trkpt>
      <trkpt lat="40.263733" lon="-4.914067">
        <ele>1818.0</ele>
        <time>2018-09-15T12:25:46Z</time>
      </trkpt>
      <trkpt lat="40.263717" lon="-4.914217">
        <ele>1817.0</ele>
        <time>2018-09-15T12:25:47Z</time>
      </trkpt>
      <trkpt lat="40.263700" lon="-4.914383">
        <ele>1816.0</ele>
        <time>2018-09-15T12:25:48Z</time>
      </trkpt>
      <trkpt lat="40.263667" lon="-4.914533">
        <ele>1816.0</ele>
        <time>2018-09-15T12:25:49Z</time>
      </trkpt>
      <trkpt lat="40.263650" lon="-4.914683">
        <ele>1815.0</ele>
        <time>2018-09-15T12:25:50Z</time>
      </trkpt>
      <trkpt lat="40.263650" lon="-4.914850">
        <ele>1814.0</ele>
        <time>2018-09-15T12:25:51Z</time>
      </trkpt>
      <trkpt lat="40.263633" lon="-4.915017">
        <ele>1813.0</ele>
        <time>2018-09-15T12:25:52Z</time>
      </trkpt>
      <trkpt lat="40.263650" lon="-4.915183">
        <ele>1812.0</ele>
        <time>2018-09-15T12:25:53Z</time>
      </trkpt>
      <trkpt lat="40.263650" lon="-4.915350">
        <ele>1811.0</ele>
        <time>2018-09-15T12:25:54Z</time>
      </trkpt>
      <trkpt lat="40.263683" lon="-4.915500">
        <ele>1811.0</ele>
        <time>2018-09-15T12:25:55Z</time>
      </trkpt>
      <trkpt lat="40.263750" lon="-4.915650">
        <ele>1810.0</ele>
        <time>2018-09-15T12:25:56Z</time>
      </trkpt>
      <trkpt lat="40.263833" lon="-4.915750">
        <ele>1809.0</ele>
        <time>2018-09-15T12:25:57Z</time>
      </trkpt>
      <trkpt lat="40.263917" lon="-4.915817">
        <ele>1809.0</ele>
        <time>2018-09-15T12:25:58Z</time>
      </trkpt>
      <trkpt lat="40.264017" lon="-4.915850">
        <ele>1809.0</ele>
        <time>2018-09-15T12:25:59Z</time>
      </trkpt>
      <trkpt lat="40.264083" lon="-4.915883">
        <ele>1810.0</ele>
        <time>2018-09-15T12:26:00Z</time>
      </trkpt>
      <trkpt lat="40.264150" lon="-4.915883">
        <ele>1809.0</ele>
        <time>2018-09-15T12:26:01Z</time>
      </trkpt>
      <trkpt lat="40.264217" lon="-4.915867">
        <ele>1808.0</ele>
        <time>2018-09-15T12:26:02Z</time>
      </trkpt>
      <trkpt lat="40.264283" lon="-4.915833">
        <ele>1806.0</ele>
        <time>2018-09-15T12:26:03Z</time>
      </trkpt>
      <trkpt lat="40.264350" lon="-4.915783">
        <ele>1805.0</ele>
        <time>2018-09-15T12:26:04Z</time>
      </trkpt>
      <trkpt lat="40.264417" lon="-4.915700">
        <ele>1804.0</ele>
        <time>2018-09-15T12:26:05Z</time>
      </trkpt>
      <trkpt lat="40.264450" lon="-4.915617">
        <ele>1803.0</ele>
        <time>2018-09-15T12:26:06Z</time>
      </trkpt>
      <trkpt lat="40.264483" lon="-4.915533">
        <ele>1802.0</ele>
        <time>2018-09-15T12:26:07Z</time>
      </trkpt>
      <trkpt lat="40.264517" lon="-4.915450">
        <ele>1802.0</ele>
        <time>2018-09-15T12:26:08Z</time>
      </trkpt>
      <trkpt lat="40.264517" lon="-4.915350">
        <ele>1801.0</ele>
        <time>2018-09-15T12:26:09Z</time>
      </trkpt>
      <trkpt lat="40.264517" lon="-4.915267">
        <ele>1800.0</ele>
        <time>2018-09-15T12:26:10Z</time>
      </trkpt>
      <trkpt lat="40.264517" lon="-4.915183">
        <ele>1799.0</ele>
        <time>2018-09-15T12:26:11Z</time>
      </trkpt>
      <trkpt lat="40.264517" lon="-4.915100">
        <ele>1797.0</ele>
        <time>2018-09-15T12:26:12Z</time>
      </trkpt>
      <trkpt lat="40.264517" lon="-4.915017">
        <ele>1794.0</ele>
        <time>2018-09-15T12:26:13Z</time>
      </trkpt>
      <trkpt lat="40.264533" lon="-4.914917">
        <ele>1791.0</ele>
        <time>2018-09-15T12:26:14Z</time>
      </trkpt>
      <trkpt lat="40.264533" lon="-4.914800">
        <ele>1788.0</ele>
        <time>2018-09-15T12:26:15Z</time>
      </trkpt>
      <trkpt lat="40.264517" lon="-4.914700">
        <ele>1786.0</ele>
        <time>2018-09-15T12:26:16Z</time>
      </trkpt>
      <trkpt lat="40.264500" lon="-4.914583">
        <ele>1784.0</ele>
        <time>2018-09-15T12:26:17Z</time>
      </trkpt>
      <trkpt lat="40.264483" lon="-4.914500">
        <ele>1782.0</ele>
        <time>2018-09-15T12:26:18Z</time>
      </trkpt>
      <trkpt lat="40.264483" lon="-4.914400">
        <ele>1780.0</ele>
        <time>2018-09-15T12:26:19Z</time>
      </trkpt>
      <trkpt lat="40.264483" lon="-4.914300">
        <ele>1778.0</ele>
        <time>2018-09-15T12:26:20Z</time>
      </trkpt>
      <trkpt lat="40.264500" lon="-4.914217">
        <ele>1777.0</ele>
        <time>2018-09-15T12:26:21Z</time>
      </trkpt>
      <trkpt lat="40.264517" lon="-4.914117">
        <ele>1777.0</ele>
        <time>2018-09-15T12:26:22Z</time>
      </trkpt>
      <trkpt lat="40.264567" lon="-4.914050">
        <ele>1776.0</ele>
        <time>2018-09-15T12:26:23Z</time>
      </trkpt>
      <trkpt lat="40.264600" lon="-4.913983">
        <ele>1774.0</ele>
        <time>2018-09-15T12:26:24Z</time>
      </trkpt>
      <trkpt lat="40.264633" lon="-4.913917">
        <ele>1773.0</ele>
        <time>2018-09-15T12:26:25Z</time>
      </trkpt>
      <trkpt lat="40.264667" lon="-4.913833">
        <ele>1770.0</ele>
        <time>2018-09-15T12:26:26Z</time>
      </trkpt>
      <trkpt lat="40.264700" lon="-4.913750">
        <ele>1768.0</ele>
        <time>2018-09-15T12:26:27Z</time>
      </trkpt>
      <trkpt lat="40.264750" lon="-4.913667">
        <ele>1767.0</ele>
        <time>2018-09-15T12:26:28Z</time>
      </trkpt>
      <trkpt lat="40.264767" lon="-4.913600">
        <ele>1767.0</ele>
        <time>2018-09-15T12:26:29Z</time>
      </trkpt>
      <trkpt lat="40.264783" lon="-4.913533">
        <ele>1766.0</ele>
        <time>2018-09-15T12:26:30Z</time>
      </trkpt>
      <trkpt lat="40.264817" lon="-4.913450">
        <ele>1765.0</ele>
        <time>2018-09-15T12:26:31Z</time>
      </trkpt>
      <trkpt lat="40.264850" lon="-4.913383">
        <ele>1762.0</ele>
        <time>2018-09-15T12:26:32Z</time>
      </trkpt>
      <trkpt lat="40.264883" lon="-4.913333">
        <ele>1759.0</ele>
        <time>2018-09-15T12:26:33Z</time>
      </trkpt>
      <trkpt lat="40.264933" lon="-4.913267">
        <ele>1756.0</ele>
        <time>2018-09-15T12:26:34Z</time>
      </trkpt>
      <trkpt lat="40.265000" lon="-4.913183">
        <ele>1755.0</ele>
        <time>2018-09-15T12:26:35Z</time>
      </trkpt>
      <trkpt lat="40.265050" lon="-4.913100">
        <ele>1754.0</ele>
        <time>2018-09-15T12:26:36Z</time>
      </trkpt>
      <trkpt lat="40.265083" lon="-4.913033">
        <ele>1754.0</ele>
        <time>2018-09-15T12:26:37Z</time>
      </trkpt>
      <trkpt lat="40.265117" lon="-4.912983">
        <ele>1755.0</ele>
        <time>2018-09-15T12:26:38Z</time>
      </trkpt>
      <trkpt lat="40.265133" lon="-4.912917">
        <ele>1754.0</ele>
        <time>2018-09-15T12:26:39Z</time>
      </trkpt>
      <trkpt lat="40.265167" lon="-4.912867">
        <ele>1753.0</ele>
        <time>2018-09-15T12:26:40Z</time>
      </trkpt>
      <trkpt lat="40.265183" lon="-4.912800">
        <ele>1752.0</ele>
        <time>2018-09-15T12:26:41Z</time>
      </trkpt>
      <trkpt lat="40.265217" lon="-4.912733">
        <ele>1751.0</ele>
        <time>2018-09-15T12:26:42Z</time>
      </trkpt>
      <trkpt lat="40.265250" lon="-4.912683">
        <ele>1750.0</ele>
        <time>2018-09-15T12:26:43Z</time>
      </trkpt>
      <trkpt lat="40.265283" lon="-4.912633">
        <ele>1749.0</ele>
        <time>2018-09-15T12:26:44Z</time>
      </trkpt>
      <trkpt lat="40.265317" lon="-4.912583">
        <ele>1748.0</ele>
        <time>2018-09-15T12:26:45Z</time>
      </trkpt>
      <trkpt lat="40.265367" lon="-4.912533">
        <ele>1746.0</ele>
        <time>2018-09-15T12:26:46Z</time>
      </trkpt>
      <trkpt lat="40.265400" lon="-4.912483">
        <ele>1745.0</ele>
        <time>2018-09-15T12:26:47Z</time>
      </trkpt>
      <trkpt lat="40.265450" lon="-4.912433">
        <ele>1743.0</ele>
        <time>2018-09-15T12:26:48Z</time>
      </trkpt>
      <trkpt lat="40.265467" lon="-4.912367">
        <ele>1741.0</ele>
        <time>2018-09-15T12:26:49Z</time>
      </trkpt>
      <trkpt lat="40.265500" lon="-4.912300">
        <ele>1739.0</ele>
        <time>2018-09-15T12:26:50Z</time>
      </trkpt>
      <trkpt lat="40.265517" lon="-4.912233">
        <ele>1737.0</ele>
        <time>2018-09-15T12:26:51Z</time>
      </trkpt>
      <trkpt lat="40.265550" lon="-4.912167">
        <ele>1736.0</ele>
        <time>2018-09-15T12:26:52Z</time>
      </trkpt>
      <trkpt lat="40.265600" lon="-4.912100">
        <ele>1734.0</ele>
        <time>2018-09-15T12:26:53Z</time>
      </trkpt>
      <trkpt lat="40.265650" lon="-4.912050">
        <ele>1732.0</ele>
        <time>2018-09-15T12:26:54Z</time>
      </trkpt>
      <trkpt lat="40.265717" lon="-4.911983">
        <ele>1730.0</ele>
        <time>2018-09-15T12:26:55Z</time>
      </trkpt>
      <trkpt lat="40.265767" lon="-4.911933">
        <ele>1729.0</ele>
        <time>2018-09-15T12:26:56Z</time>
      </trkpt>
      <trkpt lat="40.265833" lon="-4.911883">
        <ele>1727.0</ele>
        <time>2018-09-15T12:26:57Z</time>
      </trkpt>
      <trkpt lat="40.265883" lon="-4.911850">
        <ele>1726.0</ele>
        <time>2018-09-15T12:26:58Z</time>
      </trkpt>
      <trkpt lat="40.265950" lon="-4.911800">
        <ele>1723.0</ele>
        <time>2018-09-15T12:26:59Z</time>
      </trkpt>
      <trkpt lat="40.266017" lon="-4.911767">
        <ele>1721.0</ele>
        <time>2018-09-15T12:27:00Z</time>
      </trkpt>
      <trkpt lat="40.266083" lon="-4.911733">
        <ele>1718.0</ele>
        <time>2018-09-15T12:27:01Z</time>
      </trkpt>
      <trkpt lat="40.266167" lon="-4.911683">
        <ele>1716.0</ele>
        <time>2018-09-15T12:27:02Z</time>
      </trkpt>
      <trkpt lat="40.266233" lon="-4.911633">
        <ele>1714.0</ele>
        <time>2018-09-15T12:27:03Z</time>
      </trkpt>
      <trkpt lat="40.266283" lon="-4.911600">
        <ele>1712.0</ele>
        <time>2018-09-15T12:27:04Z</time>
      </trkpt>
      <trkpt lat="40.266350" lon="-4.911550">
        <ele>1711.0</ele>
        <time>2018-09-15T12:27:05Z</time>
      </trkpt>
      <trkpt lat="40.266417" lon="-4.911517">
        <ele>1710.0</ele>
        <time>2018-09-15T12:27:06Z</time>
      </trkpt>
      <trkpt lat="40.266467" lon="-4.911483">
        <ele>1708.0</ele>
        <time>2018-09-15T12:27:07Z</time>
      </trkpt>
      <trkpt lat="40.266533" lon="-4.911467">
        <ele>1706.0</ele>
        <time>2018-09-15T12:27:08Z</time>
      </trkpt>
      <trkpt lat="40.266583" lon="-4.911433">
        <ele>1704.0</ele>
        <time>2018-09-15T12:27:09Z</time>
      </trkpt>
      <trkpt lat="40.266650" lon="-4.911417">
        <ele>1701.0</ele>
        <time>2018-09-15T12:27:10Z</time>
      </trkpt>
      <trkpt lat="40.266733" lon="-4.911367">
        <ele>1698.0</ele>
        <time>2018-09-15T12:27:11Z</time>
      </trkpt>
      <trkpt lat="40.266800" lon="-4.911317">
        <ele>1697.0</ele>
        <time>2018-09-15T12:27:12Z</time>
      </trkpt>
      <trkpt lat="40.266850" lon="-4.911250">
        <ele>1697.0</ele>
        <time>2018-09-15T12:27:13Z</time>
      </trkpt>
      <trkpt lat="40.266900" lon="-4.911200">
        <ele>1697.0</ele>
        <time>2018-09-15T12:27:14Z</time>
      </trkpt>
      <trkpt lat="40.266933" lon="-4.911150">
        <ele>1696.0</ele>
        <time>2018-09-15T12:27:15Z</time>
      </trkpt>
      <trkpt lat="40.266950" lon="-4.911100">
        <ele>1694.0</ele>
        <time>2018-09-15T12:27:16Z</time>
      </trkpt>
      <trkpt lat="40.267000" lon="-4.911033">
        <ele>1692.0</ele>
        <time>2018-09-15T12:27:17Z</time>
      </trkpt>
      <trkpt lat="40.267050" lon="-4.910983">
        <ele>1689.0</ele>
        <time>2018-09-15T12:27:18Z</time>
      </trkpt>
      <trkpt lat="40.267117" lon="-4.910933">
        <ele>1688.0</ele>
        <time>2018-09-15T12:27:19Z</time>
      </trkpt>
      <trkpt lat="40.267183" lon="-4.910883">
        <ele>1687.0</ele>
        <time>2018-09-15T12:27:20Z</time>
      </trkpt>
      <trkpt lat="40.267233" lon="-4.910850">
        <ele>1686.0</ele>
        <time>2018-09-15T12:27:21Z</time>
      </trkpt>
      <trkpt lat="40.267267" lon="-4.910800">
        <ele>1685.0</ele>
        <time>2018-09-15T12:27:22Z</time>
      </trkpt>
      <trkpt lat="40.267317" lon="-4.910750">
        <ele>1682.0</ele>
        <time>2018-09-15T12:27:23Z</time>
      </trkpt>
      <trkpt lat="40.267367" lon="-4.910700">
        <ele>1679.0</ele>
        <time>2018-09-15T12:27:24Z</time>
      </trkpt>
      <trkpt lat="40.267433" lon="-4.910650">
        <ele>1677.0</ele>
        <time>2018-09-15T12:27:25Z</time>
      </trkpt>
      <trkpt lat="40.267517" lon="-4.910617">
        <ele>1675.0</ele>
        <time>2018-09-15T12:27:26Z</time>
      </trkpt>
      <trkpt lat="40.267583" lon="-4.910583">
        <ele>1674.0</ele>
        <time>2018-09-15T12:27:27Z</time>
      </trkpt>
      <trkpt lat="40.267650" lon="-4.910550">
        <ele>1674.0</ele>
        <time>2018-09-15T12:27:28Z</time>
      </trkpt>
      <trkpt lat="40.267717" lon="-4.910533">
        <ele>1673.0</ele>
        <time>2018-09-15T12:27:29Z</time>
      </trkpt>
      <trkpt lat="40.267767" lon="-4.910500">
        <ele>1671.0</ele>
        <time>2018-09-15T12:27:30Z</time>
      </trkpt>
      <trkpt lat="40.267833" lon="-4.910483">
        <ele>1668.0</ele>
        <time>2018-09-15T12:27:31Z</time>
      </trkpt>
      <trkpt lat="40.267917" lon="-4.910467">
        <ele>1665.0</ele>
        <time>2018-09-15T12:27:32Z</time>
      </trkpt>
      <trkpt lat="40.267983" lon="-4.910433">
        <ele>1663.0</ele>
        <time>2018-09-15T12:27:33Z</time>
      </trkpt>
      <trkpt lat="40.268050" lon="-4.910383">
        <ele>1660.0</ele>
        <time>2018-09-15T12:27:34Z</time>
      </trkpt>
      <trkpt lat="40.268117" lon="-4.910333">
        <ele>1659.0</ele>
        <time>2018-09-15T12:27:35Z</time>
      </trkpt>
      <trkpt lat="40.268150" lon="-4.910267">
        <ele>1658.0</ele>
        <time>2018-09-15T12:27:36Z</time>
      </trkpt>
      <trkpt lat="40.268183" lon="-4.910217">
        <ele>1657.0</ele>
        <time>2018-09-15T12:27:37Z</time>
      </trkpt>
      <trkpt lat="40.268217" lon="-4.910167">
        <ele>1654.0</ele>
        <time>2018-09-15T12:27:38Z</time>
      </trkpt>
      <trkpt lat="40.268250" lon="-4.910100">
        <ele>1651.0</ele>
        <time>2018-09-15T12:27:39Z</time>
      </trkpt>
      <trkpt lat="40.268300" lon="-4.910050">
        <ele>1646.0</ele>
        <time>2018-09-15T12:27:40Z</time>
      </trkpt>
      <trkpt lat="40.268350" lon="-4.909983">
        <ele>1642.0</ele>
        <time>2018-09-15T12:27:41Z</time>
      </trkpt>
      <trkpt lat="40.268417" lon="-4.909900">
        <ele>1638.0</ele>
        <time>2018-09-15T12:27:42Z</time>
      </trkpt>
      <trkpt lat="40.268483" lon="-4.909800">
        <ele>1635.0</ele>
        <time>2018-09-15T12:27:43Z</time>
      </trkpt>
      <trkpt lat="40.268533" lon="-4.909733">
        <ele>1633.0</ele>
        <time>2018-09-15T12:27:44Z</time>
      </trkpt>
      <trkpt lat="40.268600" lon="-4.909667">
        <ele>1631.0</ele>
        <time>2018-09-15T12:27:45Z</time>
      </trkpt>
      <trkpt lat="40.268667" lon="-4.909617">
        <ele>1630.0</ele>
        <time>2018-09-15T12:27:46Z</time>
      </trkpt>
      <trkpt lat="40.268733" lon="-4.909567">
        <ele>1627.0</ele>
        <time>2018-09-15T12:27:47Z</time>
      </trkpt>
      <trkpt lat="40.268800" lon="-4.909500">
        <ele>1625.0</ele>
        <time>2018-09-15T12:27:48Z</time>
      </trkpt>
      <trkpt lat="40.268867" lon="-4.909450">
        <ele>1622.0</ele>
        <time>2018-09-15T12:27:49Z</time>
      </trkpt>
      <trkpt lat="40.268950" lon="-4.909417">
        <ele>1617.0</ele>
        <time>2018-09-15T12:27:50Z</time>
      </trkpt>
      <trkpt lat="40.269033" lon="-4.909367">
        <ele>1614.0</ele>
        <time>2018-09-15T12:27:51Z</time>
      </trkpt>
      <trkpt lat="40.269133" lon="-4.909317">
        <ele>1612.0</ele>
        <time>2018-09-15T12:27:52Z</time>
      </trkpt>
      <trkpt lat="40.269217" lon="-4.909283">
        <ele>1610.0</ele>
        <time>2018-09-15T12:27:53Z</time>
      </trkpt>
      <trkpt lat="40.269283" lon="-4.909250">
        <ele>1607.0</ele>
        <time>2018-09-15T12:27:54Z</time>
      </trkpt>
      <trkpt lat="40.269367" lon="-4.909217">
        <ele>1604.0</ele>
        <time>2018-09-15T12:27:55Z</time>
      </trkpt>
      <trkpt lat="40.269450" lon="-4.909167">
        <ele>1600.0</ele>
        <time>2018-09-15T12:27:56Z</time>
      </trkpt>
      <trkpt lat="40.269517" lon="-4.909133">
        <ele>1597.0</ele>
        <time>2018-09-15T12:27:57Z</time>
      </trkpt>
      <trkpt lat="40.269600" lon="-4.909083">
        <ele>1595.0</ele>
        <time>2018-09-15T12:27:58Z</time>
      </trkpt>
      <trkpt lat="40.269683" lon="-4.909050">
        <ele>1594.0</ele>
        <time>2018-09-15T12:27:59Z</time>
      </trkpt>
      <trkpt lat="40.269750" lon="-4.909033">
        <ele>1594.0</ele>
        <time>2018-09-15T12:28:00Z</time>
      </trkpt>
      <trkpt lat="40.269833" lon="-4.909017">
        <ele>1594.0</ele>
        <time>2018-09-15T12:28:01Z</time>
      </trkpt>
      <trkpt lat="40.269900" lon="-4.908983">
        <ele>1594.0</ele>
        <time>2018-09-15T12:28:02Z</time>
      </trkpt>
      <trkpt lat="40.269983" lon="-4.908967">
        <ele>1593.0</ele>
        <time>2018-09-15T12:28:03Z</time>
      </trkpt>
      <trkpt lat="40.270067" lon="-4.908933">
        <ele>1592.0</ele>
        <time>2018-09-15T12:28:04Z</time>
      </trkpt>
      <trkpt lat="40.270150" lon="-4.908900">
        <ele>1592.0</ele>
        <time>2018-09-15T12:28:05Z</time>
      </trkpt>
      <trkpt lat="40.270233" lon="-4.908883">
        <ele>1591.0</ele>
        <time>2018-09-15T12:28:06Z</time>
      </trkpt>
      <trkpt lat="40.270300" lon="-4.908833">
        <ele>1590.0</ele>
        <time>2018-09-15T12:28:07Z</time>
      </trkpt>
      <trkpt lat="40.270367" lon="-4.908800">
        <ele>1589.0</ele>
        <time>2018-09-15T12:28:08Z</time>
      </trkpt>
      <trkpt lat="40.270433" lon="-4.908750">
        <ele>1586.0</ele>
        <time>2018-09-15T12:28:09Z</time>
      </trkpt>
      <trkpt lat="40.270517" lon="-4.908683">
        <ele>1583.0</ele>
        <time>2018-09-15T12:28:10Z</time>
      </trkpt>
      <trkpt lat="40.270600" lon="-4.908633">
        <ele>1580.0</ele>
        <time>2018-09-15T12:28:11Z</time>
      </trkpt>
      <trkpt lat="40.270700" lon="-4.908583">
        <ele>1579.0</ele>
        <time>2018-09-15T12:28:12Z</time>
      </trkpt>
      <trkpt lat="40.270767" lon="-4.908517">
        <ele>1578.0</ele>
        <time>2018-09-15T12:28:13Z</time>
      </trkpt>
      <trkpt lat="40.270817" lon="-4.908450">
        <ele>1577.0</ele>
        <time>2018-09-15T12:28:14Z</time>
      </trkpt>
      <trkpt lat="40.270867" lon="-4.908367">
        <ele>1575.0</ele>
        <time>2018-09-15T12:28:15Z</time>
      </trkpt>
      <trkpt lat="40.270900" lon="-4.908300">
        <ele>1574.0</ele>
        <time>2018-09-15T12:28:16Z</time>
      </trkpt>
      <trkpt lat="40.270933" lon="-4.908233">
        <ele>1573.0</ele>
        <time>2018-09-15T12:28:17Z</time>
      </trkpt>
      <trkpt lat="40.270983" lon="-4.908167">
        <ele>1572.0</ele>
        <time>2018-09-15T12:28:18Z</time>
      </trkpt>
      <trkpt lat="40.271017" lon="-4.908100">
        <ele>1570.0</ele>
        <time>2018-09-15T12:28:19Z</time>
      </trkpt>
      <trkpt lat="40.271067" lon="-4.908050">
        <ele>1568.0</ele>
        <time>2018-09-15T12:28:20Z</time>
      </trkpt>
      <trkpt lat="40.271117" lon="-4.907983">
        <ele>1565.0</ele>
        <time>2018-09-15T12:28:21Z</time>
      </trkpt>
      <trkpt lat="40.271183" lon="-4.907917">
        <ele>1563.0</ele>
        <time>2018-09-15T12:28:22Z</time>
      </trkpt>
      <trkpt lat="40.271267" lon="-4.907850">
        <ele>1560.0</ele>
        <time>2018-09-15T12:28:23Z</time>
      </trkpt>
      <trkpt lat="40.271333" lon="-4.907767">
        <ele>1560.0</ele>
        <time>2018-09-15T12:28:24Z</time>
      </trkpt>
      <trkpt lat="40.271417" lon="-4.907667">
        <ele>1561.0</ele>
        <time>2018-09-15T12:28:25Z</time>
      </trkpt>
      <trkpt lat="40.271483" lon="-4.907600">
        <ele>1563.0</ele>
        <time>2018-09-15T12:28:26Z</time>
      </trkpt>
      <trkpt lat="40.271533" lon="-4.907550">
        <ele>1565.0</ele>
        <time>2018-09-15T12:28:27Z</time>
      </trkpt>
      <trkpt lat="40.271567" lon="-4.907500">
        <ele>1565.0</ele>
        <time>2018-09-15T12:28:28Z</time>
      </trkpt>
      <trkpt lat="40.271600" lon="-4.907467">
        <ele>1564.0</ele>
        <time>2018-09-15T12:28:29Z</time>
      </trkpt>
      <trkpt lat="40.271633" lon="-4.907417">
        <ele>1562.0</ele>
        <time>2018-09-15T12:28:30Z</time>
      </trkpt>
      <trkpt lat="40.271683" lon="-4.907333">
        <ele>1560.0</ele>
        <time>2018-09-15T12:28:31Z</time>
      </trkpt>
      <trkpt lat="40.271750" lon="-4.907267">
        <ele>1558.0</ele>
        <time>2018-09-15T12:28:32Z</time>
      </trkpt>
      <trkpt lat="40.271800" lon="-4.907167">
        <ele>1557.0</ele>
        <time>2018-09-15T12:28:33Z</time>
      </trkpt>
      <trkpt lat="40.271833" lon="-4.907083">
        <ele>1557.0</ele>
        <time>2018-09-15T12:28:34Z</time>
      </trkpt>
      <trkpt lat="40.271883" lon="-4.906983">
        <ele>1557.0</ele>
        <time>2018-09-15T12:28:35Z</time>
      </trkpt>
      <trkpt lat="40.271933" lon="-4.906900">
        <ele>1557.0</ele>
        <time>2018-09-15T12:28:36Z</time>
      </trkpt>
      <trkpt lat="40.271983" lon="-4.906833">
        <ele>1555.0</ele>
        <time>2018-09-15T12:28:37Z</time>
      </trkpt>
      <trkpt lat="40.272050" lon="-4.906783">
        <ele>1553.0</ele>
        <time>2018-09-15T12:28:38Z</time>
      </trkpt>
      <trkpt lat="40.272117" lon="-4.906717">
        <ele>1551.0</ele>
        <time>2018-09-15T12:28:39Z</time>
      </trkpt>
      <trkpt lat="40.272167" lon="-4.906633">
        <ele>1548.0</ele>
        <time>2018-09-15T12:28:40Z</time>
      </trkpt>
      <trkpt lat="40.272217" lon="-4.906550">
        <ele>1545.0</ele>
        <time>2018-09-15T12:28:41Z</time>
      </trkpt>
      <trkpt lat="40.272283" lon="-4.906467">
        <ele>1543.0</ele>
        <time>2018-09-15T12:28:42Z</time>
      </trkpt>
      <trkpt lat="40.272350" lon="-4.906400">
        <ele>1540.0</ele>
        <time>2018-09-15T12:28:43Z</time>
      </trkpt>
      <trkpt lat="40.272417" lon="-4.906333">
        <ele>1537.0</ele>
        <time>2018-09-15T12:28:44Z</time>
      </trkpt>
      <trkpt lat="40.272500" lon="-4.906283">
        <ele>1534.0</ele>
        <time>2018-09-15T12:28:45Z</time>
      </trkpt>
      <trkpt lat="40.272567" lon="-4.906233">
        <ele>1530.0</ele>
        <time>2018-09-15T12:28:46Z</time>
      </trkpt>
      <trkpt lat="40.272650" lon="-4.906167">
        <ele>1525.0</ele>
        <time>2018-09-15T12:28:47Z</time>
      </trkpt>
      <trkpt lat="40.272750" lon="-4.906100">
        <ele>1519.0</ele>
        <time>2018-09-15T12:28:48Z</time>
      </trkpt>
      <trkpt lat="40.272850" lon="-4.906033">
        <ele>1515.0</ele>
        <time>2018-09-15T12:28:49Z</time>
      </trkpt>
      <trkpt lat="40.272950" lon="-4.905950">
        <ele>1510.0</ele>
        <time>2018-09-15T12:28:50Z</time>
      </trkpt>
      <trkpt lat="40.273050" lon="-4.905833">
        <ele>1508.0</ele>
        <time>2018-09-15T12:28:51Z</time>
      </trkpt>
      <trkpt lat="40.273133" lon="-4.905733">
        <ele>1506.0</ele>
        <time>2018-09-15T12:28:52Z</time>
      </trkpt>
      <trkpt lat="40.273217" lon="-4.905617">
        <ele>1505.0</ele>
        <time>2018-09-15T12:28:53Z</time>
      </trkpt>
      <trkpt lat="40.273283" lon="-4.905533">
        <ele>1504.0</ele>
        <time>2018-09-15T12:28:54Z</time>
      </trkpt>
      <trkpt lat="40.273350" lon="-4.905450">
        <ele>1503.0</ele>
        <time>2018-09-15T12:28:55Z</time>
      </trkpt>
      <trkpt lat="40.273433" lon="-4.905367">
        <ele>1502.0</ele>
        <time>2018-09-15T12:28:56Z</time>
      </trkpt>
      <trkpt lat="40.273517" lon="-4.905283">
        <ele>1500.0</ele>
        <time>2018-09-15T12:28:57Z</time>
      </trkpt>
      <trkpt lat="40.273600" lon="-4.905183">
        <ele>1499.0</ele>
        <time>2018-09-15T12:28:58Z</time>
      </trkpt>
      <trkpt lat="40.273683" lon="-4.905083">
        <ele>1497.0</ele>
        <time>2018-09-15T12:28:59Z</time>
      </trkpt>
      <trkpt lat="40.273767" lon="-4.904983">
        <ele>1497.0</ele>
        <time>2018-09-15T12:29:00Z</time>
      </trkpt>
      <trkpt lat="40.273833" lon="-4.904883">
        <ele>1498.0</ele>
        <time>2018-09-15T12:29:01Z</time>
      </trkpt>
      <trkpt lat="40.273883" lon="-4.904783">
        <ele>1500.0</ele>
        <time>2018-09-15T12:29:02Z</time>
      </trkpt>
      <trkpt lat="40.273917" lon="-4.904683">
        <ele>1502.0</ele>
        <time>2018-09-15T12:29:03Z</time>
      </trkpt>
      <trkpt lat="40.273967" lon="-4.904617">
        <ele>1505.0</ele>
        <time>2018-09-15T12:29:04Z</time>
      </trkpt>
      <trkpt lat="40.274033" lon="-4.904533">
        <ele>1506.0</ele>
        <time>2018-09-15T12:29:05Z</time>
      </trkpt>
      <trkpt lat="40.274100" lon="-4.904450">
        <ele>1506.0</ele>
        <time>2018-09-15T12:29:06Z</time>
      </trkpt>
      <trkpt lat="40.274150" lon="-4.904367">
        <ele>1506.0</ele>
        <time>2018-09-15T12:29:07Z</time>
      </trkpt>
      <trkpt lat="40.274200" lon="-4.904267">
        <ele>1507.0</ele>
        <time>2018-09-15T12:29:08Z</time>
      </trkpt>
      <trkpt lat="40.274200" lon="-4.904167">
        <ele>1506.0</ele>
        <time>2018-09-15T12:29:09Z</time>
      </trkpt>
      <trkpt lat="40.274183" lon="-4.904067">
        <ele>1506.0</ele>
        <time>2018-09-15T12:29:10Z</time>
      </trkpt>
      <trkpt lat="40.274133" lon="-4.904000">
        <ele>1507.0</ele>
        <time>2018-09-15T12:29:11Z</time>
      </trkpt>
      <trkpt lat="40.274067" lon="-4.903967">
        <ele>1509.0</ele>
        <time>2018-09-15T12:29:12Z</time>
      </trkpt>
      <trkpt lat="40.274017" lon="-4.903950">
        <ele>1511.0</ele>
        <time>2018-09-15T12:29:13Z</time>
      </trkpt>
      <trkpt lat="40.273967" lon="-4.903967">
        <ele>1514.0</ele>
        <time>2018-09-15T12:29:14Z</time>
      </trkpt>
      <trkpt lat="40.273917" lon="-4.904000">
        <ele>1515.0</ele>
        <time>2018-09-15T12:29:15Z</time>
      </trkpt>
      <trkpt lat="40.273867" lon="-4.904067">
        <ele>1516.0</ele>
        <time>2018-09-15T12:29:16Z</time>
      </trkpt>
      <trkpt lat="40.273833" lon="-4.904167">
        <ele>1517.0</ele>
        <time>2018-09-15T12:29:17Z</time>
      </trkpt>
      <trkpt lat="40.273783" lon="-4.904283">
        <ele>1517.0</ele>
        <time>2018-09-15T12:29:18Z</time>
      </trkpt>
      <trkpt lat="40.273767" lon="-4.904400">
        <ele>1519.0</ele>
        <time>2018-09-15T12:29:19Z</time>
      </trkpt>
      <trkpt lat="40.273783" lon="-4.904533">
        <ele>1521.0</ele>
        <time>2018-09-15T12:29:20Z</time>
      </trkpt>
      <trkpt lat="40.273817" lon="-4.904650">
        <ele>1522.0</ele>
        <time>2018-09-15T12:29:21Z</time>
      </trkpt>
      <trkpt lat="40.273883" lon="-4.904767">
        <ele>1522.0</ele>
        <time>2018-09-15T12:29:22Z</time>
      </trkpt>
      <trkpt lat="40.273967" lon="-4.904867">
        <ele>1521.0</ele>
        <time>2018-09-15T12:29:23Z</time>
      </trkpt>
      <trkpt lat="40.274083" lon="-4.904933">
        <ele>1522.0</ele>
        <time>2018-09-15T12:29:24Z</time>
      </trkpt>
      <trkpt lat="40.274200" lon="-4.904967">
        <ele>1523.0</ele>
        <time>2018-09-15T12:29:25Z</time>
      </trkpt>
      <trkpt lat="40.274300" lon="-4.904950">
        <ele>1525.0</ele>
        <time>2018-09-15T12:29:26Z</time>
      </trkpt>
      <trkpt lat="40.274400" lon="-4.904933">
        <ele>1527.0</ele>
        <time>2018-09-15T12:29:27Z</time>
      </trkpt>
      <trkpt lat="40.274500" lon="-4.904900">
        <ele>1528.0</ele>
        <time>2018-09-15T12:29:28Z</time>
      </trkpt>
      <trkpt lat="40.274583" lon="-4.904867">
        <ele>1529.0</ele>
        <time>2018-09-15T12:29:29Z</time>
      </trkpt>
      <trkpt lat="40.274667" lon="-4.904817">
        <ele>1530.0</ele>
        <time>2018-09-15T12:29:30Z</time>
      </trkpt>
      <trkpt lat="40.274767" lon="-4.904783">
        <ele>1531.0</ele>
        <time>2018-09-15T12:29:31Z</time>
      </trkpt>
      <trkpt lat="40.274850" lon="-4.904717">
        <ele>1532.0</ele>
        <time>2018-09-15T12:29:32Z</time>
      </trkpt>
      <trkpt lat="40.274917" lon="-4.904617">
        <ele>1533.0</ele>
        <time>2018-09-15T12:29:33Z</time>
      </trkpt>
      <trkpt lat="40.274983" lon="-4.904517">
        <ele>1534.0</ele>
        <time>2018-09-15T12:29:34Z</time>
      </trkpt>
      <trkpt lat="40.275033" lon="-4.904433">
        <ele>1535.0</ele>
        <time>2018-09-15T12:29:35Z</time>
      </trkpt>
      <trkpt lat="40.275083" lon="-4.904333">
        <ele>1537.0</ele>
        <time>2018-09-15T12:29:36Z</time>
      </trkpt>
      <trkpt lat="40.275150" lon="-4.904250">
        <ele>1539.0</ele>
        <time>2018-09-15T12:29:37Z</time>
      </trkpt>
      <trkpt lat="40.275233" lon="-4.904167">
        <ele>1541.0</ele>
        <time>2018-09-15T12:29:38Z</time>
      </trkpt>
      <trkpt lat="40.275300" lon="-4.904083">
        <ele>1542.0</ele>
        <time>2018-09-15T12:29:39Z</time>
      </trkpt>
      <trkpt lat="40.275333" lon="-4.903983">
        <ele>1544.0</ele>
        <time>2018-09-15T12:29:40Z</time>
      </trkpt>
      <trkpt lat="40.275367" lon="-4.903900">
        <ele>1547.0</ele>
        <time>2018-09-15T12:29:41Z</time>
      </trkpt>
      <trkpt lat="40.275367" lon="-4.903800">
        <ele>1549.0</ele>
        <time>2018-09-15T12:29:42Z</time>
      </trkpt>
      <trkpt lat="40.275350" lon="-4.903733">
        <ele>1551.0</ele>
        <time>2018-09-15T12:29:43Z</time>
      </trkpt>
      <trkpt lat="40.275350" lon="-4.903667">
        <ele>1553.0</ele>
        <time>2018-09-15T12:29:44Z</time>
      </trkpt>
      <trkpt lat="40.275367" lon="-4.903617">
        <ele>1554.0</ele>
        <time>2018-09-15T12:29:45Z</time>
      </trkpt>
      <trkpt lat="40.275350" lon="-4.903567">
        <ele>1555.0</ele>
        <time>2018-09-15T12:29:46Z</time>
      </trkpt>
      <trkpt lat="40.275300" lon="-4.903550">
        <ele>1556.0</ele>
        <time>2018-09-15T12:29:47Z</time>
      </trkpt>
      <trkpt lat="40.275250" lon="-4.903550">
        <ele>1557.0</ele>
        <time>2018-09-15T12:29:48Z</time>
      </trkpt>
      <trkpt lat="40.275200" lon="-4.903600">
        <ele>1559.0</ele>
        <time>2018-09-15T12:29:49Z</time>
      </trkpt>
      <trkpt lat="40.275133" lon="-4.903700">
        <ele>1561.0</ele>
        <time>2018-09-15T12:29:50Z</time>
      </trkpt>
      <trkpt lat="40.275100" lon="-4.903850">
        <ele>1562.0</ele>
        <time>2018-09-15T12:29:51Z</time>
      </trkpt>
      <trkpt lat="40.275100" lon="-4.904017">
        <ele>1564.0</ele>
        <time>2018-09-15T12:29:52Z</time>
      </trkpt>
      <trkpt lat="40.275117" lon="-4.904183">
        <ele>1568.0</ele>
        <time>2018-09-15T12:29:53Z</time>
      </trkpt>
      <trkpt lat="40.275167" lon="-4.904317">
        <ele>1570.0</ele>
        <time>2018-09-15T12:29:54Z</time>
      </trkpt>
      <trkpt lat="40.275233" lon="-4.904450">
        <ele>1572.0</ele>
        <time>2018-09-15T12:29:55Z</time>
      </trkpt>
      <trkpt lat="40.275333" lon="-4.904550">
        <ele>1572.0</ele>
        <time>2018-09-15T12:29:56Z</time>
      </trkpt>
      <trkpt lat="40.275450" lon="-4.904617">
        <ele>1573.0</ele>
        <time>2018-09-15T12:29:57Z</time>
      </trkpt>
      <trkpt lat="40.275567" lon="-4.904667">
        <ele>1574.0</ele>
        <time>2018-09-15T12:29:58Z</time>
      </trkpt>
      <trkpt lat="40.275683" lon="-4.904667">
        <ele>1576.0</ele>
        <time>2018-09-15T12:29:59Z</time>
      </trkpt>
      <trkpt lat="40.275783" lon="-4.904633">
        <ele>1577.0</ele>
        <time>2018-09-15T12:30:00Z</time>
      </trkpt>
      <trkpt lat="40.275867" lon="-4.904583">
        <ele>1578.0</ele>
        <time>2018-09-15T12:30:01Z</time>
      </trkpt>
      <trkpt lat="40.275933" lon="-4.904517">
        <ele>1579.0</ele>
        <time>2018-09-15T12:30:02Z</time>
      </trkpt>
      <trkpt lat="40.275967" lon="-4.904417">
        <ele>1580.0</ele>
        <time>2018-09-15T12:30:03Z</time>
      </trkpt>
      <trkpt lat="40.275983" lon="-4.904317">
        <ele>1583.0</ele>
        <time>2018-09-15T12:30:04Z</time>
      </trkpt>
      <trkpt lat="40.275983" lon="-4.904250">
        <ele>1586.0</ele>
        <time>2018-09-15T12:30:05Z</time>
      </trkpt>
      <trkpt lat="40.276000" lon="-4.904183">
        <ele>1589.0</ele>
        <time>2018-09-15T12:30:06Z</time>
      </trkpt>
      <trkpt lat="40.276017" lon="-4.904117">
        <ele>1591.0</ele>
        <time>2018-09-15T12:30:07Z</time>
      </trkpt>
      <trkpt lat="40.276033" lon="-4.904050">
        <ele>1591.0</ele>
        <time>2018-09-15T12:30:08Z</time>
      </trkpt>
      <trkpt lat="40.276050" lon="-4.903983">
        <ele>1591.0</ele>
        <time>2018-09-15T12:30:09Z</time>
      </trkpt>
      <trkpt lat="40.276050" lon="-4.903900">
        <ele>1591.0</ele>
        <time>2018-09-15T12:30:10Z</time>
      </trkpt>
      <trkpt lat="40.276033" lon="-4.903850">
        <ele>1592.0</ele>
        <time>2018-09-15T12:30:11Z</time>
      </trkpt>
      <trkpt lat="40.275983" lon="-4.903800">
        <ele>1592.0</ele>
        <time>2018-09-15T12:30:12Z</time>
      </trkpt>
      <trkpt lat="40.275917" lon="-4.903800">
        <ele>1591.0</ele>
        <time>2018-09-15T12:30:13Z</time>
      </trkpt>
      <trkpt lat="40.275850" lon="-4.903867">
        <ele>1591.0</ele>
        <time>2018-09-15T12:30:14Z</time>
      </trkpt>
      <trkpt lat="40.275783" lon="-4.903983">
        <ele>1593.0</ele>
        <time>2018-09-15T12:30:15Z</time>
      </trkpt>
      <trkpt lat="40.275750" lon="-4.904150">
        <ele>1595.0</ele>
        <time>2018-09-15T12:30:16Z</time>
      </trkpt>
      <trkpt lat="40.275717" lon="-4.904333">
        <ele>1597.0</ele>
        <time>2018-09-15T12:30:17Z</time>
      </trkpt>
      <trkpt lat="40.275717" lon="-4.904483">
        <ele>1600.0</ele>
        <time>2018-09-15T12:30:18Z</time>
      </trkpt>
      <trkpt lat="40.275700" lon="-4.904633">
        <ele>1603.0</ele>
        <time>2018-09-15T12:30:19Z</time>
      </trkpt>
      <trkpt lat="40.275700" lon="-4.904800">
        <ele>1607.0</ele>
        <time>2018-09-15T12:30:20Z</time>
      </trkpt>
      <trkpt lat="40.275733" lon="-4.904950">
        <ele>1609.0</ele>
        <time>2018-09-15T12:30:21Z</time>
      </trkpt>
      <trkpt lat="40.275767" lon="-4.905117">
        <ele>1612.0</ele>
        <time>2018-09-15T12:30:22Z</time>
      </trkpt>
      <trkpt lat="40.275833" lon="-4.905267">
        <ele>1616.0</ele>
        <time>2018-09-15T12:30:23Z</time>
      </trkpt>
      <trkpt lat="40.275933" lon="-4.905383">
        <ele>1619.0</ele>
        <time>2018-09-15T12:30:24Z</time>
      </trkpt>
      <trkpt lat="40.276033" lon="-4.905483">
        <ele>1622.0</ele>
        <time>2018-09-15T12:30:25Z</time>
      </trkpt>
      <trkpt lat="40.276150" lon="-4.905550">
        <ele>1623.0</ele>
        <time>2018-09-15T12:30:26Z</time>
      </trkpt>
      <trkpt lat="40.276267" lon="-4.905617">
        <ele>1626.0</ele>
        <time>2018-09-15T12:30:27Z</time>
      </trkpt>
      <trkpt lat="40.276383" lon="-4.905650">
        <ele>1629.0</ele>
        <time>2018-09-15T12:30:28Z</time>
      </trkpt>
      <trkpt lat="40.276500" lon="-4.905633">
        <ele>1632.0</ele>
        <time>2018-09-15T12:30:29Z</time>
      </trkpt>
      <trkpt lat="40.276583" lon="-4.905583">
        <ele>1635.0</ele>
        <time>2018-09-15T12:30:30Z</time>
      </trkpt>
      <trkpt lat="40.276667" lon="-4.905500">
        <ele>1636.0</ele>
        <time>2018-09-15T12:30:31Z</time>
      </trkpt>
      <trkpt lat="40.276700" lon="-4.905417">
        <ele>1639.0</ele>
        <time>2018-09-15T12:30:32Z</time>
      </trkpt>
      <trkpt lat="40.276717" lon="-4.905333">
        <ele>1642.0</ele>
        <time>2018-09-15T12:30:33Z</time>
      </trkpt>
      <trkpt lat="40.276700" lon="-4.905283">
        <ele>1645.0</ele>
        <time>2018-09-15T12:30:34Z</time>
      </trkpt>
      <trkpt lat="40.276667" lon="-4.905267">
        <ele>1646.0</ele>
        <time>2018-09-15T12:30:35Z</time>
      </trkpt>
      <trkpt lat="40.276600" lon="-4.905300">
        <ele>1647.0</ele>
        <time>2018-09-15T12:30:36Z</time>
      </trkpt>
      <trkpt lat="40.276533" lon="-4.905383">
        <ele>1650.0</ele>
        <time>2018-09-15T12:30:37Z</time>
      </trkpt>
      <trkpt lat="40.276500" lon="-4.905517">
        <ele>1652.0</ele>
        <time>2018-09-15T12:30:38Z</time>
      </trkpt>
      <trkpt lat="40.276483" lon="-4.905667">
        <ele>1655.0</ele>
        <time>2018-09-15T12:30:39Z</time>
      </trkpt>
      <trkpt lat="40.276500" lon="-4.905833">
        <ele>1658.0</ele>
        <time>2018-09-15T12:30:40Z</time>
      </trkpt>
      <trkpt lat="40.276533" lon="-4.906017">
        <ele>1661.0</ele>
        <time>2018-09-15T12:30:41Z</time>
      </trkpt>
      <trkpt lat="40.276617" lon="-4.906167">
        <ele>1663.0</ele>
        <time>2018-09-15T12:30:42Z</time>
      </trkpt>
      <trkpt lat="40.276733" lon="-4.906317">
        <ele>1665.0</ele>
        <time>2018-09-15T12:30:43Z</time>
      </trkpt>
      <trkpt lat="40.276850" lon="-4.906417">
        <ele>1669.0</ele>
        <time>2018-09-15T12:30:44Z</time>
      </trkpt>
      <trkpt lat="40.276967" lon="-4.906483">
        <ele>1673.0</ele>
        <time>2018-09-15T12:30:45Z</time>
      </trkpt>
      <trkpt lat="40.277067" lon="-4.906500">
        <ele>1676.0</ele>
        <time>2018-09-15T12:30:46Z</time>
      </trkpt>
      <trkpt lat="40.277183" lon="-4.906467">
        <ele>1677.0</ele>
        <time>2018-09-15T12:30:47Z</time>
      </trkpt>
      <trkpt lat="40.277267" lon="-4.906417">
        <ele>1679.0</ele>
        <time>2018-09-15T12:30:48Z</time>
      </trkpt>
      <trkpt lat="40.277350" lon="-4.906350">
        <ele>1680.0</ele>
        <time>2018-09-15T12:30:49Z</time>
      </trkpt>
      <trkpt lat="40.277417" lon="-4.906267">
        <ele>1681.0</ele>
        <time>2018-09-15T12:30:50Z</time>
      </trkpt>
      <trkpt lat="40.277483" lon="-4.906167">
        <ele>1684.0</ele>
        <time>2018-09-15T12:30:51Z</time>
      </trkpt>
      <trkpt lat="40.277517" lon="-4.906067">
        <ele>1687.0</ele>
        <time>2018-09-15T12:30:52Z</time>
      </trkpt>
      <trkpt lat="40.277533" lon="-4.906000">
        <ele>1691.0</ele>
        <time>2018-09-15T12:30:53Z</time>
      </trkpt>
      <trkpt lat="40.277517" lon="-4.905950">
        <ele>1692.0</ele>
        <time>2018-09-15T12:30:54Z</time>
      </trkpt>
      <trkpt lat="40.277483" lon="-4.905900">
        <ele>1693.0</ele>
        <time>2018-09-15T12:30:55Z</time>
      </trkpt>
      <trkpt lat="40.277433" lon="-4.905867">
        <ele>1694.0</ele>
        <time>2018-09-15T12:30:56Z</time>
      </trkpt>
      <trkpt lat="40.277367" lon="-4.905867">
        <ele>1696.0</ele>
        <time>2018-09-15T12:30:57Z</time>
      </trkpt>
      <trkpt lat="40.277300" lon="-4.905900">
        <ele>1698.0</ele>
        <time>2018-09-15T12:30:58Z</time>
      </trkpt>
      <trkpt lat="40.277233" lon="-4.905983">
        <ele>1700.0</ele>
        <time>2018-09-15T12:30:59Z</time>
      </trkpt>
      <trkpt lat="40.277200" lon="-4.906100">
        <ele>1701.0</ele>
        <time>2018-09-15T12:31:00Z</time>
      </trkpt>
      <trkpt lat="40.277183" lon="-4.906250">
        <ele>1702.0</ele>
        <time>2018-09-15T12:31:01Z</time>
      </trkpt>
      <trkpt lat="40.277183" lon="-4.906433">
        <ele>1703.0</ele>
        <time>2018-09-15T12:31:02Z</time>
      </trkpt>
      <trkpt lat="40.277217" lon="-4.906633">
        <ele>1704.0</ele>
        <time>2018-09-15T12:31:03Z</time>
      </trkpt>
      <trkpt lat="40.277300" lon="-4.906817">
        <ele>1706.0</ele>
        <time>2018-09-15T12:31:04Z</time>
      </trkpt>
      <trkpt lat="40.277417" lon="-4.906967">
        <ele>1708.0</ele>
        <time>2018-09-15T12:31:05Z</time>
      </trkpt>
      <trkpt lat="40.277550" lon="-4.907083">
        <ele>1710.0</ele>
        <time>2018-09-15T12:31:06Z</time>
      </trkpt>
      <trkpt lat="40.277683" lon="-4.907150">
        <ele>1714.0</ele>
        <time>2018-09-15T12:31:07Z</time>
      </trkpt>
      <trkpt lat="40.277800" lon="-4.907167">
        <ele>1717.0</ele>
        <time>2018-09-15T12:31:08Z</time>
      </trkpt>
      <trkpt lat="40.277917" lon="-4.907167">
        <ele>1720.0</ele>
        <time>2018-09-15T12:31:09Z</time>
      </trkpt>
      <trkpt lat="40.278033" lon="-4.907150">
        <ele>1722.0</ele>
        <time>2018-09-15T12:31:10Z</time>
      </trkpt>
      <trkpt lat="40.278117" lon="-4.907117">
        <ele>1724.0</ele>
        <time>2018-09-15T12:31:11Z</time>
      </trkpt>
      <trkpt lat="40.278200" lon="-4.907067">
        <ele>1724.0</ele>
        <time>2018-09-15T12:31:12Z</time>
      </trkpt>
      <trkpt lat="40.278283" lon="-4.906983">
        <ele>1725.0</ele>
        <time>2018-09-15T12:31:13Z</time>
      </trkpt>
      <trkpt lat="40.278333" lon="-4.906883">
        <ele>1726.0</ele>
        <time>2018-09-15T12:31:14Z</time>
      </trkpt>
      <trkpt lat="40.278350" lon="-4.906783">
        <ele>1728.0</ele>
        <time>2018-09-15T12:31:15Z</time>
      </trkpt>
      <trkpt lat="40.278333" lon="-4.906700">
        <ele>1730.0</ele>
        <time>2018-09-15T12:31:16Z</time>
      </trkpt>
      <trkpt lat="40.278300" lon="-4.906633">
        <ele>1733.0</ele>
        <time>2018-09-15T12:31:17Z</time>
      </trkpt>
      <trkpt lat="40.278250" lon="-4.906600">
        <ele>1736.0</ele>
        <time>2018-09-15T12:31:18Z</time>
      </trkpt>
      <trkpt lat="40.278183" lon="-4.906583">
        <ele>1738.0</ele>
        <time>2018-09-15T12:31:19Z</time>
      </trkpt>
      <trkpt lat="40.278133" lon="-4.906617">
        <ele>1739.0</ele>
        <time>2018-09-15T12:31:20Z</time>
      </trkpt>
      <trkpt lat="40.278083" lon="-4.906683">
        <ele>1739.0</ele>
        <time>2018-09-15T12:31:21Z</time>
      </trkpt>
      <trkpt lat="40.278033" lon="-4.906783">
        <ele>1738.0</ele>
        <time>2018-09-15T12:31:22Z</time>
      </trkpt>
      <trkpt lat="40.278017" lon="-4.906933">
        <ele>1738.0</ele>
        <time>2018-09-15T12:31:23Z</time>
      </trkpt>
      <trkpt lat="40.278017" lon="-4.907100">
        <ele>1737.0</ele>
        <time>2018-09-15T12:31:24Z</time>
      </trkpt>
      <trkpt lat="40.278050" lon="-4.907283">
        <ele>1738.0</ele>
        <time>2018-09-15T12:31:25Z</time>
      </trkpt>
      <trkpt lat="40.278117" lon="-4.907450">
        <ele>1738.0</ele>
        <time>2018-09-15T12:31:26Z</time>
      </trkpt>
      <trkpt lat="40.278200" lon="-4.907600">
        <ele>1739.0</ele>
        <time>2018-09-15T12:31:27Z</time>
      </trkpt>
      <trkpt lat="40.278333" lon="-4.907717">
        <ele>1741.0</ele>
        <time>2018-09-15T12:31:28Z</time>
      </trkpt>
      <trkpt lat="40.278467" lon="-4.907783">
        <ele>1743.0</ele>
        <time>2018-09-15T12:31:29Z</time>
      </trkpt>
      <trkpt lat="40.278583" lon="-4.907817">
        <ele>1746.0</ele>
        <time>2018-09-15T12:31:30Z</time>
      </trkpt>
      <trkpt lat="40.278717" lon="-4.907817">
        <ele>1749.0</ele>
        <time>2018-09-15T12:31:31Z</time>
      </trkpt>
      <trkpt lat="40.278833" lon="-4.907817">
        <ele>1752.0</ele>
        <time>2018-09-15T12:31:32Z</time>
      </trkpt>
      <trkpt lat="40.278950" lon="-4.907850">
        <ele>1755.0</ele>
        <time>2018-09-15T12:31:33Z</time>
      </trkpt>
      <trkpt lat="40.279050" lon="-4.907867">
        <ele>1757.0</ele>
        <time>2018-09-15T12:31:34Z</time>
      </trkpt>
      <trkpt lat="40.279150" lon="-4.907867">
        <ele>1758.0</ele>
        <time>2018-09-15T12:31:35Z</time>
      </trkpt>
      <trkpt lat="40.279250" lon="-4.907833">
        <ele>1759.0</ele>
        <time>2018-09-15T12:31:36Z</time>
      </trkpt>
      <trkpt lat="40.279350" lon="-4.907783">
        <ele>1760.0</ele>
        <time>2018-09-15T12:31:37Z</time>
      </trkpt>
      <trkpt lat="40.279433" lon="-4.907717">
        <ele>1762.0</ele>
        <time>2018-09-15T12:31:38Z</time>
      </trkpt>
      <trkpt lat="40.279500" lon="-4.907650">
        <ele>1764.0</ele>
        <time>2018-09-15T12:31:39Z</time>
      </trkpt>
      <trkpt lat="40.279550" lon="-4.907567">
        <ele>1766.0</ele>
        <time>2018-09-15T12:31:40Z</time>
      </trkpt>
      <trkpt lat="40.279583" lon="-4.907483">
        <ele>1768.0</ele>
        <time>2018-09-15T12:31:41Z</time>
      </trkpt>
      <trkpt lat="40.279617" lon="-4.907400">
        <ele>1771.0</ele>
        <time>2018-09-15T12:31:42Z</time>
      </trkpt>
      <trkpt lat="40.279617" lon="-4.907317">
        <ele>1773.0</ele>
        <time>2018-09-15T12:31:43Z</time>
      </trkpt>
      <trkpt lat="40.279600" lon="-4.907217">
        <ele>1776.0</ele>
        <time>2018-09-15T12:31:44Z</time>
      </trkpt>
      <trkpt lat="40.279550" lon="-4.907133">
        <ele>1777.0</ele>
        <time>2018-09-15T12:31:45Z</time>
      </trkpt>
      <trkpt lat="40.279467" lon="-4.907083">
        <ele>1779.0</ele>
        <time>2018-09-15T12:31:46Z</time>
      </trkpt>
      <trkpt lat="40.279383" lon="-4.907067">
        <ele>1782.0</ele>
        <time>2018-09-15T12:31:47Z</time>
      </trkpt>
      <trkpt lat="40.279317" lon="-4.907067">
        <ele>1785.0</ele>
        <time>2018-09-15T12:31:48Z</time>
      </trkpt>
      <trkpt lat="40.279267" lon="-4.907117">
        <ele>1787.0</ele>
        <time>2018-09-15T12:31:49Z</time>
      </trkpt>
      <trkpt lat="40.279217" lon="-4.907183">
        <ele>1788.0</ele>
        <time>2018-09-15T12:31:50Z</time>
      </trkpt>
      <trkpt lat="40.279183" lon="-4.907283">
        <ele>1788.0</ele>
        <time>2018-09-15T12:31:51Z</time>
      </trkpt>
      <trkpt lat="40.279167" lon="-4.907417">
        <ele>1787.0</ele>
        <time>2018-09-15T12:31:52Z</time>
      </trkpt>
      <trkpt lat="40.279183" lon="-4.907583">
        <ele>1786.0</ele>
        <time>2018-09-15T12:31:53Z</time>
      </trkpt>
      <trkpt lat="40.279233" lon="-4.907750">
        <ele>1786.0</ele>
        <time>2018-09-15T12:31:54Z</time>
      </trkpt>
      <trkpt lat="40.279317" lon="-4.907883">
        <ele>1786.0</ele>
        <time>2018-09-15T12:31:55Z</time>
      </trkpt>
      <trkpt lat="40.279417" lon="-4.908000">
        <ele>1786.0</ele>
        <time>2018-09-15T12:31:56Z</time>
      </trkpt>
      <trkpt lat="40.279550" lon="-4.908050">
        <ele>1786.0</ele>
        <time>2018-09-15T12:31:57Z</time>
      </trkpt>
      <trkpt lat="40.279683" lon="-4.908067">
        <ele>1787.0</ele>
        <time>2018-09-15T12:31:58Z</time>
      </trkpt>
      <trkpt lat="40.279800" lon="-4.908050">
        <ele>1789.0</ele>
        <time>2018-09-15T12:31:59Z</time>
      </trkpt>
      <trkpt lat="40.279917" lon="-4.908033">
        <ele>1793.0</ele>
        <time>2018-09-15T12:32:00Z</time>
      </trkpt>
      <trkpt lat="40.280000" lon="-4.908017">
        <ele>1798.0</ele>
        <time>2018-09-15T12:32:01Z</time>
      </trkpt>
      <trkpt lat="40.280083" lon="-4.907983">
        <ele>1802.0</ele>
        <time>2018-09-15T12:32:02Z</time>
      </trkpt>
      <trkpt lat="40.280150" lon="-4.907967">
        <ele>1805.0</ele>
        <time>2018-09-15T12:32:03Z</time>
      </trkpt>
      <trkpt lat="40.280217" lon="-4.907917">
        <ele>1807.0</ele>
        <time>2018-09-15T12:32:04Z</time>
      </trkpt>
      <trkpt lat="40.280283" lon="-4.907867">
        <ele>1809.0</ele>
        <time>2018-09-15T12:32:05Z</time>
      </trkpt>
      <trkpt lat="40.280333" lon="-4.907817">
        <ele>1809.0</ele>
        <time>2018-09-15T12:32:06Z</time>
      </trkpt>
      <trkpt lat="40.280400" lon="-4.907733">
        <ele>1811.0</ele>
        <time>2018-09-15T12:32:07Z</time>
      </trkpt>
      <trkpt lat="40.280467" lon="-4.907650">
        <ele>1813.0</ele>
        <time>2018-09-15T12:32:08Z</time>
      </trkpt>
      <trkpt lat="40.280517" lon="-4.907583">
        <ele>1816.0</ele>
        <time>2018-09-15T12:32:09Z</time>
      </trkpt>
      <trkpt lat="40.280533" lon="-4.907500">
        <ele>1818.0</ele>
        <time>2018-09-15T12:32:10Z</time>
      </trkpt>
      <trkpt lat="40.280517" lon="-4.907417">
        <ele>1819.0</ele>
        <time>2018-09-15T12:32:11Z</time>
      </trkpt>
      <trkpt lat="40.280467" lon="-4.907367">
        <ele>1820.0</ele>
        <time>2018-09-15T12:32:12Z</time>
      </trkpt>
      <trkpt lat="40.280417" lon="-4.907333">
        <ele>1822.0</ele>
        <time>2018-09-15T12:32:13Z</time>
      </trkpt>
      <trkpt lat="40.280350" lon="-4.907317">
        <ele>1824.0</ele>
        <time>2018-09-15T12:32:14Z</time>
      </trkpt>
      <trkpt lat="40.280283" lon="-4.907333">
        <ele>1826.0</ele>
        <time>2018-09-15T12:32:15Z</time>
      </trkpt>
      <trkpt lat="40.280233" lon="-4.907400">
        <ele>1826.0</ele>
        <time>2018-09-15T12:32:16Z</time>
      </trkpt>
      <trkpt lat="40.280183" lon="-4.907483">
        <ele>1827.0</ele>
        <time>2018-09-15T12:32:17Z</time>
      </trkpt>
      <trkpt lat="40.280150" lon="-4.907617">
        <ele>1827.0</ele>
        <time>2018-09-15T12:32:18Z</time>
      </trkpt>
      <trkpt lat="40.280167" lon="-4.907750">
        <ele>1828.0</ele>
        <time>2018-09-15T12:32:19Z</time>
      </trkpt>
      <trkpt lat="40.280233" lon="-4.907883">
        <ele>1828.0</ele>
        <time>2018-09-15T12:32:20Z</time>
      </trkpt>
      <trkpt lat="40.280317" lon="-4.908000">
        <ele>1829.0</ele>
        <time>2018-09-15T12:32:21Z</time>
      </trkpt>
      <trkpt lat="40.280433" lon="-4.908100">
        <ele>1831.0</ele>
        <time>2018-09-15T12:32:22Z</time>
      </trkpt>
      <trkpt lat="40.280550" lon="-4.908167">
        <ele>1835.0</ele>
        <time>2018-09-15T12:32:23Z</time>
      </trkpt>
      <trkpt lat="40.280650" lon="-4.908200">
        <ele>1839.0</ele>
        <time>2018-09-15T12:32:24Z</time>
      </trkpt>
      <trkpt lat="40.280750" lon="-4.908233">
        <ele>1842.0</ele>
        <time>2018-09-15T12:32:25Z</time>
      </trkpt>
      <trkpt lat="40.280850" lon="-4.908233">
        <ele>1845.0</ele>
        <time>2018-09-15T12:32:26Z</time>
      </trkpt>
      <trkpt lat="40.280933" lon="-4.908217">
        <ele>1846.0</ele>
        <time>2018-09-15T12:32:27Z</time>
      </trkpt>
      <trkpt lat="40.281017" lon="-4.908167">
        <ele>1847.0</ele>
        <time>2018-09-15T12:32:28Z</time>
      </trkpt>
      <trkpt lat="40.281067" lon="-4.908083">
        <ele>1848.0</ele>
        <time>2018-09-15T12:32:29Z</time>
      </trkpt>
      <trkpt lat="40.281100" lon="-4.908017">
        <ele>1850.0</ele>
        <time>2018-09-15T12:32:30Z</time>
      </trkpt>
      <trkpt lat="40.281100" lon="-4.907933">
        <ele>1852.0</ele>
        <time>2018-09-15T12:32:31Z</time>
      </trkpt>
      <trkpt lat="40.281083" lon="-4.907867">
        <ele>1855.0</ele>
        <time>2018-09-15T12:32:32Z</time>
      </trkpt>
      <trkpt lat="40.281050" lon="-4.907817">
        <ele>1857.0</ele>
        <time>2018-09-15T12:32:33Z</time>
      </trkpt>
      <trkpt lat="40.281000" lon="-4.907783">
        <ele>1859.0</ele>
        <time>2018-09-15T12:32:34Z</time>
      </trkpt>
      <trkpt lat="40.280933" lon="-4.907750">
        <ele>1861.0</ele>
        <time>2018-09-15T12:32:35Z</time>
      </trkpt>
      <trkpt lat="40.280867" lon="-4.907733">
        <ele>1863.0</ele>
        <time>2018-09-15T12:32:36Z</time>
      </trkpt>
      <trkpt lat="40.280800" lon="-4.907767">
        <ele>1863.0</ele>
        <time>2018-09-15T12:32:37Z</time>
      </trkpt>
      <trkpt lat="40.280717" lon="-4.907817">
        <ele>1863.0</ele>
        <time>2018-09-15T12:32:38Z</time>
      </trkpt>
      <trkpt lat="40.280650" lon="-4.907900">
        <ele>1863.0</ele>
        <time>2018-09-15T12:32:39Z</time>
      </trkpt>
      <trkpt lat="40.280600" lon="-4.908017">
        <ele>1864.0</ele>
        <time>2018-09-15T12:32:40Z</time>
      </trkpt>
      <trkpt lat="40.280567" lon="-4.908133">
        <ele>1866.0</ele>
        <time>2018-09-15T12:32:41Z</time>
      </trkpt>
      <trkpt lat="40.280550" lon="-4.908267">
        <ele>1869.0</ele>
        <time>2018-09-15T12:32:42Z</time>
      </trkpt>
      <trkpt lat="40.280567" lon="-4.908400">
        <ele>1871.0</ele>
        <time>2018-09-15T12:32:43Z</time>
      </trkpt>
      <trkpt lat="40.280583" lon="-4.908533">
        <ele>1873.0</ele>
        <time>2018-09-15T12:32:44Z</time>
      </trkpt>
      <trkpt lat="40.280617" lon="-4.908667">
        <ele>1876.0</ele>
        <time>2018-09-15T12:32:45Z</time>
      </trkpt>
      <trkpt lat="40.280667" lon="-4.908800">
        <ele>1879.0</ele>
        <time>2018-09-15T12:32:46Z</time>
      </trkpt>
      <trkpt lat="40.280750" lon="-4.908933">
        <ele>1882.0</ele>
        <time>2018-09-15T12:32:47Z</time>
      </trkpt>
      <trkpt lat="40.280833" lon="-4.909050">
        <ele>1884.0</ele>
        <time>2018-09-15T12:32:48Z</time>
      </trkpt>
      <trkpt lat="40.280933" lon="-4.909167">
        <ele>1887.0</ele>
        <time>2018-09-15T12:32:49Z</time>
      </trkpt>
      <trkpt lat="40.281050" lon="-4.909233">
        <ele>1889.0</ele>
        <time>2018-09-15T12:32:50Z</time>
      </trkpt>
      <trkpt lat="40.281167" lon="-4.909283">
        <ele>1891.0</ele>
        <time>2018-09-15T12:32:51Z</time>
      </trkpt>
      <trkpt lat="40.281283" lon="-4.909300">
        <ele>1891.0</ele>
        <time>2018-09-15T12:32:52Z</time>
      </trkpt>
      <trkpt lat="40.281400" lon="-4.909283">
        <ele>1892.0</ele>
        <time>2018-09-15T12:32:53Z</time>
      </trkpt>
      <trkpt lat="40.281500" lon="-4.909250">
        <ele>1894.0</ele>
        <time>2018-09-15T12:32:54Z</time>
      </trkpt>
      <trkpt lat="40.281583" lon="-4.909200">
        <ele>1896.0</ele>
        <time>2018-09-15T12:32:55Z</time>
      </trkpt>
      <trkpt lat="40.281650" lon="-4.909133">
        <ele>1899.0</ele>
        <time>2018-09-15T12:32:56Z</time>
      </trkpt>
      <trkpt lat="40.281683" lon="-4.909067">
        <ele>1902.0</ele>
        <time>2018-09-15T12:32:57Z</time>
      </trkpt>
      <trkpt lat="40.281717" lon="-4.909000">
        <ele>1904.0</ele>
        <time>2018-09-15T12:32:58Z</time>
      </trkpt>
      <trkpt lat="40.281717" lon="-4.908917">
        <ele>1906.0</ele>
        <time>2018-09-15T12:32:59Z</time>
      </trkpt>
      <trkpt lat="40.281717" lon="-4.908850">
        <ele>1909.0</ele>
        <time>2018-09-15T12:33:00Z</time>
      </trkpt>
      <trkpt lat="40.281717" lon="-4.908767">
        <ele>1911.0</ele>
        <time>2018-09-15T12:33:01Z</time>
      </trkpt>
      <trkpt lat="40.281683" lon="-4.908700">
        <ele>1913.0</ele>
        <time>2018-09-15T12:33:02Z</time>
      </trkpt>
      <trkpt lat="40.281633" lon="-4.908633">
        <ele>1915.0</ele>
        <time>2018-09-15T12:33:03Z</time>
      </trkpt>
      <trkpt lat="40.281583" lon="-4.908583">
        <ele>1916.0</ele>
        <time>2018-09-15T12:33:04Z</time>
      </trkpt>
      <trkpt lat="40.281533" lon="-4.908550">
        <ele>1918.0</ele>
        <time>2018-09-15T12:33:05Z</time>
      </trkpt>
      <trkpt lat="40.281467" lon="-4.908550">
        <ele>1918.0</ele>
        <time>2018-09-15T12:33:06Z</time>
      </trkpt>
      <trkpt lat="40.281383" lon="-4.908583">
        <ele>1918.0</ele>
        <time>2018-09-15T12:33:07Z</time>
      </trkpt>
      <trkpt lat="40.281300" lon="-4.908650">
        <ele>1918.0</ele>
        <time>2018-09-15T12:33:08Z</time>
      </trkpt>
      <trkpt lat="40.281217" lon="-4.908733">
        <ele>1918.0</ele>
        <time>2018-09-15T12:33:09Z</time>
      </trkpt>
      <trkpt lat="40.281150" lon="-4.908833">
        <ele>1920.0</ele>
        <time>2018-09-15T12:33:10Z</time>
      </trkpt>
      <trkpt lat="40.281117" lon="-4.908950">
        <ele>1922.0</ele>
        <time>2018-09-15T12:33:11Z</time>
      </trkpt>
      <trkpt lat="40.281083" lon="-4.909083">
        <ele>1922.0</ele>
        <time>2018-09-15T12:33:12Z</time>
      </trkpt>
      <trkpt lat="40.281083" lon="-4.909233">
        <ele>1923.0</ele>
        <time>2018-09-15T12:33:13Z</time>
      </trkpt>
      <trkpt lat="40.281117" lon="-4.909383">
        <ele>1924.0</ele>
        <time>2018-09-15T12:33:14Z</time>
      </trkpt>
      <trkpt lat="40.281183" lon="-4.909533">
        <ele>1926.0</ele>
        <time>2018-09-15T12:33:15Z</time>
      </trkpt>
      <trkpt lat="40.281267" lon="-4.909667">
        <ele>1929.0</ele>
        <time>2018-09-15T12:33:16Z</time>
      </trkpt>
      <trkpt lat="40.281367" lon="-4.909767">
        <ele>1932.0</ele>
        <time>2018-09-15T12:33:17Z</time>
      </trkpt>
      <trkpt lat="40.281483" lon="-4.909817">
        <ele>1935.0</ele>
        <time>2018-09-15T12:33:18Z</time>
      </trkpt>
      <trkpt lat="40.281600" lon="-4.909850">
        <ele>1937.0</ele>
        <time>2018-09-15T12:33:19Z</time>
      </trkpt>
      <trkpt lat="40.281683" lon="-4.909850">
        <ele>1939.0</ele>
        <time>2018-09-15T12:33:20Z</time>
      </trkpt>
      <trkpt lat="40.281783" lon="-4.909833">
        <ele>1941.0</ele>
        <time>2018-09-15T12:33:21Z</time>
      </trkpt>
      <trkpt lat="40.281867" lon="-4.909800">
        <ele>1941.0</ele>
        <time>2018-09-15T12:33:22Z</time>
      </trkpt>
      <trkpt lat="40.281950" lon="-4.909733">
        <ele>1942.0</ele>
        <time>2018-09-15T12:33:23Z</time>
      </trkpt>
      <trkpt lat="40.282033" lon="-4.909650">
        <ele>1945.0</ele>
        <time>2018-09-15T12:33:24Z</time>
      </trkpt>
      <trkpt lat="40.282100" lon="-4.909567">
        <ele>1948.0</ele>
        <time>2018-09-15T12:33:25Z</time>
      </trkpt>
      <trkpt lat="40.282133" lon="-4.909483">
        <ele>1952.0</ele>
        <time>2018-09-15T12:33:26Z</time>
      </trkpt>
      <trkpt lat="40.282167" lon="-4.909417">
        <ele>1954.0</ele>
        <time>2018-09-15T12:33:27Z</time>
      </trkpt>
      <trkpt lat="40.282200" lon="-4.909333">
        <ele>1957.0</ele>
        <time>2018-09-15T12:33:28Z</time>
      </trkpt>
      <trkpt lat="40.282233" lon="-4.909250">
        <ele>1960.0</ele>
        <time>2018-09-15T12:33:29Z</time>
      </trkpt>
      <trkpt lat="40.282283" lon="-4.909150">
        <ele>1964.0</ele>
        <time>2018-09-15T12:33:30Z</time>
      </trkpt>
      <trkpt lat="40.282317" lon="-4.909067">
        <ele>1968.0</ele>
        <time>2018-09-15T12:33:31Z</time>
      </trkpt>
      <trkpt lat="40.282350" lon="-4.909000">
        <ele>1973.0</ele>
        <time>2018-09-15T12:33:32Z</time>
      </trkpt>
      <trkpt lat="40.282367" lon="-4.908933">
        <ele>1978.0</ele>
        <time>2018-09-15T12:33:33Z</time>
      </trkpt>
      <trkpt lat="40.282400" lon="-4.908867">
        <ele>1981.0</ele>
        <time>2018-09-15T12:33:34Z</time>
      </trkpt>
      <trkpt lat="40.282433" lon="-4.908800">
        <ele>1984.0</ele>
        <time>2018-09-15T12:33:35Z</time>
      </trkpt>
      <trkpt lat="40.282483" lon="-4.908733">
        <ele>1987.0</ele>
        <time>2018-09-15T12:33:36Z</time>
      </trkpt>
      <trkpt lat="40.282517" lon="-4.908667">
        <ele>1991.0</ele>
        <time>2018-09-15T12:33:37Z</time>
      </trkpt>
      <trkpt lat="40.282550" lon="-4.908583">
        <ele>1995.0</ele>
        <time>2018-09-15T12:33:38Z</time>
      </trkpt>
      <trkpt lat="40.282550" lon="-4.908483">
        <ele>1997.0</ele>
        <time>2018-09-15T12:33:39Z</time>
      </trkpt>
      <trkpt lat="40.282533" lon="-4.908400">
        <ele>2000.0</ele>
        <time>2018-09-15T12:33:40Z</time>
      </trkpt>
      <trkpt lat="40.282500" lon="-4.908300">
        <ele>2003.0</ele>
        <time>2018-09-15T12:33:41Z</time>
      </trkpt>
      <trkpt lat="40.282450" lon="-4.908233">
        <ele>2006.0</ele>
        <time>2018-09-15T12:33:42Z</time>
      </trkpt>
      <trkpt lat="40.282400" lon="-4.908167">
        <ele>2010.0</ele>
        <time>2018-09-15T12:33:43Z</time>
      </trkpt>
      <trkpt lat="40.282350" lon="-4.908117">
        <ele>2014.0</ele>
        <time>2018-09-15T12:33:44Z</time>
      </trkpt>
      <trkpt lat="40.282283" lon="-4.908083">
        <ele>2017.0</ele>
        <time>2018-09-15T12:33:45Z</time>
      </trkpt>
      <trkpt lat="40.282217" lon="-4.908067">
        <ele>2020.0</ele>
        <time>2018-09-15T12:33:46Z</time>
      </trkpt>
      <trkpt lat="40.282150" lon="-4.908050">
        <ele>2023.0</ele>
        <time>2018-09-15T12:33:47Z</time>
      </trkpt>
      <trkpt lat="40.282117" lon="-4.908033">
        <ele>2025.0</ele>
        <time>2018-09-15T12:33:48Z</time>
      </trkpt>
      <trkpt lat="40.282067" lon="-4.908033">
        <ele>2025.0</ele>
        <time>2018-09-15T12:33:49Z</time>
      </trkpt>
      <trkpt lat="40.282000" lon="-4.908050">
        <ele>2024.0</ele>
        <time>2018-09-15T12:33:50Z</time>
      </trkpt>
      <trkpt lat="40.281933" lon="-4.908067">
        <ele>2023.0</ele>
        <time>2018-09-15T12:33:51Z</time>
      </trkpt>
      <trkpt lat="40.281867" lon="-4.908117">
        <ele>2022.0</ele>
        <time>2018-09-15T12:33:52Z</time>
      </trkpt>
      <trkpt lat="40.281817" lon="-4.908217">
        <ele>2022.0</ele>
        <time>2018-09-15T12:33:53Z</time>
      </trkpt>
      <trkpt lat="40.281800" lon="-4.908333">
        <ele>2021.0</ele>
        <time>2018-09-15T12:33:54Z</time>
      </trkpt>
      <trkpt lat="40.281800" lon="-4.908450">
        <ele>2021.0</ele>
        <time>2018-09-15T12:33:55Z</time>
      </trkpt>
      <trkpt lat="40.281833" lon="-4.908583">
        <ele>2021.0</ele>
        <time>2018-09-15T12:33:56Z</time>
      </trkpt>
      <trkpt lat="40.281867" lon="-4.908717">
        <ele>2022.0</ele>
        <time>2018-09-15T12:33:57Z</time>
      </trkpt>
      <trkpt lat="40.281933" lon="-4.908817">
        <ele>2023.0</ele>
        <time>2018-09-15T12:33:58Z</time>
      </trkpt>
      <trkpt lat="40.281983" lon="-4.908933">
        <ele>2023.0</ele>
        <time>2018-09-15T12:33:59Z</time>
      </trkpt>
      <trkpt lat="40.282050" lon="-4.909033">
        <ele>2023.0</ele>
        <time>2018-09-15T12:34:00Z</time>
      </trkpt>
      <trkpt lat="40.282133" lon="-4.909150">
        <ele>2023.0</ele>
        <time>2018-09-15T12:34:01Z</time>
      </trkpt>
      <trkpt lat="40.282233" lon="-4.909233">
        <ele>2024.0</ele>
        <time>2018-09-15T12:34:02Z</time>
      </trkpt>
      <trkpt lat="40.282317" lon="-4.909300">
        <ele>2026.0</ele>
        <time>2018-09-15T12:34:03Z</time>
      </trkpt>
      <trkpt lat="40.282417" lon="-4.909350">
        <ele>2028.0</ele>
        <time>2018-09-15T12:34:04Z</time>
      </trkpt>
      <trkpt lat="40.282517" lon="-4.909367">
        <ele>2031.0</ele>
        <time>2018-09-15T12:34:05Z</time>
      </trkpt>
      <trkpt lat="40.282600" lon="-4.909350">
        <ele>2035.0</ele>
        <time>2018-09-15T12:34:06Z</time>
      </trkpt>
      <trkpt lat="40.282683" lon="-4.909300">
        <ele>2038.0</ele>
        <time>2018-09-15T12:34:07Z</time>
      </trkpt>
      <trkpt lat="40.282733" lon="-4.909233">
        <ele>2040.0</ele>
        <time>2018-09-15T12:34:08Z</time>
      </trkpt>
      <trkpt lat="40.282783" lon="-4.909150">
        <ele>2042.0</ele>
        <time>2018-09-15T12:34:09Z</time>
      </trkpt>
      <trkpt lat="40.282800" lon="-4.909067">
        <ele>2043.0</ele>
        <time>2018-09-15T12:34:10Z</time>
      </trkpt>
      <trkpt lat="40.282817" lon="-4.908967">
        <ele>2046.0</ele>
        <time>2018-09-15T12:34:11Z</time>
      </trkpt>
      <trkpt lat="40.282833" lon="-4.908883">
        <ele>2047.0</ele>
        <time>2018-09-15T12:34:12Z</time>
      </trkpt>
      <trkpt lat="40.282833" lon="-4.908783">
        <ele>2050.0</ele>
        <time>2018-09-15T12:34:13Z</time>
      </trkpt>
      <trkpt lat="40.282850" lon="-4.908700">
        <ele>2052.0</ele>
        <time>2018-09-15T12:34:14Z</time>
      </trkpt>
      <trkpt lat="40.282867" lon="-4.908600">
        <ele>2054.0</ele>
        <time>2018-09-15T12:34:15Z</time>
      </trkpt>
      <trkpt lat="40.282867" lon="-4.908500">
        <ele>2056.0</ele>
        <time>2018-09-15T12:34:16Z</time>
      </trkpt>
      <trkpt lat="40.282883" lon="-4.908400">
        <ele>2058.0</ele>
        <time>2018-09-15T12:34:17Z</time>
      </trkpt>
      <trkpt lat="40.282883" lon="-4.908300">
        <ele>2059.0</ele>
        <time>2018-09-15T12:34:18Z</time>
      </trkpt>
      <trkpt lat="40.282883" lon="-4.908200">
        <ele>2060.0</ele>
        <time>2018-09-15T12:34:19Z</time>
      </trkpt>
      <trkpt lat="40.282883" lon="-4.908100">
        <ele>2062.0</ele>
        <time>2018-09-15T12:34:20Z</time>
      </trkpt>
      <trkpt lat="40.282883" lon="-4.908000">
        <ele>2063.0</ele>
        <time>2018-09-15T12:34:21Z</time>
      </trkpt>
      <trkpt lat="40.282867" lon="-4.907933">
        <ele>2064.0</ele>
        <time>2018-09-15T12:34:22Z</time>
      </trkpt>
      <trkpt lat="40.282850" lon="-4.907867">
        <ele>2063.0</ele>
        <time>2018-09-15T12:34:23Z</time>
      </trkpt>
      <trkpt lat="40.282817" lon="-4.907783">
        <ele>2061.0</ele>
        <time>2018-09-15T12:34:24Z</time>
      </trkpt>
      <trkpt lat="40.282800" lon="-4.907683">
        <ele>2060.0</ele>
        <time>2018-09-15T12:34:25Z</time>
      </trkpt>
      <trkpt lat="40.282783" lon="-4.907550">
        <ele>2059.0</ele>
        <time>2018-09-15T12:34:26Z</time>
      </trkpt>
      <trkpt lat="40.282783" lon="-4.907433">
        <ele>2059.0</ele>
        <time>2018-09-15T12:34:27Z</time>
      </trkpt>
      <trkpt lat="40.282783" lon="-4.907300">
        <ele>2060.0</ele>
        <time>2018-09-15T12:34:28Z</time>
      </trkpt>
      <trkpt lat="40.282800" lon="-4.907200">
        <ele>2062.0</ele>
        <time>2018-09-15T12:34:29Z</time>
      </trkpt>
      <trkpt lat="40.282817" lon="-4.907083">
        <ele>2064.0</ele>
        <time>2018-09-15T12:34:30Z</time>
      </trkpt>
      <trkpt lat="40.282833" lon="-4.907000">
        <ele>2065.0</ele>
        <time>2018-09-15T12:34:31Z</time>
      </trkpt>
      <trkpt lat="40.282867" lon="-4.906883">
        <ele>2066.0</ele>
        <time>2018-09-15T12:34:32Z</time>
      </trkpt>
      <trkpt lat="40.282900" lon="-4.906783">
        <ele>2068.0</ele>
        <time>2018-09-15T12:34:33Z</time>
      </trkpt>
      <trkpt lat="40.282950" lon="-4.906683">
        <ele>2069.0</ele>
        <time>2018-09-15T12:34:34Z</time>
      </trkpt>
      <trkpt lat="40.282983" lon="-4.906600">
        <ele>2072.0</ele>
        <time>2018-09-15T12:34:35Z</time>
      </trkpt>
      <trkpt lat="40.283017" lon="-4.906533">
        <ele>2074.0</ele>
        <time>2018-09-15T12:34:36Z</time>
      </trkpt>
      <trkpt lat="40.283033" lon="-4.906467">
        <ele>2075.0</ele>
        <time>2018-09-15T12:34:37Z</time>
      </trkpt>
      <trkpt lat="40.283050" lon="-4.906400">
        <ele>2076.0</ele>
        <time>2018-09-15T12:34:38Z</time>
      </trkpt>
      <trkpt lat="40.283083" lon="-4.906333">
        <ele>2077.0</ele>
        <time>2018-09-15T12:34:39Z</time>
      </trkpt>
      <trkpt lat="40.283117" lon="-4.906250">
        <ele>2079.0</ele>
        <time>2018-09-15T12:34:40Z</time>
      </trkpt>
      <trkpt lat="40.283117" lon="-4.906167">
        <ele>2080.0</ele>
        <time>2018-09-15T12:34:41Z</time>
      </trkpt>
      <trkpt lat="40.283100" lon="-4.906067">
        <ele>2082.0</ele>
        <time>2018-09-15T12:34:42Z</time>
      </trkpt>
      <trkpt lat="40.283067" lon="-4.905983">
        <ele>2083.0</ele>
        <time>2018-09-15T12:34:43Z</time>
      </trkpt>
      <trkpt lat="40.283017" lon="-4.905900">
        <ele>2085.0</ele>
        <time>2018-09-15T12:34:44Z</time>
      </trkpt>
      <trkpt lat="40.282950" lon="-4.905833">
        <ele>2087.0</ele>
        <time>2018-09-15T12:34:45Z</time>
      </trkpt>
      <trkpt lat="40.282883" lon="-4.905817">
        <ele>2089.0</ele>
        <time>2018-09-15T12:34:46Z</time>
      </trkpt>
      <trkpt lat="40.282800" lon="-4.905817">
        <ele>2091.0</ele>
        <time>2018-09-15T12:34:47Z</time>
      </trkpt>
      <trkpt lat="40.282700" lon="-4.905850">
        <ele>2092.0</ele>
        <time>2018-09-15T12:34:48Z</time>
      </trkpt>
      <trkpt lat="40.282633" lon="-4.905917">
        <ele>2094.0</ele>
        <time>2018-09-15T12:34:49Z</time>
      </trkpt>
      <trkpt lat="40.282550" lon="-4.906017">
        <ele>2096.0</ele>
        <time>2018-09-15T12:34:50Z</time>
      </trkpt>
      <trkpt lat="40.282483" lon="-4.906133">
        <ele>2097.0</ele>
        <time>2018-09-15T12:34:51Z</time>
      </trkpt>
      <trkpt lat="40.282433" lon="-4.906267">
        <ele>2099.0</ele>
        <time>2018-09-15T12:34:52Z</time>
      </trkpt>
      <trkpt lat="40.282383" lon="-4.906417">
        <ele>2101.0</ele>
        <time>2018-09-15T12:34:53Z</time>
      </trkpt>
      <trkpt lat="40.282367" lon="-4.906567">
        <ele>2103.0</ele>
        <time>2018-09-15T12:34:54Z</time>
      </trkpt>
      <trkpt lat="40.282383" lon="-4.906733">
        <ele>2104.0</ele>
        <time>2018-09-15T12:34:55Z</time>
      </trkpt>
      <trkpt lat="40.282433" lon="-4.906883">
        <ele>2104.0</ele>
        <time>2018-09-15T12:34:56Z</time>
      </trkpt>
      <trkpt lat="40.282500" lon="-4.907000">
        <ele>2104.0</ele>
        <time>2018-09-15T12:34:57Z</time>
      </trkpt>
      <trkpt lat="40.282583" lon="-4.907083">
        <ele>2104.0</ele>
        <time>2018-09-15T12:34:58Z</time>
      </trkpt>
      <trkpt lat="40.282683" lon="-4.907133">
        <ele>2103.0</ele>
        <time>2018-09-15T12:34:59Z</time>
      </trkpt>
      <trkpt lat="40.282800" lon="-4.907167">
        <ele>2102.0</ele>
        <time>2018-09-15T12:35:00Z</time>
      </trkpt>
      <trkpt lat="40.282900" lon="-4.907167">
        <ele>2103.0</ele>
        <time>2018-09-15T12:35:01Z</time>
      </trkpt>
      <trkpt lat="40.283000" lon="-4.907150">
        <ele>2103.0</ele>
        <time>2018-09-15T12:35:02Z</time>
      </trkpt>
      <trkpt lat="40.283067" lon="-4.907100">
        <ele>2104.0</ele>
        <time>2018-09-15T12:35:03Z</time>
      </trkpt>
      <trkpt lat="40.283133" lon="-4.907033">
        <ele>2104.0</ele>
        <time>2018-09-15T12:35:04Z</time>
      </trkpt>
      <trkpt lat="40.283200" lon="-4.906967">
        <ele>2106.0</ele>
        <time>2018-09-15T12:35:05Z</time>
      </trkpt>
      <trkpt lat="40.283250" lon="-4.906883">
        <ele>2107.0</ele>
        <time>2018-09-15T12:35:06Z</time>
      </trkpt>
      <trkpt lat="40.283300" lon="-4.906800">
        <ele>2109.0</ele>
        <time>2018-09-15T12:35:07Z</time>
      </trkpt>
      <trkpt lat="40.283350" lon="-4.906733">
        <ele>2111.0</ele>
        <time>2018-09-15T12:35:08Z</time>
      </trkpt>
      <trkpt lat="40.283383" lon="-4.906667">
        <ele>2112.0</ele>
        <time>2018-09-15T12:35:09Z</time>
      </trkpt>
      <trkpt lat="40.283417" lon="-4.906600">
        <ele>2113.0</ele>
        <time>2018-09-15T12:35:10Z</time>
      </trkpt>
      <trkpt lat="40.283417" lon="-4.906500">
        <ele>2113.0</ele>
        <time>2018-09-15T12:35:11Z</time>
      </trkpt>
      <trkpt lat="40.283417" lon="-4.906400">
        <ele>2113.0</ele>
        <time>2018-09-15T12:35:12Z</time>
      </trkpt>
      <trkpt lat="40.283417" lon="-4.906300">
        <ele>2114.0</ele>
        <time>2018-09-15T12:35:13Z</time>
      </trkpt>
      <trkpt lat="40.283417" lon="-4.906217">
        <ele>2116.0</ele>
        <time>2018-09-15T12:35:14Z</time>
      </trkpt>
      <trkpt lat="40.283433" lon="-4.906150">
        <ele>2117.0</ele>
        <time>2018-09-15T12:35:15Z</time>
      </trkpt>
      <trkpt lat="40.283450" lon="-4.906067">
        <ele>2118.0</ele>
        <time>2018-09-15T12:35:16Z</time>
      </trkpt>
      <trkpt lat="40.283500" lon="-4.906000">
        <ele>2118.0</ele>
        <time>2018-09-15T12:35:17Z</time>
      </trkpt>
      <trkpt lat="40.283550" lon="-4.905933">
        <ele>2117.0</ele>
        <time>2018-09-15T12:35:18Z</time>
      </trkpt>
      <trkpt lat="40.283633" lon="-4.905883">
        <ele>2116.0</ele>
        <time>2018-09-15T12:35:19Z</time>
      </trkpt>
      <trkpt lat="40.283733" lon="-4.905867">
        <ele>2116.0</ele>
        <time>2018-09-15T12:35:20Z</time>
      </trkpt>
      <trkpt lat="40.283850" lon="-4.905883">
        <ele>2117.0</ele>
        <time>2018-09-15T12:35:21Z</time>
      </trkpt>
      <trkpt lat="40.283967" lon="-4.905933">
        <ele>2118.0</ele>
        <time>2018-09-15T12:35:22Z</time>
      </trkpt>
      <trkpt lat="40.284067" lon="-4.905983">
        <ele>2121.0</ele>
        <time>2018-09-15T12:35:23Z</time>
      </trkpt>
      <trkpt lat="40.284150" lon="-4.906050">
        <ele>2123.0</ele>
        <time>2018-09-15T12:35:24Z</time>
      </trkpt>
      <trkpt lat="40.284233" lon="-4.906117">
        <ele>2123.0</ele>
        <time>2018-09-15T12:35:25Z</time>
      </trkpt>
      <trkpt lat="40.284317" lon="-4.906183">
        <ele>2124.0</ele>
        <time>2018-09-15T12:35:26Z</time>
      </trkpt>
      <trkpt lat="40.284417" lon="-4.906233">
        <ele>2124.0</ele>
        <time>2018-09-15T12:35:27Z</time>
      </trkpt>
      <trkpt lat="40.284517" lon="-4.906250">
        <ele>2124.0</ele>
        <time>2018-09-15T12:35:28Z</time>
      </trkpt>
      <trkpt lat="40.284600" lon="-4.906267">
        <ele>2124.0</ele>
        <time>2018-09-15T12:35:29Z</time>
      </trkpt>
      <trkpt lat="40.284700" lon="-4.906233">
        <ele>2124.0</ele>
        <time>2018-09-15T12:35:30Z</time>
      </trkpt>
      <trkpt lat="40.284783" lon="-4.906200">
        <ele>2124.0</ele>
        <time>2018-09-15T12:35:31Z</time>
      </trkpt>
      <trkpt lat="40.284850" lon="-4.906133">
        <ele>2124.0</ele>
        <time>2018-09-15T12:35:32Z</time>
      </trkpt>
      <trkpt lat="40.284917" lon="-4.906050">
        <ele>2125.0</ele>
        <time>2018-09-15T12:35:33Z</time>
      </trkpt>
      <trkpt lat="40.284967" lon="-4.905967">
        <ele>2126.0</ele>
        <time>2018-09-15T12:35:34Z</time>
      </trkpt>
      <trkpt lat="40.285000" lon="-4.905883">
        <ele>2127.0</ele>
        <time>2018-09-15T12:35:35Z</time>
      </trkpt>
      <trkpt lat="40.285050" lon="-4.905783">
        <ele>2128.0</ele>
        <time>2018-09-15T12:35:36Z</time>
      </trkpt>
      <trkpt lat="40.285067" lon="-4.905683">
        <ele>2129.0</ele>
        <time>2018-09-15T12:35:37Z</time>
      </trkpt>
      <trkpt lat="40.285083" lon="-4.905583">
        <ele>2130.0</ele>
        <time>2018-09-15T12:35:38Z</time>
      </trkpt>
      <trkpt lat="40.285083" lon="-4.905500">
        <ele>2131.0</ele>
        <time>2018-09-15T12:35:39Z</time>
      </trkpt>
      <trkpt lat="40.285083" lon="-4.905433">
        <ele>2131.0</ele>
        <time>2018-09-15T12:35:40Z</time>
      </trkpt>
      <trkpt lat="40.285083" lon="-4.905367">
        <ele>2130.0</ele>
        <time>2018-09-15T12:35:41Z</time>
      </trkpt>
      <trkpt lat="40.285083" lon="-4.905283">
        <ele>2129.0</ele>
        <time>2018-09-15T12:35:42Z</time>
      </trkpt>
      <trkpt lat="40.285067" lon="-4.905200">
        <ele>2129.0</ele>
        <time>2018-09-15T12:35:43Z</time>
      </trkpt>
      <trkpt lat="40.285033" lon="-4.905133">
        <ele>2129.0</ele>
        <time>2018-09-15T12:35:44Z</time>
      </trkpt>
      <trkpt lat="40.285000" lon="-4.905067">
        <ele>2129.0</ele>
        <time>2018-09-15T12:35:45Z</time>
      </trkpt>
      <trkpt lat="40.284967" lon="-4.905000">
        <ele>2130.0</ele>
        <time>2018-09-15T12:35:46Z</time>
      </trkpt>
      <trkpt lat="40.284917" lon="-4.904950">
        <ele>2131.0</ele>
        <time>2018-09-15T12:35:47Z</time>
      </trkpt>
      <trkpt lat="40.284867" lon="-4.904917">
        <ele>2132.0</ele>
        <time>2018-09-15T12:35:48Z</time>
      </trkpt>
      <trkpt lat="40.284833" lon="-4.904867">
        <ele>2131.0</ele>
        <time>2018-09-15T12:35:49Z</time>
      </trkpt>
      <trkpt lat="40.284783" lon="-4.904817">
        <ele>2131.0</ele>
        <time>2018-09-15T12:35:50Z</time>
      </trkpt>
      <trkpt lat="40.284717" lon="-4.904783">
        <ele>2130.0</ele>
        <time>2018-09-15T12:35:51Z</time>
      </trkpt>
      <trkpt lat="40.284667" lon="-4.904750">
        <ele>2130.0</ele>
        <time>2018-09-15T12:35:52Z</time>
      </trkpt>
      <trkpt lat="40.284600" lon="-4.904717">
        <ele>2130.0</ele>
        <time>2018-09-15T12:35:53Z</time>
      </trkpt>
      <trkpt lat="40.284533" lon="-4.904683">
        <ele>2130.0</ele>
        <time>2018-09-15T12:35:54Z</time>
      </trkpt>
      <trkpt lat="40.284467" lon="-4.904667">
        <ele>2130.0</ele>
        <time>2018-09-15T12:35:55Z</time>
      </trkpt>
      <trkpt lat="40.284400" lon="-4.904650">
        <ele>2130.0</ele>
        <time>2018-09-15T12:35:56Z</time>
      </trkpt>
      <trkpt lat="40.284333" lon="-4.904650">
        <ele>2130.0</ele>
        <time>2018-09-15T12:35:57Z</time>
      </trkpt>
      <trkpt lat="40.284250" lon="-4.904633">
        <ele>2130.0</ele>
        <time>2018-09-15T12:35:58Z</time>
      </trkpt>
      <trkpt lat="40.284150" lon="-4.904650">
        <ele>2131.0</ele>
        <time>2018-09-15T12:35:59Z</time>
      </trkpt>
      <trkpt lat="40.284050" lon="-4.904683">
        <ele>2134.0</ele>
        <time>2018-09-15T12:36:00Z</time>
      </trkpt>
      <trkpt lat="40.283967" lon="-4.904717">
        <ele>2138.0</ele>
        <time>2018-09-15T12:36:01Z</time>
      </trkpt>
      <trkpt lat="40.283900" lon="-4.904750">
        <ele>2143.0</ele>
        <time>2018-09-15T12:36:02Z</time>
      </trkpt>
      <trkpt lat="40.283833" lon="-4.904783">
        <ele>2146.0</ele>
        <time>2018-09-15T12:36:03Z</time>
      </trkpt>
      <trkpt lat="40.283767" lon="-4.904800">
        <ele>2149.0</ele>
        <time>2018-09-15T12:36:04Z</time>
      </trkpt>
      <trkpt lat="40.283700" lon="-4.904833">
        <ele>2151.0</ele>
        <time>2018-09-15T12:36:05Z</time>
      </trkpt>
      <trkpt lat="40.283633" lon="-4.904867">
        <ele>2153.0</ele>
        <time>2018-09-15T12:36:06Z</time>
      </trkpt>
      <trkpt lat="40.283567" lon="-4.904933">
        <ele>2155.0</ele>
        <time>2018-09-15T12:36:07Z</time>
      </trkpt>
      <trkpt lat="40.283483" lon="-4.905017">
        <ele>2156.0</ele>
        <time>2018-09-15T12:36:08Z</time>
      </trkpt>
      <trkpt lat="40.283417" lon="-4.905117">
        <ele>2158.0</ele>
        <time>2018-09-15T12:36:09Z</time>
      </trkpt>
      <trkpt lat="40.283350" lon="-4.905250">
        <ele>2160.0</ele>
        <time>2018-09-15T12:36:10Z</time>
      </trkpt>
      <trkpt lat="40.283317" lon="-4.905417">
        <ele>2163.0</ele>
        <time>2018-09-15T12:36:11Z</time>
      </trkpt>
      <trkpt lat="40.283317" lon="-4.905567">
        <ele>2166.0</ele>
        <time>2018-09-15T12:36:12Z</time>
      </trkpt>
      <trkpt lat="40.283333" lon="-4.905733">
        <ele>2168.0</ele>
        <time>2018-09-15T12:36:13Z</time>
      </trkpt>
      <trkpt lat="40.283350" lon="-4.905900">
        <ele>2169.0</ele>
        <time>2018-09-15T12:36:14Z</time>
      </trkpt>
      <trkpt lat="40.283383" lon="-4.906050">
        <ele>2171.0</ele>
        <time>2018-09-15T12:36:15Z</time>
      </trkpt>
      <trkpt lat="40.283433" lon="-4.906200">
        <ele>2173.0</ele>
        <time>2018-09-15T12:36:16Z</time>
      </trkpt>
      <trkpt lat="40.283500" lon="-4.906350">
        <ele>2175.0</ele>
        <time>2018-09-15T12:36:17Z</time>
      </trkpt>
      <trkpt lat="40.283567" lon="-4.906467">
        <ele>2178.0</ele>
        <time>2018-09-15T12:36:18Z</time>
      </trkpt>
      <trkpt lat="40.283650" lon="-4.906550">
        <ele>2181.0</ele>
        <time>2018-09-15T12:36:19Z</time>
      </trkpt>
      <trkpt lat="40.283750" lon="-4.906600">
        <ele>2183.0</ele>
        <time>2018-09-15T12:36:20Z</time>
      </trkpt>
      <trkpt lat="40.283850" lon="-4.906617">
        <ele>2184.0</ele>
        <time>2018-09-15T12:36:21Z</time>
      </trkpt>
      <trkpt lat="40.283933" lon="-4.906617">
        <ele>2186.0</ele>
        <time>2018-09-15T12:36:22Z</time>
      </trkpt>
      <trkpt lat="40.284033" lon="-4.906600">
        <ele>2188.0</ele>
        <time>2018-09-15T12:36:23Z</time>
      </trkpt>
      <trkpt lat="40.284117" lon="-4.906533">
        <ele>2189.0</ele>
        <time>2018-09-15T12:36:24Z</time>
      </trkpt>
      <trkpt lat="40.284183" lon="-4.906467">
        <ele>2190.0</ele>
        <time>2018-09-15T12:36:25Z</time>
      </trkpt>
      <trkpt lat="40.284250" lon="-4.906383">
        <ele>2192.0</ele>
        <time>2018-09-15T12:36:26Z</time>
      </trkpt>
      <trkpt lat="40.284300" lon="-4.906300">
        <ele>2194.0</ele>
        <time>2018-09-15T12:36:27Z</time>
      </trkpt>
      <trkpt lat="40.284317" lon="-4.906217">
        <ele>2195.0</ele>
        <time>2018-09-15T12:36:28Z</time>
      </trkpt>
      <trkpt lat="40.284333" lon="-4.906117">
        <ele>2197.0</ele>
        <time>2018-09-15T12:36:29Z</time>
      </trkpt>
      <trkpt lat="40.284317" lon="-4.906033">
        <ele>2198.0</ele>
        <time>2018-09-15T12:36:30Z</time>
      </trkpt>
      <trkpt lat="40.284300" lon="-4.905950">
        <ele>2199.0</ele>
        <time>2018-09-15T12:36:31Z</time>
      </trkpt>
      <trkpt lat="40.284283" lon="-4.905850">
        <ele>2201.0</ele>
        <time>2018-09-15T12:36:32Z</time>
      </trkpt>
      <trkpt lat="40.284250" lon="-4.905767">
        <ele>2203.0</ele>
        <time>2018-09-15T12:36:33Z</time>
      </trkpt>
      <trkpt lat="40.284200" lon="-4.905683">
        <ele>2205.0</ele>
        <time>2018-09-15T12:36:34Z</time>
      </trkpt>
      <trkpt lat="40.284117" lon="-4.905650">
        <ele>2208.0</ele>
        <time>2018-09-15T12:36:35Z</time>
      </trkpt>
      <trkpt lat="40.284050" lon="-4.905650">
        <ele>2210.0</ele>
        <time>2018-09-15T12:36:36Z</time>
      </trkpt>
      <trkpt lat="40.283950" lon="-4.905683">
        <ele>2213.0</ele>
        <time>2018-09-15T12:36:37Z</time>
      </trkpt>
      <trkpt lat="40.283867" lon="-4.905767">
        <ele>2214.0</ele>
        <time>2018-09-15T12:36:38Z</time>
      </trkpt>
      <trkpt lat="40.283800" lon="-4.905883">
        <ele>2217.0</ele>
        <time>2018-09-15T12:36:39Z</time>
      </trkpt>
      <trkpt lat="40.283750" lon="-4.906000">
        <ele>2220.0</ele>
        <time>2018-09-15T12:36:40Z</time>
      </trkpt>
      <trkpt lat="40.283717" lon="-4.906133">
        <ele>2222.0</ele>
        <time>2018-09-15T12:36:41Z</time>
      </trkpt>
      <trkpt lat="40.283717" lon="-4.906283">
        <ele>2223.0</ele>
        <time>2018-09-15T12:36:42Z</time>
      </trkpt>
      <trkpt lat="40.283733" lon="-4.906450">
        <ele>2223.0</ele>
        <time>2018-09-15T12:36:43Z</time>
      </trkpt>
      <trkpt lat="40.283767" lon="-4.906633">
        <ele>2224.0</ele>
        <time>2018-09-15T12:36:44Z</time>
      </trkpt>
      <trkpt lat="40.283833" lon="-4.906783">
        <ele>2225.0</ele>
        <time>2018-09-15T12:36:45Z</time>
      </trkpt>
      <trkpt lat="40.283917" lon="-4.906917">
        <ele>2227.0</ele>
        <time>2018-09-15T12:36:46Z</time>
      </trkpt>
      <trkpt lat="40.284017" lon="-4.906983">
        <ele>2228.0</ele>
        <time>2018-09-15T12:36:47Z</time>
      </trkpt>
      <trkpt lat="40.284117" lon="-4.907033">
        <ele>2228.0</ele>
        <time>2018-09-15T12:36:48Z</time>
      </trkpt>
      <trkpt lat="40.284217" lon="-4.907033">
        <ele>2229.0</ele>
        <time>2018-09-15T12:36:49Z</time>
      </trkpt>
      <trkpt lat="40.284317" lon="-4.907017">
        <ele>2231.0</ele>
        <time>2018-09-15T12:36:50Z</time>
      </trkpt>
      <trkpt lat="40.284400" lon="-4.906967">
        <ele>2232.0</ele>
        <time>2018-09-15T12:36:51Z</time>
      </trkpt>
      <trkpt lat="40.284450" lon="-4.906883">
        <ele>2233.0</ele>
        <time>2018-09-15T12:36:52Z</time>
      </trkpt>
      <trkpt lat="40.284500" lon="-4.906817">
        <ele>2234.0</ele>
        <time>2018-09-15T12:36:53Z</time>
      </trkpt>
      <trkpt lat="40.284550" lon="-4.906733">
        <ele>2235.0</ele>
        <time>2018-09-15T12:36:54Z</time>
      </trkpt>
      <trkpt lat="40.284600" lon="-4.906633">
        <ele>2237.0</ele>
        <time>2018-09-15T12:36:55Z</time>
      </trkpt>
      <trkpt lat="40.284650" lon="-4.906533">
        <ele>2239.0</ele>
        <time>2018-09-15T12:36:56Z</time>
      </trkpt>
      <trkpt lat="40.284650" lon="-4.906450">
        <ele>2241.0</ele>
        <time>2018-09-15T12:36:57Z</time>
      </trkpt>
      <trkpt lat="40.284633" lon="-4.906367">
        <ele>2243.0</ele>
        <time>2018-09-15T12:36:58Z</time>
      </trkpt>
      <trkpt lat="40.284583" lon="-4.906300">
        <ele>2245.0</ele>
        <time>2018-09-15T12:36:59Z</time>
      </trkpt>
      <trkpt lat="40.284517" lon="-4.906267">
        <ele>2248.0</ele>
        <time>2018-09-15T12:37:00Z</time>
      </trkpt>
      <trkpt lat="40.284433" lon="-4.906267">
        <ele>2251.0</ele>
        <time>2018-09-15T12:37:01Z</time>
      </trkpt>
      <trkpt lat="40.284367" lon="-4.906317">
        <ele>2253.0</ele>
        <time>2018-09-15T12:37:02Z</time>
      </trkpt>
      <trkpt lat="40.284283" lon="-4.906400">
        <ele>2254.0</ele>
        <time>2018-09-15T12:37:03Z</time>
      </trkpt>
      <trkpt lat="40.284233" lon="-4.906533">
        <ele>2254.0</ele>
        <time>2018-09-15T12:37:04Z</time>
      </trkpt>
      <trkpt lat="40.284200" lon="-4.906700">
        <ele>2255.0</ele>
        <time>2018-09-15T12:37:05Z</time>
      </trkpt>
      <trkpt lat="40.284200" lon="-4.906867">
        <ele>2257.0</ele>
        <time>2018-09-15T12:37:06Z</time>
      </trkpt>
      <trkpt lat="40.284250" lon="-4.907033">
        <ele>2258.0</ele>
        <time>2018-09-15T12:37:07Z</time>
      </trkpt>
      <trkpt lat="40.284333" lon="-4.907167">
        <ele>2259.0</ele>
        <time>2018-09-15T12:37:08Z</time>
      </trkpt>
      <trkpt lat="40.284433" lon="-4.907267">
        <ele>2260.0</ele>
        <time>2018-09-15T12:37:09Z</time>
      </trkpt>
      <trkpt lat="40.284533" lon="-4.907350">
        <ele>2261.0</ele>
        <time>2018-09-15T12:37:10Z</time>
      </trkpt>
      <trkpt lat="40.284650" lon="-4.907383">
        <ele>2262.0</ele>
        <time>2018-09-15T12:37:11Z</time>
      </trkpt>
      <trkpt lat="40.284750" lon="-4.907383">
        <ele>2264.0</ele>
        <time>2018-09-15T12:37:12Z</time>
      </trkpt>
      <trkpt lat="40.284850" lon="-4.907350">
        <ele>2266.0</ele>
        <time>2018-09-15T12:37:13Z</time>
      </trkpt>
      <trkpt lat="40.284917" lon="-4.907283">
        <ele>2268.0</ele>
        <time>2018-09-15T12:37:14Z</time>
      </trkpt>
      <trkpt lat="40.284950" lon="-4.907217">
        <ele>2269.0</ele>
        <time>2018-09-15T12:37:15Z</time>
      </trkpt>
      <trkpt lat="40.284983" lon="-4.907133">
        <ele>2271.0</ele>
        <time>2018-09-15T12:37:16Z</time>
      </trkpt>
      <trkpt lat="40.284967" lon="-4.907033">
        <ele>2272.0</ele>
        <time>2018-09-15T12:37:17Z</time>
      </trkpt>
      <trkpt lat="40.284933" lon="-4.906950">
        <ele>2273.0</ele>
        <time>2018-09-15T12:37:18Z</time>
      </trkpt>
      <trkpt lat="40.284883" lon="-4.906900">
        <ele>2276.0</ele>
        <time>2018-09-15T12:37:19Z</time>
      </trkpt>
      <trkpt lat="40.284833" lon="-4.906867">
        <ele>2278.0</ele>
        <time>2018-09-15T12:37:20Z</time>
      </trkpt>
      <trkpt lat="40.284750" lon="-4.906883">
        <ele>2280.0</ele>
        <time>2018-09-15T12:37:21Z</time>
      </trkpt>
      <trkpt lat="40.284683" lon="-4.906917">
        <ele>2281.0</ele>
        <time>2018-09-15T12:37:22Z</time>
      </trkpt>
      <trkpt lat="40.284600" lon="-4.907000">
        <ele>2281.0</ele>
        <time>2018-09-15T12:37:23Z</time>
      </trkpt>
      <trkpt lat="40.284533" lon="-4.907100">
        <ele>2282.0</ele>
        <time>2018-09-15T12:37:24Z</time>
      </trkpt>
      <trkpt lat="40.284467" lon="-4.907233">
        <ele>2282.0</ele>
        <time>2018-09-15T12:37:25Z</time>
      </trkpt>
      <trkpt lat="40.284417" lon="-4.907383">
        <ele>2283.0</ele>
        <time>2018-09-15T12:37:26Z</time>
      </trkpt>
      <trkpt lat="40.284383" lon="-4.907533">
        <ele>2283.0</ele>
        <time>2018-09-15T12:37:27Z</time>
      </trkpt>
      <trkpt lat="40.284383" lon="-4.907717">
        <ele>2282.0</ele>
        <time>2018-09-15T12:37:28Z</time>
      </trkpt>
      <trkpt lat="40.284433" lon="-4.907883">
        <ele>2282.0</ele>
        <time>2018-09-15T12:37:29Z</time>
      </trkpt>
      <trkpt lat="40.284500" lon="-4.908033">
        <ele>2282.0</ele>
        <time>2018-09-15T12:37:30Z</time>
      </trkpt>
      <trkpt lat="40.284600" lon="-4.908150">
        <ele>2282.0</ele>
        <time>2018-09-15T12:37:31Z</time>
      </trkpt>
      <trkpt lat="40.284717" lon="-4.908217">
        <ele>2283.0</ele>
        <time>2018-09-15T12:37:32Z</time>
      </trkpt>
      <trkpt lat="40.284833" lon="-4.908250">
        <ele>2284.0</ele>
        <time>2018-09-15T12:37:33Z</time>
      </trkpt>
      <trkpt lat="40.284933" lon="-4.908250">
        <ele>2286.0</ele>
        <time>2018-09-15T12:37:34Z</time>
      </trkpt>
      <trkpt lat="40.285017" lon="-4.908200">
        <ele>2288.0</ele>
        <time>2018-09-15T12:37:35Z</time>
      </trkpt>
      <trkpt lat="40.285083" lon="-4.908150">
        <ele>2289.0</ele>
        <time>2018-09-15T12:37:36Z</time>
      </trkpt>
      <trkpt lat="40.285150" lon="-4.908083">
        <ele>2290.0</ele>
        <time>2018-09-15T12:37:37Z</time>
      </trkpt>
      <trkpt lat="40.285200" lon="-4.908017">
        <ele>2292.0</ele>
        <time>2018-09-15T12:37:38Z</time>
      </trkpt>
      <trkpt lat="40.285233" lon="-4.907950">
        <ele>2293.0</ele>
        <time>2018-09-15T12:37:39Z</time>
      </trkpt>
      <trkpt lat="40.285300" lon="-4.907900">
        <ele>2293.0</ele>
        <time>2018-09-15T12:37:40Z</time>
      </trkpt>
      <trkpt lat="40.285350" lon="-4.907833">
        <ele>2294.0</ele>
        <time>2018-09-15T12:37:41Z</time>
      </trkpt>
      <trkpt lat="40.285417" lon="-4.907767">
        <ele>2294.0</ele>
        <time>2018-09-15T12:37:42Z</time>
      </trkpt>
      <trkpt lat="40.285500" lon="-4.907700">
        <ele>2295.0</ele>
        <time>2018-09-15T12:37:43Z</time>
      </trkpt>
      <trkpt lat="40.285567" lon="-4.907650">
        <ele>2296.0</ele>
        <time>2018-09-15T12:37:44Z</time>
      </trkpt>
      <trkpt lat="40.285650" lon="-4.907600">
        <ele>2296.0</ele>
        <time>2018-09-15T12:37:45Z</time>
      </trkpt>
      <trkpt lat="40.285733" lon="-4.907550">
        <ele>2297.0</ele>
        <time>2018-09-15T12:37:46Z</time>
      </trkpt>
      <trkpt lat="40.285800" lon="-4.907500">
        <ele>2298.0</ele>
        <time>2018-09-15T12:37:47Z</time>
      </trkpt>
      <trkpt lat="40.285883" lon="-4.907433">
        <ele>2300.0</ele>
        <time>2018-09-15T12:37:48Z</time>
      </trkpt>
      <trkpt lat="40.285950" lon="-4.907367">
        <ele>2301.0</ele>
        <time>2018-09-15T12:37:49Z</time>
      </trkpt>
      <trkpt lat="40.286017" lon="-4.907317">
        <ele>2303.0</ele>
        <time>2018-09-15T12:37:50Z</time>
      </trkpt>
      <trkpt lat="40.286100" lon="-4.907250">
        <ele>2304.0</ele>
        <time>2018-09-15T12:37:51Z</time>
      </trkpt>
      <trkpt lat="40.286183" lon="-4.907200">
        <ele>2305.0</ele>
        <time>2018-09-15T12:37:52Z</time>
      </trkpt>
      <trkpt lat="40.286267" lon="-4.907150">
        <ele>2305.0</ele>
        <time>2018-09-15T12:37:53Z</time>
      </trkpt>
      <trkpt lat="40.286350" lon="-4.907083">
        <ele>2304.0</ele>
        <time>2018-09-15T12:37:54Z</time>
      </trkpt>
      <trkpt lat="40.286433" lon="-4.907017">
        <ele>2304.0</ele>
        <time>2018-09-15T12:37:55Z</time>
      </trkpt>
      <trkpt lat="40.286533" lon="-4.906950">
        <ele>2303.0</ele>
        <time>2018-09-15T12:37:56Z</time>
      </trkpt>
      <trkpt lat="40.286617" lon="-4.906867">
        <ele>2304.0</ele>
        <time>2018-09-15T12:37:57Z</time>
      </trkpt>
      <trkpt lat="40.286700" lon="-4.906800">
        <ele>2307.0</ele>
        <time>2018-09-15T12:37:58Z</time>
      </trkpt>
      <trkpt lat="40.286767" lon="-4.906750">
        <ele>2309.0</ele>
        <time>2018-09-15T12:37:59Z</time>
      </trkpt>
      <trkpt lat="40.286833" lon="-4.906700">
        <ele>2311.0</ele>
        <time>2018-09-15T12:38:00Z</time>
      </trkpt>
      <trkpt lat="40.286883" lon="-4.906650">
        <ele>2312.0</ele>
        <time>2018-09-15T12:38:01Z</time>
      </trkpt>
      <trkpt lat="40.286933" lon="-4.906617">
        <ele>2312.0</ele>
        <time>2018-09-15T12:38:02Z</time>
      </trkpt>
      <trkpt lat="40.287000" lon="-4.906567">
        <ele>2310.0</ele>
        <time>2018-09-15T12:38:03Z</time>
      </trkpt>
      <trkpt lat="40.287067" lon="-4.906533">
        <ele>2308.0</ele>
        <time>2018-09-15T12:38:04Z</time>
      </trkpt>
      <trkpt lat="40.287150" lon="-4.906483">
        <ele>2307.0</ele>
        <time>2018-09-15T12:38:05Z</time>
      </trkpt>
      <trkpt lat="40.287233" lon="-4.906433">
        <ele>2306.0</ele>
        <time>2018-09-15T12:38:06Z</time>
      </trkpt>
      <trkpt lat="40.287317" lon="-4.906383">
        <ele>2305.0</ele>
        <time>2018-09-15T12:38:07Z</time>
      </trkpt>
      <trkpt lat="40.287383" lon="-4.906350">
        <ele>2304.0</ele>
        <time>2018-09-15T12:38:08Z</time>
      </trkpt>
      <trkpt lat="40.287467" lon="-4.906300">
        <ele>2302.0</ele>
        <time>2018-09-15T12:38:09Z</time>
      </trkpt>
      <trkpt lat="40.287550" lon="-4.906250">
        <ele>2300.0</ele>
        <time>2018-09-15T12:38:10Z</time>
      </trkpt>
      <trkpt lat="40.287650" lon="-4.906217">
        <ele>2298.0</ele>
        <time>2018-09-15T12:38:11Z</time>
      </trkpt>
      <trkpt lat="40.287750" lon="-4.906167">
        <ele>2298.0</ele>
        <time>2018-09-15T12:38:12Z</time>
      </trkpt>
      <trkpt lat="40.287850" lon="-4.906117">
        <ele>2297.0</ele>
        <time>2018-09-15T12:38:13Z</time>
      </trkpt>
      <trkpt lat="40.287950" lon="-4.906067">
        <ele>2297.0</ele>
        <time>2018-09-15T12:38:14Z</time>
      </trkpt>
      <trkpt lat="40.288033" lon="-4.906033">
        <ele>2296.0</ele>
        <time>2018-09-15T12:38:15Z</time>
      </trkpt>
      <trkpt lat="40.288150" lon="-4.906000">
        <ele>2294.0</ele>
        <time>2018-09-15T12:38:16Z</time>
      </trkpt>
      <trkpt lat="40.288250" lon="-4.905967">
        <ele>2292.0</ele>
        <time>2018-09-15T12:38:17Z</time>
      </trkpt>
      <trkpt lat="40.288367" lon="-4.905933">
        <ele>2290.0</ele>
        <time>2018-09-15T12:38:18Z</time>
      </trkpt>
      <trkpt lat="40.288500" lon="-4.905900">
        <ele>2289.0</ele>
        <time>2018-09-15T12:38:19Z</time>
      </trkpt>
      <trkpt lat="40.288617" lon="-4.905883">
        <ele>2288.0</ele>
        <time>2018-09-15T12:38:20Z</time>
      </trkpt>
      <trkpt lat="40.288733" lon="-4.905883">
        <ele>2289.0</ele>
        <time>2018-09-15T12:38:21Z</time>
      </trkpt>
      <trkpt lat="40.288833" lon="-4.905883">
        <ele>2289.0</ele>
        <time>2018-09-15T12:38:22Z</time>
      </trkpt>
      <trkpt lat="40.288933" lon="-4.905883">
        <ele>2288.0</ele>
        <time>2018-09-15T12:38:23Z</time>
      </trkpt>
      <trkpt lat="40.289017" lon="-4.905883">
        <ele>2285.0</ele>
        <time>2018-09-15T12:38:24Z</time>
      </trkpt>
      <trkpt lat="40.289117" lon="-4.905833">
        <ele>2282.0</ele>
        <time>2018-09-15T12:38:25Z</time>
      </trkpt>
      <trkpt lat="40.289217" lon="-4.905783">
        <ele>2280.0</ele>
        <time>2018-09-15T12:38:26Z</time>
      </trkpt>
      <trkpt lat="40.289317" lon="-4.905733">
        <ele>2279.0</ele>
        <time>2018-09-15T12:38:27Z</time>
      </trkpt>
      <trkpt lat="40.289417" lon="-4.905667">
        <ele>2278.0</ele>
        <time>2018-09-15T12:38:28Z</time>
      </trkpt>
      <trkpt lat="40.289517" lon="-4.905633">
        <ele>2277.0</ele>
        <time>2018-09-15T12:38:29Z</time>
      </trkpt>
      <trkpt lat="40.289617" lon="-4.905600">
        <ele>2275.0</ele>
        <time>2018-09-15T12:38:30Z</time>
      </trkpt>
      <trkpt lat="40.289733" lon="-4.905583">
        <ele>2273.0</ele>
        <time>2018-09-15T12:38:31Z</time>
      </trkpt>
      <trkpt lat="40.289833" lon="-4.905550">
        <ele>2271.0</ele>
        <time>2018-09-15T12:38:32Z</time>
      </trkpt>
      <trkpt lat="40.289933" lon="-4.905517">
        <ele>2267.0</ele>
        <time>2018-09-15T12:38:33Z</time>
      </trkpt>
      <trkpt lat="40.290033" lon="-4.905467">
        <ele>2263.0</ele>
        <time>2018-09-15T12:38:34Z</time>
      </trkpt>
      <trkpt lat="40.290133" lon="-4.905417">
        <ele>2258.0</ele>
        <time>2018-09-15T12:38:35Z</time>
      </trkpt>
      <trkpt lat="40.290233" lon="-4.905350">
        <ele>2254.0</ele>
        <time>2018-09-15T12:38:36Z</time>
      </trkpt>
      <trkpt lat="40.290350" lon="-4.905300">
        <ele>2250.0</ele>
        <time>2018-09-15T12:38:37Z</time>
      </trkpt>
      <trkpt lat="40.290450" lon="-4.905233">
        <ele>2247.0</ele>
        <time>2018-09-15T12:38:38Z</time>
      </trkpt>
      <trkpt lat="40.290533" lon="-4.905183">
        <ele>2245.0</ele>
        <time>2018-09-15T12:38:39Z</time>
      </trkpt>
      <trkpt lat="40.290633" lon="-4.905133">
        <ele>2242.0</ele>
        <time>2018-09-15T12:38:40Z</time>
      </trkpt>
      <trkpt lat="40.290717" lon="-4.905100">
        <ele>2239.0</ele>
        <time>2018-09-15T12:38:41Z</time>
      </trkpt>
      <trkpt lat="40.290800" lon="-4.905033">
        <ele>2236.0</ele>
        <time>2018-09-15T12:38:42Z</time>
      </trkpt>
      <trkpt lat="40.290883" lon="-4.904967">
        <ele>2232.0</ele>
        <time>2018-09-15T12:38:43Z</time>
      </trkpt>
      <trkpt lat="40.290950" lon="-4.904883">
        <ele>2229.0</ele>
        <time>2018-09-15T12:38:44Z</time>
      </trkpt>
      <trkpt lat="40.291017" lon="-4.904783">
        <ele>2227.0</ele>
        <time>2018-09-15T12:38:45Z</time>
      </trkpt>
      <trkpt lat="40.291100" lon="-4.904717">
        <ele>2224.0</ele>
        <time>2018-09-15T12:38:46Z</time>
      </trkpt>
      <trkpt lat="40.291183" lon="-4.904667">
        <ele>2221.0</ele>
        <time>2018-09-15T12:38:47Z</time>
      </trkpt>
      <trkpt lat="40.291250" lon="-4.904617">
        <ele>2219.0</ele>
        <time>2018-09-15T12:38:48Z</time>
      </trkpt>
      <trkpt lat="40.291333" lon="-4.904550">
        <ele>2215.0</ele>
        <time>2018-09-15T12:38:49Z</time>
      </trkpt>
      <trkpt lat="40.291400" lon="-4.904483">
        <ele>2210.0</ele>
        <time>2018-09-15T12:38:50Z</time>
      </trkpt>
      <trkpt lat="40.291483" lon="-4.904417">
        <ele>2206.0</ele>
        <time>2018-09-15T12:38:51Z</time>
      </trkpt>
      <trkpt lat="40.291567" lon="-4.904317">
        <ele>2202.0</ele>
        <time>2018-09-15T12:38:52Z</time>
      </trkpt>
      <trkpt lat="40.291667" lon="-4.904233">
        <ele>2200.0</ele>
        <time>2018-09-15T12:38:53Z</time>
      </trkpt>
      <trkpt lat="40.291767" lon="-4.904167">
        <ele>2199.0</ele>
        <time>2018-09-15T12:38:54Z</time>
      </trkpt>
      <trkpt lat="40.291867" lon="-4.904100">
        <ele>2199.0</ele>
        <time>2018-09-15T12:38:55Z</time>
      </trkpt>
      <trkpt lat="40.291950" lon="-4.904050">
        <ele>2197.0</ele>
        <time>2018-09-15T12:38:56Z</time>
      </trkpt>
      <trkpt lat="40.292033" lon="-4.903983">
        <ele>2196.0</ele>
        <time>2018-09-15T12:38:57Z</time>
      </trkpt>
      <trkpt lat="40.292117" lon="-4.903933">
        <ele>2193.0</ele>
        <time>2018-09-15T12:38:58Z</time>
      </trkpt>
      <trkpt lat="40.292183" lon="-4.903883">
        <ele>2191.0</ele>
        <time>2018-09-15T12:38:59Z</time>
      </trkpt>
      <trkpt lat="40.292267" lon="-4.903833">
        <ele>2188.0</ele>
        <time>2018-09-15T12:39:00Z</time>
      </trkpt>
      <trkpt lat="40.292350" lon="-4.903767">
        <ele>2184.0</ele>
        <time>2018-09-15T12:39:01Z</time>
      </trkpt>
      <trkpt lat="40.292433" lon="-4.903700">
        <ele>2182.0</ele>
        <time>2018-09-15T12:39:02Z</time>
      </trkpt>
      <trkpt lat="40.292517" lon="-4.903633">
        <ele>2180.0</ele>
        <time>2018-09-15T12:39:03Z</time>
      </trkpt>
      <trkpt lat="40.292633" lon="-4.903583">
        <ele>2179.0</ele>
        <time>2018-09-15T12:39:04Z</time>
      </trkpt>
      <trkpt lat="40.292733" lon="-4.903533">
        <ele>2177.0</ele>
        <time>2018-09-15T12:39:05Z</time>
      </trkpt>
      <trkpt lat="40.292833" lon="-4.903483">
        <ele>2176.0</ele>
        <time>2018-09-15T12:39:06Z</time>
      </trkpt>
      <trkpt lat="40.292933" lon="-4.903450">
        <ele>2176.0</ele>
        <time>2018-09-15T12:39:07Z</time>
      </trkpt>
      <trkpt lat="40.293017" lon="-4.903417">
        <ele>2176.0</ele>
        <time>2018-09-15T12:39:08Z</time>
      </trkpt>
      <trkpt lat="40.293117" lon="-4.903400">
        <ele>2175.0</ele>
        <time>2018-09-15T12:39:09Z</time>
      </trkpt>
      <trkpt lat="40.293200" lon="-4.903383">
        <ele>2174.0</ele>
        <time>2018-09-15T12:39:10Z</time>
      </trkpt>
      <trkpt lat="40.293283" lon="-4.903350">
        <ele>2172.0</ele>
        <time>2018-09-15T12:39:11Z</time>
      </trkpt>
      <trkpt lat="40.293367" lon="-4.903333">
        <ele>2171.0</ele>
        <time>2018-09-15T12:39:12Z</time>
      </trkpt>
      <trkpt lat="40.293467" lon="-4.903300">
        <ele>2169.0</ele>
        <time>2018-09-15T12:39:13Z</time>
      </trkpt>
      <trkpt lat="40.293550" lon="-4.903267">
        <ele>2168.0</ele>
        <time>2018-09-15T12:39:14Z</time>
      </trkpt>
      <trkpt lat="40.293650" lon="-4.903217">
        <ele>2166.0</ele>
        <time>2018-09-15T12:39:15Z</time>
      </trkpt>
      <trkpt lat="40.293733" lon="-4.903200">
        <ele>2165.0</ele>
        <time>2018-09-15T12:39:16Z</time>
      </trkpt>
      <trkpt lat="40.293833" lon="-4.903183">
        <ele>2163.0</ele>
        <time>2018-09-15T12:39:17Z</time>
      </trkpt>
      <trkpt lat="40.293917" lon="-4.903167">
        <ele>2161.0</ele>
        <time>2018-09-15T12:39:18Z</time>
      </trkpt>
      <trkpt lat="40.294017" lon="-4.903150">
        <ele>2158.0</ele>
        <time>2018-09-15T12:39:19Z</time>
      </trkpt>
      <trkpt lat="40.294117" lon="-4.903117">
        <ele>2154.0</ele>
        <time>2018-09-15T12:39:20Z</time>
      </trkpt>
      <trkpt lat="40.294217" lon="-4.903100">
        <ele>2150.0</ele>
        <time>2018-09-15T12:39:21Z</time>
      </trkpt>
      <trkpt lat="40.294317" lon="-4.903067">
        <ele>2146.0</ele>
        <time>2018-09-15T12:39:22Z</time>
      </trkpt>
      <trkpt lat="40.294433" lon="-4.903033">
        <ele>2142.0</ele>
        <time>2018-09-15T12:39:23Z</time>
      </trkpt>
      <trkpt lat="40.294550" lon="-4.903000">
        <ele>2139.0</ele>
        <time>2018-09-15T12:39:24Z</time>
      </trkpt>
      <trkpt lat="40.294667" lon="-4.902967">
        <ele>2137.0</ele>
        <time>2018-09-15T12:39:25Z</time>
      </trkpt>
      <trkpt lat="40.294767" lon="-4.902950">
        <ele>2136.0</ele>
        <time>2018-09-15T12:39:26Z</time>
      </trkpt>
      <trkpt lat="40.294867" lon="-4.902950">
        <ele>2135.0</ele>
        <time>2018-09-15T12:39:27Z</time>
      </trkpt>
      <trkpt lat="40.294967" lon="-4.902933">
        <ele>2133.0</ele>
        <time>2018-09-15T12:39:28Z</time>
      </trkpt>
      <trkpt lat="40.295050" lon="-4.902950">
        <ele>2130.0</ele>
        <time>2018-09-15T12:39:29Z</time>
      </trkpt>
      <trkpt lat="40.295167" lon="-4.902983">
        <ele>2126.0</ele>
        <time>2018-09-15T12:39:30Z</time>
      </trkpt>
      <trkpt lat="40.295283" lon="-4.903000">
        <ele>2121.0</ele>
        <time>2018-09-15T12:39:31Z</time>
      </trkpt>
      <trkpt lat="40.295400" lon="-4.903017">
        <ele>2119.0</ele>
        <time>2018-09-15T12:39:32Z</time>
      </trkpt>
      <trkpt lat="40.295517" lon="-4.903000">
        <ele>2118.0</ele>
        <time>2018-09-15T12:39:33Z</time>
      </trkpt>
      <trkpt lat="40.295617" lon="-4.902967">
        <ele>2117.0</ele>
        <time>2018-09-15T12:39:34Z</time>
      </trkpt>
      <trkpt lat="40.295683" lon="-4.902933">
        <ele>2116.0</ele>
        <time>2018-09-15T12:39:35Z</time>
      </trkpt>
      <trkpt lat="40.295750" lon="-4.902867">
        <ele>2115.0</ele>
        <time>2018-09-15T12:39:36Z</time>
      </trkpt>
      <trkpt lat="40.295800" lon="-4.902800">
        <ele>2113.0</ele>
        <time>2018-09-15T12:39:37Z</time>
      </trkpt>
      <trkpt lat="40.295833" lon="-4.902717">
        <ele>2110.0</ele>
        <time>2018-09-15T12:39:38Z</time>
      </trkpt>
      <trkpt lat="40.295850" lon="-4.902617">
        <ele>2108.0</ele>
        <time>2018-09-15T12:39:39Z</time>
      </trkpt>
      <trkpt lat="40.295850" lon="-4.902517">
        <ele>2106.0</ele>
        <time>2018-09-15T12:39:40Z</time>
      </trkpt>
      <trkpt lat="40.295817" lon="-4.902433">
        <ele>2105.0</ele>
        <time>2018-09-15T12:39:41Z</time>
      </trkpt>
      <trkpt lat="40.295767" lon="-4.902367">
        <ele>2104.0</ele>
        <time>2018-09-15T12:39:42Z</time>
      </trkpt>
      <trkpt lat="40.295717" lon="-4.902317">
        <ele>2104.0</ele>
        <time>2018-09-15T12:39:43Z</time>
      </trkpt>
      <trkpt lat="40.295650" lon="-4.902283">
        <ele>2102.0</ele>
        <time>2018-09-15T12:39:44Z</time>
      </trkpt>
      <trkpt lat="40.295583" lon="-4.902267">
        <ele>2101.0</ele>
        <time>2018-09-15T12:39:45Z</time>
      </trkpt>
      <trkpt lat="40.295500" lon="-4.902283">
        <ele>2098.0</ele>
        <time>2018-09-15T12:39:46Z</time>
      </trkpt>
      <trkpt lat="40.295417" lon="-4.902317">
        <ele>2096.0</ele>
        <time>2018-09-15T12:39:47Z</time>
      </trkpt>
      <trkpt lat="40.295317" lon="-4.902350">
        <ele>2094.0</ele>
        <time>2018-09-15T12:39:48Z</time>
      </trkpt>
      <trkpt lat="40.295233" lon="-4.902417">
        <ele>2092.0</ele>
        <time>2018-09-15T12:39:49Z</time>
      </trkpt>
      <trkpt lat="40.295150" lon="-4.902500">
        <ele>2090.0</ele>
        <time>2018-09-15T12:39:50Z</time>
      </trkpt>
      <trkpt lat="40.295067" lon="-4.902583">
        <ele>2089.0</ele>
        <time>2018-09-15T12:39:51Z</time>
      </trkpt>
      <trkpt lat="40.294983" lon="-4.902650">
        <ele>2087.0</ele>
        <time>2018-09-15T12:39:52Z</time>
      </trkpt>
      <trkpt lat="40.294900" lon="-4.902733">
        <ele>2085.0</ele>
        <time>2018-09-15T12:39:53Z</time>
      </trkpt>
      <trkpt lat="40.294833" lon="-4.902833">
        <ele>2083.0</ele>
        <time>2018-09-15T12:39:54Z</time>
      </trkpt>
      <trkpt lat="40.294750" lon="-4.902933">
        <ele>2081.0</ele>
        <time>2018-09-15T12:39:55Z</time>
      </trkpt>
      <trkpt lat="40.294667" lon="-4.903033">
        <ele>2080.0</ele>
        <time>2018-09-15T12:39:56Z</time>
      </trkpt>
      <trkpt lat="40.294617" lon="-4.903150">
        <ele>2079.0</ele>
        <time>2018-09-15T12:39:57Z</time>
      </trkpt>
      <trkpt lat="40.294550" lon="-4.903267">
        <ele>2079.0</ele>
        <time>2018-09-15T12:39:58Z</time>
      </trkpt>
      <trkpt lat="40.294483" lon="-4.903367">
        <ele>2077.0</ele>
        <time>2018-09-15T12:39:59Z</time>
      </trkpt>
      <trkpt lat="40.294400" lon="-4.903467">
        <ele>2075.0</ele>
        <time>2018-09-15T12:40:00Z</time>
      </trkpt>
      <trkpt lat="40.294300" lon="-4.903567">
        <ele>2074.0</ele>
        <time>2018-09-15T12:40:01Z</time>
      </trkpt>
      <trkpt lat="40.294217" lon="-4.903633">
        <ele>2073.0</ele>
        <time>2018-09-15T12:40:02Z</time>
      </trkpt>
      <trkpt lat="40.294133" lon="-4.903717">
        <ele>2072.0</ele>
        <time>2018-09-15T12:40:03Z</time>
      </trkpt>
      <trkpt lat="40.294050" lon="-4.903800">
        <ele>2071.0</ele>
        <time>2018-09-15T12:40:04Z</time>
      </trkpt>
      <trkpt lat="40.293950" lon="-4.903867">
        <ele>2070.0</ele>
        <time>2018-09-15T12:40:05Z</time>
      </trkpt>
      <trkpt lat="40.293867" lon="-4.903933">
        <ele>2068.0</ele>
        <time>2018-09-15T12:40:06Z</time>
      </trkpt>
      <trkpt lat="40.293767" lon="-4.904000">
        <ele>2066.0</ele>
        <time>2018-09-15T12:40:07Z</time>
      </trkpt>
      <trkpt lat="40.293650" lon="-4.904067">
        <ele>2065.0</ele>
        <time>2018-09-15T12:40:08Z</time>
      </trkpt>
      <trkpt lat="40.293550" lon="-4.904133">
        <ele>2063.0</ele>
        <time>2018-09-15T12:40:09Z</time>
      </trkpt>
      <trkpt lat="40.293450" lon="-4.904217">
        <ele>2063.0</ele>
        <time>2018-09-15T12:40:10Z</time>
      </trkpt>
      <trkpt lat="40.293350" lon="-4.904283">
        <ele>2063.0</ele>
        <time>2018-09-15T12:40:11Z</time>
      </trkpt>
      <trkpt lat="40.293267" lon="-4.904333">
        <ele>2062.0</ele>
        <time>2018-09-15T12:40:12Z</time>
      </trkpt>
      <trkpt lat="40.293167" lon="-4.904367">
        <ele>2062.0</ele>
        <time>2018-09-15T12:40:13Z</time>
      </trkpt>
      <trkpt lat="40.293067" lon="-4.904417">
        <ele>2061.0</ele>
        <time>2018-09-15T12:40:14Z</time>
      </trkpt>
      <trkpt lat="40.292983" lon="-4.904467">
        <ele>2060.0</ele>
        <time>2018-09-15T12:40:15Z</time>
      </trkpt>
      <trkpt lat="40.292883" lon="-4.904517">
        <ele>2058.0</ele>
        <time>2018-09-15T12:40:16Z</time>
      </trkpt>
      <trkpt lat="40.292800" lon="-4.904567">
        <ele>2057.0</ele>
        <time>2018-09-15T12:40:17Z</time>
      </trkpt>
      <trkpt lat="40.292700" lon="-4.904633">
        <ele>2055.0</ele>
        <time>2018-09-15T12:40:18Z</time>
      </trkpt>
      <trkpt lat="40.292600" lon="-4.904683">
        <ele>2053.0</ele>
        <time>2018-09-15T12:40:19Z</time>
      </trkpt>
      <trkpt lat="40.292517" lon="-4.904750">
        <ele>2052.0</ele>
        <time>2018-09-15T12:40:20Z</time>
      </trkpt>
      <trkpt lat="40.292417" lon="-4.904817">
        <ele>2051.0</ele>
        <time>2018-09-15T12:40:21Z</time>
      </trkpt>
      <trkpt lat="40.292317" lon="-4.904883">
        <ele>2049.0</ele>
        <time>2018-09-15T12:40:22Z</time>
      </trkpt>
      <trkpt lat="40.292217" lon="-4.904933">
        <ele>2048.0</ele>
        <time>2018-09-15T12:40:23Z</time>
      </trkpt>
      <trkpt lat="40.292117" lon="-4.905000">
        <ele>2047.0</ele>
        <time>2018-09-15T12:40:24Z</time>
      </trkpt>
      <trkpt lat="40.292017" lon="-4.905083">
        <ele>2045.0</ele>
        <time>2018-09-15T12:40:25Z</time>
      </trkpt>
      <trkpt lat="40.291917" lon="-4.905133">
        <ele>2043.0</ele>
        <time>2018-09-15T12:40:26Z</time>
      </trkpt>
      <trkpt lat="40.291800" lon="-4.905200">
        <ele>2041.0</ele>
        <time>2018-09-15T12:40:27Z</time>
      </trkpt>
      <trkpt lat="40.291683" lon="-4.905233">
        <ele>2040.0</ele>
        <time>2018-09-15T12:40:28Z</time>
      </trkpt>
      <trkpt lat="40.291583" lon="-4.905267">
        <ele>2038.0</ele>
        <time>2018-09-15T12:40:29Z</time>
      </trkpt>
      <trkpt lat="40.291467" lon="-4.905267">
        <ele>2037.0</ele>
        <time>2018-09-15T12:40:30Z</time>
      </trkpt>
      <trkpt lat="40.291367" lon="-4.905283">
        <ele>2036.0</ele>
        <time>2018-09-15T12:40:31Z</time>
      </trkpt>
      <trkpt lat="40.291267" lon="-4.905267">
        <ele>2035.0</ele>
        <time>2018-09-15T12:40:32Z</time>
      </trkpt>
      <trkpt lat="40.291183" lon="-4.905267">
        <ele>2034.0</ele>
        <time>2018-09-15T12:40:33Z</time>
      </trkpt>
      <trkpt lat="40.291083" lon="-4.905250">
        <ele>2033.0</ele>
        <time>2018-09-15T12:40:34Z</time>
      </trkpt>
      <trkpt lat="40.291000" lon="-4.905217">
        <ele>2031.0</ele>
        <time>2018-09-15T12:40:35Z</time>
      </trkpt>
      <trkpt lat="40.290933" lon="-4.905200">
        <ele>2030.0</ele>
        <time>2018-09-15T12:40:36Z</time>
      </trkpt>
      <trkpt lat="40.290850" lon="-4.905183">
        <ele>2028.0</ele>
        <time>2018-09-15T12:40:37Z</time>
      </trkpt>
      <trkpt lat="40.290783" lon="-4.905167">
        <ele>2026.0</ele>
        <time>2018-09-15T12:40:38Z</time>
      </trkpt>
      <trkpt lat="40.290700" lon="-4.905150">
        <ele>2024.0</ele>
        <time>2018-09-15T12:40:39Z</time>
      </trkpt>
      <trkpt lat="40.290617" lon="-4.905133">
        <ele>2022.0</ele>
        <time>2018-09-15T12:40:40Z</time>
      </trkpt>
      <trkpt lat="40.290533" lon="-4.905133">
        <ele>2020.0</ele>
        <time>2018-09-15T12:40:41Z</time>
      </trkpt>
      <trkpt lat="40.290433" lon="-4.905167">
        <ele>2018.0</ele>
        <time>2018-09-15T12:40:42Z</time>
      </trkpt>
      <trkpt lat="40.290333" lon="-4.905200">
        <ele>2016.0</ele>
        <time>2018-09-15T12:40:43Z</time>
      </trkpt>
      <trkpt lat="40.290250" lon="-4.905267">
        <ele>2014.0</ele>
        <time>2018-09-15T12:40:44Z</time>
      </trkpt>
      <trkpt lat="40.290150" lon="-4.905350">
        <ele>2012.0</ele>
        <time>2018-09-15T12:40:45Z</time>
      </trkpt>
      <trkpt lat="40.290050" lon="-4.905450">
        <ele>2009.0</ele>
        <time>2018-09-15T12:40:46Z</time>
      </trkpt>
      <trkpt lat="40.289967" lon="-4.905550">
        <ele>2007.0</ele>
        <time>2018-09-15T12:40:47Z</time>
      </trkpt>
      <trkpt lat="40.289867" lon="-4.905633">
        <ele>2004.0</ele>
        <time>2018-09-15T12:40:48Z</time>
      </trkpt>
      <trkpt lat="40.289767" lon="-4.905717">
        <ele>2002.0</ele>
        <time>2018-09-15T12:40:49Z</time>
      </trkpt>
      <trkpt lat="40.289683" lon="-4.905800">
        <ele>1999.0</ele>
        <time>2018-09-15T12:40:50Z</time>
      </trkpt>
      <trkpt lat="40.289583" lon="-4.905867">
        <ele>1996.0</ele>
        <time>2018-09-15T12:40:51Z</time>
      </trkpt>
      <trkpt lat="40.289467" lon="-4.905950">
        <ele>1995.0</ele>
        <time>2018-09-15T12:40:52Z</time>
      </trkpt>
      <trkpt lat="40.289383" lon="-4.906033">
        <ele>1994.0</ele>
        <time>2018-09-15T12:40:53Z</time>
      </trkpt>
      <trkpt lat="40.289300" lon="-4.906083">
        <ele>1994.0</ele>
        <time>2018-09-15T12:40:54Z</time>
      </trkpt>
      <trkpt lat="40.289217" lon="-4.906117">
        <ele>1992.0</ele>
        <time>2018-09-15T12:40:55Z</time>
      </trkpt>
      <trkpt lat="40.289150" lon="-4.906133">
        <ele>1990.0</ele>
        <time>2018-09-15T12:40:56Z</time>
      </trkpt>
      <trkpt lat="40.289050" lon="-4.906167">
        <ele>1987.0</ele>
        <time>2018-09-15T12:40:57Z</time>
      </trkpt>
      <trkpt lat="40.288967" lon="-4.906200">
        <ele>1984.0</ele>
        <time>2018-09-15T12:40:58Z</time>
      </trkpt>
      <trkpt lat="40.288867" lon="-4.906233">
        <ele>1981.0</ele>
        <time>2018-09-15T12:40:59Z</time>
      </trkpt>
      <trkpt lat="40.288783" lon="-4.906300">
        <ele>1979.0</ele>
        <time>2018-09-15T12:41:00Z</time>
      </trkpt>
      <trkpt lat="40.288700" lon="-4.906350">
        <ele>1978.0</ele>
        <time>2018-09-15T12:41:01Z</time>
      </trkpt>
      <trkpt lat="40.288617" lon="-4.906400">
        <ele>1976.0</ele>
        <time>2018-09-15T12:41:02Z</time>
      </trkpt>
      <trkpt lat="40.288533" lon="-4.906467">
        <ele>1975.0</ele>
        <time>2018-09-15T12:41:03Z</time>
      </trkpt>
      <trkpt lat="40.288450" lon="-4.906533">
        <ele>1974.0</ele>
        <time>2018-09-15T12:41:04Z</time>
      </trkpt>
      <trkpt lat="40.288383" lon="-4.906600">
        <ele>1973.0</ele>
        <time>2018-09-15T12:41:05Z</time>
      </trkpt>
      <trkpt lat="40.288317" lon="-4.906683">
        <ele>1971.0</ele>
        <time>2018-09-15T12:41:06Z</time>
      </trkpt>
      <trkpt lat="40.288233" lon="-4.906767">
        <ele>1969.0</ele>
        <time>2018-09-15T12:41:07Z</time>
      </trkpt>
      <trkpt lat="40.288167" lon="-4.906850">
        <ele>1966.0</ele>
        <time>2018-09-15T12:41:08Z</time>
      </trkpt>
      <trkpt lat="40.288083" lon="-4.906917">
        <ele>1964.0</ele>
        <time>2018-09-15T12:41:09Z</time>
      </trkpt>
      <trkpt lat="40.288000" lon="-4.906983">
        <ele>1961.0</ele>
        <time>2018-09-15T12:41:10Z</time>
      </trkpt>
      <trkpt lat="40.287900" lon="-4.907033">
        <ele>1959.0</ele>
        <time>2018-09-15T12:41:11Z</time>
      </trkpt>
      <trkpt lat="40.287800" lon="-4.907100">
        <ele>1957.0</ele>
        <time>2018-09-15T12:41:12Z</time>
      </trkpt>
      <trkpt lat="40.287700" lon="-4.907150">
        <ele>1956.0</ele>
        <time>2018-09-15T12:41:13Z</time>
      </trkpt>
      <trkpt lat="40.287600" lon="-4.907233">
        <ele>1955.0</ele>
        <time>2018-09-15T12:41:14Z</time>
      </trkpt>
      <trkpt lat="40.287500" lon="-4.907317">
        <ele>1956.0</ele>
        <time>2018-09-15T12:41:15Z</time>
      </trkpt>
      <trkpt lat="40.287417" lon="-4.907400">
        <ele>1957.0</ele>
        <time>2018-09-15T12:41:16Z</time>
      </trkpt>
      <trkpt lat="40.287333" lon="-4.907467">
        <ele>1958.0</ele>
        <time>2018-09-15T12:41:17Z</time>
      </trkpt>
      <trkpt lat="40.287267" lon="-4.907550">
        <ele>1959.0</ele>
        <time>2018-09-15T12:41:18Z</time>
      </trkpt>
      <trkpt lat="40.287200" lon="-4.907633">
        <ele>1960.0</ele>
        <time>2018-09-15T12:41:19Z</time>
      </trkpt>
      <trkpt lat="40.287133" lon="-4.907717">
        <ele>1960.0</ele>
        <time>2018-09-15T12:41:20Z</time>
      </trkpt>
      <trkpt lat="40.287083" lon="-4.907817">
        <ele>1959.0</ele>
        <time>2018-09-15T12:41:21Z</time>
      </trkpt>
      <trkpt lat="40.287017" lon="-4.907900">
        <ele>1958.0</ele>
        <time>2018-09-15T12:41:22Z</time>
      </trkpt>
      <trkpt lat="40.286967" lon="-4.908017">
        <ele>1957.0</ele>
        <time>2018-09-15T12:41:23Z</time>
      </trkpt>
      <trkpt lat="40.286900" lon="-4.908117">
        <ele>1957.0</ele>
        <time>2018-09-15T12:41:24Z</time>
      </trkpt>
      <trkpt lat="40.286850" lon="-4.908233">
        <ele>1956.0</ele>
        <time>2018-09-15T12:41:25Z</time>
      </trkpt>
      <trkpt lat="40.286800" lon="-4.908333">
        <ele>1957.0</ele>
        <time>2018-09-15T12:41:26Z</time>
      </trkpt>
      <trkpt lat="40.286767" lon="-4.908433">
        <ele>1957.0</ele>
        <time>2018-09-15T12:41:27Z</time>
      </trkpt>
      <trkpt lat="40.286717" lon="-4.908533">
        <ele>1957.0</ele>
        <time>2018-09-15T12:41:28Z</time>
      </trkpt>
      <trkpt lat="40.286683" lon="-4.908600">
        <ele>1957.0</ele>
        <time>2018-09-15T12:41:29Z</time>
      </trkpt>
      <trkpt lat="40.286617" lon="-4.908667">
        <ele>1956.0</ele>
        <time>2018-09-15T12:41:30Z</time>
      </trkpt>
      <trkpt lat="40.286550" lon="-4.908733">
        <ele>1955.0</ele>
        <time>2018-09-15T12:41:31Z</time>
      </trkpt>
      <trkpt lat="40.286467" lon="-4.908817">
        <ele>1955.0</ele>
        <time>2018-09-15T12:41:32Z</time>
      </trkpt>
      <trkpt lat="40.286400" lon="-4.908883">
        <ele>1956.0</ele>
        <time>2018-09-15T12:41:33Z</time>
      </trkpt>
      <trkpt lat="40.286317" lon="-4.908950">
        <ele>1958.0</ele>
        <time>2018-09-15T12:41:34Z</time>
      </trkpt>
      <trkpt lat="40.286250" lon="-4.909017">
        <ele>1961.0</ele>
        <time>2018-09-15T12:41:35Z</time>
      </trkpt>
      <trkpt lat="40.286183" lon="-4.909067">
        <ele>1963.0</ele>
        <time>2018-09-15T12:41:36Z</time>
      </trkpt>
      <trkpt lat="40.286117" lon="-4.909117">
        <ele>1964.0</ele>
        <time>2018-09-15T12:41:37Z</time>
      </trkpt>
      <trkpt lat="40.286033" lon="-4.909183">
        <ele>1966.0</ele>
        <time>2018-09-15T12:41:38Z</time>
      </trkpt>
      <trkpt lat="40.285967" lon="-4.909267">
        <ele>1967.0</ele>
        <time>2018-09-15T12:41:39Z</time>
      </trkpt>
      <trkpt lat="40.285883" lon="-4.909333">
        <ele>1969.0</ele>
        <time>2018-09-15T12:41:40Z</time>
      </trkpt>
      <trkpt lat="40.285817" lon="-4.909400">
        <ele>1972.0</ele>
        <time>2018-09-15T12:41:41Z</time>
      </trkpt>
      <trkpt lat="40.285750" lon="-4.909483">
        <ele>1976.0</ele>
        <time>2018-09-15T12:41:42Z</time>
      </trkpt>
      <trkpt lat="40.285700" lon="-4.909550">
        <ele>1978.0</ele>
        <time>2018-09-15T12:41:43Z</time>
      </trkpt>
      <trkpt lat="40.285633" lon="-4.909633">
        <ele>1980.0</ele>
        <time>2018-09-15T12:41:44Z</time>
      </trkpt>
      <trkpt lat="40.285583" lon="-4.909733">
        <ele>1983.0</ele>
        <time>2018-09-15T12:41:45Z</time>
      </trkpt>
      <trkpt lat="40.285517" lon="-4.909833">
        <ele>1986.0</ele>
        <time>2018-09-15T12:41:46Z</time>
      </trkpt>
      <trkpt lat="40.285467" lon="-4.909933">
        <ele>1989.0</ele>
        <time>2018-09-15T12:41:47Z</time>
      </trkpt>
      <trkpt lat="40.285417" lon="-4.910033">
        <ele>1993.0</ele>
        <time>2018-09-15T12:41:48Z</time>
      </trkpt>
      <trkpt lat="40.285400" lon="-4.910150">
        <ele>1997.0</ele>
        <time>2018-09-15T12:41:49Z</time>
      </trkpt>
      <trkpt lat="40.285400" lon="-4.910267">
        <ele>2000.0</ele>
        <time>2018-09-15T12:41:50Z</time>
      </trkpt>
      <trkpt lat="40.285417" lon="-4.910400">
        <ele>2004.0</ele>
        <time>2018-09-15T12:41:51Z</time>
      </trkpt>
      <trkpt lat="40.285467" lon="-4.910517">
        <ele>2008.0</ele>
        <time>2018-09-15T12:41:52Z</time>
      </trkpt>
      <trkpt lat="40.285517" lon="-4.910650">
        <ele>2010.0</ele>
        <time>2018-09-15T12:41:53Z</time>
      </trkpt>
      <trkpt lat="40.285600" lon="-4.910767">
        <ele>2012.0</ele>
        <time>2018-09-15T12:41:54Z</time>
      </trkpt>
      <trkpt lat="40.285700" lon="-4.910867">
        <ele>2013.0</ele>
        <time>2018-09-15T12:41:55Z</time>
      </trkpt>
      <trkpt lat="40.285817" lon="-4.910967">
        <ele>2013.0</ele>
        <time>2018-09-15T12:41:56Z</time>
      </trkpt>
      <trkpt lat="40.285933" lon="-4.911050">
        <ele>2013.0</ele>
        <time>2018-09-15T12:41:57Z</time>
      </trkpt>
      <trkpt lat="40.286083" lon="-4.911100">
        <ele>2012.0</ele>
        <time>2018-09-15T12:41:58Z</time>
      </trkpt>
      <trkpt lat="40.286217" lon="-4.911100">
        <ele>2013.0</ele>
        <time>2018-09-15T12:41:59Z</time>
      </trkpt>
      <trkpt lat="40.286367" lon="-4.911050">
        <ele>2014.0</ele>
        <time>2018-09-15T12:42:00Z</time>
      </trkpt>
      <trkpt lat="40.286467" lon="-4.910967">
        <ele>2016.0</ele>
        <time>2018-09-15T12:42:01Z</time>
      </trkpt>
      <trkpt lat="40.286550" lon="-4.910883">
        <ele>2018.0</ele>
        <time>2018-09-15T12:42:02Z</time>
      </trkpt>
      <trkpt lat="40.286617" lon="-4.910800">
        <ele>2021.0</ele>
        <time>2018-09-15T12:42:03Z</time>
      </trkpt>
      <trkpt lat="40.286650" lon="-4.910717">
        <ele>2024.0</ele>
        <time>2018-09-15T12:42:04Z</time>
      </trkpt>
      <trkpt lat="40.286683" lon="-4.910650">
        <ele>2025.0</ele>
        <time>2018-09-15T12:42:05Z</time>
      </trkpt>
      <trkpt lat="40.286700" lon="-4.910583">
        <ele>2027.0</ele>
        <time>2018-09-15T12:42:06Z</time>
      </trkpt>
      <trkpt lat="40.286683" lon="-4.910500">
        <ele>2028.0</ele>
        <time>2018-09-15T12:42:07Z</time>
      </trkpt>
      <trkpt lat="40.286650" lon="-4.910417">
        <ele>2030.0</ele>
        <time>2018-09-15T12:42:08Z</time>
      </trkpt>
      <trkpt lat="40.286600" lon="-4.910367">
        <ele>2032.0</ele>
        <time>2018-09-15T12:42:09Z</time>
      </trkpt>
      <trkpt lat="40.286550" lon="-4.910300">
        <ele>2035.0</ele>
        <time>2018-09-15T12:42:10Z</time>
      </trkpt>
      <trkpt lat="40.286483" lon="-4.910267">
        <ele>2039.0</ele>
        <time>2018-09-15T12:42:11Z</time>
      </trkpt>
      <trkpt lat="40.286433" lon="-4.910250">
        <ele>2043.0</ele>
        <time>2018-09-15T12:42:12Z</time>
      </trkpt>
      <trkpt lat="40.286383" lon="-4.910233">
        <ele>2045.0</ele>
        <time>2018-09-15T12:42:13Z</time>
      </trkpt>
      <trkpt lat="40.286317" lon="-4.910250">
        <ele>2047.0</ele>
        <time>2018-09-15T12:42:14Z</time>
      </trkpt>
      <trkpt lat="40.286250" lon="-4.910250">
        <ele>2049.0</ele>
        <time>2018-09-15T12:42:15Z</time>
      </trkpt>
      <trkpt lat="40.286167" lon="-4.910267">
        <ele>2050.0</ele>
        <time>2018-09-15T12:42:16Z</time>
      </trkpt>
      <trkpt lat="40.286100" lon="-4.910283">
        <ele>2051.0</ele>
        <time>2018-09-15T12:42:17Z</time>
      </trkpt>
      <trkpt lat="40.286017" lon="-4.910300">
        <ele>2054.0</ele>
        <time>2018-09-15T12:42:18Z</time>
      </trkpt>
      <trkpt lat="40.285950" lon="-4.910333">
        <ele>2056.0</ele>
        <time>2018-09-15T12:42:19Z</time>
      </trkpt>
      <trkpt lat="40.285867" lon="-4.910367">
        <ele>2058.0</ele>
        <time>2018-09-15T12:42:20Z</time>
      </trkpt>
      <trkpt lat="40.285800" lon="-4.910417">
        <ele>2060.0</ele>
        <time>2018-09-15T12:42:21Z</time>
      </trkpt>
      <trkpt lat="40.285717" lon="-4.910467">
        <ele>2064.0</ele>
        <time>2018-09-15T12:42:22Z</time>
      </trkpt>
      <trkpt lat="40.285650" lon="-4.910517">
        <ele>2068.0</ele>
        <time>2018-09-15T12:42:23Z</time>
      </trkpt>
      <trkpt lat="40.285583" lon="-4.910567">
        <ele>2073.0</ele>
        <time>2018-09-15T12:42:24Z</time>
      </trkpt>
      <trkpt lat="40.285517" lon="-4.910617">
        <ele>2077.0</ele>
        <time>2018-09-15T12:42:25Z</time>
      </trkpt>
      <trkpt lat="40.285450" lon="-4.910667">
        <ele>2080.0</ele>
        <time>2018-09-15T12:42:26Z</time>
      </trkpt>
      <trkpt lat="40.285400" lon="-4.910750">
        <ele>2083.0</ele>
        <time>2018-09-15T12:42:27Z</time>
      </trkpt>
      <trkpt lat="40.285333" lon="-4.910850">
        <ele>2087.0</ele>
        <time>2018-09-15T12:42:28Z</time>
      </trkpt>
      <trkpt lat="40.285283" lon="-4.910950">
        <ele>2091.0</ele>
        <time>2018-09-15T12:42:29Z</time>
      </trkpt>
      <trkpt lat="40.285233" lon="-4.911033">
        <ele>2096.0</ele>
        <time>2018-09-15T12:42:30Z</time>
      </trkpt>
      <trkpt lat="40.285167" lon="-4.911100">
        <ele>2101.0</ele>
        <time>2018-09-15T12:42:31Z</time>
      </trkpt>
      <trkpt lat="40.285100" lon="-4.911133">
        <ele>2105.0</ele>
        <time>2018-09-15T12:42:32Z</time>
      </trkpt>
      <trkpt lat="40.285033" lon="-4.911150">
        <ele>2109.0</ele>
        <time>2018-09-15T12:42:33Z</time>
      </trkpt>
      <trkpt lat="40.284983" lon="-4.911133">
        <ele>2112.0</ele>
        <time>2018-09-15T12:42:34Z</time>
      </trkpt>
      <trkpt lat="40.284933" lon="-4.911100">
        <ele>2115.0</ele>
        <time>2018-09-15T12:42:35Z</time>
      </trkpt>
      <trkpt lat="40.284917" lon="-4.911033">
        <ele>2118.0</ele>
        <time>2018-09-15T12:42:36Z</time>
      </trkpt>
      <trkpt lat="40.284917" lon="-4.910950">
        <ele>2121.0</ele>
        <time>2018-09-15T12:42:37Z</time>
      </trkpt>
      <trkpt lat="40.284983" lon="-4.910867">
        <ele>2122.0</ele>
        <time>2018-09-15T12:42:38Z</time>
      </trkpt>
      <trkpt lat="40.285067" lon="-4.910800">
        <ele>2124.0</ele>
        <time>2018-09-15T12:42:39Z</time>
      </trkpt>
      <trkpt lat="40.285167" lon="-4.910767">
        <ele>2127.0</ele>
        <time>2018-09-15T12:42:40Z</time>
      </trkpt>
      <trkpt lat="40.285267" lon="-4.910767">
        <ele>2130.0</ele>
        <time>2018-09-15T12:42:41Z</time>
      </trkpt>
      <trkpt lat="40.285383" lon="-4.910800">
        <ele>2134.0</ele>
        <time>2018-09-15T12:42:42Z</time>
      </trkpt>
      <trkpt lat="40.285483" lon="-4.910850">
        <ele>2137.0</ele>
        <time>2018-09-15T12:42:43Z</time>
      </trkpt>
      <trkpt lat="40.285583" lon="-4.910950">
        <ele>2140.0</ele>
        <time>2018-09-15T12:42:44Z</time>
      </trkpt>
      <trkpt lat="40.285683" lon="-4.911083">
        <ele>2142.0</ele>
        <time>2018-09-15T12:42:45Z</time>
      </trkpt>
      <trkpt lat="40.285750" lon="-4.911250">
        <ele>2145.0</ele>
        <time>2018-09-15T12:42:46Z</time>
      </trkpt>
      <trkpt lat="40.285800" lon="-4.911417">
        <ele>2149.0</ele>
        <time>2018-09-15T12:42:47Z</time>
      </trkpt>
      <trkpt lat="40.285800" lon="-4.911583">
        <ele>2153.0</ele>
        <time>2018-09-15T12:42:48Z</time>
      </trkpt>
      <trkpt lat="40.285783" lon="-4.911750">
        <ele>2157.0</ele>
        <time>2018-09-15T12:42:49Z</time>
      </trkpt>
      <trkpt lat="40.285733" lon="-4.911883">
        <ele>2161.0</ele>
        <time>2018-09-15T12:42:50Z</time>
      </trkpt>
      <trkpt lat="40.285667" lon="-4.911967">
        <ele>2164.0</ele>
        <time>2018-09-15T12:42:51Z</time>
      </trkpt>
      <trkpt lat="40.285583" lon="-4.912000">
        <ele>2166.0</ele>
        <time>2018-09-15T12:42:52Z</time>
      </trkpt>
      <trkpt lat="40.285517" lon="-4.912000">
        <ele>2167.0</ele>
        <time>2018-09-15T12:42:53Z</time>
      </trkpt>
      <trkpt lat="40.285433" lon="-4.911967">
        <ele>2170.0</ele>
        <time>2018-09-15T12:42:54Z</time>
      </trkpt>
      <trkpt lat="40.285350" lon="-4.911950">
        <ele>2175.0</ele>
        <time>2018-09-15T12:42:55Z</time>
      </trkpt>
      <trkpt lat="40.285300" lon="-4.911933">
        <ele>2181.0</ele>
        <time>2018-09-15T12:42:56Z</time>
      </trkpt>
      <trkpt lat="40.285250" lon="-4.911900">
        <ele>2186.0</ele>
        <time>2018-09-15T12:42:57Z</time>
      </trkpt>
      <trkpt lat="40.285217" lon="-4.911850">
        <ele>2189.0</ele>
        <time>2018-09-15T12:42:58Z</time>
      </trkpt>
      <trkpt lat="40.285200" lon="-4.911783">
        <ele>2190.0</ele>
        <time>2018-09-15T12:42:59Z</time>
      </trkpt>
      <trkpt lat="40.285200" lon="-4.911683">
        <ele>2192.0</ele>
        <time>2018-09-15T12:43:00Z</time>
      </trkpt>
      <trkpt lat="40.285217" lon="-4.911583">
        <ele>2196.0</ele>
        <time>2018-09-15T12:43:01Z</time>
      </trkpt>
      <trkpt lat="40.285267" lon="-4.911500">
        <ele>2199.0</ele>
        <time>2018-09-15T12:43:02Z</time>
      </trkpt>
      <trkpt lat="40.285333" lon="-4.911450">
        <ele>2203.0</ele>
        <time>2018-09-15T12:43:03Z</time>
      </trkpt>
      <trkpt lat="40.285417" lon="-4.911417">
        <ele>2206.0</ele>
        <time>2018-09-15T12:43:04Z</time>
      </trkpt>
      <trkpt lat="40.285517" lon="-4.911417">
        <ele>2209.0</ele>
        <time>2018-09-15T12:43:05Z</time>
      </trkpt>
      <trkpt lat="40.285633" lon="-4.911467">
        <ele>2211.0</ele>
        <time>2018-09-15T12:43:06Z</time>
      </trkpt>
      <trkpt lat="40.285733" lon="-4.911550">
        <ele>2214.0</ele>
        <time>2018-09-15T12:43:07Z</time>
      </trkpt>
      <trkpt lat="40.285833" lon="-4.911650">
        <ele>2217.0</ele>
        <time>2018-09-15T12:43:08Z</time>
      </trkpt>
      <trkpt lat="40.285917" lon="-4.911800">
        <ele>2221.0</ele>
        <time>2018-09-15T12:43:09Z</time>
      </trkpt>
      <trkpt lat="40.285967" lon="-4.911950">
        <ele>2225.0</ele>
        <time>2018-09-15T12:43:10Z</time>
      </trkpt>
      <trkpt lat="40.285967" lon="-4.912117">
        <ele>2228.0</ele>
        <time>2018-09-15T12:43:11Z</time>
      </trkpt>
      <trkpt lat="40.285950" lon="-4.912267">
        <ele>2232.0</ele>
        <time>2018-09-15T12:43:12Z</time>
      </trkpt>
      <trkpt lat="40.285917" lon="-4.912383">
        <ele>2235.0</ele>
        <time>2018-09-15T12:43:13Z</time>
      </trkpt>
      <trkpt lat="40.285867" lon="-4.912500">
        <ele>2239.0</ele>
        <time>2018-09-15T12:43:14Z</time>
      </trkpt>
      <trkpt lat="40.285817" lon="-4.912600">
        <ele>2242.0</ele>
        <time>2018-09-15T12:43:15Z</time>
      </trkpt>
      <trkpt lat="40.285767" lon="-4.912667">
        <ele>2244.0</ele>
        <time>2018-09-15T12:43:16Z</time>
      </trkpt>
      <trkpt lat="40.285683" lon="-4.912700">
        <ele>2245.0</ele>
        <time>2018-09-15T12:43:17Z</time>
      </trkpt>
      <trkpt lat="40.285600" lon="-4.912683">
        <ele>2247.0</ele>
        <time>2018-09-15T12:43:18Z</time>
      </trkpt>
      <trkpt lat="40.285550" lon="-4.912633">
        <ele>2249.0</ele>
        <time>2018-09-15T12:43:19Z</time>
      </trkpt>
      <trkpt lat="40.285517" lon="-4.912533">
        <ele>2250.0</ele>
        <time>2018-09-15T12:43:20Z</time>
      </trkpt>
      <trkpt lat="40.285533" lon="-4.912433">
        <ele>2253.0</ele>
        <time>2018-09-15T12:43:21Z</time>
      </trkpt>
      <trkpt lat="40.285567" lon="-4.912333">
        <ele>2255.0</ele>
        <time>2018-09-15T12:43:22Z</time>
      </trkpt>
      <trkpt lat="40.285650" lon="-4.912267">
        <ele>2259.0</ele>
        <time>2018-09-15T12:43:23Z</time>
      </trkpt>
      <trkpt lat="40.285733" lon="-4.912233">
        <ele>2262.0</ele>
        <time>2018-09-15T12:43:24Z</time>
      </trkpt>
      <trkpt lat="40.285833" lon="-4.912233">
        <ele>2264.0</ele>
        <time>2018-09-15T12:43:25Z</time>
      </trkpt>
      <trkpt lat="40.285933" lon="-4.912250">
        <ele>2266.0</ele>
        <time>2018-09-15T12:43:26Z</time>
      </trkpt>
      <trkpt lat="40.286033" lon="-4.912300">
        <ele>2268.0</ele>
        <time>2018-09-15T12:43:27Z</time>
      </trkpt>
      <trkpt lat="40.286133" lon="-4.912350">
        <ele>2272.0</ele>
        <time>2018-09-15T12:43:28Z</time>
      </trkpt>
      <trkpt lat="40.286233" lon="-4.912450">
        <ele>2275.0</ele>
        <time>2018-09-15T12:43:29Z</time>
      </trkpt>
      <trkpt lat="40.286317" lon="-4.912567">
        <ele>2277.0</ele>
        <time>2018-09-15T12:43:30Z</time>
      </trkpt>
      <trkpt lat="40.286367" lon="-4.912717">
        <ele>2279.0</ele>
        <time>2018-09-15T12:43:31Z</time>
      </trkpt>
      <trkpt lat="40.286400" lon="-4.912867">
        <ele>2281.0</ele>
        <time>2018-09-15T12:43:32Z</time>
      </trkpt>
      <trkpt lat="40.286417" lon="-4.913033">
        <ele>2283.0</ele>
        <time>2018-09-15T12:43:33Z</time>
      </trkpt>
      <trkpt lat="40.286400" lon="-4.913167">
        <ele>2286.0</ele>
        <time>2018-09-15T12:43:34Z</time>
      </trkpt>
      <trkpt lat="40.286350" lon="-4.913300">
        <ele>2289.0</ele>
        <time>2018-09-15T12:43:35Z</time>
      </trkpt>
      <trkpt lat="40.286300" lon="-4.913383">
        <ele>2291.0</ele>
        <time>2018-09-15T12:43:36Z</time>
      </trkpt>
      <trkpt lat="40.286250" lon="-4.913467">
        <ele>2292.0</ele>
        <time>2018-09-15T12:43:37Z</time>
      </trkpt>
      <trkpt lat="40.286183" lon="-4.913550">
        <ele>2294.0</ele>
        <time>2018-09-15T12:43:38Z</time>
      </trkpt>
      <trkpt lat="40.286117" lon="-4.913617">
        <ele>2295.0</ele>
        <time>2018-09-15T12:43:39Z</time>
      </trkpt>
      <trkpt lat="40.286050" lon="-4.913683">
        <ele>2295.0</ele>
        <time>2018-09-15T12:43:40Z</time>
      </trkpt>
      <trkpt lat="40.285967" lon="-4.913750">
        <ele>2297.0</ele>
        <time>2018-09-15T12:43:41Z</time>
      </trkpt>
      <trkpt lat="40.285883" lon="-4.913767">
        <ele>2298.0</ele>
        <time>2018-09-15T12:43:42Z</time>
      </trkpt>
      <trkpt lat="40.285800" lon="-4.913750">
        <ele>2301.0</ele>
        <time>2018-09-15T12:43:43Z</time>
      </trkpt>
      <trkpt lat="40.285750" lon="-4.913717">
        <ele>2303.0</ele>
        <time>2018-09-15T12:43:44Z</time>
      </trkpt>
      <trkpt lat="40.285717" lon="-4.913650">
        <ele>2305.0</ele>
        <time>2018-09-15T12:43:45Z</time>
      </trkpt>
      <trkpt lat="40.285683" lon="-4.913583">
        <ele>2308.0</ele>
        <time>2018-09-15T12:43:46Z</time>
      </trkpt>
      <trkpt lat="40.285667" lon="-4.913517">
        <ele>2311.0</ele>
        <time>2018-09-15T12:43:47Z</time>
      </trkpt>
      <trkpt lat="40.285683" lon="-4.913433">
        <ele>2313.0</ele>
        <time>2018-09-15T12:43:48Z</time>
      </trkpt>
      <trkpt lat="40.285700" lon="-4.913350">
        <ele>2314.0</ele>
        <time>2018-09-15T12:43:49Z</time>
      </trkpt>
      <trkpt lat="40.285750" lon="-4.913267">
        <ele>2316.0</ele>
        <time>2018-09-15T12:43:50Z</time>
      </trkpt>
      <trkpt lat="40.285800" lon="-4.913200">
        <ele>2317.0</ele>
        <time>2018-09-15T12:43:51Z</time>
      </trkpt>
      <trkpt lat="40.285883" lon="-4.913133">
        <ele>2319.0</ele>
        <time>2018-09-15T12:43:52Z</time>
      </trkpt>
      <trkpt lat="40.285983" lon="-4.913117">
        <ele>2321.0</ele>
        <time>2018-09-15T12:43:53Z</time>
      </trkpt>
      <trkpt lat="40.286083" lon="-4.913117">
        <ele>2324.0</ele>
        <time>2018-09-15T12:43:54Z</time>
      </trkpt>
      <trkpt lat="40.286183" lon="-4.913150">
        <ele>2327.0</ele>
        <time>2018-09-15T12:43:55Z</time>
      </trkpt>
      <trkpt lat="40.286283" lon="-4.913233">
        <ele>2330.0</ele>
        <time>2018-09-15T12:43:56Z</time>
      </trkpt>
      <trkpt lat="40.286350" lon="-4.913350">
        <ele>2332.0</ele>
        <time>2018-09-15T12:43:57Z</time>
      </trkpt>
      <trkpt lat="40.286400" lon="-4.913500">
        <ele>2334.0</ele>
        <time>2018-09-15T12:43:58Z</time>
      </trkpt>
      <trkpt lat="40.286433" lon="-4.913667">
        <ele>2336.0</ele>
        <time>2018-09-15T12:43:59Z</time>
      </trkpt>
      <trkpt lat="40.286433" lon="-4.913833">
        <ele>2339.0</ele>
        <time>2018-09-15T12:44:00Z</time>
      </trkpt>
      <trkpt lat="40.286400" lon="-4.913983">
        <ele>2342.0</ele>
        <time>2018-09-15T12:44:01Z</time>
      </trkpt>
      <trkpt lat="40.286350" lon="-4.914100">
        <ele>2346.0</ele>
        <time>2018-09-15T12:44:02Z</time>
      </trkpt>
      <trkpt lat="40.286283" lon="-4.914200">
        <ele>2348.0</ele>
        <time>2018-09-15T12:44:03Z</time>
      </trkpt>
      <trkpt lat="40.286217" lon="-4.914267">
        <ele>2350.0</ele>
        <time>2018-09-15T12:44:04Z</time>
      </trkpt>
      <trkpt lat="40.286133" lon="-4.914317">
        <ele>2352.0</ele>
        <time>2018-09-15T12:44:05Z</time>
      </trkpt>
      <trkpt lat="40.286050" lon="-4.914367">
        <ele>2354.0</ele>
        <time>2018-09-15T12:44:06Z</time>
      </trkpt>
      <trkpt lat="40.285967" lon="-4.914400">
        <ele>2355.0</ele>
        <time>2018-09-15T12:44:07Z</time>
      </trkpt>
      <trkpt lat="40.285883" lon="-4.914400">
        <ele>2357.0</ele>
        <time>2018-09-15T12:44:08Z</time>
      </trkpt>
      <trkpt lat="40.285800" lon="-4.914383">
        <ele>2360.0</ele>
        <time>2018-09-15T12:44:09Z</time>
      </trkpt>
      <trkpt lat="40.285733" lon="-4.914350">
        <ele>2363.0</ele>
        <time>2018-09-15T12:44:10Z</time>
      </trkpt>
      <trkpt lat="40.285683" lon="-4.914300">
        <ele>2365.0</ele>
        <time>2018-09-15T12:44:11Z</time>
      </trkpt>
      <trkpt lat="40.285633" lon="-4.914250">
        <ele>2366.0</ele>
        <time>2018-09-15T12:44:12Z</time>
      </trkpt>
      <trkpt lat="40.285583" lon="-4.914183">
        <ele>2366.0</ele>
        <time>2018-09-15T12:44:13Z</time>
      </trkpt>
      <trkpt lat="40.285533" lon="-4.914117">
        <ele>2367.0</ele>
        <time>2018-09-15T12:44:14Z</time>
      </trkpt>
      <trkpt lat="40.285483" lon="-4.914067">
        <ele>2369.0</ele>
        <time>2018-09-15T12:44:15Z</time>
      </trkpt>
      <trkpt lat="40.285417" lon="-4.914033">
        <ele>2371.0</ele>
        <time>2018-09-15T12:44:16Z</time>
      </trkpt>
      <trkpt lat="40.285350" lon="-4.914017">
        <ele>2373.0</ele>
        <time>2018-09-15T12:44:17Z</time>
      </trkpt>
      <trkpt lat="40.285250" lon="-4.914033">
        <ele>2374.0</ele>
        <time>2018-09-15T12:44:18Z</time>
      </trkpt>
      <trkpt lat="40.285167" lon="-4.914050">
        <ele>2375.0</ele>
        <time>2018-09-15T12:44:19Z</time>
      </trkpt>
      <trkpt lat="40.285083" lon="-4.914100">
        <ele>2375.0</ele>
        <time>2018-09-15T12:44:20Z</time>
      </trkpt>
      <trkpt lat="40.285000" lon="-4.914183">
        <ele>2376.0</ele>
        <time>2018-09-15T12:44:21Z</time>
      </trkpt>
      <trkpt lat="40.284917" lon="-4.914283">
        <ele>2376.0</ele>
        <time>2018-09-15T12:44:22Z</time>
      </trkpt>
      <trkpt lat="40.284850" lon="-4.914417">
        <ele>2376.0</ele>
        <time>2018-09-15T12:44:23Z</time>
      </trkpt>
      <trkpt lat="40.284800" lon="-4.914583">
        <ele>2376.0</ele>
        <time>2018-09-15T12:44:24Z</time>
      </trkpt>
      <trkpt lat="40.284783" lon="-4.914733">
        <ele>2377.0</ele>
        <time>2018-09-15T12:44:25Z</time>
      </trkpt>
      <trkpt lat="40.284783" lon="-4.914883">
        <ele>2378.0</ele>
        <time>2018-09-15T12:44:26Z</time>
      </trkpt>
      <trkpt lat="40.284800" lon="-4.915017">
        <ele>2378.0</ele>
        <time>2018-09-15T12:44:27Z</time>
      </trkpt>
      <trkpt lat="40.284850" lon="-4.915167">
        <ele>2377.0</ele>
        <time>2018-09-15T12:44:28Z</time>
      </trkpt>
      <trkpt lat="40.284917" lon="-4.915283">
        <ele>2376.0</ele>
        <time>2018-09-15T12:44:29Z</time>
      </trkpt>
      <trkpt lat="40.285017" lon="-4.915400">
        <ele>2376.0</ele>
        <time>2018-09-15T12:44:30Z</time>
      </trkpt>
      <trkpt lat="40.285100" lon="-4.915467">
        <ele>2376.0</ele>
        <time>2018-09-15T12:44:31Z</time>
      </trkpt>
      <trkpt lat="40.285200" lon="-4.915500">
        <ele>2376.0</ele>
        <time>2018-09-15T12:44:32Z</time>
      </trkpt>
      <trkpt lat="40.285283" lon="-4.915500">
        <ele>2375.0</ele>
        <time>2018-09-15T12:44:33Z</time>
      </trkpt>
      <trkpt lat="40.285350" lon="-4.915467">
        <ele>2374.0</ele>
        <time>2018-09-15T12:44:34Z</time>
      </trkpt>
      <trkpt lat="40.285417" lon="-4.915400">
        <ele>2374.0</ele>
        <time>2018-09-15T12:44:35Z</time>
      </trkpt>
      <trkpt lat="40.285467" lon="-4.915333">
        <ele>2373.0</ele>
        <time>2018-09-15T12:44:36Z</time>
      </trkpt>
      <trkpt lat="40.285483" lon="-4.915250">
        <ele>2373.0</ele>
        <time>2018-09-15T12:44:37Z</time>
      </trkpt>
      <trkpt lat="40.285467" lon="-4.915183">
        <ele>2372.0</ele>
        <time>2018-09-15T12:44:38Z</time>
      </trkpt>
      <trkpt lat="40.285417" lon="-4.915117">
        <ele>2372.0</ele>
        <time>2018-09-15T12:44:39Z</time>
      </trkpt>
      <trkpt lat="40.285367" lon="-4.915067">
        <ele>2372.0</ele>
        <time>2018-09-15T12:44:40Z</time>
      </trkpt>
      <trkpt lat="40.285300" lon="-4.915033">
        <ele>2373.0</ele>
        <time>2018-09-15T12:44:41Z</time>
      </trkpt>
      <trkpt lat="40.285233" lon="-4.915033">
        <ele>2374.0</ele>
        <time>2018-09-15T12:44:42Z</time>
      </trkpt>
      <trkpt lat="40.285167" lon="-4.915033">
        <ele>2374.0</ele>
        <time>2018-09-15T12:44:43Z</time>
      </trkpt>
      <trkpt lat="40.285083" lon="-4.915067">
        <ele>2374.0</ele>
        <time>2018-09-15T12:44:44Z</time>
      </trkpt>
      <trkpt lat="40.285000" lon="-4.915117">
        <ele>2373.0</ele>
        <time>2018-09-15T12:44:45Z</time>
      </trkpt>
      <trkpt lat="40.284917" lon="-4.915183">
        <ele>2373.0</ele>
        <time>2018-09-15T12:44:46Z</time>
      </trkpt>
      <trkpt lat="40.284833" lon="-4.915267">
        <ele>2372.0</ele>
        <time>2018-09-15T12:44:47Z</time>
      </trkpt>
      <trkpt lat="40.284750" lon="-4.915367">
        <ele>2372.0</ele>
        <time>2018-09-15T12:44:48Z</time>
      </trkpt>
      <trkpt lat="40.284683" lon="-4.915467">
        <ele>2372.0</ele>
        <time>2018-09-15T12:44:49Z</time>
      </trkpt>
      <trkpt lat="40.284600" lon="-4.915583">
        <ele>2372.0</ele>
        <time>2018-09-15T12:44:50Z</time>
      </trkpt>
      <trkpt lat="40.284533" lon="-4.915683">
        <ele>2373.0</ele>
        <time>2018-09-15T12:44:51Z</time>
      </trkpt>
      <trkpt lat="40.284467" lon="-4.915800">
        <ele>2373.0</ele>
        <time>2018-09-15T12:44:52Z</time>
      </trkpt>
      <trkpt lat="40.284383" lon="-4.915900">
        <ele>2374.0</ele>
        <time>2018-09-15T12:44:53Z</time>
      </trkpt>
      <trkpt lat="40.284300" lon="-4.916000">
        <ele>2375.0</ele>
        <time>2018-09-15T12:44:54Z</time>
      </trkpt>
      <trkpt lat="40.284217" lon="-4.916083">
        <ele>2376.0</ele>
        <time>2018-09-15T12:44:55Z</time>
      </trkpt>
      <trkpt lat="40.284133" lon="-4.916183">
        <ele>2376.0</ele>
        <time>2018-09-15T12:44:56Z</time>
      </trkpt>
      <trkpt lat="40.284050" lon="-4.916267">
        <ele>2376.0</ele>
        <time>2018-09-15T12:44:57Z</time>
      </trkpt>
      <trkpt lat="40.283967" lon="-4.916367">
        <ele>2376.0</ele>
        <time>2018-09-15T12:44:58Z</time>
      </trkpt>
      <trkpt lat="40.283883" lon="-4.916467">
        <ele>2375.0</ele>
        <time>2018-09-15T12:44:59Z</time>
      </trkpt>
      <trkpt lat="40.283817" lon="-4.916583">
        <ele>2375.0</ele>
        <time>2018-09-15T12:45:00Z</time>
      </trkpt>
      <trkpt lat="40.283733" lon="-4.916717">
        <ele>2374.0</ele>
        <time>2018-09-15T12:45:01Z</time>
      </trkpt>
      <trkpt lat="40.283667" lon="-4.916850">
        <ele>2376.0</ele>
        <time>2018-09-15T12:45:02Z</time>
      </trkpt>
      <trkpt lat="40.283600" lon="-4.916967">
        <ele>2379.0</ele>
        <time>2018-09-15T12:45:03Z</time>
      </trkpt>
      <trkpt lat="40.283550" lon="-4.917083">
        <ele>2382.0</ele>
        <time>2018-09-15T12:45:04Z</time>
      </trkpt>
      <trkpt lat="40.283483" lon="-4.917183">
        <ele>2382.0</ele>
        <time>2018-09-15T12:45:05Z</time>
      </trkpt>
      <trkpt lat="40.283383" lon="-4.917300">
        <ele>2383.0</ele>
        <time>2018-09-15T12:45:06Z</time>
      </trkpt>
      <trkpt lat="40.283300" lon="-4.917417">
        <ele>2383.0</ele>
        <time>2018-09-15T12:45:07Z</time>
      </trkpt>
      <trkpt lat="40.283200" lon="-4.917550">
        <ele>2385.0</ele>
        <time>2018-09-15T12:45:08Z</time>
      </trkpt>
      <trkpt lat="40.283100" lon="-4.917683">
        <ele>2388.0</ele>
        <time>2018-09-15T12:45:09Z</time>
      </trkpt>
      <trkpt lat="40.283017" lon="-4.917783">
        <ele>2390.0</ele>
        <time>2018-09-15T12:45:10Z</time>
      </trkpt>
      <trkpt lat="40.282933" lon="-4.917900">
        <ele>2391.0</ele>
        <time>2018-09-15T12:45:11Z</time>
      </trkpt>
      <trkpt lat="40.282867" lon="-4.918017">
        <ele>2391.0</ele>
        <time>2018-09-15T12:45:12Z</time>
      </trkpt>
      <trkpt lat="40.282783" lon="-4.918167">
        <ele>2390.0</ele>
        <time>2018-09-15T12:45:13Z</time>
      </trkpt>
      <trkpt lat="40.282700" lon="-4.918317">
        <ele>2389.0</ele>
        <time>2018-09-15T12:45:14Z</time>
      </trkpt>
      <trkpt lat="40.282600" lon="-4.918450">
        <ele>2389.0</ele>
        <time>2018-09-15T12:45:15Z</time>
      </trkpt>
      <trkpt lat="40.282500" lon="-4.918583">
        <ele>2390.0</ele>
        <time>2018-09-15T12:45:16Z</time>
      </trkpt>
      <trkpt lat="40.282417" lon="-4.918717">
        <ele>2392.0</ele>
        <time>2018-09-15T12:45:17Z</time>
      </trkpt>
      <trkpt lat="40.282333" lon="-4.918833">
        <ele>2394.0</ele>
        <time>2018-09-15T12:45:18Z</time>
      </trkpt>
      <trkpt lat="40.282250" lon="-4.918950">
        <ele>2396.0</ele>
        <time>2018-09-15T12:45:19Z</time>
      </trkpt>
      <trkpt lat="40.282167" lon="-4.919050">
        <ele>2396.0</ele>
        <time>2018-09-15T12:45:20Z</time>
      </trkpt>
      <trkpt lat="40.282083" lon="-4.919150">
        <ele>2397.0</ele>
        <time>2018-09-15T12:45:21Z</time>
      </trkpt>
      <trkpt lat="40.282017" lon="-4.919250">
        <ele>2397.0</ele>
        <time>2018-09-15T12:45:22Z</time>
      </trkpt>
      <trkpt lat="40.281933" lon="-4.919350">
        <ele>2396.0</ele>
        <time>2018-09-15T12:45:23Z</time>
      </trkpt>
      <trkpt lat="40.281850" lon="-4.919450">
        <ele>2395.0</ele>
        <time>2018-09-15T12:45:24Z</time>
      </trkpt>
      <trkpt lat="40.281783" lon="-4.919550">
        <ele>2394.0</ele>
        <time>2018-09-15T12:45:25Z</time>
      </trkpt>
      <trkpt lat="40.281700" lon="-4.919650">
        <ele>2392.0</ele>
        <time>2018-09-15T12:45:26Z</time>
      </trkpt>
      <trkpt lat="40.281600" lon="-4.919767">
        <ele>2390.0</ele>
        <time>2018-09-15T12:45:27Z</time>
      </trkpt>
      <trkpt lat="40.281517" lon="-4.919883">
        <ele>2389.0</ele>
        <time>2018-09-15T12:45:28Z</time>
      </trkpt>
      <trkpt lat="40.281450" lon="-4.920000">
        <ele>2388.0</ele>
        <time>2018-09-15T12:45:29Z</time>
      </trkpt>
      <trkpt lat="40.281367" lon="-4.920133">
        <ele>2388.0</ele>
        <time>2018-09-15T12:45:30Z</time>
      </trkpt>
      <trkpt lat="40.281300" lon="-4.920250">
        <ele>2388.0</ele>
        <time>2018-09-15T12:45:31Z</time>
      </trkpt>
      <trkpt lat="40.281233" lon="-4.920367">
        <ele>2387.0</ele>
        <time>2018-09-15T12:45:32Z</time>
      </trkpt>
      <trkpt lat="40.281167" lon="-4.920467">
        <ele>2386.0</ele>
        <time>2018-09-15T12:45:33Z</time>
      </trkpt>
      <trkpt lat="40.281100" lon="-4.920583">
        <ele>2384.0</ele>
        <time>2018-09-15T12:45:34Z</time>
      </trkpt>
      <trkpt lat="40.281017" lon="-4.920700">
        <ele>2382.0</ele>
        <time>2018-09-15T12:45:35Z</time>
      </trkpt>
      <trkpt lat="40.280933" lon="-4.920817">
        <ele>2380.0</ele>
        <time>2018-09-15T12:45:36Z</time>
      </trkpt>
      <trkpt lat="40.280850" lon="-4.920933">
        <ele>2378.0</ele>
        <time>2018-09-15T12:45:37Z</time>
      </trkpt>
      <trkpt lat="40.280767" lon="-4.921017">
        <ele>2378.0</ele>
        <time>2018-09-15T12:45:38Z</time>
      </trkpt>
      <trkpt lat="40.280683" lon="-4.921100">
        <ele>2377.0</ele>
        <time>2018-09-15T12:45:39Z</time>
      </trkpt>
      <trkpt lat="40.280600" lon="-4.921183">
        <ele>2375.0</ele>
        <time>2018-09-15T12:45:40Z</time>
      </trkpt>
      <trkpt lat="40.280533" lon="-4.921250">
        <ele>2373.0</ele>
        <time>2018-09-15T12:45:41Z</time>
      </trkpt>
      <trkpt lat="40.280433" lon="-4.921317">
        <ele>2370.0</ele>
        <time>2018-09-15T12:45:42Z</time>
      </trkpt>
      <trkpt lat="40.280350" lon="-4.921400">
        <ele>2366.0</ele>
        <time>2018-09-15T12:45:43Z</time>
      </trkpt>
      <trkpt lat="40.280250" lon="-4.921467">
        <ele>2363.0</ele>
        <time>2018-09-15T12:45:44Z</time>
      </trkpt>
      <trkpt lat="40.280150" lon="-4.921517">
        <ele>2361.0</ele>
        <time>2018-09-15T12:45:45Z</time>
      </trkpt>
      <trkpt lat="40.280050" lon="-4.921567">
        <ele>2359.0</ele>
        <time>2018-09-15T12:45:46Z</time>
      </trkpt>
      <trkpt lat="40.279967" lon="-4.921617">
        <ele>2357.0</ele>
        <time>2018-09-15T12:45:47Z</time>
      </trkpt>
      <trkpt lat="40.279867" lon="-4.921683">
        <ele>2354.0</ele>
        <time>2018-09-15T12:45:48Z</time>
      </trkpt>
      <trkpt lat="40.279783" lon="-4.921750">
        <ele>2352.0</ele>
        <time>2018-09-15T12:45:49Z</time>
      </trkpt>
      <trkpt lat="40.279700" lon="-4.921833">
        <ele>2349.0</ele>
        <time>2018-09-15T12:45:50Z</time>
      </trkpt>
      <trkpt lat="40.279600" lon="-4.921917">
        <ele>2346.0</ele>
        <time>2018-09-15T12:45:51Z</time>
      </trkpt>
      <trkpt lat="40.279500" lon="-4.922000">
        <ele>2343.0</ele>
        <time>2018-09-15T12:45:52Z</time>
      </trkpt>
      <trkpt lat="40.279400" lon="-4.922067">
        <ele>2341.0</ele>
        <time>2018-09-15T12:45:53Z</time>
      </trkpt>
      <trkpt lat="40.279317" lon="-4.922117">
        <ele>2340.0</ele>
        <time>2018-09-15T12:45:54Z</time>
      </trkpt>
      <trkpt lat="40.279233" lon="-4.922150">
        <ele>2338.0</ele>
        <time>2018-09-15T12:45:55Z</time>
      </trkpt>
      <trkpt lat="40.279150" lon="-4.922183">
        <ele>2336.0</ele>
        <time>2018-09-15T12:45:56Z</time>
      </trkpt>
      <trkpt lat="40.279083" lon="-4.922217">
        <ele>2333.0</ele>
        <time>2018-09-15T12:45:57Z</time>
      </trkpt>
      <trkpt lat="40.279000" lon="-4.922233">
        <ele>2328.0</ele>
        <time>2018-09-15T12:45:58Z</time>
      </trkpt>
      <trkpt lat="40.278900" lon="-4.922250">
        <ele>2324.0</ele>
        <time>2018-09-15T12:45:59Z</time>
      </trkpt>
      <trkpt lat="40.278783" lon="-4.922267">
        <ele>2321.0</ele>
        <time>2018-09-15T12:46:00Z</time>
      </trkpt>
      <trkpt lat="40.278683" lon="-4.922267">
        <ele>2318.0</ele>
        <time>2018-09-15T12:46:01Z</time>
      </trkpt>
      <trkpt lat="40.278583" lon="-4.922283">
        <ele>2316.0</ele>
        <time>2018-09-15T12:46:02Z</time>
      </trkpt>
      <trkpt lat="40.278483" lon="-4.922317">
        <ele>2315.0</ele>
        <time>2018-09-15T12:46:03Z</time>
      </trkpt>
      <trkpt lat="40.278400" lon="-4.922333">
        <ele>2312.0</ele>
        <time>2018-09-15T12:46:04Z</time>
      </trkpt>
      <trkpt lat="40.278317" lon="-4.922383">
        <ele>2309.0</ele>
        <time>2018-09-15T12:46:05Z</time>
      </trkpt>
      <trkpt lat="40.278217" lon="-4.922417">
        <ele>2305.0</ele>
        <time>2018-09-15T12:46:06Z</time>
      </trkpt>
      <trkpt lat="40.278117" lon="-4.922483">
        <ele>2300.0</ele>
        <time>2018-09-15T12:46:07Z</time>
      </trkpt>
      <trkpt lat="40.278017" lon="-4.922550">
        <ele>2296.0</ele>
        <time>2018-09-15T12:46:08Z</time>
      </trkpt>
      <trkpt lat="40.277933" lon="-4.922633">
        <ele>2292.0</ele>
        <time>2018-09-15T12:46:09Z</time>
      </trkpt>
      <trkpt lat="40.277833" lon="-4.922733">
        <ele>2289.0</ele>
        <time>2018-09-15T12:46:10Z</time>
      </trkpt>
      <trkpt lat="40.277733" lon="-4.922817">
        <ele>2286.0</ele>
        <time>2018-09-15T12:46:11Z</time>
      </trkpt>
      <trkpt lat="40.277633" lon="-4.922867">
        <ele>2283.0</ele>
        <time>2018-09-15T12:46:12Z</time>
      </trkpt>
      <trkpt lat="40.277533" lon="-4.922917">
        <ele>2281.0</ele>
        <time>2018-09-15T12:46:13Z</time>
      </trkpt>
      <trkpt lat="40.277450" lon="-4.922967">
        <ele>2279.0</ele>
        <time>2018-09-15T12:46:14Z</time>
      </trkpt>
      <trkpt lat="40.277367" lon="-4.923033">
        <ele>2276.0</ele>
        <time>2018-09-15T12:46:15Z</time>
      </trkpt>
      <trkpt lat="40.277267" lon="-4.923100">
        <ele>2272.0</ele>
        <time>2018-09-15T12:46:16Z</time>
      </trkpt>
      <trkpt lat="40.277167" lon="-4.923167">
        <ele>2270.0</ele>
        <time>2018-09-15T12:46:17Z</time>
      </trkpt>
      <trkpt lat="40.277067" lon="-4.923233">
        <ele>2267.0</ele>
        <time>2018-09-15T12:46:18Z</time>
      </trkpt>
      <trkpt lat="40.276983" lon="-4.923300">
        <ele>2265.0</ele>
        <time>2018-09-15T12:46:19Z</time>
      </trkpt>
      <trkpt lat="40.276883" lon="-4.923350">
        <ele>2263.0</ele>
        <time>2018-09-15T12:46:20Z</time>
      </trkpt>
      <trkpt lat="40.276783" lon="-4.923400">
        <ele>2261.0</ele>
        <time>2018-09-15T12:46:21Z</time>
      </trkpt>
      <trkpt lat="40.276683" lon="-4.923450">
        <ele>2258.0</ele>
        <time>2018-09-15T12:46:22Z</time>
      </trkpt>
      <trkpt lat="40.276567" lon="-4.923483">
        <ele>2255.0</ele>
        <time>2018-09-15T12:46:23Z</time>
      </trkpt>
      <trkpt lat="40.276467" lon="-4.923517">
        <ele>2253.0</ele>
        <time>2018-09-15T12:46:24Z</time>
      </trkpt>
      <trkpt lat="40.276350" lon="-4.923550">
        <ele>2252.0</ele>
        <time>2018-09-15T12:46:25Z</time>
      </trkpt>
      <trkpt lat="40.276233" lon="-4.923583">
        <ele>2251.0</ele>
        <time>2018-09-15T12:46:26Z</time>
      </trkpt>
      <trkpt lat="40.276133" lon="-4.923617">
        <ele>2250.0</ele>
        <time>2018-09-15T12:46:27Z</time>
      </trkpt>
      <trkpt lat="40.276050" lon="-4.923633">
        <ele>2248.0</ele>
        <time>2018-09-15T12:46:28Z</time>
      </trkpt>
      <trkpt lat="40.275950" lon="-4.923650">
        <ele>2246.0</ele>
        <time>2018-09-15T12:46:29Z</time>
      </trkpt>
      <trkpt lat="40.275850" lon="-4.923700">
        <ele>2244.0</ele>
        <time>2018-09-15T12:46:30Z</time>
      </trkpt>
      <trkpt lat="40.275767" lon="-4.923767">
        <ele>2241.0</ele>
        <time>2018-09-15T12:46:31Z</time>
      </trkpt>
      <trkpt lat="40.275667" lon="-4.923833">
        <ele>2239.0</ele>
        <time>2018-09-15T12:46:32Z</time>
      </trkpt>
      <trkpt lat="40.275583" lon="-4.923917">
        <ele>2236.0</ele>
        <time>2018-09-15T12:46:33Z</time>
      </trkpt>
      <trkpt lat="40.275483" lon="-4.923983">
        <ele>2234.0</ele>
        <time>2018-09-15T12:46:34Z</time>
      </trkpt>
      <trkpt lat="40.275383" lon="-4.924050">
        <ele>2231.0</ele>
        <time>2018-09-15T12:46:35Z</time>
      </trkpt>
      <trkpt lat="40.275283" lon="-4.924133">
        <ele>2229.0</ele>
        <time>2018-09-15T12:46:36Z</time>
      </trkpt>
      <trkpt lat="40.275183" lon="-4.924217">
        <ele>2227.0</ele>
        <time>2018-09-15T12:46:37Z</time>
      </trkpt>
      <trkpt lat="40.275083" lon="-4.924283">
        <ele>2225.0</ele>
        <time>2018-09-15T12:46:38Z</time>
      </trkpt>
      <trkpt lat="40.275000" lon="-4.924367">
        <ele>2223.0</ele>
        <time>2018-09-15T12:46:39Z</time>
      </trkpt>
      <trkpt lat="40.274917" lon="-4.924433">
        <ele>2220.0</ele>
        <time>2018-09-15T12:46:40Z</time>
      </trkpt>
      <trkpt lat="40.274817" lon="-4.924500">
        <ele>2217.0</ele>
        <time>2018-09-15T12:46:41Z</time>
      </trkpt>
      <trkpt lat="40.274733" lon="-4.924583">
        <ele>2214.0</ele>
        <time>2018-09-15T12:46:42Z</time>
      </trkpt>
      <trkpt lat="40.274633" lon="-4.924667">
        <ele>2211.0</ele>
        <time>2018-09-15T12:46:43Z</time>
      </trkpt>
      <trkpt lat="40.274550" lon="-4.924750">
        <ele>2209.0</ele>
        <time>2018-09-15T12:46:44Z</time>
      </trkpt>
      <trkpt lat="40.274450" lon="-4.924850">
        <ele>2207.0</ele>
        <time>2018-09-15T12:46:45Z</time>
      </trkpt>
      <trkpt lat="40.274367" lon="-4.924950">
        <ele>2204.0</ele>
        <time>2018-09-15T12:46:46Z</time>
      </trkpt>
      <trkpt lat="40.274267" lon="-4.925050">
        <ele>2202.0</ele>
        <time>2018-09-15T12:46:47Z</time>
      </trkpt>
      <trkpt lat="40.274183" lon="-4.925150">
        <ele>2200.0</ele>
        <time>2018-09-15T12:46:48Z</time>
      </trkpt>
      <trkpt lat="40.274083" lon="-4.925250">
        <ele>2198.0</ele>
        <time>2018-09-15T12:46:49Z</time>
      </trkpt>
      <trkpt lat="40.273983" lon="-4.925350">
        <ele>2197.0</ele>
        <time>2018-09-15T12:46:50Z</time>
      </trkpt>
      <trkpt lat="40.273900" lon="-4.925433">
        <ele>2195.0</ele>
        <time>2018-09-15T12:46:51Z</time>
      </trkpt>
      <trkpt lat="40.273800" lon="-4.925533">
        <ele>2193.0</ele>
        <time>2018-09-15T12:46:52Z</time>
      </trkpt>
      <trkpt lat="40.273700" lon="-4.925633">
        <ele>2191.0</ele>
        <time>2018-09-15T12:46:53Z</time>
      </trkpt>
      <trkpt lat="40.273600" lon="-4.925733">
        <ele>2189.0</ele>
        <time>2018-09-15T12:46:54Z</time>
      </trkpt>
      <trkpt lat="40.273483" lon="-4.925850">
        <ele>2187.0</ele>
        <time>2018-09-15T12:46:55Z</time>
      </trkpt>
      <trkpt lat="40.273367" lon="-4.925950">
        <ele>2187.0</ele>
        <time>2018-09-15T12:46:56Z</time>
      </trkpt>
      <trkpt lat="40.273250" lon="-4.926033">
        <ele>2188.0</ele>
        <time>2018-09-15T12:46:57Z</time>
      </trkpt>
      <trkpt lat="40.273150" lon="-4.926133">
        <ele>2189.0</ele>
        <time>2018-09-15T12:46:58Z</time>
      </trkpt>
      <trkpt lat="40.273050" lon="-4.926217">
        <ele>2189.0</ele>
        <time>2018-09-15T12:46:59Z</time>
      </trkpt>
      <trkpt lat="40.272950" lon="-4.926300">
        <ele>2188.0</ele>
        <time>2018-09-15T12:47:00Z</time>
      </trkpt>
      <trkpt lat="40.272850" lon="-4.926383">
        <ele>2186.0</ele>
        <time>2018-09-15T12:47:01Z</time>
      </trkpt>
      <trkpt lat="40.272750" lon="-4.926483">
        <ele>2185.0</ele>
        <time>2018-09-15T12:47:02Z</time>
      </trkpt>
      <trkpt lat="40.272633" lon="-4.926583">
        <ele>2183.0</ele>
        <time>2018-09-15T12:47:03Z</time>
      </trkpt>
      <trkpt lat="40.272533" lon="-4.926667">
        <ele>2183.0</ele>
        <time>2018-09-15T12:47:04Z</time>
      </trkpt>
      <trkpt lat="40.272433" lon="-4.926767">
        <ele>2182.0</ele>
        <time>2018-09-15T12:47:05Z</time>
      </trkpt>
      <trkpt lat="40.272333" lon="-4.926867">
        <ele>2182.0</ele>
        <time>2018-09-15T12:47:06Z</time>
      </trkpt>
      <trkpt lat="40.272233" lon="-4.926983">
        <ele>2183.0</ele>
        <time>2018-09-15T12:47:07Z</time>
      </trkpt>
      <trkpt lat="40.272167" lon="-4.927083">
        <ele>2185.0</ele>
        <time>2018-09-15T12:47:08Z</time>
      </trkpt>
      <trkpt lat="40.272100" lon="-4.927183">
        <ele>2189.0</ele>
        <time>2018-09-15T12:47:09Z</time>
      </trkpt>
      <trkpt lat="40.272050" lon="-4.927250">
        <ele>2192.0</ele>
        <time>2018-09-15T12:47:10Z</time>
      </trkpt>
      <trkpt lat="40.272000" lon="-4.927317">
        <ele>2194.0</ele>
        <time>2018-09-15T12:47:11Z</time>
      </trkpt>
      <trkpt lat="40.271950" lon="-4.927383">
        <ele>2194.0</ele>
        <time>2018-09-15T12:47:12Z</time>
      </trkpt>
      <trkpt lat="40.271900" lon="-4.927450">
        <ele>2194.0</ele>
        <time>2018-09-15T12:47:13Z</time>
      </trkpt>
      <trkpt lat="40.271833" lon="-4.927517">
        <ele>2193.0</ele>
        <time>2018-09-15T12:47:14Z</time>
      </trkpt>
      <trkpt lat="40.271767" lon="-4.927600">
        <ele>2193.0</ele>
        <time>2018-09-15T12:47:15Z</time>
      </trkpt>
      <trkpt lat="40.271700" lon="-4.927667">
        <ele>2192.0</ele>
        <time>2018-09-15T12:47:16Z</time>
      </trkpt>
      <trkpt lat="40.271650" lon="-4.927767">
        <ele>2191.0</ele>
        <time>2018-09-15T12:47:17Z</time>
      </trkpt>
      <trkpt lat="40.271583" lon="-4.927867">
        <ele>2191.0</ele>
        <time>2018-09-15T12:47:18Z</time>
      </trkpt>
      <trkpt lat="40.271533" lon="-4.927967">
        <ele>2192.0</ele>
        <time>2018-09-15T12:47:19Z</time>
      </trkpt>
      <trkpt lat="40.271483" lon="-4.928050">
        <ele>2193.0</ele>
        <time>2018-09-15T12:47:20Z</time>
      </trkpt>
      <trkpt lat="40.271450" lon="-4.928133">
        <ele>2194.0</ele>
        <time>2018-09-15T12:47:21Z</time>
      </trkpt>
      <trkpt lat="40.271400" lon="-4.928200">
        <ele>2194.0</ele>
        <time>2018-09-15T12:47:22Z</time>
      </trkpt>
      <trkpt lat="40.271367" lon="-4.928267">
        <ele>2193.0</ele>
        <time>2018-09-15T12:47:23Z</time>
      </trkpt>
      <trkpt lat="40.271300" lon="-4.928350">
        <ele>2191.0</ele>
        <time>2018-09-15T12:47:24Z</time>
      </trkpt>
      <trkpt lat="40.271233" lon="-4.928450">
        <ele>2189.0</ele>
        <time>2018-09-15T12:47:25Z</time>
      </trkpt>
      <trkpt lat="40.271167" lon="-4.928533">
        <ele>2188.0</ele>
        <time>2018-09-15T12:47:26Z</time>
      </trkpt>
      <trkpt lat="40.271083" lon="-4.928617">
        <ele>2189.0</ele>
        <time>2018-09-15T12:47:27Z</time>
      </trkpt>
      <trkpt lat="40.271017" lon="-4.928700">
        <ele>2190.0</ele>
        <time>2018-09-15T12:47:28Z</time>
      </trkpt>
      <trkpt lat="40.270950" lon="-4.928783">
        <ele>2192.0</ele>
        <time>2018-09-15T12:47:29Z</time>
      </trkpt>
      <trkpt lat="40.270900" lon="-4.928867">
        <ele>2193.0</ele>
        <time>2018-09-15T12:47:30Z</time>
      </trkpt>
      <trkpt lat="40.270833" lon="-4.928933">
        <ele>2193.0</ele>
        <time>2018-09-15T12:47:31Z</time>
      </trkpt>
      <trkpt lat="40.270783" lon="-4.929000">
        <ele>2191.0</ele>
        <time>2018-09-15T12:47:32Z</time>
      </trkpt>
      <trkpt lat="40.270700" lon="-4.929083">
        <ele>2190.0</ele>
        <time>2018-09-15T12:47:33Z</time>
      </trkpt>
      <trkpt lat="40.270633" lon="-4.929183">
        <ele>2190.0</ele>
        <time>2018-09-15T12:47:34Z</time>
      </trkpt>
      <trkpt lat="40.270567" lon="-4.929300">
        <ele>2191.0</ele>
        <time>2018-09-15T12:47:35Z</time>
      </trkpt>
      <trkpt lat="40.270500" lon="-4.929383">
        <ele>2192.0</ele>
        <time>2018-09-15T12:47:36Z</time>
      </trkpt>
      <trkpt lat="40.270433" lon="-4.929467">
        <ele>2193.0</ele>
        <time>2018-09-15T12:47:37Z</time>
      </trkpt>
      <trkpt lat="40.270350" lon="-4.929550">
        <ele>2194.0</ele>
        <time>2018-09-15T12:47:38Z</time>
      </trkpt>
      <trkpt lat="40.270250" lon="-4.929633">
        <ele>2195.0</ele>
        <time>2018-09-15T12:47:39Z</time>
      </trkpt>
      <trkpt lat="40.270167" lon="-4.929717">
        <ele>2197.0</ele>
        <time>2018-09-15T12:47:40Z</time>
      </trkpt>
      <trkpt lat="40.270083" lon="-4.929817">
        <ele>2199.0</ele>
        <time>2018-09-15T12:47:41Z</time>
      </trkpt>
      <trkpt lat="40.270000" lon="-4.929900">
        <ele>2201.0</ele>
        <time>2018-09-15T12:47:42Z</time>
      </trkpt>
      <trkpt lat="40.269933" lon="-4.930000">
        <ele>2204.0</ele>
        <time>2018-09-15T12:47:43Z</time>
      </trkpt>
      <trkpt lat="40.269867" lon="-4.930117">
        <ele>2206.0</ele>
        <time>2018-09-15T12:47:44Z</time>
      </trkpt>
      <trkpt lat="40.269817" lon="-4.930217">
        <ele>2208.0</ele>
        <time>2018-09-15T12:47:45Z</time>
      </trkpt>
      <trkpt lat="40.269767" lon="-4.930333">
        <ele>2209.0</ele>
        <time>2018-09-15T12:47:46Z</time>
      </trkpt>
      <trkpt lat="40.269717" lon="-4.930450">
        <ele>2211.0</ele>
        <time>2018-09-15T12:47:47Z</time>
      </trkpt>
      <trkpt lat="40.269633" lon="-4.930533">
        <ele>2212.0</ele>
        <time>2018-09-15T12:47:48Z</time>
      </trkpt>
      <trkpt lat="40.269550" lon="-4.930617">
        <ele>2213.0</ele>
        <time>2018-09-15T12:47:49Z</time>
      </trkpt>
      <trkpt lat="40.269450" lon="-4.930667">
        <ele>2215.0</ele>
        <time>2018-09-15T12:47:50Z</time>
      </trkpt>
      <trkpt lat="40.269350" lon="-4.930667">
        <ele>2216.0</ele>
        <time>2018-09-15T12:47:51Z</time>
      </trkpt>
      <trkpt lat="40.269250" lon="-4.930650">
        <ele>2217.0</ele>
        <time>2018-09-15T12:47:52Z</time>
      </trkpt>
      <trkpt lat="40.269167" lon="-4.930567">
        <ele>2218.0</ele>
        <time>2018-09-15T12:47:53Z</time>
      </trkpt>
      <trkpt lat="40.269117" lon="-4.930467">
        <ele>2219.0</ele>
        <time>2018-09-15T12:47:54Z</time>
      </trkpt>
      <trkpt lat="40.269083" lon="-4.930367">
        <ele>2220.0</ele>
        <time>2018-09-15T12:47:55Z</time>
      </trkpt>
      <trkpt lat="40.269083" lon="-4.930250">
        <ele>2221.0</ele>
        <time>2018-09-15T12:47:56Z</time>
      </trkpt>
      <trkpt lat="40.269117" lon="-4.930133">
        <ele>2221.0</ele>
        <time>2018-09-15T12:47:57Z</time>
      </trkpt>
      <trkpt lat="40.269150" lon="-4.930033">
        <ele>2221.0</ele>
        <time>2018-09-15T12:47:58Z</time>
      </trkpt>
      <trkpt lat="40.269217" lon="-4.929950">
        <ele>2221.0</ele>
        <time>2018-09-15T12:47:59Z</time>
      </trkpt>
      <trkpt lat="40.269300" lon="-4.929900">
        <ele>2221.0</ele>
        <time>2018-09-15T12:48:00Z</time>
      </trkpt>
      <trkpt lat="40.269400" lon="-4.929883">
        <ele>2221.0</ele>
        <time>2018-09-15T12:48:01Z</time>
      </trkpt>
      <trkpt lat="40.269483" lon="-4.929900">
        <ele>2219.0</ele>
        <time>2018-09-15T12:48:02Z</time>
      </trkpt>
      <trkpt lat="40.269583" lon="-4.929933">
        <ele>2219.0</ele>
        <time>2018-09-15T12:48:03Z</time>
      </trkpt>
      <trkpt lat="40.269683" lon="-4.930017">
        <ele>2218.0</ele>
        <time>2018-09-15T12:48:04Z</time>
      </trkpt>
      <trkpt lat="40.269767" lon="-4.930117">
        <ele>2219.0</ele>
        <time>2018-09-15T12:48:05Z</time>
      </trkpt>
      <trkpt lat="40.269817" lon="-4.930233">
        <ele>2220.0</ele>
        <time>2018-09-15T12:48:06Z</time>
      </trkpt>
      <trkpt lat="40.269850" lon="-4.930367">
        <ele>2220.0</ele>
        <time>2018-09-15T12:48:07Z</time>
      </trkpt>
      <trkpt lat="40.269867" lon="-4.930517">
        <ele>2222.0</ele>
        <time>2018-09-15T12:48:08Z</time>
      </trkpt>
      <trkpt lat="40.269867" lon="-4.930650">
        <ele>2223.0</ele>
        <time>2018-09-15T12:48:09Z</time>
      </trkpt>
      <trkpt lat="40.269867" lon="-4.930783">
        <ele>2226.0</ele>
        <time>2018-09-15T12:48:10Z</time>
      </trkpt>
      <trkpt lat="40.269850" lon="-4.930917">
        <ele>2228.0</ele>
        <time>2018-09-15T12:48:11Z</time>
      </trkpt>
      <trkpt lat="40.269833" lon="-4.931033">
        <ele>2231.0</ele>
        <time>2018-09-15T12:48:12Z</time>
      </trkpt>
      <trkpt lat="40.269800" lon="-4.931150">
        <ele>2233.0</ele>
        <time>2018-09-15T12:48:13Z</time>
      </trkpt>
      <trkpt lat="40.269783" lon="-4.931267">
        <ele>2235.0</ele>
        <time>2018-09-15T12:48:14Z</time>
      </trkpt>
      <trkpt lat="40.269750" lon="-4.931367">
        <ele>2237.0</ele>
        <time>2018-09-15T12:48:15Z</time>
      </trkpt>
      <trkpt lat="40.269733" lon="-4.931467">
        <ele>2238.0</ele>
        <time>2018-09-15T12:48:16Z</time>
      </trkpt>
      <trkpt lat="40.269700" lon="-4.931567">
        <ele>2238.0</ele>
        <time>2018-09-15T12:48:17Z</time>
      </trkpt>
      <trkpt lat="40.269633" lon="-4.931650">
        <ele>2238.0</ele>
        <time>2018-09-15T12:48:18Z</time>
      </trkpt>
      <trkpt lat="40.269567" lon="-4.931750">
        <ele>2237.0</ele>
        <time>2018-09-15T12:48:19Z</time>
      </trkpt>
      <trkpt lat="40.269467" lon="-4.931817">
        <ele>2238.0</ele>
        <time>2018-09-15T12:48:20Z</time>
      </trkpt>
      <trkpt lat="40.269350" lon="-4.931867">
        <ele>2239.0</ele>
        <time>2018-09-15T12:48:21Z</time>
      </trkpt>
      <trkpt lat="40.269250" lon="-4.931883">
        <ele>2242.0</ele>
        <time>2018-09-15T12:48:22Z</time>
      </trkpt>
      <trkpt lat="40.269150" lon="-4.931900">
        <ele>2244.0</ele>
        <time>2018-09-15T12:48:23Z</time>
      </trkpt>
      <trkpt lat="40.269050" lon="-4.931900">
        <ele>2246.0</ele>
        <time>2018-09-15T12:48:24Z</time>
      </trkpt>
      <trkpt lat="40.268950" lon="-4.931867">
        <ele>2247.0</ele>
        <time>2018-09-15T12:48:25Z</time>
      </trkpt>
      <trkpt lat="40.268850" lon="-4.931817">
        <ele>2248.0</ele>
        <time>2018-09-15T12:48:26Z</time>
      </trkpt>
      <trkpt lat="40.268750" lon="-4.931733">
        <ele>2249.0</ele>
        <time>2018-09-15T12:48:27Z</time>
      </trkpt>
      <trkpt lat="40.268683" lon="-4.931633">
        <ele>2251.0</ele>
        <time>2018-09-15T12:48:28Z</time>
      </trkpt>
      <trkpt lat="40.268633" lon="-4.931533">
        <ele>2253.0</ele>
        <time>2018-09-15T12:48:29Z</time>
      </trkpt>
      <trkpt lat="40.268617" lon="-4.931417">
        <ele>2254.0</ele>
        <time>2018-09-15T12:48:30Z</time>
      </trkpt>
      <trkpt lat="40.268617" lon="-4.931317">
        <ele>2255.0</ele>
        <time>2018-09-15T12:48:31Z</time>
      </trkpt>
      <trkpt lat="40.268650" lon="-4.931217">
        <ele>2256.0</ele>
        <time>2018-09-15T12:48:32Z</time>
      </trkpt>
      <trkpt lat="40.268700" lon="-4.931117">
        <ele>2256.0</ele>
        <time>2018-09-15T12:48:33Z</time>
      </trkpt>
      <trkpt lat="40.268767" lon="-4.931050">
        <ele>2256.0</ele>
        <time>2018-09-15T12:48:34Z</time>
      </trkpt>
      <trkpt lat="40.268850" lon="-4.931000">
        <ele>2256.0</ele>
        <time>2018-09-15T12:48:35Z</time>
      </trkpt>
      <trkpt lat="40.268950" lon="-4.930983">
        <ele>2256.0</ele>
        <time>2018-09-15T12:48:36Z</time>
      </trkpt>
      <trkpt lat="40.269033" lon="-4.931017">
        <ele>2256.0</ele>
        <time>2018-09-15T12:48:37Z</time>
      </trkpt>
      <trkpt lat="40.269133" lon="-4.931067">
        <ele>2256.0</ele>
        <time>2018-09-15T12:48:38Z</time>
      </trkpt>
      <trkpt lat="40.269217" lon="-4.931133">
        <ele>2257.0</ele>
        <time>2018-09-15T12:48:39Z</time>
      </trkpt>
      <trkpt lat="40.269283" lon="-4.931200">
        <ele>2259.0</ele>
        <time>2018-09-15T12:48:40Z</time>
      </trkpt>
      <trkpt lat="40.269333" lon="-4.931283">
        <ele>2261.0</ele>
        <time>2018-09-15T12:48:41Z</time>
      </trkpt>
      <trkpt lat="40.269383" lon="-4.931367">
        <ele>2262.0</ele>
        <time>2018-09-15T12:48:42Z</time>
      </trkpt>
      <trkpt lat="40.269417" lon="-4.931450">
        <ele>2263.0</ele>
        <time>2018-09-15T12:48:43Z</time>
      </trkpt>
      <trkpt lat="40.269450" lon="-4.931550">
        <ele>2264.0</ele>
        <time>2018-09-15T12:48:44Z</time>
      </trkpt>
      <trkpt lat="40.269467" lon="-4.931650">
        <ele>2264.0</ele>
        <time>2018-09-15T12:48:45Z</time>
      </trkpt>
      <trkpt lat="40.269467" lon="-4.931767">
        <ele>2265.0</ele>
        <time>2018-09-15T12:48:46Z</time>
      </trkpt>
      <trkpt lat="40.269450" lon="-4.931867">
        <ele>2265.0</ele>
        <time>2018-09-15T12:48:47Z</time>
      </trkpt>
      <trkpt lat="40.269400" lon="-4.931983">
        <ele>2265.0</ele>
        <time>2018-09-15T12:48:48Z</time>
      </trkpt>
      <trkpt lat="40.269333" lon="-4.932083">
        <ele>2265.0</ele>
        <time>2018-09-15T12:48:49Z</time>
      </trkpt>
      <trkpt lat="40.269250" lon="-4.932150">
        <ele>2265.0</ele>
        <time>2018-09-15T12:48:50Z</time>
      </trkpt>
      <trkpt lat="40.269167" lon="-4.932217">
        <ele>2267.0</ele>
        <time>2018-09-15T12:48:51Z</time>
      </trkpt>
      <trkpt lat="40.269067" lon="-4.932233">
        <ele>2268.0</ele>
        <time>2018-09-15T12:48:52Z</time>
      </trkpt>
      <trkpt lat="40.268967" lon="-4.932250">
        <ele>2269.0</ele>
        <time>2018-09-15T12:48:53Z</time>
      </trkpt>
      <trkpt lat="40.268883" lon="-4.932233">
        <ele>2270.0</ele>
        <time>2018-09-15T12:48:54Z</time>
      </trkpt>
      <trkpt lat="40.268767" lon="-4.932217">
        <ele>2271.0</ele>
        <time>2018-09-15T12:48:55Z</time>
      </trkpt>
      <trkpt lat="40.268667" lon="-4.932200">
        <ele>2272.0</ele>
        <time>2018-09-15T12:48:56Z</time>
      </trkpt>
      <trkpt lat="40.268550" lon="-4.932150">
        <ele>2275.0</ele>
        <time>2018-09-15T12:48:57Z</time>
      </trkpt>
      <trkpt lat="40.268467" lon="-4.932083">
        <ele>2277.0</ele>
        <time>2018-09-15T12:48:58Z</time>
      </trkpt>
      <trkpt lat="40.268417" lon="-4.931983">
        <ele>2280.0</ele>
        <time>2018-09-15T12:48:59Z</time>
      </trkpt>
      <trkpt lat="40.268383" lon="-4.931900">
        <ele>2282.0</ele>
        <time>2018-09-15T12:49:00Z</time>
      </trkpt>
      <trkpt lat="40.268350" lon="-4.931817">
        <ele>2283.0</ele>
        <time>2018-09-15T12:49:01Z</time>
      </trkpt>
      <trkpt lat="40.268333" lon="-4.931733">
        <ele>2283.0</ele>
        <time>2018-09-15T12:49:02Z</time>
      </trkpt>
      <trkpt lat="40.268333" lon="-4.931650">
        <ele>2282.0</ele>
        <time>2018-09-15T12:49:03Z</time>
      </trkpt>
      <trkpt lat="40.268367" lon="-4.931533">
        <ele>2281.0</ele>
        <time>2018-09-15T12:49:04Z</time>
      </trkpt>
      <trkpt lat="40.268400" lon="-4.931433">
        <ele>2280.0</ele>
        <time>2018-09-15T12:49:05Z</time>
      </trkpt>
      <trkpt lat="40.268450" lon="-4.931333">
        <ele>2279.0</ele>
        <time>2018-09-15T12:49:06Z</time>
      </trkpt>
      <trkpt lat="40.268533" lon="-4.931283">
        <ele>2280.0</ele>
        <time>2018-09-15T12:49:07Z</time>
      </trkpt>
      <trkpt lat="40.268600" lon="-4.931233">
        <ele>2280.0</ele>
        <time>2018-09-15T12:49:08Z</time>
      </trkpt>
      <trkpt lat="40.268683" lon="-4.931233">
        <ele>2279.0</ele>
        <time>2018-09-15T12:49:09Z</time>
      </trkpt>
      <trkpt lat="40.268767" lon="-4.931250">
        <ele>2278.0</ele>
        <time>2018-09-15T12:49:10Z</time>
      </trkpt>
      <trkpt lat="40.268850" lon="-4.931283">
        <ele>2276.0</ele>
        <time>2018-09-15T12:49:11Z</time>
      </trkpt>
      <trkpt lat="40.268933" lon="-4.931333">
        <ele>2274.0</ele>
        <time>2018-09-15T12:49:12Z</time>
      </trkpt>
      <trkpt lat="40.269017" lon="-4.931400">
        <ele>2274.0</ele>
        <time>2018-09-15T12:49:13Z</time>
      </trkpt>
      <trkpt lat="40.269083" lon="-4.931483">
        <ele>2275.0</ele>
        <time>2018-09-15T12:49:14Z</time>
      </trkpt>
      <trkpt lat="40.269150" lon="-4.931567">
        <ele>2277.0</ele>
        <time>2018-09-15T12:49:15Z</time>
      </trkpt>
      <trkpt lat="40.269200" lon="-4.931650">
        <ele>2278.0</ele>
        <time>2018-09-15T12:49:16Z</time>
      </trkpt>
      <trkpt lat="40.269267" lon="-4.931733">
        <ele>2279.0</ele>
        <time>2018-09-15T12:49:17Z</time>
      </trkpt>
      <trkpt lat="40.269317" lon="-4.931800">
        <ele>2280.0</ele>
        <time>2018-09-15T12:49:18Z</time>
      </trkpt>
      <trkpt lat="40.269367" lon="-4.931900">
        <ele>2279.0</ele>
        <time>2018-09-15T12:49:19Z</time>
      </trkpt>
      <trkpt lat="40.269400" lon="-4.932000">
        <ele>2279.0</ele>
        <time>2018-09-15T12:49:20Z</time>
      </trkpt>
      <trkpt lat="40.269417" lon="-4.932117">
        <ele>2278.0</ele>
        <time>2018-09-15T12:49:21Z</time>
      </trkpt>
      <trkpt lat="40.269417" lon="-4.932217">
        <ele>2277.0</ele>
        <time>2018-09-15T12:49:22Z</time>
      </trkpt>
      <trkpt lat="40.269400" lon="-4.932317">
        <ele>2277.0</ele>
        <time>2018-09-15T12:49:23Z</time>
      </trkpt>
      <trkpt lat="40.269367" lon="-4.932400">
        <ele>2275.0</ele>
        <time>2018-09-15T12:49:24Z</time>
      </trkpt>
      <trkpt lat="40.269333" lon="-4.932500">
        <ele>2273.0</ele>
        <time>2018-09-15T12:49:25Z</time>
      </trkpt>
      <trkpt lat="40.269300" lon="-4.932600">
        <ele>2271.0</ele>
        <time>2018-09-15T12:49:26Z</time>
      </trkpt>
      <trkpt lat="40.269250" lon="-4.932700">
        <ele>2268.0</ele>
        <time>2018-09-15T12:49:27Z</time>
      </trkpt>
      <trkpt lat="40.269183" lon="-4.932817">
        <ele>2266.0</ele>
        <time>2018-09-15T12:49:28Z</time>
      </trkpt>
      <trkpt lat="40.269117" lon="-4.932900">
        <ele>2265.0</ele>
        <time>2018-09-15T12:49:29Z</time>
      </trkpt>
      <trkpt lat="40.269050" lon="-4.932983">
        <ele>2265.0</ele>
        <time>2018-09-15T12:49:30Z</time>
      </trkpt>
      <trkpt lat="40.268983" lon="-4.933050">
        <ele>2264.0</ele>
        <time>2018-09-15T12:49:31Z</time>
      </trkpt>
      <trkpt lat="40.268917" lon="-4.933117">
        <ele>2263.0</ele>
        <time>2018-09-15T12:49:32Z</time>
      </trkpt>
      <trkpt lat="40.268850" lon="-4.933183">
        <ele>2261.0</ele>
        <time>2018-09-15T12:49:33Z</time>
      </trkpt>
      <trkpt lat="40.268767" lon="-4.933267">
        <ele>2260.0</ele>
        <time>2018-09-15T12:49:34Z</time>
      </trkpt>
      <trkpt lat="40.268683" lon="-4.933350">
        <ele>2259.0</ele>
        <time>2018-09-15T12:49:35Z</time>
      </trkpt>
      <trkpt lat="40.268583" lon="-4.933433">
        <ele>2259.0</ele>
        <time>2018-09-15T12:49:36Z</time>
      </trkpt>
      <trkpt lat="40.268500" lon="-4.933500">
        <ele>2260.0</ele>
        <time>2018-09-15T12:49:37Z</time>
      </trkpt>
      <trkpt lat="40.268400" lon="-4.933550">
        <ele>2262.0</ele>
        <time>2018-09-15T12:49:38Z</time>
      </trkpt>
      <trkpt lat="40.268333" lon="-4.933600">
        <ele>2264.0</ele>
        <time>2018-09-15T12:49:39Z</time>
      </trkpt>
      <trkpt lat="40.268267" lon="-4.933667">
        <ele>2265.0</ele>
        <time>2018-09-15T12:49:40Z</time>
      </trkpt>
      <trkpt lat="40.268200" lon="-4.933767">
        <ele>2265.0</ele>
        <time>2018-09-15T12:49:41Z</time>
      </trkpt>
      <trkpt lat="40.268150" lon="-4.933867">
        <ele>2265.0</ele>
        <time>2018-09-15T12:49:42Z</time>
      </trkpt>
      <trkpt lat="40.268067" lon="-4.933967">
        <ele>2264.0</ele>
        <time>2018-09-15T12:49:43Z</time>
      </trkpt>
      <trkpt lat="40.268000" lon="-4.934050">
        <ele>2264.0</ele>
        <time>2018-09-15T12:49:44Z</time>
      </trkpt>
      <trkpt lat="40.267917" lon="-4.934133">
        <ele>2265.0</ele>
        <time>2018-09-15T12:49:45Z</time>
      </trkpt>
      <trkpt lat="40.267850" lon="-4.934200">
        <ele>2265.0</ele>
        <time>2018-09-15T12:49:46Z</time>
      </trkpt>
      <trkpt lat="40.267783" lon="-4.934283">
        <ele>2265.0</ele>
        <time>2018-09-15T12:49:47Z</time>
      </trkpt>
      <trkpt lat="40.267717" lon="-4.934383">
        <ele>2264.0</ele>
        <time>2018-09-15T12:49:48Z</time>
      </trkpt>
      <trkpt lat="40.267650" lon="-4.934467">
        <ele>2262.0</ele>
        <time>2018-09-15T12:49:49Z</time>
      </trkpt>
      <trkpt lat="40.267583" lon="-4.934567">
        <ele>2261.0</ele>
        <time>2018-09-15T12:49:50Z</time>
      </trkpt>
      <trkpt lat="40.267517" lon="-4.934667">
        <ele>2260.0</ele>
        <time>2018-09-15T12:49:51Z</time>
      </trkpt>
      <trkpt lat="40.267433" lon="-4.934767">
        <ele>2260.0</ele>
        <time>2018-09-15T12:49:52Z</time>
      </trkpt>
      <trkpt lat="40.267367" lon="-4.934867">
        <ele>2259.0</ele>
        <time>2018-09-15T12:49:53Z</time>
      </trkpt>
      <trkpt lat="40.267300" lon="-4.934967">
        <ele>2258.0</ele>
        <time>2018-09-15T12:49:54Z</time>
      </trkpt>
      <trkpt lat="40.267233" lon="-4.935083">
        <ele>2258.0</ele>
        <time>2018-09-15T12:49:55Z</time>
      </trkpt>
      <trkpt lat="40.267167" lon="-4.935183">
        <ele>2257.0</ele>
        <time>2018-09-15T12:49:56Z</time>
      </trkpt>
      <trkpt lat="40.267100" lon="-4.935300">
        <ele>2257.0</ele>
        <time>2018-09-15T12:49:57Z</time>
      </trkpt>
      <trkpt lat="40.267033" lon="-4.935400">
        <ele>2256.0</ele>
        <time>2018-09-15T12:49:58Z</time>
      </trkpt>
      <trkpt lat="40.266967" lon="-4.935500">
        <ele>2255.0</ele>
        <time>2018-09-15T12:49:59Z</time>
      </trkpt>
      <trkpt lat="40.266900" lon="-4.935617">
        <ele>2254.0</ele>
        <time>2018-09-15T12:50:00Z</time>
      </trkpt>
      <trkpt lat="40.266833" lon="-4.935733">
        <ele>2253.0</ele>
        <time>2018-09-15T12:50:01Z</time>
      </trkpt>
      <trkpt lat="40.266767" lon="-4.935850">
        <ele>2251.0</ele>
        <time>2018-09-15T12:50:02Z</time>
      </trkpt>
      <trkpt lat="40.266683" lon="-4.935967">
        <ele>2250.0</ele>
        <time>2018-09-15T12:50:03Z</time>
      </trkpt>
      <trkpt lat="40.266617" lon="-4.936083">
        <ele>2249.0</ele>
        <time>2018-09-15T12:50:04Z</time>
      </trkpt>
      <trkpt lat="40.266550" lon="-4.936200">
        <ele>2249.0</ele>
        <time>2018-09-15T12:50:05Z</time>
      </trkpt>
      <trkpt lat="40.266467" lon="-4.936317">
        <ele>2248.0</ele>
        <time>2018-09-15T12:50:06Z</time>
      </trkpt>
      <trkpt lat="40.266400" lon="-4.936417">
        <ele>2248.0</ele>
        <time>2018-09-15T12:50:07Z</time>
      </trkpt>
      <trkpt lat="40.266317" lon="-4.936533">
        <ele>2248.0</ele>
        <time>2018-09-15T12:50:08Z</time>
      </trkpt>
      <trkpt lat="40.266250" lon="-4.936633">
        <ele>2248.0</ele>
        <time>2018-09-15T12:50:09Z</time>
      </trkpt>
      <trkpt lat="40.266183" lon="-4.936750">
        <ele>2248.0</ele>
        <time>2018-09-15T12:50:10Z</time>
      </trkpt>
      <trkpt lat="40.266117" lon="-4.936850">
        <ele>2248.0</ele>
        <time>2018-09-15T12:50:11Z</time>
      </trkpt>
      <trkpt lat="40.266050" lon="-4.936967">
        <ele>2247.0</ele>
        <time>2018-09-15T12:50:12Z</time>
      </trkpt>
      <trkpt lat="40.265983" lon="-4.937083">
        <ele>2246.0</ele>
        <time>2018-09-15T12:50:13Z</time>
      </trkpt>
      <trkpt lat="40.265917" lon="-4.937200">
        <ele>2247.0</ele>
        <time>2018-09-15T12:50:14Z</time>
      </trkpt>
      <trkpt lat="40.265850" lon="-4.937300">
        <ele>2247.0</ele>
        <time>2018-09-15T12:50:15Z</time>
      </trkpt>
      <trkpt lat="40.265783" lon="-4.937400">
        <ele>2247.0</ele>
        <time>2018-09-15T12:50:16Z</time>
      </trkpt>
      <trkpt lat="40.265717" lon="-4.937483">
        <ele>2247.0</ele>
        <time>2018-09-15T12:50:17Z</time>
      </trkpt>
      <trkpt lat="40.265667" lon="-4.937600">
        <ele>2246.0</ele>
        <time>2018-09-15T12:50:18Z</time>
      </trkpt>
      <trkpt lat="40.265600" lon="-4.937700">
        <ele>2244.0</ele>
        <time>2018-09-15T12:50:19Z</time>
      </trkpt>
      <trkpt lat="40.265517" lon="-4.937800">
        <ele>2242.0</ele>
        <time>2018-09-15T12:50:20Z</time>
      </trkpt>
      <trkpt lat="40.265433" lon="-4.937900">
        <ele>2241.0</ele>
        <time>2018-09-15T12:50:21Z</time>
      </trkpt>
      <trkpt lat="40.265367" lon="-4.938000">
        <ele>2241.0</ele>
        <time>2018-09-15T12:50:22Z</time>
      </trkpt>
      <trkpt lat="40.265300" lon="-4.938117">
        <ele>2240.0</ele>
        <time>2018-09-15T12:50:23Z</time>
      </trkpt>
      <trkpt lat="40.265233" lon="-4.938217">
        <ele>2239.0</ele>
        <time>2018-09-15T12:50:24Z</time>
      </trkpt>
      <trkpt lat="40.265167" lon="-4.938317">
        <ele>2238.0</ele>
        <time>2018-09-15T12:50:25Z</time>
      </trkpt>
      <trkpt lat="40.265117" lon="-4.938433">
        <ele>2238.0</ele>
        <time>2018-09-15T12:50:26Z</time>
      </trkpt>
      <trkpt lat="40.265050" lon="-4.938533">
        <ele>2237.0</ele>
        <time>2018-09-15T12:50:27Z</time>
      </trkpt>
      <trkpt lat="40.264983" lon="-4.938617">
        <ele>2237.0</ele>
        <time>2018-09-15T12:50:28Z</time>
      </trkpt>
      <trkpt lat="40.264917" lon="-4.938700">
        <ele>2235.0</ele>
        <time>2018-09-15T12:50:29Z</time>
      </trkpt>
      <trkpt lat="40.264850" lon="-4.938767">
        <ele>2233.0</ele>
        <time>2018-09-15T12:50:30Z</time>
      </trkpt>
      <trkpt lat="40.264783" lon="-4.938850">
        <ele>2229.0</ele>
        <time>2018-09-15T12:50:31Z</time>
      </trkpt>
      <trkpt lat="40.264717" lon="-4.938933">
        <ele>2227.0</ele>
        <time>2018-09-15T12:50:32Z</time>
      </trkpt>
      <trkpt lat="40.264633" lon="-4.939033">
        <ele>2225.0</ele>
        <time>2018-09-15T12:50:33Z</time>
      </trkpt>
      <trkpt lat="40.264567" lon="-4.939133">
        <ele>2225.0</ele>
        <time>2018-09-15T12:50:34Z</time>
      </trkpt>
      <trkpt lat="40.264517" lon="-4.939233">
        <ele>2224.0</ele>
        <time>2018-09-15T12:50:35Z</time>
      </trkpt>
      <trkpt lat="40.264450" lon="-4.939333">
        <ele>2223.0</ele>
        <time>2018-09-15T12:50:36Z</time>
      </trkpt>
      <trkpt lat="40.264383" lon="-4.939433">
        <ele>2222.0</ele>
        <time>2018-09-15T12:50:37Z</time>
      </trkpt>
      <trkpt lat="40.264333" lon="-4.939533">
        <ele>2220.0</ele>
        <time>2018-09-15T12:50:38Z</time>
      </trkpt>
      <trkpt lat="40.264267" lon="-4.939633">
        <ele>2219.0</ele>
        <time>2018-09-15T12:50:39Z</time>
      </trkpt>
      <trkpt lat="40.264217" lon="-4.939750">
        <ele>2217.0</ele>
        <time>2018-09-15T12:50:40Z</time>
      </trkpt>
      <trkpt lat="40.264150" lon="-4.939867">
        <ele>2217.0</ele>
        <time>2018-09-15T12:50:41Z</time>
      </trkpt>
      <trkpt lat="40.264100" lon="-4.939967">
        <ele>2217.0</ele>
        <time>2018-09-15T12:50:42Z</time>
      </trkpt>
      <trkpt lat="40.264033" lon="-4.940067">
        <ele>2217.0</ele>
        <time>2018-09-15T12:50:43Z</time>
      </trkpt>
      <trkpt lat="40.263967" lon="-4.940183">
        <ele>2217.0</ele>
        <time>2018-09-15T12:50:44Z</time>
      </trkpt>
      <trkpt lat="40.263900" lon="-4.940300">
        <ele>2217.0</ele>
        <time>2018-09-15T12:50:45Z</time>
      </trkpt>
      <trkpt lat="40.263850" lon="-4.940433">
        <ele>2217.0</ele>
        <time>2018-09-15T12:50:46Z</time>
      </trkpt>
      <trkpt lat="40.263817" lon="-4.940550">
        <ele>2217.0</ele>
        <time>2018-09-15T12:50:47Z</time>
      </trkpt>
      <trkpt lat="40.263767" lon="-4.940667">
        <ele>2217.0</ele>
        <time>2018-09-15T12:50:48Z</time>
      </trkpt>
      <trkpt lat="40.263717" lon="-4.940783">
        <ele>2216.0</ele>
        <time>2018-09-15T12:50:49Z</time>
      </trkpt>
      <trkpt lat="40.263667" lon="-4.940900">
        <ele>2216.0</ele>
        <time>2018-09-15T12:50:50Z</time>
      </trkpt>
      <trkpt lat="40.263600" lon="-4.941017">
        <ele>2216.0</ele>
        <time>2018-09-15T12:50:51Z</time>
      </trkpt>
      <trkpt lat="40.263550" lon="-4.941133">
        <ele>2216.0</ele>
        <time>2018-09-15T12:50:52Z</time>
      </trkpt>
      <trkpt lat="40.263483" lon="-4.941250">
        <ele>2216.0</ele>
        <time>2018-09-15T12:50:53Z</time>
      </trkpt>
      <trkpt lat="40.263433" lon="-4.941367">
        <ele>2217.0</ele>
        <time>2018-09-15T12:50:54Z</time>
      </trkpt>
      <trkpt lat="40.263367" lon="-4.941483">
        <ele>2217.0</ele>
        <time>2018-09-15T12:50:55Z</time>
      </trkpt>
      <trkpt lat="40.263283" lon="-4.941600">
        <ele>2216.0</ele>
        <time>2018-09-15T12:50:56Z</time>
      </trkpt>
      <trkpt lat="40.263217" lon="-4.941717">
        <ele>2217.0</ele>
        <time>2018-09-15T12:50:57Z</time>
      </trkpt>
      <trkpt lat="40.263150" lon="-4.941833">
        <ele>2217.0</ele>
        <time>2018-09-15T12:50:58Z</time>
      </trkpt>
      <trkpt lat="40.263100" lon="-4.941950">
        <ele>2218.0</ele>
        <time>2018-09-15T12:50:59Z</time>
      </trkpt>
      <trkpt lat="40.263033" lon="-4.942067">
        <ele>2218.0</ele>
        <time>2018-09-15T12:51:00Z</time>
      </trkpt>
      <trkpt lat="40.262967" lon="-4.942167">
        <ele>2217.0</ele>
        <time>2018-09-15T12:51:01Z</time>
      </trkpt>
      <trkpt lat="40.262900" lon="-4.942283">
        <ele>2217.0</ele>
        <time>2018-09-15T12:51:02Z</time>
      </trkpt>
      <trkpt lat="40.262833" lon="-4.942400">
        <ele>2217.0</ele>
        <time>2018-09-15T12:51:03Z</time>
      </trkpt>
      <trkpt lat="40.262783" lon="-4.942533">
        <ele>2217.0</ele>
        <time>2018-09-15T12:51:04Z</time>
      </trkpt>
      <trkpt lat="40.262733" lon="-4.942667">
        <ele>2217.0</ele>
        <time>2018-09-15T12:51:05Z</time>
      </trkpt>
      <trkpt lat="40.262667" lon="-4.942783">
        <ele>2218.0</ele>
        <time>2018-09-15T12:51:06Z</time>
      </trkpt>
      <trkpt lat="40.262617" lon="-4.942883">
        <ele>2218.0</ele>
        <time>2018-09-15T12:51:07Z</time>
      </trkpt>
      <trkpt lat="40.262550" lon="-4.942983">
        <ele>2218.0</ele>
        <time>2018-09-15T12:51:08Z</time>
      </trkpt>
      <trkpt lat="40.262483" lon="-4.943100">
        <ele>2217.0</ele>
        <time>2018-09-15T12:51:09Z</time>
      </trkpt>
      <trkpt lat="40.262417" lon="-4.943217">
        <ele>2216.0</ele>
        <time>2018-09-15T12:51:10Z</time>
      </trkpt>
      <trkpt lat="40.262333" lon="-4.943333">
        <ele>2216.0</ele>
        <time>2018-09-15T12:51:11Z</time>
      </trkpt>
      <trkpt lat="40.262267" lon="-4.943467">
        <ele>2216.0</ele>
        <time>2018-09-15T12:51:12Z</time>
      </trkpt>
      <trkpt lat="40.262200" lon="-4.943583">
        <ele>2217.0</ele>
        <time>2018-09-15T12:51:13Z</time>
      </trkpt>
      <trkpt lat="40.262133" lon="-4.943683">
        <ele>2218.0</ele>
        <time>2018-09-15T12:51:14Z</time>
      </trkpt>
      <trkpt lat="40.262067" lon="-4.943783">
        <ele>2218.0</ele>
        <time>2018-09-15T12:51:15Z</time>
      </trkpt>
      <trkpt lat="40.262000" lon="-4.943883">
        <ele>2218.0</ele>
        <time>2018-09-15T12:51:16Z</time>
      </trkpt>
      <trkpt lat="40.261933" lon="-4.944000">
        <ele>2217.0</ele>
        <time>2018-09-15T12:51:17Z</time>
      </trkpt>
      <trkpt lat="40.261850" lon="-4.944117">
        <ele>2215.0</ele>
        <time>2018-09-15T12:51:18Z</time>
      </trkpt>
      <trkpt lat="40.261767" lon="-4.944233">
        <ele>2215.0</ele>
        <time>2018-09-15T12:51:19Z</time>
      </trkpt>
      <trkpt lat="40.261683" lon="-4.944367">
        <ele>2215.0</ele>
        <time>2018-09-15T12:51:20Z</time>
      </trkpt>
      <trkpt lat="40.261583" lon="-4.944467">
        <ele>2215.0</ele>
        <time>2018-09-15T12:51:21Z</time>
      </trkpt>
      <trkpt lat="40.261500" lon="-4.944583">
        <ele>2215.0</ele>
        <time>2018-09-15T12:51:22Z</time>
      </trkpt>
      <trkpt lat="40.261417" lon="-4.944683">
        <ele>2215.0</ele>
        <time>2018-09-15T12:51:23Z</time>
      </trkpt>
      <trkpt lat="40.261333" lon="-4.944783">
        <ele>2215.0</ele>
        <time>2018-09-15T12:51:24Z</time>
      </trkpt>
      <trkpt lat="40.261233" lon="-4.944883">
        <ele>2215.0</ele>
        <time>2018-09-15T12:51:25Z</time>
      </trkpt>
      <trkpt lat="40.261150" lon="-4.944983">
        <ele>2215.0</ele>
        <time>2018-09-15T12:51:26Z</time>
      </trkpt>
      <trkpt lat="40.261050" lon="-4.945100">
        <ele>2214.0</ele>
        <time>2018-09-15T12:51:27Z</time>
      </trkpt>
      <trkpt lat="40.260950" lon="-4.945217">
        <ele>2214.0</ele>
        <time>2018-09-15T12:51:28Z</time>
      </trkpt>
      <trkpt lat="40.260867" lon="-4.945333">
        <ele>2214.0</ele>
        <time>2018-09-15T12:51:29Z</time>
      </trkpt>
      <trkpt lat="40.260783" lon="-4.945450">
        <ele>2213.0</ele>
        <time>2018-09-15T12:51:30Z</time>
      </trkpt>
      <trkpt lat="40.260700" lon="-4.945567">
        <ele>2212.0</ele>
        <time>2018-09-15T12:51:31Z</time>
      </trkpt>
      <trkpt lat="40.260600" lon="-4.945667">
        <ele>2212.0</ele>
        <time>2018-09-15T12:51:32Z</time>
      </trkpt>
      <trkpt lat="40.260517" lon="-4.945750">
        <ele>2212.0</ele>
        <time>2018-09-15T12:51:33Z</time>
      </trkpt>
      <trkpt lat="40.260433" lon="-4.945833">
        <ele>2212.0</ele>
        <time>2018-09-15T12:51:34Z</time>
      </trkpt>
      <trkpt lat="40.260350" lon="-4.945917">
        <ele>2211.0</ele>
        <time>2018-09-15T12:51:35Z</time>
      </trkpt>
      <trkpt lat="40.260283" lon="-4.946017">
        <ele>2210.0</ele>
        <time>2018-09-15T12:51:36Z</time>
      </trkpt>
      <trkpt lat="40.260183" lon="-4.946117">
        <ele>2208.0</ele>
        <time>2018-09-15T12:51:37Z</time>
      </trkpt>
      <trkpt lat="40.260100" lon="-4.946200">
        <ele>2207.0</ele>
        <time>2018-09-15T12:51:38Z</time>
      </trkpt>
      <trkpt lat="40.260000" lon="-4.946300">
        <ele>2207.0</ele>
        <time>2018-09-15T12:51:39Z</time>
      </trkpt>
      <trkpt lat="40.259900" lon="-4.946367">
        <ele>2206.0</ele>
        <time>2018-09-15T12:51:40Z</time>
      </trkpt>
      <trkpt lat="40.259783" lon="-4.946450">
        <ele>2206.0</ele>
        <time>2018-09-15T12:51:41Z</time>
      </trkpt>
      <trkpt lat="40.259683" lon="-4.946500">
        <ele>2205.0</ele>
        <time>2018-09-15T12:51:42Z</time>
      </trkpt>
      <trkpt lat="40.259567" lon="-4.946567">
        <ele>2203.0</ele>
        <time>2018-09-15T12:51:43Z</time>
      </trkpt>
      <trkpt lat="40.259467" lon="-4.946650">
        <ele>2202.0</ele>
        <time>2018-09-15T12:51:44Z</time>
      </trkpt>
      <trkpt lat="40.259350" lon="-4.946733">
        <ele>2201.0</ele>
        <time>2018-09-15T12:51:45Z</time>
      </trkpt>
      <trkpt lat="40.259250" lon="-4.946817">
        <ele>2200.0</ele>
        <time>2018-09-15T12:51:46Z</time>
      </trkpt>
      <trkpt lat="40.259150" lon="-4.946883">
        <ele>2200.0</ele>
        <time>2018-09-15T12:51:47Z</time>
      </trkpt>
      <trkpt lat="40.259050" lon="-4.946950">
        <ele>2199.0</ele>
        <time>2018-09-15T12:51:48Z</time>
      </trkpt>
      <trkpt lat="40.258967" lon="-4.947033">
        <ele>2198.0</ele>
        <time>2018-09-15T12:51:49Z</time>
      </trkpt>
      <trkpt lat="40.258867" lon="-4.947100">
        <ele>2195.0</ele>
        <time>2018-09-15T12:51:50Z</time>
      </trkpt>
      <trkpt lat="40.258767" lon="-4.947183">
        <ele>2192.0</ele>
        <time>2018-09-15T12:51:51Z</time>
      </trkpt>
      <trkpt lat="40.258667" lon="-4.947267">
        <ele>2190.0</ele>
        <time>2018-09-15T12:51:52Z</time>
      </trkpt>
      <trkpt lat="40.258567" lon="-4.947333">
        <ele>2189.0</ele>
        <time>2018-09-15T12:51:53Z</time>
      </trkpt>
      <trkpt lat="40.258467" lon="-4.947400">
        <ele>2189.0</ele>
        <time>2018-09-15T12:51:54Z</time>
      </trkpt>
      <trkpt lat="40.258383" lon="-4.947467">
        <ele>2189.0</ele>
        <time>2018-09-15T12:51:55Z</time>
      </trkpt>
      <trkpt lat="40.258300" lon="-4.947533">
        <ele>2188.0</ele>
        <time>2018-09-15T12:51:56Z</time>
      </trkpt>
      <trkpt lat="40.258233" lon="-4.947600">
        <ele>2186.0</ele>
        <time>2018-09-15T12:51:57Z</time>
      </trkpt>
      <trkpt lat="40.258150" lon="-4.947667">
        <ele>2184.0</ele>
        <time>2018-09-15T12:51:58Z</time>
      </trkpt>
      <trkpt lat="40.258050" lon="-4.947733">
        <ele>2181.0</ele>
        <time>2018-09-15T12:51:59Z</time>
      </trkpt>
      <trkpt lat="40.257967" lon="-4.947817">
        <ele>2178.0</ele>
        <time>2018-09-15T12:52:00Z</time>
      </trkpt>
      <trkpt lat="40.257867" lon="-4.947883">
        <ele>2176.0</ele>
        <time>2018-09-15T12:52:01Z</time>
      </trkpt>
      <trkpt lat="40.257783" lon="-4.947950">
        <ele>2174.0</ele>
        <time>2018-09-15T12:52:02Z</time>
      </trkpt>
      <trkpt lat="40.257683" lon="-4.948017">
        <ele>2173.0</ele>
        <time>2018-09-15T12:52:03Z</time>
      </trkpt>
      <trkpt lat="40.257600" lon="-4.948100">
        <ele>2171.0</ele>
        <time>2018-09-15T12:52:04Z</time>
      </trkpt>
      <trkpt lat="40.257517" lon="-4.948167">
        <ele>2169.0</ele>
        <time>2018-09-15T12:52:05Z</time>
      </trkpt>
      <trkpt lat="40.257433" lon="-4.948267">
        <ele>2166.0</ele>
        <time>2018-09-15T12:52:06Z</time>
      </trkpt>
      <trkpt lat="40.257350" lon="-4.948350">
        <ele>2164.0</ele>
        <time>2018-09-15T12:52:07Z</time>
      </trkpt>
      <trkpt lat="40.257250" lon="-4.948417">
        <ele>2161.0</ele>
        <time>2018-09-15T12:52:08Z</time>
      </trkpt>
      <trkpt lat="40.257150" lon="-4.948483">
        <ele>2159.0</ele>
        <time>2018-09-15T12:52:09Z</time>
      </trkpt>
      <trkpt lat="40.257067" lon="-4.948550">
        <ele>2157.0</ele>
        <time>2018-09-15T12:52:10Z</time>
      </trkpt>
      <trkpt lat="40.256967" lon="-4.948617">
        <ele>2155.0</ele>
        <time>2018-09-15T12:52:11Z</time>
      </trkpt>
      <trkpt lat="40.256867" lon="-4.948683">
        <ele>2152.0</ele>
        <time>2018-09-15T12:52:12Z</time>
      </trkpt>
      <trkpt lat="40.256783" lon="-4.948750">
        <ele>2150.0</ele>
        <time>2018-09-15T12:52:13Z</time>
      </trkpt>
      <trkpt lat="40.256683" lon="-4.948817">
        <ele>2148.0</ele>
        <time>2018-09-15T12:52:14Z</time>
      </trkpt>
      <trkpt lat="40.256583" lon="-4.948867">
        <ele>2145.0</ele>
        <time>2018-09-15T12:52:15Z</time>
      </trkpt>
      <trkpt lat="40.256483" lon="-4.948933">
        <ele>2143.0</ele>
        <time>2018-09-15T12:52:16Z</time>
      </trkpt>
      <trkpt lat="40.256400" lon="-4.948983">
        <ele>2140.0</ele>
        <time>2018-09-15T12:52:17Z</time>
      </trkpt>
      <trkpt lat="40.256300" lon="-4.949033">
        <ele>2137.0</ele>
        <time>2018-09-15T12:52:18Z</time>
      </trkpt>
      <trkpt lat="40.256200" lon="-4.949083">
        <ele>2134.0</ele>
        <time>2018-09-15T12:52:19Z</time>
      </trkpt>
      <trkpt lat="40.256100" lon="-4.949133">
        <ele>2131.0</ele>
        <time>2018-09-15T12:52:20Z</time>
      </trkpt>
      <trkpt lat="40.255983" lon="-4.949167">
        <ele>2128.0</ele>
        <time>2018-09-15T12:52:21Z</time>
      </trkpt>
      <trkpt lat="40.255867" lon="-4.949217">
        <ele>2125.0</ele>
        <time>2018-09-15T12:52:22Z</time>
      </trkpt>
      <trkpt lat="40.255767" lon="-4.949267">
        <ele>2122.0</ele>
        <time>2018-09-15T12:52:23Z</time>
      </trkpt>
      <trkpt lat="40.255667" lon="-4.949300">
        <ele>2120.0</ele>
        <time>2018-09-15T12:52:24Z</time>
      </trkpt>
      <trkpt lat="40.255550" lon="-4.949350">
        <ele>2116.0</ele>
        <time>2018-09-15T12:52:25Z</time>
      </trkpt>
      <trkpt lat="40.255433" lon="-4.949383">
        <ele>2113.0</ele>
        <time>2018-09-15T12:52:26Z</time>
      </trkpt>
      <trkpt lat="40.255317" lon="-4.949433">
        <ele>2110.0</ele>
        <time>2018-09-15T12:52:27Z</time>
      </trkpt>
      <trkpt lat="40.255183" lon="-4.949467">
        <ele>2108.0</ele>
        <time>2018-09-15T12:52:28Z</time>
      </trkpt>
      <trkpt lat="40.255067" lon="-4.949500">
        <ele>2107.0</ele>
        <time>2018-09-15T12:52:29Z</time>
      </trkpt>
      <trkpt lat="40.254967" lon="-4.949533">
        <ele>2107.0</ele>
        <time>2018-09-15T12:52:30Z</time>
      </trkpt>
      <trkpt lat="40.254850" lon="-4.949583">
        <ele>2107.0</ele>
        <time>2018-09-15T12:52:31Z</time>
      </trkpt>
      <trkpt lat="40.254750" lon="-4.949600">
        <ele>2107.0</ele>
        <time>2018-09-15T12:52:32Z</time>
      </trkpt>
      <trkpt lat="40.254650" lon="-4.949633">
        <ele>2106.0</ele>
        <time>2018-09-15T12:52:33Z</time>
      </trkpt>
      <trkpt lat="40.254550" lon="-4.949650">
        <ele>2105.0</ele>
        <time>2018-09-15T12:52:34Z</time>
      </trkpt>
      <trkpt lat="40.254467" lon="-4.949700">
        <ele>2103.0</ele>
        <time>2018-09-15T12:52:35Z</time>
      </trkpt>
      <trkpt lat="40.254367" lon="-4.949733">
        <ele>2102.0</ele>
        <time>2018-09-15T12:52:36Z</time>
      </trkpt>
      <trkpt lat="40.254283" lon="-4.949783">
        <ele>2100.0</ele>
        <time>2018-09-15T12:52:37Z</time>
      </trkpt>
      <trkpt lat="40.254183" lon="-4.949817">
        <ele>2097.0</ele>
        <time>2018-09-15T12:52:38Z</time>
      </trkpt>
      <trkpt lat="40.254100" lon="-4.949850">
        <ele>2094.0</ele>
        <time>2018-09-15T12:52:39Z</time>
      </trkpt>
      <trkpt lat="40.254000" lon="-4.949900">
        <ele>2091.0</ele>
        <time>2018-09-15T12:52:40Z</time>
      </trkpt>
      <trkpt lat="40.253917" lon="-4.949950">
        <ele>2088.0</ele>
        <time>2018-09-15T12:52:41Z</time>
      </trkpt>
      <trkpt lat="40.253817" lon="-4.950017">
        <ele>2086.0</ele>
        <time>2018-09-15T12:52:42Z</time>
      </trkpt>
      <trkpt lat="40.253717" lon="-4.950083">
        <ele>2083.0</ele>
        <time>2018-09-15T12:52:43Z</time>
      </trkpt>
      <trkpt lat="40.253633" lon="-4.950117">
        <ele>2082.0</ele>
        <time>2018-09-15T12:52:44Z</time>
      </trkpt>
      <trkpt lat="40.253533" lon="-4.950150">
        <ele>2080.0</ele>
        <time>2018-09-15T12:52:45Z</time>
      </trkpt>
      <trkpt lat="40.253450" lon="-4.950183">
        <ele>2077.0</ele>
        <time>2018-09-15T12:52:46Z</time>
      </trkpt>
      <trkpt lat="40.253350" lon="-4.950217">
        <ele>2075.0</ele>
        <time>2018-09-15T12:52:47Z</time>
      </trkpt>
      <trkpt lat="40.253267" lon="-4.950267">
        <ele>2072.0</ele>
        <time>2018-09-15T12:52:48Z</time>
      </trkpt>
      <trkpt lat="40.253183" lon="-4.950317">
        <ele>2069.0</ele>
        <time>2018-09-15T12:52:49Z</time>
      </trkpt>
      <trkpt lat="40.253083" lon="-4.950383">
        <ele>2067.0</ele>
        <time>2018-09-15T12:52:50Z</time>
      </trkpt>
      <trkpt lat="40.252983" lon="-4.950433">
        <ele>2065.0</ele>
        <time>2018-09-15T12:52:51Z</time>
      </trkpt>
      <trkpt lat="40.252900" lon="-4.950483">
        <ele>2064.0</ele>
        <time>2018-09-15T12:52:52Z</time>
      </trkpt>
      <trkpt lat="40.252800" lon="-4.950517">
        <ele>2062.0</ele>
        <time>2018-09-15T12:52:53Z</time>
      </trkpt>
      <trkpt lat="40.252717" lon="-4.950550">
        <ele>2061.0</ele>
        <time>2018-09-15T12:52:54Z</time>
      </trkpt>
      <trkpt lat="40.252633" lon="-4.950600">
        <ele>2059.0</ele>
        <time>2018-09-15T12:52:55Z</time>
      </trkpt>
      <trkpt lat="40.252533" lon="-4.950650">
        <ele>2057.0</ele>
        <time>2018-09-15T12:52:56Z</time>
      </trkpt>
      <trkpt lat="40.252450" lon="-4.950700">
        <ele>2054.0</ele>
        <time>2018-09-15T12:52:57Z</time>
      </trkpt>
      <trkpt lat="40.252350" lon="-4.950733">
        <ele>2052.0</ele>
        <time>2018-09-15T12:52:58Z</time>
      </trkpt>
      <trkpt lat="40.252250" lon="-4.950783">
        <ele>2051.0</ele>
        <time>2018-09-15T12:52:59Z</time>
      </trkpt>
      <trkpt lat="40.252150" lon="-4.950817">
        <ele>2049.0</ele>
        <time>2018-09-15T12:53:00Z</time>
      </trkpt>
      <trkpt lat="40.252033" lon="-4.950867">
        <ele>2048.0</ele>
        <time>2018-09-15T12:53:01Z</time>
      </trkpt>
      <trkpt lat="40.251933" lon="-4.950917">
        <ele>2047.0</ele>
        <time>2018-09-15T12:53:02Z</time>
      </trkpt>
      <trkpt lat="40.251833" lon="-4.950967">
        <ele>2048.0</ele>
        <time>2018-09-15T12:53:03Z</time>
      </trkpt>
      <trkpt lat="40.251750" lon="-4.951000">
        <ele>2049.0</ele>
        <time>2018-09-15T12:53:04Z</time>
      </trkpt>
      <trkpt lat="40.251667" lon="-4.951033">
        <ele>2050.0</ele>
        <time>2018-09-15T12:53:05Z</time>
      </trkpt>
      <trkpt lat="40.251600" lon="-4.951083">
        <ele>2050.0</ele>
        <time>2018-09-15T12:53:06Z</time>
      </trkpt>
      <trkpt lat="40.251517" lon="-4.951133">
        <ele>2049.0</ele>
        <time>2018-09-15T12:53:07Z</time>
      </trkpt>
      <trkpt lat="40.251433" lon="-4.951183">
        <ele>2049.0</ele>
        <time>2018-09-15T12:53:08Z</time>
      </trkpt>
      <trkpt lat="40.251350" lon="-4.951233">
        <ele>2049.0</ele>
        <time>2018-09-15T12:53:09Z</time>
      </trkpt>
      <trkpt lat="40.251267" lon="-4.951283">
        <ele>2049.0</ele>
        <time>2018-09-15T12:53:10Z</time>
      </trkpt>
      <trkpt lat="40.251183" lon="-4.951333">
        <ele>2049.0</ele>
        <time>2018-09-15T12:53:11Z</time>
      </trkpt>
      <trkpt lat="40.251100" lon="-4.951383">
        <ele>2049.0</ele>
        <time>2018-09-15T12:53:12Z</time>
      </trkpt>
      <trkpt lat="40.251017" lon="-4.951433">
        <ele>2049.0</ele>
        <time>2018-09-15T12:53:13Z</time>
      </trkpt>
      <trkpt lat="40.250933" lon="-4.951483">
        <ele>2048.0</ele>
        <time>2018-09-15T12:53:14Z</time>
      </trkpt>
      <trkpt lat="40.250833" lon="-4.951533">
        <ele>2046.0</ele>
        <time>2018-09-15T12:53:15Z</time>
      </trkpt>
      <trkpt lat="40.250750" lon="-4.951567">
        <ele>2045.0</ele>
        <time>2018-09-15T12:53:16Z</time>
      </trkpt>
      <trkpt lat="40.250650" lon="-4.951600">
        <ele>2045.0</ele>
        <time>2018-09-15T12:53:17Z</time>
      </trkpt>
      <trkpt lat="40.250567" lon="-4.951633">
        <ele>2044.0</ele>
        <time>2018-09-15T12:53:18Z</time>
      </trkpt>
      <trkpt lat="40.250483" lon="-4.951650">
        <ele>2043.0</ele>
        <time>2018-09-15T12:53:19Z</time>
      </trkpt>
      <trkpt lat="40.250383" lon="-4.951683">
        <ele>2042.0</ele>
        <time>2018-09-15T12:53:20Z</time>
      </trkpt>
      <trkpt lat="40.250300" lon="-4.951733">
        <ele>2040.0</ele>
        <time>2018-09-15T12:53:21Z</time>
      </trkpt>
      <trkpt lat="40.250200" lon="-4.951767">
        <ele>2038.0</ele>
        <time>2018-09-15T12:53:22Z</time>
      </trkpt>
      <trkpt lat="40.250100" lon="-4.951783">
        <ele>2038.0</ele>
        <time>2018-09-15T12:53:23Z</time>
      </trkpt>
      <trkpt lat="40.250000" lon="-4.951817">
        <ele>2038.0</ele>
        <time>2018-09-15T12:53:24Z</time>
      </trkpt>
      <trkpt lat="40.249917" lon="-4.951850">
        <ele>2038.0</ele>
        <time>2018-09-15T12:53:25Z</time>
      </trkpt>
      <trkpt lat="40.249850" lon="-4.951883">
        <ele>2037.0</ele>
        <time>2018-09-15T12:53:26Z</time>
      </trkpt>
      <trkpt lat="40.249767" lon="-4.951933">
        <ele>2036.0</ele>
        <time>2018-09-15T12:53:27Z</time>
      </trkpt>
      <trkpt lat="40.249700" lon="-4.951983">
        <ele>2034.0</ele>
        <time>2018-09-15T12:53:28Z</time>
      </trkpt>
      <trkpt lat="40.249617" lon="-4.952017">
        <ele>2031.0</ele>
        <time>2018-09-15T12:53:29Z</time>
      </trkpt>
      <trkpt lat="40.249517" lon="-4.952050">
        <ele>2029.0</ele>
        <time>2018-09-15T12:53:30Z</time>
      </trkpt>
      <trkpt lat="40.249417" lon="-4.952083">
        <ele>2028.0</ele>
        <time>2018-09-15T12:53:31Z</time>
      </trkpt>
      <trkpt lat="40.249317" lon="-4.952133">
        <ele>2027.0</ele>
        <time>2018-09-15T12:53:32Z</time>
      </trkpt>
      <trkpt lat="40.249217" lon="-4.952183">
        <ele>2027.0</ele>
        <time>2018-09-15T12:53:33Z</time>
      </trkpt>
      <trkpt lat="40.249100" lon="-4.952200">
        <ele>2028.0</ele>
        <time>2018-09-15T12:53:34Z</time>
      </trkpt>
      <trkpt lat="40.249017" lon="-4.952217">
        <ele>2029.0</ele>
        <time>2018-09-15T12:53:35Z</time>
      </trkpt>
      <trkpt lat="40.248917" lon="-4.952250">
        <ele>2030.0</ele>
        <time>2018-09-15T12:53:36Z</time>
      </trkpt>
      <trkpt lat="40.248833" lon="-4.952283">
        <ele>2031.0</ele>
        <time>2018-09-15T12:53:37Z</time>
      </trkpt>
      <trkpt lat="40.248750" lon="-4.952317">
        <ele>2032.0</ele>
        <time>2018-09-15T12:53:38Z</time>
      </trkpt>
      <trkpt lat="40.248667" lon="-4.952350">
        <ele>2033.0</ele>
        <time>2018-09-15T12:53:39Z</time>
      </trkpt>
      <trkpt lat="40.248567" lon="-4.952383">
        <ele>2035.0</ele>
        <time>2018-09-15T12:53:40Z</time>
      </trkpt>
      <trkpt lat="40.248483" lon="-4.952417">
        <ele>2037.0</ele>
        <time>2018-09-15T12:53:41Z</time>
      </trkpt>
      <trkpt lat="40.248400" lon="-4.952450">
        <ele>2038.0</ele>
        <time>2018-09-15T12:53:42Z</time>
      </trkpt>
      <trkpt lat="40.248317" lon="-4.952483">
        <ele>2039.0</ele>
        <time>2018-09-15T12:53:43Z</time>
      </trkpt>
      <trkpt lat="40.248233" lon="-4.952517">
        <ele>2040.0</ele>
        <time>2018-09-15T12:53:44Z</time>
      </trkpt>
      <trkpt lat="40.248133" lon="-4.952550">
        <ele>2041.0</ele>
        <time>2018-09-15T12:53:45Z</time>
      </trkpt>
      <trkpt lat="40.248050" lon="-4.952567">
        <ele>2043.0</ele>
        <time>2018-09-15T12:53:46Z</time>
      </trkpt>
      <trkpt lat="40.247967" lon="-4.952583">
        <ele>2045.0</ele>
        <time>2018-09-15T12:53:47Z</time>
      </trkpt>
      <trkpt lat="40.247867" lon="-4.952583">
        <ele>2046.0</ele>
        <time>2018-09-15T12:53:48Z</time>
      </trkpt>
      <trkpt lat="40.247783" lon="-4.952600">
        <ele>2048.0</ele>
        <time>2018-09-15T12:53:49Z</time>
      </trkpt>
      <trkpt lat="40.247700" lon="-4.952633">
        <ele>2050.0</ele>
        <time>2018-09-15T12:53:50Z</time>
      </trkpt>
      <trkpt lat="40.247617" lon="-4.952667">
        <ele>2052.0</ele>
        <time>2018-09-15T12:53:51Z</time>
      </trkpt>
      <trkpt lat="40.247533" lon="-4.952683">
        <ele>2053.0</ele>
        <time>2018-09-15T12:53:52Z</time>
      </trkpt>
      <trkpt lat="40.247467" lon="-4.952683">
        <ele>2053.0</ele>
        <time>2018-09-15T12:53:53Z</time>
      </trkpt>
      <trkpt lat="40.247367" lon="-4.952683">
        <ele>2054.0</ele>
        <time>2018-09-15T12:53:54Z</time>
      </trkpt>
      <trkpt lat="40.247283" lon="-4.952683">
        <ele>2054.0</ele>
        <time>2018-09-15T12:53:55Z</time>
      </trkpt>
      <trkpt lat="40.247200" lon="-4.952667">
        <ele>2055.0</ele>
        <time>2018-09-15T12:53:56Z</time>
      </trkpt>
      <trkpt lat="40.247117" lon="-4.952633">
        <ele>2057.0</ele>
        <time>2018-09-15T12:53:57Z</time>
      </trkpt>
      <trkpt lat="40.247067" lon="-4.952567">
        <ele>2059.0</ele>
        <time>2018-09-15T12:53:58Z</time>
      </trkpt>
      <trkpt lat="40.247033" lon="-4.952500">
        <ele>2060.0</ele>
        <time>2018-09-15T12:53:59Z</time>
      </trkpt>
      <trkpt lat="40.247033" lon="-4.952417">
        <ele>2061.0</ele>
        <time>2018-09-15T12:54:00Z</time>
      </trkpt>
      <trkpt lat="40.247067" lon="-4.952317">
        <ele>2061.0</ele>
        <time>2018-09-15T12:54:01Z</time>
      </trkpt>
      <trkpt lat="40.247117" lon="-4.952233">
        <ele>2061.0</ele>
        <time>2018-09-15T12:54:02Z</time>
      </trkpt>
      <trkpt lat="40.247200" lon="-4.952167">
        <ele>2061.0</ele>
        <time>2018-09-15T12:54:03Z</time>
      </trkpt>
      <trkpt lat="40.247300" lon="-4.952133">
        <ele>2062.0</ele>
        <time>2018-09-15T12:54:04Z</time>
      </trkpt>
      <trkpt lat="40.247417" lon="-4.952167">
        <ele>2063.0</ele>
        <time>2018-09-15T12:54:05Z</time>
      </trkpt>
      <trkpt lat="40.247533" lon="-4.952233">
        <ele>2066.0</ele>
        <time>2018-09-15T12:54:06Z</time>
      </trkpt>
      <trkpt lat="40.247617" lon="-4.952317">
        <ele>2069.0</ele>
        <time>2018-09-15T12:54:07Z</time>
      </trkpt>
      <trkpt lat="40.247683" lon="-4.952433">
        <ele>2073.0</ele>
        <time>2018-09-15T12:54:08Z</time>
      </trkpt>
      <trkpt lat="40.247733" lon="-4.952533">
        <ele>2076.0</ele>
        <time>2018-09-15T12:54:09Z</time>
      </trkpt>
      <trkpt lat="40.247767" lon="-4.952650">
        <ele>2077.0</ele>
        <time>2018-09-15T12:54:10Z</time>
      </trkpt>
      <trkpt lat="40.247800" lon="-4.952783">
        <ele>2077.0</ele>
        <time>2018-09-15T12:54:11Z</time>
      </trkpt>
      <trkpt lat="40.247817" lon="-4.952917">
        <ele>2077.0</ele>
        <time>2018-09-15T12:54:12Z</time>
      </trkpt>
      <trkpt lat="40.247817" lon="-4.953083">
        <ele>2077.0</ele>
        <time>2018-09-15T12:54:13Z</time>
      </trkpt>
      <trkpt lat="40.247800" lon="-4.953250">
        <ele>2077.0</ele>
        <time>2018-09-15T12:54:14Z</time>
      </trkpt>
      <trkpt lat="40.247767" lon="-4.953383">
        <ele>2079.0</ele>
        <time>2018-09-15T12:54:15Z</time>
      </trkpt>
      <trkpt lat="40.247700" lon="-4.953483">
        <ele>2081.0</ele>
        <time>2018-09-15T12:54:16Z</time>
      </trkpt>
      <trkpt lat="40.247650" lon="-4.953583">
        <ele>2083.0</ele>
        <time>2018-09-15T12:54:17Z</time>
      </trkpt>
      <trkpt lat="40.247600" lon="-4.953667">
        <ele>2084.0</ele>
        <time>2018-09-15T12:54:18Z</time>
      </trkpt>
      <trkpt lat="40.247550" lon="-4.953767">
        <ele>2084.0</ele>
        <time>2018-09-15T12:54:19Z</time>
      </trkpt>
      <trkpt lat="40.247500" lon="-4.953850">
        <ele>2084.0</ele>
        <time>2018-09-15T12:54:20Z</time>
      </trkpt>
      <trkpt lat="40.247433" lon="-4.953917">
        <ele>2084.0</ele>
        <time>2018-09-15T12:54:21Z</time>
      </trkpt>
      <trkpt lat="40.247350" lon="-4.953983">
        <ele>2083.0</ele>
        <time>2018-09-15T12:54:22Z</time>
      </trkpt>
      <trkpt lat="40.247267" lon="-4.954000">
        <ele>2082.0</ele>
        <time>2018-09-15T12:54:23Z</time>
      </trkpt>
      <trkpt lat="40.247167" lon="-4.954017">
        <ele>2082.0</ele>
        <time>2018-09-15T12:54:24Z</time>
      </trkpt>
      <trkpt lat="40.247083" lon="-4.954017">
        <ele>2082.0</ele>
        <time>2018-09-15T12:54:25Z</time>
      </trkpt>
      <trkpt lat="40.247000" lon="-4.954000">
        <ele>2083.0</ele>
        <time>2018-09-15T12:54:26Z</time>
      </trkpt>
      <trkpt lat="40.246933" lon="-4.953967">
        <ele>2083.0</ele>
        <time>2018-09-15T12:54:27Z</time>
      </trkpt>
      <trkpt lat="40.246867" lon="-4.953933">
        <ele>2083.0</ele>
        <time>2018-09-15T12:54:28Z</time>
      </trkpt>
      <trkpt lat="40.246817" lon="-4.953867">
        <ele>2083.0</ele>
        <time>2018-09-15T12:54:29Z</time>
      </trkpt>
      <trkpt lat="40.246767" lon="-4.953817">
        <ele>2083.0</ele>
        <time>2018-09-15T12:54:30Z</time>
      </trkpt>
      <trkpt lat="40.246717" lon="-4.953750">
        <ele>2082.0</ele>
        <time>2018-09-15T12:54:31Z</time>
      </trkpt>
      <trkpt lat="40.246683" lon="-4.953683">
        <ele>2082.0</ele>
        <time>2018-09-15T12:54:32Z</time>
      </trkpt>
      <trkpt lat="40.246633" lon="-4.953617">
        <ele>2081.0</ele>
        <time>2018-09-15T12:54:33Z</time>
      </trkpt>
      <trkpt lat="40.246583" lon="-4.953517">
        <ele>2080.0</ele>
        <time>2018-09-15T12:54:34Z</time>
      </trkpt>
      <trkpt lat="40.246550" lon="-4.953417">
        <ele>2080.0</ele>
        <time>2018-09-15T12:54:35Z</time>
      </trkpt>
      <trkpt lat="40.246533" lon="-4.953317">
        <ele>2081.0</ele>
        <time>2018-09-15T12:54:36Z</time>
      </trkpt>
      <trkpt lat="40.246517" lon="-4.953233">
        <ele>2082.0</ele>
        <time>2018-09-15T12:54:37Z</time>
      </trkpt>
      <trkpt lat="40.246500" lon="-4.953150">
        <ele>2082.0</ele>
        <time>2018-09-15T12:54:38Z</time>
      </trkpt>
      <trkpt lat="40.246483" lon="-4.953083">
        <ele>2083.0</ele>
        <time>2018-09-15T12:54:39Z</time>
      </trkpt>
      <trkpt lat="40.246467" lon="-4.953000">
        <ele>2082.0</ele>
        <time>2018-09-15T12:54:40Z</time>
      </trkpt>
      <trkpt lat="40.246467" lon="-4.952917">
        <ele>2081.0</ele>
        <time>2018-09-15T12:54:41Z</time>
      </trkpt>
      <trkpt lat="40.246467" lon="-4.952817">
        <ele>2081.0</ele>
        <time>2018-09-15T12:54:42Z</time>
      </trkpt>
      <trkpt lat="40.246483" lon="-4.952733">
        <ele>2081.0</ele>
        <time>2018-09-15T12:54:43Z</time>
      </trkpt>
      <trkpt lat="40.246500" lon="-4.952650">
        <ele>2082.0</ele>
        <time>2018-09-15T12:54:44Z</time>
      </trkpt>
      <trkpt lat="40.246517" lon="-4.952567">
        <ele>2082.0</ele>
        <time>2018-09-15T12:54:45Z</time>
      </trkpt>
      <trkpt lat="40.246550" lon="-4.952483">
        <ele>2081.0</ele>
        <time>2018-09-15T12:54:46Z</time>
      </trkpt>
      <trkpt lat="40.246600" lon="-4.952383">
        <ele>2081.0</ele>
        <time>2018-09-15T12:54:47Z</time>
      </trkpt>
      <trkpt lat="40.246667" lon="-4.952300">
        <ele>2080.0</ele>
        <time>2018-09-15T12:54:48Z</time>
      </trkpt>
      <trkpt lat="40.246750" lon="-4.952233">
        <ele>2079.0</ele>
        <time>2018-09-15T12:54:49Z</time>
      </trkpt>
      <trkpt lat="40.246850" lon="-4.952183">
        <ele>2078.0</ele>
        <time>2018-09-15T12:54:50Z</time>
      </trkpt>
      <trkpt lat="40.246950" lon="-4.952167">
        <ele>2078.0</ele>
        <time>2018-09-15T12:54:51Z</time>
      </trkpt>
      <trkpt lat="40.247067" lon="-4.952167">
        <ele>2077.0</ele>
        <time>2018-09-15T12:54:52Z</time>
      </trkpt>
      <trkpt lat="40.247167" lon="-4.952217">
        <ele>2076.0</ele>
        <time>2018-09-15T12:54:53Z</time>
      </trkpt>
      <trkpt lat="40.247283" lon="-4.952283">
        <ele>2075.0</ele>
        <time>2018-09-15T12:54:54Z</time>
      </trkpt>
      <trkpt lat="40.247367" lon="-4.952400">
        <ele>2074.0</ele>
        <time>2018-09-15T12:54:55Z</time>
      </trkpt>
      <trkpt lat="40.247433" lon="-4.952533">
        <ele>2073.0</ele>
        <time>2018-09-15T12:54:56Z</time>
      </trkpt>
      <trkpt lat="40.247483" lon="-4.952667">
        <ele>2072.0</ele>
        <time>2018-09-15T12:54:57Z</time>
      </trkpt>
      <trkpt lat="40.247517" lon="-4.952800">
        <ele>2072.0</ele>
        <time>2018-09-15T12:54:58Z</time>
      </trkpt>
      <trkpt lat="40.247517" lon="-4.952933">
        <ele>2071.0</ele>
        <time>2018-09-15T12:54:59Z</time>
      </trkpt>
      <trkpt lat="40.247500" lon="-4.953067">
        <ele>2070.0</ele>
        <time>2018-09-15T12:55:00Z</time>
      </trkpt>
      <trkpt lat="40.247467" lon="-4.953183">
        <ele>2069.0</ele>
        <time>2018-09-15T12:55:01Z</time>
      </trkpt>
      <trkpt lat="40.247433" lon="-4.953300">
        <ele>2069.0</ele>
        <time>2018-09-15T12:55:02Z</time>
      </trkpt>
      <trkpt lat="40.247383" lon="-4.953400">
        <ele>2068.0</ele>
        <time>2018-09-15T12:55:03Z</time>
      </trkpt>
      <trkpt lat="40.247333" lon="-4.953500">
        <ele>2068.0</ele>
        <time>2018-09-15T12:55:04Z</time>
      </trkpt>
      <trkpt lat="40.247267" lon="-4.953583">
        <ele>2068.0</ele>
        <time>2018-09-15T12:55:05Z</time>
      </trkpt>
      <trkpt lat="40.247217" lon="-4.953683">
        <ele>2068.0</ele>
        <time>2018-09-15T12:55:06Z</time>
      </trkpt>
      <trkpt lat="40.247167" lon="-4.953783">
        <ele>2067.0</ele>
        <time>2018-09-15T12:55:07Z</time>
      </trkpt>
      <trkpt lat="40.247117" lon="-4.953867">
        <ele>2067.0</ele>
        <time>2018-09-15T12:55:08Z</time>
      </trkpt>
      <trkpt lat="40.247067" lon="-4.953967">
        <ele>2066.0</ele>
        <time>2018-09-15T12:55:09Z</time>
      </trkpt>
      <trkpt lat="40.247000" lon="-4.954067">
        <ele>2066.0</ele>
        <time>2018-09-15T12:55:10Z</time>
      </trkpt>
      <trkpt lat="40.246967" lon="-4.954167">
        <ele>2066.0</ele>
        <time>2018-09-15T12:55:11Z</time>
      </trkpt>
      <trkpt lat="40.246917" lon="-4.954267">
        <ele>2065.0</ele>
        <time>2018-09-15T12:55:12Z</time>
      </trkpt>
      <trkpt lat="40.246883" lon="-4.954383">
        <ele>2063.0</ele>
        <time>2018-09-15T12:55:13Z</time>
      </trkpt>
      <trkpt lat="40.246833" lon="-4.954500">
        <ele>2062.0</ele>
        <time>2018-09-15T12:55:14Z</time>
      </trkpt>
      <trkpt lat="40.246783" lon="-4.954617">
        <ele>2061.0</ele>
        <time>2018-09-15T12:55:15Z</time>
      </trkpt>
      <trkpt lat="40.246750" lon="-4.954717">
        <ele>2061.0</ele>
        <time>2018-09-15T12:55:16Z</time>
      </trkpt>
      <trkpt lat="40.246683" lon="-4.954817">
        <ele>2060.0</ele>
        <time>2018-09-15T12:55:17Z</time>
      </trkpt>
      <trkpt lat="40.246633" lon="-4.954883">
        <ele>2058.0</ele>
        <time>2018-09-15T12:55:18Z</time>
      </trkpt>
      <trkpt lat="40.246567" lon="-4.954967">
        <ele>2057.0</ele>
        <time>2018-09-15T12:55:19Z</time>
      </trkpt>
      <trkpt lat="40.246517" lon="-4.955033">
        <ele>2057.0</ele>
        <time>2018-09-15T12:55:20Z</time>
      </trkpt>
      <trkpt lat="40.246467" lon="-4.955100">
        <ele>2056.0</ele>
        <time>2018-09-15T12:55:21Z</time>
      </trkpt>
      <trkpt lat="40.246417" lon="-4.955150">
        <ele>2054.0</ele>
        <time>2018-09-15T12:55:22Z</time>
      </trkpt>
      <trkpt lat="40.246350" lon="-4.955183">
        <ele>2052.0</ele>
        <time>2018-09-15T12:55:23Z</time>
      </trkpt>
      <trkpt lat="40.246267" lon="-4.955217">
        <ele>2051.0</ele>
        <time>2018-09-15T12:55:24Z</time>
      </trkpt>
      <trkpt lat="40.246200" lon="-4.955217">
        <ele>2050.0</ele>
        <time>2018-09-15T12:55:25Z</time>
      </trkpt>
      <trkpt lat="40.246133" lon="-4.955217">
        <ele>2050.0</ele>
        <time>2018-09-15T12:55:26Z</time>
      </trkpt>
      <trkpt lat="40.246067" lon="-4.955217">
        <ele>2051.0</ele>
        <time>2018-09-15T12:55:27Z</time>
      </trkpt>
      <trkpt lat="40.246017" lon="-4.955217">
        <ele>2050.0</ele>
        <time>2018-09-15T12:55:28Z</time>
      </trkpt>
      <trkpt lat="40.245950" lon="-4.955233">
        <ele>2049.0</ele>
        <time>2018-09-15T12:55:29Z</time>
      </trkpt>
      <trkpt lat="40.245883" lon="-4.955250">
        <ele>2047.0</ele>
        <time>2018-09-15T12:55:30Z</time>
      </trkpt>
      <trkpt lat="40.245817" lon="-4.955300">
        <ele>2045.0</ele>
        <time>2018-09-15T12:55:31Z</time>
      </trkpt>
      <trkpt lat="40.245750" lon="-4.955333">
        <ele>2043.0</ele>
        <time>2018-09-15T12:55:32Z</time>
      </trkpt>
      <trkpt lat="40.245683" lon="-4.955383">
        <ele>2041.0</ele>
        <time>2018-09-15T12:55:33Z</time>
      </trkpt>
      <trkpt lat="40.245617" lon="-4.955450">
        <ele>2040.0</ele>
        <time>2018-09-15T12:55:34Z</time>
      </trkpt>
      <trkpt lat="40.245550" lon="-4.955517">
        <ele>2038.0</ele>
        <time>2018-09-15T12:55:35Z</time>
      </trkpt>
      <trkpt lat="40.245467" lon="-4.955583">
        <ele>2036.0</ele>
        <time>2018-09-15T12:55:36Z</time>
      </trkpt>
      <trkpt lat="40.245400" lon="-4.955700">
        <ele>2033.0</ele>
        <time>2018-09-15T12:55:37Z</time>
      </trkpt>
      <trkpt lat="40.245333" lon="-4.955800">
        <ele>2031.0</ele>
        <time>2018-09-15T12:55:38Z</time>
      </trkpt>
      <trkpt lat="40.245283" lon="-4.955917">
        <ele>2030.0</ele>
        <time>2018-09-15T12:55:39Z</time>
      </trkpt>
      <trkpt lat="40.245217" lon="-4.956017">
        <ele>2029.0</ele>
        <time>2018-09-15T12:55:40Z</time>
      </trkpt>
      <trkpt lat="40.245167" lon="-4.956117">
        <ele>2027.0</ele>
        <time>2018-09-15T12:55:41Z</time>
      </trkpt>
      <trkpt lat="40.245133" lon="-4.956217">
        <ele>2024.0</ele>
        <time>2018-09-15T12:55:42Z</time>
      </trkpt>
      <trkpt lat="40.245083" lon="-4.956333">
        <ele>2021.0</ele>
        <time>2018-09-15T12:55:43Z</time>
      </trkpt>
      <trkpt lat="40.245033" lon="-4.956467">
        <ele>2018.0</ele>
        <time>2018-09-15T12:55:44Z</time>
      </trkpt>
      <trkpt lat="40.244983" lon="-4.956600">
        <ele>2016.0</ele>
        <time>2018-09-15T12:55:45Z</time>
      </trkpt>
      <trkpt lat="40.244933" lon="-4.956750">
        <ele>2014.0</ele>
        <time>2018-09-15T12:55:46Z</time>
      </trkpt>
      <trkpt lat="40.244883" lon="-4.956883">
        <ele>2012.0</ele>
        <time>2018-09-15T12:55:47Z</time>
      </trkpt>
      <trkpt lat="40.244833" lon="-4.957000">
        <ele>2011.0</ele>
        <time>2018-09-15T12:55:48Z</time>
      </trkpt>
      <trkpt lat="40.244783" lon="-4.957150">
        <ele>2009.0</ele>
        <time>2018-09-15T12:55:49Z</time>
      </trkpt>
      <trkpt lat="40.244733" lon="-4.957283">
        <ele>2007.0</ele>
        <time>2018-09-15T12:55:50Z</time>
      </trkpt>
      <trkpt lat="40.244700" lon="-4.957417">
        <ele>2005.0</ele>
        <time>2018-09-15T12:55:51Z</time>
      </trkpt>
      <trkpt lat="40.244650" lon="-4.957567">
        <ele>2003.0</ele>
        <time>2018-09-15T12:55:52Z</time>
      </trkpt>
      <trkpt lat="40.244600" lon="-4.957700">
        <ele>2001.0</ele>
        <time>2018-09-15T12:55:53Z</time>
      </trkpt>
      <trkpt lat="40.244550" lon="-4.957833">
        <ele>2000.0</ele>
        <time>2018-09-15T12:55:54Z</time>
      </trkpt>
      <trkpt lat="40.244500" lon="-4.957967">
        <ele>1999.0</ele>
        <time>2018-09-15T12:55:55Z</time>
      </trkpt>
      <trkpt lat="40.244450" lon="-4.958100">
        <ele>1997.0</ele>
        <time>2018-09-15T12:55:56Z</time>
      </trkpt>
      <trkpt lat="40.244400" lon="-4.958233">
        <ele>1995.0</ele>
        <time>2018-09-15T12:55:57Z</time>
      </trkpt>
      <trkpt lat="40.244333" lon="-4.958383">
        <ele>1993.0</ele>
        <time>2018-09-15T12:55:58Z</time>
      </trkpt>
      <trkpt lat="40.244300" lon="-4.958533">
        <ele>1991.0</ele>
        <time>2018-09-15T12:55:59Z</time>
      </trkpt>
      <trkpt lat="40.244233" lon="-4.958667">
        <ele>1990.0</ele>
        <time>2018-09-15T12:56:00Z</time>
      </trkpt>
      <trkpt lat="40.244183" lon="-4.958800">
        <ele>1989.0</ele>
        <time>2018-09-15T12:56:01Z</time>
      </trkpt>
      <trkpt lat="40.244133" lon="-4.958933">
        <ele>1988.0</ele>
        <time>2018-09-15T12:56:02Z</time>
      </trkpt>
      <trkpt lat="40.244083" lon="-4.959067">
        <ele>1987.0</ele>
        <time>2018-09-15T12:56:03Z</time>
      </trkpt>
      <trkpt lat="40.244033" lon="-4.959200">
        <ele>1984.0</ele>
        <time>2018-09-15T12:56:04Z</time>
      </trkpt>
      <trkpt lat="40.243967" lon="-4.959333">
        <ele>1982.0</ele>
        <time>2018-09-15T12:56:05Z</time>
      </trkpt>
      <trkpt lat="40.243917" lon="-4.959467">
        <ele>1980.0</ele>
        <time>2018-09-15T12:56:06Z</time>
      </trkpt>
      <trkpt lat="40.243850" lon="-4.959600">
        <ele>1978.0</ele>
        <time>2018-09-15T12:56:07Z</time>
      </trkpt>
      <trkpt lat="40.243767" lon="-4.959717">
        <ele>1976.0</ele>
        <time>2018-09-15T12:56:08Z</time>
      </trkpt>
      <trkpt lat="40.243700" lon="-4.959817">
        <ele>1974.0</ele>
        <time>2018-09-15T12:56:09Z</time>
      </trkpt>
      <trkpt lat="40.243617" lon="-4.959917">
        <ele>1972.0</ele>
        <time>2018-09-15T12:56:10Z</time>
      </trkpt>
      <trkpt lat="40.243533" lon="-4.960017">
        <ele>1970.0</ele>
        <time>2018-09-15T12:56:11Z</time>
      </trkpt>
      <trkpt lat="40.243467" lon="-4.960117">
        <ele>1967.0</ele>
        <time>2018-09-15T12:56:12Z</time>
      </trkpt>
      <trkpt lat="40.243400" lon="-4.960233">
        <ele>1964.0</ele>
        <time>2018-09-15T12:56:13Z</time>
      </trkpt>
      <trkpt lat="40.243317" lon="-4.960350">
        <ele>1962.0</ele>
        <time>2018-09-15T12:56:14Z</time>
      </trkpt>
      <trkpt lat="40.243250" lon="-4.960467">
        <ele>1960.0</ele>
        <time>2018-09-15T12:56:15Z</time>
      </trkpt>
      <trkpt lat="40.243167" lon="-4.960583">
        <ele>1958.0</ele>
        <time>2018-09-15T12:56:16Z</time>
      </trkpt>
      <trkpt lat="40.243100" lon="-4.960683">
        <ele>1956.0</ele>
        <time>2018-09-15T12:56:17Z</time>
      </trkpt>
      <trkpt lat="40.243017" lon="-4.960783">
        <ele>1953.0</ele>
        <time>2018-09-15T12:56:18Z</time>
      </trkpt>
      <trkpt lat="40.242950" lon="-4.960900">
        <ele>1949.0</ele>
        <time>2018-09-15T12:56:19Z</time>
      </trkpt>
      <trkpt lat="40.242867" lon="-4.961033">
        <ele>1946.0</ele>
        <time>2018-09-15T12:56:20Z</time>
      </trkpt>
      <trkpt lat="40.242800" lon="-4.961150">
        <ele>1943.0</ele>
        <time>2018-09-15T12:56:21Z</time>
      </trkpt>
      <trkpt lat="40.242717" lon="-4.961267">
        <ele>1941.0</ele>
        <time>2018-09-15T12:56:22Z</time>
      </trkpt>
      <trkpt lat="40.242633" lon="-4.961383">
        <ele>1939.0</ele>
        <time>2018-09-15T12:56:23Z</time>
      </trkpt>
      <trkpt lat="40.242567" lon="-4.961500">
        <ele>1936.0</ele>
        <time>2018-09-15T12:56:24Z</time>
      </trkpt>
      <trkpt lat="40.242483" lon="-4.961600">
        <ele>1933.0</ele>
        <time>2018-09-15T12:56:25Z</time>
      </trkpt>
      <trkpt lat="40.242417" lon="-4.961700">
        <ele>1930.0</ele>
        <time>2018-09-15T12:56:26Z</time>
      </trkpt>
      <trkpt lat="40.242333" lon="-4.961800">
        <ele>1926.0</ele>
        <time>2018-09-15T12:56:27Z</time>
      </trkpt>
      <trkpt lat="40.242233" lon="-4.961883">
        <ele>1923.0</ele>
        <time>2018-09-15T12:56:28Z</time>
      </trkpt>
      <trkpt lat="40.242150" lon="-4.961983">
        <ele>1920.0</ele>
        <time>2018-09-15T12:56:29Z</time>
      </trkpt>
      <trkpt lat="40.242050" lon="-4.962067">
        <ele>1918.0</ele>
        <time>2018-09-15T12:56:30Z</time>
      </trkpt>
      <trkpt lat="40.241967" lon="-4.962167">
        <ele>1916.0</ele>
        <time>2018-09-15T12:56:31Z</time>
      </trkpt>
      <trkpt lat="40.241883" lon="-4.962250">
        <ele>1914.0</ele>
        <time>2018-09-15T12:56:32Z</time>
      </trkpt>
      <trkpt lat="40.241800" lon="-4.962333">
        <ele>1912.0</ele>
        <time>2018-09-15T12:56:33Z</time>
      </trkpt>
      <trkpt lat="40.241733" lon="-4.962433">
        <ele>1908.0</ele>
        <time>2018-09-15T12:56:34Z</time>
      </trkpt>
      <trkpt lat="40.241650" lon="-4.962533">
        <ele>1904.0</ele>
        <time>2018-09-15T12:56:35Z</time>
      </trkpt>
      <trkpt lat="40.241567" lon="-4.962650">
        <ele>1900.0</ele>
        <time>2018-09-15T12:56:36Z</time>
      </trkpt>
      <trkpt lat="40.241467" lon="-4.962767">
        <ele>1897.0</ele>
        <time>2018-09-15T12:56:37Z</time>
      </trkpt>
      <trkpt lat="40.241383" lon="-4.962883">
        <ele>1894.0</ele>
        <time>2018-09-15T12:56:38Z</time>
      </trkpt>
      <trkpt lat="40.241300" lon="-4.962983">
        <ele>1892.0</ele>
        <time>2018-09-15T12:56:39Z</time>
      </trkpt>
      <trkpt lat="40.241200" lon="-4.963067">
        <ele>1890.0</ele>
        <time>2018-09-15T12:56:40Z</time>
      </trkpt>
      <trkpt lat="40.241117" lon="-4.963167">
        <ele>1887.0</ele>
        <time>2018-09-15T12:56:41Z</time>
      </trkpt>
      <trkpt lat="40.241017" lon="-4.963250">
        <ele>1884.0</ele>
        <time>2018-09-15T12:56:42Z</time>
      </trkpt>
      <trkpt lat="40.240917" lon="-4.963317">
        <ele>1880.0</ele>
        <time>2018-09-15T12:56:43Z</time>
      </trkpt>
      <trkpt lat="40.240817" lon="-4.963383">
        <ele>1878.0</ele>
        <time>2018-09-15T12:56:44Z</time>
      </trkpt>
      <trkpt lat="40.240717" lon="-4.963450">
        <ele>1876.0</ele>
        <time>2018-09-15T12:56:45Z</time>
      </trkpt>
      <trkpt lat="40.240617" lon="-4.963517">
        <ele>1875.0</ele>
        <time>2018-09-15T12:56:46Z</time>
      </trkpt>
      <trkpt lat="40.240517" lon="-4.963567">
        <ele>1874.0</ele>
        <time>2018-09-15T12:56:47Z</time>
      </trkpt>
      <trkpt lat="40.240433" lon="-4.963617">
        <ele>1872.0</ele>
        <time>2018-09-15T12:56:48Z</time>
      </trkpt>
      <trkpt lat="40.240333" lon="-4.963683">
        <ele>1869.0</ele>
        <time>2018-09-15T12:56:49Z</time>
      </trkpt>
      <trkpt lat="40.240233" lon="-4.963767">
        <ele>1866.0</ele>
        <time>2018-09-15T12:56:50Z</time>
      </trkpt>
      <trkpt lat="40.240117" lon="-4.963850">
        <ele>1864.0</ele>
        <time>2018-09-15T12:56:51Z</time>
      </trkpt>
      <trkpt lat="40.240017" lon="-4.963950">
        <ele>1862.0</ele>
        <time>2018-09-15T12:56:52Z</time>
      </trkpt>
      <trkpt lat="40.239900" lon="-4.964033">
        <ele>1862.0</ele>
        <time>2018-09-15T12:56:53Z</time>
      </trkpt>
      <trkpt lat="40.239800" lon="-4.964133">
        <ele>1861.0</ele>
        <time>2018-09-15T12:56:54Z</time>
      </trkpt>
      <trkpt lat="40.239700" lon="-4.964217">
        <ele>1860.0</ele>
        <time>2018-09-15T12:56:55Z</time>
      </trkpt>
      <trkpt lat="40.239600" lon="-4.964300">
        <ele>1858.0</ele>
        <time>2018-09-15T12:56:56Z</time>
      </trkpt>
      <trkpt lat="40.239500" lon="-4.964400">
        <ele>1855.0</ele>
        <time>2018-09-15T12:56:57Z</time>
      </trkpt>
      <trkpt lat="40.239400" lon="-4.964500">
        <ele>1852.0</ele>
        <time>2018-09-15T12:56:58Z</time>
      </trkpt>
      <trkpt lat="40.239300" lon="-4.964600">
        <ele>1849.0</ele>
        <time>2018-09-15T12:56:59Z</time>
      </trkpt>
      <trkpt lat="40.239200" lon="-4.964700">
        <ele>1846.0</ele>
        <time>2018-09-15T12:57:00Z</time>
      </trkpt>
      <trkpt lat="40.239083" lon="-4.964783">
        <ele>1844.0</ele>
        <time>2018-09-15T12:57:01Z</time>
      </trkpt>
      <trkpt lat="40.238967" lon="-4.964850">
        <ele>1842.0</ele>
        <time>2018-09-15T12:57:02Z</time>
      </trkpt>
      <trkpt lat="40.238867" lon="-4.964933">
        <ele>1841.0</ele>
        <time>2018-09-15T12:57:03Z</time>
      </trkpt>
      <trkpt lat="40.238767" lon="-4.965000">
        <ele>1839.0</ele>
        <time>2018-09-15T12:57:04Z</time>
      </trkpt>
      <trkpt lat="40.238667" lon="-4.965067">
        <ele>1836.0</ele>
        <time>2018-09-15T12:57:05Z</time>
      </trkpt>
      <trkpt lat="40.238550" lon="-4.965133">
        <ele>1832.0</ele>
        <time>2018-09-15T12:57:06Z</time>
      </trkpt>
      <trkpt lat="40.238433" lon="-4.965200">
        <ele>1829.0</ele>
        <time>2018-09-15T12:57:07Z</time>
      </trkpt>
      <trkpt lat="40.238317" lon="-4.965250">
        <ele>1827.0</ele>
        <time>2018-09-15T12:57:08Z</time>
      </trkpt>
      <trkpt lat="40.238183" lon="-4.965317">
        <ele>1826.0</ele>
        <time>2018-09-15T12:57:09Z</time>
      </trkpt>
      <trkpt lat="40.238083" lon="-4.965350">
        <ele>1824.0</ele>
        <time>2018-09-15T12:57:10Z</time>
      </trkpt>
      <trkpt lat="40.237983" lon="-4.965383">
        <ele>1823.0</ele>
        <time>2018-09-15T12:57:11Z</time>
      </trkpt>
      <trkpt lat="40.237883" lon="-4.965383">
        <ele>1820.0</ele>
        <time>2018-09-15T12:57:12Z</time>
      </trkpt>
      <trkpt lat="40.237783" lon="-4.965400">
        <ele>1818.0</ele>
        <time>2018-09-15T12:57:13Z</time>
      </trkpt>
      <trkpt lat="40.237667" lon="-4.965400">
        <ele>1814.0</ele>
        <time>2018-09-15T12:57:14Z</time>
      </trkpt>
      <trkpt lat="40.237550" lon="-4.965433">
        <ele>1810.0</ele>
        <time>2018-09-15T12:57:15Z</time>
      </trkpt>
      <trkpt lat="40.237433" lon="-4.965467">
        <ele>1808.0</ele>
        <time>2018-09-15T12:57:16Z</time>
      </trkpt>
      <trkpt lat="40.237317" lon="-4.965483">
        <ele>1806.0</ele>
        <time>2018-09-15T12:57:17Z</time>
      </trkpt>
      <trkpt lat="40.237200" lon="-4.965500">
        <ele>1805.0</ele>
        <time>2018-09-15T12:57:18Z</time>
      </trkpt>
      <trkpt lat="40.237100" lon="-4.965517">
        <ele>1804.0</ele>
        <time>2018-09-15T12:57:19Z</time>
      </trkpt>
      <trkpt lat="40.237000" lon="-4.965550">
        <ele>1803.0</ele>
        <time>2018-09-15T12:57:20Z</time>
      </trkpt>
      <trkpt lat="40.236900" lon="-4.965583">
        <ele>1800.0</ele>
        <time>2018-09-15T12:57:21Z</time>
      </trkpt>
      <trkpt lat="40.236800" lon="-4.965617">
        <ele>1797.0</ele>
        <time>2018-09-15T12:57:22Z</time>
      </trkpt>
      <trkpt lat="40.236700" lon="-4.965633">
        <ele>1795.0</ele>
        <time>2018-09-15T12:57:23Z</time>
      </trkpt>
      <trkpt lat="40.236600" lon="-4.965667">
        <ele>1792.0</ele>
        <time>2018-09-15T12:57:24Z</time>
      </trkpt>
      <trkpt lat="40.236500" lon="-4.965683">
        <ele>1790.0</ele>
        <time>2018-09-15T12:57:25Z</time>
      </trkpt>
      <trkpt lat="40.236400" lon="-4.965717">
        <ele>1788.0</ele>
        <time>2018-09-15T12:57:26Z</time>
      </trkpt>
      <trkpt lat="40.236300" lon="-4.965750">
        <ele>1784.0</ele>
        <time>2018-09-15T12:57:27Z</time>
      </trkpt>
      <trkpt lat="40.236200" lon="-4.965767">
        <ele>1781.0</ele>
        <time>2018-09-15T12:57:28Z</time>
      </trkpt>
      <trkpt lat="40.236083" lon="-4.965800">
        <ele>1777.0</ele>
        <time>2018-09-15T12:57:29Z</time>
      </trkpt>
      <trkpt lat="40.235967" lon="-4.965817">
        <ele>1774.0</ele>
        <time>2018-09-15T12:57:30Z</time>
      </trkpt>
      <trkpt lat="40.235850" lon="-4.965850">
        <ele>1773.0</ele>
        <time>2018-09-15T12:57:31Z</time>
      </trkpt>
      <trkpt lat="40.235733" lon="-4.965867">
        <ele>1772.0</ele>
        <time>2018-09-15T12:57:32Z</time>
      </trkpt>
      <trkpt lat="40.235633" lon="-4.965883">
        <ele>1771.0</ele>
        <time>2018-09-15T12:57:33Z</time>
      </trkpt>
      <trkpt lat="40.235533" lon="-4.965917">
        <ele>1770.0</ele>
        <time>2018-09-15T12:57:34Z</time>
      </trkpt>
      <trkpt lat="40.235433" lon="-4.965917">
        <ele>1768.0</ele>
        <time>2018-09-15T12:57:35Z</time>
      </trkpt>
      <trkpt lat="40.235333" lon="-4.965933">
        <ele>1764.0</ele>
        <time>2018-09-15T12:57:36Z</time>
      </trkpt>
      <trkpt lat="40.235233" lon="-4.965933">
        <ele>1762.0</ele>
        <time>2018-09-15T12:57:37Z</time>
      </trkpt>
      <trkpt lat="40.235133" lon="-4.965917">
        <ele>1759.0</ele>
        <time>2018-09-15T12:57:38Z</time>
      </trkpt>
      <trkpt lat="40.235033" lon="-4.965900">
        <ele>1757.0</ele>
        <time>2018-09-15T12:57:39Z</time>
      </trkpt>
      <trkpt lat="40.234933" lon="-4.965867">
        <ele>1754.0</ele>
        <time>2018-09-15T12:57:40Z</time>
      </trkpt>
      <trkpt lat="40.234833" lon="-4.965867">
        <ele>1752.0</ele>
        <time>2018-09-15T12:57:41Z</time>
      </trkpt>
      <trkpt lat="40.234733" lon="-4.965850">
        <ele>1751.0</ele>
        <time>2018-09-15T12:57:42Z</time>
      </trkpt>
      <trkpt lat="40.234633" lon="-4.965850">
        <ele>1750.0</ele>
        <time>2018-09-15T12:57:43Z</time>
      </trkpt>
      <trkpt lat="40.234533" lon="-4.965833">
        <ele>1749.0</ele>
        <time>2018-09-15T12:57:44Z</time>
      </trkpt>
      <trkpt lat="40.234450" lon="-4.965833">
        <ele>1749.0</ele>
        <time>2018-09-15T12:57:45Z</time>
      </trkpt>
      <trkpt lat="40.234367" lon="-4.965817">
        <ele>1748.0</ele>
        <time>2018-09-15T12:57:46Z</time>
      </trkpt>
      <trkpt lat="40.234283" lon="-4.965817">
        <ele>1747.0</ele>
        <time>2018-09-15T12:57:47Z</time>
      </trkpt>
      <trkpt lat="40.234200" lon="-4.965817">
        <ele>1745.0</ele>
        <time>2018-09-15T12:57:48Z</time>
      </trkpt>
      <trkpt lat="40.234100" lon="-4.965817">
        <ele>1742.0</ele>
        <time>2018-09-15T12:57:49Z</time>
      </trkpt>
      <trkpt lat="40.234000" lon="-4.965833">
        <ele>1740.0</ele>
        <time>2018-09-15T12:57:50Z</time>
      </trkpt>
      <trkpt lat="40.233917" lon="-4.965850">
        <ele>1738.0</ele>
        <time>2018-09-15T12:57:51Z</time>
      </trkpt>
      <trkpt lat="40.233817" lon="-4.965850">
        <ele>1737.0</ele>
        <time>2018-09-15T12:57:52Z</time>
      </trkpt>
      <trkpt lat="40.233717" lon="-4.965867">
        <ele>1736.0</ele>
        <time>2018-09-15T12:57:53Z</time>
      </trkpt>
      <trkpt lat="40.233633" lon="-4.965867">
        <ele>1734.0</ele>
        <time>2018-09-15T12:57:54Z</time>
      </trkpt>
      <trkpt lat="40.233550" lon="-4.965883">
        <ele>1732.0</ele>
        <time>2018-09-15T12:57:55Z</time>
      </trkpt>
      <trkpt lat="40.233467" lon="-4.965883">
        <ele>1730.0</ele>
        <time>2018-09-15T12:57:56Z</time>
      </trkpt>
      <trkpt lat="40.233367" lon="-4.965883">
        <ele>1728.0</ele>
        <time>2018-09-15T12:57:57Z</time>
      </trkpt>
      <trkpt lat="40.233283" lon="-4.965900">
        <ele>1726.0</ele>
        <time>2018-09-15T12:57:58Z</time>
      </trkpt>
      <trkpt lat="40.233200" lon="-4.965883">
        <ele>1725.0</ele>
        <time>2018-09-15T12:57:59Z</time>
      </trkpt>
      <trkpt lat="40.233100" lon="-4.965883">
        <ele>1723.0</ele>
        <time>2018-09-15T12:58:00Z</time>
      </trkpt>
      <trkpt lat="40.233033" lon="-4.965867">
        <ele>1723.0</ele>
        <time>2018-09-15T12:58:01Z</time>
      </trkpt>
      <trkpt lat="40.232967" lon="-4.965850">
        <ele>1722.0</ele>
        <time>2018-09-15T12:58:02Z</time>
      </trkpt>
      <trkpt lat="40.232900" lon="-4.965850">
        <ele>1720.0</ele>
        <time>2018-09-15T12:58:03Z</time>
      </trkpt>
      <trkpt lat="40.232833" lon="-4.965850">
        <ele>1718.0</ele>
        <time>2018-09-15T12:58:04Z</time>
      </trkpt>
      <trkpt lat="40.232733" lon="-4.965850">
        <ele>1717.0</ele>
        <time>2018-09-15T12:58:05Z</time>
      </trkpt>
      <trkpt lat="40.232650" lon="-4.965850">
        <ele>1717.0</ele>
        <time>2018-09-15T12:58:06Z</time>
      </trkpt>
      <trkpt lat="40.232567" lon="-4.965850">
        <ele>1717.0</ele>
        <time>2018-09-15T12:58:07Z</time>
      </trkpt>
      <trkpt lat="40.232500" lon="-4.965850">
        <ele>1717.0</ele>
        <time>2018-09-15T12:58:08Z</time>
      </trkpt>
      <trkpt lat="40.232417" lon="-4.965867">
        <ele>1718.0</ele>
        <time>2018-09-15T12:58:09Z</time>
      </trkpt>
      <trkpt lat="40.232333" lon="-4.965900">
        <ele>1717.0</ele>
        <time>2018-09-15T12:58:10Z</time>
      </trkpt>
      <trkpt lat="40.232233" lon="-4.965917">
        <ele>1716.0</ele>
        <time>2018-09-15T12:58:11Z</time>
      </trkpt>
      <trkpt lat="40.232133" lon="-4.965933">
        <ele>1717.0</ele>
        <time>2018-09-15T12:58:12Z</time>
      </trkpt>
      <trkpt lat="40.232067" lon="-4.965950">
        <ele>1718.0</ele>
        <time>2018-09-15T12:58:13Z</time>
      </trkpt>
      <trkpt lat="40.231983" lon="-4.965983">
        <ele>1718.0</ele>
        <time>2018-09-15T12:58:14Z</time>
      </trkpt>
      <trkpt lat="40.231900" lon="-4.966017">
        <ele>1718.0</ele>
        <time>2018-09-15T12:58:15Z</time>
      </trkpt>
      <trkpt lat="40.231817" lon="-4.966050">
        <ele>1718.0</ele>
        <time>2018-09-15T12:58:16Z</time>
      </trkpt>
      <trkpt lat="40.231717" lon="-4.966117">
        <ele>1718.0</ele>
        <time>2018-09-15T12:58:17Z</time>
      </trkpt>
      <trkpt lat="40.231633" lon="-4.966167">
        <ele>1719.0</ele>
        <time>2018-09-15T12:58:18Z</time>
      </trkpt>
      <trkpt lat="40.231533" lon="-4.966200">
        <ele>1719.0</ele>
        <time>2018-09-15T12:58:19Z</time>
      </trkpt>
      <trkpt lat="40.231433" lon="-4.966217">
        <ele>1720.0</ele>
        <time>2018-09-15T12:58:20Z</time>
      </trkpt>
      <trkpt lat="40.231333" lon="-4.966267">
        <ele>1719.0</ele>
        <time>2018-09-15T12:58:21Z</time>
      </trkpt>
      <trkpt lat="40.231217" lon="-4.966317">
        <ele>1720.0</ele>
        <time>2018-09-15T12:58:22Z</time>
      </trkpt>
      <trkpt lat="40.231100" lon="-4.966367">
        <ele>1719.0</ele>
        <time>2018-09-15T12:58:23Z</time>
      </trkpt>
      <trkpt lat="40.231000" lon="-4.966383">
        <ele>1720.0</ele>
        <time>2018-09-15T12:58:24Z</time>
      </trkpt>
      <trkpt lat="40.230900" lon="-4.966400">
        <ele>1719.0</ele>
        <time>2018-09-15T12:58:25Z</time>
      </trkpt>
      <trkpt lat="40.230833" lon="-4.966383">
        <ele>1719.0</ele>
        <time>2018-09-15T12:58:26Z</time>
      </trkpt>
      <trkpt lat="40.230767" lon="-4.966333">
        <ele>1716.0</ele>
        <time>2018-09-15T12:58:27Z</time>
      </trkpt>
      <trkpt lat="40.230733" lon="-4.966300">
        <ele>1713.0</ele>
        <time>2018-09-15T12:58:28Z</time>
      </trkpt>
      <trkpt lat="40.230667" lon="-4.966250">
        <ele>1710.0</ele>
        <time>2018-09-15T12:58:29Z</time>
      </trkpt>
      <trkpt lat="40.230600" lon="-4.966217">
        <ele>1707.0</ele>
        <time>2018-09-15T12:58:30Z</time>
      </trkpt>
      <trkpt lat="40.230533" lon="-4.966183">
        <ele>1704.0</ele>
        <time>2018-09-15T12:58:31Z</time>
      </trkpt>
      <trkpt lat="40.230450" lon="-4.966167">
        <ele>1702.0</ele>
        <time>2018-09-15T12:58:32Z</time>
      </trkpt>
      <trkpt lat="40.230383" lon="-4.966167">
        <ele>1700.0</ele>
        <time>2018-09-15T12:58:33Z</time>
      </trkpt>
      <trkpt lat="40.230300" lon="-4.966167">
        <ele>1698.0</ele>
        <time>2018-09-15T12:58:34Z</time>
      </trkpt>
      <trkpt lat="40.230217" lon="-4.966167">
        <ele>1695.0</ele>
        <time>2018-09-15T12:58:35Z</time>
      </trkpt>
      <trkpt lat="40.230133" lon="-4.966183">
        <ele>1693.0</ele>
        <time>2018-09-15T12:58:36Z</time>
      </trkpt>
      <trkpt lat="40.230050" lon="-4.966200">
        <ele>1690.0</ele>
        <time>2018-09-15T12:58:37Z</time>
      </trkpt>
      <trkpt lat="40.229950" lon="-4.966217">
        <ele>1688.0</ele>
        <time>2018-09-15T12:58:38Z</time>
      </trkpt>
      <trkpt lat="40.229867" lon="-4.966250">
        <ele>1685.0</ele>
        <time>2018-09-15T12:58:39Z</time>
      </trkpt>
      <trkpt lat="40.229767" lon="-4.966283">
        <ele>1682.0</ele>
        <time>2018-09-15T12:58:40Z</time>
      </trkpt>
      <trkpt lat="40.229683" lon="-4.966317">
        <ele>1679.0</ele>
        <time>2018-09-15T12:58:41Z</time>
      </trkpt>
      <trkpt lat="40.229583" lon="-4.966333">
        <ele>1676.0</ele>
        <time>2018-09-15T12:58:42Z</time>
      </trkpt>
      <trkpt lat="40.229500" lon="-4.966350">
        <ele>1674.0</ele>
        <time>2018-09-15T12:58:43Z</time>
      </trkpt>
      <trkpt lat="40.229417" lon="-4.966367">
        <ele>1671.0</ele>
        <time>2018-09-15T12:58:44Z</time>
      </trkpt>
      <trkpt lat="40.229333" lon="-4.966383">
        <ele>1668.0</ele>
        <time>2018-09-15T12:58:45Z</time>
      </trkpt>
      <trkpt lat="40.229250" lon="-4.966383">
        <ele>1664.0</ele>
        <time>2018-09-15T12:58:46Z</time>
      </trkpt>
      <trkpt lat="40.229150" lon="-4.966367">
        <ele>1660.0</ele>
        <time>2018-09-15T12:58:47Z</time>
      </trkpt>
      <trkpt lat="40.229050" lon="-4.966350">
        <ele>1657.0</ele>
        <time>2018-09-15T12:58:48Z</time>
      </trkpt>
      <trkpt lat="40.228950" lon="-4.966333">
        <ele>1656.0</ele>
        <time>2018-09-15T12:58:49Z</time>
      </trkpt>
      <trkpt lat="40.228867" lon="-4.966333">
        <ele>1655.0</ele>
        <time>2018-09-15T12:58:50Z</time>
      </trkpt>
      <trkpt lat="40.228783" lon="-4.966333">
        <ele>1653.0</ele>
        <time>2018-09-15T12:58:51Z</time>
      </trkpt>
      <trkpt lat="40.228717" lon="-4.966317">
        <ele>1651.0</ele>
        <time>2018-09-15T12:58:52Z</time>
      </trkpt>
      <trkpt lat="40.228633" lon="-4.966300">
        <ele>1648.0</ele>
        <time>2018-09-15T12:58:53Z</time>
      </trkpt>
      <trkpt lat="40.228533" lon="-4.966283">
        <ele>1645.0</ele>
        <time>2018-09-15T12:58:54Z</time>
      </trkpt>
      <trkpt lat="40.228433" lon="-4.966267">
        <ele>1643.0</ele>
        <time>2018-09-15T12:58:55Z</time>
      </trkpt>
      <trkpt lat="40.228350" lon="-4.966250">
        <ele>1643.0</ele>
        <time>2018-09-15T12:58:56Z</time>
      </trkpt>
      <trkpt lat="40.228250" lon="-4.966233">
        <ele>1644.0</ele>
        <time>2018-09-15T12:58:57Z</time>
      </trkpt>
      <trkpt lat="40.228183" lon="-4.966233">
        <ele>1645.0</ele>
        <time>2018-09-15T12:58:58Z</time>
      </trkpt>
      <trkpt lat="40.228100" lon="-4.966250">
        <ele>1644.0</ele>
        <time>2018-09-15T12:58:59Z</time>
      </trkpt>
      <trkpt lat="40.228017" lon="-4.966250">
        <ele>1643.0</ele>
        <time>2018-09-15T12:59:00Z</time>
      </trkpt>
      <trkpt lat="40.227933" lon="-4.966250">
        <ele>1641.0</ele>
        <time>2018-09-15T12:59:01Z</time>
      </trkpt>
      <trkpt lat="40.227833" lon="-4.966250">
        <ele>1640.0</ele>
        <time>2018-09-15T12:59:02Z</time>
      </trkpt>
      <trkpt lat="40.227750" lon="-4.966250">
        <ele>1639.0</ele>
        <time>2018-09-15T12:59:03Z</time>
      </trkpt>
      <trkpt lat="40.227650" lon="-4.966267">
        <ele>1640.0</ele>
        <time>2018-09-15T12:59:04Z</time>
      </trkpt>
      <trkpt lat="40.227550" lon="-4.966300">
        <ele>1639.0</ele>
        <time>2018-09-15T12:59:05Z</time>
      </trkpt>
      <trkpt lat="40.227467" lon="-4.966333">
        <ele>1638.0</ele>
        <time>2018-09-15T12:59:06Z</time>
      </trkpt>
      <trkpt lat="40.227383" lon="-4.966367">
        <ele>1637.0</ele>
        <time>2018-09-15T12:59:07Z</time>
      </trkpt>
      <trkpt lat="40.227317" lon="-4.966383">
        <ele>1635.0</ele>
        <time>2018-09-15T12:59:08Z</time>
      </trkpt>
      <trkpt lat="40.227233" lon="-4.966400">
        <ele>1633.0</ele>
        <time>2018-09-15T12:59:09Z</time>
      </trkpt>
      <trkpt lat="40.227150" lon="-4.966417">
        <ele>1631.0</ele>
        <time>2018-09-15T12:59:10Z</time>
      </trkpt>
      <trkpt lat="40.227067" lon="-4.966433">
        <ele>1629.0</ele>
        <time>2018-09-15T12:59:11Z</time>
      </trkpt>
      <trkpt lat="40.226983" lon="-4.966450">
        <ele>1627.0</ele>
        <time>2018-09-15T12:59:12Z</time>
      </trkpt>
      <trkpt lat="40.226900" lon="-4.966450">
        <ele>1625.0</ele>
        <time>2018-09-15T12:59:13Z</time>
      </trkpt>
      <trkpt lat="40.226817" lon="-4.966450">
        <ele>1624.0</ele>
        <time>2018-09-15T12:59:14Z</time>
      </trkpt>
      <trkpt lat="40.226750" lon="-4.966450">
        <ele>1622.0</ele>
        <time>2018-09-15T12:59:15Z</time>
      </trkpt>
      <trkpt lat="40.226667" lon="-4.966467">
        <ele>1619.0</ele>
        <time>2018-09-15T12:59:16Z</time>
      </trkpt>
      <trkpt lat="40.226583" lon="-4.966467">
        <ele>1617.0</ele>
        <time>2018-09-15T12:59:17Z</time>
      </trkpt>
      <trkpt lat="40.226500" lon="-4.966467">
        <ele>1614.0</ele>
        <time>2018-09-15T12:59:18Z</time>
      </trkpt>
      <trkpt lat="40.226417" lon="-4.966467">
        <ele>1611.0</ele>
        <time>2018-09-15T12:59:19Z</time>
      </trkpt>
      <trkpt lat="40.226317" lon="-4.966467">
        <ele>1609.0</ele>
        <time>2018-09-15T12:59:20Z</time>
      </trkpt>
      <trkpt lat="40.226233" lon="-4.966467">
        <ele>1607.0</ele>
        <time>2018-09-15T12:59:21Z</time>
      </trkpt>
      <trkpt lat="40.226133" lon="-4.966483">
        <ele>1604.0</ele>
        <time>2018-09-15T12:59:22Z</time>
      </trkpt>
      <trkpt lat="40.226033" lon="-4.966500">
        <ele>1601.0</ele>
        <time>2018-09-15T12:59:23Z</time>
      </trkpt>
      <trkpt lat="40.225933" lon="-4.966517">
        <ele>1598.0</ele>
        <time>2018-09-15T12:59:24Z</time>
      </trkpt>
      <trkpt lat="40.225833" lon="-4.966533">
        <ele>1595.0</ele>
        <time>2018-09-15T12:59:25Z</time>
      </trkpt>
      <trkpt lat="40.225750" lon="-4.966567">
        <ele>1592.0</ele>
        <time>2018-09-15T12:59:26Z</time>
      </trkpt>
      <trkpt lat="40.225650" lon="-4.966600">
        <ele>1590.0</ele>
        <time>2018-09-15T12:59:27Z</time>
      </trkpt>
      <trkpt lat="40.225567" lon="-4.966617">
        <ele>1589.0</ele>
        <time>2018-09-15T12:59:28Z</time>
      </trkpt>
      <trkpt lat="40.225500" lon="-4.966650">
        <ele>1589.0</ele>
        <time>2018-09-15T12:59:29Z</time>
      </trkpt>
      <trkpt lat="40.225450" lon="-4.966667">
        <ele>1589.0</ele>
        <time>2018-09-15T12:59:30Z</time>
      </trkpt>
      <trkpt lat="40.225383" lon="-4.966667">
        <ele>1588.0</ele>
        <time>2018-09-15T12:59:31Z</time>
      </trkpt>
      <trkpt lat="40.225333" lon="-4.966667">
        <ele>1586.0</ele>
        <time>2018-09-15T12:59:32Z</time>
      </trkpt>
      <trkpt lat="40.225250" lon="-4.966667">
        <ele>1585.0</ele>
        <time>2018-09-15T12:59:33Z</time>
      </trkpt>
      <trkpt lat="40.225183" lon="-4.966667">
        <ele>1584.0</ele>
        <time>2018-09-15T12:59:34Z</time>
      </trkpt>
      <trkpt lat="40.225117" lon="-4.966667">
        <ele>1583.0</ele>
        <time>2018-09-15T12:59:35Z</time>
      </trkpt>
      <trkpt lat="40.225050" lon="-4.966683">
        <ele>1582.0</ele>
        <time>2018-09-15T12:59:36Z</time>
      </trkpt>
      <trkpt lat="40.224983" lon="-4.966700">
        <ele>1580.0</ele>
        <time>2018-09-15T12:59:37Z</time>
      </trkpt>
      <trkpt lat="40.224900" lon="-4.966717">
        <ele>1577.0</ele>
        <time>2018-09-15T12:59:38Z</time>
      </trkpt>
      <trkpt lat="40.224800" lon="-4.966750">
        <ele>1575.0</ele>
        <time>2018-09-15T12:59:39Z</time>
      </trkpt>
      <trkpt lat="40.224700" lon="-4.966767">
        <ele>1573.0</ele>
        <time>2018-09-15T12:59:40Z</time>
      </trkpt>
      <trkpt lat="40.224617" lon="-4.966800">
        <ele>1573.0</ele>
        <time>2018-09-15T12:59:41Z</time>
      </trkpt>
      <trkpt lat="40.224517" lon="-4.966817">
        <ele>1572.0</ele>
        <time>2018-09-15T12:59:42Z</time>
      </trkpt>
      <trkpt lat="40.224433" lon="-4.966833">
        <ele>1571.0</ele>
        <time>2018-09-15T12:59:43Z</time>
      </trkpt>
      <trkpt lat="40.224350" lon="-4.966867">
        <ele>1570.0</ele>
        <time>2018-09-15T12:59:44Z</time>
      </trkpt>
      <trkpt lat="40.224267" lon="-4.966900">
        <ele>1569.0</ele>
        <time>2018-09-15T12:59:45Z</time>
      </trkpt>
      <trkpt lat="40.224183" lon="-4.966933">
        <ele>1568.0</ele>
        <time>2018-09-15T12:59:46Z</time>
      </trkpt>
      <trkpt lat="40.224067" lon="-4.966950">
        <ele>1568.0</ele>
        <time>2018-09-15T12:59:47Z</time>
      </trkpt>
      <trkpt lat="40.223967" lon="-4.966983">
        <ele>1568.0</ele>
        <time>2018-09-15T12:59:48Z</time>
      </trkpt>
      <trkpt lat="40.223850" lon="-4.967000">
        <ele>1570.0</ele>
        <time>2018-09-15T12:59:49Z</time>
      </trkpt>
      <trkpt lat="40.223750" lon="-4.967050">
        <ele>1572.0</ele>
        <time>2018-09-15T12:59:50Z</time>
      </trkpt>
      <trkpt lat="40.223650" lon="-4.967100">
        <ele>1574.0</ele>
        <time>2018-09-15T12:59:51Z</time>
      </trkpt>
      <trkpt lat="40.223567" lon="-4.967150">
        <ele>1575.0</ele>
        <time>2018-09-15T12:59:52Z</time>
      </trkpt>
      <trkpt lat="40.223467" lon="-4.967200">
        <ele>1575.0</ele>
        <time>2018-09-15T12:59:53Z</time>
      </trkpt>
      <trkpt lat="40.223367" lon="-4.967233">
        <ele>1577.0</ele>
        <time>2018-09-15T12:59:54Z</time>
      </trkpt>
      <trkpt lat="40.223283" lon="-4.967267">
        <ele>1580.0</ele>
        <time>2018-09-15T12:59:55Z</time>
      </trkpt>
      <trkpt lat="40.223200" lon="-4.967300">
        <ele>1583.0</ele>
        <time>2018-09-15T12:59:56Z</time>
      </trkpt>
      <trkpt lat="40.223117" lon="-4.967333">
        <ele>1585.0</ele>
        <time>2018-09-15T12:59:57Z</time>
      </trkpt>
      <trkpt lat="40.223033" lon="-4.967367">
        <ele>1587.0</ele>
        <time>2018-09-15T12:59:58Z</time>
      </trkpt>
      <trkpt lat="40.222950" lon="-4.967417">
        <ele>1588.0</ele>
        <time>2018-09-15T12:59:59Z</time>
      </trkpt>
      <trkpt lat="40.222867" lon="-4.967467">
        <ele>1589.0</ele>
        <time>2018-09-15T13:00:00Z</time>
      </trkpt>
      <trkpt lat="40.222783" lon="-4.967483">
        <ele>1591.0</ele>
        <time>2018-09-15T13:00:01Z</time>
      </trkpt>
      <trkpt lat="40.222700" lon="-4.967450">
        <ele>1592.0</ele>
        <time>2018-09-15T13:00:02Z</time>
      </trkpt>
      <trkpt lat="40.222650" lon="-4.967383">
        <ele>1593.0</ele>
        <time>2018-09-15T13:00:03Z</time>
      </trkpt>
      <trkpt lat="40.222633" lon="-4.967300">
        <ele>1595.0</ele>
        <time>2018-09-15T13:00:04Z</time>
      </trkpt>
      <trkpt lat="40.222633" lon="-4.967217">
        <ele>1598.0</ele>
        <time>2018-09-15T13:00:05Z</time>
      </trkpt>
      <trkpt lat="40.222650" lon="-4.967133">
        <ele>1601.0</ele>
        <time>2018-09-15T13:00:06Z</time>
      </trkpt>
      <trkpt lat="40.222667" lon="-4.967050">
        <ele>1603.0</ele>
        <time>2018-09-15T13:00:07Z</time>
      </trkpt>
      <trkpt lat="40.222683" lon="-4.966950">
        <ele>1605.0</ele>
        <time>2018-09-15T13:00:08Z</time>
      </trkpt>
      <trkpt lat="40.222700" lon="-4.966867">
        <ele>1607.0</ele>
        <time>2018-09-15T13:00:09Z</time>
      </trkpt>
      <trkpt lat="40.222717" lon="-4.966767">
        <ele>1609.0</ele>
        <time>2018-09-15T13:00:10Z</time>
      </trkpt>
      <trkpt lat="40.222750" lon="-4.966700">
        <ele>1611.0</ele>
        <time>2018-09-15T13:00:11Z</time>
      </trkpt>
      <trkpt lat="40.222783" lon="-4.966650">
        <ele>1612.0</ele>
        <time>2018-09-15T13:00:12Z</time>
      </trkpt>
      <trkpt lat="40.222833" lon="-4.966633">
        <ele>1613.0</ele>
        <time>2018-09-15T13:00:13Z</time>
      </trkpt>
      <trkpt lat="40.222917" lon="-4.966633">
        <ele>1612.0</ele>
        <time>2018-09-15T13:00:14Z</time>
      </trkpt>
      <trkpt lat="40.223017" lon="-4.966683">
        <ele>1612.0</ele>
        <time>2018-09-15T13:00:15Z</time>
      </trkpt>
      <trkpt lat="40.223083" lon="-4.966767">
        <ele>1613.0</ele>
        <time>2018-09-15T13:00:16Z</time>
      </trkpt>
      <trkpt lat="40.223133" lon="-4.966900">
        <ele>1613.0</ele>
        <time>2018-09-15T13:00:17Z</time>
      </trkpt>
      <trkpt lat="40.223150" lon="-4.967067">
        <ele>1613.0</ele>
        <time>2018-09-15T13:00:18Z</time>
      </trkpt>
      <trkpt lat="40.223133" lon="-4.967233">
        <ele>1613.0</ele>
        <time>2018-09-15T13:00:19Z</time>
      </trkpt>
      <trkpt lat="40.223100" lon="-4.967383">
        <ele>1615.0</ele>
        <time>2018-09-15T13:00:20Z</time>
      </trkpt>
      <trkpt lat="40.223050" lon="-4.967500">
        <ele>1616.0</ele>
        <time>2018-09-15T13:00:21Z</time>
      </trkpt>
      <trkpt lat="40.222983" lon="-4.967617">
        <ele>1617.0</ele>
        <time>2018-09-15T13:00:22Z</time>
      </trkpt>
      <trkpt lat="40.222900" lon="-4.967717">
        <ele>1617.0</ele>
        <time>2018-09-15T13:00:23Z</time>
      </trkpt>
      <trkpt lat="40.222800" lon="-4.967800">
        <ele>1618.0</ele>
        <time>2018-09-15T13:00:24Z</time>
      </trkpt>
      <trkpt lat="40.222700" lon="-4.967850">
        <ele>1620.0</ele>
        <time>2018-09-15T13:00:25Z</time>
      </trkpt>
      <trkpt lat="40.222600" lon="-4.967900">
        <ele>1626.0</ele>
        <time>2018-09-15T13:00:26Z</time>
      </trkpt>
      <trkpt lat="40.222533" lon="-4.967933">
        <ele>1631.0</ele>
        <time>2018-09-15T13:00:27Z</time>
      </trkpt>
      <trkpt lat="40.222450" lon="-4.967950">
        <ele>1635.0</ele>
        <time>2018-09-15T13:00:28Z</time>
      </trkpt>
      <trkpt lat="40.222383" lon="-4.967983">
        <ele>1637.0</ele>
        <time>2018-09-15T13:00:29Z</time>
      </trkpt>
      <trkpt lat="40.222300" lon="-4.968017">
        <ele>1640.0</ele>
        <time>2018-09-15T13:00:30Z</time>
      </trkpt>
      <trkpt lat="40.222233" lon="-4.968050">
        <ele>1642.0</ele>
        <time>2018-09-15T13:00:31Z</time>
      </trkpt>
      <trkpt lat="40.222150" lon="-4.968067">
        <ele>1644.0</ele>
        <time>2018-09-15T13:00:32Z</time>
      </trkpt>
      <trkpt lat="40.222050" lon="-4.968083">
        <ele>1646.0</ele>
        <time>2018-09-15T13:00:33Z</time>
      </trkpt>
      <trkpt lat="40.221950" lon="-4.968117">
        <ele>1647.0</ele>
        <time>2018-09-15T13:00:34Z</time>
      </trkpt>
      <trkpt lat="40.221867" lon="-4.968133">
        <ele>1650.0</ele>
        <time>2018-09-15T13:00:35Z</time>
      </trkpt>
      <trkpt lat="40.221783" lon="-4.968133">
        <ele>1652.0</ele>
        <time>2018-09-15T13:00:36Z</time>
      </trkpt>
      <trkpt lat="40.221717" lon="-4.968133">
        <ele>1654.0</ele>
        <time>2018-09-15T13:00:37Z</time>
      </trkpt>
      <trkpt lat="40.221650" lon="-4.968100">
        <ele>1655.0</ele>
        <time>2018-09-15T13:00:38Z</time>
      </trkpt>
      <trkpt lat="40.221600" lon="-4.968067">
        <ele>1655.0</ele>
        <time>2018-09-15T13:00:39Z</time>
      </trkpt>
      <trkpt lat="40.221533" lon="-4.968000">
        <ele>1656.0</ele>
        <time>2018-09-15T13:00:40Z</time>
      </trkpt>
      <trkpt lat="40.221483" lon="-4.967933">
        <ele>1657.0</ele>
        <time>2018-09-15T13:00:41Z</time>
      </trkpt>
      <trkpt lat="40.221433" lon="-4.967867">
        <ele>1660.0</ele>
        <time>2018-09-15T13:00:42Z</time>
      </trkpt>
      <trkpt lat="40.221367" lon="-4.967817">
        <ele>1663.0</ele>
        <time>2018-09-15T13:00:43Z</time>
      </trkpt>
      <trkpt lat="40.221300" lon="-4.967783">
        <ele>1666.0</ele>
        <time>2018-09-15T13:00:44Z</time>
      </trkpt>
      <trkpt lat="40.221217" lon="-4.967767">
        <ele>1669.0</ele>
        <time>2018-09-15T13:00:45Z</time>
      </trkpt>
      <trkpt lat="40.221133" lon="-4.967767">
        <ele>1671.0</ele>
        <time>2018-09-15T13:00:46Z</time>
      </trkpt>
      <trkpt lat="40.221050" lon="-4.967733">
        <ele>1672.0</ele>
        <time>2018-09-15T13:00:47Z</time>
      </trkpt>
      <trkpt lat="40.221000" lon="-4.967700">
        <ele>1674.0</ele>
        <time>2018-09-15T13:00:48Z</time>
      </trkpt>
      <trkpt lat="40.220967" lon="-4.967650">
        <ele>1675.0</ele>
        <time>2018-09-15T13:00:49Z</time>
      </trkpt>
      <trkpt lat="40.220950" lon="-4.967583">
        <ele>1675.0</ele>
        <time>2018-09-15T13:00:50Z</time>
      </trkpt>
      <trkpt lat="40.220950" lon="-4.967533">
        <ele>1676.0</ele>
        <time>2018-09-15T13:00:51Z</time>
      </trkpt>
      <trkpt lat="40.220983" lon="-4.967483">
        <ele>1678.0</ele>
        <time>2018-09-15T13:00:52Z</time>
      </trkpt>
      <trkpt lat="40.221017" lon="-4.967450">
        <ele>1679.0</ele>
        <time>2018-09-15T13:00:53Z</time>
      </trkpt>
      <trkpt lat="40.221083" lon="-4.967433">
        <ele>1681.0</ele>
        <time>2018-09-15T13:00:54Z</time>
      </trkpt>
      <trkpt lat="40.221150" lon="-4.967417">
        <ele>1683.0</ele>
        <time>2018-09-15T13:00:55Z</time>
      </trkpt>
      <trkpt lat="40.221217" lon="-4.967433">
        <ele>1685.0</ele>
        <time>2018-09-15T13:00:56Z</time>
      </trkpt>
      <trkpt lat="40.221267" lon="-4.967450">
        <ele>1687.0</ele>
        <time>2018-09-15T13:00:57Z</time>
      </trkpt>
      <trkpt lat="40.221317" lon="-4.967467">
        <ele>1688.0</ele>
        <time>2018-09-15T13:00:58Z</time>
      </trkpt>
      <trkpt lat="40.221367" lon="-4.967500">
        <ele>1687.0</ele>
        <time>2018-09-15T13:00:59Z</time>
      </trkpt>
      <trkpt lat="40.221433" lon="-4.967550">
        <ele>1685.0</ele>
        <time>2018-09-15T13:01:00Z</time>
      </trkpt>
      <trkpt lat="40.221500" lon="-4.967633">
        <ele>1682.0</ele>
        <time>2018-09-15T13:01:01Z</time>
      </trkpt>
      <trkpt lat="40.221567" lon="-4.967733">
        <ele>1681.0</ele>
        <time>2018-09-15T13:01:02Z</time>
      </trkpt>
      <trkpt lat="40.221617" lon="-4.967867">
        <ele>1681.0</ele>
        <time>2018-09-15T13:01:03Z</time>
      </trkpt>
      <trkpt lat="40.221667" lon="-4.967983">
        <ele>1682.0</ele>
        <time>2018-09-15T13:01:04Z</time>
      </trkpt>
      <trkpt lat="40.221683" lon="-4.968117">
        <ele>1683.0</ele>
        <time>2018-09-15T13:01:05Z</time>
      </trkpt>
      <trkpt lat="40.221717" lon="-4.968233">
        <ele>1683.0</ele>
        <time>2018-09-15T13:01:06Z</time>
      </trkpt>
      <trkpt lat="40.221733" lon="-4.968367">
        <ele>1684.0</ele>
        <time>2018-09-15T13:01:07Z</time>
      </trkpt>
      <trkpt lat="40.221767" lon="-4.968500">
        <ele>1684.0</ele>
        <time>2018-09-15T13:01:08Z</time>
      </trkpt>
      <trkpt lat="40.221800" lon="-4.968650">
        <ele>1684.0</ele>
        <time>2018-09-15T13:01:09Z</time>
      </trkpt>
      <trkpt lat="40.221817" lon="-4.968800">
        <ele>1686.0</ele>
        <time>2018-09-15T13:01:10Z</time>
      </trkpt>
      <trkpt lat="40.221833" lon="-4.968950">
        <ele>1688.0</ele>
        <time>2018-09-15T13:01:11Z</time>
      </trkpt>
      <trkpt lat="40.221833" lon="-4.969083">
        <ele>1688.0</ele>
        <time>2018-09-15T13:01:12Z</time>
      </trkpt>
      <trkpt lat="40.221817" lon="-4.969217">
        <ele>1687.0</ele>
        <time>2018-09-15T13:01:13Z</time>
      </trkpt>
      <trkpt lat="40.221800" lon="-4.969367">
        <ele>1685.0</ele>
        <time>2018-09-15T13:01:14Z</time>
      </trkpt>
      <trkpt lat="40.221767" lon="-4.969533">
        <ele>1684.0</ele>
        <time>2018-09-15T13:01:15Z</time>
      </trkpt>
      <trkpt lat="40.221750" lon="-4.969717">
        <ele>1685.0</ele>
        <time>2018-09-15T13:01:16Z</time>
      </trkpt>
      <trkpt lat="40.221700" lon="-4.969917">
        <ele>1687.0</ele>
        <time>2018-09-15T13:01:17Z</time>
      </trkpt>
      <trkpt lat="40.221667" lon="-4.970100">
        <ele>1692.0</ele>
        <time>2018-09-15T13:01:18Z</time>
      </trkpt>
      <trkpt lat="40.221633" lon="-4.970267">
        <ele>1696.0</ele>
        <time>2018-09-15T13:01:19Z</time>
      </trkpt>
      <trkpt lat="40.221633" lon="-4.970433">
        <ele>1701.0</ele>
        <time>2018-09-15T13:01:20Z</time>
      </trkpt>
      <trkpt lat="40.221617" lon="-4.970583">
        <ele>1705.0</ele>
        <time>2018-09-15T13:01:21Z</time>
      </trkpt>
      <trkpt lat="40.221600" lon="-4.970750">
        <ele>1708.0</ele>
        <time>2018-09-15T13:01:22Z</time>
      </trkpt>
      <trkpt lat="40.221583" lon="-4.970900">
        <ele>1710.0</ele>
        <time>2018-09-15T13:01:23Z</time>
      </trkpt>
      <trkpt lat="40.221550" lon="-4.971083">
        <ele>1712.0</ele>
        <time>2018-09-15T13:01:24Z</time>
      </trkpt>
      <trkpt lat="40.221533" lon="-4.971250">
        <ele>1714.0</ele>
        <time>2018-09-15T13:01:25Z</time>
      </trkpt>
      <trkpt lat="40.221483" lon="-4.971400">
        <ele>1715.0</ele>
        <time>2018-09-15T13:01:26Z</time>
      </trkpt>
      <trkpt lat="40.221417" lon="-4.971533">
        <ele>1715.0</ele>
        <time>2018-09-15T13:01:27Z</time>
      </trkpt>
      <trkpt lat="40.221317" lon="-4.971650">
        <ele>1715.0</ele>
        <time>2018-09-15T13:01:28Z</time>
      </trkpt>
      <trkpt lat="40.221217" lon="-4.971717">
        <ele>1715.0</ele>
        <time>2018-09-15T13:01:29Z</time>
      </trkpt>
      <trkpt lat="40.221133" lon="-4.971733">
        <ele>1716.0</ele>
        <time>2018-09-15T13:01:30Z</time>
      </trkpt>
      <trkpt lat="40.221067" lon="-4.971733">
        <ele>1718.0</ele>
        <time>2018-09-15T13:01:31Z</time>
      </trkpt>
      <trkpt lat="40.221033" lon="-4.971717">
        <ele>1719.0</ele>
        <time>2018-09-15T13:01:32Z</time>
      </trkpt>
      <trkpt lat="40.221017" lon="-4.971683">
        <ele>1719.0</ele>
        <time>2018-09-15T13:01:33Z</time>
      </trkpt>
      <trkpt lat="40.221033" lon="-4.971650">
        <ele>1720.0</ele>
        <time>2018-09-15T13:01:34Z</time>
      </trkpt>
      <trkpt lat="40.221083" lon="-4.971617">
        <ele>1721.0</ele>
        <time>2018-09-15T13:01:35Z</time>
      </trkpt>
      <trkpt lat="40.221150" lon="-4.971617">
        <ele>1723.0</ele>
        <time>2018-09-15T13:01:36Z</time>
      </trkpt>
      <trkpt lat="40.221233" lon="-4.971633">
        <ele>1725.0</ele>
        <time>2018-09-15T13:01:37Z</time>
      </trkpt>
      <trkpt lat="40.221333" lon="-4.971667">
        <ele>1727.0</ele>
        <time>2018-09-15T13:01:38Z</time>
      </trkpt>
      <trkpt lat="40.221450" lon="-4.971717">
        <ele>1731.0</ele>
        <time>2018-09-15T13:01:39Z</time>
      </trkpt>
      <trkpt lat="40.221550" lon="-4.971783">
        <ele>1734.0</ele>
        <time>2018-09-15T13:01:40Z</time>
      </trkpt>
      <trkpt lat="40.221650" lon="-4.971867">
        <ele>1738.0</ele>
        <time>2018-09-15T13:01:41Z</time>
      </trkpt>
      <trkpt lat="40.221733" lon="-4.971933">
        <ele>1741.0</ele>
        <time>2018-09-15T13:01:42Z</time>
      </trkpt>
      <trkpt lat="40.221817" lon="-4.972000">
        <ele>1744.0</ele>
        <time>2018-09-15T13:01:43Z</time>
      </trkpt>
      <trkpt lat="40.221900" lon="-4.972067">
        <ele>1746.0</ele>
        <time>2018-09-15T13:01:44Z</time>
      </trkpt>
      <trkpt lat="40.222000" lon="-4.972150">
        <ele>1747.0</ele>
        <time>2018-09-15T13:01:45Z</time>
      </trkpt>
      <trkpt lat="40.222100" lon="-4.972233">
        <ele>1750.0</ele>
        <time>2018-09-15T13:01:46Z</time>
      </trkpt>
      <trkpt lat="40.222183" lon="-4.972367">
        <ele>1754.0</ele>
        <time>2018-09-15T13:01:47Z</time>
      </trkpt>
      <trkpt lat="40.222250" lon="-4.972517">
        <ele>1757.0</ele>
        <time>2018-09-15T13:01:48Z</time>
      </trkpt>
      <trkpt lat="40.222283" lon="-4.972683">
        <ele>1761.0</ele>
        <time>2018-09-15T13:01:49Z</time>
      </trkpt>
      <trkpt lat="40.222300" lon="-4.972850">
        <ele>1765.0</ele>
        <time>2018-09-15T13:01:50Z</time>
      </trkpt>
      <trkpt lat="40.222283" lon="-4.973033">
        <ele>1769.0</ele>
        <time>2018-09-15T13:01:51Z</time>
      </trkpt>
      <trkpt lat="40.222250" lon="-4.973200">
        <ele>1773.0</ele>
        <time>2018-09-15T13:01:52Z</time>
      </trkpt>
      <trkpt lat="40.222200" lon="-4.973350">
        <ele>1777.0</ele>
        <time>2018-09-15T13:01:53Z</time>
      </trkpt>
      <trkpt lat="40.222150" lon="-4.973467">
        <ele>1780.0</ele>
        <time>2018-09-15T13:01:54Z</time>
      </trkpt>
      <trkpt lat="40.222083" lon="-4.973567">
        <ele>1782.0</ele>
        <time>2018-09-15T13:01:55Z</time>
      </trkpt>
      <trkpt lat="40.222000" lon="-4.973650">
        <ele>1785.0</ele>
        <time>2018-09-15T13:01:56Z</time>
      </trkpt>
      <trkpt lat="40.221917" lon="-4.973733">
        <ele>1789.0</ele>
        <time>2018-09-15T13:01:57Z</time>
      </trkpt>
      <trkpt lat="40.221833" lon="-4.973800">
        <ele>1793.0</ele>
        <time>2018-09-15T13:01:58Z</time>
      </trkpt>
      <trkpt lat="40.221783" lon="-4.973850">
        <ele>1796.0</ele>
        <time>2018-09-15T13:01:59Z</time>
      </trkpt>
      <trkpt lat="40.221717" lon="-4.973867">
        <ele>1796.0</ele>
        <time>2018-09-15T13:02:00Z</time>
      </trkpt>
      <trkpt lat="40.221667" lon="-4.973833">
        <ele>1796.0</ele>
        <time>2018-09-15T13:02:01Z</time>
      </trkpt>
      <trkpt lat="40.221633" lon="-4.973783">
        <ele>1796.0</ele>
        <time>2018-09-15T13:02:02Z</time>
      </trkpt>
      <trkpt lat="40.221600" lon="-4.973717">
        <ele>1799.0</ele>
        <time>2018-09-15T13:02:03Z</time>
      </trkpt>
      <trkpt lat="40.221600" lon="-4.973633">
        <ele>1803.0</ele>
        <time>2018-09-15T13:02:04Z</time>
      </trkpt>
      <trkpt lat="40.221633" lon="-4.973600">
        <ele>1806.0</ele>
        <time>2018-09-15T13:02:05Z</time>
      </trkpt>
      <trkpt lat="40.221683" lon="-4.973567">
        <ele>1809.0</ele>
        <time>2018-09-15T13:02:06Z</time>
      </trkpt>
      <trkpt lat="40.221750" lon="-4.973567">
        <ele>1811.0</ele>
        <time>2018-09-15T13:02:07Z</time>
      </trkpt>
      <trkpt lat="40.221833" lon="-4.973600">
        <ele>1814.0</ele>
        <time>2018-09-15T13:02:08Z</time>
      </trkpt>
      <trkpt lat="40.221933" lon="-4.973667">
        <ele>1815.0</ele>
        <time>2018-09-15T13:02:09Z</time>
      </trkpt>
      <trkpt lat="40.222017" lon="-4.973783">
        <ele>1817.0</ele>
        <time>2018-09-15T13:02:10Z</time>
      </trkpt>
      <trkpt lat="40.222083" lon="-4.973933">
        <ele>1820.0</ele>
        <time>2018-09-15T13:02:11Z</time>
      </trkpt>
      <trkpt lat="40.222133" lon="-4.974100">
        <ele>1824.0</ele>
        <time>2018-09-15T13:02:12Z</time>
      </trkpt>
      <trkpt lat="40.222150" lon="-4.974267">
        <ele>1827.0</ele>
        <time>2018-09-15T13:02:13Z</time>
      </trkpt>
      <trkpt lat="40.222150" lon="-4.974400">
        <ele>1829.0</ele>
        <time>2018-09-15T13:02:14Z</time>
      </trkpt>
      <trkpt lat="40.222133" lon="-4.974550">
        <ele>1830.0</ele>
        <time>2018-09-15T13:02:15Z</time>
      </trkpt>
      <trkpt lat="40.222100" lon="-4.974717">
        <ele>1831.0</ele>
        <time>2018-09-15T13:02:16Z</time>
      </trkpt>
      <trkpt lat="40.222050" lon="-4.974883">
        <ele>1831.0</ele>
        <time>2018-09-15T13:02:17Z</time>
      </trkpt>
      <trkpt lat="40.221983" lon="-4.975033">
        <ele>1832.0</ele>
        <time>2018-09-15T13:02:18Z</time>
      </trkpt>
      <trkpt lat="40.221883" lon="-4.975117">
        <ele>1834.0</ele>
        <time>2018-09-15T13:02:19Z</time>
      </trkpt>
      <trkpt lat="40.221783" lon="-4.975167">
        <ele>1838.0</ele>
        <time>2018-09-15T13:02:20Z</time>
      </trkpt>
      <trkpt lat="40.221717" lon="-4.975200">
        <ele>1844.0</ele>
        <time>2018-09-15T13:02:21Z</time>
      </trkpt>
      <trkpt lat="40.221650" lon="-4.975217">
        <ele>1849.0</ele>
        <time>2018-09-15T13:02:22Z</time>
      </trkpt>
      <trkpt lat="40.221617" lon="-4.975233">
        <ele>1853.0</ele>
        <time>2018-09-15T13:02:23Z</time>
      </trkpt>
      <trkpt lat="40.221567" lon="-4.975233">
        <ele>1856.0</ele>
        <time>2018-09-15T13:02:24Z</time>
      </trkpt>
      <trkpt lat="40.221533" lon="-4.975217">
        <ele>1858.0</ele>
        <time>2018-09-15T13:02:25Z</time>
      </trkpt>
      <trkpt lat="40.221517" lon="-4.975200">
        <ele>1858.0</ele>
        <time>2018-09-15T13:02:26Z</time>
      </trkpt>
      <trkpt lat="40.221500" lon="-4.975150">
        <ele>1857.0</ele>
        <time>2018-09-15T13:02:27Z</time>
      </trkpt>
      <trkpt lat="40.221533" lon="-4.975083">
        <ele>1857.0</ele>
        <time>2018-09-15T13:02:28Z</time>
      </trkpt>
      <trkpt lat="40.221583" lon="-4.975050">
        <ele>1857.0</ele>
        <time>2018-09-15T13:02:29Z</time>
      </trkpt>
      <trkpt lat="40.221667" lon="-4.975017">
        <ele>1857.0</ele>
        <time>2018-09-15T13:02:30Z</time>
      </trkpt>
      <trkpt lat="40.221783" lon="-4.975017">
        <ele>1858.0</ele>
        <time>2018-09-15T13:02:31Z</time>
      </trkpt>
      <trkpt lat="40.221900" lon="-4.975067">
        <ele>1864.0</ele>
        <time>2018-09-15T13:02:32Z</time>
      </trkpt>
      <trkpt lat="40.221983" lon="-4.975150">
        <ele>1870.0</ele>
        <time>2018-09-15T13:02:33Z</time>
      </trkpt>
      <trkpt lat="40.222033" lon="-4.975250">
        <ele>1875.0</ele>
        <time>2018-09-15T13:02:34Z</time>
      </trkpt>
      <trkpt lat="40.222067" lon="-4.975350">
        <ele>1878.0</ele>
        <time>2018-09-15T13:02:35Z</time>
      </trkpt>
      <trkpt lat="40.222117" lon="-4.975450">
        <ele>1878.0</ele>
        <time>2018-09-15T13:02:36Z</time>
      </trkpt>
      <trkpt lat="40.222167" lon="-4.975583">
        <ele>1879.0</ele>
        <time>2018-09-15T13:02:37Z</time>
      </trkpt>
      <trkpt lat="40.222233" lon="-4.975717">
        <ele>1879.0</ele>
        <time>2018-09-15T13:02:38Z</time>
      </trkpt>
      <trkpt lat="40.222267" lon="-4.975900">
        <ele>1881.0</ele>
        <time>2018-09-15T13:02:39Z</time>
      </trkpt>
      <trkpt lat="40.222283" lon="-4.976083">
        <ele>1885.0</ele>
        <time>2018-09-15T13:02:40Z</time>
      </trkpt>
      <trkpt lat="40.222250" lon="-4.976250">
        <ele>1889.0</ele>
        <time>2018-09-15T13:02:41Z</time>
      </trkpt>
      <trkpt lat="40.222217" lon="-4.976383">
        <ele>1893.0</ele>
        <time>2018-09-15T13:02:42Z</time>
      </trkpt>
      <trkpt lat="40.222183" lon="-4.976517">
        <ele>1896.0</ele>
        <time>2018-09-15T13:02:43Z</time>
      </trkpt>
      <trkpt lat="40.222150" lon="-4.976633">
        <ele>1898.0</ele>
        <time>2018-09-15T13:02:44Z</time>
      </trkpt>
      <trkpt lat="40.222133" lon="-4.976767">
        <ele>1899.0</ele>
        <time>2018-09-15T13:02:45Z</time>
      </trkpt>
      <trkpt lat="40.222117" lon="-4.976933">
        <ele>1900.0</ele>
        <time>2018-09-15T13:02:46Z</time>
      </trkpt>
      <trkpt lat="40.222083" lon="-4.977117">
        <ele>1902.0</ele>
        <time>2018-09-15T13:02:47Z</time>
      </trkpt>
      <trkpt lat="40.222050" lon="-4.977283">
        <ele>1905.0</ele>
        <time>2018-09-15T13:02:48Z</time>
      </trkpt>
      <trkpt lat="40.222017" lon="-4.977433">
        <ele>1909.0</ele>
        <time>2018-09-15T13:02:49Z</time>
      </trkpt>
      <trkpt lat="40.221983" lon="-4.977550">
        <ele>1912.0</ele>
        <time>2018-09-15T13:02:50Z</time>
      </trkpt>
      <trkpt lat="40.221933" lon="-4.977667">
        <ele>1916.0</ele>
        <time>2018-09-15T13:02:51Z</time>
      </trkpt>
      <trkpt lat="40.221883" lon="-4.977767">
        <ele>1917.0</ele>
        <time>2018-09-15T13:02:52Z</time>
      </trkpt>
      <trkpt lat="40.221833" lon="-4.977867">
        <ele>1919.0</ele>
        <time>2018-09-15T13:02:53Z</time>
      </trkpt>
      <trkpt lat="40.221767" lon="-4.977967">
        <ele>1920.0</ele>
        <time>2018-09-15T13:02:54Z</time>
      </trkpt>
      <trkpt lat="40.221683" lon="-4.978033">
        <ele>1922.0</ele>
        <time>2018-09-15T13:02:55Z</time>
      </trkpt>
      <trkpt lat="40.221600" lon="-4.978083">
        <ele>1923.0</ele>
        <time>2018-09-15T13:02:56Z</time>
      </trkpt>
      <trkpt lat="40.221517" lon="-4.978067">
        <ele>1924.0</ele>
        <time>2018-09-15T13:02:57Z</time>
      </trkpt>
      <trkpt lat="40.221467" lon="-4.978033">
        <ele>1926.0</ele>
        <time>2018-09-15T13:02:58Z</time>
      </trkpt>
      <trkpt lat="40.221433" lon="-4.977967">
        <ele>1928.0</ele>
        <time>2018-09-15T13:02:59Z</time>
      </trkpt>
      <trkpt lat="40.221417" lon="-4.977917">
        <ele>1932.0</ele>
        <time>2018-09-15T13:03:00Z</time>
      </trkpt>
      <trkpt lat="40.221433" lon="-4.977867">
        <ele>1935.0</ele>
        <time>2018-09-15T13:03:01Z</time>
      </trkpt>
      <trkpt lat="40.221467" lon="-4.977833">
        <ele>1937.0</ele>
        <time>2018-09-15T13:03:02Z</time>
      </trkpt>
      <trkpt lat="40.221517" lon="-4.977783">
        <ele>1939.0</ele>
        <time>2018-09-15T13:03:03Z</time>
      </trkpt>
      <trkpt lat="40.221567" lon="-4.977733">
        <ele>1941.0</ele>
        <time>2018-09-15T13:03:04Z</time>
      </trkpt>
      <trkpt lat="40.221633" lon="-4.977700">
        <ele>1945.0</ele>
        <time>2018-09-15T13:03:05Z</time>
      </trkpt>
      <trkpt lat="40.221700" lon="-4.977700">
        <ele>1949.0</ele>
        <time>2018-09-15T13:03:06Z</time>
      </trkpt>
      <trkpt lat="40.221767" lon="-4.977717">
        <ele>1953.0</ele>
        <time>2018-09-15T13:03:07Z</time>
      </trkpt>
      <trkpt lat="40.221850" lon="-4.977767">
        <ele>1955.0</ele>
        <time>2018-09-15T13:03:08Z</time>
      </trkpt>
      <trkpt lat="40.221950" lon="-4.977817">
        <ele>1958.0</ele>
        <time>2018-09-15T13:03:09Z</time>
      </trkpt>
      <trkpt lat="40.222033" lon="-4.977883">
        <ele>1962.0</ele>
        <time>2018-09-15T13:03:10Z</time>
      </trkpt>
      <trkpt lat="40.222117" lon="-4.978000">
        <ele>1966.0</ele>
        <time>2018-09-15T13:03:11Z</time>
      </trkpt>
      <trkpt lat="40.222183" lon="-4.978117">
        <ele>1971.0</ele>
        <time>2018-09-15T13:03:12Z</time>
      </trkpt>
      <trkpt lat="40.222233" lon="-4.978267">
        <ele>1975.0</ele>
        <time>2018-09-15T13:03:13Z</time>
      </trkpt>
      <trkpt lat="40.222267" lon="-4.978400">
        <ele>1978.0</ele>
        <time>2018-09-15T13:03:14Z</time>
      </trkpt>
      <trkpt lat="40.222300" lon="-4.978533">
        <ele>1981.0</ele>
        <time>2018-09-15T13:03:15Z</time>
      </trkpt>
      <trkpt lat="40.222317" lon="-4.978683">
        <ele>1983.0</ele>
        <time>2018-09-15T13:03:16Z</time>
      </trkpt>
      <trkpt lat="40.222333" lon="-4.978833">
        <ele>1985.0</ele>
        <time>2018-09-15T13:03:17Z</time>
      </trkpt>
      <trkpt lat="40.222333" lon="-4.978983">
        <ele>1988.0</ele>
        <time>2018-09-15T13:03:18Z</time>
      </trkpt>
      <trkpt lat="40.222300" lon="-4.979133">
        <ele>1989.0</ele>
        <time>2018-09-15T13:03:19Z</time>
      </trkpt>
      <trkpt lat="40.222267" lon="-4.979283">
        <ele>1990.0</ele>
        <time>2018-09-15T13:03:20Z</time>
      </trkpt>
      <trkpt lat="40.222233" lon="-4.979433">
        <ele>1990.0</ele>
        <time>2018-09-15T13:03:21Z</time>
      </trkpt>
      <trkpt lat="40.222167" lon="-4.979567">
        <ele>1989.0</ele>
        <time>2018-09-15T13:03:22Z</time>
      </trkpt>
      <trkpt lat="40.222050" lon="-4.979683">
        <ele>1988.0</ele>
        <time>2018-09-15T13:03:23Z</time>
      </trkpt>
      <trkpt lat="40.221933" lon="-4.979767">
        <ele>1988.0</ele>
        <time>2018-09-15T13:03:24Z</time>
      </trkpt>
      <trkpt lat="40.221800" lon="-4.979833">
        <ele>1992.0</ele>
        <time>2018-09-15T13:03:25Z</time>
      </trkpt>
      <trkpt lat="40.221683" lon="-4.979900">
        <ele>1997.0</ele>
        <time>2018-09-15T13:03:26Z</time>
      </trkpt>
      <trkpt lat="40.221600" lon="-4.979950">
        <ele>2002.0</ele>
        <time>2018-09-15T13:03:27Z</time>
      </trkpt>
      <trkpt lat="40.221517" lon="-4.980000">
        <ele>2005.0</ele>
        <time>2018-09-15T13:03:28Z</time>
      </trkpt>
      <trkpt lat="40.221450" lon="-4.980033">
        <ele>2006.0</ele>
        <time>2018-09-15T13:03:29Z</time>
      </trkpt>
      <trkpt lat="40.221367" lon="-4.980067">
        <ele>2006.0</ele>
        <time>2018-09-15T13:03:30Z</time>
      </trkpt>
      <trkpt lat="40.221267" lon="-4.980050">
        <ele>2005.0</ele>
        <time>2018-09-15T13:03:31Z</time>
      </trkpt>
      <trkpt lat="40.221183" lon="-4.980017">
        <ele>2005.0</ele>
        <time>2018-09-15T13:03:32Z</time>
      </trkpt>
      <trkpt lat="40.221100" lon="-4.979967">
        <ele>2007.0</ele>
        <time>2018-09-15T13:03:33Z</time>
      </trkpt>
      <trkpt lat="40.221033" lon="-4.979917">
        <ele>2011.0</ele>
        <time>2018-09-15T13:03:34Z</time>
      </trkpt>
      <trkpt lat="40.220967" lon="-4.979867">
        <ele>2013.0</ele>
        <time>2018-09-15T13:03:35Z</time>
      </trkpt>
      <trkpt lat="40.220933" lon="-4.979817">
        <ele>2015.0</ele>
        <time>2018-09-15T13:03:36Z</time>
      </trkpt>
      <trkpt lat="40.220917" lon="-4.979750">
        <ele>2016.0</ele>
        <time>2018-09-15T13:03:37Z</time>
      </trkpt>
      <trkpt lat="40.220917" lon="-4.979667">
        <ele>2016.0</ele>
        <time>2018-09-15T13:03:38Z</time>
      </trkpt>
      <trkpt lat="40.220950" lon="-4.979583">
        <ele>2016.0</ele>
        <time>2018-09-15T13:03:39Z</time>
      </trkpt>
      <trkpt lat="40.220983" lon="-4.979517">
        <ele>2018.0</ele>
        <time>2018-09-15T13:03:40Z</time>
      </trkpt>
      <trkpt lat="40.221033" lon="-4.979467">
        <ele>2020.0</ele>
        <time>2018-09-15T13:03:41Z</time>
      </trkpt>
      <trkpt lat="40.221133" lon="-4.979450">
        <ele>2021.0</ele>
        <time>2018-09-15T13:03:42Z</time>
      </trkpt>
      <trkpt lat="40.221233" lon="-4.979483">
        <ele>2023.0</ele>
        <time>2018-09-15T13:03:43Z</time>
      </trkpt>
      <trkpt lat="40.221333" lon="-4.979567">
        <ele>2025.0</ele>
        <time>2018-09-15T13:03:44Z</time>
      </trkpt>
      <trkpt lat="40.221433" lon="-4.979667">
        <ele>2030.0</ele>
        <time>2018-09-15T13:03:45Z</time>
      </trkpt>
      <trkpt lat="40.221500" lon="-4.979783">
        <ele>2034.0</ele>
        <time>2018-09-15T13:03:46Z</time>
      </trkpt>
      <trkpt lat="40.221550" lon="-4.979900">
        <ele>2037.0</ele>
        <time>2018-09-15T13:03:47Z</time>
      </trkpt>
      <trkpt lat="40.221583" lon="-4.980033">
        <ele>2038.0</ele>
        <time>2018-09-15T13:03:48Z</time>
      </trkpt>
      <trkpt lat="40.221617" lon="-4.980183">
        <ele>2039.0</ele>
        <time>2018-09-15T13:03:49Z</time>
      </trkpt>
      <trkpt lat="40.221633" lon="-4.980350">
        <ele>2041.0</ele>
        <time>2018-09-15T13:03:50Z</time>
      </trkpt>
      <trkpt lat="40.221633" lon="-4.980517">
        <ele>2042.0</ele>
        <time>2018-09-15T13:03:51Z</time>
      </trkpt>
      <trkpt lat="40.221617" lon="-4.980667">
        <ele>2044.0</ele>
        <time>2018-09-15T13:03:52Z</time>
      </trkpt>
      <trkpt lat="40.221567" lon="-4.980800">
        <ele>2046.0</ele>
        <time>2018-09-15T13:03:53Z</time>
      </trkpt>
      <trkpt lat="40.221517" lon="-4.980917">
        <ele>2047.0</ele>
        <time>2018-09-15T13:03:54Z</time>
      </trkpt>
      <trkpt lat="40.221450" lon="-4.981000">
        <ele>2046.0</ele>
        <time>2018-09-15T13:03:55Z</time>
      </trkpt>
      <trkpt lat="40.221350" lon="-4.981067">
        <ele>2045.0</ele>
        <time>2018-09-15T13:03:56Z</time>
      </trkpt>
      <trkpt lat="40.221217" lon="-4.981117">
        <ele>2045.0</ele>
        <time>2018-09-15T13:03:57Z</time>
      </trkpt>
      <trkpt lat="40.221100" lon="-4.981133">
        <ele>2046.0</ele>
        <time>2018-09-15T13:03:58Z</time>
      </trkpt>
      <trkpt lat="40.221000" lon="-4.981133">
        <ele>2049.0</ele>
        <time>2018-09-15T13:03:59Z</time>
      </trkpt>
      <trkpt lat="40.220933" lon="-4.981133">
        <ele>2052.0</ele>
        <time>2018-09-15T13:04:00Z</time>
      </trkpt>
      <trkpt lat="40.220850" lon="-4.981117">
        <ele>2054.0</ele>
        <time>2018-09-15T13:04:01Z</time>
      </trkpt>
      <trkpt lat="40.220783" lon="-4.981100">
        <ele>2056.0</ele>
        <time>2018-09-15T13:04:02Z</time>
      </trkpt>
      <trkpt lat="40.220733" lon="-4.981083">
        <ele>2058.0</ele>
        <time>2018-09-15T13:04:03Z</time>
      </trkpt>
      <trkpt lat="40.220667" lon="-4.981033">
        <ele>2060.0</ele>
        <time>2018-09-15T13:04:04Z</time>
      </trkpt>
      <trkpt lat="40.220617" lon="-4.980983">
        <ele>2062.0</ele>
        <time>2018-09-15T13:04:05Z</time>
      </trkpt>
      <trkpt lat="40.220583" lon="-4.980917">
        <ele>2065.0</ele>
        <time>2018-09-15T13:04:06Z</time>
      </trkpt>
      <trkpt lat="40.220550" lon="-4.980867">
        <ele>2067.0</ele>
        <time>2018-09-15T13:04:07Z</time>
      </trkpt>
      <trkpt lat="40.220533" lon="-4.980800">
        <ele>2070.0</ele>
        <time>2018-09-15T13:04:08Z</time>
      </trkpt>
      <trkpt lat="40.220550" lon="-4.980750">
        <ele>2072.0</ele>
        <time>2018-09-15T13:04:09Z</time>
      </trkpt>
      <trkpt lat="40.220600" lon="-4.980683">
        <ele>2073.0</ele>
        <time>2018-09-15T13:04:10Z</time>
      </trkpt>
      <trkpt lat="40.220667" lon="-4.980633">
        <ele>2075.0</ele>
        <time>2018-09-15T13:04:11Z</time>
      </trkpt>
      <trkpt lat="40.220750" lon="-4.980600">
        <ele>2078.0</ele>
        <time>2018-09-15T13:04:12Z</time>
      </trkpt>
      <trkpt lat="40.220833" lon="-4.980617">
        <ele>2082.0</ele>
        <time>2018-09-15T13:04:13Z</time>
      </trkpt>
      <trkpt lat="40.220917" lon="-4.980667">
        <ele>2085.0</ele>
        <time>2018-09-15T13:04:14Z</time>
      </trkpt>
      <trkpt lat="40.220983" lon="-4.980750">
        <ele>2088.0</ele>
        <time>2018-09-15T13:04:15Z</time>
      </trkpt>
      <trkpt lat="40.221050" lon="-4.980850">
        <ele>2089.0</ele>
        <time>2018-09-15T13:04:16Z</time>
      </trkpt>
      <trkpt lat="40.221100" lon="-4.980983">
        <ele>2090.0</ele>
        <time>2018-09-15T13:04:17Z</time>
      </trkpt>
      <trkpt lat="40.221150" lon="-4.981133">
        <ele>2093.0</ele>
        <time>2018-09-15T13:04:18Z</time>
      </trkpt>
      <trkpt lat="40.221167" lon="-4.981300">
        <ele>2096.0</ele>
        <time>2018-09-15T13:04:19Z</time>
      </trkpt>
      <trkpt lat="40.221150" lon="-4.981450">
        <ele>2099.0</ele>
        <time>2018-09-15T13:04:20Z</time>
      </trkpt>
      <trkpt lat="40.221117" lon="-4.981600">
        <ele>2101.0</ele>
        <time>2018-09-15T13:04:21Z</time>
      </trkpt>
      <trkpt lat="40.221067" lon="-4.981733">
        <ele>2103.0</ele>
        <time>2018-09-15T13:04:22Z</time>
      </trkpt>
      <trkpt lat="40.221000" lon="-4.981850">
        <ele>2105.0</ele>
        <time>2018-09-15T13:04:23Z</time>
      </trkpt>
      <trkpt lat="40.220933" lon="-4.981950">
        <ele>2107.0</ele>
        <time>2018-09-15T13:04:24Z</time>
      </trkpt>
      <trkpt lat="40.220867" lon="-4.982033">
        <ele>2109.0</ele>
        <time>2018-09-15T13:04:25Z</time>
      </trkpt>
      <trkpt lat="40.220783" lon="-4.982100">
        <ele>2109.0</ele>
        <time>2018-09-15T13:04:26Z</time>
      </trkpt>
      <trkpt lat="40.220683" lon="-4.982133">
        <ele>2110.0</ele>
        <time>2018-09-15T13:04:27Z</time>
      </trkpt>
      <trkpt lat="40.220583" lon="-4.982150">
        <ele>2110.0</ele>
        <time>2018-09-15T13:04:28Z</time>
      </trkpt>
      <trkpt lat="40.220483" lon="-4.982133">
        <ele>2111.0</ele>
        <time>2018-09-15T13:04:29Z</time>
      </trkpt>
      <trkpt lat="40.220383" lon="-4.982100">
        <ele>2115.0</ele>
        <time>2018-09-15T13:04:30Z</time>
      </trkpt>
      <trkpt lat="40.220300" lon="-4.982067">
        <ele>2120.0</ele>
        <time>2018-09-15T13:04:31Z</time>
      </trkpt>
      <trkpt lat="40.220250" lon="-4.982033">
        <ele>2127.0</ele>
        <time>2018-09-15T13:04:32Z</time>
      </trkpt>
      <trkpt lat="40.220217" lon="-4.981983">
        <ele>2132.0</ele>
        <time>2018-09-15T13:04:33Z</time>
      </trkpt>
      <trkpt lat="40.220200" lon="-4.981950">
        <ele>2134.0</ele>
        <time>2018-09-15T13:04:34Z</time>
      </trkpt>
      <trkpt lat="40.220183" lon="-4.981900">
        <ele>2135.0</ele>
        <time>2018-09-15T13:04:35Z</time>
      </trkpt>
      <trkpt lat="40.220150" lon="-4.981833">
        <ele>2135.0</ele>
        <time>2018-09-15T13:04:36Z</time>
      </trkpt>
      <trkpt lat="40.220117" lon="-4.981767">
        <ele>2135.0</ele>
        <time>2018-09-15T13:04:37Z</time>
      </trkpt>
      <trkpt lat="40.220100" lon="-4.981683">
        <ele>2137.0</ele>
        <time>2018-09-15T13:04:38Z</time>
      </trkpt>
      <trkpt lat="40.220117" lon="-4.981583">
        <ele>2138.0</ele>
        <time>2018-09-15T13:04:39Z</time>
      </trkpt>
      <trkpt lat="40.220167" lon="-4.981500">
        <ele>2140.0</ele>
        <time>2018-09-15T13:04:40Z</time>
      </trkpt>
      <trkpt lat="40.220250" lon="-4.981450">
        <ele>2144.0</ele>
        <time>2018-09-15T13:04:41Z</time>
      </trkpt>
      <trkpt lat="40.220317" lon="-4.981450">
        <ele>2150.0</ele>
        <time>2018-09-15T13:04:42Z</time>
      </trkpt>
      <trkpt lat="40.220367" lon="-4.981483">
        <ele>2156.0</ele>
        <time>2018-09-15T13:04:43Z</time>
      </trkpt>
      <trkpt lat="40.220417" lon="-4.981517">
        <ele>2160.0</ele>
        <time>2018-09-15T13:04:44Z</time>
      </trkpt>
      <trkpt lat="40.220467" lon="-4.981567">
        <ele>2163.0</ele>
        <time>2018-09-15T13:04:45Z</time>
      </trkpt>
      <trkpt lat="40.220517" lon="-4.981617">
        <ele>2165.0</ele>
        <time>2018-09-15T13:04:46Z</time>
      </trkpt>
      <trkpt lat="40.220600" lon="-4.981667">
        <ele>2166.0</ele>
        <time>2018-09-15T13:04:47Z</time>
      </trkpt>
      <trkpt lat="40.220700" lon="-4.981750">
        <ele>2166.0</ele>
        <time>2018-09-15T13:04:48Z</time>
      </trkpt>
      <trkpt lat="40.220800" lon="-4.981867">
        <ele>2169.0</ele>
        <time>2018-09-15T13:04:49Z</time>
      </trkpt>
      <trkpt lat="40.220867" lon="-4.982000">
        <ele>2175.0</ele>
        <time>2018-09-15T13:04:50Z</time>
      </trkpt>
      <trkpt lat="40.220900" lon="-4.982133">
        <ele>2180.0</ele>
        <time>2018-09-15T13:04:51Z</time>
      </trkpt>
      <trkpt lat="40.220933" lon="-4.982283">
        <ele>2184.0</ele>
        <time>2018-09-15T13:04:52Z</time>
      </trkpt>
      <trkpt lat="40.220950" lon="-4.982417">
        <ele>2186.0</ele>
        <time>2018-09-15T13:04:53Z</time>
      </trkpt>
      <trkpt lat="40.220967" lon="-4.982567">
        <ele>2188.0</ele>
        <time>2018-09-15T13:04:54Z</time>
      </trkpt>
      <trkpt lat="40.221000" lon="-4.982733">
        <ele>2191.0</ele>
        <time>2018-09-15T13:04:55Z</time>
      </trkpt>
      <trkpt lat="40.221000" lon="-4.982867">
        <ele>2193.0</ele>
        <time>2018-09-15T13:04:56Z</time>
      </trkpt>
      <trkpt lat="40.220967" lon="-4.982983">
        <ele>2194.0</ele>
        <time>2018-09-15T13:04:57Z</time>
      </trkpt>
      <trkpt lat="40.220917" lon="-4.983083">
        <ele>2194.0</ele>
        <time>2018-09-15T13:04:58Z</time>
      </trkpt>
      <trkpt lat="40.220850" lon="-4.983183">
        <ele>2195.0</ele>
        <time>2018-09-15T13:04:59Z</time>
      </trkpt>
      <trkpt lat="40.220750" lon="-4.983250">
        <ele>2195.0</ele>
        <time>2018-09-15T13:05:00Z</time>
      </trkpt>
      <trkpt lat="40.220650" lon="-4.983300">
        <ele>2197.0</ele>
        <time>2018-09-15T13:05:01Z</time>
      </trkpt>
      <trkpt lat="40.220550" lon="-4.983317">
        <ele>2197.0</ele>
        <time>2018-09-15T13:05:02Z</time>
      </trkpt>
      <trkpt lat="40.220433" lon="-4.983300">
        <ele>2199.0</ele>
        <time>2018-09-15T13:05:03Z</time>
      </trkpt>
      <trkpt lat="40.220333" lon="-4.983250">
        <ele>2203.0</ele>
        <time>2018-09-15T13:05:04Z</time>
      </trkpt>
      <trkpt lat="40.220250" lon="-4.983200">
        <ele>2208.0</ele>
        <time>2018-09-15T13:05:05Z</time>
      </trkpt>
      <trkpt lat="40.220200" lon="-4.983133">
        <ele>2213.0</ele>
        <time>2018-09-15T13:05:06Z</time>
      </trkpt>
      <trkpt lat="40.220150" lon="-4.983083">
        <ele>2218.0</ele>
        <time>2018-09-15T13:05:07Z</time>
      </trkpt>
      <trkpt lat="40.220117" lon="-4.983033">
        <ele>2222.0</ele>
        <time>2018-09-15T13:05:08Z</time>
      </trkpt>
      <trkpt lat="40.220067" lon="-4.982983">
        <ele>2225.0</ele>
        <time>2018-09-15T13:05:09Z</time>
      </trkpt>
      <trkpt lat="40.220033" lon="-4.982917">
        <ele>2228.0</ele>
        <time>2018-09-15T13:05:10Z</time>
      </trkpt>
      <trkpt lat="40.220000" lon="-4.982833">
        <ele>2231.0</ele>
        <time>2018-09-15T13:05:11Z</time>
      </trkpt>
      <trkpt lat="40.219983" lon="-4.982750">
        <ele>2234.0</ele>
        <time>2018-09-15T13:05:12Z</time>
      </trkpt>
      <trkpt lat="40.219983" lon="-4.982683">
        <ele>2237.0</ele>
        <time>2018-09-15T13:05:13Z</time>
      </trkpt>
      <trkpt lat="40.220017" lon="-4.982617">
        <ele>2240.0</ele>
        <time>2018-09-15T13:05:14Z</time>
      </trkpt>
      <trkpt lat="40.220050" lon="-4.982567">
        <ele>2242.0</ele>
        <time>2018-09-15T13:05:15Z</time>
      </trkpt>
      <trkpt lat="40.220117" lon="-4.982533">
        <ele>2243.0</ele>
        <time>2018-09-15T13:05:16Z</time>
      </trkpt>
      <trkpt lat="40.220183" lon="-4.982517">
        <ele>2243.0</ele>
        <time>2018-09-15T13:05:17Z</time>
      </trkpt>
      <trkpt lat="40.220267" lon="-4.982517">
        <ele>2244.0</ele>
        <time>2018-09-15T13:05:18Z</time>
      </trkpt>
      <trkpt lat="40.220350" lon="-4.982550">
        <ele>2244.0</ele>
        <time>2018-09-15T13:05:19Z</time>
      </trkpt>
      <trkpt lat="40.220450" lon="-4.982617">
        <ele>2245.0</ele>
        <time>2018-09-15T13:05:20Z</time>
      </trkpt>
      <trkpt lat="40.220550" lon="-4.982683">
        <ele>2248.0</ele>
        <time>2018-09-15T13:05:21Z</time>
      </trkpt>
      <trkpt lat="40.220633" lon="-4.982767">
        <ele>2252.0</ele>
        <time>2018-09-15T13:05:22Z</time>
      </trkpt>
      <trkpt lat="40.220683" lon="-4.982833">
        <ele>2258.0</ele>
        <time>2018-09-15T13:05:23Z</time>
      </trkpt>
      <trkpt lat="40.220717" lon="-4.982917">
        <ele>2262.0</ele>
        <time>2018-09-15T13:05:24Z</time>
      </trkpt>
      <trkpt lat="40.220767" lon="-4.982983">
        <ele>2264.0</ele>
        <time>2018-09-15T13:05:25Z</time>
      </trkpt>
      <trkpt lat="40.220800" lon="-4.983067">
        <ele>2264.0</ele>
        <time>2018-09-15T13:05:26Z</time>
      </trkpt>
      <trkpt lat="40.220833" lon="-4.983167">
        <ele>2264.0</ele>
        <time>2018-09-15T13:05:27Z</time>
      </trkpt>
      <trkpt lat="40.220883" lon="-4.983300">
        <ele>2264.0</ele>
        <time>2018-09-15T13:05:28Z</time>
      </trkpt>
      <trkpt lat="40.220883" lon="-4.983450">
        <ele>2264.0</ele>
        <time>2018-09-15T13:05:29Z</time>
      </trkpt>
      <trkpt lat="40.220867" lon="-4.983583">
        <ele>2266.0</ele>
        <time>2018-09-15T13:05:30Z</time>
      </trkpt>
      <trkpt lat="40.220833" lon="-4.983700">
        <ele>2268.0</ele>
        <time>2018-09-15T13:05:31Z</time>
      </trkpt>
      <trkpt lat="40.220800" lon="-4.983800">
        <ele>2269.0</ele>
        <time>2018-09-15T13:05:32Z</time>
      </trkpt>
      <trkpt lat="40.220750" lon="-4.983900">
        <ele>2270.0</ele>
        <time>2018-09-15T13:05:33Z</time>
      </trkpt>
      <trkpt lat="40.220683" lon="-4.983983">
        <ele>2269.0</ele>
        <time>2018-09-15T13:05:34Z</time>
      </trkpt>
      <trkpt lat="40.220600" lon="-4.984083">
        <ele>2269.0</ele>
        <time>2018-09-15T13:05:35Z</time>
      </trkpt>
      <trkpt lat="40.220517" lon="-4.984183">
        <ele>2269.0</ele>
        <time>2018-09-15T13:05:36Z</time>
      </trkpt>
      <trkpt lat="40.220433" lon="-4.984267">
        <ele>2270.0</ele>
        <time>2018-09-15T13:05:37Z</time>
      </trkpt>
      <trkpt lat="40.220333" lon="-4.984367">
        <ele>2271.0</ele>
        <time>2018-09-15T13:05:38Z</time>
      </trkpt>
      <trkpt lat="40.220267" lon="-4.984433">
        <ele>2273.0</ele>
        <time>2018-09-15T13:05:39Z</time>
      </trkpt>
      <trkpt lat="40.220183" lon="-4.984517">
        <ele>2274.0</ele>
        <time>2018-09-15T13:05:40Z</time>
      </trkpt>
      <trkpt lat="40.220117" lon="-4.984583">
        <ele>2275.0</ele>
        <time>2018-09-15T13:05:41Z</time>
      </trkpt>
      <trkpt lat="40.220033" lon="-4.984650">
        <ele>2276.0</ele>
        <time>2018-09-15T13:05:42Z</time>
      </trkpt>
      <trkpt lat="40.219950" lon="-4.984733">
        <ele>2277.0</ele>
        <time>2018-09-15T13:05:43Z</time>
      </trkpt>
      <trkpt lat="40.219867" lon="-4.984817">
        <ele>2278.0</ele>
        <time>2018-09-15T13:05:44Z</time>
      </trkpt>
      <trkpt lat="40.219783" lon="-4.984917">
        <ele>2280.0</ele>
        <time>2018-09-15T13:05:45Z</time>
      </trkpt>
      <trkpt lat="40.219717" lon="-4.985033">
        <ele>2282.0</ele>
        <time>2018-09-15T13:05:46Z</time>
      </trkpt>
      <trkpt lat="40.219650" lon="-4.985133">
        <ele>2284.0</ele>
        <time>2018-09-15T13:05:47Z</time>
      </trkpt>
      <trkpt lat="40.219567" lon="-4.985233">
        <ele>2286.0</ele>
        <time>2018-09-15T13:05:48Z</time>
      </trkpt>
      <trkpt lat="40.219500" lon="-4.985333">
        <ele>2288.0</ele>
        <time>2018-09-15T13:05:49Z</time>
      </trkpt>
      <trkpt lat="40.219433" lon="-4.985433">
        <ele>2290.0</ele>
        <time>2018-09-15T13:05:50Z</time>
      </trkpt>
      <trkpt lat="40.219350" lon="-4.985533">
        <ele>2291.0</ele>
        <time>2018-09-15T13:05:51Z</time>
      </trkpt>
      <trkpt lat="40.219267" lon="-4.985650">
        <ele>2293.0</ele>
        <time>2018-09-15T13:05:52Z</time>
      </trkpt>
      <trkpt lat="40.219183" lon="-4.985733">
        <ele>2295.0</ele>
        <time>2018-09-15T13:05:53Z</time>
      </trkpt>
      <trkpt lat="40.219083" lon="-4.985800">
        <ele>2297.0</ele>
        <time>2018-09-15T13:05:54Z</time>
      </trkpt>
      <trkpt lat="40.219000" lon="-4.985867">
        <ele>2299.0</ele>
        <time>2018-09-15T13:05:55Z</time>
      </trkpt>
      <trkpt lat="40.218917" lon="-4.985950">
        <ele>2301.0</ele>
        <time>2018-09-15T13:05:56Z</time>
      </trkpt>
      <trkpt lat="40.218833" lon="-4.986033">
        <ele>2303.0</ele>
        <time>2018-09-15T13:05:57Z</time>
      </trkpt>
      <trkpt lat="40.218733" lon="-4.986117">
        <ele>2304.0</ele>
        <time>2018-09-15T13:05:58Z</time>
      </trkpt>
      <trkpt lat="40.218633" lon="-4.986200">
        <ele>2305.0</ele>
        <time>2018-09-15T13:05:59Z</time>
      </trkpt>
      <trkpt lat="40.218533" lon="-4.986317">
        <ele>2307.0</ele>
        <time>2018-09-15T13:06:00Z</time>
      </trkpt>
      <trkpt lat="40.218450" lon="-4.986450">
        <ele>2308.0</ele>
        <time>2018-09-15T13:06:01Z</time>
      </trkpt>
      <trkpt lat="40.218367" lon="-4.986583">
        <ele>2308.0</ele>
        <time>2018-09-15T13:06:02Z</time>
      </trkpt>
      <trkpt lat="40.218300" lon="-4.986733">
        <ele>2309.0</ele>
        <time>2018-09-15T13:06:03Z</time>
      </trkpt>
      <trkpt lat="40.218233" lon="-4.986867">
        <ele>2310.0</ele>
        <time>2018-09-15T13:06:04Z</time>
      </trkpt>
      <trkpt lat="40.218133" lon="-4.986983">
        <ele>2310.0</ele>
        <time>2018-09-15T13:06:05Z</time>
      </trkpt>
      <trkpt lat="40.218033" lon="-4.987100">
        <ele>2310.0</ele>
        <time>2018-09-15T13:06:06Z</time>
      </trkpt>
      <trkpt lat="40.217933" lon="-4.987200">
        <ele>2310.0</ele>
        <time>2018-09-15T13:06:07Z</time>
      </trkpt>
      <trkpt lat="40.217833" lon="-4.987317">
        <ele>2311.0</ele>
        <time>2018-09-15T13:06:08Z</time>
      </trkpt>
      <trkpt lat="40.217733" lon="-4.987433">
        <ele>2312.0</ele>
        <time>2018-09-15T13:06:09Z</time>
      </trkpt>
      <trkpt lat="40.217617" lon="-4.987550">
        <ele>2314.0</ele>
        <time>2018-09-15T13:06:10Z</time>
      </trkpt>
      <trkpt lat="40.217533" lon="-4.987650">
        <ele>2315.0</ele>
        <time>2018-09-15T13:06:11Z</time>
      </trkpt>
      <trkpt lat="40.217450" lon="-4.987750">
        <ele>2317.0</ele>
        <time>2018-09-15T13:06:12Z</time>
      </trkpt>
      <trkpt lat="40.217367" lon="-4.987850">
        <ele>2318.0</ele>
        <time>2018-09-15T13:06:13Z</time>
      </trkpt>
      <trkpt lat="40.217283" lon="-4.987950">
        <ele>2318.0</ele>
        <time>2018-09-15T13:06:14Z</time>
      </trkpt>
      <trkpt lat="40.217200" lon="-4.988067">
        <ele>2316.0</ele>
        <time>2018-09-15T13:06:15Z</time>
      </trkpt>
      <trkpt lat="40.217117" lon="-4.988183">
        <ele>2314.0</ele>
        <time>2018-09-15T13:06:16Z</time>
      </trkpt>
      <trkpt lat="40.217033" lon="-4.988283">
        <ele>2312.0</ele>
        <time>2018-09-15T13:06:17Z</time>
      </trkpt>
      <trkpt lat="40.216950" lon="-4.988400">
        <ele>2310.0</ele>
        <time>2018-09-15T13:06:18Z</time>
      </trkpt>
      <trkpt lat="40.216883" lon="-4.988500">
        <ele>2308.0</ele>
        <time>2018-09-15T13:06:19Z</time>
      </trkpt>
      <trkpt lat="40.216800" lon="-4.988633">
        <ele>2304.0</ele>
        <time>2018-09-15T13:06:20Z</time>
      </trkpt>
      <trkpt lat="40.216717" lon="-4.988750">
        <ele>2301.0</ele>
        <time>2018-09-15T13:06:21Z</time>
      </trkpt>
      <trkpt lat="40.216633" lon="-4.988867">
        <ele>2297.0</ele>
        <time>2018-09-15T13:06:22Z</time>
      </trkpt>
      <trkpt lat="40.216550" lon="-4.989000">
        <ele>2294.0</ele>
        <time>2018-09-15T13:06:23Z</time>
      </trkpt>
      <trkpt lat="40.216450" lon="-4.989133">
        <ele>2293.0</ele>
        <time>2018-09-15T13:06:24Z</time>
      </trkpt>
      <trkpt lat="40.216350" lon="-4.989267">
        <ele>2293.0</ele>
        <time>2018-09-15T13:06:25Z</time>
      </trkpt>
      <trkpt lat="40.216267" lon="-4.989383">
        <ele>2294.0</ele>
        <time>2018-09-15T13:06:26Z</time>
      </trkpt>
      <trkpt lat="40.216183" lon="-4.989483">
        <ele>2293.0</ele>
        <time>2018-09-15T13:06:27Z</time>
      </trkpt>
      <trkpt lat="40.216100" lon="-4.989583">
        <ele>2291.0</ele>
        <time>2018-09-15T13:06:28Z</time>
      </trkpt>
      <trkpt lat="40.216000" lon="-4.989683">
        <ele>2289.0</ele>
        <time>2018-09-15T13:06:29Z</time>
      </trkpt>
      <trkpt lat="40.215900" lon="-4.989800">
        <ele>2287.0</ele>
        <time>2018-09-15T13:06:30Z</time>
      </trkpt>
      <trkpt lat="40.215817" lon="-4.989933">
        <ele>2287.0</ele>
        <time>2018-09-15T13:06:31Z</time>
      </trkpt>
      <trkpt lat="40.215733" lon="-4.990067">
        <ele>2286.0</ele>
        <time>2018-09-15T13:06:32Z</time>
      </trkpt>
      <trkpt lat="40.215667" lon="-4.990200">
        <ele>2285.0</ele>
        <time>2018-09-15T13:06:33Z</time>
      </trkpt>
      <trkpt lat="40.215617" lon="-4.990333">
        <ele>2284.0</ele>
        <time>2018-09-15T13:06:34Z</time>
      </trkpt>
      <trkpt lat="40.215533" lon="-4.990467">
        <ele>2281.0</ele>
        <time>2018-09-15T13:06:35Z</time>
      </trkpt>
      <trkpt lat="40.215450" lon="-4.990617">
        <ele>2279.0</ele>
        <time>2018-09-15T13:06:36Z</time>
      </trkpt>
      <trkpt lat="40.215367" lon="-4.990750">
        <ele>2277.0</ele>
        <time>2018-09-15T13:06:37Z</time>
      </trkpt>
      <trkpt lat="40.215283" lon="-4.990900">
        <ele>2275.0</ele>
        <time>2018-09-15T13:06:38Z</time>
      </trkpt>
      <trkpt lat="40.215200" lon="-4.991033">
        <ele>2275.0</ele>
        <time>2018-09-15T13:06:39Z</time>
      </trkpt>
      <trkpt lat="40.215117" lon="-4.991167">
        <ele>2274.0</ele>
        <time>2018-09-15T13:06:40Z</time>
      </trkpt>
      <trkpt lat="40.215050" lon="-4.991300">
        <ele>2272.0</ele>
        <time>2018-09-15T13:06:41Z</time>
      </trkpt>
      <trkpt lat="40.214967" lon="-4.991450">
        <ele>2271.0</ele>
        <time>2018-09-15T13:06:42Z</time>
      </trkpt>
      <trkpt lat="40.214867" lon="-4.991583">
        <ele>2268.0</ele>
        <time>2018-09-15T13:06:43Z</time>
      </trkpt>
      <trkpt lat="40.214783" lon="-4.991717">
        <ele>2266.0</ele>
        <time>2018-09-15T13:06:44Z</time>
      </trkpt>
      <trkpt lat="40.214700" lon="-4.991833">
        <ele>2263.0</ele>
        <time>2018-09-15T13:06:45Z</time>
      </trkpt>
      <trkpt lat="40.214617" lon="-4.991950">
        <ele>2260.0</ele>
        <time>2018-09-15T13:06:46Z</time>
      </trkpt>
      <trkpt lat="40.214533" lon="-4.992067">
        <ele>2256.0</ele>
        <time>2018-09-15T13:06:47Z</time>
      </trkpt>
      <trkpt lat="40.214450" lon="-4.992200">
        <ele>2253.0</ele>
        <time>2018-09-15T13:06:48Z</time>
      </trkpt>
      <trkpt lat="40.214350" lon="-4.992350">
        <ele>2250.0</ele>
        <time>2018-09-15T13:06:49Z</time>
      </trkpt>
      <trkpt lat="40.214283" lon="-4.992500">
        <ele>2248.0</ele>
        <time>2018-09-15T13:06:50Z</time>
      </trkpt>
      <trkpt lat="40.214217" lon="-4.992650">
        <ele>2245.0</ele>
        <time>2018-09-15T13:06:51Z</time>
      </trkpt>
      <trkpt lat="40.214150" lon="-4.992783">
        <ele>2243.0</ele>
        <time>2018-09-15T13:06:52Z</time>
      </trkpt>
      <trkpt lat="40.214083" lon="-4.992917">
        <ele>2241.0</ele>
        <time>2018-09-15T13:06:53Z</time>
      </trkpt>
      <trkpt lat="40.214000" lon="-4.993050">
        <ele>2238.0</ele>
        <time>2018-09-15T13:06:54Z</time>
      </trkpt>
      <trkpt lat="40.213900" lon="-4.993183">
        <ele>2235.0</ele>
        <time>2018-09-15T13:06:55Z</time>
      </trkpt>
      <trkpt lat="40.213800" lon="-4.993300">
        <ele>2233.0</ele>
        <time>2018-09-15T13:06:56Z</time>
      </trkpt>
      <trkpt lat="40.213717" lon="-4.993450">
        <ele>2231.0</ele>
        <time>2018-09-15T13:06:57Z</time>
      </trkpt>
      <trkpt lat="40.213633" lon="-4.993600">
        <ele>2229.0</ele>
        <time>2018-09-15T13:06:58Z</time>
      </trkpt>
      <trkpt lat="40.213567" lon="-4.993750">
        <ele>2227.0</ele>
        <time>2018-09-15T13:06:59Z</time>
      </trkpt>
      <trkpt lat="40.213483" lon="-4.993900">
        <ele>2226.0</ele>
        <time>2018-09-15T13:07:00Z</time>
      </trkpt>
      <trkpt lat="40.213417" lon="-4.994050">
        <ele>2225.0</ele>
        <time>2018-09-15T13:07:01Z</time>
      </trkpt>
      <trkpt lat="40.213333" lon="-4.994200">
        <ele>2223.0</ele>
        <time>2018-09-15T13:07:02Z</time>
      </trkpt>
      <trkpt lat="40.213250" lon="-4.994367">
        <ele>2221.0</ele>
        <time>2018-09-15T13:07:03Z</time>
      </trkpt>
      <trkpt lat="40.213167" lon="-4.994533">
        <ele>2220.0</ele>
        <time>2018-09-15T13:07:04Z</time>
      </trkpt>
      <trkpt lat="40.213083" lon="-4.994683">
        <ele>2220.0</ele>
        <time>2018-09-15T13:07:05Z</time>
      </trkpt>
      <trkpt lat="40.213000" lon="-4.994833">
        <ele>2221.0</ele>
        <time>2018-09-15T13:07:06Z</time>
      </trkpt>
      <trkpt lat="40.212950" lon="-4.994950">
        <ele>2221.0</ele>
        <time>2018-09-15T13:07:07Z</time>
      </trkpt>
      <trkpt lat="40.212900" lon="-4.995083">
        <ele>2219.0</ele>
        <time>2018-09-15T13:07:08Z</time>
      </trkpt>
      <trkpt lat="40.212867" lon="-4.995217">
        <ele>2217.0</ele>
        <time>2018-09-15T13:07:09Z</time>
      </trkpt>
      <trkpt lat="40.212817" lon="-4.995367">
        <ele>2213.0</ele>
        <time>2018-09-15T13:07:10Z</time>
      </trkpt>
      <trkpt lat="40.212733" lon="-4.995500">
        <ele>2209.0</ele>
        <time>2018-09-15T13:07:11Z</time>
      </trkpt>
      <trkpt lat="40.212650" lon="-4.995633">
        <ele>2205.0</ele>
        <time>2018-09-15T13:07:12Z</time>
      </trkpt>
      <trkpt lat="40.212550" lon="-4.995767">
        <ele>2202.0</ele>
        <time>2018-09-15T13:07:13Z</time>
      </trkpt>
      <trkpt lat="40.212467" lon="-4.995900">
        <ele>2199.0</ele>
        <time>2018-09-15T13:07:14Z</time>
      </trkpt>
      <trkpt lat="40.212383" lon="-4.996033">
        <ele>2196.0</ele>
        <time>2018-09-15T13:07:15Z</time>
      </trkpt>
      <trkpt lat="40.212300" lon="-4.996167">
        <ele>2193.0</ele>
        <time>2018-09-15T13:07:16Z</time>
      </trkpt>
      <trkpt lat="40.212233" lon="-4.996300">
        <ele>2189.0</ele>
        <time>2018-09-15T13:07:17Z</time>
      </trkpt>
      <trkpt lat="40.212150" lon="-4.996450">
        <ele>2186.0</ele>
        <time>2018-09-15T13:07:18Z</time>
      </trkpt>
      <trkpt lat="40.212067" lon="-4.996583">
        <ele>2183.0</ele>
        <time>2018-09-15T13:07:19Z</time>
      </trkpt>
      <trkpt lat="40.211967" lon="-4.996717">
        <ele>2181.0</ele>
        <time>2018-09-15T13:07:20Z</time>
      </trkpt>
      <trkpt lat="40.211883" lon="-4.996850">
        <ele>2179.0</ele>
        <time>2018-09-15T13:07:21Z</time>
      </trkpt>
      <trkpt lat="40.211800" lon="-4.996983">
        <ele>2179.0</ele>
        <time>2018-09-15T13:07:22Z</time>
      </trkpt>
      <trkpt lat="40.211733" lon="-4.997100">
        <ele>2178.0</ele>
        <time>2018-09-15T13:07:23Z</time>
      </trkpt>
      <trkpt lat="40.211667" lon="-4.997217">
        <ele>2177.0</ele>
        <time>2018-09-15T13:07:24Z</time>
      </trkpt>
      <trkpt lat="40.211600" lon="-4.997333">
        <ele>2175.0</ele>
        <time>2018-09-15T13:07:25Z</time>
      </trkpt>
      <trkpt lat="40.211533" lon="-4.997467">
        <ele>2173.0</ele>
        <time>2018-09-15T13:07:26Z</time>
      </trkpt>
      <trkpt lat="40.211450" lon="-4.997583">
        <ele>2170.0</ele>
        <time>2018-09-15T13:07:27Z</time>
      </trkpt>
      <trkpt lat="40.211367" lon="-4.997700">
        <ele>2169.0</ele>
        <time>2018-09-15T13:07:28Z</time>
      </trkpt>
      <trkpt lat="40.211283" lon="-4.997800">
        <ele>2168.0</ele>
        <time>2018-09-15T13:07:29Z</time>
      </trkpt>
      <trkpt lat="40.211183" lon="-4.997883">
        <ele>2166.0</ele>
        <time>2018-09-15T13:07:30Z</time>
      </trkpt>
      <trkpt lat="40.211083" lon="-4.997950">
        <ele>2165.0</ele>
        <time>2018-09-15T13:07:31Z</time>
      </trkpt>
      <trkpt lat="40.210983" lon="-4.998017">
        <ele>2165.0</ele>
        <time>2018-09-15T13:07:32Z</time>
      </trkpt>
      <trkpt lat="40.210883" lon="-4.998083">
        <ele>2163.0</ele>
        <time>2018-09-15T13:07:33Z</time>
      </trkpt>
      <trkpt lat="40.210800" lon="-4.998150">
        <ele>2162.0</ele>
        <time>2018-09-15T13:07:34Z</time>
      </trkpt>
      <trkpt lat="40.210700" lon="-4.998233">
        <ele>2160.0</ele>
        <time>2018-09-15T13:07:35Z</time>
      </trkpt>
      <trkpt lat="40.210617" lon="-4.998317">
        <ele>2159.0</ele>
        <time>2018-09-15T13:07:36Z</time>
      </trkpt>
      <trkpt lat="40.210533" lon="-4.998417">
        <ele>2156.0</ele>
        <time>2018-09-15T13:07:37Z</time>
      </trkpt>
      <trkpt lat="40.210450" lon="-4.998533">
        <ele>2154.0</ele>
        <time>2018-09-15T13:07:38Z</time>
      </trkpt>
      <trkpt lat="40.210350" lon="-4.998633">
        <ele>2152.0</ele>
        <time>2018-09-15T13:07:39Z</time>
      </trkpt>
      <trkpt lat="40.210267" lon="-4.998750">
        <ele>2151.0</ele>
        <time>2018-09-15T13:07:40Z</time>
      </trkpt>
      <trkpt lat="40.210183" lon="-4.998850">
        <ele>2151.0</ele>
        <time>2018-09-15T13:07:41Z</time>
      </trkpt>
      <trkpt lat="40.210100" lon="-4.998967">
        <ele>2151.0</ele>
        <time>2018-09-15T13:07:42Z</time>
      </trkpt>
      <trkpt lat="40.210050" lon="-4.999067">
        <ele>2150.0</ele>
        <time>2018-09-15T13:07:43Z</time>
      </trkpt>
      <trkpt lat="40.209983" lon="-4.999167">
        <ele>2148.0</ele>
        <time>2018-09-15T13:07:44Z</time>
      </trkpt>
      <trkpt lat="40.209917" lon="-4.999283">
        <ele>2146.0</ele>
        <time>2018-09-15T13:07:45Z</time>
      </trkpt>
      <trkpt lat="40.209850" lon="-4.999383">
        <ele>2143.0</ele>
        <time>2018-09-15T13:07:46Z</time>
      </trkpt>
      <trkpt lat="40.209783" lon="-4.999500">
        <ele>2141.0</ele>
        <time>2018-09-15T13:07:47Z</time>
      </trkpt>
      <trkpt lat="40.209717" lon="-4.999617">
        <ele>2139.0</ele>
        <time>2018-09-15T13:07:48Z</time>
      </trkpt>
      <trkpt lat="40.209650" lon="-4.999733">
        <ele>2137.0</ele>
        <time>2018-09-15T13:07:49Z</time>
      </trkpt>
      <trkpt lat="40.209583" lon="-4.999850">
        <ele>2135.0</ele>
        <time>2018-09-15T13:07:50Z</time>
      </trkpt>
      <trkpt lat="40.209533" lon="-4.999967">
        <ele>2133.0</ele>
        <time>2018-09-15T13:07:51Z</time>
      </trkpt>
      <trkpt lat="40.209467" lon="-5.000083">
        <ele>2130.0</ele>
        <time>2018-09-15T13:07:52Z</time>
      </trkpt>
      <trkpt lat="40.209417" lon="-5.000217">
        <ele>2128.0</ele>
        <time>2018-09-15T13:07:53Z</time>
      </trkpt>
      <trkpt lat="40.209350" lon="-5.000333">
        <ele>2126.0</ele>
        <time>2018-09-15T13:07:54Z</time>
      </trkpt>
      <trkpt lat="40.209283" lon="-5.000450">
        <ele>2124.0</ele>
        <time>2018-09-15T13:07:55Z</time>
      </trkpt>
      <trkpt lat="40.209200" lon="-5.000567">
        <ele>2122.0</ele>
        <time>2018-09-15T13:07:56Z</time>
      </trkpt>
      <trkpt lat="40.209150" lon="-5.000683">
        <ele>2120.0</ele>
        <time>2018-09-15T13:07:57Z</time>
      </trkpt>
      <trkpt lat="40.209083" lon="-5.000783">
        <ele>2118.0</ele>
        <time>2018-09-15T13:07:58Z</time>
      </trkpt>
      <trkpt lat="40.209033" lon="-5.000900">
        <ele>2116.0</ele>
        <time>2018-09-15T13:07:59Z</time>
      </trkpt>
      <trkpt lat="40.208967" lon="-5.001017">
        <ele>2114.0</ele>
        <time>2018-09-15T13:08:00Z</time>
      </trkpt>
      <trkpt lat="40.208917" lon="-5.001133">
        <ele>2113.0</ele>
        <time>2018-09-15T13:08:01Z</time>
      </trkpt>
      <trkpt lat="40.208867" lon="-5.001250">
        <ele>2112.0</ele>
        <time>2018-09-15T13:08:02Z</time>
      </trkpt>
      <trkpt lat="40.208817" lon="-5.001367">
        <ele>2110.0</ele>
        <time>2018-09-15T13:08:03Z</time>
      </trkpt>
      <trkpt lat="40.208767" lon="-5.001467">
        <ele>2109.0</ele>
        <time>2018-09-15T13:08:04Z</time>
      </trkpt>
      <trkpt lat="40.208717" lon="-5.001567">
        <ele>2107.0</ele>
        <time>2018-09-15T13:08:05Z</time>
      </trkpt>
      <trkpt lat="40.208667" lon="-5.001683">
        <ele>2104.0</ele>
        <time>2018-09-15T13:08:06Z</time>
      </trkpt>
      <trkpt lat="40.208600" lon="-5.001800">
        <ele>2101.0</ele>
        <time>2018-09-15T13:08:07Z</time>
      </trkpt>
      <trkpt lat="40.208517" lon="-5.001917">
        <ele>2098.0</ele>
        <time>2018-09-15T13:08:08Z</time>
      </trkpt>
      <trkpt lat="40.208433" lon="-5.002050">
        <ele>2096.0</ele>
        <time>2018-09-15T13:08:09Z</time>
      </trkpt>
      <trkpt lat="40.208350" lon="-5.002183">
        <ele>2098.0</ele>
        <time>2018-09-15T13:08:10Z</time>
      </trkpt>
      <trkpt lat="40.208283" lon="-5.002283">
        <ele>2102.0</ele>
        <time>2018-09-15T13:08:11Z</time>
      </trkpt>
      <trkpt lat="40.208233" lon="-5.002350">
        <ele>2106.0</ele>
        <time>2018-09-15T13:08:12Z</time>
      </trkpt>
      <trkpt lat="40.208183" lon="-5.002400">
        <ele>2107.0</ele>
        <time>2018-09-15T13:08:13Z</time>
      </trkpt>
      <trkpt lat="40.208133" lon="-5.002467">
        <ele>2107.0</ele>
        <time>2018-09-15T13:08:14Z</time>
      </trkpt>
      <trkpt lat="40.208100" lon="-5.002533">
        <ele>2107.0</ele>
        <time>2018-09-15T13:08:15Z</time>
      </trkpt>
      <trkpt lat="40.208033" lon="-5.002617">
        <ele>2107.0</ele>
        <time>2018-09-15T13:08:16Z</time>
      </trkpt>
      <trkpt lat="40.207983" lon="-5.002700">
        <ele>2106.0</ele>
        <time>2018-09-15T13:08:17Z</time>
      </trkpt>
      <trkpt lat="40.207917" lon="-5.002800">
        <ele>2108.0</ele>
        <time>2018-09-15T13:08:18Z</time>
      </trkpt>
      <trkpt lat="40.207867" lon="-5.002900">
        <ele>2109.0</ele>
        <time>2018-09-15T13:08:19Z</time>
      </trkpt>
      <trkpt lat="40.207833" lon="-5.003000">
        <ele>2111.0</ele>
        <time>2018-09-15T13:08:20Z</time>
      </trkpt>
      <trkpt lat="40.207783" lon="-5.003100">
        <ele>2112.0</ele>
        <time>2018-09-15T13:08:21Z</time>
      </trkpt>
      <trkpt lat="40.207750" lon="-5.003217">
        <ele>2112.0</ele>
        <time>2018-09-15T13:08:22Z</time>
      </trkpt>
      <trkpt lat="40.207717" lon="-5.003333">
        <ele>2112.0</ele>
        <time>2018-09-15T13:08:23Z</time>
      </trkpt>
      <trkpt lat="40.207667" lon="-5.003483">
        <ele>2113.0</ele>
        <time>2018-09-15T13:08:24Z</time>
      </trkpt>
      <trkpt lat="40.207617" lon="-5.003617">
        <ele>2114.0</ele>
        <time>2018-09-15T13:08:25Z</time>
      </trkpt>
      <trkpt lat="40.207567" lon="-5.003750">
        <ele>2116.0</ele>
        <time>2018-09-15T13:08:26Z</time>
      </trkpt>
      <trkpt lat="40.207533" lon="-5.003867">
        <ele>2119.0</ele>
        <time>2018-09-15T13:08:27Z</time>
      </trkpt>
      <trkpt lat="40.207500" lon="-5.003983">
        <ele>2122.0</ele>
        <time>2018-09-15T13:08:28Z</time>
      </trkpt>
      <trkpt lat="40.207483" lon="-5.004083">
        <ele>2124.0</ele>
        <time>2018-09-15T13:08:29Z</time>
      </trkpt>
      <trkpt lat="40.207450" lon="-5.004200">
        <ele>2125.0</ele>
        <time>2018-09-15T13:08:30Z</time>
      </trkpt>
      <trkpt lat="40.207433" lon="-5.004317">
        <ele>2124.0</ele>
        <time>2018-09-15T13:08:31Z</time>
      </trkpt>
      <trkpt lat="40.207383" lon="-5.004433">
        <ele>2125.0</ele>
        <time>2018-09-15T13:08:32Z</time>
      </trkpt>
      <trkpt lat="40.207333" lon="-5.004567">
        <ele>2126.0</ele>
        <time>2018-09-15T13:08:33Z</time>
      </trkpt>
      <trkpt lat="40.207283" lon="-5.004667">
        <ele>2127.0</ele>
        <time>2018-09-15T13:08:34Z</time>
      </trkpt>
      <trkpt lat="40.207250" lon="-5.004783">
        <ele>2129.0</ele>
        <time>2018-09-15T13:08:35Z</time>
      </trkpt>
      <trkpt lat="40.207217" lon="-5.004900">
        <ele>2130.0</ele>
        <time>2018-09-15T13:08:36Z</time>
      </trkpt>
      <trkpt lat="40.207183" lon="-5.005017">
        <ele>2130.0</ele>
        <time>2018-09-15T13:08:37Z</time>
      </trkpt>
      <trkpt lat="40.207150" lon="-5.005133">
        <ele>2129.0</ele>
        <time>2018-09-15T13:08:38Z</time>
      </trkpt>
      <trkpt lat="40.207117" lon="-5.005267">
        <ele>2129.0</ele>
        <time>2018-09-15T13:08:39Z</time>
      </trkpt>
      <trkpt lat="40.207067" lon="-5.005383">
        <ele>2128.0</ele>
        <time>2018-09-15T13:08:40Z</time>
      </trkpt>
      <trkpt lat="40.207050" lon="-5.005517">
        <ele>2128.0</ele>
        <time>2018-09-15T13:08:41Z</time>
      </trkpt>
      <trkpt lat="40.207017" lon="-5.005650">
        <ele>2128.0</ele>
        <time>2018-09-15T13:08:42Z</time>
      </trkpt>
      <trkpt lat="40.207000" lon="-5.005783">
        <ele>2128.0</ele>
        <time>2018-09-15T13:08:43Z</time>
      </trkpt>
      <trkpt lat="40.206967" lon="-5.005900">
        <ele>2127.0</ele>
        <time>2018-09-15T13:08:44Z</time>
      </trkpt>
      <trkpt lat="40.206933" lon="-5.006033">
        <ele>2126.0</ele>
        <time>2018-09-15T13:08:45Z</time>
      </trkpt>
      <trkpt lat="40.206900" lon="-5.006150">
        <ele>2126.0</ele>
        <time>2018-09-15T13:08:46Z</time>
      </trkpt>
      <trkpt lat="40.206867" lon="-5.006267">
        <ele>2125.0</ele>
        <time>2018-09-15T13:08:47Z</time>
      </trkpt>
      <trkpt lat="40.206833" lon="-5.006383">
        <ele>2123.0</ele>
        <time>2018-09-15T13:08:48Z</time>
      </trkpt>
      <trkpt lat="40.206800" lon="-5.006517">
        <ele>2122.0</ele>
        <time>2018-09-15T13:08:49Z</time>
      </trkpt>
      <trkpt lat="40.206750" lon="-5.006633">
        <ele>2121.0</ele>
        <time>2018-09-15T13:08:50Z</time>
      </trkpt>
      <trkpt lat="40.206733" lon="-5.006783">
        <ele>2120.0</ele>
        <time>2018-09-15T13:08:51Z</time>
      </trkpt>
      <trkpt lat="40.206700" lon="-5.006917">
        <ele>2119.0</ele>
        <time>2018-09-15T13:08:52Z</time>
      </trkpt>
      <trkpt lat="40.206683" lon="-5.007050">
        <ele>2117.0</ele>
        <time>2018-09-15T13:08:53Z</time>
      </trkpt>
      <trkpt lat="40.206650" lon="-5.007200">
        <ele>2116.0</ele>
        <time>2018-09-15T13:08:54Z</time>
      </trkpt>
      <trkpt lat="40.206617" lon="-5.007333">
        <ele>2115.0</ele>
        <time>2018-09-15T13:08:55Z</time>
      </trkpt>
      <trkpt lat="40.206583" lon="-5.007467">
        <ele>2114.0</ele>
        <time>2018-09-15T13:08:56Z</time>
      </trkpt>
      <trkpt lat="40.206550" lon="-5.007567">
        <ele>2114.0</ele>
        <time>2018-09-15T13:08:57Z</time>
      </trkpt>
      <trkpt lat="40.206500" lon="-5.007683">
        <ele>2112.0</ele>
        <time>2018-09-15T13:08:58Z</time>
      </trkpt>
      <trkpt lat="40.206467" lon="-5.007800">
        <ele>2111.0</ele>
        <time>2018-09-15T13:08:59Z</time>
      </trkpt>
      <trkpt lat="40.206450" lon="-5.007933">
        <ele>2110.0</ele>
        <time>2018-09-15T13:09:00Z</time>
      </trkpt>
      <trkpt lat="40.206417" lon="-5.008067">
        <ele>2108.0</ele>
        <time>2018-09-15T13:09:01Z</time>
      </trkpt>
      <trkpt lat="40.206383" lon="-5.008217">
        <ele>2108.0</ele>
        <time>2018-09-15T13:09:02Z</time>
      </trkpt>
      <trkpt lat="40.206350" lon="-5.008350">
        <ele>2108.0</ele>
        <time>2018-09-15T13:09:03Z</time>
      </trkpt>
      <trkpt lat="40.206350" lon="-5.008483">
        <ele>2108.0</ele>
        <time>2018-09-15T13:09:04Z</time>
      </trkpt>
      <trkpt lat="40.206350" lon="-5.008633">
        <ele>2108.0</ele>
        <time>2018-09-15T13:09:05Z</time>
      </trkpt>
      <trkpt lat="40.206333" lon="-5.008767">
        <ele>2107.0</ele>
        <time>2018-09-15T13:09:06Z</time>
      </trkpt>
      <trkpt lat="40.206333" lon="-5.008917">
        <ele>2106.0</ele>
        <time>2018-09-15T13:09:07Z</time>
      </trkpt>
      <trkpt lat="40.206317" lon="-5.009050">
        <ele>2104.0</ele>
        <time>2018-09-15T13:09:08Z</time>
      </trkpt>
      <trkpt lat="40.206300" lon="-5.009217">
        <ele>2104.0</ele>
        <time>2018-09-15T13:09:09Z</time>
      </trkpt>
      <trkpt lat="40.206283" lon="-5.009367">
        <ele>2103.0</ele>
        <time>2018-09-15T13:09:10Z</time>
      </trkpt>
      <trkpt lat="40.206267" lon="-5.009517">
        <ele>2104.0</ele>
        <time>2018-09-15T13:09:11Z</time>
      </trkpt>
      <trkpt lat="40.206250" lon="-5.009667">
        <ele>2104.0</ele>
        <time>2018-09-15T13:09:12Z</time>
      </trkpt>
      <trkpt lat="40.206233" lon="-5.009817">
        <ele>2104.0</ele>
        <time>2018-09-15T13:09:13Z</time>
      </trkpt>
      <trkpt lat="40.206200" lon="-5.009950">
        <ele>2104.0</ele>
        <time>2018-09-15T13:09:14Z</time>
      </trkpt>
      <trkpt lat="40.206183" lon="-5.010083">
        <ele>2103.0</ele>
        <time>2018-09-15T13:09:15Z</time>
      </trkpt>
      <trkpt lat="40.206167" lon="-5.010217">
        <ele>2102.0</ele>
        <time>2018-09-15T13:09:16Z</time>
      </trkpt>
      <trkpt lat="40.206150" lon="-5.010367">
        <ele>2101.0</ele>
        <time>2018-09-15T13:09:17Z</time>
      </trkpt>
      <trkpt lat="40.206133" lon="-5.010517">
        <ele>2100.0</ele>
        <time>2018-09-15T13:09:18Z</time>
      </trkpt>
      <trkpt lat="40.206133" lon="-5.010650">
        <ele>2098.0</ele>
        <time>2018-09-15T13:09:19Z</time>
      </trkpt>
      <trkpt lat="40.206117" lon="-5.010783">
        <ele>2096.0</ele>
        <time>2018-09-15T13:09:20Z</time>
      </trkpt>
      <trkpt lat="40.206100" lon="-5.010917">
        <ele>2093.0</ele>
        <time>2018-09-15T13:09:21Z</time>
      </trkpt>
      <trkpt lat="40.206067" lon="-5.011050">
        <ele>2091.0</ele>
        <time>2018-09-15T13:09:22Z</time>
      </trkpt>
      <trkpt lat="40.206033" lon="-5.011200">
        <ele>2088.0</ele>
        <time>2018-09-15T13:09:23Z</time>
      </trkpt>
      <trkpt lat="40.206000" lon="-5.011350">
        <ele>2085.0</ele>
        <time>2018-09-15T13:09:24Z</time>
      </trkpt>
      <trkpt lat="40.205967" lon="-5.011500">
        <ele>2082.0</ele>
        <time>2018-09-15T13:09:25Z</time>
      </trkpt>
      <trkpt lat="40.205933" lon="-5.011667">
        <ele>2080.0</ele>
        <time>2018-09-15T13:09:26Z</time>
      </trkpt>
      <trkpt lat="40.205900" lon="-5.011817">
        <ele>2078.0</ele>
        <time>2018-09-15T13:09:27Z</time>
      </trkpt>
      <trkpt lat="40.205883" lon="-5.011983">
        <ele>2075.0</ele>
        <time>2018-09-15T13:09:28Z</time>
      </trkpt>
      <trkpt lat="40.205850" lon="-5.012133">
        <ele>2072.0</ele>
        <time>2018-09-15T13:09:29Z</time>
      </trkpt>
      <trkpt lat="40.205817" lon="-5.012267">
        <ele>2069.0</ele>
        <time>2018-09-15T13:09:30Z</time>
      </trkpt>
      <trkpt lat="40.205783" lon="-5.012417">
        <ele>2065.0</ele>
        <time>2018-09-15T13:09:31Z</time>
      </trkpt>
      <trkpt lat="40.205733" lon="-5.012550">
        <ele>2062.0</ele>
        <time>2018-09-15T13:09:32Z</time>
      </trkpt>
      <trkpt lat="40.205683" lon="-5.012717">
        <ele>2059.0</ele>
        <time>2018-09-15T13:09:33Z</time>
      </trkpt>
      <trkpt lat="40.205650" lon="-5.012867">
        <ele>2057.0</ele>
        <time>2018-09-15T13:09:34Z</time>
      </trkpt>
      <trkpt lat="40.205617" lon="-5.013017">
        <ele>2056.0</ele>
        <time>2018-09-15T13:09:35Z</time>
      </trkpt>
      <trkpt lat="40.205583" lon="-5.013183">
        <ele>2055.0</ele>
        <time>2018-09-15T13:09:36Z</time>
      </trkpt>
      <trkpt lat="40.205550" lon="-5.013333">
        <ele>2055.0</ele>
        <time>2018-09-15T13:09:37Z</time>
      </trkpt>
      <trkpt lat="40.205517" lon="-5.013467">
        <ele>2055.0</ele>
        <time>2018-09-15T13:09:38Z</time>
      </trkpt>
      <trkpt lat="40.205467" lon="-5.013600">
        <ele>2055.0</ele>
        <time>2018-09-15T13:09:39Z</time>
      </trkpt>
      <trkpt lat="40.205417" lon="-5.013717">
        <ele>2055.0</ele>
        <time>2018-09-15T13:09:40Z</time>
      </trkpt>
      <trkpt lat="40.205383" lon="-5.013833">
        <ele>2054.0</ele>
        <time>2018-09-15T13:09:41Z</time>
      </trkpt>
      <trkpt lat="40.205333" lon="-5.013933">
        <ele>2053.0</ele>
        <time>2018-09-15T13:09:42Z</time>
      </trkpt>
      <trkpt lat="40.205267" lon="-5.014050">
        <ele>2053.0</ele>
        <time>2018-09-15T13:09:43Z</time>
      </trkpt>
      <trkpt lat="40.205183" lon="-5.014150">
        <ele>2053.0</ele>
        <time>2018-09-15T13:09:44Z</time>
      </trkpt>
      <trkpt lat="40.205117" lon="-5.014233">
        <ele>2054.0</ele>
        <time>2018-09-15T13:09:45Z</time>
      </trkpt>
      <trkpt lat="40.205067" lon="-5.014300">
        <ele>2054.0</ele>
        <time>2018-09-15T13:09:46Z</time>
      </trkpt>
      <trkpt lat="40.205033" lon="-5.014383">
        <ele>2053.0</ele>
        <time>2018-09-15T13:09:47Z</time>
      </trkpt>
      <trkpt lat="40.204983" lon="-5.014467">
        <ele>2050.0</ele>
        <time>2018-09-15T13:09:48Z</time>
      </trkpt>
      <trkpt lat="40.204917" lon="-5.014550">
        <ele>2048.0</ele>
        <time>2018-09-15T13:09:49Z</time>
      </trkpt>
      <trkpt lat="40.204850" lon="-5.014633">
        <ele>2046.0</ele>
        <time>2018-09-15T13:09:50Z</time>
      </trkpt>
      <trkpt lat="40.204783" lon="-5.014733">
        <ele>2045.0</ele>
        <time>2018-09-15T13:09:51Z</time>
      </trkpt>
      <trkpt lat="40.204717" lon="-5.014833">
        <ele>2044.0</ele>
        <time>2018-09-15T13:09:52Z</time>
      </trkpt>
      <trkpt lat="40.204667" lon="-5.014950">
        <ele>2044.0</ele>
        <time>2018-09-15T13:09:53Z</time>
      </trkpt>
      <trkpt lat="40.204617" lon="-5.015067">
        <ele>2043.0</ele>
        <time>2018-09-15T13:09:54Z</time>
      </trkpt>
      <trkpt lat="40.204550" lon="-5.015183">
        <ele>2042.0</ele>
        <time>2018-09-15T13:09:55Z</time>
      </trkpt>
      <trkpt lat="40.204483" lon="-5.015300">
        <ele>2041.0</ele>
        <time>2018-09-15T13:09:56Z</time>
      </trkpt>
      <trkpt lat="40.204417" lon="-5.015433">
        <ele>2042.0</ele>
        <time>2018-09-15T13:09:57Z</time>
      </trkpt>
      <trkpt lat="40.204350" lon="-5.015567">
        <ele>2042.0</ele>
        <time>2018-09-15T13:09:58Z</time>
      </trkpt>
      <trkpt lat="40.204317" lon="-5.015717">
        <ele>2043.0</ele>
        <time>2018-09-15T13:09:59Z</time>
      </trkpt>
      <trkpt lat="40.204267" lon="-5.015867">
        <ele>2045.0</ele>
        <time>2018-09-15T13:10:00Z</time>
      </trkpt>
      <trkpt lat="40.204233" lon="-5.016017">
        <ele>2046.0</ele>
        <time>2018-09-15T13:10:01Z</time>
      </trkpt>
      <trkpt lat="40.204183" lon="-5.016150">
        <ele>2048.0</ele>
        <time>2018-09-15T13:10:02Z</time>
      </trkpt>
      <trkpt lat="40.204133" lon="-5.016283">
        <ele>2051.0</ele>
        <time>2018-09-15T13:10:03Z</time>
      </trkpt>
      <trkpt lat="40.204067" lon="-5.016417">
        <ele>2052.0</ele>
        <time>2018-09-15T13:10:04Z</time>
      </trkpt>
      <trkpt lat="40.204000" lon="-5.016517">
        <ele>2054.0</ele>
        <time>2018-09-15T13:10:05Z</time>
      </trkpt>
      <trkpt lat="40.203933" lon="-5.016633">
        <ele>2055.0</ele>
        <time>2018-09-15T13:10:06Z</time>
      </trkpt>
      <trkpt lat="40.203867" lon="-5.016717">
        <ele>2056.0</ele>
        <time>2018-09-15T13:10:07Z</time>
      </trkpt>
      <trkpt lat="40.203783" lon="-5.016783">
        <ele>2057.0</ele>
        <time>2018-09-15T13:10:08Z</time>
      </trkpt>
      <trkpt lat="40.203683" lon="-5.016833">
        <ele>2058.0</ele>
        <time>2018-09-15T13:10:09Z</time>
      </trkpt>
      <trkpt lat="40.203583" lon="-5.016850">
        <ele>2059.0</ele>
        <time>2018-09-15T13:10:10Z</time>
      </trkpt>
      <trkpt lat="40.203500" lon="-5.016850">
        <ele>2062.0</ele>
        <time>2018-09-15T13:10:11Z</time>
      </trkpt>
      <trkpt lat="40.203433" lon="-5.016817">
        <ele>2065.0</ele>
        <time>2018-09-15T13:10:12Z</time>
      </trkpt>
      <trkpt lat="40.203383" lon="-5.016783">
        <ele>2068.0</ele>
        <time>2018-09-15T13:10:13Z</time>
      </trkpt>
      <trkpt lat="40.203367" lon="-5.016733">
        <ele>2069.0</ele>
        <time>2018-09-15T13:10:14Z</time>
      </trkpt>
      <trkpt lat="40.203367" lon="-5.016683">
        <ele>2070.0</ele>
        <time>2018-09-15T13:10:15Z</time>
      </trkpt>
      <trkpt lat="40.203383" lon="-5.016600">
        <ele>2071.0</ele>
        <time>2018-09-15T13:10:16Z</time>
      </trkpt>
      <trkpt lat="40.203417" lon="-5.016533">
        <ele>2072.0</ele>
        <time>2018-09-15T13:10:17Z</time>
      </trkpt>
      <trkpt lat="40.203467" lon="-5.016483">
        <ele>2074.0</ele>
        <time>2018-09-15T13:10:18Z</time>
      </trkpt>
      <trkpt lat="40.203550" lon="-5.016450">
        <ele>2075.0</ele>
        <time>2018-09-15T13:10:19Z</time>
      </trkpt>
      <trkpt lat="40.203633" lon="-5.016433">
        <ele>2076.0</ele>
        <time>2018-09-15T13:10:20Z</time>
      </trkpt>
      <trkpt lat="40.203733" lon="-5.016450">
        <ele>2078.0</ele>
        <time>2018-09-15T13:10:21Z</time>
      </trkpt>
      <trkpt lat="40.203833" lon="-5.016500">
        <ele>2080.0</ele>
        <time>2018-09-15T13:10:22Z</time>
      </trkpt>
      <trkpt lat="40.203917" lon="-5.016600">
        <ele>2081.0</ele>
        <time>2018-09-15T13:10:23Z</time>
      </trkpt>
      <trkpt lat="40.203983" lon="-5.016733">
        <ele>2081.0</ele>
        <time>2018-09-15T13:10:24Z</time>
      </trkpt>
      <trkpt lat="40.204050" lon="-5.016867">
        <ele>2082.0</ele>
        <time>2018-09-15T13:10:25Z</time>
      </trkpt>
      <trkpt lat="40.204083" lon="-5.017017">
        <ele>2085.0</ele>
        <time>2018-09-15T13:10:26Z</time>
      </trkpt>
      <trkpt lat="40.204100" lon="-5.017167">
        <ele>2087.0</ele>
        <time>2018-09-15T13:10:27Z</time>
      </trkpt>
      <trkpt lat="40.204100" lon="-5.017317">
        <ele>2088.0</ele>
        <time>2018-09-15T13:10:28Z</time>
      </trkpt>
      <trkpt lat="40.204100" lon="-5.017467">
        <ele>2088.0</ele>
        <time>2018-09-15T13:10:29Z</time>
      </trkpt>
      <trkpt lat="40.204067" lon="-5.017633">
        <ele>2088.0</ele>
        <time>2018-09-15T13:10:30Z</time>
      </trkpt>
      <trkpt lat="40.204017" lon="-5.017783">
        <ele>2088.0</ele>
        <time>2018-09-15T13:10:31Z</time>
      </trkpt>
      <trkpt lat="40.203950" lon="-5.017917">
        <ele>2089.0</ele>
        <time>2018-09-15T13:10:32Z</time>
      </trkpt>
      <trkpt lat="40.203867" lon="-5.018033">
        <ele>2089.0</ele>
        <time>2018-09-15T13:10:33Z</time>
      </trkpt>
      <trkpt lat="40.203783" lon="-5.018150">
        <ele>2090.0</ele>
        <time>2018-09-15T13:10:34Z</time>
      </trkpt>
      <trkpt lat="40.203700" lon="-5.018233">
        <ele>2091.0</ele>
        <time>2018-09-15T13:10:35Z</time>
      </trkpt>
      <trkpt lat="40.203600" lon="-5.018317">
        <ele>2092.0</ele>
        <time>2018-09-15T13:10:36Z</time>
      </trkpt>
      <trkpt lat="40.203517" lon="-5.018383">
        <ele>2093.0</ele>
        <time>2018-09-15T13:10:37Z</time>
      </trkpt>
      <trkpt lat="40.203433" lon="-5.018450">
        <ele>2093.0</ele>
        <time>2018-09-15T13:10:38Z</time>
      </trkpt>
      <trkpt lat="40.203350" lon="-5.018483">
        <ele>2094.0</ele>
        <time>2018-09-15T13:10:39Z</time>
      </trkpt>
      <trkpt lat="40.203250" lon="-5.018483">
        <ele>2095.0</ele>
        <time>2018-09-15T13:10:40Z</time>
      </trkpt>
      <trkpt lat="40.203167" lon="-5.018483">
        <ele>2097.0</ele>
        <time>2018-09-15T13:10:41Z</time>
      </trkpt>
      <trkpt lat="40.203100" lon="-5.018450">
        <ele>2099.0</ele>
        <time>2018-09-15T13:10:42Z</time>
      </trkpt>
      <trkpt lat="40.203033" lon="-5.018417">
        <ele>2102.0</ele>
        <time>2018-09-15T13:10:43Z</time>
      </trkpt>
      <trkpt lat="40.202983" lon="-5.018367">
        <ele>2104.0</ele>
        <time>2018-09-15T13:10:44Z</time>
      </trkpt>
      <trkpt lat="40.202950" lon="-5.018333">
        <ele>2106.0</ele>
        <time>2018-09-15T13:10:45Z</time>
      </trkpt>
      <trkpt lat="40.202900" lon="-5.018300">
        <ele>2108.0</ele>
        <time>2018-09-15T13:10:46Z</time>
      </trkpt>
      <trkpt lat="40.202833" lon="-5.018267">
        <ele>2110.0</ele>
        <time>2018-09-15T13:10:47Z</time>
      </trkpt>
      <trkpt lat="40.202767" lon="-5.018250">
        <ele>2112.0</ele>
        <time>2018-09-15T13:10:48Z</time>
      </trkpt>
      <trkpt lat="40.202700" lon="-5.018233">
        <ele>2114.0</ele>
        <time>2018-09-15T13:10:49Z</time>
      </trkpt>
      <trkpt lat="40.202650" lon="-5.018233">
        <ele>2116.0</ele>
        <time>2018-09-15T13:10:50Z</time>
      </trkpt>
      <trkpt lat="40.202583" lon="-5.018217">
        <ele>2118.0</ele>
        <time>2018-09-15T13:10:51Z</time>
      </trkpt>
      <trkpt lat="40.202533" lon="-5.018200">
        <ele>2119.0</ele>
        <time>2018-09-15T13:10:52Z</time>
      </trkpt>
      <trkpt lat="40.202450" lon="-5.018183">
        <ele>2119.0</ele>
        <time>2018-09-15T13:10:53Z</time>
      </trkpt>
      <trkpt lat="40.202383" lon="-5.018183">
        <ele>2120.0</ele>
        <time>2018-09-15T13:10:54Z</time>
      </trkpt>
      <trkpt lat="40.202317" lon="-5.018200">
        <ele>2122.0</ele>
        <time>2018-09-15T13:10:55Z</time>
      </trkpt>
      <trkpt lat="40.202233" lon="-5.018217">
        <ele>2123.0</ele>
        <time>2018-09-15T13:10:56Z</time>
      </trkpt>
      <trkpt lat="40.202167" lon="-5.018233">
        <ele>2125.0</ele>
        <time>2018-09-15T13:10:57Z</time>
      </trkpt>
      <trkpt lat="40.202100" lon="-5.018250">
        <ele>2126.0</ele>
        <time>2018-09-15T13:10:58Z</time>
      </trkpt>
      <trkpt lat="40.202050" lon="-5.018250">
        <ele>2128.0</ele>
        <time>2018-09-15T13:10:59Z</time>
      </trkpt>
      <trkpt lat="40.201983" lon="-5.018250">
        <ele>2130.0</ele>
        <time>2018-09-15T13:11:00Z</time>
      </trkpt>
      <trkpt lat="40.201933" lon="-5.018267">
        <ele>2132.0</ele>
        <time>2018-09-15T13:11:01Z</time>
      </trkpt>
      <trkpt lat="40.201883" lon="-5.018283">
        <ele>2133.0</ele>
        <time>2018-09-15T13:11:02Z</time>
      </trkpt>
      <trkpt lat="40.201833" lon="-5.018300">
        <ele>2133.0</ele>
        <time>2018-09-15T13:11:03Z</time>
      </trkpt>
      <trkpt lat="40.201767" lon="-5.018317">
        <ele>2132.0</ele>
        <time>2018-09-15T13:11:04Z</time>
      </trkpt>
      <trkpt lat="40.201700" lon="-5.018367">
        <ele>2132.0</ele>
        <time>2018-09-15T13:11:05Z</time>
      </trkpt>
      <trkpt lat="40.201617" lon="-5.018450">
        <ele>2131.0</ele>
        <time>2018-09-15T13:11:06Z</time>
      </trkpt>
      <trkpt lat="40.201550" lon="-5.018533">
        <ele>2130.0</ele>
        <time>2018-09-15T13:11:07Z</time>
      </trkpt>
      <trkpt lat="40.201483" lon="-5.018650">
        <ele>2128.0</ele>
        <time>2018-09-15T13:11:08Z</time>
      </trkpt>
      <trkpt lat="40.201417" lon="-5.018783">
        <ele>2127.0</ele>
        <time>2018-09-15T13:11:09Z</time>
      </trkpt>
      <trkpt lat="40.201367" lon="-5.018917">
        <ele>2125.0</ele>
        <time>2018-09-15T13:11:10Z</time>
      </trkpt>
      <trkpt lat="40.201317" lon="-5.019083">
        <ele>2123.0</ele>
        <time>2018-09-15T13:11:11Z</time>
      </trkpt>
      <trkpt lat="40.201283" lon="-5.019250">
        <ele>2123.0</ele>
        <time>2018-09-15T13:11:12Z</time>
      </trkpt>
      <trkpt lat="40.201267" lon="-5.019400">
        <ele>2122.0</ele>
        <time>2018-09-15T13:11:13Z</time>
      </trkpt>
      <trkpt lat="40.201267" lon="-5.019550">
        <ele>2121.0</ele>
        <time>2018-09-15T13:11:14Z</time>
      </trkpt>
      <trkpt lat="40.201283" lon="-5.019700">
        <ele>2119.0</ele>
        <time>2018-09-15T13:11:15Z</time>
      </trkpt>
      <trkpt lat="40.201317" lon="-5.019850">
        <ele>2117.0</ele>
        <time>2018-09-15T13:11:16Z</time>
      </trkpt>
      <trkpt lat="40.201367" lon="-5.020000">
        <ele>2116.0</ele>
        <time>2018-09-15T13:11:17Z</time>
      </trkpt>
      <trkpt lat="40.201433" lon="-5.020117">
        <ele>2115.0</ele>
        <time>2018-09-15T13:11:18Z</time>
      </trkpt>
      <trkpt lat="40.201517" lon="-5.020233">
        <ele>2114.0</ele>
        <time>2018-09-15T13:11:19Z</time>
      </trkpt>
      <trkpt lat="40.201600" lon="-5.020300">
        <ele>2113.0</ele>
        <time>2018-09-15T13:11:20Z</time>
      </trkpt>
      <trkpt lat="40.201700" lon="-5.020367">
        <ele>2112.0</ele>
        <time>2018-09-15T13:11:21Z</time>
      </trkpt>
      <trkpt lat="40.201800" lon="-5.020400">
        <ele>2112.0</ele>
        <time>2018-09-15T13:11:22Z</time>
      </trkpt>
      <trkpt lat="40.201900" lon="-5.020417">
        <ele>2112.0</ele>
        <time>2018-09-15T13:11:23Z</time>
      </trkpt>
      <trkpt lat="40.201983" lon="-5.020417">
        <ele>2113.0</ele>
        <time>2018-09-15T13:11:24Z</time>
      </trkpt>
      <trkpt lat="40.202050" lon="-5.020400">
        <ele>2113.0</ele>
        <time>2018-09-15T13:11:25Z</time>
      </trkpt>
      <trkpt lat="40.202133" lon="-5.020367">
        <ele>2113.0</ele>
        <time>2018-09-15T13:11:26Z</time>
      </trkpt>
      <trkpt lat="40.202200" lon="-5.020317">
        <ele>2112.0</ele>
        <time>2018-09-15T13:11:27Z</time>
      </trkpt>
      <trkpt lat="40.202267" lon="-5.020267">
        <ele>2112.0</ele>
        <time>2018-09-15T13:11:28Z</time>
      </trkpt>
      <trkpt lat="40.202317" lon="-5.020217">
        <ele>2114.0</ele>
        <time>2018-09-15T13:11:29Z</time>
      </trkpt>
      <trkpt lat="40.202350" lon="-5.020150">
        <ele>2114.0</ele>
        <time>2018-09-15T13:11:30Z</time>
      </trkpt>
      <trkpt lat="40.202383" lon="-5.020100">
        <ele>2115.0</ele>
        <time>2018-09-15T13:11:31Z</time>
      </trkpt>
      <trkpt lat="40.202383" lon="-5.020017">
        <ele>2115.0</ele>
        <time>2018-09-15T13:11:32Z</time>
      </trkpt>
      <trkpt lat="40.202400" lon="-5.019950">
        <ele>2116.0</ele>
        <time>2018-09-15T13:11:33Z</time>
      </trkpt>
      <trkpt lat="40.202400" lon="-5.019883">
        <ele>2117.0</ele>
        <time>2018-09-15T13:11:34Z</time>
      </trkpt>
      <trkpt lat="40.202400" lon="-5.019833">
        <ele>2119.0</ele>
        <time>2018-09-15T13:11:35Z</time>
      </trkpt>
      <trkpt lat="40.202400" lon="-5.019783">
        <ele>2120.0</ele>
        <time>2018-09-15T13:11:36Z</time>
      </trkpt>
      <trkpt lat="40.202383" lon="-5.019750">
        <ele>2120.0</ele>
        <time>2018-09-15T13:11:37Z</time>
      </trkpt>
      <trkpt lat="40.202350" lon="-5.019717">
        <ele>2120.0</ele>
        <time>2018-09-15T13:11:38Z</time>
      </trkpt>
      <trkpt lat="40.202333" lon="-5.019667">
        <ele>2120.0</ele>
        <time>2018-09-15T13:11:39Z</time>
      </trkpt>
      <trkpt lat="40.202317" lon="-5.019617">
        <ele>2119.0</ele>
        <time>2018-09-15T13:11:40Z</time>
      </trkpt>
      <trkpt lat="40.202283" lon="-5.019567">
        <ele>2118.0</ele>
        <time>2018-09-15T13:11:41Z</time>
      </trkpt>
      <trkpt lat="40.202233" lon="-5.019533">
        <ele>2119.0</ele>
        <time>2018-09-15T13:11:42Z</time>
      </trkpt>
      <trkpt lat="40.202183" lon="-5.019500">
        <ele>2119.0</ele>
        <time>2018-09-15T13:11:43Z</time>
      </trkpt>
      <trkpt lat="40.202117" lon="-5.019500">
        <ele>2119.0</ele>
        <time>2018-09-15T13:11:44Z</time>
      </trkpt>
      <trkpt lat="40.202067" lon="-5.019517">
        <ele>2120.0</ele>
        <time>2018-09-15T13:11:45Z</time>
      </trkpt>
      <trkpt lat="40.202000" lon="-5.019550">
        <ele>2120.0</ele>
        <time>2018-09-15T13:11:46Z</time>
      </trkpt>
      <trkpt lat="40.201933" lon="-5.019583">
        <ele>2119.0</ele>
        <time>2018-09-15T13:11:47Z</time>
      </trkpt>
      <trkpt lat="40.201867" lon="-5.019633">
        <ele>2118.0</ele>
        <time>2018-09-15T13:11:48Z</time>
      </trkpt>
      <trkpt lat="40.201783" lon="-5.019683">
        <ele>2118.0</ele>
        <time>2018-09-15T13:11:49Z</time>
      </trkpt>
      <trkpt lat="40.201717" lon="-5.019750">
        <ele>2118.0</ele>
        <time>2018-09-15T13:11:50Z</time>
      </trkpt>
      <trkpt lat="40.201667" lon="-5.019817">
        <ele>2117.0</ele>
        <time>2018-09-15T13:11:51Z</time>
      </trkpt>
      <trkpt lat="40.201600" lon="-5.019883">
        <ele>2117.0</ele>
        <time>2018-09-15T13:11:52Z</time>
      </trkpt>
      <trkpt lat="40.201533" lon="-5.019967">
        <ele>2116.0</ele>
        <time>2018-09-15T13:11:53Z</time>
      </trkpt>
      <trkpt lat="40.201467" lon="-5.020050">
        <ele>2115.0</ele>
        <time>2018-09-15T13:11:54Z</time>
      </trkpt>
      <trkpt lat="40.201383" lon="-5.020133">
        <ele>2113.0</ele>
        <time>2018-09-15T13:11:55Z</time>
      </trkpt>
      <trkpt lat="40.201300" lon="-5.020217">
        <ele>2113.0</ele>
        <time>2018-09-15T13:11:56Z</time>
      </trkpt>
      <trkpt lat="40.201233" lon="-5.020283">
        <ele>2112.0</ele>
        <time>2018-09-15T13:11:57Z</time>
      </trkpt>
      <trkpt lat="40.201167" lon="-5.020367">
        <ele>2111.0</ele>
        <time>2018-09-15T13:11:58Z</time>
      </trkpt>
      <trkpt lat="40.201117" lon="-5.020450">
        <ele>2109.0</ele>
        <time>2018-09-15T13:11:59Z</time>
      </trkpt>
      <trkpt lat="40.201050" lon="-5.020567">
        <ele>2106.0</ele>
        <time>2018-09-15T13:12:00Z</time>
      </trkpt>
      <trkpt lat="40.201000" lon="-5.020683">
        <ele>2103.0</ele>
        <time>2018-09-15T13:12:01Z</time>
      </trkpt>
      <trkpt lat="40.200933" lon="-5.020800">
        <ele>2101.0</ele>
        <time>2018-09-15T13:12:02Z</time>
      </trkpt>
      <trkpt lat="40.200883" lon="-5.020917">
        <ele>2099.0</ele>
        <time>2018-09-15T13:12:03Z</time>
      </trkpt>
      <trkpt lat="40.200850" lon="-5.021050">
        <ele>2098.0</ele>
        <time>2018-09-15T13:12:04Z</time>
      </trkpt>
      <trkpt lat="40.200817" lon="-5.021167">
        <ele>2096.0</ele>
        <time>2018-09-15T13:12:05Z</time>
      </trkpt>
      <trkpt lat="40.200767" lon="-5.021300">
        <ele>2093.0</ele>
        <time>2018-09-15T13:12:06Z</time>
      </trkpt>
      <trkpt lat="40.200733" lon="-5.021433">
        <ele>2091.0</ele>
        <time>2018-09-15T13:12:07Z</time>
      </trkpt>
      <trkpt lat="40.200683" lon="-5.021567">
        <ele>2088.0</ele>
        <time>2018-09-15T13:12:08Z</time>
      </trkpt>
      <trkpt lat="40.200633" lon="-5.021700">
        <ele>2086.0</ele>
        <time>2018-09-15T13:12:09Z</time>
      </trkpt>
      <trkpt lat="40.200583" lon="-5.021833">
        <ele>2084.0</ele>
        <time>2018-09-15T13:12:10Z</time>
      </trkpt>
      <trkpt lat="40.200533" lon="-5.021967">
        <ele>2082.0</ele>
        <time>2018-09-15T13:12:11Z</time>
      </trkpt>
      <trkpt lat="40.200483" lon="-5.022100">
        <ele>2079.0</ele>
        <time>2018-09-15T13:12:12Z</time>
      </trkpt>
      <trkpt lat="40.200433" lon="-5.022233">
        <ele>2077.0</ele>
        <time>2018-09-15T13:12:13Z</time>
      </trkpt>
      <trkpt lat="40.200400" lon="-5.022383">
        <ele>2074.0</ele>
        <time>2018-09-15T13:12:14Z</time>
      </trkpt>
      <trkpt lat="40.200350" lon="-5.022500">
        <ele>2073.0</ele>
        <time>2018-09-15T13:12:15Z</time>
      </trkpt>
      <trkpt lat="40.200300" lon="-5.022617">
        <ele>2072.0</ele>
        <time>2018-09-15T13:12:16Z</time>
      </trkpt>
      <trkpt lat="40.200233" lon="-5.022700">
        <ele>2070.0</ele>
        <time>2018-09-15T13:12:17Z</time>
      </trkpt>
      <trkpt lat="40.200150" lon="-5.022767">
        <ele>2069.0</ele>
        <time>2018-09-15T13:12:18Z</time>
      </trkpt>
      <trkpt lat="40.200083" lon="-5.022817">
        <ele>2067.0</ele>
        <time>2018-09-15T13:12:19Z</time>
      </trkpt>
      <trkpt lat="40.199983" lon="-5.022850">
        <ele>2064.0</ele>
        <time>2018-09-15T13:12:20Z</time>
      </trkpt>
      <trkpt lat="40.199900" lon="-5.022867">
        <ele>2062.0</ele>
        <time>2018-09-15T13:12:21Z</time>
      </trkpt>
      <trkpt lat="40.199817" lon="-5.022867">
        <ele>2060.0</ele>
        <time>2018-09-15T13:12:22Z</time>
      </trkpt>
      <trkpt lat="40.199733" lon="-5.022850">
        <ele>2059.0</ele>
        <time>2018-09-15T13:12:23Z</time>
      </trkpt>
      <trkpt lat="40.199667" lon="-5.022833">
        <ele>2058.0</ele>
        <time>2018-09-15T13:12:24Z</time>
      </trkpt>
      <trkpt lat="40.199583" lon="-5.022800">
        <ele>2057.0</ele>
        <time>2018-09-15T13:12:25Z</time>
      </trkpt>
      <trkpt lat="40.199500" lon="-5.022767">
        <ele>2055.0</ele>
        <time>2018-09-15T13:12:26Z</time>
      </trkpt>
      <trkpt lat="40.199417" lon="-5.022750">
        <ele>2054.0</ele>
        <time>2018-09-15T13:12:27Z</time>
      </trkpt>
      <trkpt lat="40.199350" lon="-5.022717">
        <ele>2054.0</ele>
        <time>2018-09-15T13:12:28Z</time>
      </trkpt>
      <trkpt lat="40.199250" lon="-5.022700">
        <ele>2054.0</ele>
        <time>2018-09-15T13:12:29Z</time>
      </trkpt>
      <trkpt lat="40.199167" lon="-5.022683">
        <ele>2053.0</ele>
        <time>2018-09-15T13:12:30Z</time>
      </trkpt>
      <trkpt lat="40.199067" lon="-5.022667">
        <ele>2053.0</ele>
        <time>2018-09-15T13:12:31Z</time>
      </trkpt>
      <trkpt lat="40.198983" lon="-5.022633">
        <ele>2053.0</ele>
        <time>2018-09-15T13:12:32Z</time>
      </trkpt>
      <trkpt lat="40.198883" lon="-5.022600">
        <ele>2053.0</ele>
        <time>2018-09-15T13:12:33Z</time>
      </trkpt>
      <trkpt lat="40.198800" lon="-5.022550">
        <ele>2052.0</ele>
        <time>2018-09-15T13:12:34Z</time>
      </trkpt>
      <trkpt lat="40.198717" lon="-5.022517">
        <ele>2051.0</ele>
        <time>2018-09-15T13:12:35Z</time>
      </trkpt>
      <trkpt lat="40.198617" lon="-5.022500">
        <ele>2051.0</ele>
        <time>2018-09-15T13:12:36Z</time>
      </trkpt>
      <trkpt lat="40.198517" lon="-5.022483">
        <ele>2050.0</ele>
        <time>2018-09-15T13:12:37Z</time>
      </trkpt>
      <trkpt lat="40.198417" lon="-5.022467">
        <ele>2049.0</ele>
        <time>2018-09-15T13:12:38Z</time>
      </trkpt>
      <trkpt lat="40.198300" lon="-5.022467">
        <ele>2047.0</ele>
        <time>2018-09-15T13:12:39Z</time>
      </trkpt>
      <trkpt lat="40.198200" lon="-5.022483">
        <ele>2046.0</ele>
        <time>2018-09-15T13:12:40Z</time>
      </trkpt>
      <trkpt lat="40.198083" lon="-5.022533">
        <ele>2046.0</ele>
        <time>2018-09-15T13:12:41Z</time>
      </trkpt>
      <trkpt lat="40.197983" lon="-5.022567">
        <ele>2045.0</ele>
        <time>2018-09-15T13:12:42Z</time>
      </trkpt>
      <trkpt lat="40.197883" lon="-5.022583">
        <ele>2045.0</ele>
        <time>2018-09-15T13:12:43Z</time>
      </trkpt>
      <trkpt lat="40.197800" lon="-5.022583">
        <ele>2044.0</ele>
        <time>2018-09-15T13:12:44Z</time>
      </trkpt>
      <trkpt lat="40.197700" lon="-5.022583">
        <ele>2042.0</ele>
        <time>2018-09-15T13:12:45Z</time>
      </trkpt>
      <trkpt lat="40.197600" lon="-5.022567">
        <ele>2040.0</ele>
        <time>2018-09-15T13:12:46Z</time>
      </trkpt>
      <trkpt lat="40.197517" lon="-5.022567">
        <ele>2039.0</ele>
        <time>2018-09-15T13:12:47Z</time>
      </trkpt>
      <trkpt lat="40.197417" lon="-5.022583">
        <ele>2038.0</ele>
        <time>2018-09-15T13:12:48Z</time>
      </trkpt>
      <trkpt lat="40.197317" lon="-5.022600">
        <ele>2036.0</ele>
        <time>2018-09-15T13:12:49Z</time>
      </trkpt>
      <trkpt lat="40.197200" lon="-5.022633">
        <ele>2035.0</ele>
        <time>2018-09-15T13:12:50Z</time>
      </trkpt>
      <trkpt lat="40.197100" lon="-5.022650">
        <ele>2035.0</ele>
        <time>2018-09-15T13:12:51Z</time>
      </trkpt>
      <trkpt lat="40.197000" lon="-5.022667">
        <ele>2035.0</ele>
        <time>2018-09-15T13:12:52Z</time>
      </trkpt>
      <trkpt lat="40.196917" lon="-5.022683">
        <ele>2034.0</ele>
        <time>2018-09-15T13:12:53Z</time>
      </trkpt>
      <trkpt lat="40.196833" lon="-5.022700">
        <ele>2034.0</ele>
        <time>2018-09-15T13:12:54Z</time>
      </trkpt>
      <trkpt lat="40.196750" lon="-5.022700">
        <ele>2032.0</ele>
        <time>2018-09-15T13:12:55Z</time>
      </trkpt>
      <trkpt lat="40.196650" lon="-5.022717">
        <ele>2031.0</ele>
        <time>2018-09-15T13:12:56Z</time>
      </trkpt>
      <trkpt lat="40.196567" lon="-5.022750">
        <ele>2030.0</ele>
        <time>2018-09-15T13:12:57Z</time>
      </trkpt>
      <trkpt lat="40.196467" lon="-5.022783">
        <ele>2029.0</ele>
        <time>2018-09-15T13:12:58Z</time>
      </trkpt>
      <trkpt lat="40.196383" lon="-5.022867">
        <ele>2027.0</ele>
        <time>2018-09-15T13:12:59Z</time>
      </trkpt>
      <trkpt lat="40.196300" lon="-5.022967">
        <ele>2026.0</ele>
        <time>2018-09-15T13:13:00Z</time>
      </trkpt>
      <trkpt lat="40.196217" lon="-5.023083">
        <ele>2025.0</ele>
        <time>2018-09-15T13:13:01Z</time>
      </trkpt>
      <trkpt lat="40.196133" lon="-5.023217">
        <ele>2024.0</ele>
        <time>2018-09-15T13:13:02Z</time>
      </trkpt>
      <trkpt lat="40.196067" lon="-5.023350">
        <ele>2024.0</ele>
        <time>2018-09-15T13:13:03Z</time>
      </trkpt>
      <trkpt lat="40.196017" lon="-5.023500">
        <ele>2024.0</ele>
        <time>2018-09-15T13:13:04Z</time>
      </trkpt>
      <trkpt lat="40.195967" lon="-5.023633">
        <ele>2024.0</ele>
        <time>2018-09-15T13:13:05Z</time>
      </trkpt>
      <trkpt lat="40.195917" lon="-5.023767">
        <ele>2025.0</ele>
        <time>2018-09-15T13:13:06Z</time>
      </trkpt>
      <trkpt lat="40.195867" lon="-5.023900">
        <ele>2025.0</ele>
        <time>2018-09-15T13:13:07Z</time>
      </trkpt>
      <trkpt lat="40.195817" lon="-5.024033">
        <ele>2024.0</ele>
        <time>2018-09-15T13:13:08Z</time>
      </trkpt>
      <trkpt lat="40.195767" lon="-5.024167">
        <ele>2022.0</ele>
        <time>2018-09-15T13:13:09Z</time>
      </trkpt>
      <trkpt lat="40.195700" lon="-5.024317">
        <ele>2020.0</ele>
        <time>2018-09-15T13:13:10Z</time>
      </trkpt>
      <trkpt lat="40.195650" lon="-5.024483">
        <ele>2019.0</ele>
        <time>2018-09-15T13:13:11Z</time>
      </trkpt>
      <trkpt lat="40.195600" lon="-5.024650">
        <ele>2018.0</ele>
        <time>2018-09-15T13:13:12Z</time>
      </trkpt>
      <trkpt lat="40.195567" lon="-5.024783">
        <ele>2018.0</ele>
        <time>2018-09-15T13:13:13Z</time>
      </trkpt>
      <trkpt lat="40.195517" lon="-5.024933">
        <ele>2018.0</ele>
        <time>2018-09-15T13:13:14Z</time>
      </trkpt>
      <trkpt lat="40.195483" lon="-5.025083">
        <ele>2018.0</ele>
        <time>2018-09-15T13:13:15Z</time>
      </trkpt>
      <trkpt lat="40.195433" lon="-5.025217">
        <ele>2019.0</ele>
        <time>2018-09-15T13:13:16Z</time>
      </trkpt>
      <trkpt lat="40.195400" lon="-5.025350">
        <ele>2019.0</ele>
        <time>2018-09-15T13:13:17Z</time>
      </trkpt>
      <trkpt lat="40.195350" lon="-5.025483">
        <ele>2019.0</ele>
        <time>2018-09-15T13:13:18Z</time>
      </trkpt>
      <trkpt lat="40.195300" lon="-5.025600">
        <ele>2018.0</ele>
        <time>2018-09-15T13:13:19Z</time>
      </trkpt>
      <trkpt lat="40.195250" lon="-5.025733">
        <ele>2016.0</ele>
        <time>2018-09-15T13:13:20Z</time>
      </trkpt>
      <trkpt lat="40.195200" lon="-5.025883">
        <ele>2014.0</ele>
        <time>2018-09-15T13:13:21Z</time>
      </trkpt>
      <trkpt lat="40.195150" lon="-5.026033">
        <ele>2013.0</ele>
        <time>2018-09-15T13:13:22Z</time>
      </trkpt>
      <trkpt lat="40.195117" lon="-5.026183">
        <ele>2012.0</ele>
        <time>2018-09-15T13:13:23Z</time>
      </trkpt>
      <trkpt lat="40.195067" lon="-5.026317">
        <ele>2011.0</ele>
        <time>2018-09-15T13:13:24Z</time>
      </trkpt>
      <trkpt lat="40.195000" lon="-5.026450">
        <ele>2011.0</ele>
        <time>2018-09-15T13:13:25Z</time>
      </trkpt>
      <trkpt lat="40.194950" lon="-5.026583">
        <ele>2010.0</ele>
        <time>2018-09-15T13:13:26Z</time>
      </trkpt>
      <trkpt lat="40.194883" lon="-5.026700">
        <ele>2010.0</ele>
        <time>2018-09-15T13:13:27Z</time>
      </trkpt>
      <trkpt lat="40.194817" lon="-5.026833">
        <ele>2009.0</ele>
        <time>2018-09-15T13:13:28Z</time>
      </trkpt>
      <trkpt lat="40.194750" lon="-5.026967">
        <ele>2008.0</ele>
        <time>2018-09-15T13:13:29Z</time>
      </trkpt>
      <trkpt lat="40.194683" lon="-5.027083">
        <ele>2007.0</ele>
        <time>2018-09-15T13:13:30Z</time>
      </trkpt>
      <trkpt lat="40.194633" lon="-5.027200">
        <ele>2005.0</ele>
        <time>2018-09-15T13:13:31Z</time>
      </trkpt>
      <trkpt lat="40.194583" lon="-5.027333">
        <ele>2004.0</ele>
        <time>2018-09-15T13:13:32Z</time>
      </trkpt>
      <trkpt lat="40.194550" lon="-5.027467">
        <ele>2002.0</ele>
        <time>2018-09-15T13:13:33Z</time>
      </trkpt>
      <trkpt lat="40.194500" lon="-5.027617">
        <ele>2001.0</ele>
        <time>2018-09-15T13:13:34Z</time>
      </trkpt>
      <trkpt lat="40.194467" lon="-5.027750">
        <ele>2001.0</ele>
        <time>2018-09-15T13:13:35Z</time>
      </trkpt>
      <trkpt lat="40.194417" lon="-5.027883">
        <ele>2000.0</ele>
        <time>2018-09-15T13:13:36Z</time>
      </trkpt>
      <trkpt lat="40.194367" lon="-5.028000">
        <ele>2000.0</ele>
        <time>2018-09-15T13:13:37Z</time>
      </trkpt>
      <trkpt lat="40.194333" lon="-5.028150">
        <ele>1999.0</ele>
        <time>2018-09-15T13:13:38Z</time>
      </trkpt>
      <trkpt lat="40.194283" lon="-5.028283">
        <ele>1997.0</ele>
        <time>2018-09-15T13:13:39Z</time>
      </trkpt>
      <trkpt lat="40.194233" lon="-5.028433">
        <ele>1996.0</ele>
        <time>2018-09-15T13:13:40Z</time>
      </trkpt>
      <trkpt lat="40.194167" lon="-5.028583">
        <ele>1995.0</ele>
        <time>2018-09-15T13:13:41Z</time>
      </trkpt>
      <trkpt lat="40.194117" lon="-5.028733">
        <ele>1996.0</ele>
        <time>2018-09-15T13:13:42Z</time>
      </trkpt>
      <trkpt lat="40.194067" lon="-5.028883">
        <ele>1996.0</ele>
        <time>2018-09-15T13:13:43Z</time>
      </trkpt>
      <trkpt lat="40.194017" lon="-5.029017">
        <ele>1996.0</ele>
        <time>2018-09-15T13:13:44Z</time>
      </trkpt>
      <trkpt lat="40.193983" lon="-5.029150">
        <ele>1996.0</ele>
        <time>2018-09-15T13:13:45Z</time>
      </trkpt>
      <trkpt lat="40.193933" lon="-5.029300">
        <ele>1994.0</ele>
        <time>2018-09-15T13:13:46Z</time>
      </trkpt>
      <trkpt lat="40.193883" lon="-5.029433">
        <ele>1992.0</ele>
        <time>2018-09-15T13:13:47Z</time>
      </trkpt>
      <trkpt lat="40.193817" lon="-5.029583">
        <ele>1990.0</ele>
        <time>2018-09-15T13:13:48Z</time>
      </trkpt>
      <trkpt lat="40.193750" lon="-5.029733">
        <ele>1989.0</ele>
        <time>2018-09-15T13:13:49Z</time>
      </trkpt>
      <trkpt lat="40.193683" lon="-5.029883">
        <ele>1988.0</ele>
        <time>2018-09-15T13:13:50Z</time>
      </trkpt>
      <trkpt lat="40.193633" lon="-5.030017">
        <ele>1988.0</ele>
        <time>2018-09-15T13:13:51Z</time>
      </trkpt>
      <trkpt lat="40.193567" lon="-5.030133">
        <ele>1987.0</ele>
        <time>2018-09-15T13:13:52Z</time>
      </trkpt>
      <trkpt lat="40.193517" lon="-5.030250">
        <ele>1985.0</ele>
        <time>2018-09-15T13:13:53Z</time>
      </trkpt>
      <trkpt lat="40.193467" lon="-5.030383">
        <ele>1983.0</ele>
        <time>2018-09-15T13:13:54Z</time>
      </trkpt>
      <trkpt lat="40.193400" lon="-5.030517">
        <ele>1980.0</ele>
        <time>2018-09-15T13:13:55Z</time>
      </trkpt>
      <trkpt lat="40.193333" lon="-5.030683">
        <ele>1978.0</ele>
        <time>2018-09-15T13:13:56Z</time>
      </trkpt>
      <trkpt lat="40.193267" lon="-5.030833">
        <ele>1977.0</ele>
        <time>2018-09-15T13:13:57Z</time>
      </trkpt>
      <trkpt lat="40.193200" lon="-5.031000">
        <ele>1976.0</ele>
        <time>2018-09-15T13:13:58Z</time>
      </trkpt>
      <trkpt lat="40.193150" lon="-5.031150">
        <ele>1976.0</ele>
        <time>2018-09-15T13:13:59Z</time>
      </trkpt>
      <trkpt lat="40.193100" lon="-5.031300">
        <ele>1974.0</ele>
        <time>2018-09-15T13:14:00Z</time>
      </trkpt>
      <trkpt lat="40.193050" lon="-5.031450">
        <ele>1973.0</ele>
        <time>2018-09-15T13:14:01Z</time>
      </trkpt>
      <trkpt lat="40.193000" lon="-5.031583">
        <ele>1971.0</ele>
        <time>2018-09-15T13:14:02Z</time>
      </trkpt>
      <trkpt lat="40.192950" lon="-5.031733">
        <ele>1969.0</ele>
        <time>2018-09-15T13:14:03Z</time>
      </trkpt>
      <trkpt lat="40.192867" lon="-5.031883">
        <ele>1967.0</ele>
        <time>2018-09-15T13:14:04Z</time>
      </trkpt>
      <trkpt lat="40.192800" lon="-5.032033">
        <ele>1966.0</ele>
        <time>2018-09-15T13:14:05Z</time>
      </trkpt>
      <trkpt lat="40.192733" lon="-5.032183">
        <ele>1967.0</ele>
        <time>2018-09-15T13:14:06Z</time>
      </trkpt>
      <trkpt lat="40.192683" lon="-5.032333">
        <ele>1968.0</ele>
        <time>2018-09-15T13:14:07Z</time>
      </trkpt>
      <trkpt lat="40.192650" lon="-5.032467">
        <ele>1969.0</ele>
        <time>2018-09-15T13:14:08Z</time>
      </trkpt>
      <trkpt lat="40.192600" lon="-5.032600">
        <ele>1967.0</ele>
        <time>2018-09-15T13:14:09Z</time>
      </trkpt>
      <trkpt lat="40.192567" lon="-5.032717">
        <ele>1965.0</ele>
        <time>2018-09-15T13:14:10Z</time>
      </trkpt>
      <trkpt lat="40.192517" lon="-5.032850">
        <ele>1962.0</ele>
        <time>2018-09-15T13:14:11Z</time>
      </trkpt>
      <trkpt lat="40.192450" lon="-5.033000">
        <ele>1959.0</ele>
        <time>2018-09-15T13:14:12Z</time>
      </trkpt>
      <trkpt lat="40.192400" lon="-5.033150">
        <ele>1957.0</ele>
        <time>2018-09-15T13:14:13Z</time>
      </trkpt>
      <trkpt lat="40.192350" lon="-5.033300">
        <ele>1956.0</ele>
        <time>2018-09-15T13:14:14Z</time>
      </trkpt>
      <trkpt lat="40.192300" lon="-5.033433">
        <ele>1956.0</ele>
        <time>2018-09-15T13:14:15Z</time>
      </trkpt>
      <trkpt lat="40.192250" lon="-5.033550">
        <ele>1954.0</ele>
        <time>2018-09-15T13:14:16Z</time>
      </trkpt>
      <trkpt lat="40.192200" lon="-5.033683">
        <ele>1952.0</ele>
        <time>2018-09-15T13:14:17Z</time>
      </trkpt>
      <trkpt lat="40.192150" lon="-5.033817">
        <ele>1949.0</ele>
        <time>2018-09-15T13:14:18Z</time>
      </trkpt>
      <trkpt lat="40.192083" lon="-5.033967">
        <ele>1946.0</ele>
        <time>2018-09-15T13:14:19Z</time>
      </trkpt>
      <trkpt lat="40.192033" lon="-5.034117">
        <ele>1945.0</ele>
        <time>2018-09-15T13:14:20Z</time>
      </trkpt>
      <trkpt lat="40.191967" lon="-5.034250">
        <ele>1944.0</ele>
        <time>2018-09-15T13:14:21Z</time>
      </trkpt>
      <trkpt lat="40.191917" lon="-5.034383">
        <ele>1943.0</ele>
        <time>2018-09-15T13:14:22Z</time>
      </trkpt>
      <trkpt lat="40.191867" lon="-5.034500">
        <ele>1942.0</ele>
        <time>2018-09-15T13:14:23Z</time>
      </trkpt>
      <trkpt lat="40.191833" lon="-5.034633">
        <ele>1940.0</ele>
        <time>2018-09-15T13:14:24Z</time>
      </trkpt>
      <trkpt lat="40.191767" lon="-5.034750">
        <ele>1937.0</ele>
        <time>2018-09-15T13:14:25Z</time>
      </trkpt>
      <trkpt lat="40.191717" lon="-5.034883">
        <ele>1934.0</ele>
        <time>2018-09-15T13:14:26Z</time>
      </trkpt>
      <trkpt lat="40.191650" lon="-5.035017">
        <ele>1931.0</ele>
        <time>2018-09-15T13:14:27Z</time>
      </trkpt>
      <trkpt lat="40.191583" lon="-5.035150">
        <ele>1929.0</ele>
        <time>2018-09-15T13:14:28Z</time>
      </trkpt>
      <trkpt lat="40.191517" lon="-5.035300">
        <ele>1927.0</ele>
        <time>2018-09-15T13:14:29Z</time>
      </trkpt>
      <trkpt lat="40.191467" lon="-5.035450">
        <ele>1926.0</ele>
        <time>2018-09-15T13:14:30Z</time>
      </trkpt>
      <trkpt lat="40.191417" lon="-5.035600">
        <ele>1925.0</ele>
        <time>2018-09-15T13:14:31Z</time>
      </trkpt>
      <trkpt lat="40.191367" lon="-5.035733">
        <ele>1924.0</ele>
        <time>2018-09-15T13:14:32Z</time>
      </trkpt>
      <trkpt lat="40.191300" lon="-5.035850">
        <ele>1924.0</ele>
        <time>2018-09-15T13:14:33Z</time>
      </trkpt>
      <trkpt lat="40.191233" lon="-5.035967">
        <ele>1922.0</ele>
        <time>2018-09-15T13:14:34Z</time>
      </trkpt>
      <trkpt lat="40.191150" lon="-5.036083">
        <ele>1920.0</ele>
        <time>2018-09-15T13:14:35Z</time>
      </trkpt>
      <trkpt lat="40.191067" lon="-5.036200">
        <ele>1918.0</ele>
        <time>2018-09-15T13:14:36Z</time>
      </trkpt>
      <trkpt lat="40.190983" lon="-5.036317">
        <ele>1916.0</ele>
        <time>2018-09-15T13:14:37Z</time>
      </trkpt>
      <trkpt lat="40.190900" lon="-5.036433">
        <ele>1914.0</ele>
        <time>2018-09-15T13:14:38Z</time>
      </trkpt>
      <trkpt lat="40.190817" lon="-5.036550">
        <ele>1913.0</ele>
        <time>2018-09-15T13:14:39Z</time>
      </trkpt>
      <trkpt lat="40.190717" lon="-5.036650">
        <ele>1910.0</ele>
        <time>2018-09-15T13:14:40Z</time>
      </trkpt>
      <trkpt lat="40.190617" lon="-5.036750">
        <ele>1907.0</ele>
        <time>2018-09-15T13:14:41Z</time>
      </trkpt>
      <trkpt lat="40.190517" lon="-5.036867">
        <ele>1905.0</ele>
        <time>2018-09-15T13:14:42Z</time>
      </trkpt>
      <trkpt lat="40.190417" lon="-5.037000">
        <ele>1903.0</ele>
        <time>2018-09-15T13:14:43Z</time>
      </trkpt>
      <trkpt lat="40.190317" lon="-5.037133">
        <ele>1902.0</ele>
        <time>2018-09-15T13:14:44Z</time>
      </trkpt>
      <trkpt lat="40.190233" lon="-5.037250">
        <ele>1901.0</ele>
        <time>2018-09-15T13:14:45Z</time>
      </trkpt>
      <trkpt lat="40.190150" lon="-5.037367">
        <ele>1900.0</ele>
        <time>2018-09-15T13:14:46Z</time>
      </trkpt>
      <trkpt lat="40.190067" lon="-5.037483">
        <ele>1900.0</ele>
        <time>2018-09-15T13:14:47Z</time>
      </trkpt>
      <trkpt lat="40.189983" lon="-5.037583">
        <ele>1898.0</ele>
        <time>2018-09-15T13:14:48Z</time>
      </trkpt>
      <trkpt lat="40.189900" lon="-5.037700">
        <ele>1896.0</ele>
        <time>2018-09-15T13:14:49Z</time>
      </trkpt>
      <trkpt lat="40.189817" lon="-5.037817">
        <ele>1893.0</ele>
        <time>2018-09-15T13:14:50Z</time>
      </trkpt>
      <trkpt lat="40.189717" lon="-5.037917">
        <ele>1890.0</ele>
        <time>2018-09-15T13:14:51Z</time>
      </trkpt>
      <trkpt lat="40.189633" lon="-5.038033">
        <ele>1888.0</ele>
        <time>2018-09-15T13:14:52Z</time>
      </trkpt>
      <trkpt lat="40.189550" lon="-5.038133">
        <ele>1886.0</ele>
        <time>2018-09-15T13:14:53Z</time>
      </trkpt>
      <trkpt lat="40.189483" lon="-5.038250">
        <ele>1884.0</ele>
        <time>2018-09-15T13:14:54Z</time>
      </trkpt>
      <trkpt lat="40.189400" lon="-5.038350">
        <ele>1880.0</ele>
        <time>2018-09-15T13:14:55Z</time>
      </trkpt>
      <trkpt lat="40.189317" lon="-5.038467">
        <ele>1877.0</ele>
        <time>2018-09-15T13:14:56Z</time>
      </trkpt>
      <trkpt lat="40.189217" lon="-5.038600">
        <ele>1873.0</ele>
        <time>2018-09-15T13:14:57Z</time>
      </trkpt>
      <trkpt lat="40.189117" lon="-5.038700">
        <ele>1871.0</ele>
        <time>2018-09-15T13:14:58Z</time>
      </trkpt>
      <trkpt lat="40.189017" lon="-5.038817">
        <ele>1869.0</ele>
        <time>2018-09-15T13:14:59Z</time>
      </trkpt>
      <trkpt lat="40.188917" lon="-5.038917">
        <ele>1867.0</ele>
        <time>2018-09-15T13:15:00Z</time>
      </trkpt>
      <trkpt lat="40.188833" lon="-5.039017">
        <ele>1865.0</ele>
        <time>2018-09-15T13:15:01Z</time>
      </trkpt>
      <trkpt lat="40.188767" lon="-5.039133">
        <ele>1863.0</ele>
        <time>2018-09-15T13:15:02Z</time>
      </trkpt>
      <trkpt lat="40.188700" lon="-5.039250">
        <ele>1861.0</ele>
        <time>2018-09-15T13:15:03Z</time>
      </trkpt>
      <trkpt lat="40.188633" lon="-5.039400">
        <ele>1858.0</ele>
        <time>2018-09-15T13:15:04Z</time>
      </trkpt>
      <trkpt lat="40.188583" lon="-5.039533">
        <ele>1856.0</ele>
        <time>2018-09-15T13:15:05Z</time>
      </trkpt>
      <trkpt lat="40.188517" lon="-5.039683">
        <ele>1854.0</ele>
        <time>2018-09-15T13:15:06Z</time>
      </trkpt>
      <trkpt lat="40.188450" lon="-5.039817">
        <ele>1852.0</ele>
        <time>2018-09-15T13:15:07Z</time>
      </trkpt>
      <trkpt lat="40.188383" lon="-5.039967">
        <ele>1850.0</ele>
        <time>2018-09-15T13:15:08Z</time>
      </trkpt>
      <trkpt lat="40.188317" lon="-5.040100">
        <ele>1848.0</ele>
        <time>2018-09-15T13:15:09Z</time>
      </trkpt>
      <trkpt lat="40.188250" lon="-5.040233">
        <ele>1845.0</ele>
        <time>2018-09-15T13:15:10Z</time>
      </trkpt>
      <trkpt lat="40.188183" lon="-5.040367">
        <ele>1843.0</ele>
        <time>2018-09-15T13:15:11Z</time>
      </trkpt>
      <trkpt lat="40.188117" lon="-5.040500">
        <ele>1841.0</ele>
        <time>2018-09-15T13:15:12Z</time>
      </trkpt>
      <trkpt lat="40.188050" lon="-5.040650">
        <ele>1839.0</ele>
        <time>2018-09-15T13:15:13Z</time>
      </trkpt>
      <trkpt lat="40.187983" lon="-5.040800">
        <ele>1837.0</ele>
        <time>2018-09-15T13:15:14Z</time>
      </trkpt>
      <trkpt lat="40.187917" lon="-5.040933">
        <ele>1836.0</ele>
        <time>2018-09-15T13:15:15Z</time>
      </trkpt>
      <trkpt lat="40.187850" lon="-5.041067">
        <ele>1835.0</ele>
        <time>2018-09-15T13:15:16Z</time>
      </trkpt>
      <trkpt lat="40.187800" lon="-5.041200">
        <ele>1834.0</ele>
        <time>2018-09-15T13:15:17Z</time>
      </trkpt>
      <trkpt lat="40.187750" lon="-5.041333">
        <ele>1832.0</ele>
        <time>2018-09-15T13:15:18Z</time>
      </trkpt>
      <trkpt lat="40.187700" lon="-5.041483">
        <ele>1830.0</ele>
        <time>2018-09-15T13:15:19Z</time>
      </trkpt>
      <trkpt lat="40.187650" lon="-5.041617">
        <ele>1827.0</ele>
        <time>2018-09-15T13:15:20Z</time>
      </trkpt>
      <trkpt lat="40.187583" lon="-5.041767">
        <ele>1825.0</ele>
        <time>2018-09-15T13:15:21Z</time>
      </trkpt>
      <trkpt lat="40.187533" lon="-5.041900">
        <ele>1823.0</ele>
        <time>2018-09-15T13:15:22Z</time>
      </trkpt>
      <trkpt lat="40.187483" lon="-5.042033">
        <ele>1821.0</ele>
        <time>2018-09-15T13:15:23Z</time>
      </trkpt>
      <trkpt lat="40.187450" lon="-5.042183">
        <ele>1820.0</ele>
        <time>2018-09-15T13:15:24Z</time>
      </trkpt>
      <trkpt lat="40.187417" lon="-5.042333">
        <ele>1819.0</ele>
        <time>2018-09-15T13:15:25Z</time>
      </trkpt>
      <trkpt lat="40.187383" lon="-5.042467">
        <ele>1818.0</ele>
        <time>2018-09-15T13:15:26Z</time>
      </trkpt>
      <trkpt lat="40.187350" lon="-5.042600">
        <ele>1817.0</ele>
        <time>2018-09-15T13:15:27Z</time>
      </trkpt>
      <trkpt lat="40.187317" lon="-5.042733">
        <ele>1815.0</ele>
        <time>2018-09-15T13:15:28Z</time>
      </trkpt>
      <trkpt lat="40.187283" lon="-5.042867">
        <ele>1813.0</ele>
        <time>2018-09-15T13:15:29Z</time>
      </trkpt>
      <trkpt lat="40.187233" lon="-5.043017">
        <ele>1812.0</ele>
        <time>2018-09-15T13:15:30Z</time>
      </trkpt>
      <trkpt lat="40.187183" lon="-5.043150">
        <ele>1811.0</ele>
        <time>2018-09-15T13:15:31Z</time>
      </trkpt>
      <trkpt lat="40.187150" lon="-5.043300">
        <ele>1810.0</ele>
        <time>2018-09-15T13:15:32Z</time>
      </trkpt>
      <trkpt lat="40.187100" lon="-5.043450">
        <ele>1810.0</ele>
        <time>2018-09-15T13:15:33Z</time>
      </trkpt>
      <trkpt lat="40.187067" lon="-5.043600">
        <ele>1809.0</ele>
        <time>2018-09-15T13:15:34Z</time>
      </trkpt>
      <trkpt lat="40.187033" lon="-5.043750">
        <ele>1808.0</ele>
        <time>2018-09-15T13:15:35Z</time>
      </trkpt>
      <trkpt lat="40.187000" lon="-5.043900">
        <ele>1807.0</ele>
        <time>2018-09-15T13:15:36Z</time>
      </trkpt>
      <trkpt lat="40.186967" lon="-5.044050">
        <ele>1805.0</ele>
        <time>2018-09-15T13:15:37Z</time>
      </trkpt>
      <trkpt lat="40.186950" lon="-5.044217">
        <ele>1804.0</ele>
        <time>2018-09-15T13:15:38Z</time>
      </trkpt>
      <trkpt lat="40.186933" lon="-5.044367">
        <ele>1803.0</ele>
        <time>2018-09-15T13:15:39Z</time>
      </trkpt>
      <trkpt lat="40.186900" lon="-5.044517">
        <ele>1802.0</ele>
        <time>2018-09-15T13:15:40Z</time>
      </trkpt>
      <trkpt lat="40.186867" lon="-5.044683">
        <ele>1800.0</ele>
        <time>2018-09-15T13:15:41Z</time>
      </trkpt>
      <trkpt lat="40.186817" lon="-5.044833">
        <ele>1799.0</ele>
        <time>2018-09-15T13:15:42Z</time>
      </trkpt>
      <trkpt lat="40.186783" lon="-5.044983">
        <ele>1797.0</ele>
        <time>2018-09-15T13:15:43Z</time>
      </trkpt>
      <trkpt lat="40.186733" lon="-5.045133">
        <ele>1796.0</ele>
        <time>2018-09-15T13:15:44Z</time>
      </trkpt>
      <trkpt lat="40.186683" lon="-5.045283">
        <ele>1794.0</ele>
        <time>2018-09-15T13:15:45Z</time>
      </trkpt>
      <trkpt lat="40.186650" lon="-5.045450">
        <ele>1792.0</ele>
        <time>2018-09-15T13:15:46Z</time>
      </trkpt>
      <trkpt lat="40.186600" lon="-5.045617">
        <ele>1790.0</ele>
        <time>2018-09-15T13:15:47Z</time>
      </trkpt>
      <trkpt lat="40.186567" lon="-5.045767">
        <ele>1789.0</ele>
        <time>2018-09-15T13:15:48Z</time>
      </trkpt>
      <trkpt lat="40.186517" lon="-5.045933">
        <ele>1787.0</ele>
        <time>2018-09-15T13:15:49Z</time>
      </trkpt>
      <trkpt lat="40.186483" lon="-5.046083">
        <ele>1785.0</ele>
        <time>2018-09-15T13:15:50Z</time>
      </trkpt>
      <trkpt lat="40.186450" lon="-5.046250">
        <ele>1783.0</ele>
        <time>2018-09-15T13:15:51Z</time>
      </trkpt>
      <trkpt lat="40.186433" lon="-5.046417">
        <ele>1781.0</ele>
        <time>2018-09-15T13:15:52Z</time>
      </trkpt>
      <trkpt lat="40.186417" lon="-5.046600">
        <ele>1779.0</ele>
        <time>2018-09-15T13:15:53Z</time>
      </trkpt>
      <trkpt lat="40.186417" lon="-5.046767">
        <ele>1778.0</ele>
        <time>2018-09-15T13:15:54Z</time>
      </trkpt>
      <trkpt lat="40.186400" lon="-5.046933">
        <ele>1776.0</ele>
        <time>2018-09-15T13:15:55Z</time>
      </trkpt>
      <trkpt lat="40.186383" lon="-5.047100">
        <ele>1775.0</ele>
        <time>2018-09-15T13:15:56Z</time>
      </trkpt>
      <trkpt lat="40.186350" lon="-5.047267">
        <ele>1772.0</ele>
        <time>2018-09-15T13:15:57Z</time>
      </trkpt>
      <trkpt lat="40.186317" lon="-5.047417">
        <ele>1770.0</ele>
        <time>2018-09-15T13:15:58Z</time>
      </trkpt>
      <trkpt lat="40.186300" lon="-5.047583">
        <ele>1768.0</ele>
        <time>2018-09-15T13:15:59Z</time>
      </trkpt>
      <trkpt lat="40.186267" lon="-5.047733">
        <ele>1766.0</ele>
        <time>2018-09-15T13:16:00Z</time>
      </trkpt>
      <trkpt lat="40.186233" lon="-5.047883">
        <ele>1764.0</ele>
        <time>2018-09-15T13:16:01Z</time>
      </trkpt>
      <trkpt lat="40.186217" lon="-5.048033">
        <ele>1761.0</ele>
        <time>2018-09-15T13:16:02Z</time>
      </trkpt>
      <trkpt lat="40.186167" lon="-5.048200">
        <ele>1758.0</ele>
        <time>2018-09-15T13:16:03Z</time>
      </trkpt>
      <trkpt lat="40.186133" lon="-5.048367">
        <ele>1755.0</ele>
        <time>2018-09-15T13:16:04Z</time>
      </trkpt>
      <trkpt lat="40.186083" lon="-5.048533">
        <ele>1753.0</ele>
        <time>2018-09-15T13:16:05Z</time>
      </trkpt>
      <trkpt lat="40.186033" lon="-5.048683">
        <ele>1751.0</ele>
        <time>2018-09-15T13:16:06Z</time>
      </trkpt>
      <trkpt lat="40.185983" lon="-5.048833">
        <ele>1749.0</ele>
        <time>2018-09-15T13:16:07Z</time>
      </trkpt>
      <trkpt lat="40.185917" lon="-5.048983">
        <ele>1746.0</ele>
        <time>2018-09-15T13:16:08Z</time>
      </trkpt>
      <trkpt lat="40.185867" lon="-5.049117">
        <ele>1744.0</ele>
        <time>2018-09-15T13:16:09Z</time>
      </trkpt>
      <trkpt lat="40.185817" lon="-5.049267">
        <ele>1742.0</ele>
        <time>2018-09-15T13:16:10Z</time>
      </trkpt>
      <trkpt lat="40.185750" lon="-5.049417">
        <ele>1740.0</ele>
        <time>2018-09-15T13:16:11Z</time>
      </trkpt>
      <trkpt lat="40.185700" lon="-5.049567">
        <ele>1738.0</ele>
        <time>2018-09-15T13:16:12Z</time>
      </trkpt>
      <trkpt lat="40.185650" lon="-5.049700">
        <ele>1737.0</ele>
        <time>2018-09-15T13:16:13Z</time>
      </trkpt>
      <trkpt lat="40.185583" lon="-5.049833">
        <ele>1735.0</ele>
        <time>2018-09-15T13:16:14Z</time>
      </trkpt>
      <trkpt lat="40.185533" lon="-5.049967">
        <ele>1733.0</ele>
        <time>2018-09-15T13:16:15Z</time>
      </trkpt>
      <trkpt lat="40.185483" lon="-5.050100">
        <ele>1731.0</ele>
        <time>2018-09-15T13:16:16Z</time>
      </trkpt>
      <trkpt lat="40.185417" lon="-5.050233">
        <ele>1729.0</ele>
        <time>2018-09-15T13:16:17Z</time>
      </trkpt>
      <trkpt lat="40.185367" lon="-5.050383">
        <ele>1726.0</ele>
        <time>2018-09-15T13:16:18Z</time>
      </trkpt>
      <trkpt lat="40.185300" lon="-5.050517">
        <ele>1724.0</ele>
        <time>2018-09-15T13:16:19Z</time>
      </trkpt>
      <trkpt lat="40.185250" lon="-5.050667">
        <ele>1722.0</ele>
        <time>2018-09-15T13:16:20Z</time>
      </trkpt>
      <trkpt lat="40.185183" lon="-5.050800">
        <ele>1720.0</ele>
        <time>2018-09-15T13:16:21Z</time>
      </trkpt>
      <trkpt lat="40.185133" lon="-5.050933">
        <ele>1719.0</ele>
        <time>2018-09-15T13:16:22Z</time>
      </trkpt>
      <trkpt lat="40.185083" lon="-5.051067">
        <ele>1717.0</ele>
        <time>2018-09-15T13:16:23Z</time>
      </trkpt>
      <trkpt lat="40.185033" lon="-5.051200">
        <ele>1715.0</ele>
        <time>2018-09-15T13:16:24Z</time>
      </trkpt>
      <trkpt lat="40.184983" lon="-5.051333">
        <ele>1713.0</ele>
        <time>2018-09-15T13:16:25Z</time>
      </trkpt>
      <trkpt lat="40.184933" lon="-5.051483">
        <ele>1710.0</ele>
        <time>2018-09-15T13:16:26Z</time>
      </trkpt>
      <trkpt lat="40.184883" lon="-5.051617">
        <ele>1708.0</ele>
        <time>2018-09-15T13:16:27Z</time>
      </trkpt>
      <trkpt lat="40.184833" lon="-5.051750">
        <ele>1707.0</ele>
        <time>2018-09-15T13:16:28Z</time>
      </trkpt>
      <trkpt lat="40.184800" lon="-5.051867">
        <ele>1706.0</ele>
        <time>2018-09-15T13:16:29Z</time>
      </trkpt>
      <trkpt lat="40.184750" lon="-5.052000">
        <ele>1704.0</ele>
        <time>2018-09-15T13:16:30Z</time>
      </trkpt>
      <trkpt lat="40.184717" lon="-5.052133">
        <ele>1702.0</ele>
        <time>2018-09-15T13:16:31Z</time>
      </trkpt>
      <trkpt lat="40.184683" lon="-5.052267">
        <ele>1699.0</ele>
        <time>2018-09-15T13:16:32Z</time>
      </trkpt>
      <trkpt lat="40.184650" lon="-5.052400">
        <ele>1697.0</ele>
        <time>2018-09-15T13:16:33Z</time>
      </trkpt>
      <trkpt lat="40.184600" lon="-5.052550">
        <ele>1694.0</ele>
        <time>2018-09-15T13:16:34Z</time>
      </trkpt>
      <trkpt lat="40.184550" lon="-5.052683">
        <ele>1693.0</ele>
        <time>2018-09-15T13:16:35Z</time>
      </trkpt>
      <trkpt lat="40.184500" lon="-5.052817">
        <ele>1691.0</ele>
        <time>2018-09-15T13:16:36Z</time>
      </trkpt>
      <trkpt lat="40.184467" lon="-5.052950">
        <ele>1690.0</ele>
        <time>2018-09-15T13:16:37Z</time>
      </trkpt>
      <trkpt lat="40.184417" lon="-5.053083">
        <ele>1688.0</ele>
        <time>2018-09-15T13:16:38Z</time>
      </trkpt>
      <trkpt lat="40.184383" lon="-5.053217">
        <ele>1687.0</ele>
        <time>2018-09-15T13:16:39Z</time>
      </trkpt>
      <trkpt lat="40.184333" lon="-5.053333">
        <ele>1685.0</ele>
        <time>2018-09-15T13:16:40Z</time>
      </trkpt>
      <trkpt lat="40.184267" lon="-5.053450">
        <ele>1684.0</ele>
        <time>2018-09-15T13:16:41Z</time>
      </trkpt>
      <trkpt lat="40.184217" lon="-5.053583">
        <ele>1682.0</ele>
        <time>2018-09-15T13:16:42Z</time>
      </trkpt>
      <trkpt lat="40.184150" lon="-5.053683">
        <ele>1681.0</ele>
        <time>2018-09-15T13:16:43Z</time>
      </trkpt>
      <trkpt lat="40.184100" lon="-5.053800">
        <ele>1680.0</ele>
        <time>2018-09-15T13:16:44Z</time>
      </trkpt>
      <trkpt lat="40.184033" lon="-5.053917">
        <ele>1678.0</ele>
        <time>2018-09-15T13:16:45Z</time>
      </trkpt>
      <trkpt lat="40.183967" lon="-5.054033">
        <ele>1677.0</ele>
        <time>2018-09-15T13:16:46Z</time>
      </trkpt>
      <trkpt lat="40.183917" lon="-5.054150">
        <ele>1675.0</ele>
        <time>2018-09-15T13:16:47Z</time>
      </trkpt>
      <trkpt lat="40.183850" lon="-5.054267">
        <ele>1674.0</ele>
        <time>2018-09-15T13:16:48Z</time>
      </trkpt>
      <trkpt lat="40.183783" lon="-5.054367">
        <ele>1673.0</ele>
        <time>2018-09-15T13:16:49Z</time>
      </trkpt>
      <trkpt lat="40.183717" lon="-5.054483">
        <ele>1671.0</ele>
        <time>2018-09-15T13:16:50Z</time>
      </trkpt>
      <trkpt lat="40.183650" lon="-5.054600">
        <ele>1669.0</ele>
        <time>2018-09-15T13:16:51Z</time>
      </trkpt>
      <trkpt lat="40.183600" lon="-5.054733">
        <ele>1668.0</ele>
        <time>2018-09-15T13:16:52Z</time>
      </trkpt>
      <trkpt lat="40.183567" lon="-5.054867">
        <ele>1666.0</ele>
        <time>2018-09-15T13:16:53Z</time>
      </trkpt>
      <trkpt lat="40.183533" lon="-5.055000">
        <ele>1665.0</ele>
        <time>2018-09-15T13:16:54Z</time>
      </trkpt>
      <trkpt lat="40.183500" lon="-5.055150">
        <ele>1664.0</ele>
        <time>2018-09-15T13:16:55Z</time>
      </trkpt>
      <trkpt lat="40.183483" lon="-5.055283">
        <ele>1663.0</ele>
        <time>2018-09-15T13:16:56Z</time>
      </trkpt>
      <trkpt lat="40.183467" lon="-5.055433">
        <ele>1661.0</ele>
        <time>2018-09-15T13:16:57Z</time>
      </trkpt>
      <trkpt lat="40.183450" lon="-5.055567">
        <ele>1659.0</ele>
        <time>2018-09-15T13:16:58Z</time>
      </trkpt>
      <trkpt lat="40.183433" lon="-5.055700">
        <ele>1657.0</ele>
        <time>2018-09-15T13:16:59Z</time>
      </trkpt>
      <trkpt lat="40.183417" lon="-5.055850">
        <ele>1654.0</ele>
        <time>2018-09-15T13:17:00Z</time>
      </trkpt>
      <trkpt lat="40.183367" lon="-5.055983">
        <ele>1651.0</ele>
        <time>2018-09-15T13:17:01Z</time>
      </trkpt>
      <trkpt lat="40.183317" lon="-5.056133">
        <ele>1649.0</ele>
        <time>2018-09-15T13:17:02Z</time>
      </trkpt>
      <trkpt lat="40.183267" lon="-5.056267">
        <ele>1648.0</ele>
        <time>2018-09-15T13:17:03Z</time>
      </trkpt>
      <trkpt lat="40.183200" lon="-5.056400">
        <ele>1647.0</ele>
        <time>2018-09-15T13:17:04Z</time>
      </trkpt>
      <trkpt lat="40.183150" lon="-5.056517">
        <ele>1646.0</ele>
        <time>2018-09-15T13:17:05Z</time>
      </trkpt>
      <trkpt lat="40.183100" lon="-5.056633">
        <ele>1644.0</ele>
        <time>2018-09-15T13:17:06Z</time>
      </trkpt>
      <trkpt lat="40.183050" lon="-5.056767">
        <ele>1642.0</ele>
        <time>2018-09-15T13:17:07Z</time>
      </trkpt>
      <trkpt lat="40.183000" lon="-5.056883">
        <ele>1639.0</ele>
        <time>2018-09-15T13:17:08Z</time>
      </trkpt>
      <trkpt lat="40.182933" lon="-5.057017">
        <ele>1637.0</ele>
        <time>2018-09-15T13:17:09Z</time>
      </trkpt>
      <trkpt lat="40.182883" lon="-5.057133">
        <ele>1635.0</ele>
        <time>2018-09-15T13:17:10Z</time>
      </trkpt>
      <trkpt lat="40.182833" lon="-5.057267">
        <ele>1632.0</ele>
        <time>2018-09-15T13:17:11Z</time>
      </trkpt>
      <trkpt lat="40.182783" lon="-5.057400">
        <ele>1630.0</ele>
        <time>2018-09-15T13:17:12Z</time>
      </trkpt>
      <trkpt lat="40.182733" lon="-5.057533">
        <ele>1628.0</ele>
        <time>2018-09-15T13:17:13Z</time>
      </trkpt>
      <trkpt lat="40.182683" lon="-5.057667">
        <ele>1627.0</ele>
        <time>2018-09-15T13:17:14Z</time>
      </trkpt>
      <trkpt lat="40.182633" lon="-5.057800">
        <ele>1625.0</ele>
        <time>2018-09-15T13:17:15Z</time>
      </trkpt>
      <trkpt lat="40.182583" lon="-5.057917">
        <ele>1623.0</ele>
        <time>2018-09-15T13:17:16Z</time>
      </trkpt>
      <trkpt lat="40.182533" lon="-5.058050">
        <ele>1621.0</ele>
        <time>2018-09-15T13:17:17Z</time>
      </trkpt>
      <trkpt lat="40.182483" lon="-5.058167">
        <ele>1619.0</ele>
        <time>2018-09-15T13:17:18Z</time>
      </trkpt>
      <trkpt lat="40.182433" lon="-5.058300">
        <ele>1616.0</ele>
        <time>2018-09-15T13:17:19Z</time>
      </trkpt>
      <trkpt lat="40.182383" lon="-5.058433">
        <ele>1613.0</ele>
        <time>2018-09-15T13:17:20Z</time>
      </trkpt>
      <trkpt lat="40.182317" lon="-5.058567">
        <ele>1610.0</ele>
        <time>2018-09-15T13:17:21Z</time>
      </trkpt>
      <trkpt lat="40.182267" lon="-5.058700">
        <ele>1608.0</ele>
        <time>2018-09-15T13:17:22Z</time>
      </trkpt>
      <trkpt lat="40.182217" lon="-5.058833">
        <ele>1607.0</ele>
        <time>2018-09-15T13:17:23Z</time>
      </trkpt>
      <trkpt lat="40.182167" lon="-5.058950">
        <ele>1605.0</ele>
        <time>2018-09-15T13:17:24Z</time>
      </trkpt>
      <trkpt lat="40.182117" lon="-5.059083">
        <ele>1603.0</ele>
        <time>2018-09-15T13:17:25Z</time>
      </trkpt>
      <trkpt lat="40.182067" lon="-5.059217">
        <ele>1600.0</ele>
        <time>2018-09-15T13:17:26Z</time>
      </trkpt>
      <trkpt lat="40.182017" lon="-5.059350">
        <ele>1597.0</ele>
        <time>2018-09-15T13:17:27Z</time>
      </trkpt>
      <trkpt lat="40.181967" lon="-5.059483">
        <ele>1594.0</ele>
        <time>2018-09-15T13:17:28Z</time>
      </trkpt>
      <trkpt lat="40.181900" lon="-5.059617">
        <ele>1591.0</ele>
        <time>2018-09-15T13:17:29Z</time>
      </trkpt>
      <trkpt lat="40.181850" lon="-5.059750">
        <ele>1588.0</ele>
        <time>2018-09-15T13:17:30Z</time>
      </trkpt>
      <trkpt lat="40.181783" lon="-5.059867">
        <ele>1586.0</ele>
        <time>2018-09-15T13:17:31Z</time>
      </trkpt>
      <trkpt lat="40.181733" lon="-5.060000">
        <ele>1584.0</ele>
        <time>2018-09-15T13:17:32Z</time>
      </trkpt>
      <trkpt lat="40.181667" lon="-5.060133">
        <ele>1582.0</ele>
        <time>2018-09-15T13:17:33Z</time>
      </trkpt>
      <trkpt lat="40.181617" lon="-5.060250">
        <ele>1579.0</ele>
        <time>2018-09-15T13:17:34Z</time>
      </trkpt>
      <trkpt lat="40.181533" lon="-5.060350">
        <ele>1577.0</ele>
        <time>2018-09-15T13:17:35Z</time>
      </trkpt>
      <trkpt lat="40.181467" lon="-5.060450">
        <ele>1575.0</ele>
        <time>2018-09-15T13:17:36Z</time>
      </trkpt>
      <trkpt lat="40.181383" lon="-5.060550">
        <ele>1572.0</ele>
        <time>2018-09-15T13:17:37Z</time>
      </trkpt>
      <trkpt lat="40.181300" lon="-5.060650">
        <ele>1570.0</ele>
        <time>2018-09-15T13:17:38Z</time>
      </trkpt>
      <trkpt lat="40.181233" lon="-5.060750">
        <ele>1568.0</ele>
        <time>2018-09-15T13:17:39Z</time>
      </trkpt>
      <trkpt lat="40.181150" lon="-5.060867">
        <ele>1566.0</ele>
        <time>2018-09-15T13:17:40Z</time>
      </trkpt>
      <trkpt lat="40.181083" lon="-5.060967">
        <ele>1564.0</ele>
        <time>2018-09-15T13:17:41Z</time>
      </trkpt>
      <trkpt lat="40.181000" lon="-5.061067">
        <ele>1562.0</ele>
        <time>2018-09-15T13:17:42Z</time>
      </trkpt>
      <trkpt lat="40.180933" lon="-5.061167">
        <ele>1560.0</ele>
        <time>2018-09-15T13:17:43Z</time>
      </trkpt>
      <trkpt lat="40.180850" lon="-5.061267">
        <ele>1558.0</ele>
        <time>2018-09-15T13:17:44Z</time>
      </trkpt>
      <trkpt lat="40.180783" lon="-5.061383">
        <ele>1556.0</ele>
        <time>2018-09-15T13:17:45Z</time>
      </trkpt>
      <trkpt lat="40.180717" lon="-5.061483">
        <ele>1554.0</ele>
        <time>2018-09-15T13:17:46Z</time>
      </trkpt>
      <trkpt lat="40.180633" lon="-5.061583">
        <ele>1552.0</ele>
        <time>2018-09-15T13:17:47Z</time>
      </trkpt>
      <trkpt lat="40.180550" lon="-5.061683">
        <ele>1550.0</ele>
        <time>2018-09-15T13:17:48Z</time>
      </trkpt>
      <trkpt lat="40.180467" lon="-5.061750">
        <ele>1548.0</ele>
        <time>2018-09-15T13:17:49Z</time>
      </trkpt>
      <trkpt lat="40.180383" lon="-5.061833">
        <ele>1546.0</ele>
        <time>2018-09-15T13:17:50Z</time>
      </trkpt>
      <trkpt lat="40.180300" lon="-5.061900">
        <ele>1544.0</ele>
        <time>2018-09-15T13:17:51Z</time>
      </trkpt>
      <trkpt lat="40.180217" lon="-5.061950">
        <ele>1542.0</ele>
        <time>2018-09-15T13:17:52Z</time>
      </trkpt>
      <trkpt lat="40.180133" lon="-5.062000">
        <ele>1540.0</ele>
        <time>2018-09-15T13:17:53Z</time>
      </trkpt>
      <trkpt lat="40.180050" lon="-5.062050">
        <ele>1537.0</ele>
        <time>2018-09-15T13:17:54Z</time>
      </trkpt>
      <trkpt lat="40.179950" lon="-5.062083">
        <ele>1535.0</ele>
        <time>2018-09-15T13:17:55Z</time>
      </trkpt>
      <trkpt lat="40.179883" lon="-5.062150">
        <ele>1533.0</ele>
        <time>2018-09-15T13:17:56Z</time>
      </trkpt>
      <trkpt lat="40.179800" lon="-5.062200">
        <ele>1531.0</ele>
        <time>2018-09-15T13:17:57Z</time>
      </trkpt>
      <trkpt lat="40.179717" lon="-5.062267">
        <ele>1528.0</ele>
        <time>2018-09-15T13:17:58Z</time>
      </trkpt>
      <trkpt lat="40.179633" lon="-5.062333">
        <ele>1525.0</ele>
        <time>2018-09-15T13:17:59Z</time>
      </trkpt>
      <trkpt lat="40.179550" lon="-5.062383">
        <ele>1522.0</ele>
        <time>2018-09-15T13:18:00Z</time>
      </trkpt>
      <trkpt lat="40.179467" lon="-5.062450">
        <ele>1519.0</ele>
        <time>2018-09-15T13:18:01Z</time>
      </trkpt>
      <trkpt lat="40.179383" lon="-5.062500">
        <ele>1516.0</ele>
        <time>2018-09-15T13:18:02Z</time>
      </trkpt>
      <trkpt lat="40.179300" lon="-5.062567">
        <ele>1513.0</ele>
        <time>2018-09-15T13:18:03Z</time>
      </trkpt>
      <trkpt lat="40.179217" lon="-5.062650">
        <ele>1510.0</ele>
        <time>2018-09-15T13:18:04Z</time>
      </trkpt>
      <trkpt lat="40.179133" lon="-5.062767">
        <ele>1507.0</ele>
        <time>2018-09-15T13:18:05Z</time>
      </trkpt>
      <trkpt lat="40.179050" lon="-5.062867">
        <ele>1505.0</ele>
        <time>2018-09-15T13:18:06Z</time>
      </trkpt>
      <trkpt lat="40.178983" lon="-5.062983">
        <ele>1502.0</ele>
        <time>2018-09-15T13:18:07Z</time>
      </trkpt>
      <trkpt lat="40.178917" lon="-5.063100">
        <ele>1500.0</ele>
        <time>2018-09-15T13:18:08Z</time>
      </trkpt>
      <trkpt lat="40.178850" lon="-5.063217">
        <ele>1498.0</ele>
        <time>2018-09-15T13:18:09Z</time>
      </trkpt>
      <trkpt lat="40.178800" lon="-5.063333">
        <ele>1495.0</ele>
        <time>2018-09-15T13:18:10Z</time>
      </trkpt>
      <trkpt lat="40.178733" lon="-5.063467">
        <ele>1492.0</ele>
        <time>2018-09-15T13:18:11Z</time>
      </trkpt>
      <trkpt lat="40.178667" lon="-5.063583">
        <ele>1490.0</ele>
        <time>2018-09-15T13:18:12Z</time>
      </trkpt>
      <trkpt lat="40.178617" lon="-5.063683">
        <ele>1487.0</ele>
        <time>2018-09-15T13:18:13Z</time>
      </trkpt>
      <trkpt lat="40.178567" lon="-5.063783">
        <ele>1485.0</ele>
        <time>2018-09-15T13:18:14Z</time>
      </trkpt>
      <trkpt lat="40.178500" lon="-5.063900">
        <ele>1482.0</ele>
        <time>2018-09-15T13:18:15Z</time>
      </trkpt>
      <trkpt lat="40.178450" lon="-5.064017">
        <ele>1479.0</ele>
        <time>2018-09-15T13:18:16Z</time>
      </trkpt>
      <trkpt lat="40.178400" lon="-5.064133">
        <ele>1475.0</ele>
        <time>2018-09-15T13:18:17Z</time>
      </trkpt>
      <trkpt lat="40.178333" lon="-5.064250">
        <ele>1472.0</ele>
        <time>2018-09-15T13:18:18Z</time>
      </trkpt>
      <trkpt lat="40.178267" lon="-5.064367">
        <ele>1469.0</ele>
        <time>2018-09-15T13:18:19Z</time>
      </trkpt>
      <trkpt lat="40.178217" lon="-5.064483">
        <ele>1467.0</ele>
        <time>2018-09-15T13:18:20Z</time>
      </trkpt>
      <trkpt lat="40.178167" lon="-5.064600">
        <ele>1466.0</ele>
        <time>2018-09-15T13:18:21Z</time>
      </trkpt>
      <trkpt lat="40.178117" lon="-5.064733">
        <ele>1464.0</ele>
        <time>2018-09-15T13:18:22Z</time>
      </trkpt>
      <trkpt lat="40.178067" lon="-5.064850">
        <ele>1462.0</ele>
        <time>2018-09-15T13:18:23Z</time>
      </trkpt>
      <trkpt lat="40.178017" lon="-5.064967">
        <ele>1460.0</ele>
        <time>2018-09-15T13:18:24Z</time>
      </trkpt>
      <trkpt lat="40.177950" lon="-5.065083">
        <ele>1457.0</ele>
        <time>2018-09-15T13:18:25Z</time>
      </trkpt>
      <trkpt lat="40.177883" lon="-5.065200">
        <ele>1455.0</ele>
        <time>2018-09-15T13:18:26Z</time>
      </trkpt>
      <trkpt lat="40.177817" lon="-5.065317">
        <ele>1452.0</ele>
        <time>2018-09-15T13:18:27Z</time>
      </trkpt>
      <trkpt lat="40.177750" lon="-5.065433">
        <ele>1450.0</ele>
        <time>2018-09-15T13:18:28Z</time>
      </trkpt>
      <trkpt lat="40.177683" lon="-5.065533">
        <ele>1448.0</ele>
        <time>2018-09-15T13:18:29Z</time>
      </trkpt>
      <trkpt lat="40.177617" lon="-5.065650">
        <ele>1445.0</ele>
        <time>2018-09-15T13:18:30Z</time>
      </trkpt>
      <trkpt lat="40.177567" lon="-5.065767">
        <ele>1442.0</ele>
        <time>2018-09-15T13:18:31Z</time>
      </trkpt>
      <trkpt lat="40.177500" lon="-5.065883">
        <ele>1439.0</ele>
        <time>2018-09-15T13:18:32Z</time>
      </trkpt>
      <trkpt lat="40.177417" lon="-5.065983">
        <ele>1436.0</ele>
        <time>2018-09-15T13:18:33Z</time>
      </trkpt>
      <trkpt lat="40.177350" lon="-5.066083">
        <ele>1434.0</ele>
        <time>2018-09-15T13:18:34Z</time>
      </trkpt>
      <trkpt lat="40.177267" lon="-5.066183">
        <ele>1432.0</ele>
        <time>2018-09-15T13:18:35Z</time>
      </trkpt>
      <trkpt lat="40.177183" lon="-5.066267">
        <ele>1429.0</ele>
        <time>2018-09-15T13:18:36Z</time>
      </trkpt>
      <trkpt lat="40.177117" lon="-5.066367">
        <ele>1427.0</ele>
        <time>2018-09-15T13:18:37Z</time>
      </trkpt>
      <trkpt lat="40.177033" lon="-5.066467">
        <ele>1424.0</ele>
        <time>2018-09-15T13:18:38Z</time>
      </trkpt>
      <trkpt lat="40.176967" lon="-5.066583">
        <ele>1422.0</ele>
        <time>2018-09-15T13:18:39Z</time>
      </trkpt>
      <trkpt lat="40.176900" lon="-5.066683">
        <ele>1420.0</ele>
        <time>2018-09-15T13:18:40Z</time>
      </trkpt>
      <trkpt lat="40.176833" lon="-5.066783">
        <ele>1418.0</ele>
        <time>2018-09-15T13:18:41Z</time>
      </trkpt>
      <trkpt lat="40.176750" lon="-5.066883">
        <ele>1416.0</ele>
        <time>2018-09-15T13:18:42Z</time>
      </trkpt>
      <trkpt lat="40.176683" lon="-5.067000">
        <ele>1413.0</ele>
        <time>2018-09-15T13:18:43Z</time>
      </trkpt>
      <trkpt lat="40.176600" lon="-5.067117">
        <ele>1411.0</ele>
        <time>2018-09-15T13:18:44Z</time>
      </trkpt>
      <trkpt lat="40.176533" lon="-5.067233">
        <ele>1409.0</ele>
        <time>2018-09-15T13:18:45Z</time>
      </trkpt>
      <trkpt lat="40.176467" lon="-5.067333">
        <ele>1406.0</ele>
        <time>2018-09-15T13:18:46Z</time>
      </trkpt>
      <trkpt lat="40.176383" lon="-5.067433">
        <ele>1404.0</ele>
        <time>2018-09-15T13:18:47Z</time>
      </trkpt>
      <trkpt lat="40.176300" lon="-5.067533">
        <ele>1401.0</ele>
        <time>2018-09-15T13:18:48Z</time>
      </trkpt>
      <trkpt lat="40.176233" lon="-5.067650">
        <ele>1398.0</ele>
        <time>2018-09-15T13:18:49Z</time>
      </trkpt>
      <trkpt lat="40.176150" lon="-5.067750">
        <ele>1396.0</ele>
        <time>2018-09-15T13:18:50Z</time>
      </trkpt>
      <trkpt lat="40.176083" lon="-5.067850">
        <ele>1394.0</ele>
        <time>2018-09-15T13:18:51Z</time>
      </trkpt>
      <trkpt lat="40.176000" lon="-5.067950">
        <ele>1391.0</ele>
        <time>2018-09-15T13:18:52Z</time>
      </trkpt>
      <trkpt lat="40.175917" lon="-5.068033">
        <ele>1388.0</ele>
        <time>2018-09-15T13:18:53Z</time>
      </trkpt>
      <trkpt lat="40.175833" lon="-5.068117">
        <ele>1385.0</ele>
        <time>2018-09-15T13:18:54Z</time>
      </trkpt>
      <trkpt lat="40.175767" lon="-5.068200">
        <ele>1382.0</ele>
        <time>2018-09-15T13:18:55Z</time>
      </trkpt>
      <trkpt lat="40.175683" lon="-5.068267">
        <ele>1379.0</ele>
        <time>2018-09-15T13:18:56Z</time>
      </trkpt>
      <trkpt lat="40.175600" lon="-5.068350">
        <ele>1376.0</ele>
        <time>2018-09-15T13:18:57Z</time>
      </trkpt>
      <trkpt lat="40.175533" lon="-5.068417">
        <ele>1373.0</ele>
        <time>2018-09-15T13:18:58Z</time>
      </trkpt>
      <trkpt lat="40.175450" lon="-5.068500">
        <ele>1369.0</ele>
        <time>2018-09-15T13:18:59Z</time>
      </trkpt>
      <trkpt lat="40.175367" lon="-5.068583">
        <ele>1366.0</ele>
        <time>2018-09-15T13:19:00Z</time>
      </trkpt>
      <trkpt lat="40.175300" lon="-5.068667">
        <ele>1362.0</ele>
        <time>2018-09-15T13:19:01Z</time>
      </trkpt>
      <trkpt lat="40.175217" lon="-5.068750">
        <ele>1359.0</ele>
        <time>2018-09-15T13:19:02Z</time>
      </trkpt>
      <trkpt lat="40.175133" lon="-5.068833">
        <ele>1357.0</ele>
        <time>2018-09-15T13:19:03Z</time>
      </trkpt>
      <trkpt lat="40.175050" lon="-5.068900">
        <ele>1355.0</ele>
        <time>2018-09-15T13:19:04Z</time>
      </trkpt>
      <trkpt lat="40.174983" lon="-5.068983">
        <ele>1351.0</ele>
        <time>2018-09-15T13:19:05Z</time>
      </trkpt>
      <trkpt lat="40.174900" lon="-5.069083">
        <ele>1348.0</ele>
        <time>2018-09-15T13:19:06Z</time>
      </trkpt>
      <trkpt lat="40.174817" lon="-5.069167">
        <ele>1344.0</ele>
        <time>2018-09-15T13:19:07Z</time>
      </trkpt>
      <trkpt lat="40.174750" lon="-5.069267">
        <ele>1341.0</ele>
        <time>2018-09-15T13:19:08Z</time>
      </trkpt>
      <trkpt lat="40.174667" lon="-5.069367">
        <ele>1338.0</ele>
        <time>2018-09-15T13:19:09Z</time>
      </trkpt>
      <trkpt lat="40.174567" lon="-5.069450">
        <ele>1335.0</ele>
        <time>2018-09-15T13:19:10Z</time>
      </trkpt>
      <trkpt lat="40.174483" lon="-5.069533">
        <ele>1333.0</ele>
        <time>2018-09-15T13:19:11Z</time>
      </trkpt>
      <trkpt lat="40.174400" lon="-5.069600">
        <ele>1330.0</ele>
        <time>2018-09-15T13:19:12Z</time>
      </trkpt>
      <trkpt lat="40.174333" lon="-5.069683">
        <ele>1327.0</ele>
        <time>2018-09-15T13:19:13Z</time>
      </trkpt>
      <trkpt lat="40.174250" lon="-5.069767">
        <ele>1324.0</ele>
        <time>2018-09-15T13:19:14Z</time>
      </trkpt>
      <trkpt lat="40.174167" lon="-5.069850">
        <ele>1320.0</ele>
        <time>2018-09-15T13:19:15Z</time>
      </trkpt>
      <trkpt lat="40.174100" lon="-5.069933">
        <ele>1317.0</ele>
        <time>2018-09-15T13:19:16Z</time>
      </trkpt>
      <trkpt lat="40.174017" lon="-5.070017">
        <ele>1314.0</ele>
        <time>2018-09-15T13:19:17Z</time>
      </trkpt>
      <trkpt lat="40.173950" lon="-5.070100">
        <ele>1310.0</ele>
        <time>2018-09-15T13:19:18Z</time>
      </trkpt>
      <trkpt lat="40.173883" lon="-5.070167">
        <ele>1307.0</ele>
        <time>2018-09-15T13:19:19Z</time>
      </trkpt>
      <trkpt lat="40.173800" lon="-5.070250">
        <ele>1303.0</ele>
        <time>2018-09-15T13:19:20Z</time>
      </trkpt>
      <trkpt lat="40.173733" lon="-5.070350">
        <ele>1299.0</ele>
        <time>2018-09-15T13:19:21Z</time>
      </trkpt>
      <trkpt lat="40.173650" lon="-5.070433">
        <ele>1296.0</ele>
        <time>2018-09-15T13:19:22Z</time>
      </trkpt>
      <trkpt lat="40.173583" lon="-5.070533">
        <ele>1293.0</ele>
        <time>2018-09-15T13:19:23Z</time>
      </trkpt>
      <trkpt lat="40.173500" lon="-5.070617">
        <ele>1291.0</ele>
        <time>2018-09-15T13:19:24Z</time>
      </trkpt>
      <trkpt lat="40.173433" lon="-5.070683">
        <ele>1288.0</ele>
        <time>2018-09-15T13:19:25Z</time>
      </trkpt>
      <trkpt lat="40.173350" lon="-5.070767">
        <ele>1285.0</ele>
        <time>2018-09-15T13:19:26Z</time>
      </trkpt>
      <trkpt lat="40.173283" lon="-5.070850">
        <ele>1281.0</ele>
        <time>2018-09-15T13:19:27Z</time>
      </trkpt>
      <trkpt lat="40.173217" lon="-5.070933">
        <ele>1277.0</ele>
        <time>2018-09-15T13:19:28Z</time>
      </trkpt>
      <trkpt lat="40.173133" lon="-5.071017">
        <ele>1274.0</ele>
        <time>2018-09-15T13:19:29Z</time>
      </trkpt>
      <trkpt lat="40.173067" lon="-5.071100">
        <ele>1271.0</ele>
        <time>2018-09-15T13:19:30Z</time>
      </trkpt>
      <trkpt lat="40.173000" lon="-5.071183">
        <ele>1268.0</ele>
        <time>2018-09-15T13:19:31Z</time>
      </trkpt>
      <trkpt lat="40.172933" lon="-5.071250">
        <ele>1265.0</ele>
        <time>2018-09-15T13:19:32Z</time>
      </trkpt>
      <trkpt lat="40.172850" lon="-5.071333">
        <ele>1261.0</ele>
        <time>2018-09-15T13:19:33Z</time>
      </trkpt>
      <trkpt lat="40.172783" lon="-5.071433">
        <ele>1257.0</ele>
        <time>2018-09-15T13:19:34Z</time>
      </trkpt>
      <trkpt lat="40.172700" lon="-5.071517">
        <ele>1252.0</ele>
        <time>2018-09-15T13:19:35Z</time>
      </trkpt>
      <trkpt lat="40.172600" lon="-5.071600">
        <ele>1249.0</ele>
        <time>2018-09-15T13:19:36Z</time>
      </trkpt>
      <trkpt lat="40.172517" lon="-5.071667">
        <ele>1246.0</ele>
        <time>2018-09-15T13:19:37Z</time>
      </trkpt>
      <trkpt lat="40.172433" lon="-5.071733">
        <ele>1244.0</ele>
        <time>2018-09-15T13:19:38Z</time>
      </trkpt>
      <trkpt lat="40.172350" lon="-5.071783">
        <ele>1242.0</ele>
        <time>2018-09-15T13:19:39Z</time>
      </trkpt>
      <trkpt lat="40.172267" lon="-5.071850">
        <ele>1239.0</ele>
        <time>2018-09-15T13:19:40Z</time>
      </trkpt>
      <trkpt lat="40.172200" lon="-5.071917">
        <ele>1235.0</ele>
        <time>2018-09-15T13:19:41Z</time>
      </trkpt>
      <trkpt lat="40.172100" lon="-5.071983">
        <ele>1231.0</ele>
        <time>2018-09-15T13:19:42Z</time>
      </trkpt>
      <trkpt lat="40.172017" lon="-5.072033">
        <ele>1227.0</ele>
        <time>2018-09-15T13:19:43Z</time>
      </trkpt>
      <trkpt lat="40.171917" lon="-5.072117">
        <ele>1223.0</ele>
        <time>2018-09-15T13:19:44Z</time>
      </trkpt>
      <trkpt lat="40.171833" lon="-5.072183">
        <ele>1220.0</ele>
        <time>2018-09-15T13:19:45Z</time>
      </trkpt>
      <trkpt lat="40.171750" lon="-5.072250">
        <ele>1216.0</ele>
        <time>2018-09-15T13:19:46Z</time>
      </trkpt>
      <trkpt lat="40.171667" lon="-5.072333">
        <ele>1212.0</ele>
        <time>2018-09-15T13:19:47Z</time>
      </trkpt>
      <trkpt lat="40.171583" lon="-5.072400">
        <ele>1209.0</ele>
        <time>2018-09-15T13:19:48Z</time>
      </trkpt>
      <trkpt lat="40.171500" lon="-5.072483">
        <ele>1205.0</ele>
        <time>2018-09-15T13:19:49Z</time>
      </trkpt>
      <trkpt lat="40.171417" lon="-5.072567">
        <ele>1202.0</ele>
        <time>2018-09-15T13:19:50Z</time>
      </trkpt>
      <trkpt lat="40.171350" lon="-5.072650">
        <ele>1198.0</ele>
        <time>2018-09-15T13:19:51Z</time>
      </trkpt>
      <trkpt lat="40.171283" lon="-5.072750">
        <ele>1194.0</ele>
        <time>2018-09-15T13:19:52Z</time>
      </trkpt>
      <trkpt lat="40.171217" lon="-5.072867">
        <ele>1190.0</ele>
        <time>2018-09-15T13:19:53Z</time>
      </trkpt>
      <trkpt lat="40.171150" lon="-5.072983">
        <ele>1187.0</ele>
        <time>2018-09-15T13:19:54Z</time>
      </trkpt>
      <trkpt lat="40.171083" lon="-5.073083">
        <ele>1183.0</ele>
        <time>2018-09-15T13:19:55Z</time>
      </trkpt>
      <trkpt lat="40.171017" lon="-5.073183">
        <ele>1180.0</ele>
        <time>2018-09-15T13:19:56Z</time>
      </trkpt>
      <trkpt lat="40.170933" lon="-5.073267">
        <ele>1178.0</ele>
        <time>2018-09-15T13:19:57Z</time>
      </trkpt>
      <trkpt lat="40.170883" lon="-5.073367">
        <ele>1177.0</ele>
        <time>2018-09-15T13:19:58Z</time>
      </trkpt>
      <trkpt lat="40.170833" lon="-5.073450">
        <ele>1175.0</ele>
        <time>2018-09-15T13:19:59Z</time>
      </trkpt>
      <trkpt lat="40.170783" lon="-5.073533">
        <ele>1173.0</ele>
        <time>2018-09-15T13:20:00Z</time>
      </trkpt>
      <trkpt lat="40.170733" lon="-5.073617">
        <ele>1170.0</ele>
        <time>2018-09-15T13:20:01Z</time>
      </trkpt>
      <trkpt lat="40.170667" lon="-5.073683">
        <ele>1167.0</ele>
        <time>2018-09-15T13:20:02Z</time>
      </trkpt>
      <trkpt lat="40.170583" lon="-5.073767">
        <ele>1163.0</ele>
        <time>2018-09-15T13:20:03Z</time>
      </trkpt>
      <trkpt lat="40.170517" lon="-5.073867">
        <ele>1161.0</ele>
        <time>2018-09-15T13:20:04Z</time>
      </trkpt>
      <trkpt lat="40.170450" lon="-5.073967">
        <ele>1159.0</ele>
        <time>2018-09-15T13:20:05Z</time>
      </trkpt>
      <trkpt lat="40.170383" lon="-5.074067">
        <ele>1158.0</ele>
        <time>2018-09-15T13:20:06Z</time>
      </trkpt>
      <trkpt lat="40.170333" lon="-5.074167">
        <ele>1156.0</ele>
        <time>2018-09-15T13:20:07Z</time>
      </trkpt>
      <trkpt lat="40.170283" lon="-5.074250">
        <ele>1154.0</ele>
        <time>2018-09-15T13:20:08Z</time>
      </trkpt>
      <trkpt lat="40.170217" lon="-5.074333">
        <ele>1152.0</ele>
        <time>2018-09-15T13:20:09Z</time>
      </trkpt>
      <trkpt lat="40.170133" lon="-5.074417">
        <ele>1149.0</ele>
        <time>2018-09-15T13:20:10Z</time>
      </trkpt>
      <trkpt lat="40.170067" lon="-5.074500">
        <ele>1147.0</ele>
        <time>2018-09-15T13:20:11Z</time>
      </trkpt>
      <trkpt lat="40.170000" lon="-5.074583">
        <ele>1144.0</ele>
        <time>2018-09-15T13:20:12Z</time>
      </trkpt>
      <trkpt lat="40.169917" lon="-5.074650">
        <ele>1141.0</ele>
        <time>2018-09-15T13:20:13Z</time>
      </trkpt>
      <trkpt lat="40.169833" lon="-5.074733">
        <ele>1139.0</ele>
        <time>2018-09-15T13:20:14Z</time>
      </trkpt>
      <trkpt lat="40.169750" lon="-5.074800">
        <ele>1137.0</ele>
        <time>2018-09-15T13:20:15Z</time>
      </trkpt>
      <trkpt lat="40.169683" lon="-5.074883">
        <ele>1136.0</ele>
        <time>2018-09-15T13:20:16Z</time>
      </trkpt>
      <trkpt lat="40.169600" lon="-5.074950">
        <ele>1133.0</ele>
        <time>2018-09-15T13:20:17Z</time>
      </trkpt>
      <trkpt lat="40.169533" lon="-5.075033">
        <ele>1131.0</ele>
        <time>2018-09-15T13:20:18Z</time>
      </trkpt>
      <trkpt lat="40.169450" lon="-5.075100">
        <ele>1127.0</ele>
        <time>2018-09-15T13:20:19Z</time>
      </trkpt>
      <trkpt lat="40.169367" lon="-5.075183">
        <ele>1125.0</ele>
        <time>2018-09-15T13:20:20Z</time>
      </trkpt>
      <trkpt lat="40.169267" lon="-5.075267">
        <ele>1123.0</ele>
        <time>2018-09-15T13:20:21Z</time>
      </trkpt>
      <trkpt lat="40.169183" lon="-5.075367">
        <ele>1122.0</ele>
        <time>2018-09-15T13:20:22Z</time>
      </trkpt>
      <trkpt lat="40.169117" lon="-5.075483">
        <ele>1121.0</ele>
        <time>2018-09-15T13:20:23Z</time>
      </trkpt>
      <trkpt lat="40.169050" lon="-5.075567">
        <ele>1120.0</ele>
        <time>2018-09-15T13:20:24Z</time>
      </trkpt>
      <trkpt lat="40.168967" lon="-5.075650">
        <ele>1118.0</ele>
        <time>2018-09-15T13:20:25Z</time>
      </trkpt>
      <trkpt lat="40.168900" lon="-5.075717">
        <ele>1118.0</ele>
        <time>2018-09-15T13:20:26Z</time>
      </trkpt>
      <trkpt lat="40.168817" lon="-5.075800">
        <ele>1117.0</ele>
        <time>2018-09-15T13:20:27Z</time>
      </trkpt>
      <trkpt lat="40.168767" lon="-5.075867">
        <ele>1118.0</ele>
        <time>2018-09-15T13:20:28Z</time>
      </trkpt>
      <trkpt lat="40.168700" lon="-5.075933">
        <ele>1118.0</ele>
        <time>2018-09-15T13:20:29Z</time>
      </trkpt>
      <trkpt lat="40.168633" lon="-5.076000">
        <ele>1117.0</ele>
        <time>2018-09-15T13:20:30Z</time>
      </trkpt>
      <trkpt lat="40.168567" lon="-5.076067">
        <ele>1115.0</ele>
        <time>2018-09-15T13:20:31Z</time>
      </trkpt>
      <trkpt lat="40.168500" lon="-5.076133">
        <ele>1114.0</ele>
        <time>2018-09-15T13:20:32Z</time>
      </trkpt>
      <trkpt lat="40.168417" lon="-5.076217">
        <ele>1112.0</ele>
        <time>2018-09-15T13:20:33Z</time>
      </trkpt>
      <trkpt lat="40.168333" lon="-5.076283">
        <ele>1112.0</ele>
        <time>2018-09-15T13:20:34Z</time>
      </trkpt>
      <trkpt lat="40.168267" lon="-5.076367">
        <ele>1111.0</ele>
        <time>2018-09-15T13:20:35Z</time>
      </trkpt>
      <trkpt lat="40.168200" lon="-5.076433">
        <ele>1111.0</ele>
        <time>2018-09-15T13:20:36Z</time>
      </trkpt>
      <trkpt lat="40.168133" lon="-5.076517">
        <ele>1109.0</ele>
        <time>2018-09-15T13:20:37Z</time>
      </trkpt>
      <trkpt lat="40.168067" lon="-5.076600">
        <ele>1107.0</ele>
        <time>2018-09-15T13:20:38Z</time>
      </trkpt>
      <trkpt lat="40.168000" lon="-5.076683">
        <ele>1106.0</ele>
        <time>2018-09-15T13:20:39Z</time>
      </trkpt>
      <trkpt lat="40.167933" lon="-5.076750">
        <ele>1106.0</ele>
        <time>2018-09-15T13:20:40Z</time>
      </trkpt>
      <trkpt lat="40.167867" lon="-5.076817">
        <ele>1105.0</ele>
        <time>2018-09-15T13:20:41Z</time>
      </trkpt>
      <trkpt lat="40.167800" lon="-5.076883">
        <ele>1103.0</ele>
        <time>2018-09-15T13:20:42Z</time>
      </trkpt>
      <trkpt lat="40.167733" lon="-5.076950">
        <ele>1102.0</ele>
        <time>2018-09-15T13:20:43Z</time>
      </trkpt>
      <trkpt lat="40.167667" lon="-5.077033">
        <ele>1101.0</ele>
        <time>2018-09-15T13:20:44Z</time>
      </trkpt>
      <trkpt lat="40.167583" lon="-5.077100">
        <ele>1101.0</ele>
        <time>2018-09-15T13:20:45Z</time>
      </trkpt>
      <trkpt lat="40.167517" lon="-5.077183">
        <ele>1100.0</ele>
        <time>2018-09-15T13:20:46Z</time>
      </trkpt>
      <trkpt lat="40.167433" lon="-5.077250">
        <ele>1100.0</ele>
        <time>2018-09-15T13:20:47Z</time>
      </trkpt>
      <trkpt lat="40.167367" lon="-5.077350">
        <ele>1101.0</ele>
        <time>2018-09-15T13:20:48Z</time>
      </trkpt>
      <trkpt lat="40.167300" lon="-5.077433">
        <ele>1101.0</ele>
        <time>2018-09-15T13:20:49Z</time>
      </trkpt>
      <trkpt lat="40.167233" lon="-5.077517">
        <ele>1100.0</ele>
        <time>2018-09-15T13:20:50Z</time>
      </trkpt>
      <trkpt lat="40.167150" lon="-5.077600">
        <ele>1100.0</ele>
        <time>2018-09-15T13:20:51Z</time>
      </trkpt>
      <trkpt lat="40.167067" lon="-5.077683">
        <ele>1100.0</ele>
        <time>2018-09-15T13:20:52Z</time>
      </trkpt>
      <trkpt lat="40.167000" lon="-5.077783">
        <ele>1101.0</ele>
        <time>2018-09-15T13:20:53Z</time>
      </trkpt>
      <trkpt lat="40.166933" lon="-5.077883">
        <ele>1101.0</ele>
        <time>2018-09-15T13:20:54Z</time>
      </trkpt>
      <trkpt lat="40.166867" lon="-5.077983">
        <ele>1102.0</ele>
        <time>2018-09-15T13:20:55Z</time>
      </trkpt>
      <trkpt lat="40.166800" lon="-5.078083">
        <ele>1103.0</ele>
        <time>2018-09-15T13:20:56Z</time>
      </trkpt>
      <trkpt lat="40.166733" lon="-5.078167">
        <ele>1103.0</ele>
        <time>2018-09-15T13:20:57Z</time>
      </trkpt>
      <trkpt lat="40.166667" lon="-5.078267">
        <ele>1103.0</ele>
        <time>2018-09-15T13:20:58Z</time>
      </trkpt>
      <trkpt lat="40.166583" lon="-5.078367">
        <ele>1104.0</ele>
        <time>2018-09-15T13:20:59Z</time>
      </trkpt>
      <trkpt lat="40.166517" lon="-5.078450">
        <ele>1106.0</ele>
        <time>2018-09-15T13:21:00Z</time>
      </trkpt>
      <trkpt lat="40.166450" lon="-5.078533">
        <ele>1107.0</ele>
        <time>2018-09-15T13:21:01Z</time>
      </trkpt>
      <trkpt lat="40.166383" lon="-5.078600">
        <ele>1109.0</ele>
        <time>2018-09-15T13:21:02Z</time>
      </trkpt>
      <trkpt lat="40.166317" lon="-5.078683">
        <ele>1109.0</ele>
        <time>2018-09-15T13:21:03Z</time>
      </trkpt>
      <trkpt lat="40.166250" lon="-5.078750">
        <ele>1110.0</ele>
        <time>2018-09-15T13:21:04Z</time>
      </trkpt>
      <trkpt lat="40.166183" lon="-5.078850">
        <ele>1112.0</ele>
        <time>2018-09-15T13:21:05Z</time>
      </trkpt>
      <trkpt lat="40.166117" lon="-5.078933">
        <ele>1114.0</ele>
        <time>2018-09-15T13:21:06Z</time>
      </trkpt>
      <trkpt lat="40.166050" lon="-5.079017">
        <ele>1118.0</ele>
        <time>2018-09-15T13:21:07Z</time>
      </trkpt>
      <trkpt lat="40.166017" lon="-5.079100">
        <ele>1121.0</ele>
        <time>2018-09-15T13:21:08Z</time>
      </trkpt>
      <trkpt lat="40.165967" lon="-5.079183">
        <ele>1124.0</ele>
        <time>2018-09-15T13:21:09Z</time>
      </trkpt>
      <trkpt lat="40.165933" lon="-5.079233">
        <ele>1126.0</ele>
        <time>2018-09-15T13:21:10Z</time>
      </trkpt>
      <trkpt lat="40.165867" lon="-5.079267">
        <ele>1127.0</ele>
        <time>2018-09-15T13:21:11Z</time>
      </trkpt>
      <trkpt lat="40.165800" lon="-5.079283">
        <ele>1127.0</ele>
        <time>2018-09-15T13:21:12Z</time>
      </trkpt>
      <trkpt lat="40.165733" lon="-5.079267">
        <ele>1128.0</ele>
        <time>2018-09-15T13:21:13Z</time>
      </trkpt>
      <trkpt lat="40.165667" lon="-5.079217">
        <ele>1131.0</ele>
        <time>2018-09-15T13:21:14Z</time>
      </trkpt>
      <trkpt lat="40.165617" lon="-5.079150">
        <ele>1132.0</ele>
        <time>2018-09-15T13:21:15Z</time>
      </trkpt>
      <trkpt lat="40.165600" lon="-5.079050">
        <ele>1133.0</ele>
        <time>2018-09-15T13:21:16Z</time>
      </trkpt>
      <trkpt lat="40.165617" lon="-5.078933">
        <ele>1133.0</ele>
        <time>2018-09-15T13:21:17Z</time>
      </trkpt>
      <trkpt lat="40.165650" lon="-5.078833">
        <ele>1133.0</ele>
        <time>2018-09-15T13:21:18Z</time>
      </trkpt>
      <trkpt lat="40.165717" lon="-5.078717">
        <ele>1134.0</ele>
        <time>2018-09-15T13:21:19Z</time>
      </trkpt>
      <trkpt lat="40.165817" lon="-5.078650">
        <ele>1135.0</ele>
        <time>2018-09-15T13:21:20Z</time>
      </trkpt>
      <trkpt lat="40.165933" lon="-5.078600">
        <ele>1136.0</ele>
        <time>2018-09-15T13:21:21Z</time>
      </trkpt>
      <trkpt lat="40.166050" lon="-5.078617">
        <ele>1137.0</ele>
        <time>2018-09-15T13:21:22Z</time>
      </trkpt>
      <trkpt lat="40.166150" lon="-5.078650">
        <ele>1138.0</ele>
        <time>2018-09-15T13:21:23Z</time>
      </trkpt>
      <trkpt lat="40.166250" lon="-5.078700">
        <ele>1139.0</ele>
        <time>2018-09-15T13:21:24Z</time>
      </trkpt>
      <trkpt lat="40.166333" lon="-5.078767">
        <ele>1141.0</ele>
        <time>2018-09-15T13:21:25Z</time>
      </trkpt>
      <trkpt lat="40.166417" lon="-5.078850">
        <ele>1142.0</ele>
        <time>2018-09-15T13:21:26Z</time>
      </trkpt>
      <trkpt lat="40.166483" lon="-5.078967">
        <ele>1143.0</ele>
        <time>2018-09-15T13:21:27Z</time>
      </trkpt>
      <trkpt lat="40.166533" lon="-5.079083">
        <ele>1143.0</ele>
        <time>2018-09-15T13:21:28Z</time>
      </trkpt>
      <trkpt lat="40.166567" lon="-5.079233">
        <ele>1143.0</ele>
        <time>2018-09-15T13:21:29Z</time>
      </trkpt>
      <trkpt lat="40.166583" lon="-5.079400">
        <ele>1143.0</ele>
        <time>2018-09-15T13:21:30Z</time>
      </trkpt>
      <trkpt lat="40.166600" lon="-5.079550">
        <ele>1145.0</ele>
        <time>2018-09-15T13:21:31Z</time>
      </trkpt>
      <trkpt lat="40.166600" lon="-5.079683">
        <ele>1148.0</ele>
        <time>2018-09-15T13:21:32Z</time>
      </trkpt>
      <trkpt lat="40.166583" lon="-5.079817">
        <ele>1150.0</ele>
        <time>2018-09-15T13:21:33Z</time>
      </trkpt>
      <trkpt lat="40.166550" lon="-5.079933">
        <ele>1153.0</ele>
        <time>2018-09-15T13:21:34Z</time>
      </trkpt>
      <trkpt lat="40.166533" lon="-5.080033">
        <ele>1155.0</ele>
        <time>2018-09-15T13:21:35Z</time>
      </trkpt>
      <trkpt lat="40.166517" lon="-5.080150">
        <ele>1156.0</ele>
        <time>2018-09-15T13:21:36Z</time>
      </trkpt>
      <trkpt lat="40.166483" lon="-5.080267">
        <ele>1157.0</ele>
        <time>2018-09-15T13:21:37Z</time>
      </trkpt>
      <trkpt lat="40.166450" lon="-5.080367">
        <ele>1158.0</ele>
        <time>2018-09-15T13:21:38Z</time>
      </trkpt>
      <trkpt lat="40.166400" lon="-5.080450">
        <ele>1159.0</ele>
        <time>2018-09-15T13:21:39Z</time>
      </trkpt>
      <trkpt lat="40.166350" lon="-5.080517">
        <ele>1160.0</ele>
        <time>2018-09-15T13:21:40Z</time>
      </trkpt>
      <trkpt lat="40.166267" lon="-5.080583">
        <ele>1161.0</ele>
        <time>2018-09-15T13:21:41Z</time>
      </trkpt>
      <trkpt lat="40.166200" lon="-5.080617">
        <ele>1163.0</ele>
        <time>2018-09-15T13:21:42Z</time>
      </trkpt>
      <trkpt lat="40.166117" lon="-5.080650">
        <ele>1165.0</ele>
        <time>2018-09-15T13:21:43Z</time>
      </trkpt>
      <trkpt lat="40.166050" lon="-5.080667">
        <ele>1168.0</ele>
        <time>2018-09-15T13:21:44Z</time>
      </trkpt>
      <trkpt lat="40.165983" lon="-5.080667">
        <ele>1169.0</ele>
        <time>2018-09-15T13:21:45Z</time>
      </trkpt>
      <trkpt lat="40.165917" lon="-5.080633">
        <ele>1169.0</ele>
        <time>2018-09-15T13:21:46Z</time>
      </trkpt>
      <trkpt lat="40.165867" lon="-5.080567">
        <ele>1168.0</ele>
        <time>2018-09-15T13:21:47Z</time>
      </trkpt>
      <trkpt lat="40.165817" lon="-5.080450">
        <ele>1167.0</ele>
        <time>2018-09-15T13:21:48Z</time>
      </trkpt>
      <trkpt lat="40.165767" lon="-5.080317">
        <ele>1166.0</ele>
        <time>2018-09-15T13:21:49Z</time>
      </trkpt>
      <trkpt lat="40.165750" lon="-5.080167">
        <ele>1166.0</ele>
        <time>2018-09-15T13:21:50Z</time>
      </trkpt>
      <trkpt lat="40.165767" lon="-5.080017">
        <ele>1168.0</ele>
        <time>2018-09-15T13:21:51Z</time>
      </trkpt>
      <trkpt lat="40.165817" lon="-5.079867">
        <ele>1170.0</ele>
        <time>2018-09-15T13:21:52Z</time>
      </trkpt>
      <trkpt lat="40.165900" lon="-5.079750">
        <ele>1172.0</ele>
        <time>2018-09-15T13:21:53Z</time>
      </trkpt>
      <trkpt lat="40.165983" lon="-5.079650">
        <ele>1175.0</ele>
        <time>2018-09-15T13:21:54Z</time>
      </trkpt>
      <trkpt lat="40.166050" lon="-5.079550">
        <ele>1178.0</ele>
        <time>2018-09-15T13:21:55Z</time>
      </trkpt>
      <trkpt lat="40.166117" lon="-5.079467">
        <ele>1180.0</ele>
        <time>2018-09-15T13:21:56Z</time>
      </trkpt>
      <trkpt lat="40.166167" lon="-5.079367">
        <ele>1181.0</ele>
        <time>2018-09-15T13:21:57Z</time>
      </trkpt>
      <trkpt lat="40.166233" lon="-5.079267">
        <ele>1182.0</ele>
        <time>2018-09-15T13:21:58Z</time>
      </trkpt>
      <trkpt lat="40.166317" lon="-5.079167">
        <ele>1183.0</ele>
        <time>2018-09-15T13:21:59Z</time>
      </trkpt>
      <trkpt lat="40.166400" lon="-5.079100">
        <ele>1184.0</ele>
        <time>2018-09-15T13:22:00Z</time>
      </trkpt>
      <trkpt lat="40.166500" lon="-5.079050">
        <ele>1185.0</ele>
        <time>2018-09-15T13:22:01Z</time>
      </trkpt>
      <trkpt lat="40.166600" lon="-5.079033">
        <ele>1186.0</ele>
        <time>2018-09-15T13:22:02Z</time>
      </trkpt>
      <trkpt lat="40.166700" lon="-5.079050">
        <ele>1187.0</ele>
        <time>2018-09-15T13:22:03Z</time>
      </trkpt>
      <trkpt lat="40.166800" lon="-5.079083">
        <ele>1187.0</ele>
        <time>2018-09-15T13:22:04Z</time>
      </trkpt>
      <trkpt lat="40.166883" lon="-5.079167">
        <ele>1187.0</ele>
        <time>2018-09-15T13:22:05Z</time>
      </trkpt>
      <trkpt lat="40.166950" lon="-5.079283">
        <ele>1186.0</ele>
        <time>2018-09-15T13:22:06Z</time>
      </trkpt>
      <trkpt lat="40.166983" lon="-5.079417">
        <ele>1186.0</ele>
        <time>2018-09-15T13:22:07Z</time>
      </trkpt>
      <trkpt lat="40.167017" lon="-5.079567">
        <ele>1187.0</ele>
        <time>2018-09-15T13:22:08Z</time>
      </trkpt>
      <trkpt lat="40.167017" lon="-5.079700">
        <ele>1188.0</ele>
        <time>2018-09-15T13:22:09Z</time>
      </trkpt>
      <trkpt lat="40.167000" lon="-5.079833">
        <ele>1189.0</ele>
        <time>2018-09-15T13:22:10Z</time>
      </trkpt>
      <trkpt lat="40.166967" lon="-5.079933">
        <ele>1190.0</ele>
        <time>2018-09-15T13:22:11Z</time>
      </trkpt>
      <trkpt lat="40.166917" lon="-5.080050">
        <ele>1190.0</ele>
        <time>2018-09-15T13:22:12Z</time>
      </trkpt>
      <trkpt lat="40.166850" lon="-5.080150">
        <ele>1191.0</ele>
        <time>2018-09-15T13:22:13Z</time>
      </trkpt>
      <trkpt lat="40.166800" lon="-5.080233">
        <ele>1193.0</ele>
        <time>2018-09-15T13:22:14Z</time>
      </trkpt>
      <trkpt lat="40.166750" lon="-5.080283">
        <ele>1195.0</ele>
        <time>2018-09-15T13:22:15Z</time>
      </trkpt>
      <trkpt lat="40.166700" lon="-5.080317">
        <ele>1196.0</ele>
        <time>2018-09-15T13:22:16Z</time>
      </trkpt>
      <trkpt lat="40.166650" lon="-5.080350">
        <ele>1196.0</ele>
        <time>2018-09-15T13:22:17Z</time>
      </trkpt>
      <trkpt lat="40.166600" lon="-5.080400">
        <ele>1196.0</ele>
        <time>2018-09-15T13:22:18Z</time>
      </trkpt>
      <trkpt lat="40.166550" lon="-5.080467">
        <ele>1195.0</ele>
        <time>2018-09-15T13:22:19Z</time>
      </trkpt>
      <trkpt lat="40.166500" lon="-5.080533">
        <ele>1195.0</ele>
        <time>2018-09-15T13:22:20Z</time>
      </trkpt>
      <trkpt lat="40.166450" lon="-5.080567">
        <ele>1195.0</ele>
        <time>2018-09-15T13:22:21Z</time>
      </trkpt>
      <trkpt lat="40.166383" lon="-5.080600">
        <ele>1196.0</ele>
        <time>2018-09-15T13:22:22Z</time>
      </trkpt>
      <trkpt lat="40.166333" lon="-5.080633">
        <ele>1197.0</ele>
        <time>2018-09-15T13:22:23Z</time>
      </trkpt>
      <trkpt lat="40.166267" lon="-5.080633">
        <ele>1198.0</ele>
        <time>2018-09-15T13:22:24Z</time>
      </trkpt>
      <trkpt lat="40.166200" lon="-5.080633">
        <ele>1199.0</ele>
        <time>2018-09-15T13:22:25Z</time>
      </trkpt>
      <trkpt lat="40.166133" lon="-5.080600">
        <ele>1199.0</ele>
        <time>2018-09-15T13:22:26Z</time>
      </trkpt>
      <trkpt lat="40.166083" lon="-5.080550">
        <ele>1201.0</ele>
        <time>2018-09-15T13:22:27Z</time>
      </trkpt>
      <trkpt lat="40.166033" lon="-5.080500">
        <ele>1204.0</ele>
        <time>2018-09-15T13:22:28Z</time>
      </trkpt>
      <trkpt lat="40.166000" lon="-5.080433">
        <ele>1207.0</ele>
        <time>2018-09-15T13:22:29Z</time>
      </trkpt>
      <trkpt lat="40.165983" lon="-5.080367">
        <ele>1209.0</ele>
        <time>2018-09-15T13:22:30Z</time>
      </trkpt>
      <trkpt lat="40.165983" lon="-5.080283">
        <ele>1211.0</ele>
        <time>2018-09-15T13:22:31Z</time>
      </trkpt>
      <trkpt lat="40.166017" lon="-5.080167">
        <ele>1212.0</ele>
        <time>2018-09-15T13:22:32Z</time>
      </trkpt>
      <trkpt lat="40.166067" lon="-5.080067">
        <ele>1214.0</ele>
        <time>2018-09-15T13:22:33Z</time>
      </trkpt>
      <trkpt lat="40.166150" lon="-5.079983">
        <ele>1216.0</ele>
        <time>2018-09-15T13:22:34Z</time>
      </trkpt>
      <trkpt lat="40.166233" lon="-5.079933">
        <ele>1218.0</ele>
        <time>2018-09-15T13:22:35Z</time>
      </trkpt>
      <trkpt lat="40.166333" lon="-5.079917">
        <ele>1220.0</ele>
        <time>2018-09-15T13:22:36Z</time>
      </trkpt>
      <trkpt lat="40.166433" lon="-5.079950">
        <ele>1222.0</ele>
        <time>2018-09-15T13:22:37Z</time>
      </trkpt>
      <trkpt lat="40.166533" lon="-5.080000">
        <ele>1222.0</ele>
        <time>2018-09-15T13:22:38Z</time>
      </trkpt>
      <trkpt lat="40.166617" lon="-5.080067">
        <ele>1223.0</ele>
        <time>2018-09-15T13:22:39Z</time>
      </trkpt>
      <trkpt lat="40.166683" lon="-5.080167">
        <ele>1224.0</ele>
        <time>2018-09-15T13:22:40Z</time>
      </trkpt>
      <trkpt lat="40.166733" lon="-5.080283">
        <ele>1225.0</ele>
        <time>2018-09-15T13:22:41Z</time>
      </trkpt>
      <trkpt lat="40.166750" lon="-5.080417">
        <ele>1226.0</ele>
        <time>2018-09-15T13:22:42Z</time>
      </trkpt>
      <trkpt lat="40.166767" lon="-5.080533">
        <ele>1226.0</ele>
        <time>2018-09-15T13:22:43Z</time>
      </trkpt>
      <trkpt lat="40.166750" lon="-5.080667">
        <ele>1227.0</ele>
        <time>2018-09-15T13:22:44Z</time>
      </trkpt>
      <trkpt lat="40.166733" lon="-5.080783">
        <ele>1228.0</ele>
        <time>2018-09-15T13:22:45Z</time>
      </trkpt>
      <trkpt lat="40.166683" lon="-5.080867">
        <ele>1229.0</ele>
        <time>2018-09-15T13:22:46Z</time>
      </trkpt>
      <trkpt lat="40.166617" lon="-5.080917">
        <ele>1231.0</ele>
        <time>2018-09-15T13:22:47Z</time>
      </trkpt>
      <trkpt lat="40.166567" lon="-5.080933">
        <ele>1233.0</ele>
        <time>2018-09-15T13:22:48Z</time>
      </trkpt>
      <trkpt lat="40.166500" lon="-5.080900">
        <ele>1234.0</ele>
        <time>2018-09-15T13:22:49Z</time>
      </trkpt>
      <trkpt lat="40.166450" lon="-5.080867">
        <ele>1235.0</ele>
        <time>2018-09-15T13:22:50Z</time>
      </trkpt>
      <trkpt lat="40.166400" lon="-5.080833">
        <ele>1236.0</ele>
        <time>2018-09-15T13:22:51Z</time>
      </trkpt>
      <trkpt lat="40.166350" lon="-5.080783">
        <ele>1238.0</ele>
        <time>2018-09-15T13:22:52Z</time>
      </trkpt>
      <trkpt lat="40.166317" lon="-5.080717">
        <ele>1239.0</ele>
        <time>2018-09-15T13:22:53Z</time>
      </trkpt>
      <trkpt lat="40.166300" lon="-5.080617">
        <ele>1239.0</ele>
        <time>2018-09-15T13:22:54Z</time>
      </trkpt>
      <trkpt lat="40.166300" lon="-5.080500">
        <ele>1240.0</ele>
        <time>2018-09-15T13:22:55Z</time>
      </trkpt>
      <trkpt lat="40.166333" lon="-5.080383">
        <ele>1242.0</ele>
        <time>2018-09-15T13:22:56Z</time>
      </trkpt>
      <trkpt lat="40.166400" lon="-5.080283">
        <ele>1243.0</ele>
        <time>2018-09-15T13:22:57Z</time>
      </trkpt>
      <trkpt lat="40.166483" lon="-5.080217">
        <ele>1244.0</ele>
        <time>2018-09-15T13:22:58Z</time>
      </trkpt>
      <trkpt lat="40.166583" lon="-5.080200">
        <ele>1245.0</ele>
        <time>2018-09-15T13:22:59Z</time>
      </trkpt>
      <trkpt lat="40.166700" lon="-5.080233">
        <ele>1245.0</ele>
        <time>2018-09-15T13:23:00Z</time>
      </trkpt>
      <trkpt lat="40.166800" lon="-5.080300">
        <ele>1246.0</ele>
        <time>2018-09-15T13:23:01Z</time>
      </trkpt>
      <trkpt lat="40.166867" lon="-5.080400">
        <ele>1247.0</ele>
        <time>2018-09-15T13:23:02Z</time>
      </trkpt>
      <trkpt lat="40.166917" lon="-5.080517">
        <ele>1249.0</ele>
        <time>2018-09-15T13:23:03Z</time>
      </trkpt>
      <trkpt lat="40.166950" lon="-5.080650">
        <ele>1249.0</ele>
        <time>2018-09-15T13:23:04Z</time>
      </trkpt>
      <trkpt lat="40.166950" lon="-5.080783">
        <ele>1249.0</ele>
        <time>2018-09-15T13:23:05Z</time>
      </trkpt>
      <trkpt lat="40.166917" lon="-5.080917">
        <ele>1250.0</ele>
        <time>2018-09-15T13:23:06Z</time>
      </trkpt>
      <trkpt lat="40.166833" lon="-5.081017">
        <ele>1250.0</ele>
        <time>2018-09-15T13:23:07Z</time>
      </trkpt>
      <trkpt lat="40.166750" lon="-5.081067">
        <ele>1251.0</ele>
        <time>2018-09-15T13:23:08Z</time>
      </trkpt>
      <trkpt lat="40.166667" lon="-5.081100">
        <ele>1253.0</ele>
        <time>2018-09-15T13:23:09Z</time>
      </trkpt>
      <trkpt lat="40.166583" lon="-5.081100">
        <ele>1255.0</ele>
        <time>2018-09-15T13:23:10Z</time>
      </trkpt>
      <trkpt lat="40.166500" lon="-5.081083">
        <ele>1258.0</ele>
        <time>2018-09-15T13:23:11Z</time>
      </trkpt>
      <trkpt lat="40.166433" lon="-5.081067">
        <ele>1261.0</ele>
        <time>2018-09-15T13:23:12Z</time>
      </trkpt>
      <trkpt lat="40.166383" lon="-5.081017">
        <ele>1263.0</ele>
        <time>2018-09-15T13:23:13Z</time>
      </trkpt>
      <trkpt lat="40.166333" lon="-5.080967">
        <ele>1265.0</ele>
        <time>2018-09-15T13:23:14Z</time>
      </trkpt>
      <trkpt lat="40.166300" lon="-5.080883">
        <ele>1266.0</ele>
        <time>2018-09-15T13:23:15Z</time>
      </trkpt>
      <trkpt lat="40.166267" lon="-5.080800">
        <ele>1267.0</ele>
        <time>2018-09-15T13:23:16Z</time>
      </trkpt>
      <trkpt lat="40.166250" lon="-5.080683">
        <ele>1268.0</ele>
        <time>2018-09-15T13:23:17Z</time>
      </trkpt>
      <trkpt lat="40.166267" lon="-5.080583">
        <ele>1270.0</ele>
        <time>2018-09-15T13:23:18Z</time>
      </trkpt>
      <trkpt lat="40.166317" lon="-5.080483">
        <ele>1271.0</ele>
        <time>2018-09-15T13:23:19Z</time>
      </trkpt>
      <trkpt lat="40.166383" lon="-5.080400">
        <ele>1273.0</ele>
        <time>2018-09-15T13:23:20Z</time>
      </trkpt>
      <trkpt lat="40.166483" lon="-5.080350">
        <ele>1274.0</ele>
        <time>2018-09-15T13:23:21Z</time>
      </trkpt>
      <trkpt lat="40.166583" lon="-5.080333">
        <ele>1275.0</ele>
        <time>2018-09-15T13:23:22Z</time>
      </trkpt>
      <trkpt lat="40.166683" lon="-5.080333">
        <ele>1277.0</ele>
        <time>2018-09-15T13:23:23Z</time>
      </trkpt>
      <trkpt lat="40.166783" lon="-5.080367">
        <ele>1279.0</ele>
        <time>2018-09-15T13:23:24Z</time>
      </trkpt>
      <trkpt lat="40.166883" lon="-5.080417">
        <ele>1280.0</ele>
        <time>2018-09-15T13:23:25Z</time>
      </trkpt>
      <trkpt lat="40.166983" lon="-5.080500">
        <ele>1281.0</ele>
        <time>2018-09-15T13:23:26Z</time>
      </trkpt>
      <trkpt lat="40.167067" lon="-5.080617">
        <ele>1283.0</ele>
        <time>2018-09-15T13:23:27Z</time>
      </trkpt>
      <trkpt lat="40.167117" lon="-5.080733">
        <ele>1284.0</ele>
        <time>2018-09-15T13:23:28Z</time>
      </trkpt>
      <trkpt lat="40.167150" lon="-5.080867">
        <ele>1285.0</ele>
        <time>2018-09-15T13:23:29Z</time>
      </trkpt>
      <trkpt lat="40.167167" lon="-5.081000">
        <ele>1287.0</ele>
        <time>2018-09-15T13:23:30Z</time>
      </trkpt>
      <trkpt lat="40.167167" lon="-5.081133">
        <ele>1289.0</ele>
        <time>2018-09-15T13:23:31Z</time>
      </trkpt>
      <trkpt lat="40.167167" lon="-5.081250">
        <ele>1291.0</ele>
        <time>2018-09-15T13:23:32Z</time>
      </trkpt>
      <trkpt lat="40.167133" lon="-5.081350">
        <ele>1292.0</ele>
        <time>2018-09-15T13:23:33Z</time>
      </trkpt>
      <trkpt lat="40.167083" lon="-5.081433">
        <ele>1294.0</ele>
        <time>2018-09-15T13:23:34Z</time>
      </trkpt>
      <trkpt lat="40.167033" lon="-5.081500">
        <ele>1295.0</ele>
        <time>2018-09-15T13:23:35Z</time>
      </trkpt>
      <trkpt lat="40.166967" lon="-5.081550">
        <ele>1296.0</ele>
        <time>2018-09-15T13:23:36Z</time>
      </trkpt>
      <trkpt lat="40.166900" lon="-5.081583">
        <ele>1298.0</ele>
        <time>2018-09-15T13:23:37Z</time>
      </trkpt>
      <trkpt lat="40.166833" lon="-5.081583">
        <ele>1299.0</ele>
        <time>2018-09-15T13:23:38Z</time>
      </trkpt>
      <trkpt lat="40.166767" lon="-5.081567">
        <ele>1299.0</ele>
        <time>2018-09-15T13:23:39Z</time>
      </trkpt>
      <trkpt lat="40.166700" lon="-5.081517">
        <ele>1300.0</ele>
        <time>2018-09-15T13:23:40Z</time>
      </trkpt>
      <trkpt lat="40.166650" lon="-5.081433">
        <ele>1302.0</ele>
        <time>2018-09-15T13:23:41Z</time>
      </trkpt>
      <trkpt lat="40.166600" lon="-5.081350">
        <ele>1305.0</ele>
        <time>2018-09-15T13:23:42Z</time>
      </trkpt>
      <trkpt lat="40.166583" lon="-5.081267">
        <ele>1306.0</ele>
        <time>2018-09-15T13:23:43Z</time>
      </trkpt>
      <trkpt lat="40.166567" lon="-5.081183">
        <ele>1308.0</ele>
        <time>2018-09-15T13:23:44Z</time>
      </trkpt>
      <trkpt lat="40.166567" lon="-5.081067">
        <ele>1309.0</ele>
        <time>2018-09-15T13:23:45Z</time>
      </trkpt>
      <trkpt lat="40.166567" lon="-5.080967">
        <ele>1310.0</ele>
        <time>2018-09-15T13:23:46Z</time>
      </trkpt>
      <trkpt lat="40.166583" lon="-5.080850">
        <ele>1312.0</ele>
        <time>2018-09-15T13:23:47Z</time>
      </trkpt>
      <trkpt lat="40.166600" lon="-5.080750">
        <ele>1314.0</ele>
        <time>2018-09-15T13:23:48Z</time>
      </trkpt>
      <trkpt lat="40.166633" lon="-5.080650">
        <ele>1317.0</ele>
        <time>2018-09-15T13:23:49Z</time>
      </trkpt>
      <trkpt lat="40.166667" lon="-5.080533">
        <ele>1319.0</ele>
        <time>2018-09-15T13:23:50Z</time>
      </trkpt>
      <trkpt lat="40.166700" lon="-5.080417">
        <ele>1321.0</ele>
        <time>2018-09-15T13:23:51Z</time>
      </trkpt>
      <trkpt lat="40.166750" lon="-5.080300">
        <ele>1323.0</ele>
        <time>2018-09-15T13:23:52Z</time>
      </trkpt>
      <trkpt lat="40.166800" lon="-5.080183">
        <ele>1326.0</ele>
        <time>2018-09-15T13:23:53Z</time>
      </trkpt>
      <trkpt lat="40.166833" lon="-5.080067">
        <ele>1330.0</ele>
        <time>2018-09-15T13:23:54Z</time>
      </trkpt>
      <trkpt lat="40.166867" lon="-5.079983">
        <ele>1334.0</ele>
        <time>2018-09-15T13:23:55Z</time>
      </trkpt>
      <trkpt lat="40.166900" lon="-5.079900">
        <ele>1337.0</ele>
        <time>2018-09-15T13:23:56Z</time>
      </trkpt>
      <trkpt lat="40.166900" lon="-5.079833">
        <ele>1338.0</ele>
        <time>2018-09-15T13:23:57Z</time>
      </trkpt>
      <trkpt lat="40.166933" lon="-5.079750">
        <ele>1338.0</ele>
        <time>2018-09-15T13:23:58Z</time>
      </trkpt>
      <trkpt lat="40.166967" lon="-5.079650">
        <ele>1338.0</ele>
        <time>2018-09-15T13:23:59Z</time>
      </trkpt>
      <trkpt lat="40.167017" lon="-5.079550">
        <ele>1338.0</ele>
        <time>2018-09-15T13:24:00Z</time>
      </trkpt>
      <trkpt lat="40.167100" lon="-5.079450">
        <ele>1339.0</ele>
        <time>2018-09-15T13:24:01Z</time>
      </trkpt>
      <trkpt lat="40.167183" lon="-5.079367">
        <ele>1340.0</ele>
        <time>2018-09-15T13:24:02Z</time>
      </trkpt>
      <trkpt lat="40.167267" lon="-5.079317">
        <ele>1342.0</ele>
        <time>2018-09-15T13:24:03Z</time>
      </trkpt>
      <trkpt lat="40.167350" lon="-5.079283">
        <ele>1342.0</ele>
        <time>2018-09-15T13:24:04Z</time>
      </trkpt>
      <trkpt lat="40.167450" lon="-5.079267">
        <ele>1342.0</ele>
        <time>2018-09-15T13:24:05Z</time>
      </trkpt>
      <trkpt lat="40.167550" lon="-5.079250">
        <ele>1342.0</ele>
        <time>2018-09-15T13:24:06Z</time>
      </trkpt>
      <trkpt lat="40.167650" lon="-5.079233">
        <ele>1341.0</ele>
        <time>2018-09-15T13:24:07Z</time>
      </trkpt>
      <trkpt lat="40.167750" lon="-5.079200">
        <ele>1340.0</ele>
        <time>2018-09-15T13:24:08Z</time>
      </trkpt>
      <trkpt lat="40.167850" lon="-5.079133">
        <ele>1339.0</ele>
        <time>2018-09-15T13:24:09Z</time>
      </trkpt>
      <trkpt lat="40.167917" lon="-5.079050">
        <ele>1338.0</ele>
        <time>2018-09-15T13:24:10Z</time>
      </trkpt>
      <trkpt lat="40.167983" lon="-5.078950">
        <ele>1337.0</ele>
        <time>2018-09-15T13:24:11Z</time>
      </trkpt>
      <trkpt lat="40.168050" lon="-5.078833">
        <ele>1337.0</ele>
        <time>2018-09-15T13:24:12Z</time>
      </trkpt>
      <trkpt lat="40.168100" lon="-5.078733">
        <ele>1338.0</ele>
        <time>2018-09-15T13:24:13Z</time>
      </trkpt>
      <trkpt lat="40.168150" lon="-5.078617">
        <ele>1338.0</ele>
        <time>2018-09-15T13:24:14Z</time>
      </trkpt>
      <trkpt lat="40.168200" lon="-5.078517">
        <ele>1338.0</ele>
        <time>2018-09-15T13:24:15Z</time>
      </trkpt>
      <trkpt lat="40.168250" lon="-5.078400">
        <ele>1338.0</ele>
        <time>2018-09-15T13:24:16Z</time>
      </trkpt>
      <trkpt lat="40.168300" lon="-5.078267">
        <ele>1339.0</ele>
        <time>2018-09-15T13:24:17Z</time>
      </trkpt>
      <trkpt lat="40.168317" lon="-5.078150">
        <ele>1340.0</ele>
        <time>2018-09-15T13:24:18Z</time>
      </trkpt>
      <trkpt lat="40.168333" lon="-5.078017">
        <ele>1341.0</ele>
        <time>2018-09-15T13:24:19Z</time>
      </trkpt>
      <trkpt lat="40.168350" lon="-5.077900">
        <ele>1342.0</ele>
        <time>2018-09-15T13:24:20Z</time>
      </trkpt>
      <trkpt lat="40.168367" lon="-5.077783">
        <ele>1344.0</ele>
        <time>2018-09-15T13:24:21Z</time>
      </trkpt>
      <trkpt lat="40.168367" lon="-5.077667">
        <ele>1347.0</ele>
        <time>2018-09-15T13:24:22Z</time>
      </trkpt>
      <trkpt lat="40.168367" lon="-5.077567">
        <ele>1350.0</ele>
        <time>2018-09-15T13:24:23Z</time>
      </trkpt>
      <trkpt lat="40.168367" lon="-5.077483">
        <ele>1352.0</ele>
        <time>2018-09-15T13:24:24Z</time>
      </trkpt>
      <trkpt lat="40.168383" lon="-5.077400">
        <ele>1353.0</ele>
        <time>2018-09-15T13:24:25Z</time>
      </trkpt>
      <trkpt lat="40.168417" lon="-5.077317">
        <ele>1353.0</ele>
        <time>2018-09-15T13:24:26Z</time>
      </trkpt>
      <trkpt lat="40.168450" lon="-5.077217">
        <ele>1353.0</ele>
        <time>2018-09-15T13:24:27Z</time>
      </trkpt>
      <trkpt lat="40.168500" lon="-5.077117">
        <ele>1352.0</ele>
        <time>2018-09-15T13:24:28Z</time>
      </trkpt>
      <trkpt lat="40.168550" lon="-5.077017">
        <ele>1351.0</ele>
        <time>2018-09-15T13:24:29Z</time>
      </trkpt>
      <trkpt lat="40.168617" lon="-5.076900">
        <ele>1351.0</ele>
        <time>2018-09-15T13:24:30Z</time>
      </trkpt>
      <trkpt lat="40.168667" lon="-5.076800">
        <ele>1351.0</ele>
        <time>2018-09-15T13:24:31Z</time>
      </trkpt>
      <trkpt lat="40.168717" lon="-5.076717">
        <ele>1351.0</ele>
        <time>2018-09-15T13:24:32Z</time>
      </trkpt>
      <trkpt lat="40.168767" lon="-5.076617">
        <ele>1349.0</ele>
        <time>2018-09-15T13:24:33Z</time>
      </trkpt>
      <trkpt lat="40.168800" lon="-5.076517">
        <ele>1347.0</ele>
        <time>2018-09-15T13:24:34Z</time>
      </trkpt>
      <trkpt lat="40.168850" lon="-5.076400">
        <ele>1345.0</ele>
        <time>2018-09-15T13:24:35Z</time>
      </trkpt>
      <trkpt lat="40.168883" lon="-5.076283">
        <ele>1342.0</ele>
        <time>2018-09-15T13:24:36Z</time>
      </trkpt>
      <trkpt lat="40.168917" lon="-5.076183">
        <ele>1340.0</ele>
        <time>2018-09-15T13:24:37Z</time>
      </trkpt>
      <trkpt lat="40.168950" lon="-5.076067">
        <ele>1339.0</ele>
        <time>2018-09-15T13:24:38Z</time>
      </trkpt>
      <trkpt lat="40.168983" lon="-5.075983">
        <ele>1338.0</ele>
        <time>2018-09-15T13:24:39Z</time>
      </trkpt>
      <trkpt lat="40.169017" lon="-5.075917">
        <ele>1336.0</ele>
        <time>2018-09-15T13:24:40Z</time>
      </trkpt>
      <trkpt lat="40.169050" lon="-5.075850">
        <ele>1335.0</ele>
        <time>2018-09-15T13:24:41Z</time>
      </trkpt>
      <trkpt lat="40.169100" lon="-5.075767">
        <ele>1332.0</ele>
        <time>2018-09-15T13:24:42Z</time>
      </trkpt>
      <trkpt lat="40.169150" lon="-5.075683">
        <ele>1330.0</ele>
        <time>2018-09-15T13:24:43Z</time>
      </trkpt>
      <trkpt lat="40.169200" lon="-5.075617">
        <ele>1329.0</ele>
        <time>2018-09-15T13:24:44Z</time>
      </trkpt>
      <trkpt lat="40.169250" lon="-5.075550">
        <ele>1328.0</ele>
        <time>2018-09-15T13:24:45Z</time>
      </trkpt>
      <trkpt lat="40.169283" lon="-5.075483">
        <ele>1328.0</ele>
        <time>2018-09-15T13:24:46Z</time>
      </trkpt>
      <trkpt lat="40.169333" lon="-5.075450">
        <ele>1327.0</ele>
        <time>2018-09-15T13:24:47Z</time>
      </trkpt>
      <trkpt lat="40.169383" lon="-5.075400">
        <ele>1326.0</ele>
        <time>2018-09-15T13:24:48Z</time>
      </trkpt>
      <trkpt lat="40.169417" lon="-5.075333">
        <ele>1324.0</ele>
        <time>2018-09-15T13:24:49Z</time>
      </trkpt>
      <trkpt lat="40.169467" lon="-5.075267">
        <ele>1322.0</ele>
        <time>2018-09-15T13:24:50Z</time>
      </trkpt>
      <trkpt lat="40.169517" lon="-5.075183">
        <ele>1321.0</ele>
        <time>2018-09-15T13:24:51Z</time>
      </trkpt>
      <trkpt lat="40.169550" lon="-5.075117">
        <ele>1320.0</ele>
        <time>2018-09-15T13:24:52Z</time>
      </trkpt>
      <trkpt lat="40.169600" lon="-5.075050">
        <ele>1319.0</ele>
        <time>2018-09-15T13:24:53Z</time>
      </trkpt>
      <trkpt lat="40.169650" lon="-5.074983">
        <ele>1319.0</ele>
        <time>2018-09-15T13:24:54Z</time>
      </trkpt>
      <trkpt lat="40.169700" lon="-5.074917">
        <ele>1320.0</ele>
        <time>2018-09-15T13:24:55Z</time>
      </trkpt>
      <trkpt lat="40.169767" lon="-5.074850">
        <ele>1321.0</ele>
        <time>2018-09-15T13:24:56Z</time>
      </trkpt>
      <trkpt lat="40.169850" lon="-5.074800">
        <ele>1323.0</ele>
        <time>2018-09-15T13:24:57Z</time>
      </trkpt>
      <trkpt lat="40.169917" lon="-5.074750">
        <ele>1324.0</ele>
        <time>2018-09-15T13:24:58Z</time>
      </trkpt>
      <trkpt lat="40.169983" lon="-5.074717">
        <ele>1324.0</ele>
        <time>2018-09-15T13:24:59Z</time>
      </trkpt>
      <trkpt lat="40.170033" lon="-5.074667">
        <ele>1324.0</ele>
        <time>2018-09-15T13:25:00Z</time>
      </trkpt>
      <trkpt lat="40.170083" lon="-5.074600">
        <ele>1322.0</ele>
        <time>2018-09-15T13:25:01Z</time>
      </trkpt>
      <trkpt lat="40.170150" lon="-5.074533">
        <ele>1320.0</ele>
        <time>2018-09-15T13:25:02Z</time>
      </trkpt>
      <trkpt lat="40.170217" lon="-5.074467">
        <ele>1318.0</ele>
        <time>2018-09-15T13:25:03Z</time>
      </trkpt>
      <trkpt lat="40.170283" lon="-5.074400">
        <ele>1317.0</ele>
        <time>2018-09-15T13:25:04Z</time>
      </trkpt>
      <trkpt lat="40.170350" lon="-5.074333">
        <ele>1316.0</ele>
        <time>2018-09-15T13:25:05Z</time>
      </trkpt>
      <trkpt lat="40.170417" lon="-5.074267">
        <ele>1315.0</ele>
        <time>2018-09-15T13:25:06Z</time>
      </trkpt>
      <trkpt lat="40.170483" lon="-5.074200">
        <ele>1315.0</ele>
        <time>2018-09-15T13:25:07Z</time>
      </trkpt>
      <trkpt lat="40.170550" lon="-5.074150">
        <ele>1314.0</ele>
        <time>2018-09-15T13:25:08Z</time>
      </trkpt>
      <trkpt lat="40.170617" lon="-5.074117">
        <ele>1313.0</ele>
        <time>2018-09-15T13:25:09Z</time>
      </trkpt>
      <trkpt lat="40.170683" lon="-5.074067">
        <ele>1311.0</ele>
        <time>2018-09-15T13:25:10Z</time>
      </trkpt>
      <trkpt lat="40.170767" lon="-5.074033">
        <ele>1308.0</ele>
        <time>2018-09-15T13:25:11Z</time>
      </trkpt>
      <trkpt lat="40.170833" lon="-5.073983">
        <ele>1305.0</ele>
        <time>2018-09-15T13:25:12Z</time>
      </trkpt>
      <trkpt lat="40.170900" lon="-5.073933">
        <ele>1302.0</ele>
        <time>2018-09-15T13:25:13Z</time>
      </trkpt>
      <trkpt lat="40.170967" lon="-5.073883">
        <ele>1299.0</ele>
        <time>2018-09-15T13:25:14Z</time>
      </trkpt>
      <trkpt lat="40.171033" lon="-5.073817">
        <ele>1296.0</ele>
        <time>2018-09-15T13:25:15Z</time>
      </trkpt>
      <trkpt lat="40.171117" lon="-5.073750">
        <ele>1293.0</ele>
        <time>2018-09-15T13:25:16Z</time>
      </trkpt>
      <trkpt lat="40.171200" lon="-5.073700">
        <ele>1291.0</ele>
        <time>2018-09-15T13:25:17Z</time>
      </trkpt>
      <trkpt lat="40.171300" lon="-5.073650">
        <ele>1289.0</ele>
        <time>2018-09-15T13:25:18Z</time>
      </trkpt>
      <trkpt lat="40.171400" lon="-5.073617">
        <ele>1287.0</ele>
        <time>2018-09-15T13:25:19Z</time>
      </trkpt>
      <trkpt lat="40.171483" lon="-5.073567">
        <ele>1285.0</ele>
        <time>2018-09-15T13:25:20Z</time>
      </trkpt>
      <trkpt lat="40.171567" lon="-5.073517">
        <ele>1283.0</ele>
        <time>2018-09-15T13:25:21Z</time>
      </trkpt>
      <trkpt lat="40.171650" lon="-5.073450">
        <ele>1281.0</ele>
        <time>2018-09-15T13:25:22Z</time>
      </trkpt>
      <trkpt lat="40.171717" lon="-5.073400">
        <ele>1278.0</ele>
        <time>2018-09-15T13:25:23Z</time>
      </trkpt>
      <trkpt lat="40.171783" lon="-5.073333">
        <ele>1276.0</ele>
        <time>2018-09-15T13:25:24Z</time>
      </trkpt>
      <trkpt lat="40.171850" lon="-5.073267">
        <ele>1273.0</ele>
        <time>2018-09-15T13:25:25Z</time>
      </trkpt>
      <trkpt lat="40.171900" lon="-5.073183">
        <ele>1269.0</ele>
        <time>2018-09-15T13:25:26Z</time>
      </trkpt>
      <trkpt lat="40.171967" lon="-5.073117">
        <ele>1265.0</ele>
        <time>2018-09-15T13:25:27Z</time>
      </trkpt>
      <trkpt lat="40.172017" lon="-5.073033">
        <ele>1261.0</ele>
        <time>2018-09-15T13:25:28Z</time>
      </trkpt>
      <trkpt lat="40.172067" lon="-5.072950">
        <ele>1257.0</ele>
        <time>2018-09-15T13:25:29Z</time>
      </trkpt>
      <trkpt lat="40.172117" lon="-5.072867">
        <ele>1254.0</ele>
        <time>2018-09-15T13:25:30Z</time>
      </trkpt>
      <trkpt lat="40.172150" lon="-5.072767">
        <ele>1251.0</ele>
        <time>2018-09-15T13:25:31Z</time>
      </trkpt>
      <trkpt lat="40.172167" lon="-5.072667">
        <ele>1247.0</ele>
        <time>2018-09-15T13:25:32Z</time>
      </trkpt>
      <trkpt lat="40.172150" lon="-5.072567">
        <ele>1244.0</ele>
        <time>2018-09-15T13:25:33Z</time>
      </trkpt>
      <trkpt lat="40.172117" lon="-5.072500">
        <ele>1240.0</ele>
        <time>2018-09-15T13:25:34Z</time>
      </trkpt>
      <trkpt lat="40.172067" lon="-5.072433">
        <ele>1236.0</ele>
        <time>2018-09-15T13:25:35Z</time>
      </trkpt>
      <trkpt lat="40.172000" lon="-5.072400">
        <ele>1232.0</ele>
        <time>2018-09-15T13:25:36Z</time>
      </trkpt>
      <trkpt lat="40.171933" lon="-5.072350">
        <ele>1229.0</ele>
        <time>2018-09-15T13:25:37Z</time>
      </trkpt>
      <trkpt lat="40.171867" lon="-5.072333">
        <ele>1226.0</ele>
        <time>2018-09-15T13:25:38Z</time>
      </trkpt>
      <trkpt lat="40.171800" lon="-5.072317">
        <ele>1222.0</ele>
        <time>2018-09-15T13:25:39Z</time>
      </trkpt>
      <trkpt lat="40.171750" lon="-5.072333">
        <ele>1219.0</ele>
        <time>2018-09-15T13:25:40Z</time>
      </trkpt>
      <trkpt lat="40.171683" lon="-5.072333">
        <ele>1214.0</ele>
        <time>2018-09-15T13:25:41Z</time>
      </trkpt>
      <trkpt lat="40.171617" lon="-5.072350">
        <ele>1210.0</ele>
        <time>2018-09-15T13:25:42Z</time>
      </trkpt>
      <trkpt lat="40.171550" lon="-5.072350">
        <ele>1206.0</ele>
        <time>2018-09-15T13:25:43Z</time>
      </trkpt>
      <trkpt lat="40.171467" lon="-5.072367">
        <ele>1203.0</ele>
        <time>2018-09-15T13:25:44Z</time>
      </trkpt>
      <trkpt lat="40.171417" lon="-5.072383">
        <ele>1202.0</ele>
        <time>2018-09-15T13:25:45Z</time>
      </trkpt>
      <trkpt lat="40.171350" lon="-5.072433">
        <ele>1200.0</ele>
        <time>2018-09-15T13:25:46Z</time>
      </trkpt>
      <trkpt lat="40.171300" lon="-5.072517">
        <ele>1198.0</ele>
        <time>2018-09-15T13:25:47Z</time>
      </trkpt>
      <trkpt lat="40.171250" lon="-5.072583">
        <ele>1196.0</ele>
        <time>2018-09-15T13:25:48Z</time>
      </trkpt>
      <trkpt lat="40.171183" lon="-5.072650">
        <ele>1194.0</ele>
        <time>2018-09-15T13:25:49Z</time>
      </trkpt>
      <trkpt lat="40.171100" lon="-5.072683">
        <ele>1193.0</ele>
        <time>2018-09-15T13:25:50Z</time>
      </trkpt>
      <trkpt lat="40.171033" lon="-5.072733">
        <ele>1194.0</ele>
        <time>2018-09-15T13:25:51Z</time>
      </trkpt>
      <trkpt lat="40.170967" lon="-5.072750">
        <ele>1196.0</ele>
        <time>2018-09-15T13:25:52Z</time>
      </trkpt>
      <trkpt lat="40.170917" lon="-5.072750">
        <ele>1198.0</ele>
        <time>2018-09-15T13:25:53Z</time>
      </trkpt>
      <trkpt lat="40.170883" lon="-5.072733">
        <ele>1198.0</ele>
        <time>2018-09-15T13:25:54Z</time>
      </trkpt>
      <trkpt lat="40.170850" lon="-5.072683">
        <ele>1198.0</ele>
        <time>2018-09-15T13:25:55Z</time>
      </trkpt>
      <trkpt lat="40.170817" lon="-5.072633">
        <ele>1197.0</ele>
        <time>2018-09-15T13:25:56Z</time>
      </trkpt>
      <trkpt lat="40.170767" lon="-5.072567">
        <ele>1196.0</ele>
        <time>2018-09-15T13:25:57Z</time>
      </trkpt>
      <trkpt lat="40.170750" lon="-5.072467">
        <ele>1195.0</ele>
        <time>2018-09-15T13:25:58Z</time>
      </trkpt>
      <trkpt lat="40.170750" lon="-5.072350">
        <ele>1194.0</ele>
        <time>2018-09-15T13:25:59Z</time>
      </trkpt>
      <trkpt lat="40.170767" lon="-5.072250">
        <ele>1194.0</ele>
        <time>2018-09-15T13:26:00Z</time>
      </trkpt>
      <trkpt lat="40.170800" lon="-5.072150">
        <ele>1194.0</ele>
        <time>2018-09-15T13:26:01Z</time>
      </trkpt>
      <trkpt lat="40.170850" lon="-5.072067">
        <ele>1195.0</ele>
        <time>2018-09-15T13:26:02Z</time>
      </trkpt>
      <trkpt lat="40.170883" lon="-5.071983">
        <ele>1194.0</ele>
        <time>2018-09-15T13:26:03Z</time>
      </trkpt>
      <trkpt lat="40.170917" lon="-5.071900">
        <ele>1193.0</ele>
        <time>2018-09-15T13:26:04Z</time>
      </trkpt>
      <trkpt lat="40.170950" lon="-5.071800">
        <ele>1192.0</ele>
        <time>2018-09-15T13:26:05Z</time>
      </trkpt>
      <trkpt lat="40.171000" lon="-5.071700">
        <ele>1191.0</ele>
        <time>2018-09-15T13:26:06Z</time>
      </trkpt>
      <trkpt lat="40.171033" lon="-5.071600">
        <ele>1191.0</ele>
        <time>2018-09-15T13:26:07Z</time>
      </trkpt>
      <trkpt lat="40.171067" lon="-5.071517">
        <ele>1192.0</ele>
        <time>2018-09-15T13:26:08Z</time>
      </trkpt>
      <trkpt lat="40.171117" lon="-5.071467">
        <ele>1193.0</ele>
        <time>2018-09-15T13:26:09Z</time>
      </trkpt>
      <trkpt lat="40.171167" lon="-5.071417">
        <ele>1193.0</ele>
        <time>2018-09-15T13:26:10Z</time>
      </trkpt>
      <trkpt lat="40.171233" lon="-5.071400">
        <ele>1191.0</ele>
        <time>2018-09-15T13:26:11Z</time>
      </trkpt>
      <trkpt lat="40.171317" lon="-5.071367">
        <ele>1189.0</ele>
        <time>2018-09-15T13:26:12Z</time>
      </trkpt>
      <trkpt lat="40.171383" lon="-5.071317">
        <ele>1186.0</ele>
        <time>2018-09-15T13:26:13Z</time>
      </trkpt>
      <trkpt lat="40.171467" lon="-5.071250">
        <ele>1184.0</ele>
        <time>2018-09-15T13:26:14Z</time>
      </trkpt>
      <trkpt lat="40.171517" lon="-5.071167">
        <ele>1182.0</ele>
        <time>2018-09-15T13:26:15Z</time>
      </trkpt>
      <trkpt lat="40.171567" lon="-5.071083">
        <ele>1180.0</ele>
        <time>2018-09-15T13:26:16Z</time>
      </trkpt>
      <trkpt lat="40.171617" lon="-5.071017">
        <ele>1179.0</ele>
        <time>2018-09-15T13:26:17Z</time>
      </trkpt>
      <trkpt lat="40.171650" lon="-5.070933">
        <ele>1177.0</ele>
        <time>2018-09-15T13:26:18Z</time>
      </trkpt>
      <trkpt lat="40.171683" lon="-5.070850">
        <ele>1174.0</ele>
        <time>2018-09-15T13:26:19Z</time>
      </trkpt>
      <trkpt lat="40.171717" lon="-5.070750">
        <ele>1171.0</ele>
        <time>2018-09-15T13:26:20Z</time>
      </trkpt>
      <trkpt lat="40.171733" lon="-5.070650">
        <ele>1168.0</ele>
        <time>2018-09-15T13:26:21Z</time>
      </trkpt>
      <trkpt lat="40.171750" lon="-5.070567">
        <ele>1165.0</ele>
        <time>2018-09-15T13:26:22Z</time>
      </trkpt>
      <trkpt lat="40.171767" lon="-5.070467">
        <ele>1162.0</ele>
        <time>2018-09-15T13:26:23Z</time>
      </trkpt>
      <trkpt lat="40.171783" lon="-5.070367">
        <ele>1160.0</ele>
        <time>2018-09-15T13:26:24Z</time>
      </trkpt>
      <trkpt lat="40.171783" lon="-5.070283">
        <ele>1157.0</ele>
        <time>2018-09-15T13:26:25Z</time>
      </trkpt>
      <trkpt lat="40.171783" lon="-5.070183">
        <ele>1153.0</ele>
        <time>2018-09-15T13:26:26Z</time>
      </trkpt>
      <trkpt lat="40.171767" lon="-5.070100">
        <ele>1150.0</ele>
        <time>2018-09-15T13:26:27Z</time>
      </trkpt>
      <trkpt lat="40.171767" lon="-5.070017">
        <ele>1147.0</ele>
        <time>2018-09-15T13:26:28Z</time>
      </trkpt>
      <trkpt lat="40.171750" lon="-5.069917">
        <ele>1143.0</ele>
        <time>2018-09-15T13:26:29Z</time>
      </trkpt>
      <trkpt lat="40.171750" lon="-5.069833">
        <ele>1140.0</ele>
        <time>2018-09-15T13:26:30Z</time>
      </trkpt>
      <trkpt lat="40.171733" lon="-5.069750">
        <ele>1136.0</ele>
        <time>2018-09-15T13:26:31Z</time>
      </trkpt>
      <trkpt lat="40.171733" lon="-5.069650">
        <ele>1133.0</ele>
        <time>2018-09-15T13:26:32Z</time>
      </trkpt>
      <trkpt lat="40.171717" lon="-5.069567">
        <ele>1131.0</ele>
        <time>2018-09-15T13:26:33Z</time>
      </trkpt>
      <trkpt lat="40.171700" lon="-5.069483">
        <ele>1128.0</ele>
        <time>2018-09-15T13:26:34Z</time>
      </trkpt>
      <trkpt lat="40.171683" lon="-5.069417">
        <ele>1125.0</ele>
        <time>2018-09-15T13:26:35Z</time>
      </trkpt>
      <trkpt lat="40.171667" lon="-5.069333">
        <ele>1122.0</ele>
        <time>2018-09-15T13:26:36Z</time>
      </trkpt>
      <trkpt lat="40.171633" lon="-5.069250">
        <ele>1119.0</ele>
        <time>2018-09-15T13:26:37Z</time>
      </trkpt>
      <trkpt lat="40.171633" lon="-5.069183">
        <ele>1115.0</ele>
        <time>2018-09-15T13:26:38Z</time>
      </trkpt>
      <trkpt lat="40.171633" lon="-5.069100">
        <ele>1113.0</ele>
        <time>2018-09-15T13:26:39Z</time>
      </trkpt>
      <trkpt lat="40.171633" lon="-5.069017">
        <ele>1110.0</ele>
        <time>2018-09-15T13:26:40Z</time>
      </trkpt>
      <trkpt lat="40.171650" lon="-5.068933">
        <ele>1107.0</ele>
        <time>2018-09-15T13:26:41Z</time>
      </trkpt>
      <trkpt lat="40.171650" lon="-5.068850">
        <ele>1104.0</ele>
        <time>2018-09-15T13:26:42Z</time>
      </trkpt>
      <trkpt lat="40.171667" lon="-5.068767">
        <ele>1101.0</ele>
        <time>2018-09-15T13:26:43Z</time>
      </trkpt>
      <trkpt lat="40.171683" lon="-5.068700">
        <ele>1098.0</ele>
        <time>2018-09-15T13:26:44Z</time>
      </trkpt>
      <trkpt lat="40.171700" lon="-5.068617">
        <ele>1094.0</ele>
        <time>2018-09-15T13:26:45Z</time>
      </trkpt>
      <trkpt lat="40.171717" lon="-5.068517">
        <ele>1090.0</ele>
        <time>2018-09-15T13:26:46Z</time>
      </trkpt>
      <trkpt lat="40.171733" lon="-5.068433">
        <ele>1086.0</ele>
        <time>2018-09-15T13:26:47Z</time>
      </trkpt>
      <trkpt lat="40.171750" lon="-5.068333">
        <ele>1082.0</ele>
        <time>2018-09-15T13:26:48Z</time>
      </trkpt>
      <trkpt lat="40.171767" lon="-5.068233">
        <ele>1078.0</ele>
        <time>2018-09-15T13:26:49Z</time>
      </trkpt>
      <trkpt lat="40.171783" lon="-5.068133">
        <ele>1075.0</ele>
        <time>2018-09-15T13:26:50Z</time>
      </trkpt>
      <trkpt lat="40.171783" lon="-5.068033">
        <ele>1072.0</ele>
        <time>2018-09-15T13:26:51Z</time>
      </trkpt>
      <trkpt lat="40.171783" lon="-5.067950">
        <ele>1069.0</ele>
        <time>2018-09-15T13:26:52Z</time>
      </trkpt>
      <trkpt lat="40.171783" lon="-5.067867">
        <ele>1065.0</ele>
        <time>2018-09-15T13:26:53Z</time>
      </trkpt>
      <trkpt lat="40.171783" lon="-5.067767">
        <ele>1060.0</ele>
        <time>2018-09-15T13:26:54Z</time>
      </trkpt>
      <trkpt lat="40.171783" lon="-5.067667">
        <ele>1055.0</ele>
        <time>2018-09-15T13:26:55Z</time>
      </trkpt>
      <trkpt lat="40.171783" lon="-5.067550">
        <ele>1051.0</ele>
        <time>2018-09-15T13:26:56Z</time>
      </trkpt>
      <trkpt lat="40.171767" lon="-5.067450">
        <ele>1047.0</ele>
        <time>2018-09-15T13:26:57Z</time>
      </trkpt>
      <trkpt lat="40.171750" lon="-5.067367">
        <ele>1044.0</ele>
        <time>2018-09-15T13:26:58Z</time>
      </trkpt>
      <trkpt lat="40.171733" lon="-5.067267">
        <ele>1040.0</ele>
        <time>2018-09-15T13:26:59Z</time>
      </trkpt>
      <trkpt lat="40.171717" lon="-5.067183">
        <ele>1036.0</ele>
        <time>2018-09-15T13:27:00Z</time>
      </trkpt>
      <trkpt lat="40.171683" lon="-5.067083">
        <ele>1031.0</ele>
        <time>2018-09-15T13:27:01Z</time>
      </trkpt>
      <trkpt lat="40.171683" lon="-5.066967">
        <ele>1026.0</ele>
        <time>2018-09-15T13:27:02Z</time>
      </trkpt>
      <trkpt lat="40.171667" lon="-5.066867">
        <ele>1023.0</ele>
        <time>2018-09-15T13:27:03Z</time>
      </trkpt>
      <trkpt lat="40.171650" lon="-5.066750">
        <ele>1019.0</ele>
        <time>2018-09-15T13:27:04Z</time>
      </trkpt>
      <trkpt lat="40.171650" lon="-5.066650">
        <ele>1016.0</ele>
        <time>2018-09-15T13:27:05Z</time>
      </trkpt>
      <trkpt lat="40.171650" lon="-5.066567">
        <ele>1013.0</ele>
        <time>2018-09-15T13:27:06Z</time>
      </trkpt>
      <trkpt lat="40.171667" lon="-5.066467">
        <ele>1009.0</ele>
        <time>2018-09-15T13:27:07Z</time>
      </trkpt>
      <trkpt lat="40.171683" lon="-5.066367">
        <ele>1005.0</ele>
        <time>2018-09-15T13:27:08Z</time>
      </trkpt>
      <trkpt lat="40.171717" lon="-5.066267">
        <ele>1001.0</ele>
        <time>2018-09-15T13:27:09Z</time>
      </trkpt>
      <trkpt lat="40.171750" lon="-5.066150">
        <ele>998.0</ele>
        <time>2018-09-15T13:27:10Z</time>
      </trkpt>
      <trkpt lat="40.171767" lon="-5.066050">
        <ele>995.0</ele>
        <time>2018-09-15T13:27:11Z</time>
      </trkpt>
      <trkpt lat="40.171783" lon="-5.065950">
        <ele>993.0</ele>
        <time>2018-09-15T13:27:12Z</time>
      </trkpt>
      <trkpt lat="40.171800" lon="-5.065850">
        <ele>991.0</ele>
        <time>2018-09-15T13:27:13Z</time>
      </trkpt>
      <trkpt lat="40.171817" lon="-5.065767">
        <ele>989.0</ele>
        <time>2018-09-15T13:27:14Z</time>
      </trkpt>
      <trkpt lat="40.171833" lon="-5.065667">
        <ele>986.0</ele>
        <time>2018-09-15T13:27:15Z</time>
      </trkpt>
      <trkpt lat="40.171833" lon="-5.065583">
        <ele>984.0</ele>
        <time>2018-09-15T13:27:16Z</time>
      </trkpt>
      <trkpt lat="40.171833" lon="-5.065483">
        <ele>983.0</ele>
        <time>2018-09-15T13:27:17Z</time>
      </trkpt>
      <trkpt lat="40.171833" lon="-5.065400">
        <ele>982.0</ele>
        <time>2018-09-15T13:27:18Z</time>
      </trkpt>
      <trkpt lat="40.171833" lon="-5.065317">
        <ele>980.0</ele>
        <time>2018-09-15T13:27:19Z</time>
      </trkpt>
      <trkpt lat="40.171833" lon="-5.065233">
        <ele>978.0</ele>
        <time>2018-09-15T13:27:20Z</time>
      </trkpt>
      <trkpt lat="40.171833" lon="-5.065117">
        <ele>975.0</ele>
        <time>2018-09-15T13:27:21Z</time>
      </trkpt>
      <trkpt lat="40.171833" lon="-5.065000">
        <ele>974.0</ele>
        <time>2018-09-15T13:27:22Z</time>
      </trkpt>
      <trkpt lat="40.171817" lon="-5.064883">
        <ele>973.0</ele>
        <time>2018-09-15T13:27:23Z</time>
      </trkpt>
      <trkpt lat="40.171800" lon="-5.064767">
        <ele>973.0</ele>
        <time>2018-09-15T13:27:24Z</time>
      </trkpt>
      <trkpt lat="40.171783" lon="-5.064667">
        <ele>974.0</ele>
        <time>2018-09-15T13:27:25Z</time>
      </trkpt>
      <trkpt lat="40.171783" lon="-5.064550">
        <ele>974.0</ele>
        <time>2018-09-15T13:27:26Z</time>
      </trkpt>
      <trkpt lat="40.171767" lon="-5.064417">
        <ele>975.0</ele>
        <time>2018-09-15T13:27:27Z</time>
      </trkpt>
      <trkpt lat="40.171767" lon="-5.064283">
        <ele>977.0</ele>
        <time>2018-09-15T13:27:28Z</time>
      </trkpt>
      <trkpt lat="40.171767" lon="-5.064167">
        <ele>981.0</ele>
        <time>2018-09-15T13:27:29Z</time>
      </trkpt>
      <trkpt lat="40.171750" lon="-5.064067">
        <ele>985.0</ele>
        <time>2018-09-15T13:27:30Z</time>
      </trkpt>
      <trkpt lat="40.171750" lon="-5.063983">
        <ele>987.0</ele>
        <time>2018-09-15T13:27:31Z</time>
      </trkpt>
      <trkpt lat="40.171750" lon="-5.063900">
        <ele>988.0</ele>
        <time>2018-09-15T13:27:32Z</time>
      </trkpt>
      <trkpt lat="40.171750" lon="-5.063800">
        <ele>988.0</ele>
        <time>2018-09-15T13:27:33Z</time>
      </trkpt>
      <trkpt lat="40.171750" lon="-5.063700">
        <ele>986.0</ele>
        <time>2018-09-15T13:27:34Z</time>
      </trkpt>
      <trkpt lat="40.171767" lon="-5.063617">
        <ele>985.0</ele>
        <time>2018-09-15T13:27:35Z</time>
      </trkpt>
      <trkpt lat="40.171800" lon="-5.063517">
        <ele>983.0</ele>
        <time>2018-09-15T13:27:36Z</time>
      </trkpt>
      <trkpt lat="40.171817" lon="-5.063400">
        <ele>982.0</ele>
        <time>2018-09-15T13:27:37Z</time>
      </trkpt>
      <trkpt lat="40.171833" lon="-5.063300">
        <ele>981.0</ele>
        <time>2018-09-15T13:27:38Z</time>
      </trkpt>
      <trkpt lat="40.171833" lon="-5.063183">
        <ele>980.0</ele>
        <time>2018-09-15T13:27:39Z</time>
      </trkpt>
      <trkpt lat="40.171850" lon="-5.063083">
        <ele>980.0</ele>
        <time>2018-09-15T13:27:40Z</time>
      </trkpt>
      <trkpt lat="40.171867" lon="-5.062983">
        <ele>979.0</ele>
        <time>2018-09-15T13:27:41Z</time>
      </trkpt>
      <trkpt lat="40.171883" lon="-5.062883">
        <ele>979.0</ele>
        <time>2018-09-15T13:27:42Z</time>
      </trkpt>
      <trkpt lat="40.171900" lon="-5.062767">
        <ele>978.0</ele>
        <time>2018-09-15T13:27:43Z</time>
      </trkpt>
      <trkpt lat="40.171917" lon="-5.062650">
        <ele>978.0</ele>
        <time>2018-09-15T13:27:44Z</time>
      </trkpt>
      <trkpt lat="40.171933" lon="-5.062533">
        <ele>979.0</ele>
        <time>2018-09-15T13:27:45Z</time>
      </trkpt>
      <trkpt lat="40.171950" lon="-5.062417">
        <ele>978.0</ele>
        <time>2018-09-15T13:27:46Z</time>
      </trkpt>
      <trkpt lat="40.171983" lon="-5.062283">
        <ele>978.0</ele>
        <time>2018-09-15T13:27:47Z</time>
      </trkpt>
      <trkpt lat="40.172000" lon="-5.062150">
        <ele>979.0</ele>
        <time>2018-09-15T13:27:48Z</time>
      </trkpt>
      <trkpt lat="40.172000" lon="-5.062033">
        <ele>978.0</ele>
        <time>2018-09-15T13:27:49Z</time>
      </trkpt>
      <trkpt lat="40.172017" lon="-5.061900">
        <ele>978.0</ele>
        <time>2018-09-15T13:27:50Z</time>
      </trkpt>
      <trkpt lat="40.172033" lon="-5.061767">
        <ele>979.0</ele>
        <time>2018-09-15T13:27:51Z</time>
      </trkpt>
      <trkpt lat="40.172067" lon="-5.061650">
        <ele>981.0</ele>
        <time>2018-09-15T13:27:52Z</time>
      </trkpt>
      <trkpt lat="40.172100" lon="-5.061533">
        <ele>984.0</ele>
        <time>2018-09-15T13:27:53Z</time>
      </trkpt>
      <trkpt lat="40.172133" lon="-5.061450">
        <ele>987.0</ele>
        <time>2018-09-15T13:27:54Z</time>
      </trkpt>
      <trkpt lat="40.172150" lon="-5.061367">
        <ele>990.0</ele>
        <time>2018-09-15T13:27:55Z</time>
      </trkpt>
      <trkpt lat="40.172183" lon="-5.061300">
        <ele>993.0</ele>
        <time>2018-09-15T13:27:56Z</time>
      </trkpt>
      <trkpt lat="40.172217" lon="-5.061250">
        <ele>996.0</ele>
        <time>2018-09-15T13:27:57Z</time>
      </trkpt>
      <trkpt lat="40.172250" lon="-5.061200">
        <ele>998.0</ele>
        <time>2018-09-15T13:27:58Z</time>
      </trkpt>
      <trkpt lat="40.172267" lon="-5.061133">
        <ele>1000.0</ele>
        <time>2018-09-15T13:27:59Z</time>
      </trkpt>
      <trkpt lat="40.172300" lon="-5.061083">
        <ele>1001.0</ele>
        <time>2018-09-15T13:28:00Z</time>
      </trkpt>
      <trkpt lat="40.172333" lon="-5.061000">
        <ele>1002.0</ele>
        <time>2018-09-15T13:28:01Z</time>
      </trkpt>
      <trkpt lat="40.172350" lon="-5.060933">
        <ele>1004.0</ele>
        <time>2018-09-15T13:28:02Z</time>
      </trkpt>
      <trkpt lat="40.172367" lon="-5.060867">
        <ele>1005.0</ele>
        <time>2018-09-15T13:28:03Z</time>
      </trkpt>
      <trkpt lat="40.172400" lon="-5.060800">
        <ele>1006.0</ele>
        <time>2018-09-15T13:28:04Z</time>
      </trkpt>
      <trkpt lat="40.172450" lon="-5.060733">
        <ele>1008.0</ele>
        <time>2018-09-15T13:28:05Z</time>
      </trkpt>
      <trkpt lat="40.172467" lon="-5.060667">
        <ele>1010.0</ele>
        <time>2018-09-15T13:28:06Z</time>
      </trkpt>
      <trkpt lat="40.172467" lon="-5.060600">
        <ele>1011.0</ele>
        <time>2018-09-15T13:28:07Z</time>
      </trkpt>
      <trkpt lat="40.172450" lon="-5.060517">
        <ele>1012.0</ele>
        <time>2018-09-15T13:28:08Z</time>
      </trkpt>
      <trkpt lat="40.172417" lon="-5.060433">
        <ele>1013.0</ele>
        <time>2018-09-15T13:28:09Z</time>
      </trkpt>
      <trkpt lat="40.172400" lon="-5.060350">
        <ele>1014.0</ele>
        <time>2018-09-15T13:28:10Z</time>
      </trkpt>
      <trkpt lat="40.172400" lon="-5.060267">
        <ele>1017.0</ele>
        <time>2018-09-15T13:28:11Z</time>
      </trkpt>
      <trkpt lat="40.172400" lon="-5.060150">
        <ele>1019.0</ele>
        <time>2018-09-15T13:28:12Z</time>
      </trkpt>
      <trkpt lat="40.172400" lon="-5.060050">
        <ele>1023.0</ele>
        <time>2018-09-15T13:28:13Z</time>
      </trkpt>
      <trkpt lat="40.172400" lon="-5.059950">
        <ele>1026.0</ele>
        <time>2018-09-15T13:28:14Z</time>
      </trkpt>
      <trkpt lat="40.172400" lon="-5.059883">
        <ele>1029.0</ele>
        <time>2018-09-15T13:28:15Z</time>
      </trkpt>
      <trkpt lat="40.172400" lon="-5.059800">
        <ele>1031.0</ele>
        <time>2018-09-15T13:28:16Z</time>
      </trkpt>
      <trkpt lat="40.172400" lon="-5.059733">
        <ele>1031.0</ele>
        <time>2018-09-15T13:28:17Z</time>
      </trkpt>
      <trkpt lat="40.172417" lon="-5.059650">
        <ele>1030.0</ele>
        <time>2018-09-15T13:28:18Z</time>
      </trkpt>
      <trkpt lat="40.172417" lon="-5.059550">
        <ele>1028.0</ele>
        <time>2018-09-15T13:28:19Z</time>
      </trkpt>
      <trkpt lat="40.172433" lon="-5.059467">
        <ele>1027.0</ele>
        <time>2018-09-15T13:28:20Z</time>
      </trkpt>
      <trkpt lat="40.172433" lon="-5.059383">
        <ele>1027.0</ele>
        <time>2018-09-15T13:28:21Z</time>
      </trkpt>
      <trkpt lat="40.172433" lon="-5.059283">
        <ele>1027.0</ele>
        <time>2018-09-15T13:28:22Z</time>
      </trkpt>
      <trkpt lat="40.172417" lon="-5.059200">
        <ele>1027.0</ele>
        <time>2018-09-15T13:28:23Z</time>
      </trkpt>
      <trkpt lat="40.172417" lon="-5.059117">
        <ele>1027.0</ele>
        <time>2018-09-15T13:28:24Z</time>
      </trkpt>
      <trkpt lat="40.172417" lon="-5.059017">
        <ele>1028.0</ele>
        <time>2018-09-15T13:28:25Z</time>
      </trkpt>
      <trkpt lat="40.172417" lon="-5.058933">
        <ele>1029.0</ele>
        <time>2018-09-15T13:28:26Z</time>
      </trkpt>
      <trkpt lat="40.172400" lon="-5.058867">
        <ele>1030.0</ele>
        <time>2018-09-15T13:28:27Z</time>
      </trkpt>
      <trkpt lat="40.172383" lon="-5.058817">
        <ele>1031.0</ele>
        <time>2018-09-15T13:28:28Z</time>
      </trkpt>
      <trkpt lat="40.172383" lon="-5.058767">
        <ele>1031.0</ele>
        <time>2018-09-15T13:28:29Z</time>
      </trkpt>
      <trkpt lat="40.172367" lon="-5.058700">
        <ele>1031.0</ele>
        <time>2018-09-15T13:28:30Z</time>
      </trkpt>
      <trkpt lat="40.172367" lon="-5.058633">
        <ele>1030.0</ele>
        <time>2018-09-15T13:28:31Z</time>
      </trkpt>
      <trkpt lat="40.172350" lon="-5.058583">
        <ele>1029.0</ele>
        <time>2018-09-15T13:28:32Z</time>
      </trkpt>
      <trkpt lat="40.172350" lon="-5.058517">
        <ele>1029.0</ele>
        <time>2018-09-15T13:28:33Z</time>
      </trkpt>
      <trkpt lat="40.172350" lon="-5.058467">
        <ele>1028.0</ele>
        <time>2018-09-15T13:28:34Z</time>
      </trkpt>
      <trkpt lat="40.172333" lon="-5.058417">
        <ele>1027.0</ele>
        <time>2018-09-15T13:28:35Z</time>
      </trkpt>
      <trkpt lat="40.172333" lon="-5.058350">
        <ele>1026.0</ele>
        <time>2018-09-15T13:28:36Z</time>
      </trkpt>
      <trkpt lat="40.172317" lon="-5.058283">
        <ele>1025.0</ele>
        <time>2018-09-15T13:28:37Z</time>
      </trkpt>
      <trkpt lat="40.172300" lon="-5.058217">
        <ele>1024.0</ele>
        <time>2018-09-15T13:28:38Z</time>
      </trkpt>
      <trkpt lat="40.172300" lon="-5.058150">
        <ele>1024.0</ele>
        <time>2018-09-15T13:28:39Z</time>
      </trkpt>
      <trkpt lat="40.172283" lon="-5.058083">
        <ele>1024.0</ele>
        <time>2018-09-15T13:28:40Z</time>
      </trkpt>
      <trkpt lat="40.172267" lon="-5.058033">
        <ele>1024.0</ele>
        <time>2018-09-15T13:28:41Z</time>
      </trkpt>
      <trkpt lat="40.172250" lon="-5.057983">
        <ele>1023.0</ele>
        <time>2018-09-15T13:28:42Z</time>
      </trkpt>
      <trkpt lat="40.172250" lon="-5.057933">
        <ele>1022.0</ele>
        <time>2018-09-15T13:28:43Z</time>
      </trkpt>
      <trkpt lat="40.172250" lon="-5.057867">
        <ele>1021.0</ele>
        <time>2018-09-15T13:28:44Z</time>
      </trkpt>
      <trkpt lat="40.172250" lon="-5.057800">
        <ele>1021.0</ele>
        <time>2018-09-15T13:28:45Z</time>
      </trkpt>
      <trkpt lat="40.172233" lon="-5.057733">
        <ele>1020.0</ele>
        <time>2018-09-15T13:28:46Z</time>
      </trkpt>
      <trkpt lat="40.172233" lon="-5.057683">
        <ele>1020.0</ele>
        <time>2018-09-15T13:28:47Z</time>
      </trkpt>
      <trkpt lat="40.172217" lon="-5.057617">
        <ele>1019.0</ele>
        <time>2018-09-15T13:28:48Z</time>
      </trkpt>
      <trkpt lat="40.172217" lon="-5.057550">
        <ele>1018.0</ele>
        <time>2018-09-15T13:28:49Z</time>
      </trkpt>
      <trkpt lat="40.172217" lon="-5.057467">
        <ele>1018.0</ele>
        <time>2018-09-15T13:28:50Z</time>
      </trkpt>
      <trkpt lat="40.172217" lon="-5.057383">
        <ele>1018.0</ele>
        <time>2018-09-15T13:28:51Z</time>
      </trkpt>
      <trkpt lat="40.172217" lon="-5.057317">
        <ele>1018.0</ele>
        <time>2018-09-15T13:28:52Z</time>
      </trkpt>
      <trkpt lat="40.172200" lon="-5.057250">
        <ele>1018.0</ele>
        <time>2018-09-15T13:28:53Z</time>
      </trkpt>
      <trkpt lat="40.172200" lon="-5.057200">
        <ele>1019.0</ele>
        <time>2018-09-15T13:28:54Z</time>
      </trkpt>
      <trkpt lat="40.172200" lon="-5.057133">
        <ele>1019.0</ele>
        <time>2018-09-15T13:28:55Z</time>
      </trkpt>
      <trkpt lat="40.172183" lon="-5.057083">
        <ele>1019.0</ele>
        <time>2018-09-15T13:28:56Z</time>
      </trkpt>
      <trkpt lat="40.172183" lon="-5.057017">
        <ele>1019.0</ele>
        <time>2018-09-15T13:28:57Z</time>
      </trkpt>
      <trkpt lat="40.172167" lon="-5.056950">
        <ele>1018.0</ele>
        <time>2018-09-15T13:28:58Z</time>
      </trkpt>
      <trkpt lat="40.172167" lon="-5.056883">
        <ele>1017.0</ele>
        <time>2018-09-15T13:28:59Z</time>
      </trkpt>
      <trkpt lat="40.172167" lon="-5.056817">
        <ele>1018.0</ele>
        <time>2018-09-15T13:29:00Z</time>
      </trkpt>
      <trkpt lat="40.172183" lon="-5.056750">
        <ele>1018.0</ele>
        <time>2018-09-15T13:29:01Z</time>
      </trkpt>
      <trkpt lat="40.172183" lon="-5.056700">
        <ele>1017.0</ele>
        <time>2018-09-15T13:29:02Z</time>
      </trkpt>
      <trkpt lat="40.172183" lon="-5.056650">
        <ele>1016.0</ele>
        <time>2018-09-15T13:29:03Z</time>
      </trkpt>
      <trkpt lat="40.172200" lon="-5.056567">
        <ele>1014.0</ele>
        <time>2018-09-15T13:29:04Z</time>
      </trkpt>
      <trkpt lat="40.172217" lon="-5.056467">
        <ele>1013.0</ele>
        <time>2018-09-15T13:29:05Z</time>
      </trkpt>
      <trkpt lat="40.172250" lon="-5.056367">
        <ele>1012.0</ele>
        <time>2018-09-15T13:29:06Z</time>
      </trkpt>
      <trkpt lat="40.172267" lon="-5.056283">
        <ele>1012.0</ele>
        <time>2018-09-15T13:29:07Z</time>
      </trkpt>
      <trkpt lat="40.172283" lon="-5.056200">
        <ele>1011.0</ele>
        <time>2018-09-15T13:29:08Z</time>
      </trkpt>
      <trkpt lat="40.172283" lon="-5.056117">
        <ele>1009.0</ele>
        <time>2018-09-15T13:29:09Z</time>
      </trkpt>
      <trkpt lat="40.172283" lon="-5.056067">
        <ele>1007.0</ele>
        <time>2018-09-15T13:29:10Z</time>
      </trkpt>
      <trkpt lat="40.172250" lon="-5.056000">
        <ele>1004.0</ele>
        <time>2018-09-15T13:29:11Z</time>
      </trkpt>
      <trkpt lat="40.172233" lon="-5.055950">
        <ele>1000.0</ele>
        <time>2018-09-15T13:29:12Z</time>
      </trkpt>
      <trkpt lat="40.172217" lon="-5.055883">
        <ele>997.0</ele>
        <time>2018-09-15T13:29:13Z</time>
      </trkpt>
      <trkpt lat="40.172217" lon="-5.055817">
        <ele>993.0</ele>
        <time>2018-09-15T13:29:14Z</time>
      </trkpt>
      <trkpt lat="40.172217" lon="-5.055733">
        <ele>991.0</ele>
        <time>2018-09-15T13:29:15Z</time>
      </trkpt>
      <trkpt lat="40.172200" lon="-5.055667">
        <ele>988.0</ele>
        <time>2018-09-15T13:29:16Z</time>
      </trkpt>
      <trkpt lat="40.172183" lon="-5.055600">
        <ele>985.0</ele>
        <time>2018-09-15T13:29:17Z</time>
      </trkpt>
      <trkpt lat="40.172183" lon="-5.055533">
        <ele>982.0</ele>
        <time>2018-09-15T13:29:18Z</time>
      </trkpt>
      <trkpt lat="40.172183" lon="-5.055467">
        <ele>979.0</ele>
        <time>2018-09-15T13:29:19Z</time>
      </trkpt>
      <trkpt lat="40.172183" lon="-5.055400">
        <ele>975.0</ele>
        <time>2018-09-15T13:29:20Z</time>
      </trkpt>
      <trkpt lat="40.172183" lon="-5.055317">
        <ele>971.0</ele>
        <time>2018-09-15T13:29:21Z</time>
      </trkpt>
      <trkpt lat="40.172167" lon="-5.055233">
        <ele>968.0</ele>
        <time>2018-09-15T13:29:22Z</time>
      </trkpt>
      <trkpt lat="40.172150" lon="-5.055167">
        <ele>965.0</ele>
        <time>2018-09-15T13:29:23Z</time>
      </trkpt>
      <trkpt lat="40.172133" lon="-5.055100">
        <ele>963.0</ele>
        <time>2018-09-15T13:29:24Z</time>
      </trkpt>
      <trkpt lat="40.172133" lon="-5.055033">
        <ele>961.0</ele>
        <time>2018-09-15T13:29:25Z</time>
      </trkpt>
      <trkpt lat="40.172133" lon="-5.054967">
        <ele>958.0</ele>
        <time>2018-09-15T13:29:26Z</time>
      </trkpt>
      <trkpt lat="40.172150" lon="-5.054883">
        <ele>955.0</ele>
        <time>2018-09-15T13:29:27Z</time>
      </trkpt>
      <trkpt lat="40.172150" lon="-5.054783">
        <ele>952.0</ele>
        <time>2018-09-15T13:29:28Z</time>
      </trkpt>
      <trkpt lat="40.172150" lon="-5.054700">
        <ele>950.0</ele>
        <time>2018-09-15T13:29:29Z</time>
      </trkpt>
      <trkpt lat="40.172167" lon="-5.054600">
        <ele>949.0</ele>
        <time>2018-09-15T13:29:30Z</time>
      </trkpt>
      <trkpt lat="40.172167" lon="-5.054517">
        <ele>947.0</ele>
        <time>2018-09-15T13:29:31Z</time>
      </trkpt>
      <trkpt lat="40.172167" lon="-5.054433">
        <ele>945.0</ele>
        <time>2018-09-15T13:29:32Z</time>
      </trkpt>
      <trkpt lat="40.172183" lon="-5.054350">
        <ele>943.0</ele>
        <time>2018-09-15T13:29:33Z</time>
      </trkpt>
      <trkpt lat="40.172183" lon="-5.054267">
        <ele>941.0</ele>
        <time>2018-09-15T13:29:34Z</time>
      </trkpt>
      <trkpt lat="40.172200" lon="-5.054183">
        <ele>940.0</ele>
        <time>2018-09-15T13:29:35Z</time>
      </trkpt>
      <trkpt lat="40.172200" lon="-5.054100">
        <ele>939.0</ele>
        <time>2018-09-15T13:29:36Z</time>
      </trkpt>
      <trkpt lat="40.172200" lon="-5.054017">
        <ele>938.0</ele>
        <time>2018-09-15T13:29:37Z</time>
      </trkpt>
      <trkpt lat="40.172200" lon="-5.053933">
        <ele>936.0</ele>
        <time>2018-09-15T13:29:38Z</time>
      </trkpt>
      <trkpt lat="40.172217" lon="-5.053850">
        <ele>935.0</ele>
        <time>2018-09-15T13:29:39Z</time>
      </trkpt>
      <trkpt lat="40.172217" lon="-5.053767">
        <ele>933.0</ele>
        <time>2018-09-15T13:29:40Z</time>
      </trkpt>
      <trkpt lat="40.172217" lon="-5.053683">
        <ele>932.0</ele>
        <time>2018-09-15T13:29:41Z</time>
      </trkpt>
      <trkpt lat="40.172233" lon="-5.053600">
        <ele>930.0</ele>
        <time>2018-09-15T13:29:42Z</time>
      </trkpt>
      <trkpt lat="40.172233" lon="-5.053517">
        <ele>928.0</ele>
        <time>2018-09-15T13:29:43Z</time>
      </trkpt>
      <trkpt lat="40.172250" lon="-5.053417">
        <ele>926.0</ele>
        <time>2018-09-15T13:29:44Z</time>
      </trkpt>
      <trkpt lat="40.172250" lon="-5.053333">
        <ele>924.0</ele>
        <time>2018-09-15T13:29:45Z</time>
      </trkpt>
      <trkpt lat="40.172267" lon="-5.053233">
        <ele>921.0</ele>
        <time>2018-09-15T13:29:46Z</time>
      </trkpt>
      <trkpt lat="40.172267" lon="-5.053133">
        <ele>918.0</ele>
        <time>2018-09-15T13:29:47Z</time>
      </trkpt>
      <trkpt lat="40.172267" lon="-5.053033">
        <ele>915.0</ele>
        <time>2018-09-15T13:29:48Z</time>
      </trkpt>
      <trkpt lat="40.172283" lon="-5.052933">
        <ele>912.0</ele>
        <time>2018-09-15T13:29:49Z</time>
      </trkpt>
      <trkpt lat="40.172283" lon="-5.052833">
        <ele>910.0</ele>
        <time>2018-09-15T13:29:50Z</time>
      </trkpt>
      <trkpt lat="40.172283" lon="-5.052733">
        <ele>909.0</ele>
        <time>2018-09-15T13:29:51Z</time>
      </trkpt>
      <trkpt lat="40.172283" lon="-5.052633">
        <ele>907.0</ele>
        <time>2018-09-15T13:29:52Z</time>
      </trkpt>
      <trkpt lat="40.172283" lon="-5.052550">
        <ele>905.0</ele>
        <time>2018-09-15T13:29:53Z</time>
      </trkpt>
      <trkpt lat="40.172283" lon="-5.052467">
        <ele>902.0</ele>
        <time>2018-09-15T13:29:54Z</time>
      </trkpt>
      <trkpt lat="40.172267" lon="-5.052367">
        <ele>900.0</ele>
        <time>2018-09-15T13:29:55Z</time>
      </trkpt>
      <trkpt lat="40.172267" lon="-5.052267">
        <ele>897.0</ele>
        <time>2018-09-15T13:29:56Z</time>
      </trkpt>
      <trkpt lat="40.172250" lon="-5.052183">
        <ele>895.0</ele>
        <time>2018-09-15T13:29:57Z</time>
      </trkpt>
      <trkpt lat="40.172233" lon="-5.052083">
        <ele>893.0</ele>
        <time>2018-09-15T13:29:58Z</time>
      </trkpt>
      <trkpt lat="40.172233" lon="-5.051983">
        <ele>891.0</ele>
        <time>2018-09-15T13:29:59Z</time>
      </trkpt>
      <trkpt lat="40.172233" lon="-5.051900">
        <ele>890.0</ele>
        <time>2018-09-15T13:30:00Z</time>
      </trkpt>
      <trkpt lat="40.172217" lon="-5.051817">
        <ele>888.0</ele>
        <time>2018-09-15T13:30:01Z</time>
      </trkpt>
      <trkpt lat="40.172217" lon="-5.051717">
        <ele>885.0</ele>
        <time>2018-09-15T13:30:02Z</time>
      </trkpt>
      <trkpt lat="40.172217" lon="-5.051633">
        <ele>883.0</ele>
        <time>2018-09-15T13:30:03Z</time>
      </trkpt>
      <trkpt lat="40.172200" lon="-5.051533">
        <ele>880.0</ele>
        <time>2018-09-15T13:30:04Z</time>
      </trkpt>
      <trkpt lat="40.172200" lon="-5.051433">
        <ele>878.0</ele>
        <time>2018-09-15T13:30:05Z</time>
      </trkpt>
      <trkpt lat="40.172200" lon="-5.051333">
        <ele>876.0</ele>
        <time>2018-09-15T13:30:06Z</time>
      </trkpt>
      <trkpt lat="40.172200" lon="-5.051233">
        <ele>875.0</ele>
        <time>2018-09-15T13:30:07Z</time>
      </trkpt>
      <trkpt lat="40.172200" lon="-5.051150">
        <ele>872.0</ele>
        <time>2018-09-15T13:30:08Z</time>
      </trkpt>
      <trkpt lat="40.172200" lon="-5.051050">
        <ele>870.0</ele>
        <time>2018-09-15T13:30:09Z</time>
      </trkpt>
      <trkpt lat="40.172200" lon="-5.050967">
        <ele>867.0</ele>
        <time>2018-09-15T13:30:10Z</time>
      </trkpt>
      <trkpt lat="40.172200" lon="-5.050867">
        <ele>865.0</ele>
        <time>2018-09-15T13:30:11Z</time>
      </trkpt>
      <trkpt lat="40.172200" lon="-5.050767">
        <ele>863.0</ele>
        <time>2018-09-15T13:30:12Z</time>
      </trkpt>
      <trkpt lat="40.172200" lon="-5.050683">
        <ele>862.0</ele>
        <time>2018-09-15T13:30:13Z</time>
      </trkpt>
      <trkpt lat="40.172217" lon="-5.050583">
        <ele>860.0</ele>
        <time>2018-09-15T13:30:14Z</time>
      </trkpt>
      <trkpt lat="40.172233" lon="-5.050500">
        <ele>859.0</ele>
        <time>2018-09-15T13:30:15Z</time>
      </trkpt>
      <trkpt lat="40.172233" lon="-5.050417">
        <ele>856.0</ele>
        <time>2018-09-15T13:30:16Z</time>
      </trkpt>
      <trkpt lat="40.172250" lon="-5.050333">
        <ele>854.0</ele>
        <time>2018-09-15T13:30:17Z</time>
      </trkpt>
      <trkpt lat="40.172267" lon="-5.050233">
        <ele>852.0</ele>
        <time>2018-09-15T13:30:18Z</time>
      </trkpt>
      <trkpt lat="40.172267" lon="-5.050150">
        <ele>850.0</ele>
        <time>2018-09-15T13:30:19Z</time>
      </trkpt>
      <trkpt lat="40.172283" lon="-5.050067">
        <ele>848.0</ele>
        <time>2018-09-15T13:30:20Z</time>
      </trkpt>
      <trkpt lat="40.172300" lon="-5.049983">
        <ele>846.0</ele>
        <time>2018-09-15T13:30:21Z</time>
      </trkpt>
      <trkpt lat="40.172300" lon="-5.049900">
        <ele>844.0</ele>
        <time>2018-09-15T13:30:22Z</time>
      </trkpt>
      <trkpt lat="40.172300" lon="-5.049817">
        <ele>841.0</ele>
        <time>2018-09-15T13:30:23Z</time>
      </trkpt>
      <trkpt lat="40.172300" lon="-5.049717">
        <ele>839.0</ele>
        <time>2018-09-15T13:30:24Z</time>
      </trkpt>
      <trkpt lat="40.172317" lon="-5.049633">
        <ele>836.0</ele>
        <time>2018-09-15T13:30:25Z</time>
      </trkpt>
      <trkpt lat="40.172333" lon="-5.049550">
        <ele>834.0</ele>
        <time>2018-09-15T13:30:26Z</time>
      </trkpt>
      <trkpt lat="40.172350" lon="-5.049467">
        <ele>832.0</ele>
        <time>2018-09-15T13:30:27Z</time>
      </trkpt>
      <trkpt lat="40.172367" lon="-5.049383">
        <ele>830.0</ele>
        <time>2018-09-15T13:30:28Z</time>
      </trkpt>
      <trkpt lat="40.172383" lon="-5.049300">
        <ele>828.0</ele>
        <time>2018-09-15T13:30:29Z</time>
      </trkpt>
      <trkpt lat="40.172433" lon="-5.049217">
        <ele>825.0</ele>
        <time>2018-09-15T13:30:30Z</time>
      </trkpt>
      <trkpt lat="40.172483" lon="-5.049133">
        <ele>823.0</ele>
        <time>2018-09-15T13:30:31Z</time>
      </trkpt>
      <trkpt lat="40.172533" lon="-5.049050">
        <ele>821.0</ele>
        <time>2018-09-15T13:30:32Z</time>
      </trkpt>
      <trkpt lat="40.172583" lon="-5.048967">
        <ele>819.0</ele>
        <time>2018-09-15T13:30:33Z</time>
      </trkpt>
      <trkpt lat="40.172633" lon="-5.048900">
        <ele>817.0</ele>
        <time>2018-09-15T13:30:34Z</time>
      </trkpt>
      <trkpt lat="40.172683" lon="-5.048817">
        <ele>815.0</ele>
        <time>2018-09-15T13:30:35Z</time>
      </trkpt>
      <trkpt lat="40.172717" lon="-5.048733">
        <ele>813.0</ele>
        <time>2018-09-15T13:30:36Z</time>
      </trkpt>
      <trkpt lat="40.172750" lon="-5.048633">
        <ele>810.0</ele>
        <time>2018-09-15T13:30:37Z</time>
      </trkpt>
      <trkpt lat="40.172783" lon="-5.048550">
        <ele>808.0</ele>
        <time>2018-09-15T13:30:38Z</time>
      </trkpt>
      <trkpt lat="40.172800" lon="-5.048450">
        <ele>806.0</ele>
        <time>2018-09-15T13:30:39Z</time>
      </trkpt>
      <trkpt lat="40.172833" lon="-5.048367">
        <ele>803.0</ele>
        <time>2018-09-15T13:30:40Z</time>
      </trkpt>
      <trkpt lat="40.172850" lon="-5.048267">
        <ele>801.0</ele>
        <time>2018-09-15T13:30:41Z</time>
      </trkpt>
      <trkpt lat="40.172867" lon="-5.048183">
        <ele>799.0</ele>
        <time>2018-09-15T13:30:42Z</time>
      </trkpt>
      <trkpt lat="40.172867" lon="-5.048083">
        <ele>797.0</ele>
        <time>2018-09-15T13:30:43Z</time>
      </trkpt>
      <trkpt lat="40.172883" lon="-5.047983">
        <ele>795.0</ele>
        <time>2018-09-15T13:30:44Z</time>
      </trkpt>
      <trkpt lat="40.172883" lon="-5.047900">
        <ele>793.0</ele>
        <time>2018-09-15T13:30:45Z</time>
      </trkpt>
      <trkpt lat="40.172900" lon="-5.047817">
        <ele>791.0</ele>
        <time>2018-09-15T13:30:46Z</time>
      </trkpt>
      <trkpt lat="40.172917" lon="-5.047733">
        <ele>788.0</ele>
        <time>2018-09-15T13:30:47Z</time>
      </trkpt>
      <trkpt lat="40.172933" lon="-5.047650">
        <ele>785.0</ele>
        <time>2018-09-15T13:30:48Z</time>
      </trkpt>
      <trkpt lat="40.172967" lon="-5.047550">
        <ele>782.0</ele>
        <time>2018-09-15T13:30:49Z</time>
      </trkpt>
      <trkpt lat="40.173017" lon="-5.047450">
        <ele>779.0</ele>
        <time>2018-09-15T13:30:50Z</time>
      </trkpt>
      <trkpt lat="40.173067" lon="-5.047350">
        <ele>777.0</ele>
        <time>2018-09-15T13:30:51Z</time>
      </trkpt>
      <trkpt lat="40.173117" lon="-5.047267">
        <ele>775.0</ele>
        <time>2018-09-15T13:30:52Z</time>
      </trkpt>
      <trkpt lat="40.173167" lon="-5.047183">
        <ele>773.0</ele>
        <time>2018-09-15T13:30:53Z</time>
      </trkpt>
      <trkpt lat="40.173217" lon="-5.047100">
        <ele>770.0</ele>
        <time>2018-09-15T13:30:54Z</time>
      </trkpt>
      <trkpt lat="40.173250" lon="-5.047017">
        <ele>767.0</ele>
        <time>2018-09-15T13:30:55Z</time>
      </trkpt>
      <trkpt lat="40.173300" lon="-5.046917">
        <ele>765.0</ele>
        <time>2018-09-15T13:30:56Z</time>
      </trkpt>
      <trkpt lat="40.173350" lon="-5.046817">
        <ele>762.0</ele>
        <time>2018-09-15T13:30:57Z</time>
      </trkpt>
      <trkpt lat="40.173417" lon="-5.046733">
        <ele>760.0</ele>
        <time>2018-09-15T13:30:58Z</time>
      </trkpt>
      <trkpt lat="40.173467" lon="-5.046633">
        <ele>758.0</ele>
        <time>2018-09-15T13:30:59Z</time>
      </trkpt>
      <trkpt lat="40.173533" lon="-5.046550">
        <ele>756.0</ele>
        <time>2018-09-15T13:31:00Z</time>
      </trkpt>
      <trkpt lat="40.173583" lon="-5.046467">
        <ele>754.0</ele>
        <time>2018-09-15T13:31:01Z</time>
      </trkpt>
      <trkpt lat="40.173633" lon="-5.046383">
        <ele>752.0</ele>
        <time>2018-09-15T13:31:02Z</time>
      </trkpt>
      <trkpt lat="40.173683" lon="-5.046300">
        <ele>749.0</ele>
        <time>2018-09-15T13:31:03Z</time>
      </trkpt>
      <trkpt lat="40.173750" lon="-5.046217">
        <ele>747.0</ele>
        <time>2018-09-15T13:31:04Z</time>
      </trkpt>
      <trkpt lat="40.173817" lon="-5.046133">
        <ele>744.0</ele>
        <time>2018-09-15T13:31:05Z</time>
      </trkpt>
      <trkpt lat="40.173867" lon="-5.046050">
        <ele>742.0</ele>
        <time>2018-09-15T13:31:06Z</time>
      </trkpt>
      <trkpt lat="40.173933" lon="-5.045950">
        <ele>740.0</ele>
        <time>2018-09-15T13:31:07Z</time>
      </trkpt>
      <trkpt lat="40.174000" lon="-5.045867">
        <ele>737.0</ele>
        <time>2018-09-15T13:31:08Z</time>
      </trkpt>
      <trkpt lat="40.174067" lon="-5.045783">
        <ele>735.0</ele>
        <time>2018-09-15T13:31:09Z</time>
      </trkpt>
      <trkpt lat="40.174150" lon="-5.045700">
        <ele>733.0</ele>
        <time>2018-09-15T13:31:10Z</time>
      </trkpt>
      <trkpt lat="40.174217" lon="-5.045617">
        <ele>731.0</ele>
        <time>2018-09-15T13:31:11Z</time>
      </trkpt>
      <trkpt lat="40.174283" lon="-5.045533">
        <ele>730.0</ele>
        <time>2018-09-15T13:31:12Z</time>
      </trkpt>
      <trkpt lat="40.174350" lon="-5.045450">
        <ele>728.0</ele>
        <time>2018-09-15T13:31:13Z</time>
      </trkpt>
      <trkpt lat="40.174417" lon="-5.045367">
        <ele>726.0</ele>
        <time>2018-09-15T13:31:14Z</time>
      </trkpt>
      <trkpt lat="40.174483" lon="-5.045283">
        <ele>724.0</ele>
        <time>2018-09-15T13:31:15Z</time>
      </trkpt>
      <trkpt lat="40.174567" lon="-5.045200">
        <ele>722.0</ele>
        <time>2018-09-15T13:31:16Z</time>
      </trkpt>
      <trkpt lat="40.174633" lon="-5.045100">
        <ele>720.0</ele>
        <time>2018-09-15T13:31:17Z</time>
      </trkpt>
      <trkpt lat="40.174683" lon="-5.045017">
        <ele>718.0</ele>
        <time>2018-09-15T13:31:18Z</time>
      </trkpt>
      <trkpt lat="40.174750" lon="-5.044933">
        <ele>716.0</ele>
        <time>2018-09-15T13:31:19Z</time>
      </trkpt>
      <trkpt lat="40.174800" lon="-5.044833">
        <ele>714.0</ele>
        <time>2018-09-15T13:31:20Z</time>
      </trkpt>
      <trkpt lat="40.174867" lon="-5.044750">
        <ele>712.0</ele>
        <time>2018-09-15T13:31:21Z</time>
      </trkpt>
      <trkpt lat="40.174917" lon="-5.044667">
        <ele>709.0</ele>
        <time>2018-09-15T13:31:22Z</time>
      </trkpt>
      <trkpt lat="40.174983" lon="-5.044567">
        <ele>706.0</ele>
        <time>2018-09-15T13:31:23Z</time>
      </trkpt>
      <trkpt lat="40.175050" lon="-5.044467">
        <ele>704.0</ele>
        <time>2018-09-15T13:31:24Z</time>
      </trkpt>
      <trkpt lat="40.175100" lon="-5.044383">
        <ele>702.0</ele>
        <time>2018-09-15T13:31:25Z</time>
      </trkpt>
      <trkpt lat="40.175167" lon="-5.044300">
        <ele>700.0</ele>
        <time>2018-09-15T13:31:26Z</time>
      </trkpt>
      <trkpt lat="40.175217" lon="-5.044217">
        <ele>697.0</ele>
        <time>2018-09-15T13:31:27Z</time>
      </trkpt>
      <trkpt lat="40.175283" lon="-5.044117">
        <ele>693.0</ele>
        <time>2018-09-15T13:31:28Z</time>
      </trkpt>
      <trkpt lat="40.175333" lon="-5.044033">
        <ele>690.0</ele>
        <time>2018-09-15T13:31:29Z</time>
      </trkpt>
      <trkpt lat="40.175400" lon="-5.043933">
        <ele>687.0</ele>
        <time>2018-09-15T13:31:30Z</time>
      </trkpt>
      <trkpt lat="40.175467" lon="-5.043833">
        <ele>684.0</ele>
        <time>2018-09-15T13:31:31Z</time>
      </trkpt>
      <trkpt lat="40.175517" lon="-5.043750">
        <ele>682.0</ele>
        <time>2018-09-15T13:31:32Z</time>
      </trkpt>
      <trkpt lat="40.175583" lon="-5.043667">
        <ele>679.0</ele>
        <time>2018-09-15T13:31:33Z</time>
      </trkpt>
      <trkpt lat="40.175633" lon="-5.043583">
        <ele>676.0</ele>
        <time>2018-09-15T13:31:34Z</time>
      </trkpt>
      <trkpt lat="40.175717" lon="-5.043500">
        <ele>673.0</ele>
        <time>2018-09-15T13:31:35Z</time>
      </trkpt>
      <trkpt lat="40.175783" lon="-5.043400">
        <ele>669.0</ele>
        <time>2018-09-15T13:31:36Z</time>
      </trkpt>
      <trkpt lat="40.175867" lon="-5.043317">
        <ele>666.0</ele>
        <time>2018-09-15T13:31:37Z</time>
      </trkpt>
      <trkpt lat="40.175933" lon="-5.043233">
        <ele>663.0</ele>
        <time>2018-09-15T13:31:38Z</time>
      </trkpt>
      <trkpt lat="40.176000" lon="-5.043150">
        <ele>660.0</ele>
        <time>2018-09-15T13:31:39Z</time>
      </trkpt>
      <trkpt lat="40.176083" lon="-5.043050">
        <ele>657.0</ele>
        <time>2018-09-15T13:31:40Z</time>
      </trkpt>
      <trkpt lat="40.176150" lon="-5.042967">
        <ele>653.0</ele>
        <time>2018-09-15T13:31:41Z</time>
      </trkpt>
      <trkpt lat="40.176217" lon="-5.042850">
        <ele>649.0</ele>
        <time>2018-09-15T13:31:42Z</time>
      </trkpt>
      <trkpt lat="40.176300" lon="-5.042750">
        <ele>647.0</ele>
        <time>2018-09-15T13:31:43Z</time>
      </trkpt>
      <trkpt lat="40.176367" lon="-5.042633">
        <ele>646.0</ele>
        <time>2018-09-15T13:31:44Z</time>
      </trkpt>
      <trkpt lat="40.176433" lon="-5.042550">
        <ele>645.0</ele>
        <time>2018-09-15T13:31:45Z</time>
      </trkpt>
      <trkpt lat="40.176483" lon="-5.042450">
        <ele>645.0</ele>
        <time>2018-09-15T13:31:46Z</time>
      </trkpt>
      <trkpt lat="40.176550" lon="-5.042367">
        <ele>645.0</ele>
        <time>2018-09-15T13:31:47Z</time>
      </trkpt>
      <trkpt lat="40.176633" lon="-5.042283">
        <ele>644.0</ele>
        <time>2018-09-15T13:31:48Z</time>
      </trkpt>
      <trkpt lat="40.176717" lon="-5.042183">
        <ele>643.0</ele>
        <time>2018-09-15T13:31:49Z</time>
      </trkpt>
      <trkpt lat="40.176800" lon="-5.042100">
        <ele>642.0</ele>
        <time>2018-09-15T13:31:50Z</time>
      </trkpt>
      <trkpt lat="40.176883" lon="-5.042000">
        <ele>642.0</ele>
        <time>2018-09-15T13:31:51Z</time>
      </trkpt>
      <trkpt lat="40.176950" lon="-5.041900">
        <ele>642.0</ele>
        <time>2018-09-15T13:31:52Z</time>
      </trkpt>
      <trkpt lat="40.177033" lon="-5.041817">
        <ele>642.0</ele>
        <time>2018-09-15T13:31:53Z</time>
      </trkpt>
      <trkpt lat="40.177133" lon="-5.041733">
        <ele>641.0</ele>
        <time>2018-09-15T13:31:54Z</time>
      </trkpt>
      <trkpt lat="40.177233" lon="-5.041650">
        <ele>641.0</ele>
        <time>2018-09-15T13:31:55Z</time>
      </trkpt>
      <trkpt lat="40.177317" lon="-5.041583">
        <ele>640.0</ele>
        <time>2018-09-15T13:31:56Z</time>
      </trkpt>
      <trkpt lat="40.177417" lon="-5.041500">
        <ele>639.0</ele>
        <time>2018-09-15T13:31:57Z</time>
      </trkpt>
      <trkpt lat="40.177500" lon="-5.041417">
        <ele>638.0</ele>
        <time>2018-09-15T13:31:58Z</time>
      </trkpt>
      <trkpt lat="40.177583" lon="-5.041333">
        <ele>637.0</ele>
        <time>2018-09-15T13:31:59Z</time>
      </trkpt>
      <trkpt lat="40.177683" lon="-5.041267">
        <ele>635.0</ele>
        <time>2018-09-15T13:32:00Z</time>
      </trkpt>
      <trkpt lat="40.177783" lon="-5.041217">
        <ele>634.0</ele>
        <time>2018-09-15T13:32:01Z</time>
      </trkpt>
      <trkpt lat="40.177883" lon="-5.041150">
        <ele>633.0</ele>
        <time>2018-09-15T13:32:02Z</time>
      </trkpt>
      <trkpt lat="40.177983" lon="-5.041083">
        <ele>632.0</ele>
        <time>2018-09-15T13:32:03Z</time>
      </trkpt>
      <trkpt lat="40.178083" lon="-5.041017">
        <ele>632.0</ele>
        <time>2018-09-15T13:32:04Z</time>
      </trkpt>
      <trkpt lat="40.178183" lon="-5.040967">
        <ele>631.0</ele>
        <time>2018-09-15T13:32:05Z</time>
      </trkpt>
      <trkpt lat="40.178283" lon="-5.040917">
        <ele>631.0</ele>
        <time>2018-09-15T13:32:06Z</time>
      </trkpt>
      <trkpt lat="40.178383" lon="-5.040883">
        <ele>629.0</ele>
        <time>2018-09-15T13:32:07Z</time>
      </trkpt>
      <trkpt lat="40.178500" lon="-5.040833">
        <ele>628.0</ele>
        <time>2018-09-15T13:32:08Z</time>
      </trkpt>
      <trkpt lat="40.178600" lon="-5.040750">
        <ele>628.0</ele>
        <time>2018-09-15T13:32:09Z</time>
      </trkpt>
      <trkpt lat="40.178700" lon="-5.040667">
        <ele>628.0</ele>
        <time>2018-09-15T13:32:10Z</time>
      </trkpt>
      <trkpt lat="40.178800" lon="-5.040583">
        <ele>629.0</ele>
        <time>2018-09-15T13:32:11Z</time>
      </trkpt>
      <trkpt lat="40.178883" lon="-5.040517">
        <ele>631.0</ele>
        <time>2018-09-15T13:32:12Z</time>
      </trkpt>
      <trkpt lat="40.178967" lon="-5.040450">
        <ele>630.0</ele>
        <time>2018-09-15T13:32:13Z</time>
      </trkpt>
      <trkpt lat="40.179050" lon="-5.040383">
        <ele>629.0</ele>
        <time>2018-09-15T13:32:14Z</time>
      </trkpt>
      <trkpt lat="40.179133" lon="-5.040317">
        <ele>627.0</ele>
        <time>2018-09-15T13:32:15Z</time>
      </trkpt>
      <trkpt lat="40.179200" lon="-5.040233">
        <ele>626.0</ele>
        <time>2018-09-15T13:32:16Z</time>
      </trkpt>
      <trkpt lat="40.179300" lon="-5.040167">
        <ele>624.0</ele>
        <time>2018-09-15T13:32:17Z</time>
      </trkpt>
      <trkpt lat="40.179383" lon="-5.040100">
        <ele>623.0</ele>
        <time>2018-09-15T13:32:18Z</time>
      </trkpt>
      <trkpt lat="40.179500" lon="-5.040033">
        <ele>623.0</ele>
        <time>2018-09-15T13:32:19Z</time>
      </trkpt>
      <trkpt lat="40.179600" lon="-5.039983">
        <ele>624.0</ele>
        <time>2018-09-15T13:32:20Z</time>
      </trkpt>
      <trkpt lat="40.179700" lon="-5.039933">
        <ele>626.0</ele>
        <time>2018-09-15T13:32:21Z</time>
      </trkpt>
      <trkpt lat="40.179800" lon="-5.039867">
        <ele>628.0</ele>
        <time>2018-09-15T13:32:22Z</time>
      </trkpt>
      <trkpt lat="40.179883" lon="-5.039817">
        <ele>631.0</ele>
        <time>2018-09-15T13:32:23Z</time>
      </trkpt>
      <trkpt lat="40.179967" lon="-5.039767">
        <ele>634.0</ele>
        <time>2018-09-15T13:32:24Z</time>
      </trkpt>
      <trkpt lat="40.180050" lon="-5.039733">
        <ele>637.0</ele>
        <time>2018-09-15T13:32:25Z</time>
      </trkpt>
      <trkpt lat="40.180150" lon="-5.039717">
        <ele>640.0</ele>
        <time>2018-09-15T13:32:26Z</time>
      </trkpt>
      <trkpt lat="40.180233" lon="-5.039717">
        <ele>641.0</ele>
        <time>2018-09-15T13:32:27Z</time>
      </trkpt>
      <trkpt lat="40.180333" lon="-5.039767">
        <ele>642.0</ele>
        <time>2018-09-15T13:32:28Z</time>
      </trkpt>
      <trkpt lat="40.180433" lon="-5.039850">
        <ele>643.0</ele>
        <time>2018-09-15T13:32:29Z</time>
      </trkpt>
      <trkpt lat="40.180533" lon="-5.039950">
        <ele>645.0</ele>
        <time>2018-09-15T13:32:30Z</time>
      </trkpt>
      <trkpt lat="40.180617" lon="-5.040050">
        <ele>647.0</ele>
        <time>2018-09-15T13:32:31Z</time>
      </trkpt>
      <trkpt lat="40.180700" lon="-5.040167">
        <ele>649.0</ele>
        <time>2018-09-15T13:32:32Z</time>
      </trkpt>
      <trkpt lat="40.180750" lon="-5.040267">
        <ele>651.0</ele>
        <time>2018-09-15T13:32:33Z</time>
      </trkpt>
      <trkpt lat="40.180800" lon="-5.040383">
        <ele>653.0</ele>
        <time>2018-09-15T13:32:34Z</time>
      </trkpt>
      <trkpt lat="40.180817" lon="-5.040533">
        <ele>655.0</ele>
        <time>2018-09-15T13:32:35Z</time>
      </trkpt>
      <trkpt lat="40.180833" lon="-5.040683">
        <ele>656.0</ele>
        <time>2018-09-15T13:32:36Z</time>
      </trkpt>
      <trkpt lat="40.180833" lon="-5.040817">
        <ele>660.0</ele>
        <time>2018-09-15T13:32:37Z</time>
      </trkpt>
      <trkpt lat="40.180833" lon="-5.040933">
        <ele>663.0</ele>
        <time>2018-09-15T13:32:38Z</time>
      </trkpt>
      <trkpt lat="40.180800" lon="-5.041017">
        <ele>667.0</ele>
        <time>2018-09-15T13:32:39Z</time>
      </trkpt>
      <trkpt lat="40.180767" lon="-5.041083">
        <ele>668.0</ele>
        <time>2018-09-15T13:32:40Z</time>
      </trkpt>
      <trkpt lat="40.180733" lon="-5.041133">
        <ele>669.0</ele>
        <time>2018-09-15T13:32:41Z</time>
      </trkpt>
      <trkpt lat="40.180683" lon="-5.041183">
        <ele>668.0</ele>
        <time>2018-09-15T13:32:42Z</time>
      </trkpt>
      <trkpt lat="40.180617" lon="-5.041233">
        <ele>668.0</ele>
        <time>2018-09-15T13:32:43Z</time>
      </trkpt>
      <trkpt lat="40.180567" lon="-5.041267">
        <ele>668.0</ele>
        <time>2018-09-15T13:32:44Z</time>
      </trkpt>
      <trkpt lat="40.180533" lon="-5.041267">
        <ele>669.0</ele>
        <time>2018-09-15T13:32:45Z</time>
      </trkpt>
      <trkpt lat="40.180500" lon="-5.041267">
        <ele>668.0</ele>
        <time>2018-09-15T13:32:46Z</time>
      </trkpt>
      <trkpt lat="40.180467" lon="-5.041267">
        <ele>667.0</ele>
        <time>2018-09-15T13:32:47Z</time>
      </trkpt>
      <trkpt lat="40.180433" lon="-5.041250">
        <ele>665.0</ele>
        <time>2018-09-15T13:32:48Z</time>
      </trkpt>
      <trkpt lat="40.180383" lon="-5.041217">
        <ele>664.0</ele>
        <time>2018-09-15T13:32:49Z</time>
      </trkpt>
      <trkpt lat="40.180333" lon="-5.041167">
        <ele>663.0</ele>
        <time>2018-09-15T13:32:50Z</time>
      </trkpt>
      <trkpt lat="40.180283" lon="-5.041117">
        <ele>663.0</ele>
        <time>2018-09-15T13:32:51Z</time>
      </trkpt>
      <trkpt lat="40.180250" lon="-5.041050">
        <ele>663.0</ele>
        <time>2018-09-15T13:32:52Z</time>
      </trkpt>
      <trkpt lat="40.180233" lon="-5.040967">
        <ele>662.0</ele>
        <time>2018-09-15T13:32:53Z</time>
      </trkpt>
      <trkpt lat="40.180233" lon="-5.040883">
        <ele>661.0</ele>
        <time>2018-09-15T13:32:54Z</time>
      </trkpt>
      <trkpt lat="40.180250" lon="-5.040783">
        <ele>661.0</ele>
        <time>2018-09-15T13:32:55Z</time>
      </trkpt>
      <trkpt lat="40.180267" lon="-5.040683">
        <ele>661.0</ele>
        <time>2018-09-15T13:32:56Z</time>
      </trkpt>
      <trkpt lat="40.180283" lon="-5.040583">
        <ele>661.0</ele>
        <time>2018-09-15T13:32:57Z</time>
      </trkpt>
      <trkpt lat="40.180317" lon="-5.040467">
        <ele>663.0</ele>
        <time>2018-09-15T13:32:58Z</time>
      </trkpt>
      <trkpt lat="40.180317" lon="-5.040367">
        <ele>665.0</ele>
        <time>2018-09-15T13:32:59Z</time>
      </trkpt>
      <trkpt lat="40.180333" lon="-5.040283">
        <ele>668.0</ele>
        <time>2018-09-15T13:33:00Z</time>
      </trkpt>
      <trkpt lat="40.180350" lon="-5.040183">
        <ele>669.0</ele>
        <time>2018-09-15T13:33:01Z</time>
      </trkpt>
      <trkpt lat="40.180333" lon="-5.040100">
        <ele>671.0</ele>
        <time>2018-09-15T13:33:02Z</time>
      </trkpt>
      <trkpt lat="40.180333" lon="-5.040000">
        <ele>673.0</ele>
        <time>2018-09-15T13:33:03Z</time>
      </trkpt>
      <trkpt lat="40.180317" lon="-5.039900">
        <ele>675.0</ele>
        <time>2018-09-15T13:33:04Z</time>
      </trkpt>
      <trkpt lat="40.180300" lon="-5.039800">
        <ele>677.0</ele>
        <time>2018-09-15T13:33:05Z</time>
      </trkpt>
      <trkpt lat="40.180283" lon="-5.039700">
        <ele>679.0</ele>
        <time>2018-09-15T13:33:06Z</time>
      </trkpt>
      <trkpt lat="40.180250" lon="-5.039617">
        <ele>682.0</ele>
        <time>2018-09-15T13:33:07Z</time>
      </trkpt>
      <trkpt lat="40.180200" lon="-5.039550">
        <ele>684.0</ele>
        <time>2018-09-15T13:33:08Z</time>
      </trkpt>
      <trkpt lat="40.180150" lon="-5.039500">
        <ele>686.0</ele>
        <time>2018-09-15T13:33:09Z</time>
      </trkpt>
      <trkpt lat="40.180083" lon="-5.039467">
        <ele>689.0</ele>
        <time>2018-09-15T13:33:10Z</time>
      </trkpt>
      <trkpt lat="40.180033" lon="-5.039450">
        <ele>692.0</ele>
        <time>2018-09-15T13:33:11Z</time>
      </trkpt>
      <trkpt lat="40.179983" lon="-5.039417">
        <ele>696.0</ele>
        <time>2018-09-15T13:33:12Z</time>
      </trkpt>
      <trkpt lat="40.179933" lon="-5.039417">
        <ele>699.0</ele>
        <time>2018-09-15T13:33:13Z</time>
      </trkpt>
      <trkpt lat="40.179883" lon="-5.039417">
        <ele>701.0</ele>
        <time>2018-09-15T13:33:14Z</time>
      </trkpt>
      <trkpt lat="40.179833" lon="-5.039417">
        <ele>702.0</ele>
        <time>2018-09-15T13:33:15Z</time>
      </trkpt>
      <trkpt lat="40.179750" lon="-5.039433">
        <ele>703.0</ele>
        <time>2018-09-15T13:33:16Z</time>
      </trkpt>
      <trkpt lat="40.179683" lon="-5.039467">
        <ele>704.0</ele>
        <time>2018-09-15T13:33:17Z</time>
      </trkpt>
      <trkpt lat="40.179617" lon="-5.039500">
        <ele>707.0</ele>
        <time>2018-09-15T13:33:18Z</time>
      </trkpt>
      <trkpt lat="40.179583" lon="-5.039567">
        <ele>709.0</ele>
        <time>2018-09-15T13:33:19Z</time>
      </trkpt>
      <trkpt lat="40.179567" lon="-5.039650">
        <ele>710.0</ele>
        <time>2018-09-15T13:33:20Z</time>
      </trkpt>
      <trkpt lat="40.179567" lon="-5.039733">
        <ele>710.0</ele>
        <time>2018-09-15T13:33:21Z</time>
      </trkpt>
      <trkpt lat="40.179567" lon="-5.039850">
        <ele>710.0</ele>
        <time>2018-09-15T13:33:22Z</time>
      </trkpt>
      <trkpt lat="40.179550" lon="-5.039967">
        <ele>710.0</ele>
        <time>2018-09-15T13:33:23Z</time>
      </trkpt>
      <trkpt lat="40.179550" lon="-5.040083">
        <ele>710.0</ele>
        <time>2018-09-15T13:33:24Z</time>
      </trkpt>
      <trkpt lat="40.179550" lon="-5.040217">
        <ele>711.0</ele>
        <time>2018-09-15T13:33:25Z</time>
      </trkpt>
      <trkpt lat="40.179567" lon="-5.040350">
        <ele>713.0</ele>
        <time>2018-09-15T13:33:26Z</time>
      </trkpt>
      <trkpt lat="40.179600" lon="-5.040467">
        <ele>713.0</ele>
        <time>2018-09-15T13:33:27Z</time>
      </trkpt>
      <trkpt lat="40.179650" lon="-5.040600">
        <ele>713.0</ele>
        <time>2018-09-15T13:33:28Z</time>
      </trkpt>
      <trkpt lat="40.179683" lon="-5.040733">
        <ele>713.0</ele>
        <time>2018-09-15T13:33:29Z</time>
      </trkpt>
      <trkpt lat="40.179717" lon="-5.040883">
        <ele>712.0</ele>
        <time>2018-09-15T13:33:30Z</time>
      </trkpt>
      <trkpt lat="40.179733" lon="-5.041017">
        <ele>712.0</ele>
        <time>2018-09-15T13:33:31Z</time>
      </trkpt>
      <trkpt lat="40.179783" lon="-5.041167">
        <ele>712.0</ele>
        <time>2018-09-15T13:33:32Z</time>
      </trkpt>
      <trkpt lat="40.179867" lon="-5.041300">
        <ele>711.0</ele>
        <time>2018-09-15T13:33:33Z</time>
      </trkpt>
      <trkpt lat="40.179967" lon="-5.041417">
        <ele>710.0</ele>
        <time>2018-09-15T13:33:34Z</time>
      </trkpt>
      <trkpt lat="40.180067" lon="-5.041517">
        <ele>710.0</ele>
        <time>2018-09-15T13:33:35Z</time>
      </trkpt>
      <trkpt lat="40.180150" lon="-5.041633">
        <ele>712.0</ele>
        <time>2018-09-15T13:33:36Z</time>
      </trkpt>
      <trkpt lat="40.180233" lon="-5.041733">
        <ele>713.0</ele>
        <time>2018-09-15T13:33:37Z</time>
      </trkpt>
      <trkpt lat="40.180333" lon="-5.041817">
        <ele>713.0</ele>
        <time>2018-09-15T13:33:38Z</time>
      </trkpt>
      <trkpt lat="40.180433" lon="-5.041900">
        <ele>713.0</ele>
        <time>2018-09-15T13:33:39Z</time>
      </trkpt>
      <trkpt lat="40.180550" lon="-5.041967">
        <ele>713.0</ele>
        <time>2018-09-15T13:33:40Z</time>
      </trkpt>
      <trkpt lat="40.180667" lon="-5.042033">
        <ele>712.0</ele>
        <time>2018-09-15T13:33:41Z</time>
      </trkpt>
      <trkpt lat="40.180783" lon="-5.042100">
        <ele>712.0</ele>
        <time>2018-09-15T13:33:42Z</time>
      </trkpt>
      <trkpt lat="40.180917" lon="-5.042133">
        <ele>712.0</ele>
        <time>2018-09-15T13:33:43Z</time>
      </trkpt>
      <trkpt lat="40.181033" lon="-5.042167">
        <ele>712.0</ele>
        <time>2018-09-15T13:33:44Z</time>
      </trkpt>
      <trkpt lat="40.181167" lon="-5.042200">
        <ele>712.0</ele>
        <time>2018-09-15T13:33:45Z</time>
      </trkpt>
      <trkpt lat="40.181283" lon="-5.042250">
        <ele>711.0</ele>
        <time>2018-09-15T13:33:46Z</time>
      </trkpt>
      <trkpt lat="40.181400" lon="-5.042300">
        <ele>711.0</ele>
        <time>2018-09-15T13:33:47Z</time>
      </trkpt>
      <trkpt lat="40.181517" lon="-5.042383">
        <ele>710.0</ele>
        <time>2018-09-15T13:33:48Z</time>
      </trkpt>
      <trkpt lat="40.181617" lon="-5.042450">
        <ele>709.0</ele>
        <time>2018-09-15T13:33:49Z</time>
      </trkpt>
      <trkpt lat="40.181733" lon="-5.042533">
        <ele>708.0</ele>
        <time>2018-09-15T13:33:50Z</time>
      </trkpt>
      <trkpt lat="40.181833" lon="-5.042600">
        <ele>707.0</ele>
        <time>2018-09-15T13:33:51Z</time>
      </trkpt>
      <trkpt lat="40.181933" lon="-5.042700">
        <ele>706.0</ele>
        <time>2018-09-15T13:33:52Z</time>
      </trkpt>
      <trkpt lat="40.182033" lon="-5.042783">
        <ele>704.0</ele>
        <time>2018-09-15T13:33:53Z</time>
      </trkpt>
      <trkpt lat="40.182150" lon="-5.042883">
        <ele>703.0</ele>
        <time>2018-09-15T13:33:54Z</time>
      </trkpt>
      <trkpt lat="40.182267" lon="-5.042967">
        <ele>703.0</ele>
        <time>2018-09-15T13:33:55Z</time>
      </trkpt>
      <trkpt lat="40.182383" lon="-5.043033">
        <ele>703.0</ele>
        <time>2018-09-15T13:33:56Z</time>
      </trkpt>
      <trkpt lat="40.182500" lon="-5.043100">
        <ele>703.0</ele>
        <time>2018-09-15T13:33:57Z</time>
      </trkpt>
      <trkpt lat="40.182600" lon="-5.043183">
        <ele>705.0</ele>
        <time>2018-09-15T13:33:58Z</time>
      </trkpt>
      <trkpt lat="40.182717" lon="-5.043250">
        <ele>706.0</ele>
        <time>2018-09-15T13:33:59Z</time>
      </trkpt>
      <trkpt lat="40.182817" lon="-5.043317">
        <ele>706.0</ele>
        <time>2018-09-15T13:34:00Z</time>
      </trkpt>
      <trkpt lat="40.182933" lon="-5.043383">
        <ele>706.0</ele>
        <time>2018-09-15T13:34:01Z</time>
      </trkpt>
      <trkpt lat="40.183050" lon="-5.043433">
        <ele>706.0</ele>
        <time>2018-09-15T13:34:02Z</time>
      </trkpt>
      <trkpt lat="40.183167" lon="-5.043517">
        <ele>706.0</ele>
        <time>2018-09-15T13:34:03Z</time>
      </trkpt>
      <trkpt lat="40.183283" lon="-5.043583">
        <ele>707.0</ele>
        <time>2018-09-15T13:34:04Z</time>
      </trkpt>
      <trkpt lat="40.183383" lon="-5.043633">
        <ele>708.0</ele>
        <time>2018-09-15T13:34:05Z</time>
      </trkpt>
      <trkpt lat="40.183500" lon="-5.043667">
        <ele>707.0</ele>
        <time>2018-09-15T13:34:06Z</time>
      </trkpt>
      <trkpt lat="40.183617" lon="-5.043667">
        <ele>706.0</ele>
        <time>2018-09-15T13:34:07Z</time>
      </trkpt>
      <trkpt lat="40.183733" lon="-5.043667">
        <ele>705.0</ele>
        <time>2018-09-15T13:34:08Z</time>
      </trkpt>
      <trkpt lat="40.183850" lon="-5.043667">
        <ele>704.0</ele>
        <time>2018-09-15T13:34:09Z</time>
      </trkpt>
      <trkpt lat="40.183983" lon="-5.043650">
        <ele>703.0</ele>
        <time>2018-09-15T13:34:10Z</time>
      </trkpt>
      <trkpt lat="40.184083" lon="-5.043633">
        <ele>701.0</ele>
        <time>2018-09-15T13:34:11Z</time>
      </trkpt>
      <trkpt lat="40.184200" lon="-5.043583">
        <ele>699.0</ele>
        <time>2018-09-15T13:34:12Z</time>
      </trkpt>
      <trkpt lat="40.184283" lon="-5.043500">
        <ele>696.0</ele>
        <time>2018-09-15T13:34:13Z</time>
      </trkpt>
      <trkpt lat="40.184367" lon="-5.043417">
        <ele>693.0</ele>
        <time>2018-09-15T13:34:14Z</time>
      </trkpt>
      <trkpt lat="40.184433" lon="-5.043317">
        <ele>690.0</ele>
        <time>2018-09-15T13:34:15Z</time>
      </trkpt>
      <trkpt lat="40.184483" lon="-5.043233">
        <ele>688.0</ele>
        <time>2018-09-15T13:34:16Z</time>
      </trkpt>
      <trkpt lat="40.184533" lon="-5.043150">
        <ele>685.0</ele>
        <time>2018-09-15T13:34:17Z</time>
      </trkpt>
      <trkpt lat="40.184567" lon="-5.043067">
        <ele>682.0</ele>
        <time>2018-09-15T13:34:18Z</time>
      </trkpt>
      <trkpt lat="40.184600" lon="-5.042983">
        <ele>681.0</ele>
        <time>2018-09-15T13:34:19Z</time>
      </trkpt>
      <trkpt lat="40.184617" lon="-5.042900">
        <ele>681.0</ele>
        <time>2018-09-15T13:34:20Z</time>
      </trkpt>
      <trkpt lat="40.184667" lon="-5.042850">
        <ele>681.0</ele>
        <time>2018-09-15T13:34:21Z</time>
      </trkpt>
      <trkpt lat="40.184733" lon="-5.042783">
        <ele>679.0</ele>
        <time>2018-09-15T13:34:22Z</time>
      </trkpt>
      <trkpt lat="40.184833" lon="-5.042733">
        <ele>676.0</ele>
        <time>2018-09-15T13:34:23Z</time>
      </trkpt>
      <trkpt lat="40.184933" lon="-5.042700">
        <ele>674.0</ele>
        <time>2018-09-15T13:34:24Z</time>
      </trkpt>
      <trkpt lat="40.185050" lon="-5.042683">
        <ele>672.0</ele>
        <time>2018-09-15T13:34:25Z</time>
      </trkpt>
      <trkpt lat="40.185150" lon="-5.042700">
        <ele>669.0</ele>
        <time>2018-09-15T13:34:26Z</time>
      </trkpt>
      <trkpt lat="40.185250" lon="-5.042733">
        <ele>666.0</ele>
        <time>2018-09-15T13:34:27Z</time>
      </trkpt>
      <trkpt lat="40.185350" lon="-5.042800">
        <ele>661.0</ele>
        <time>2018-09-15T13:34:28Z</time>
      </trkpt>
      <trkpt lat="40.185450" lon="-5.042900">
        <ele>655.0</ele>
        <time>2018-09-15T13:34:29Z</time>
      </trkpt>
      <trkpt lat="40.185550" lon="-5.043033">
        <ele>650.0</ele>
        <time>2018-09-15T13:34:30Z</time>
      </trkpt>
      <trkpt lat="40.185650" lon="-5.043183">
        <ele>645.0</ele>
        <time>2018-09-15T13:34:31Z</time>
      </trkpt>
      <trkpt lat="40.185717" lon="-5.043333">
        <ele>643.0</ele>
        <time>2018-09-15T13:34:32Z</time>
      </trkpt>
      <trkpt lat="40.185783" lon="-5.043467">
        <ele>642.0</ele>
        <time>2018-09-15T13:34:33Z</time>
      </trkpt>
      <trkpt lat="40.185850" lon="-5.043600">
        <ele>641.0</ele>
        <time>2018-09-15T13:34:34Z</time>
      </trkpt>
      <trkpt lat="40.185883" lon="-5.043717">
        <ele>638.0</ele>
        <time>2018-09-15T13:34:35Z</time>
      </trkpt>
      <trkpt lat="40.185900" lon="-5.043833">
        <ele>635.0</ele>
        <time>2018-09-15T13:34:36Z</time>
      </trkpt>
      <trkpt lat="40.185883" lon="-5.043967">
        <ele>632.0</ele>
        <time>2018-09-15T13:34:37Z</time>
      </trkpt>
      <trkpt lat="40.185883" lon="-5.044117">
        <ele>630.0</ele>
        <time>2018-09-15T13:34:38Z</time>
      </trkpt>
      <trkpt lat="40.185867" lon="-5.044267">
        <ele>631.0</ele>
        <time>2018-09-15T13:34:39Z</time>
      </trkpt>
      <trkpt lat="40.185850" lon="-5.044417">
        <ele>632.0</ele>
        <time>2018-09-15T13:34:40Z</time>
      </trkpt>
      <trkpt lat="40.185800" lon="-5.044533">
        <ele>633.0</ele>
        <time>2018-09-15T13:34:41Z</time>
      </trkpt>
      <trkpt lat="40.185750" lon="-5.044633">
        <ele>634.0</ele>
        <time>2018-09-15T13:34:42Z</time>
      </trkpt>
      <trkpt lat="40.185683" lon="-5.044717">
        <ele>634.0</ele>
        <time>2018-09-15T13:34:43Z</time>
      </trkpt>
      <trkpt lat="40.185617" lon="-5.044783">
        <ele>635.0</ele>
        <time>2018-09-15T13:34:44Z</time>
      </trkpt>
      <trkpt lat="40.185550" lon="-5.044867">
        <ele>636.0</ele>
        <time>2018-09-15T13:34:45Z</time>
      </trkpt>
      <trkpt lat="40.185483" lon="-5.044950">
        <ele>637.0</ele>
        <time>2018-09-15T13:34:46Z</time>
      </trkpt>
      <trkpt lat="40.185417" lon="-5.045033">
        <ele>639.0</ele>
        <time>2018-09-15T13:34:47Z</time>
      </trkpt>
      <trkpt lat="40.185350" lon="-5.045100">
        <ele>641.0</ele>
        <time>2018-09-15T13:34:48Z</time>
      </trkpt>
      <trkpt lat="40.185300" lon="-5.045133">
        <ele>643.0</ele>
        <time>2018-09-15T13:34:49Z</time>
      </trkpt>
      <trkpt lat="40.185233" lon="-5.045167">
        <ele>643.0</ele>
        <time>2018-09-15T13:34:50Z</time>
      </trkpt>
      <trkpt lat="40.185167" lon="-5.045183">
        <ele>644.0</ele>
        <time>2018-09-15T13:34:51Z</time>
      </trkpt>
      <trkpt lat="40.185083" lon="-5.045233">
        <ele>644.0</ele>
        <time>2018-09-15T13:34:52Z</time>
      </trkpt>
      <trkpt lat="40.185000" lon="-5.045267">
        <ele>644.0</ele>
        <time>2018-09-15T13:34:53Z</time>
      </trkpt>
      <trkpt lat="40.184917" lon="-5.045317">
        <ele>645.0</ele>
        <time>2018-09-15T13:34:54Z</time>
      </trkpt>
      <trkpt lat="40.184850" lon="-5.045383">
        <ele>647.0</ele>
        <time>2018-09-15T13:34:55Z</time>
      </trkpt>
      <trkpt lat="40.184800" lon="-5.045433">
        <ele>648.0</ele>
        <time>2018-09-15T13:34:56Z</time>
      </trkpt>
      <trkpt lat="40.184750" lon="-5.045517">
        <ele>647.0</ele>
        <time>2018-09-15T13:34:57Z</time>
      </trkpt>
      <trkpt lat="40.184700" lon="-5.045600">
        <ele>645.0</ele>
        <time>2018-09-15T13:34:58Z</time>
      </trkpt>
      <trkpt lat="40.184650" lon="-5.045700">
        <ele>642.0</ele>
        <time>2018-09-15T13:34:59Z</time>
      </trkpt>
      <trkpt lat="40.184583" lon="-5.045833">
        <ele>640.0</ele>
        <time>2018-09-15T13:35:00Z</time>
      </trkpt>
      <trkpt lat="40.184517" lon="-5.045967">
        <ele>639.0</ele>
        <time>2018-09-15T13:35:01Z</time>
      </trkpt>
      <trkpt lat="40.184450" lon="-5.046083">
        <ele>640.0</ele>
        <time>2018-09-15T13:35:02Z</time>
      </trkpt>
      <trkpt lat="40.184400" lon="-5.046167">
        <ele>640.0</ele>
        <time>2018-09-15T13:35:03Z</time>
      </trkpt>
      <trkpt lat="40.184333" lon="-5.046250">
        <ele>641.0</ele>
        <time>2018-09-15T13:35:04Z</time>
      </trkpt>
      <trkpt lat="40.184300" lon="-5.046350">
        <ele>640.0</ele>
        <time>2018-09-15T13:35:05Z</time>
      </trkpt>
      <trkpt lat="40.184250" lon="-5.046467">
        <ele>640.0</ele>
        <time>2018-09-15T13:35:06Z</time>
      </trkpt>
      <trkpt lat="40.184200" lon="-5.046567">
        <ele>639.0</ele>
        <time>2018-09-15T13:35:07Z</time>
      </trkpt>
      <trkpt lat="40.184133" lon="-5.046650">
        <ele>639.0</ele>
        <time>2018-09-15T13:35:08Z</time>
      </trkpt>
      <trkpt lat="40.184067" lon="-5.046733">
        <ele>639.0</ele>
        <time>2018-09-15T13:35:09Z</time>
      </trkpt>
      <trkpt lat="40.184000" lon="-5.046800">
        <ele>639.0</ele>
        <time>2018-09-15T13:35:10Z</time>
      </trkpt>
      <trkpt lat="40.183933" lon="-5.046900">
        <ele>641.0</ele>
        <time>2018-09-15T13:35:11Z</time>
      </trkpt>
      <trkpt lat="40.183883" lon="-5.046983">
        <ele>641.0</ele>
        <time>2018-09-15T13:35:12Z</time>
      </trkpt>
      <trkpt lat="40.183833" lon="-5.047050">
        <ele>641.0</ele>
        <time>2018-09-15T13:35:13Z</time>
      </trkpt>
      <trkpt lat="40.183767" lon="-5.047133">
        <ele>639.0</ele>
        <time>2018-09-15T13:35:14Z</time>
      </trkpt>
      <trkpt lat="40.183700" lon="-5.047200">
        <ele>639.0</ele>
        <time>2018-09-15T13:35:15Z</time>
      </trkpt>
      <trkpt lat="40.183633" lon="-5.047267">
        <ele>639.0</ele>
        <time>2018-09-15T13:35:16Z</time>
      </trkpt>
      <trkpt lat="40.183600" lon="-5.047333">
        <ele>640.0</ele>
        <time>2018-09-15T13:35:17Z</time>
      </trkpt>
      <trkpt lat="40.183550" lon="-5.047367">
        <ele>639.0</ele>
        <time>2018-09-15T13:35:18Z</time>
      </trkpt>
      <trkpt lat="40.183500" lon="-5.047400">
        <ele>637.0</ele>
        <time>2018-09-15T13:35:19Z</time>
      </trkpt>
      <trkpt lat="40.183450" lon="-5.047400">
        <ele>634.0</ele>
        <time>2018-09-15T13:35:20Z</time>
      </trkpt>
      <trkpt lat="40.183383" lon="-5.047367">
        <ele>632.0</ele>
        <time>2018-09-15T13:35:21Z</time>
      </trkpt>
      <trkpt lat="40.183333" lon="-5.047317">
        <ele>629.0</ele>
        <time>2018-09-15T13:35:22Z</time>
      </trkpt>
      <trkpt lat="40.183300" lon="-5.047217">
        <ele>626.0</ele>
        <time>2018-09-15T13:35:23Z</time>
      </trkpt>
      <trkpt lat="40.183283" lon="-5.047083">
        <ele>625.0</ele>
        <time>2018-09-15T13:35:24Z</time>
      </trkpt>
      <trkpt lat="40.183283" lon="-5.046967">
        <ele>624.0</ele>
        <time>2018-09-15T13:35:25Z</time>
      </trkpt>
      <trkpt lat="40.183300" lon="-5.046867">
        <ele>625.0</ele>
        <time>2018-09-15T13:35:26Z</time>
      </trkpt>
      <trkpt lat="40.183333" lon="-5.046767">
        <ele>625.0</ele>
        <time>2018-09-15T13:35:27Z</time>
      </trkpt>
      <trkpt lat="40.183367" lon="-5.046700">
        <ele>625.0</ele>
        <time>2018-09-15T13:35:28Z</time>
      </trkpt>
      <trkpt lat="40.183400" lon="-5.046633">
        <ele>622.0</ele>
        <time>2018-09-15T13:35:29Z</time>
      </trkpt>
      <trkpt lat="40.183433" lon="-5.046550">
        <ele>619.0</ele>
        <time>2018-09-15T13:35:30Z</time>
      </trkpt>
      <trkpt lat="40.183467" lon="-5.046450">
        <ele>615.0</ele>
        <time>2018-09-15T13:35:31Z</time>
      </trkpt>
      <trkpt lat="40.183517" lon="-5.046333">
        <ele>612.0</ele>
        <time>2018-09-15T13:35:32Z</time>
      </trkpt>
      <trkpt lat="40.183600" lon="-5.046233">
        <ele>611.0</ele>
        <time>2018-09-15T13:35:33Z</time>
      </trkpt>
      <trkpt lat="40.183700" lon="-5.046150">
        <ele>611.0</ele>
        <time>2018-09-15T13:35:34Z</time>
      </trkpt>
      <trkpt lat="40.183783" lon="-5.046083">
        <ele>612.0</ele>
        <time>2018-09-15T13:35:35Z</time>
      </trkpt>
      <trkpt lat="40.183867" lon="-5.046017">
        <ele>613.0</ele>
        <time>2018-09-15T13:35:36Z</time>
      </trkpt>
      <trkpt lat="40.183950" lon="-5.045950">
        <ele>613.0</ele>
        <time>2018-09-15T13:35:37Z</time>
      </trkpt>
      <trkpt lat="40.184033" lon="-5.045883">
        <ele>613.0</ele>
        <time>2018-09-15T13:35:38Z</time>
      </trkpt>
      <trkpt lat="40.184117" lon="-5.045800">
        <ele>613.0</ele>
        <time>2018-09-15T13:35:39Z</time>
      </trkpt>
      <trkpt lat="40.184200" lon="-5.045717">
        <ele>614.0</ele>
        <time>2018-09-15T13:35:40Z</time>
      </trkpt>
      <trkpt lat="40.184267" lon="-5.045650">
        <ele>615.0</ele>
        <time>2018-09-15T13:35:41Z</time>
      </trkpt>
      <trkpt lat="40.184333" lon="-5.045567">
        <ele>616.0</ele>
        <time>2018-09-15T13:35:42Z</time>
      </trkpt>
      <trkpt lat="40.184383" lon="-5.045483">
        <ele>615.0</ele>
        <time>2018-09-15T13:35:43Z</time>
      </trkpt>
      <trkpt lat="40.184450" lon="-5.045367">
        <ele>613.0</ele>
        <time>2018-09-15T13:35:44Z</time>
      </trkpt>
      <trkpt lat="40.184517" lon="-5.045250">
        <ele>611.0</ele>
        <time>2018-09-15T13:35:45Z</time>
      </trkpt>
      <trkpt lat="40.184567" lon="-5.045133">
        <ele>612.0</ele>
        <time>2018-09-15T13:35:46Z</time>
      </trkpt>
      <trkpt lat="40.184617" lon="-5.045033">
        <ele>613.0</ele>
        <time>2018-09-15T13:35:47Z</time>
      </trkpt>
      <trkpt lat="40.184650" lon="-5.044917">
        <ele>613.0</ele>
        <time>2018-09-15T13:35:48Z</time>
      </trkpt>
      <trkpt lat="40.184683" lon="-5.044817">
        <ele>613.0</ele>
        <time>2018-09-15T13:35:49Z</time>
      </trkpt>
      <trkpt lat="40.184683" lon="-5.044717">
        <ele>610.0</ele>
        <time>2018-09-15T13:35:50Z</time>
      </trkpt>
      <trkpt lat="40.184700" lon="-5.044600">
        <ele>608.0</ele>
        <time>2018-09-15T13:35:51Z</time>
      </trkpt>
      <trkpt lat="40.184700" lon="-5.044500">
        <ele>606.0</ele>
        <time>2018-09-15T13:35:52Z</time>
      </trkpt>
      <trkpt lat="40.184700" lon="-5.044383">
        <ele>604.0</ele>
        <time>2018-09-15T13:35:53Z</time>
      </trkpt>
      <trkpt lat="40.184700" lon="-5.044283">
        <ele>603.0</ele>
        <time>2018-09-15T13:35:54Z</time>
      </trkpt>
      <trkpt lat="40.184683" lon="-5.044200">
        <ele>601.0</ele>
        <time>2018-09-15T13:35:55Z</time>
      </trkpt>
      <trkpt lat="40.184683" lon="-5.044100">
        <ele>598.0</ele>
        <time>2018-09-15T13:35:56Z</time>
      </trkpt>
      <trkpt lat="40.184683" lon="-5.044000">
        <ele>595.0</ele>
        <time>2018-09-15T13:35:57Z</time>
      </trkpt>
      <trkpt lat="40.184667" lon="-5.043900">
        <ele>593.0</ele>
        <time>2018-09-15T13:35:58Z</time>
      </trkpt>
      <trkpt lat="40.184667" lon="-5.043817">
        <ele>591.0</ele>
        <time>2018-09-15T13:35:59Z</time>
      </trkpt>
      <trkpt lat="40.184667" lon="-5.043717">
        <ele>588.0</ele>
        <time>2018-09-15T13:36:00Z</time>
      </trkpt>
      <trkpt lat="40.184683" lon="-5.043633">
        <ele>584.0</ele>
        <time>2018-09-15T13:36:01Z</time>
      </trkpt>
      <trkpt lat="40.184717" lon="-5.043567">
        <ele>580.0</ele>
        <time>2018-09-15T13:36:02Z</time>
      </trkpt>
      <trkpt lat="40.184733" lon="-5.043467">
        <ele>576.0</ele>
        <time>2018-09-15T13:36:03Z</time>
      </trkpt>
      <trkpt lat="40.184750" lon="-5.043367">
        <ele>571.0</ele>
        <time>2018-09-15T13:36:04Z</time>
      </trkpt>
      <trkpt lat="40.184783" lon="-5.043267">
        <ele>567.0</ele>
        <time>2018-09-15T13:36:05Z</time>
      </trkpt>
      <trkpt lat="40.184817" lon="-5.043167">
        <ele>564.0</ele>
        <time>2018-09-15T13:36:06Z</time>
      </trkpt>
      <trkpt lat="40.184833" lon="-5.043067">
        <ele>562.0</ele>
        <time>2018-09-15T13:36:07Z</time>
      </trkpt>
      <trkpt lat="40.184883" lon="-5.042967">
        <ele>559.0</ele>
        <time>2018-09-15T13:36:08Z</time>
      </trkpt>
      <trkpt lat="40.184917" lon="-5.042883">
        <ele>557.0</ele>
        <time>2018-09-15T13:36:09Z</time>
      </trkpt>
      <trkpt lat="40.184967" lon="-5.042800">
        <ele>554.0</ele>
        <time>2018-09-15T13:36:10Z</time>
      </trkpt>
      <trkpt lat="40.185000" lon="-5.042717">
        <ele>551.0</ele>
        <time>2018-09-15T13:36:11Z</time>
      </trkpt>
      <trkpt lat="40.185033" lon="-5.042617">
        <ele>548.0</ele>
        <time>2018-09-15T13:36:12Z</time>
      </trkpt>
      <trkpt lat="40.185067" lon="-5.042533">
        <ele>545.0</ele>
        <time>2018-09-15T13:36:13Z</time>
      </trkpt>
      <trkpt lat="40.185083" lon="-5.042433">
        <ele>541.0</ele>
        <time>2018-09-15T13:36:14Z</time>
      </trkpt>
      <trkpt lat="40.185100" lon="-5.042333">
        <ele>538.0</ele>
        <time>2018-09-15T13:36:15Z</time>
      </trkpt>
      <trkpt lat="40.185083" lon="-5.042233">
        <ele>535.0</ele>
        <time>2018-09-15T13:36:16Z</time>
      </trkpt>
      <trkpt lat="40.185050" lon="-5.042117">
        <ele>531.0</ele>
        <time>2018-09-15T13:36:17Z</time>
      </trkpt>
      <trkpt lat="40.185017" lon="-5.042033">
        <ele>529.0</ele>
        <time>2018-09-15T13:36:18Z</time>
      </trkpt>
      <trkpt lat="40.184950" lon="-5.041967">
        <ele>526.0</ele>
        <time>2018-09-15T13:36:19Z</time>
      </trkpt>
      <trkpt lat="40.184867" lon="-5.041933">
        <ele>523.0</ele>
        <time>2018-09-15T13:36:20Z</time>
      </trkpt>
      <trkpt lat="40.184767" lon="-5.041950">
        <ele>520.0</ele>
        <time>2018-09-15T13:36:21Z</time>
      </trkpt>
      <trkpt lat="40.184667" lon="-5.042017">
        <ele>516.0</ele>
        <time>2018-09-15T13:36:22Z</time>
      </trkpt>
      <trkpt lat="40.184567" lon="-5.042133">
        <ele>514.0</ele>
        <time>2018-09-15T13:36:23Z</time>
      </trkpt>
      <trkpt lat="40.184517" lon="-5.042283">
        <ele>512.0</ele>
        <time>2018-09-15T13:36:24Z</time>
      </trkpt>
      <trkpt lat="40.184483" lon="-5.042450">
        <ele>510.0</ele>
        <time>2018-09-15T13:36:25Z</time>
      </trkpt>
      <trkpt lat="40.184450" lon="-5.042600">
        <ele>508.0</ele>
        <time>2018-09-15T13:36:26Z</time>
      </trkpt>
      <trkpt lat="40.184400" lon="-5.042733">
        <ele>506.0</ele>
        <time>2018-09-15T13:36:27Z</time>
      </trkpt>
      <trkpt lat="40.184350" lon="-5.042833">
        <ele>506.0</ele>
        <time>2018-09-15T13:36:28Z</time>
      </trkpt>
      <trkpt lat="40.184283" lon="-5.042933">
        <ele>505.0</ele>
        <time>2018-09-15T13:36:29Z</time>
      </trkpt>
      <trkpt lat="40.184233" lon="-5.043033">
        <ele>504.0</ele>
        <time>2018-09-15T13:36:30Z</time>
      </trkpt>
      <trkpt lat="40.184183" lon="-5.043133">
        <ele>503.0</ele>
        <time>2018-09-15T13:36:31Z</time>
      </trkpt>
      <trkpt lat="40.184133" lon="-5.043233">
        <ele>501.0</ele>
        <time>2018-09-15T13:36:32Z</time>
      </trkpt>
      <trkpt lat="40.184083" lon="-5.043333">
        <ele>499.0</ele>
        <time>2018-09-15T13:36:33Z</time>
      </trkpt>
      <trkpt lat="40.184033" lon="-5.043433">
        <ele>497.0</ele>
        <time>2018-09-15T13:36:34Z</time>
      </trkpt>
      <trkpt lat="40.183967" lon="-5.043550">
        <ele>495.0</ele>
        <time>2018-09-15T13:36:35Z</time>
      </trkpt>
      <trkpt lat="40.183900" lon="-5.043667">
        <ele>493.0</ele>
        <time>2018-09-15T13:36:36Z</time>
      </trkpt>
      <trkpt lat="40.183850" lon="-5.043783">
        <ele>492.0</ele>
        <time>2018-09-15T13:36:37Z</time>
      </trkpt>
      <trkpt lat="40.183800" lon="-5.043900">
        <ele>490.0</ele>
        <time>2018-09-15T13:36:38Z</time>
      </trkpt>
      <trkpt lat="40.183750" lon="-5.044033">
        <ele>489.0</ele>
        <time>2018-09-15T13:36:39Z</time>
      </trkpt>
      <trkpt lat="40.183683" lon="-5.044150">
        <ele>486.0</ele>
        <time>2018-09-15T13:36:40Z</time>
      </trkpt>
      <trkpt lat="40.183600" lon="-5.044267">
        <ele>485.0</ele>
        <time>2018-09-15T13:36:41Z</time>
      </trkpt>
      <trkpt lat="40.183517" lon="-5.044383">
        <ele>485.0</ele>
        <time>2018-09-15T13:36:42Z</time>
      </trkpt>
      <trkpt lat="40.183450" lon="-5.044500">
        <ele>485.0</ele>
        <time>2018-09-15T13:36:43Z</time>
      </trkpt>
      <trkpt lat="40.183383" lon="-5.044600">
        <ele>485.0</ele>
        <time>2018-09-15T13:36:44Z</time>
      </trkpt>
      <trkpt lat="40.183300" lon="-5.044700">
        <ele>485.0</ele>
        <time>2018-09-15T13:36:45Z</time>
      </trkpt>
      <trkpt lat="40.183217" lon="-5.044783">
        <ele>485.0</ele>
        <time>2018-09-15T13:36:46Z</time>
      </trkpt>
      <trkpt lat="40.183150" lon="-5.044867">
        <ele>484.0</ele>
        <time>2018-09-15T13:36:47Z</time>
      </trkpt>
      <trkpt lat="40.183067" lon="-5.044950">
        <ele>483.0</ele>
        <time>2018-09-15T13:36:48Z</time>
      </trkpt>
      <trkpt lat="40.182983" lon="-5.045050">
        <ele>483.0</ele>
        <time>2018-09-15T13:36:49Z</time>
      </trkpt>
      <trkpt lat="40.182900" lon="-5.045133">
        <ele>483.0</ele>
        <time>2018-09-15T13:36:50Z</time>
      </trkpt>
      <trkpt lat="40.182817" lon="-5.045200">
        <ele>483.0</ele>
        <time>2018-09-15T13:36:51Z</time>
      </trkpt>
      <trkpt lat="40.182750" lon="-5.045267">
        <ele>484.0</ele>
        <time>2018-09-15T13:36:52Z</time>
      </trkpt>
      <trkpt lat="40.182667" lon="-5.045317">
        <ele>484.0</ele>
        <time>2018-09-15T13:36:53Z</time>
      </trkpt>
      <trkpt lat="40.182600" lon="-5.045383">
        <ele>484.0</ele>
        <time>2018-09-15T13:36:54Z</time>
      </trkpt>
      <trkpt lat="40.182533" lon="-5.045450">
        <ele>485.0</ele>
        <time>2018-09-15T13:36:55Z</time>
      </trkpt>
      <trkpt lat="40.182450" lon="-5.045483">
        <ele>486.0</ele>
        <time>2018-09-15T13:36:56Z</time>
      </trkpt>
      <trkpt lat="40.182383" lon="-5.045483">
        <ele>487.0</ele>
        <time>2018-09-15T13:36:57Z</time>
      </trkpt>
      <trkpt lat="40.182333" lon="-5.045467">
        <ele>487.0</ele>
        <time>2018-09-15T13:36:58Z</time>
      </trkpt>
      <trkpt lat="40.182283" lon="-5.045417">
        <ele>487.0</ele>
        <time>2018-09-15T13:36:59Z</time>
      </trkpt>
      <trkpt lat="40.182250" lon="-5.045350">
        <ele>486.0</ele>
        <time>2018-09-15T13:37:00Z</time>
      </trkpt>
      <trkpt lat="40.182217" lon="-5.045250">
        <ele>485.0</ele>
        <time>2018-09-15T13:37:01Z</time>
      </trkpt>
      <trkpt lat="40.182217" lon="-5.045150">
        <ele>483.0</ele>
        <time>2018-09-15T13:37:02Z</time>
      </trkpt>
      <trkpt lat="40.182250" lon="-5.045033">
        <ele>482.0</ele>
        <time>2018-09-15T13:37:03Z</time>
      </trkpt>
      <trkpt lat="40.182300" lon="-5.044917">
        <ele>482.0</ele>
        <time>2018-09-15T13:37:04Z</time>
      </trkpt>
      <trkpt lat="40.182383" lon="-5.044833">
        <ele>482.0</ele>
        <time>2018-09-15T13:37:05Z</time>
      </trkpt>
      <trkpt lat="40.182467" lon="-5.044767">
        <ele>483.0</ele>
        <time>2018-09-15T13:37:06Z</time>
      </trkpt>
      <trkpt lat="40.182550" lon="-5.044717">
        <ele>483.0</ele>
        <time>2018-09-15T13:37:07Z</time>
      </trkpt>
      <trkpt lat="40.182633" lon="-5.044667">
        <ele>483.0</ele>
        <time>2018-09-15T13:37:08Z</time>
      </trkpt>
      <trkpt lat="40.182733" lon="-5.044600">
        <ele>482.0</ele>
        <time>2018-09-15T13:37:09Z</time>
      </trkpt>
      <trkpt lat="40.182833" lon="-5.044550">
        <ele>482.0</ele>
        <time>2018-09-15T13:37:10Z</time>
      </trkpt>
      <trkpt lat="40.182917" lon="-5.044483">
        <ele>482.0</ele>
        <time>2018-09-15T13:37:11Z</time>
      </trkpt>
      <trkpt lat="40.183017" lon="-5.044450">
        <ele>484.0</ele>
        <time>2018-09-15T13:37:12Z</time>
      </trkpt>
      <trkpt lat="40.183100" lon="-5.044417">
        <ele>486.0</ele>
        <time>2018-09-15T13:37:13Z</time>
      </trkpt>
      <trkpt lat="40.183167" lon="-5.044350">
        <ele>488.0</ele>
        <time>2018-09-15T13:37:14Z</time>
      </trkpt>
      <trkpt lat="40.183217" lon="-5.044300">
        <ele>489.0</ele>
        <time>2018-09-15T13:37:15Z</time>
      </trkpt>
      <trkpt lat="40.183283" lon="-5.044250">
        <ele>490.0</ele>
        <time>2018-09-15T13:37:16Z</time>
      </trkpt>
      <trkpt lat="40.183333" lon="-5.044183">
        <ele>492.0</ele>
        <time>2018-09-15T13:37:17Z</time>
      </trkpt>
      <trkpt lat="40.183400" lon="-5.044133">
        <ele>492.0</ele>
        <time>2018-09-15T13:37:18Z</time>
      </trkpt>
      <trkpt lat="40.183467" lon="-5.044067">
        <ele>493.0</ele>
        <time>2018-09-15T13:37:19Z</time>
      </trkpt>
      <trkpt lat="40.183500" lon="-5.043983">
        <ele>494.0</ele>
        <time>2018-09-15T13:37:20Z</time>
      </trkpt>
      <trkpt lat="40.183500" lon="-5.043900">
        <ele>495.0</ele>
        <time>2018-09-15T13:37:21Z</time>
      </trkpt>
      <trkpt lat="40.183467" lon="-5.043817">
        <ele>496.0</ele>
        <time>2018-09-15T13:37:22Z</time>
      </trkpt>
      <trkpt lat="40.183400" lon="-5.043783">
        <ele>496.0</ele>
        <time>2018-09-15T13:37:23Z</time>
      </trkpt>
      <trkpt lat="40.183300" lon="-5.043783">
        <ele>497.0</ele>
        <time>2018-09-15T13:37:24Z</time>
      </trkpt>
      <trkpt lat="40.183217" lon="-5.043817">
        <ele>499.0</ele>
        <time>2018-09-15T13:37:25Z</time>
      </trkpt>
      <trkpt lat="40.183150" lon="-5.043850">
        <ele>501.0</ele>
        <time>2018-09-15T13:37:26Z</time>
      </trkpt>
      <trkpt lat="40.183067" lon="-5.043900">
        <ele>503.0</ele>
        <time>2018-09-15T13:37:27Z</time>
      </trkpt>
      <trkpt lat="40.183000" lon="-5.043950">
        <ele>504.0</ele>
        <time>2018-09-15T13:37:28Z</time>
      </trkpt>
      <trkpt lat="40.182917" lon="-5.044017">
        <ele>506.0</ele>
        <time>2018-09-15T13:37:29Z</time>
      </trkpt>
      <trkpt lat="40.182850" lon="-5.044067">
        <ele>508.0</ele>
        <time>2018-09-15T13:37:30Z</time>
      </trkpt>
      <trkpt lat="40.182800" lon="-5.044150">
        <ele>508.0</ele>
        <time>2018-09-15T13:37:31Z</time>
      </trkpt>
      <trkpt lat="40.182733" lon="-5.044233">
        <ele>508.0</ele>
        <time>2018-09-15T13:37:32Z</time>
      </trkpt>
      <trkpt lat="40.182683" lon="-5.044333">
        <ele>507.0</ele>
        <time>2018-09-15T13:37:33Z</time>
      </trkpt>
      <trkpt lat="40.182617" lon="-5.044450">
        <ele>506.0</ele>
        <time>2018-09-15T13:37:34Z</time>
      </trkpt>
      <trkpt lat="40.182550" lon="-5.044550">
        <ele>507.0</ele>
        <time>2018-09-15T13:37:35Z</time>
      </trkpt>
      <trkpt lat="40.182483" lon="-5.044650">
        <ele>508.0</ele>
        <time>2018-09-15T13:37:36Z</time>
      </trkpt>
      <trkpt lat="40.182433" lon="-5.044733">
        <ele>509.0</ele>
        <time>2018-09-15T13:37:37Z</time>
      </trkpt>
      <trkpt lat="40.182383" lon="-5.044800">
        <ele>509.0</ele>
        <time>2018-09-15T13:37:38Z</time>
      </trkpt>
      <trkpt lat="40.182333" lon="-5.044867">
        <ele>508.0</ele>
        <time>2018-09-15T13:37:39Z</time>
      </trkpt>
      <trkpt lat="40.182283" lon="-5.044950">
        <ele>505.0</ele>
        <time>2018-09-15T13:37:40Z</time>
      </trkpt>
      <trkpt lat="40.182233" lon="-5.045017">
        <ele>502.0</ele>
        <time>2018-09-15T13:37:41Z</time>
      </trkpt>
      <trkpt lat="40.182150" lon="-5.045083">
        <ele>500.0</ele>
        <time>2018-09-15T13:37:42Z</time>
      </trkpt>
      <trkpt lat="40.182067" lon="-5.045133">
        <ele>498.0</ele>
        <time>2018-09-15T13:37:43Z</time>
      </trkpt>
      <trkpt lat="40.182000" lon="-5.045183">
        <ele>497.0</ele>
        <time>2018-09-15T13:37:44Z</time>
      </trkpt>
      <trkpt lat="40.181933" lon="-5.045217">
        <ele>497.0</ele>
        <time>2018-09-15T13:37:45Z</time>
      </trkpt>
      <trkpt lat="40.181867" lon="-5.045267">
        <ele>496.0</ele>
        <time>2018-09-15T13:37:46Z</time>
      </trkpt>
      <trkpt lat="40.181800" lon="-5.045317">
        <ele>495.0</ele>
        <time>2018-09-15T13:37:47Z</time>
      </trkpt>
      <trkpt lat="40.181733" lon="-5.045383">
        <ele>494.0</ele>
        <time>2018-09-15T13:37:48Z</time>
      </trkpt>
      <trkpt lat="40.181667" lon="-5.045417">
        <ele>492.0</ele>
        <time>2018-09-15T13:37:49Z</time>
      </trkpt>
      <trkpt lat="40.181583" lon="-5.045450">
        <ele>491.0</ele>
        <time>2018-09-15T13:37:50Z</time>
      </trkpt>
      <trkpt lat="40.181500" lon="-5.045433">
        <ele>492.0</ele>
        <time>2018-09-15T13:37:51Z</time>
      </trkpt>
      <trkpt lat="40.181450" lon="-5.045400">
        <ele>494.0</ele>
        <time>2018-09-15T13:37:52Z</time>
      </trkpt>
      <trkpt lat="40.181400" lon="-5.045333">
        <ele>495.0</ele>
        <time>2018-09-15T13:37:53Z</time>
      </trkpt>
      <trkpt lat="40.181367" lon="-5.045250">
        <ele>495.0</ele>
        <time>2018-09-15T13:37:54Z</time>
      </trkpt>
      <trkpt lat="40.181367" lon="-5.045150">
        <ele>495.0</ele>
        <time>2018-09-15T13:37:55Z</time>
      </trkpt>
      <trkpt lat="40.181367" lon="-5.045050">
        <ele>496.0</ele>
        <time>2018-09-15T13:37:56Z</time>
      </trkpt>
      <trkpt lat="40.181383" lon="-5.044950">
        <ele>497.0</ele>
        <time>2018-09-15T13:37:57Z</time>
      </trkpt>
      <trkpt lat="40.181417" lon="-5.044867">
        <ele>497.0</ele>
        <time>2018-09-15T13:37:58Z</time>
      </trkpt>
      <trkpt lat="40.181483" lon="-5.044783">
        <ele>496.0</ele>
        <time>2018-09-15T13:37:59Z</time>
      </trkpt>
      <trkpt lat="40.181583" lon="-5.044700">
        <ele>493.0</ele>
        <time>2018-09-15T13:38:00Z</time>
      </trkpt>
      <trkpt lat="40.181683" lon="-5.044617">
        <ele>491.0</ele>
        <time>2018-09-15T13:38:01Z</time>
      </trkpt>
      <trkpt lat="40.181800" lon="-5.044550">
        <ele>490.0</ele>
        <time>2018-09-15T13:38:02Z</time>
      </trkpt>
      <trkpt lat="40.181917" lon="-5.044483">
        <ele>490.0</ele>
        <time>2018-09-15T13:38:03Z</time>
      </trkpt>
      <trkpt lat="40.182033" lon="-5.044417">
        <ele>491.0</ele>
        <time>2018-09-15T13:38:04Z</time>
      </trkpt>
      <trkpt lat="40.182133" lon="-5.044383">
        <ele>491.0</ele>
        <time>2018-09-15T13:38:05Z</time>
      </trkpt>
      <trkpt lat="40.182250" lon="-5.044367">
        <ele>491.0</ele>
        <time>2018-09-15T13:38:06Z</time>
      </trkpt>
      <trkpt lat="40.182367" lon="-5.044350">
        <ele>489.0</ele>
        <time>2018-09-15T13:38:07Z</time>
      </trkpt>
      <trkpt lat="40.182483" lon="-5.044300">
        <ele>487.0</ele>
        <time>2018-09-15T13:38:08Z</time>
      </trkpt>
      <trkpt lat="40.182617" lon="-5.044250">
        <ele>486.0</ele>
        <time>2018-09-15T13:38:09Z</time>
      </trkpt>
      <trkpt lat="40.182750" lon="-5.044183">
        <ele>487.0</ele>
        <time>2018-09-15T13:38:10Z</time>
      </trkpt>
      <trkpt lat="40.182883" lon="-5.044150">
        <ele>489.0</ele>
        <time>2018-09-15T13:38:11Z</time>
      </trkpt>
      <trkpt lat="40.182983" lon="-5.044117">
        <ele>490.0</ele>
        <time>2018-09-15T13:38:12Z</time>
      </trkpt>
      <trkpt lat="40.183083" lon="-5.044083">
        <ele>491.0</ele>
        <time>2018-09-15T13:38:13Z</time>
      </trkpt>
      <trkpt lat="40.183167" lon="-5.044033">
        <ele>489.0</ele>
        <time>2018-09-15T13:38:14Z</time>
      </trkpt>
      <trkpt lat="40.183267" lon="-5.043933">
        <ele>487.0</ele>
        <time>2018-09-15T13:38:15Z</time>
      </trkpt>
      <trkpt lat="40.183350" lon="-5.043817">
        <ele>485.0</ele>
        <time>2018-09-15T13:38:16Z</time>
      </trkpt>
      <trkpt lat="40.183417" lon="-5.043683">
        <ele>486.0</ele>
        <time>2018-09-15T13:38:17Z</time>
      </trkpt>
      <trkpt lat="40.183467" lon="-5.043567">
        <ele>486.0</ele>
        <time>2018-09-15T13:38:18Z</time>
      </trkpt>
      <trkpt lat="40.183533" lon="-5.043450">
        <ele>485.0</ele>
        <time>2018-09-15T13:38:19Z</time>
      </trkpt>
      <trkpt lat="40.183600" lon="-5.043333">
        <ele>484.0</ele>
        <time>2018-09-15T13:38:20Z</time>
      </trkpt>
      <trkpt lat="40.183633" lon="-5.043217">
        <ele>483.0</ele>
        <time>2018-09-15T13:38:21Z</time>
      </trkpt>
      <trkpt lat="40.183650" lon="-5.043083">
        <ele>483.0</ele>
        <time>2018-09-15T13:38:22Z</time>
      </trkpt>
      <trkpt lat="40.183667" lon="-5.042950">
        <ele>484.0</ele>
        <time>2018-09-15T13:38:23Z</time>
      </trkpt>
      <trkpt lat="40.183667" lon="-5.042817">
        <ele>486.0</ele>
        <time>2018-09-15T13:38:24Z</time>
      </trkpt>
      <trkpt lat="40.183700" lon="-5.042717">
        <ele>489.0</ele>
        <time>2018-09-15T13:38:25Z</time>
      </trkpt>
      <trkpt lat="40.183750" lon="-5.042650">
        <ele>491.0</ele>
        <time>2018-09-15T13:38:26Z</time>
      </trkpt>
      <trkpt lat="40.183817" lon="-5.042617">
        <ele>491.0</ele>
        <time>2018-09-15T13:38:27Z</time>
      </trkpt>
      <trkpt lat="40.183883" lon="-5.042583">
        <ele>491.0</ele>
        <time>2018-09-15T13:38:28Z</time>
      </trkpt>
      <trkpt lat="40.183950" lon="-5.042533">
        <ele>489.0</ele>
        <time>2018-09-15T13:38:29Z</time>
      </trkpt>
      <trkpt lat="40.184000" lon="-5.042467">
        <ele>486.0</ele>
        <time>2018-09-15T13:38:30Z</time>
      </trkpt>
      <trkpt lat="40.184067" lon="-5.042367">
        <ele>484.0</ele>
        <time>2018-09-15T13:38:31Z</time>
      </trkpt>
      <trkpt lat="40.184117" lon="-5.042267">
        <ele>483.0</ele>
        <time>2018-09-15T13:38:32Z</time>
      </trkpt>
      <trkpt lat="40.184150" lon="-5.042183">
        <ele>483.0</ele>
        <time>2018-09-15T13:38:33Z</time>
      </trkpt>
      <trkpt lat="40.184167" lon="-5.042100">
        <ele>484.0</ele>
        <time>2018-09-15T13:38:34Z</time>
      </trkpt>
      <trkpt lat="40.184167" lon="-5.042000">
        <ele>483.0</ele>
        <time>2018-09-15T13:38:35Z</time>
      </trkpt>
      <trkpt lat="40.184150" lon="-5.041900">
        <ele>483.0</ele>
        <time>2018-09-15T13:38:36Z</time>
      </trkpt>
      <trkpt lat="40.184133" lon="-5.041800">
        <ele>483.0</ele>
        <time>2018-09-15T13:38:37Z</time>
      </trkpt>
      <trkpt lat="40.184133" lon="-5.041700">
        <ele>483.0</ele>
        <time>2018-09-15T13:38:38Z</time>
      </trkpt>
      <trkpt lat="40.184133" lon="-5.041600">
        <ele>484.0</ele>
        <time>2018-09-15T13:38:39Z</time>
      </trkpt>
      <trkpt lat="40.184117" lon="-5.041517">
        <ele>484.0</ele>
        <time>2018-09-15T13:38:40Z</time>
      </trkpt>
      <trkpt lat="40.184083" lon="-5.041433">
        <ele>482.0</ele>
        <time>2018-09-15T13:38:41Z</time>
      </trkpt>
      <trkpt lat="40.184017" lon="-5.041350">
        <ele>481.0</ele>
        <time>2018-09-15T13:38:42Z</time>
      </trkpt>
      <trkpt lat="40.183983" lon="-5.041250">
        <ele>481.0</ele>
        <time>2018-09-15T13:38:43Z</time>
      </trkpt>
      <trkpt lat="40.183950" lon="-5.041167">
        <ele>482.0</ele>
        <time>2018-09-15T13:38:44Z</time>
      </trkpt>
      <trkpt lat="40.183933" lon="-5.041100">
        <ele>482.0</ele>
        <time>2018-09-15T13:38:45Z</time>
      </trkpt>
      <trkpt lat="40.183883" lon="-5.041050">
        <ele>480.0</ele>
        <time>2018-09-15T13:38:46Z</time>
      </trkpt>
      <trkpt lat="40.183833" lon="-5.041017">
        <ele>477.0</ele>
        <time>2018-09-15T13:38:47Z</time>
      </trkpt>
      <trkpt lat="40.183767" lon="-5.040983">
        <ele>474.0</ele>
        <time>2018-09-15T13:38:48Z</time>
      </trkpt>
      <trkpt lat="40.183700" lon="-5.040917">
        <ele>471.0</ele>
        <time>2018-09-15T13:38:49Z</time>
      </trkpt>
      <trkpt lat="40.183633" lon="-5.040833">
        <ele>468.0</ele>
        <time>2018-09-15T13:38:50Z</time>
      </trkpt>
      <trkpt lat="40.183583" lon="-5.040767">
        <ele>467.0</ele>
        <time>2018-09-15T13:38:51Z</time>
      </trkpt>
      <trkpt lat="40.183517" lon="-5.040700">
        <ele>465.0</ele>
        <time>2018-09-15T13:38:52Z</time>
      </trkpt>
      <trkpt lat="40.183450" lon="-5.040650">
        <ele>463.0</ele>
        <time>2018-09-15T13:38:53Z</time>
      </trkpt>
      <trkpt lat="40.183367" lon="-5.040600">
        <ele>461.0</ele>
        <time>2018-09-15T13:38:54Z</time>
      </trkpt>
      <trkpt lat="40.183300" lon="-5.040550">
        <ele>460.0</ele>
        <time>2018-09-15T13:38:55Z</time>
      </trkpt>
      <trkpt lat="40.183233" lon="-5.040533">
        <ele>461.0</ele>
        <time>2018-09-15T13:38:56Z</time>
      </trkpt>
      <trkpt lat="40.183167" lon="-5.040533">
        <ele>461.0</ele>
        <time>2018-09-15T13:38:57Z</time>
      </trkpt>
      <trkpt lat="40.183100" lon="-5.040600">
        <ele>459.0</ele>
        <time>2018-09-15T13:38:58Z</time>
      </trkpt>
      <trkpt lat="40.183050" lon="-5.040733">
        <ele>457.0</ele>
        <time>2018-09-15T13:38:59Z</time>
      </trkpt>
      <trkpt lat="40.183050" lon="-5.040883">
        <ele>456.0</ele>
        <time>2018-09-15T13:39:00Z</time>
      </trkpt>
      <trkpt lat="40.183100" lon="-5.041050">
        <ele>456.0</ele>
        <time>2018-09-15T13:39:01Z</time>
      </trkpt>
      <trkpt lat="40.183150" lon="-5.041167">
        <ele>458.0</ele>
        <time>2018-09-15T13:39:02Z</time>
      </trkpt>
      <trkpt lat="40.183217" lon="-5.041267">
        <ele>460.0</ele>
        <time>2018-09-15T13:39:03Z</time>
      </trkpt>
      <trkpt lat="40.183250" lon="-5.041367">
        <ele>461.0</ele>
        <time>2018-09-15T13:39:04Z</time>
      </trkpt>
      <trkpt lat="40.183283" lon="-5.041483">
        <ele>460.0</ele>
        <time>2018-09-15T13:39:05Z</time>
      </trkpt>
      <trkpt lat="40.183300" lon="-5.041600">
        <ele>458.0</ele>
        <time>2018-09-15T13:39:06Z</time>
      </trkpt>
      <trkpt lat="40.183317" lon="-5.041733">
        <ele>456.0</ele>
        <time>2018-09-15T13:39:07Z</time>
      </trkpt>
      <trkpt lat="40.183333" lon="-5.041883">
        <ele>455.0</ele>
        <time>2018-09-15T13:39:08Z</time>
      </trkpt>
      <trkpt lat="40.183350" lon="-5.042017">
        <ele>455.0</ele>
        <time>2018-09-15T13:39:09Z</time>
      </trkpt>
      <trkpt lat="40.183350" lon="-5.042150">
        <ele>455.0</ele>
        <time>2018-09-15T13:39:10Z</time>
      </trkpt>
      <trkpt lat="40.183333" lon="-5.042283">
        <ele>455.0</ele>
        <time>2018-09-15T13:39:11Z</time>
      </trkpt>
      <trkpt lat="40.183317" lon="-5.042417">
        <ele>455.0</ele>
        <time>2018-09-15T13:39:12Z</time>
      </trkpt>
      <trkpt lat="40.183300" lon="-5.042533">
        <ele>456.0</ele>
        <time>2018-09-15T13:39:13Z</time>
      </trkpt>
      <trkpt lat="40.183283" lon="-5.042650">
        <ele>458.0</ele>
        <time>2018-09-15T13:39:14Z</time>
      </trkpt>
      <trkpt lat="40.183283" lon="-5.042750">
        <ele>459.0</ele>
        <time>2018-09-15T13:39:15Z</time>
      </trkpt>
      <trkpt lat="40.183283" lon="-5.042867">
        <ele>460.0</ele>
        <time>2018-09-15T13:39:16Z</time>
      </trkpt>
      <trkpt lat="40.183267" lon="-5.042967">
        <ele>460.0</ele>
        <time>2018-09-15T13:39:17Z</time>
      </trkpt>
      <trkpt lat="40.183233" lon="-5.043083">
        <ele>458.0</ele>
        <time>2018-09-15T13:39:18Z</time>
      </trkpt>
      <trkpt lat="40.183183" lon="-5.043200">
        <ele>458.0</ele>
        <time>2018-09-15T13:39:19Z</time>
      </trkpt>
      <trkpt lat="40.183133" lon="-5.043300">
        <ele>459.0</ele>
        <time>2018-09-15T13:39:20Z</time>
      </trkpt>
      <trkpt lat="40.183083" lon="-5.043383">
        <ele>461.0</ele>
        <time>2018-09-15T13:39:21Z</time>
      </trkpt>
      <trkpt lat="40.183033" lon="-5.043467">
        <ele>462.0</ele>
        <time>2018-09-15T13:39:22Z</time>
      </trkpt>
      <trkpt lat="40.183000" lon="-5.043533">
        <ele>463.0</ele>
        <time>2018-09-15T13:39:23Z</time>
      </trkpt>
      <trkpt lat="40.182983" lon="-5.043583">
        <ele>462.0</ele>
        <time>2018-09-15T13:39:24Z</time>
      </trkpt>
      <trkpt lat="40.182967" lon="-5.043650">
        <ele>461.0</ele>
        <time>2018-09-15T13:39:25Z</time>
      </trkpt>
      <trkpt lat="40.182933" lon="-5.043717">
        <ele>458.0</ele>
        <time>2018-09-15T13:39:26Z</time>
      </trkpt>
      <trkpt lat="40.182883" lon="-5.043800">
        <ele>456.0</ele>
        <time>2018-09-15T13:39:27Z</time>
      </trkpt>
      <trkpt lat="40.182833" lon="-5.043883">
        <ele>453.0</ele>
        <time>2018-09-15T13:39:28Z</time>
      </trkpt>
      <trkpt lat="40.182783" lon="-5.043967">
        <ele>451.0</ele>
        <time>2018-09-15T13:39:29Z</time>
      </trkpt>
      <trkpt lat="40.182733" lon="-5.044050">
        <ele>450.0</ele>
        <time>2018-09-15T13:39:30Z</time>
      </trkpt>
      <trkpt lat="40.182683" lon="-5.044117">
        <ele>449.0</ele>
        <time>2018-09-15T13:39:31Z</time>
      </trkpt>
      <trkpt lat="40.182633" lon="-5.044150">
        <ele>448.0</ele>
        <time>2018-09-15T13:39:32Z</time>
      </trkpt>
      <trkpt lat="40.182583" lon="-5.044183">
        <ele>447.0</ele>
        <time>2018-09-15T13:39:33Z</time>
      </trkpt>
      <trkpt lat="40.182533" lon="-5.044183">
        <ele>445.0</ele>
        <time>2018-09-15T13:39:34Z</time>
      </trkpt>
      <trkpt lat="40.182450" lon="-5.044183">
        <ele>443.0</ele>
        <time>2018-09-15T13:39:35Z</time>
      </trkpt>
      <trkpt lat="40.182383" lon="-5.044183">
        <ele>443.0</ele>
        <time>2018-09-15T13:39:36Z</time>
      </trkpt>
      <trkpt lat="40.182317" lon="-5.044167">
        <ele>444.0</ele>
        <time>2018-09-15T13:39:37Z</time>
      </trkpt>
      <trkpt lat="40.182267" lon="-5.044167">
        <ele>445.0</ele>
        <time>2018-09-15T13:39:38Z</time>
      </trkpt>
      <trkpt lat="40.182217" lon="-5.044167">
        <ele>445.0</ele>
        <time>2018-09-15T13:39:39Z</time>
      </trkpt>
      <trkpt lat="40.182167" lon="-5.044133">
        <ele>444.0</ele>
        <time>2018-09-15T13:39:40Z</time>
      </trkpt>
      <trkpt lat="40.182133" lon="-5.044050">
        <ele>442.0</ele>
        <time>2018-09-15T13:39:41Z</time>
      </trkpt>
      <trkpt lat="40.182117" lon="-5.043950">
        <ele>440.0</ele>
        <time>2018-09-15T13:39:42Z</time>
      </trkpt>
      <trkpt lat="40.182133" lon="-5.043800">
        <ele>438.0</ele>
        <time>2018-09-15T13:39:43Z</time>
      </trkpt>
      <trkpt lat="40.182200" lon="-5.043683">
        <ele>438.0</ele>
        <time>2018-09-15T13:39:44Z</time>
      </trkpt>
      <trkpt lat="40.182300" lon="-5.043617">
        <ele>439.0</ele>
        <time>2018-09-15T13:39:45Z</time>
      </trkpt>
      <trkpt lat="40.182383" lon="-5.043567">
        <ele>440.0</ele>
        <time>2018-09-15T13:39:46Z</time>
      </trkpt>
      <trkpt lat="40.182450" lon="-5.043517">
        <ele>441.0</ele>
        <time>2018-09-15T13:39:47Z</time>
      </trkpt>
      <trkpt lat="40.182500" lon="-5.043467">
        <ele>440.0</ele>
        <time>2018-09-15T13:39:48Z</time>
      </trkpt>
      <trkpt lat="40.182533" lon="-5.043383">
        <ele>438.0</ele>
        <time>2018-09-15T13:39:49Z</time>
      </trkpt>
      <trkpt lat="40.182583" lon="-5.043283">
        <ele>435.0</ele>
        <time>2018-09-15T13:39:50Z</time>
      </trkpt>
      <trkpt lat="40.182617" lon="-5.043183">
        <ele>434.0</ele>
        <time>2018-09-15T13:39:51Z</time>
      </trkpt>
      <trkpt lat="40.182667" lon="-5.043083">
        <ele>433.0</ele>
        <time>2018-09-15T13:39:52Z</time>
      </trkpt>
      <trkpt lat="40.182700" lon="-5.043000">
        <ele>433.0</ele>
        <time>2018-09-15T13:39:53Z</time>
      </trkpt>
      <trkpt lat="40.182700" lon="-5.042917">
        <ele>431.0</ele>
        <time>2018-09-15T13:39:54Z</time>
      </trkpt>
      <trkpt lat="40.182683" lon="-5.042850">
        <ele>429.0</ele>
        <time>2018-09-15T13:39:55Z</time>
      </trkpt>
      <trkpt lat="40.182633" lon="-5.042800">
        <ele>426.0</ele>
        <time>2018-09-15T13:39:56Z</time>
      </trkpt>
      <trkpt lat="40.182567" lon="-5.042783">
        <ele>424.0</ele>
        <time>2018-09-15T13:39:57Z</time>
      </trkpt>
      <trkpt lat="40.182517" lon="-5.042767">
        <ele>423.0</ele>
        <time>2018-09-15T13:39:58Z</time>
      </trkpt>
      <trkpt lat="40.182450" lon="-5.042750">
        <ele>421.0</ele>
        <time>2018-09-15T13:39:59Z</time>
      </trkpt>
      <trkpt lat="40.182400" lon="-5.042733">
        <ele>419.0</ele>
        <time>2018-09-15T13:40:00Z</time>
      </trkpt>
      <trkpt lat="40.182350" lon="-5.042717">
        <ele>416.0</ele>
        <time>2018-09-15T13:40:01Z</time>
      </trkpt>
      <trkpt lat="40.182283" lon="-5.042700">
        <ele>413.0</ele>
        <time>2018-09-15T13:40:02Z</time>
      </trkpt>
      <trkpt lat="40.182200" lon="-5.042700">
        <ele>411.0</ele>
        <time>2018-09-15T13:40:03Z</time>
      </trkpt>
      <trkpt lat="40.182133" lon="-5.042683">
        <ele>410.0</ele>
        <time>2018-09-15T13:40:04Z</time>
      </trkpt>
      <trkpt lat="40.182067" lon="-5.042667">
        <ele>409.0</ele>
        <time>2018-09-15T13:40:05Z</time>
      </trkpt>
      <trkpt lat="40.182017" lon="-5.042633">
        <ele>409.0</ele>
        <time>2018-09-15T13:40:06Z</time>
      </trkpt>
      <trkpt lat="40.181950" lon="-5.042617">
        <ele>407.0</ele>
        <time>2018-09-15T13:40:07Z</time>
      </trkpt>
      <trkpt lat="40.181917" lon="-5.042583">
        <ele>406.0</ele>
        <time>2018-09-15T13:40:08Z</time>
      </trkpt>
      <trkpt lat="40.181900" lon="-5.042567">
        <ele>405.0</ele>
        <time>2018-09-15T13:40:09Z</time>
      </trkpt>
      <trkpt lat="40.181883" lon="-5.042583">
        <ele>405.0</ele>
        <time>2018-09-15T13:40:10Z</time>
      </trkpt>
      <trkpt lat="40.181867" lon="-5.042583">
        <ele>406.0</ele>
        <time>2018-09-15T13:40:11Z</time>
      </trkpt>
      <trkpt lat="40.181850" lon="-5.042567">
        <ele>405.0</ele>
        <time>2018-09-15T13:40:12Z</time>
      </trkpt>
      <trkpt lat="40.181833" lon="-5.042550">
        <ele>405.0</ele>
        <time>2018-09-15T13:40:13Z</time>
      </trkpt>
      <trkpt lat="40.181817" lon="-5.042550">
        <ele>405.0</ele>
        <time>2018-09-15T13:40:14Z</time>
      </trkpt>
      <trkpt lat="40.181800" lon="-5.042550">
        <ele>405.0</ele>
        <time>2018-09-15T13:40:15Z</time>
      </trkpt>
      <trkpt lat="40.181783" lon="-5.042533">
        <ele>405.0</ele>
        <time>2018-09-15T13:40:16Z</time>
      </trkpt>
      <trkpt lat="40.181767" lon="-5.042533">
        <ele>405.0</ele>
        <time>2018-09-15T13:40:17Z</time>
      </trkpt>
      <trkpt lat="40.181750" lon="-5.042533">
        <ele>405.0</ele>
        <time>2018-09-15T13:40:18Z</time>
      </trkpt>
      <trkpt lat="40.181733" lon="-5.042517">
        <ele>405.0</ele>
        <time>2018-09-15T13:40:19Z</time>
      </trkpt>
      <trkpt lat="40.181717" lon="-5.042517">
        <ele>405.0</ele>
        <time>2018-09-15T13:40:20Z</time>
      </trkpt>
      <trkpt lat="40.181700" lon="-5.042500">
        <ele>405.0</ele>
        <time>2018-09-15T13:40:21Z</time>
      </trkpt>
      <trkpt lat="40.181700" lon="-5.042483">
        <ele>405.0</ele>
        <time>2018-09-15T13:40:22Z</time>
      </trkpt>
      <trkpt lat="40.181683" lon="-5.042483">
        <ele>405.0</ele>
        <time>2018-09-15T13:40:23Z</time>
      </trkpt>
      <trkpt lat="40.181667" lon="-5.042467">
        <ele>405.0</ele>
        <time>2018-09-15T13:40:24Z</time>
      </trkpt>
      <trkpt lat="40.181650" lon="-5.042450">
        <ele>405.0</ele>
        <time>2018-09-15T13:40:25Z</time>
      </trkpt>
      <trkpt lat="40.181633" lon="-5.042433">
        <ele>405.0</ele>
        <time>2018-09-15T13:40:26Z</time>
      </trkpt>
      <trkpt lat="40.181617" lon="-5.042417">
        <ele>405.0</ele>
        <time>2018-09-15T13:40:27Z</time>
      </trkpt>
      <trkpt lat="40.181600" lon="-5.042400">
        <ele>405.0</ele>
        <time>2018-09-15T13:40:28Z</time>
      </trkpt>
      <trkpt lat="40.181583" lon="-5.042383">
        <ele>404.0</ele>
        <time>2018-09-15T13:40:29Z</time>
      </trkpt>
      <trkpt lat="40.181567" lon="-5.042367">
        <ele>405.0</ele>
        <time>2018-09-15T13:40:30Z</time>
      </trkpt>
      <trkpt lat="40.181550" lon="-5.042350">
        <ele>405.0</ele>
        <time>2018-09-15T13:40:31Z</time>
      </trkpt>
      <trkpt lat="40.181533" lon="-5.042333">
        <ele>404.0</ele>
        <time>2018-09-15T13:40:32Z</time>
      </trkpt>
      <trkpt lat="40.181500" lon="-5.042317">
        <ele>404.0</ele>
        <time>2018-09-15T13:40:33Z</time>
      </trkpt>
      <trkpt lat="40.181483" lon="-5.042300">
        <ele>404.0</ele>
        <time>2018-09-15T13:40:34Z</time>
      </trkpt>
      <trkpt lat="40.181467" lon="-5.042283">
        <ele>404.0</ele>
        <time>2018-09-15T13:40:35Z</time>
      </trkpt>
      <trkpt lat="40.181433" lon="-5.042267">
        <ele>404.0</ele>
        <time>2018-09-15T13:40:36Z</time>
      </trkpt>
      <trkpt lat="40.181417" lon="-5.042250">
        <ele>404.0</ele>
        <time>2018-09-15T13:40:37Z</time>
      </trkpt>
      <trkpt lat="40.181400" lon="-5.042250">
        <ele>404.0</ele>
        <time>2018-09-15T13:40:38Z</time>
      </trkpt>
      <trkpt lat="40.181383" lon="-5.042233">
        <ele>404.0</ele>
        <time>2018-09-15T13:40:39Z</time>
      </trkpt>
      <trkpt lat="40.181383" lon="-5.042217">
        <ele>403.0</ele>
        <time>2018-09-15T13:40:40Z</time>
      </trkpt>
      <trkpt lat="40.181367" lon="-5.042217">
        <ele>403.0</ele>
        <time>2018-09-15T13:40:41Z</time>
      </trkpt>
      <trkpt lat="40.181350" lon="-5.042200">
        <ele>403.0</ele>
        <time>2018-09-15T13:40:42Z</time>
      </trkpt>
      <trkpt lat="40.181333" lon="-5.042200">
        <ele>404.0</ele>
        <time>2018-09-15T13:40:43Z</time>
      </trkpt>
      <trkpt lat="40.181317" lon="-5.042183">
        <ele>404.0</ele>
        <time>2018-09-15T13:40:44Z</time>
      </trkpt>
      <trkpt lat="40.181300" lon="-5.042167">
        <ele>404.0</ele>
        <time>2018-09-15T13:40:45Z</time>
      </trkpt>
      <trkpt lat="40.181283" lon="-5.042150">
        <ele>404.0</ele>
        <time>2018-09-15T13:40:46Z</time>
      </trkpt>
      <trkpt lat="40.181267" lon="-5.042167">
        <ele>403.0</ele>
        <time>2018-09-15T13:40:47Z</time>
      </trkpt>
      <trkpt lat="40.181250" lon="-5.042150">
        <ele>403.0</ele>
        <time>2018-09-15T13:40:48Z</time>
      </trkpt>
      <trkpt lat="40.181250" lon="-5.042150">
        <ele>403.0</ele>
        <time>2018-09-15T13:40:49Z</time>
      </trkpt>
      <trkpt lat="40.181267" lon="-5.042133">
        <ele>403.0</ele>
        <time>2018-09-15T13:40:50Z</time>
      </trkpt>
      <trkpt lat="40.181250" lon="-5.042133">
        <ele>403.0</ele>
        <time>2018-09-15T13:40:51Z</time>
      </trkpt>
      <trkpt lat="40.181250" lon="-5.042133">
        <ele>402.0</ele>
        <time>2018-09-15T13:40:52Z</time>
      </trkpt>
      <trkpt lat="40.181250" lon="-5.042150">
        <ele>402.0</ele>
        <time>2018-09-15T13:40:53Z</time>
      </trkpt>
      <trkpt lat="40.181250" lon="-5.042150">
        <ele>401.0</ele>
        <time>2018-09-15T13:40:54Z</time>
      </trkpt>
      <trkpt lat="40.181250" lon="-5.042150">
        <ele>401.0</ele>
        <time>2018-09-15T13:40:55Z</time>
      </trkpt>
      <trkpt lat="40.181250" lon="-5.042150">
        <ele>401.0</ele>
        <time>2018-09-15T13:40:56Z</time>
      </trkpt>
      <trkpt lat="40.181250" lon="-5.042150">
        <ele>401.0</ele>
        <time>2018-09-15T13:40:57Z</time>
      </trkpt>
      <trkpt lat="40.181250" lon="-5.042150">
        <ele>401.0</ele>
        <time>2018-09-15T13:40:58Z</time>
      </trkpt>
      <trkpt lat="40.181250" lon="-5.042150">
        <ele>402.0</ele>
        <time>2018-09-15T13:40:59Z</time>
      </trkpt>
      <trkpt lat="40.181250" lon="-5.042150">
        <ele>402.0</ele>
        <time>2018-09-15T13:41:00Z</time>
      </trkpt>
      <trkpt lat="40.181250" lon="-5.042150">
        <ele>402.0</ele>
        <time>2018-09-15T13:41:01Z</time>
      </trkpt>
      <trkpt lat="40.181250" lon="-5.042150">
        <ele>402.0</ele>
        <time>2018-09-15T13:41:02Z</time>
      </trkpt>
      <trkpt lat="40.181250" lon="-5.042150">
        <ele>402.0</ele>
        <time>2018-09-15T13:41:03Z</time>
      </trkpt>
      <trkpt lat="40.181250" lon="-5.042150">
        <ele>402.0</ele>
        <time>2018-09-15T13:41:04Z</time>
      </trkpt>
      <trkpt lat="40.181250" lon="-5.042150">
        <ele>402.0</ele>
        <time>2018-09-15T13:41:05Z</time>
      </trkpt>
      <trkpt lat="40.181250" lon="-5.042150">
        <ele>402.0</ele>
        <time>2018-09-15T13:41:06Z</time>
      </trkpt>
      <trkpt lat="40.181250" lon="-5.042150">
        <ele>402.0</ele>
        <time>2018-09-15T13:41:07Z</time>
      </trkpt>
      <trkpt lat="40.181250" lon="-5.042150">
        <ele>402.0</ele>
        <time>2018-09-15T13:41:08Z</time>
      </trkpt>
      <trkpt lat="40.181250" lon="-5.042150">
        <ele>402.0</ele>
        <time>2018-09-15T13:41:09Z</time>
      </trkpt>
      <trkpt lat="40.181250" lon="-5.042150">
        <ele>402.0</ele>
        <time>2018-09-15T13:41:10Z</time>
      </trkpt>
      <trkpt lat="40.181250" lon="-5.042150">
        <ele>402.0</ele>
        <time>2018-09-15T13:41:11Z</time>
      </trkpt>
      <trkpt lat="40.181250" lon="-5.042150">
        <ele>402.0</ele>
        <time>2018-09-15T13:41:12Z</time>
      </trkpt>
      <trkpt lat="40.181250" lon="-5.042150">
        <ele>402.0</ele>
        <time>2018-09-15T13:41:13Z</time>
      </trkpt>
      <trkpt lat="40.181250" lon="-5.042150">
        <ele>402.0</ele>
        <time>2018-09-15T13:41:14Z</time>
      </trkpt>
      <trkpt lat="40.181250" lon="-5.042150">
        <ele>402.0</ele>
        <time>2018-09-15T13:41:15Z</time>
      </trkpt>
      <trkpt lat="40.181250" lon="-5.042150">
        <ele>402.0</ele>
        <time>2018-09-15T13:41:16Z</time>
      </trkpt>
      <trkpt lat="40.181250" lon="-5.042150">
        <ele>402.0</ele>
        <time>2018-09-15T13:41:17Z</time>
      </trkpt>
      <trkpt lat="40.181250" lon="-5.042150">
        <ele>402.0</ele>
        <time>2018-09-15T13:41:18Z</time>
      </trkpt>
      <trkpt lat="40.181250" lon="-5.042150">
        <ele>402.0</ele>
        <time>2018-09-15T13:41:19Z</time>
      </trkpt>
      <trkpt lat="40.181250" lon="-5.042150">
        <ele>402.0</ele>
        <time>2018-09-15T13:41:20Z</time>
      </trkpt>
      <trkpt lat="40.181250" lon="-5.042150">
        <ele>402.0</ele>
        <time>2018-09-15T13:41:21Z</time>
      </trkpt>
      <trkpt lat="40.181267" lon="-5.042150">
        <ele>402.0</ele>
        <time>2018-09-15T13:41:22Z</time>
      </trkpt>
      <trkpt lat="40.181267" lon="-5.042150">
        <ele>402.0</ele>
        <time>2018-09-15T13:41:23Z</time>
      </trkpt>
      <trkpt lat="40.181267" lon="-5.042150">
        <ele>402.0</ele>
        <time>2018-09-15T13:41:24Z</time>
      </trkpt>
      <trkpt lat="40.181267" lon="-5.042150">
        <ele>402.0</ele>
        <time>2018-09-15T13:41:25Z</time>
      </trkpt>
      <trkpt lat="40.181267" lon="-5.042150">
        <ele>402.0</ele>
        <time>2018-09-15T13:41:26Z</time>
      </trkpt>
      <trkpt lat="40.181267" lon="-5.042133">
        <ele>402.0</ele>
        <time>2018-09-15T13:41:27Z</time>
      </trkpt>
      <trkpt lat="40.181267" lon="-5.042133">
        <ele>402.0</ele>
        <time>2018-09-15T13:41:28Z</time>
      </trkpt>
      <trkpt lat="40.181267" lon="-5.042133">
        <ele>402.0</ele>
        <time>2018-09-15T13:41:29Z</time>
      </trkpt>
      <trkpt lat="40.181267" lon="-5.042117">
        <ele>402.0</ele>
        <time>2018-09-15T13:41:30Z</time>
      </trkpt>
      <trkpt lat="40.181267" lon="-5.042117">
        <ele>403.0</ele>
        <time>2018-09-15T13:41:31Z</time>
      </trkpt>
      <trkpt lat="40.181267" lon="-5.042117">
        <ele>403.0</ele>
        <time>2018-09-15T13:41:32Z</time>
      </trkpt>
      <trkpt lat="40.181267" lon="-5.042117">
        <ele>403.0</ele>
        <time>2018-09-15T13:41:33Z</time>
      </trkpt>
      <trkpt lat="40.181267" lon="-5.042117">
        <ele>403.0</ele>
        <time>2018-09-15T13:41:34Z</time>
      </trkpt>
      <trkpt lat="40.181267" lon="-5.042117">
        <ele>404.0</ele>
        <time>2018-09-15T13:41:35Z</time>
      </trkpt>
      <trkpt lat="40.181267" lon="-5.042117">
        <ele>404.0</ele>
        <time>2018-09-15T13:41:36Z</time>
      </trkpt>
      <trkpt lat="40.181267" lon="-5.042117">
        <ele>404.0</ele>
        <time>2018-09-15T13:41:37Z</time>
      </trkpt>
      <trkpt lat="40.181267" lon="-5.042117">
        <ele>404.0</ele>
        <time>2018-09-15T13:41:38Z</time>
      </trkpt>
      <trkpt lat="40.181267" lon="-5.042117">
        <ele>404.0</ele>
        <time>2018-09-15T13:41:39Z</time>
      </trkpt>
      <trkpt lat="40.181267" lon="-5.042117">
        <ele>404.0</ele>
        <time>2018-09-15T13:41:40Z</time>
      </trkpt>
      <trkpt lat="40.181267" lon="-5.042117">
        <ele>404.0</ele>
        <time>2018-09-15T13:41:41Z</time>
      </trkpt>
      <trkpt lat="40.181267" lon="-5.042117">
        <ele>404.0</ele>
        <time>2018-09-15T13:41:42Z</time>
      </trkpt>
      <trkpt lat="40.181267" lon="-5.042117">
        <ele>404.0</ele>
        <time>2018-09-15T13:41:43Z</time>
      </trkpt>
      <trkpt lat="40.181267" lon="-5.042117">
        <ele>404.0</ele>
        <time>2018-09-15T13:41:44Z</time>
      </trkpt>
      <trkpt lat="40.181267" lon="-5.042133">
        <ele>404.0</ele>
        <time>2018-09-15T13:41:45Z</time>
      </trkpt>
      <trkpt lat="40.181267" lon="-5.042133">
        <ele>405.0</ele>
        <time>2018-09-15T13:41:46Z</time>
      </trkpt>
      <trkpt lat="40.181267" lon="-5.042133">
        <ele>405.0</ele>
        <time>2018-09-15T13:41:47Z</time>
      </trkpt>
      <trkpt lat="40.181267" lon="-5.042133">
        <ele>405.0</ele>
        <time>2018-09-15T13:41:48Z</time>
      </trkpt>
      <trkpt lat="40.181267" lon="-5.042133">
        <ele>405.0</ele>
        <time>2018-09-15T13:41:49Z</time>
      </trkpt>
      <trkpt lat="40.181267" lon="-5.042133">
        <ele>405.0</ele>
        <time>2018-09-15T13:41:50Z</time>
      </trkpt>
      <trkpt lat="40.181267" lon="-5.042133">
        <ele>405.0</ele>
        <time>2018-09-15T13:41:51Z</time>
      </trkpt>
      <trkpt lat="40.181267" lon="-5.042133">
        <ele>405.0</ele>
        <time>2018-09-15T13:41:52Z</time>
      </trkpt>
      <trkpt lat="40.181267" lon="-5.042133">
        <ele>405.0</ele>
        <time>2018-09-15T13:41:53Z</time>
      </trkpt>
      <trkpt lat="40.181267" lon="-5.042133">
        <ele>405.0</ele>
        <time>2018-09-15T13:41:54Z</time>
      </trkpt>
      <trkpt lat="40.181267" lon="-5.042133">
        <ele>405.0</ele>
        <time>2018-09-15T13:41:55Z</time>
      </trkpt>
      <trkpt lat="40.181267" lon="-5.042133">
        <ele>405.0</ele>
        <time>2018-09-15T13:41:56Z</time>
      </trkpt>
      <trkpt lat="40.181267" lon="-5.042133">
        <ele>405.0</ele>
        <time>2018-09-15T13:41:57Z</time>
      </trkpt>
      <trkpt lat="40.181267" lon="-5.042133">
        <ele>405.0</ele>
        <time>2018-09-15T13:41:58Z</time>
      </trkpt>
      <trkpt lat="40.181267" lon="-5.042133">
        <ele>405.0</ele>
        <time>2018-09-15T13:41:59Z</time>
      </trkpt>
      <trkpt lat="40.181267" lon="-5.042133">
        <ele>405.0</ele>
        <time>2018-09-15T13:42:00Z</time>
      </trkpt>
      <trkpt lat="40.181267" lon="-5.042133">
        <ele>405.0</ele>
        <time>2018-09-15T13:42:01Z</time>
      </trkpt>
      <trkpt lat="40.181267" lon="-5.042133">
        <ele>405.0</ele>
        <time>2018-09-15T13:42:02Z</time>
      </trkpt>
      <trkpt lat="40.181267" lon="-5.042133">
        <ele>405.0</ele>
        <time>2018-09-15T13:42:03Z</time>
      </trkpt>
      <trkpt lat="40.181267" lon="-5.042133">
        <ele>405.0</ele>
        <time>2018-09-15T13:42:04Z</time>
      </trkpt>
      <trkpt lat="40.181267" lon="-5.042133">
        <ele>405.0</ele>
        <time>2018-09-15T13:42:05Z</time>
      </trkpt>
      <trkpt lat="40.181267" lon="-5.042133">
        <ele>405.0</ele>
        <time>2018-09-15T13:42:06Z</time>
      </trkpt>
      <trkpt lat="40.181267" lon="-5.042133">
        <ele>405.0</ele>
        <time>2018-09-15T13:42:07Z</time>
      </trkpt>
      <trkpt lat="40.181267" lon="-5.042133">
        <ele>405.0</ele>
        <time>2018-09-15T13:42:08Z</time>
      </trkpt>
      <trkpt lat="40.181267" lon="-5.042133">
        <ele>405.0</ele>
        <time>2018-09-15T13:42:09Z</time>
      </trkpt>
      <trkpt lat="40.181267" lon="-5.042133">
        <ele>405.0</ele>
        <time>2018-09-15T13:42:10Z</time>
      </trkpt>
      <trkpt lat="40.181267" lon="-5.042133">
        <ele>405.0</ele>
        <time>2018-09-15T13:42:11Z</time>
      </trkpt>
      <trkpt lat="40.181267" lon="-5.042133">
        <ele>405.0</ele>
        <time>2018-09-15T13:42:12Z</time>
      </trkpt>
      <trkpt lat="40.181267" lon="-5.042133">
        <ele>405.0</ele>
        <time>2018-09-15T13:42:13Z</time>
      </trkpt>
      <trkpt lat="40.181267" lon="-5.042133">
        <ele>405.0</ele>
        <time>2018-09-15T13:42:14Z</time>
      </trkpt>
      <trkpt lat="40.181267" lon="-5.042133">
        <ele>405.0</ele>
        <time>2018-09-15T13:42:15Z</time>
      </trkpt>
      <trkpt lat="40.181267" lon="-5.042133">
        <ele>405.0</ele>
        <time>2018-09-15T13:42:16Z</time>
      </trkpt>
      <trkpt lat="40.181267" lon="-5.042133">
        <ele>405.0</ele>
        <time>2018-09-15T13:42:17Z</time>
      </trkpt>
      <trkpt lat="40.181267" lon="-5.042133">
        <ele>405.0</ele>
        <time>2018-09-15T13:42:18Z</time>
      </trkpt>
      <trkpt lat="40.181267" lon="-5.042133">
        <ele>405.0</ele>
        <time>2018-09-15T13:42:19Z</time>
      </trkpt>
      <trkpt lat="40.181267" lon="-5.042133">
        <ele>405.0</ele>
        <time>2018-09-15T13:42:20Z</time>
      </trkpt>
      <trkpt lat="40.181267" lon="-5.042133">
        <ele>405.0</ele>
        <time>2018-09-15T13:42:21Z</time>
      </trkpt>
      <trkpt lat="40.181267" lon="-5.042133">
        <ele>405.0</ele>
        <time>2018-09-15T13:42:22Z</time>
      </trkpt>
      <trkpt lat="40.181267" lon="-5.042133">
        <ele>405.0</ele>
        <time>2018-09-15T13:42:23Z</time>
      </trkpt>
      <trkpt lat="40.181267" lon="-5.042133">
        <ele>405.0</ele>
        <time>2018-09-15T13:42:24Z</time>
      </trkpt>
      <trkpt lat="40.181267" lon="-5.042133">
        <ele>405.0</ele>
        <time>2018-09-15T13:42:25Z</time>
      </trkpt>
      <trkpt lat="40.181267" lon="-5.042133">
        <ele>405.0</ele>
        <time>2018-09-15T13:42:26Z</time>
      </trkpt>
      <trkpt lat="40.181267" lon="-5.042133">
        <ele>405.0</ele>
        <time>2018-09-15T13:42:27Z</time>
      </trkpt>
      <trkpt lat="40.181267" lon="-5.042133">
        <ele>405.0</ele>
        <time>2018-09-15T13:42:28Z</time>
      </trkpt>
      <trkpt lat="40.181267" lon="-5.042133">
        <ele>405.0</ele>
        <time>2018-09-15T13:42:29Z</time>
      </trkpt>
      <trkpt lat="40.181283" lon="-5.042133">
        <ele>405.0</ele>
        <time>2018-09-15T13:42:30Z</time>
      </trkpt>
      <trkpt lat="40.181283" lon="-5.042133">
        <ele>405.0</ele>
        <time>2018-09-15T13:42:31Z</time>
      </trkpt>
      <trkpt lat="40.181283" lon="-5.042133">
        <ele>405.0</ele>
        <time>2018-09-15T13:42:32Z</time>
      </trkpt>
      <trkpt lat="40.181283" lon="-5.042133">
        <ele>405.0</ele>
        <time>2018-09-15T13:42:33Z</time>
      </trkpt>
      <trkpt lat="40.181283" lon="-5.042133">
        <ele>406.0</ele>
        <time>2018-09-15T13:42:34Z</time>
      </trkpt>
      <trkpt lat="40.181283" lon="-5.042133">
        <ele>406.0</ele>
        <time>2018-09-15T13:42:35Z</time>
      </trkpt>
      <trkpt lat="40.181283" lon="-5.042133">
        <ele>406.0</ele>
        <time>2018-09-15T13:42:36Z</time>
      </trkpt>
      <trkpt lat="40.181283" lon="-5.042133">
        <ele>406.0</ele>
        <time>2018-09-15T13:42:37Z</time>
      </trkpt>
      <trkpt lat="40.181283" lon="-5.042133">
        <ele>406.0</ele>
        <time>2018-09-15T13:42:38Z</time>
      </trkpt>
      <trkpt lat="40.181283" lon="-5.042133">
        <ele>406.0</ele>
        <time>2018-09-15T13:42:39Z</time>
      </trkpt>
      <trkpt lat="40.181283" lon="-5.042133">
        <ele>406.0</ele>
        <time>2018-09-15T13:42:40Z</time>
      </trkpt>
      <trkpt lat="40.181283" lon="-5.042133">
        <ele>406.0</ele>
        <time>2018-09-15T13:42:41Z</time>
      </trkpt>
      <trkpt lat="40.181283" lon="-5.042133">
        <ele>406.0</ele>
        <time>2018-09-15T13:42:42Z</time>
      </trkpt>
      <trkpt lat="40.181283" lon="-5.042133">
        <ele>406.0</ele>
        <time>2018-09-15T13:42:43Z</time>
      </trkpt>
      <trkpt lat="40.181283" lon="-5.042133">
        <ele>406.0</ele>
        <time>2018-09-15T13:42:44Z</time>
      </trkpt>
      <trkpt lat="40.181283" lon="-5.042133">
        <ele>406.0</ele>
        <time>2018-09-15T13:42:45Z</time>
      </trkpt>
      <trkpt lat="40.181283" lon="-5.042133">
        <ele>406.0</ele>
        <time>2018-09-15T13:42:46Z</time>
      </trkpt>
      <trkpt lat="40.181283" lon="-5.042133">
        <ele>406.0</ele>
        <time>2018-09-15T13:42:47Z</time>
      </trkpt>
      <trkpt lat="40.181283" lon="-5.042133">
        <ele>406.0</ele>
        <time>2018-09-15T13:42:48Z</time>
      </trkpt>
      <trkpt lat="40.181283" lon="-5.042133">
        <ele>406.0</ele>
        <time>2018-09-15T13:42:49Z</time>
      </trkpt>
      <trkpt lat="40.181283" lon="-5.042133">
        <ele>407.0</ele>
        <time>2018-09-15T13:42:50Z</time>
      </trkpt>
      <trkpt lat="40.181283" lon="-5.042133">
        <ele>407.0</ele>
        <time>2018-09-15T13:42:51Z</time>
      </trkpt>
      <trkpt lat="40.181283" lon="-5.042133">
        <ele>407.0</ele>
        <time>2018-09-15T13:42:52Z</time>
      </trkpt>
      <trkpt lat="40.181283" lon="-5.042133">
        <ele>407.0</ele>
        <time>2018-09-15T13:42:53Z</time>
      </trkpt>
      <trkpt lat="40.181283" lon="-5.042133">
        <ele>407.0</ele>
        <time>2018-09-15T13:42:54Z</time>
      </trkpt>
      <trkpt lat="40.181283" lon="-5.042133">
        <ele>407.0</ele>
        <time>2018-09-15T13:42:55Z</time>
      </trkpt>
      <trkpt lat="40.181283" lon="-5.042133">
        <ele>407.0</ele>
        <time>2018-09-15T13:42:56Z</time>
      </trkpt>
      <trkpt lat="40.181283" lon="-5.042133">
        <ele>407.0</ele>
        <time>2018-09-15T13:42:57Z</time>
      </trkpt>
      <trkpt lat="40.181283" lon="-5.042133">
        <ele>407.0</ele>
        <time>2018-09-15T13:42:58Z</time>
      </trkpt>
      <trkpt lat="40.181283" lon="-5.042133">
        <ele>407.0</ele>
        <time>2018-09-15T13:42:59Z</time>
      </trkpt>
      <trkpt lat="40.181283" lon="-5.042133">
        <ele>407.0</ele>
        <time>2018-09-15T13:43:00Z</time>
      </trkpt>
      <trkpt lat="40.181283" lon="-5.042133">
        <ele>407.0</ele>
        <time>2018-09-15T13:43:01Z</time>
      </trkpt>
      <trkpt lat="40.181283" lon="-5.042133">
        <ele>407.0</ele>
        <time>2018-09-15T13:43:02Z</time>
      </trkpt>
      <trkpt lat="40.181283" lon="-5.042133">
        <ele>408.0</ele>
        <time>2018-09-15T13:43:03Z</time>
      </trkpt>
      <trkpt lat="40.181283" lon="-5.042133">
        <ele>408.0</ele>
        <time>2018-09-15T13:43:04Z</time>
      </trkpt>
      <trkpt lat="40.181283" lon="-5.042133">
        <ele>408.0</ele>
        <time>2018-09-15T13:43:05Z</time>
      </trkpt>
      <trkpt lat="40.181283" lon="-5.042133">
        <ele>408.0</ele>
        <time>2018-09-15T13:43:06Z</time>
      </trkpt>
      <trkpt lat="40.181283" lon="-5.042133">
        <ele>408.0</ele>
        <time>2018-09-15T13:43:07Z</time>
      </trkpt>
      <trkpt lat="40.181283" lon="-5.042133">
        <ele>408.0</ele>
        <time>2018-09-15T13:43:08Z</time>
      </trkpt>
      <trkpt lat="40.181283" lon="-5.042133">
        <ele>408.0</ele>
        <time>2018-09-15T13:43:09Z</time>
      </trkpt>
      <trkpt lat="40.181283" lon="-5.042133">
        <ele>408.0</ele>
        <time>2018-09-15T13:43:10Z</time>
      </trkpt>
      <trkpt lat="40.181283" lon="-5.042133">
        <ele>408.0</ele>
        <time>2018-09-15T13:43:11Z</time>
      </trkpt>
      <trkpt lat="40.181283" lon="-5.042133">
        <ele>408.0</ele>
        <time>2018-09-15T13:43:12Z</time>
      </trkpt>
      <trkpt lat="40.181283" lon="-5.042133">
        <ele>408.0</ele>
        <time>2018-09-15T13:43:13Z</time>
      </trkpt>
      <trkpt lat="40.181283" lon="-5.042133">
        <ele>408.0</ele>
        <time>2018-09-15T13:43:14Z</time>
      </trkpt>
      <trkpt lat="40.181283" lon="-5.042133">
        <ele>408.0</ele>
        <time>2018-09-15T13:43:15Z</time>
      </trkpt>
      <trkpt lat="40.181283" lon="-5.042133">
        <ele>408.0</ele>
        <time>2018-09-15T13:43:16Z</time>
      </trkpt>
      <trkpt lat="40.181283" lon="-5.042133">
        <ele>408.0</ele>
        <time>2018-09-15T13:43:17Z</time>
      </trkpt>
      <trkpt lat="40.181283" lon="-5.042133">
        <ele>408.0</ele>
        <time>2018-09-15T13:43:18Z</time>
      </trkpt>
      <trkpt lat="40.181283" lon="-5.042133">
        <ele>408.0</ele>
        <time>2018-09-15T13:43:19Z</time>
      </trkpt>
      <trkpt lat="40.181283" lon="-5.042133">
        <ele>408.0</ele>
        <time>2018-09-15T13:43:20Z</time>
      </trkpt>
      <trkpt lat="40.181283" lon="-5.042133">
        <ele>408.0</ele>
        <time>2018-09-15T13:43:21Z</time>
      </trkpt>
      <trkpt lat="40.181283" lon="-5.042133">
        <ele>408.0</ele>
        <time>2018-09-15T13:43:22Z</time>
      </trkpt>
      <trkpt lat="40.181283" lon="-5.042133">
        <ele>408.0</ele>
        <time>2018-09-15T13:43:23Z</time>
      </trkpt>
      <trkpt lat="40.181283" lon="-5.042133">
        <ele>408.0</ele>
        <time>2018-09-15T13:43:24Z</time>
      </trkpt>
      <trkpt lat="40.181283" lon="-5.042133">
        <ele>408.0</ele>
        <time>2018-09-15T13:43:25Z</time>
      </trkpt>
      <trkpt lat="40.181283" lon="-5.042133">
        <ele>408.0</ele>
        <time>2018-09-15T13:43:26Z</time>
      </trkpt>
      <trkpt lat="40.181283" lon="-5.042133">
        <ele>407.0</ele>
        <time>2018-09-15T13:43:27Z</time>
      </trkpt>
      <trkpt lat="40.181283" lon="-5.042133">
        <ele>407.0</ele>
        <time>2018-09-15T13:43:28Z</time>
      </trkpt>
      <trkpt lat="40.181283" lon="-5.042133">
        <ele>407.0</ele>
        <time>2018-09-15T13:43:29Z</time>
      </trkpt>
      <trkpt lat="40.181283" lon="-5.042133">
        <ele>407.0</ele>
        <time>2018-09-15T13:43:30Z</time>
      </trkpt>
      <trkpt lat="40.181283" lon="-5.042133">
        <ele>407.0</ele>
        <time>2018-09-15T13:43:31Z</time>
      </trkpt>
      <trkpt lat="40.181283" lon="-5.042133">
        <ele>408.0</ele>
        <time>2018-09-15T13:43:32Z</time>
      </trkpt>
      <trkpt lat="40.181283" lon="-5.042133">
        <ele>408.0</ele>
        <time>2018-09-15T13:43:33Z</time>
      </trkpt>
      <trkpt lat="40.181283" lon="-5.042133">
        <ele>408.0</ele>
        <time>2018-09-15T13:43:34Z</time>
      </trkpt>
      <trkpt lat="40.181283" lon="-5.042133">
        <ele>407.0</ele>
        <time>2018-09-15T13:43:35Z</time>
      </trkpt>
      <trkpt lat="40.181283" lon="-5.042133">
        <ele>407.0</ele>
        <time>2018-09-15T13:43:36Z</time>
      </trkpt>
      <trkpt lat="40.181300" lon="-5.042150">
        <ele>407.0</ele>
        <time>2018-09-15T13:43:37Z</time>
      </trkpt>
      <trkpt lat="40.181300" lon="-5.042150">
        <ele>407.0</ele>
        <time>2018-09-15T13:43:38Z</time>
      </trkpt>
      <trkpt lat="40.181300" lon="-5.042150">
        <ele>406.0</ele>
        <time>2018-09-15T13:43:39Z</time>
      </trkpt>
      <trkpt lat="40.181300" lon="-5.042150">
        <ele>406.0</ele>
        <time>2018-09-15T13:43:40Z</time>
      </trkpt>
      <trkpt lat="40.181317" lon="-5.042150">
        <ele>406.0</ele>
        <time>2018-09-15T13:43:41Z</time>
      </trkpt>
      <trkpt lat="40.181317" lon="-5.042150">
        <ele>406.0</ele>
        <time>2018-09-15T13:43:42Z</time>
      </trkpt>
      <trkpt lat="40.181317" lon="-5.042150">
        <ele>406.0</ele>
        <time>2018-09-15T13:43:43Z</time>
      </trkpt>
      <trkpt lat="40.181317" lon="-5.042150">
        <ele>406.0</ele>
        <time>2018-09-15T13:43:44Z</time>
      </trkpt>
      <trkpt lat="40.181300" lon="-5.042133">
        <ele>406.0</ele>
        <time>2018-09-15T13:43:45Z</time>
      </trkpt>
      <trkpt lat="40.181317" lon="-5.042133">
        <ele>406.0</ele>
        <time>2018-09-15T13:43:46Z</time>
      </trkpt>
      <trkpt lat="40.181317" lon="-5.042133">
        <ele>406.0</ele>
        <time>2018-09-15T13:43:47Z</time>
      </trkpt>
      <trkpt lat="40.181317" lon="-5.042133">
        <ele>405.0</ele>
        <time>2018-09-15T13:43:48Z</time>
      </trkpt>
      <trkpt lat="40.181317" lon="-5.042133">
        <ele>405.0</ele>
        <time>2018-09-15T13:43:49Z</time>
      </trkpt>
      <trkpt lat="40.181317" lon="-5.042133">
        <ele>405.0</ele>
        <time>2018-09-15T13:43:50Z</time>
      </trkpt>
      <trkpt lat="40.181300" lon="-5.042133">
        <ele>405.0</ele>
        <time>2018-09-15T13:43:51Z</time>
      </trkpt>
      <trkpt lat="40.181317" lon="-5.042133">
        <ele>404.0</ele>
        <time>2018-09-15T13:43:52Z</time>
      </trkpt>
      <trkpt lat="40.181300" lon="-5.042133">
        <ele>404.0</ele>
        <time>2018-09-15T13:43:53Z</time>
      </trkpt>
      <trkpt lat="40.181300" lon="-5.042133">
        <ele>404.0</ele>
        <time>2018-09-15T13:43:54Z</time>
      </trkpt>
      <trkpt lat="40.181283" lon="-5.042133">
        <ele>404.0</ele>
        <time>2018-09-15T13:43:55Z</time>
      </trkpt>
      <trkpt lat="40.181283" lon="-5.042117">
        <ele>404.0</ele>
        <time>2018-09-15T13:43:56Z</time>
      </trkpt>
      <trkpt lat="40.181267" lon="-5.042117">
        <ele>405.0</ele>
        <time>2018-09-15T13:43:57Z</time>
      </trkpt>
      <trkpt lat="40.181250" lon="-5.042117">
        <ele>405.0</ele>
        <time>2018-09-15T13:43:58Z</time>
      </trkpt>
      <trkpt lat="40.181233" lon="-5.042117">
        <ele>404.0</ele>
        <time>2018-09-15T13:43:59Z</time>
      </trkpt>
      <trkpt lat="40.181233" lon="-5.042100">
        <ele>405.0</ele>
        <time>2018-09-15T13:44:00Z</time>
      </trkpt>
      <trkpt lat="40.181217" lon="-5.042100">
        <ele>405.0</ele>
        <time>2018-09-15T13:44:01Z</time>
      </trkpt>
      <trkpt lat="40.181217" lon="-5.042083">
        <ele>405.0</ele>
        <time>2018-09-15T13:44:02Z</time>
      </trkpt>
      <trkpt lat="40.181200" lon="-5.042083">
        <ele>404.0</ele>
        <time>2018-09-15T13:44:03Z</time>
      </trkpt>
      <trkpt lat="40.181183" lon="-5.042083">
        <ele>404.0</ele>
        <time>2018-09-15T13:44:04Z</time>
      </trkpt>
      <trkpt lat="40.181167" lon="-5.042067">
        <ele>404.0</ele>
        <time>2018-09-15T13:44:05Z</time>
      </trkpt>
      <trkpt lat="40.181167" lon="-5.042067">
        <ele>404.0</ele>
        <time>2018-09-15T13:44:06Z</time>
      </trkpt>
      <trkpt lat="40.181150" lon="-5.042067">
        <ele>405.0</ele>
        <time>2018-09-15T13:44:07Z</time>
      </trkpt>
      <trkpt lat="40.181133" lon="-5.042050">
        <ele>405.0</ele>
        <time>2018-09-15T13:44:08Z</time>
      </trkpt>
      <trkpt lat="40.181133" lon="-5.042050">
        <ele>405.0</ele>
        <time>2018-09-15T13:44:09Z</time>
      </trkpt>
      <trkpt lat="40.181133" lon="-5.042050">
        <ele>404.0</ele>
        <time>2018-09-15T13:44:10Z</time>
      </trkpt>
      <trkpt lat="40.181117" lon="-5.042050">
        <ele>404.0</ele>
        <time>2018-09-15T13:44:11Z</time>
      </trkpt>
      <trkpt lat="40.181133" lon="-5.042033">
        <ele>404.0</ele>
        <time>2018-09-15T13:44:12Z</time>
      </trkpt>
      <trkpt lat="40.181117" lon="-5.042033">
        <ele>404.0</ele>
        <time>2018-09-15T13:44:13Z</time>
      </trkpt>
      <trkpt lat="40.181117" lon="-5.042017">
        <ele>404.0</ele>
        <time>2018-09-15T13:44:14Z</time>
      </trkpt>
      <trkpt lat="40.181117" lon="-5.042017">
        <ele>404.0</ele>
        <time>2018-09-15T13:44:15Z</time>
      </trkpt>
      <trkpt lat="40.181117" lon="-5.042017">
        <ele>404.0</ele>
        <time>2018-09-15T13:44:16Z</time>
      </trkpt>
      <trkpt lat="40.181117" lon="-5.042017">
        <ele>404.0</ele>
        <time>2018-09-15T13:44:17Z</time>
      </trkpt>
      <trkpt lat="40.181117" lon="-5.042017">
        <ele>404.0</ele>
        <time>2018-09-15T13:44:18Z</time>
      </trkpt>
      <trkpt lat="40.181117" lon="-5.042017">
        <ele>404.0</ele>
        <time>2018-09-15T13:44:19Z</time>
      </trkpt>
      <trkpt lat="40.181117" lon="-5.042017">
        <ele>404.0</ele>
        <time>2018-09-15T13:44:20Z</time>
      </trkpt>
      <trkpt lat="40.181117" lon="-5.042017">
        <ele>404.0</ele>
        <time>2018-09-15T13:44:21Z</time>
      </trkpt>
      <trkpt lat="40.181100" lon="-5.042017">
        <ele>405.0</ele>
        <time>2018-09-15T13:44:22Z</time>
      </trkpt>
      <trkpt lat="40.181100" lon="-5.042033">
        <ele>405.0</ele>
        <time>2018-09-15T13:44:23Z</time>
      </trkpt>
      <trkpt lat="40.181100" lon="-5.042033">
        <ele>405.0</ele>
        <time>2018-09-15T13:44:24Z</time>
      </trkpt>
      <trkpt lat="40.181100" lon="-5.042033">
        <ele>405.0</ele>
        <time>2018-09-15T13:44:25Z</time>
      </trkpt>
      <trkpt lat="40.181100" lon="-5.042033">
        <ele>405.0</ele>
        <time>2018-09-15T13:44:26Z</time>
      </trkpt>
      <trkpt lat="40.181100" lon="-5.042033">
        <ele>405.0</ele>
        <time>2018-09-15T13:44:27Z</time>
      </trkpt>
      <trkpt lat="40.181100" lon="-5.042033">
        <ele>405.0</ele>
        <time>2018-09-15T13:44:28Z</time>
      </trkpt>
      <trkpt lat="40.181100" lon="-5.042033">
        <ele>406.0</ele>
        <time>2018-09-15T13:44:29Z</time>
      </trkpt>
      <trkpt lat="40.181100" lon="-5.042033">
        <ele>406.0</ele>
        <time>2018-09-15T13:44:30Z</time>
      </trkpt>
      <trkpt lat="40.181100" lon="-5.042033">
        <ele>406.0</ele>
        <time>2018-09-15T13:44:31Z</time>
      </trkpt>
      <trkpt lat="40.181100" lon="-5.042033">
        <ele>407.0</ele>
        <time>2018-09-15T13:44:32Z</time>
      </trkpt>
      <trkpt lat="40.181100" lon="-5.042033">
        <ele>407.0</ele>
        <time>2018-09-15T13:44:33Z</time>
      </trkpt>
      <trkpt lat="40.181083" lon="-5.042050">
        <ele>407.0</ele>
        <time>2018-09-15T13:44:34Z</time>
      </trkpt>
      <trkpt lat="40.181083" lon="-5.042050">
        <ele>407.0</ele>
        <time>2018-09-15T13:44:35Z</time>
      </trkpt>
      <trkpt lat="40.181083" lon="-5.042050">
        <ele>407.0</ele>
        <time>2018-09-15T13:44:36Z</time>
      </trkpt>
      <trkpt lat="40.181083" lon="-5.042050">
        <ele>407.0</ele>
        <time>2018-09-15T13:44:37Z</time>
      </trkpt>
      <trkpt lat="40.181083" lon="-5.042050">
        <ele>407.0</ele>
        <time>2018-09-15T13:44:38Z</time>
      </trkpt>
      <trkpt lat="40.181083" lon="-5.042050">
        <ele>407.0</ele>
        <time>2018-09-15T13:44:39Z</time>
      </trkpt>
      <trkpt lat="40.181083" lon="-5.042050">
        <ele>407.0</ele>
        <time>2018-09-15T13:44:40Z</time>
      </trkpt>
      <trkpt lat="40.181083" lon="-5.042050">
        <ele>407.0</ele>
        <time>2018-09-15T13:44:41Z</time>
      </trkpt>
      <trkpt lat="40.181083" lon="-5.042050">
        <ele>407.0</ele>
        <time>2018-09-15T13:44:42Z</time>
      </trkpt>
      <trkpt lat="40.181083" lon="-5.042050">
        <ele>407.0</ele>
        <time>2018-09-15T13:44:43Z</time>
      </trkpt>
      <trkpt lat="40.181083" lon="-5.042050">
        <ele>407.0</ele>
        <time>2018-09-15T13:44:44Z</time>
      </trkpt>
      <trkpt lat="40.181100" lon="-5.042050">
        <ele>407.0</ele>
        <time>2018-09-15T13:44:45Z</time>
      </trkpt>
      <trkpt lat="40.181100" lon="-5.042050">
        <ele>407.0</ele>
        <time>2018-09-15T13:44:46Z</time>
      </trkpt>
      <trkpt lat="40.181100" lon="-5.042050">
        <ele>407.0</ele>
        <time>2018-09-15T13:44:47Z</time>
      </trkpt>
      <trkpt lat="40.181100" lon="-5.042050">
        <ele>407.0</ele>
        <time>2018-09-15T13:44:48Z</time>
      </trkpt>
      <trkpt lat="40.181100" lon="-5.042050">
        <ele>407.0</ele>
        <time>2018-09-15T13:44:49Z</time>
      </trkpt>
      <trkpt lat="40.181100" lon="-5.042050">
        <ele>407.0</ele>
        <time>2018-09-15T13:44:50Z</time>
      </trkpt>
      <trkpt lat="40.181100" lon="-5.042050">
        <ele>407.0</ele>
        <time>2018-09-15T13:44:51Z</time>
      </trkpt>
      <trkpt lat="40.181100" lon="-5.042050">
        <ele>407.0</ele>
        <time>2018-09-15T13:44:52Z</time>
      </trkpt>
      <trkpt lat="40.181100" lon="-5.042050">
        <ele>407.0</ele>
        <time>2018-09-15T13:44:53Z</time>
      </trkpt>
      <trkpt lat="40.181100" lon="-5.042050">
        <ele>407.0</ele>
        <time>2018-09-15T13:44:54Z</time>
      </trkpt>
      <trkpt lat="40.181100" lon="-5.042050">
        <ele>407.0</ele>
        <time>2018-09-15T13:44:55Z</time>
      </trkpt>
      <trkpt lat="40.181100" lon="-5.042050">
        <ele>407.0</ele>
        <time>2018-09-15T13:44:56Z</time>
      </trkpt>
      <trkpt lat="40.181100" lon="-5.042050">
        <ele>408.0</ele>
        <time>2018-09-15T13:44:57Z</time>
      </trkpt>
      <trkpt lat="40.181100" lon="-5.042050">
        <ele>408.0</ele>
        <time>2018-09-15T13:44:58Z</time>
      </trkpt>
      <trkpt lat="40.181100" lon="-5.042050">
        <ele>408.0</ele>
        <time>2018-09-15T13:44:59Z</time>
      </trkpt>
      <trkpt lat="40.181100" lon="-5.042050">
        <ele>407.0</ele>
        <time>2018-09-15T13:45:00Z</time>
      </trkpt>
      <trkpt lat="40.181100" lon="-5.042050">
        <ele>407.0</ele>
        <time>2018-09-15T13:45:01Z</time>
      </trkpt>
      <trkpt lat="40.181100" lon="-5.042050">
        <ele>407.0</ele>
        <time>2018-09-15T13:45:02Z</time>
      </trkpt>
      <trkpt lat="40.181100" lon="-5.042050">
        <ele>407.0</ele>
        <time>2018-09-15T13:45:03Z</time>
      </trkpt>
      <trkpt lat="40.181100" lon="-5.042050">
        <ele>407.0</ele>
        <time>2018-09-15T13:45:04Z</time>
      </trkpt>
      <trkpt lat="40.181100" lon="-5.042050">
        <ele>407.0</ele>
        <time>2018-09-15T13:45:05Z</time>
      </trkpt>
      <trkpt lat="40.181100" lon="-5.042050">
        <ele>406.0</ele>
        <time>2018-09-15T13:45:06Z</time>
      </trkpt>
      <trkpt lat="40.181100" lon="-5.042050">
        <ele>406.0</ele>
        <time>2018-09-15T13:45:07Z</time>
      </trkpt>
      <trkpt lat="40.181100" lon="-5.042050">
        <ele>406.0</ele>
        <time>2018-09-15T13:45:08Z</time>
      </trkpt>
      <trkpt lat="40.181100" lon="-5.042050">
        <ele>406.0</ele>
        <time>2018-09-15T13:45:09Z</time>
      </trkpt>
      <trkpt lat="40.181100" lon="-5.042050">
        <ele>406.0</ele>
        <time>2018-09-15T13:45:10Z</time>
      </trkpt>
      <trkpt lat="40.181100" lon="-5.042050">
        <ele>406.0</ele>
        <time>2018-09-15T13:45:11Z</time>
      </trkpt>
      <trkpt lat="40.181100" lon="-5.042050">
        <ele>406.0</ele>
        <time>2018-09-15T13:45:12Z</time>
      </trkpt>
      <trkpt lat="40.181100" lon="-5.042050">
        <ele>406.0</ele>
        <time>2018-09-15T13:45:13Z</time>
      </trkpt>
      <trkpt lat="40.181100" lon="-5.042050">
        <ele>406.0</ele>
        <time>2018-09-15T13:45:14Z</time>
      </trkpt>
    </trkseg>
  </trk>
</gpx>
